
Distance (Route):
Temperature : 15.1°C
Humidity : 92.2%
Pressure : 952.4hPa| Receiver | Frames | First received | Last received |
|---|---|---|---|
| BIOWL1-15 | 620 | 2026-08-31 16:57:17 | 2026-08-31 18:52:56 |
| DM0DOS-11 | 534 | 2026-08-31 16:57:17 | 2026-08-31 18:52:41 |
| DO3MHA-11 | 300 | 2026-08-31 17:14:26 | 2026-08-31 18:56:41 |
| DL1NUX | 234 | 2026-08-31 17:52:53 | 2026-08-31 18:55:18 |
| DL1XH-west | 215 | 2026-08-31 17:47:11 | 2026-08-31 18:26:14 |
| DL1XH1-15 | 170 | 2026-08-31 17:47:27 | 2026-08-31 18:25:48 |
| DK5PH-5 | 146 | 2026-08-31 16:51:15 | 2026-08-31 19:06:19 |
| DB0UT-7 | 144 | 2026-08-31 16:45:39 | 2026-08-31 19:05:36 |
| DJ2DS-15 | 133 | 2026-08-31 17:28:53 | 2026-08-31 18:32:05 |
| DB0UT-9 | 124 | 2026-08-31 16:34:42 | 2026-08-31 19:05:16 |
| DL1ZP-14 | 117 | 2026-08-31 16:48:16 | 2026-08-31 19:03:54 |
| DF7PN | 116 | 2026-08-31 16:49:52 | 2026-08-31 19:04:27 |
| DB0ND-19 | 112 | 2026-08-31 16:47:24 | 2026-08-31 19:05:34 |
| NBG1-10 | 99 | 2026-08-31 17:07:12 | 2026-08-31 19:03:49 |
| DM7RM-13 | 86 | 2026-08-31 17:11:01 | 2026-08-31 19:06:18 |
| DB0NH | 85 | 2026-08-31 17:30:30 | 2026-08-31 19:06:02 |
| DL0LBS | 80 | 2026-08-31 17:00:29 | 2026-08-31 19:03:41 |
| HSKMA3-T | 75 | 2026-08-31 17:48:25 | 2026-08-31 18:37:10 |
| BIOWL9-15 | 69 | 2026-08-31 16:58:43 | 2026-08-31 18:48:54 |
| DL9PN | 68 | 2026-08-31 16:48:06 | 2026-08-31 18:44:05 |
| DO3DL | 67 | 2026-08-31 17:21:35 | 2026-08-31 18:41:02 |
| HEMX73-11 | 61 | 2026-08-31 16:48:18 | 2026-08-31 18:40:54 |
| DF1GD-15 | 61 | 2026-08-31 16:55:15 | 2026-08-31 18:58:40 |
| SFWM-10 | 57 | 2026-08-31 17:17:04 | 2026-08-31 19:00:09 |
| DM3KS-11 | 54 | 2026-08-31 16:51:14 | 2026-08-31 18:08:21 |
| BIOWL7-15 | 54 | 2026-08-31 16:58:23 | 2026-08-31 18:52:01 |
| DF2AP-13 | 52 | 2026-08-31 17:18:34 | 2026-08-31 18:52:00 |
| DK7TD | 52 | 2026-08-31 18:25:24 | 2026-08-31 18:49:12 |
| DL8DAS-15 | 51 | 2026-08-31 17:14:18 | 2026-08-31 18:35:42 |
| DF3TZ-5 | 50 | 2026-08-31 17:11:21 | 2026-08-31 18:58:57 |
| DL8DAS-14 | 49 | 2026-08-31 17:13:36 | 2026-08-31 18:36:20 |
| DL1XH-15 | 45 | 2026-08-31 18:06:56 | 2026-08-31 18:18:35 |
| KANTATE | 41 | 2026-08-31 17:35:42 | 2026-08-31 18:45:33 |
| DN1GJH-1 | 35 | 2026-08-31 17:23:36 | 2026-08-31 18:46:25 |
| SO1NDE-10 | 35 | 2026-08-31 17:56:04 | 2026-08-31 18:53:59 |
| DO1YAY-16 | 30 | 2026-08-31 17:12:25 | 2026-08-31 18:26:27 |
| DJTTGO | 22 | 2026-08-31 17:40:23 | 2026-08-31 18:46:46 |
| DH7VM-15 | 18 | 2026-08-31 16:56:13 | 2026-08-31 18:53:22 |
| DL4BBY-15 | 17 | 2026-08-31 17:36:08 | 2026-08-31 18:27:17 |
| DL1KLB | 17 | 2026-08-31 17:56:44 | 2026-08-31 18:41:34 |
| SONDE2-11 | 15 | 2026-08-31 17:54:42 | 2026-08-31 18:20:03 |
| SONCRA | 14 | 2026-08-31 17:58:26 | 2026-08-31 18:20:11 |
| DJ2KF-10 | 12 | 2026-08-31 17:43:38 | 2026-08-31 18:13:23 |
| AA1-15 | 12 | 2026-08-31 18:11:26 | 2026-08-31 18:16:05 |
| DL8OAI-8 | 10 | 2026-08-31 17:51:07 | 2026-08-31 18:25:04 |
| IW2NTF | 8 | 2026-08-31 18:08:52 | 2026-08-31 18:17:12 |
| HTAHTA | 6 | 2026-08-31 18:00:53 | 2026-08-31 18:21:03 |
| DD1CC2-15 | 3 | 2026-08-31 17:46:04 | 2026-08-31 17:46:43 |
| DO2KSM | 3 | 2026-08-31 17:58:15 | 2026-08-31 18:04:47 |
| HEMX73-6 | 2 | 2026-08-31 17:11:31 | 2026-08-31 18:39:35 |
| DJ3KS | 2 | 2026-08-31 17:30:04 | 2026-08-31 17:36:35 |
| DL6DJ-15 | 2 | 2026-08-31 18:08:46 | 2026-08-31 18:09:48 |
| DO9LL-15 | 2 | 2026-08-31 18:32:24 | 2026-08-31 18:34:24 |
| DD1CC8 | 2 | 2026-08-31 18:34:08 | 2026-08-31 18:36:12 |
| BEGRI65-1 | 2 | 2026-08-31 18:37:20 | 2026-08-31 18:37:41 |
| DG1MJG | 1 | 2026-08-31 18:13:15 | 2026-08-31 18:13:15 |
| Receiver | Date | Latitude | Longitude | Direction | Speed | Altitude | Climb | Temperature | Humidity | Pressure | Voltage | Killtimer | Uptime | BKT | XDATA |
|---|---|---|---|---|---|---|---|---|---|---|---|---|---|---|---|
| DK5PH-5 | 2026-08-31 19:06:19 | 49.57411 | 9.40339 | 49° | 44km/h | 603m | -4.8m/s | 15.1°C | 92.2% | 952.4hPa | 2.7V | 00:00:00 | 02:37:09 | 00:00:00 | |
| DM7RM-13 | 2026-08-31 19:06:18 | 49.57411 | 9.40339 | 49° | 44km/h | 603m | -4.9m/s | 15.2°C | 92.0% | 952.5hPa | 2.7V | 02:42:00 | 00:00:00 | 00:00:00 | |
| DK5PH-5 | 2026-08-31 19:06:14 | 49.57373 | 9.40274 | 48° | 46km/h | 629m | -5.8m/s | 14.9°C | 93.3% | 949.7hPa | 2.7V | 02:41:00 | 02:37:04 | 00:00:00 | |
| DK5PH-5 | 2026-08-31 19:06:09 | 49.57336 | 9.40202 | 58° | 47km/h | 657m | -4.8m/s | 14.8°C | 93.2% | 946.5hPa | 2.7V | 00:00:00 | 02:36:59 | 00:00:00 | |
| DK5PH-5 | 2026-08-31 19:06:04 | 49.57305 | 9.40122 | 61° | 49km/h | 683m | -6.0m/s | 14.7°C | 93.2% | 943.6hPa | 2.7V | 00:00:00 | 02:36:54 | 00:00:00 | |
| DB0NH | 2026-08-31 19:06:02 | 49.57293 | 9.40089 | 61° | 51km/h | 695m | -5.9m/s | 14.6°C | 93.0% | 942.4hPa | 2.7V | 00:00:00 | 02:36:52 | 00:00:00 | |
| DM7RM-13 | 2026-08-31 19:05:58 | 49.57274 | 9.40040 | 59° | 49km/h | 711m | -5.2m/s | 14.6°C | 93.4% | 940.6hPa | 2.7V | 02:42:00 | 00:00:00 | 00:00:00 | |
| DK5PH-5 | 2026-08-31 19:05:57 | 49.57260 | 9.40006 | 58° | 53km/h | 721m | -5.1m/s | 14.4°C | 94.2% | 939.6hPa | 2.7V | 02:41:00 | 02:36:47 | 00:00:00 | |
| DB0NH | 2026-08-31 19:05:56 | 49.57253 | 9.39989 | 57° | 55km/h | 727m | -5.2m/s | 14.4°C | 94.4% | 938.9hPa | 2.7V | 02:41:00 | 02:36:46 | 00:00:00 | |
| DK5PH-5 | 2026-08-31 19:05:52 | 49.57222 | 9.39920 | 59° | 55km/h | 748m | -5.0m/s | 14.2°C | 95.3% | 936.5hPa | 2.7V | 00:00:00 | 02:36:42 | 00:00:00 | |
| DB0NH | 2026-08-31 19:05:50 | 49.57208 | 9.39883 | 62° | 53km/h | 759m | -5.1m/s | 14.1°C | 95.8% | 935.5hPa | 2.7V | 00:00:00 | 02:36:40 | 00:00:00 | |
| DK5PH-5 | 2026-08-31 19:05:47 | 49.57190 | 9.39828 | 65° | 53km/h | 774m | -5.0m/s | 14.0°C | 96.3% | 933.6hPa | 2.7V | 00:00:00 | 02:36:37 | 00:00:00 | |
| DB0NH | 2026-08-31 19:05:45 | 49.57178 | 9.39790 | 66° | 53km/h | 784m | -5.6m/s | 13.9°C | 96.1% | 932.5hPa | 2.7V | 00:00:00 | 02:36:35 | 00:00:00 | |
| DK5PH-5 | 2026-08-31 19:05:42 | 49.57161 | 9.39734 | 63° | 57km/h | 801m | -4.9m/s | 13.8°C | 96.8% | 930.6hPa | 2.7V | 02:41:00 | 02:36:32 | 00:00:00 | |
| DB0NH | 2026-08-31 19:05:40 | 49.57148 | 9.39698 | 59° | 58km/h | 810m | -4.4m/s | 13.7°C | 97.2% | 929.6hPa | 2.7V | 02:42:00 | 02:36:30 | 00:00:00 | |
| DM7RM-13 | 2026-08-31 19:05:37 | 49.57132 | 9.39660 | 58° | 60km/h | 821m | -5.0m/s | 13.9°C | 95.5% | 928.7hPa | 2.7V | 02:42:00 | 00:00:00 | 00:00:00 | |
| DK5PH-5 | 2026-08-31 19:05:37 | 49.57124 | 9.39639 | 60° | 62km/h | 826m | -5.4m/s | 13.7°C | 96.4% | 928.1hPa | 2.7V | 00:00:00 | 02:36:27 | 00:00:00 | |
| DB0UT-7 | 2026-08-31 19:05:36 | 49.57116 | 9.39619 | 59° | 62km/h | 831m | -5.4m/s | 13.7°C | 96.5% | 927.5hPa | 2.7V | 00:00:00 | 00:00:00 | 00:00:00 | |
| DB0NH | 2026-08-31 19:05:35 | 49.57108 | 9.39599 | 60° | 62km/h | 837m | -4.9m/s | 13.7°C | 96.3% | 926.8hPa | 2.7V | 00:00:00 | 02:36:25 | 00:00:00 | |
| DB0ND-19 | 2026-08-31 19:05:34 | 49.57100 | 9.39578 | 60° | 60km/h | 841m | -5.0m/s | 13.7°C | 96.3% | 926.4hPa | 2.7V | 00:00:00 | 00:00:00 | 00:00:00 | |
| DK5PH-5 | 2026-08-31 19:05:32 | 49.57085 | 9.39535 | 63° | 64km/h | 851m | -5.0m/s | 13.5°C | 97.6% | 925.2hPa | 2.7V | 00:00:00 | 02:36:22 | 00:00:00 | |
| DB0UT-7 | 2026-08-31 19:05:31 | 49.57078 | 9.39512 | 64° | 64km/h | 856m | -5.0m/s | 13.5°C | 97.8% | 924.7hPa | 2.7V | 00:00:00 | 02:36:21 | 00:00:00 | |
| DB0NH | 2026-08-31 19:05:30 | 49.57071 | 9.39490 | 64° | 64km/h | 861m | -4.8m/s | 13.5°C | 97.3% | 924.1hPa | 2.7V | 00:00:00 | 02:36:20 | 00:00:00 | |
| DK5PH-5 | 2026-08-31 19:05:27 | 49.57049 | 9.39424 | 66° | 62km/h | 876m | -5.1m/s | 13.4°C | 97.4% | 922.6hPa | 2.7V | 02:42:00 | 02:36:17 | 00:00:00 | |
| DB0UT-7 | 2026-08-31 19:05:26 | 49.57042 | 9.39401 | 67° | 62km/h | 881m | -4.6m/s | 13.4°C | 97.5% | 922.0hPa | 2.7V | 02:42:00 | 00:00:00 | 00:00:00 | |
| DB0NH | 2026-08-31 19:05:25 | 49.57036 | 9.39379 | 68° | 62km/h | 885m | -5.0m/s | 13.3°C | 98.2% | 921.4hPa | 2.6V | 02:42:00 | 02:36:15 | 00:00:00 | |
| DK5PH-5 | 2026-08-31 19:05:22 | 49.57019 | 9.39312 | 70° | 60km/h | 900m | -4.5m/s | 13.2°C | 98.0% | 920.1hPa | 2.7V | 00:00:00 | 02:36:12 | 00:00:00 | |
| DB0UT-7 | 2026-08-31 19:05:21 | 49.57013 | 9.39290 | 70° | 60km/h | 904m | -4.4m/s | 13.2°C | 98.0% | 919.5hPa | 2.7V | 00:00:00 | 02:36:11 | 00:00:00 | |
| DB0NH | 2026-08-31 19:05:20 | 49.57008 | 9.39267 | 70° | 60km/h | 909m | -4.6m/s | 13.2°C | 98.0% | 919.0hPa | 2.7V | 00:00:00 | 02:36:10 | 00:00:00 | |
| DK5PH-5 | 2026-08-31 19:05:17 | 49.56992 | 9.39201 | 70° | 60km/h | 923m | -4.8m/s | 13.1°C | 98.3% | 917.4hPa | 2.7V | 00:00:00 | 02:36:07 | 00:00:00 | |
| DB0UT-9 | 2026-08-31 19:05:16 | 49.56992 | 9.39201 | 71° | 60km/h | 923m | -4.8m/s | 13.1°C | 97.9% | 917.4hPa | 2.7V | 02:42:00 | 00:00:00 | 00:00:00 | |
| DM7RM-13 | 2026-08-31 19:05:16 | 49.56992 | 9.39201 | 71° | 60km/h | 923m | -4.8m/s | 13.1°C | 97.9% | 917.4hPa | 2.7V | 02:42:00 | 00:00:00 | 00:00:00 | |
| DB0UT-7 | 2026-08-31 19:05:16 | 49.56986 | 9.39178 | 71° | 60km/h | 928m | -4.8m/s | 13.1°C | 98.5% | 916.8hPa | 2.7V | 00:00:00 | 00:00:00 | 00:00:00 | |
| DB0NH | 2026-08-31 19:05:15 | 49.56981 | 9.39156 | 71° | 60km/h | 933m | -4.6m/s | 13.1°C | 97.8% | 916.3hPa | 2.7V | 00:00:00 | 02:36:05 | 00:00:00 | |
| DK5PH-5 | 2026-08-31 19:05:12 | 49.56967 | 9.39089 | 73° | 60km/h | 947m | -4.8m/s | 13.1°C | 97.4% | 914.7hPa | 2.7V | 02:42:00 | 02:36:02 | 00:00:00 | |
| DB0UT-7 | 2026-08-31 19:05:11 | 49.56962 | 9.39066 | 75° | 60km/h | 952m | -4.8m/s | 13.1°C | 97.5% | 914.3hPa | 2.7V | 02:42:00 | 02:36:01 | 00:00:00 | |
| DB0NH | 2026-08-31 19:05:10 | 49.56958 | 9.39044 | 75° | 60km/h | 957m | -4.7m/s | 13.1°C | 97.3% | 913.6hPa | 2.7V | 02:42:00 | 02:36:00 | 00:00:00 | |
| DK5PH-5 | 2026-08-31 19:05:07 | 49.56946 | 9.38976 | 75° | 62km/h | 971m | -5.2m/s | 13.0°C | 97.4% | 912.2hPa | 2.7V | 00:00:00 | 02:35:57 | 00:00:00 | |
| DB0UT-7 | 2026-08-31 19:05:06 | 49.56942 | 9.38953 | 75° | 62km/h | 976m | -4.8m/s | 13.0°C | 97.7% | 911.5hPa | 2.7V | 00:00:00 | 00:00:00 | 00:00:00 | |
| DB0NH | 2026-08-31 19:05:05 | 49.56938 | 9.38930 | 74° | 62km/h | 981m | -5.2m/s | 12.9°C | 97.8% | 910.9hPa | 2.7V | 00:00:00 | 02:35:55 | 00:00:00 | |
| DB0ND-19 | 2026-08-31 19:05:03 | 49.56928 | 9.38884 | 71° | 60km/h | 991m | -4.8m/s | 12.9°C | 97.5% | 909.9hPa | 2.7V | 00:00:00 | 00:00:00 | 00:00:00 | |
| DK5PH-5 | 2026-08-31 19:05:02 | 49.56923 | 9.38861 | 73° | 62km/h | 996m | -4.5m/s | 12.8°C | 97.9% | 909.5hPa | 2.7V | 00:00:00 | 02:35:52 | 00:00:00 | |
| DB0NH | 2026-08-31 19:05:00 | 49.56915 | 9.38815 | 75° | 62km/h | 1005m | -4.6m/s | 12.8°C | 97.7% | 908.5hPa | 2.7V | 00:00:00 | 02:35:50 | 00:00:00 | |
| DB0UT-9 | 2026-08-31 19:04:56 | 49.56903 | 9.38746 | 78° | 62km/h | 1019m | -4.7m/s | 12.8°C | 97.5% | 907.1hPa | 2.7V | 02:42:00 | 00:00:00 | 00:00:00 | |
| DM7RM-13 | 2026-08-31 19:04:56 | 49.56903 | 9.38746 | 78° | 62km/h | 1019m | -4.7m/s | 12.8°C | 97.5% | 907.1hPa | 2.7V | 02:42:00 | 00:00:00 | 00:00:00 | |
| DK5PH-5 | 2026-08-31 19:04:54 | 49.56893 | 9.38675 | 80° | 66km/h | 1033m | -4.8m/s | 12.6°C | 98.4% | 905.4hPa | 2.7V | 02:42:00 | 02:35:44 | 00:00:00 | |
| DB0UT-7 | 2026-08-31 19:04:51 | 49.56885 | 9.38601 | 80° | 66km/h | 1049m | -4.8m/s | 12.5°C | 98.8% | 903.8hPa | 2.7V | 02:42:00 | 00:00:00 | 00:00:00 | |
| DB0NH | 2026-08-31 19:04:50 | 49.56882 | 9.38577 | 80° | 66km/h | 1054m | -5.4m/s | 12.5°C | 99.1% | 903.2hPa | 2.7V | 02:42:00 | 02:35:40 | 00:00:00 | |
| DK5PH-5 | 2026-08-31 19:04:44 | 49.56866 | 9.38425 | 83° | 66km/h | 1080m | -4.2m/s | 12.3°C | 99.0% | 900.4hPa | 2.7V | 00:00:00 | 02:35:34 | 00:00:00 | |
| DB0UT-7 | 2026-08-31 19:04:41 | 49.56859 | 9.38348 | 86° | 66km/h | 1091m | -3.7m/s | 12.2°C | 99.6% | 899.1hPa | 2.7V | 00:00:00 | 02:35:31 | 00:00:00 | |
| DB0NH | 2026-08-31 19:04:40 | 49.56858 | 9.38322 | 86° | 66km/h | 1095m | -4.0m/s | 12.1°C | 99.0% | 898.6hPa | 2.7V | 00:00:00 | 02:35:30 | 00:00:00 | |
| DM7RM-13 | 2026-08-31 19:04:35 | 49.56855 | 9.38220 | 88° | 66km/h | 1114m | -4.3m/s | 12.2°C | 94.3% | 896.9hPa | 2.7V | 02:43:00 | 00:00:00 | 00:00:00 | |
| DB0UT-9 | 2026-08-31 19:04:35 | 49.56855 | 9.38220 | 88° | 66km/h | 1114m | -4.3m/s | 12.2°C | 94.3% | 896.9hPa | 2.7V | 02:43:00 | 00:00:00 | 00:00:00 | |
| DK5PH-5 | 2026-08-31 19:04:34 | 49.56853 | 9.38169 | 89° | 71km/h | 1122m | -3.7m/s | 12.1°C | 95.6% | 895.9hPa | 2.7V | 00:00:00 | 02:35:24 | 00:00:00 | |
| DB0ND-19 | 2026-08-31 19:04:32 | 49.56852 | 9.38117 | 87° | 69km/h | 1131m | -5.6m/s | 12.3°C | 84.0% | 895.0hPa | 2.7V | 00:00:00 | 00:00:00 | 00:00:00 | |
| DB0UT-7 | 2026-08-31 19:04:31 | 49.56852 | 9.38090 | 90° | 71km/h | 1138m | -6.0m/s | 12.4°C | 80.9% | 894.3hPa | 2.7V | 00:00:00 | 00:00:00 | 00:00:00 | |
| DB0NH | 2026-08-31 19:04:30 | 49.56852 | 9.38062 | 91° | 71km/h | 1143m | -5.6m/s | 12.3°C | 81.1% | 893.8hPa | 2.7V | 00:00:00 | 02:35:20 | 00:00:00 | |
| DF7PN | 2026-08-31 19:04:27 | 49.56852 | 9.37978 | 89° | 71km/h | 1157m | -4.3m/s | 12.0°C | 86.0% | 892.0hPa | 2.7V | 00:00:00 | 00:00:00 | 00:00:00 | |
| DK5PH-5 | 2026-08-31 19:04:24 | 49.56851 | 9.37893 | 90° | 73km/h | 1169m | -3.6m/s | 11.6°C | 93.5% | 890.7hPa | 2.7V | 02:43:00 | 02:35:14 | 00:00:00 | |
| DB0UT-7 | 2026-08-31 19:04:21 | 49.56851 | 9.37809 | 90° | 75km/h | 1180m | -4.1m/s | 11.6°C | 93.6% | 889.6hPa | 2.6V | 02:43:00 | 02:35:11 | 00:00:00 | |
| DB0NH | 2026-08-31 19:04:20 | 49.56851 | 9.37782 | 91° | 77km/h | 1184m | -4.0m/s | 11.6°C | 92.8% | 889.2hPa | 2.7V | 02:43:00 | 02:35:10 | 00:00:00 | |
| DB0UT-9 | 2026-08-31 19:04:14 | 49.56853 | 9.37636 | 93° | 77km/h | 1202m | -3.2m/s | 12.3°C | 66.6% | 887.4hPa | 2.6V | 02:43:00 | 00:00:00 | 00:00:00 | |
| DM7RM-13 | 2026-08-31 19:04:14 | 49.56853 | 9.37636 | 93° | 77km/h | 1202m | -3.2m/s | 12.3°C | 66.6% | 887.4hPa | 2.6V | 02:43:00 | 00:00:00 | 00:00:00 | |
| DK5PH-5 | 2026-08-31 19:04:14 | 49.56853 | 9.37605 | 91° | 78km/h | 1205m | -3.4m/s | 12.0°C | 75.1% | 887.0hPa | 2.6V | 00:00:00 | 02:35:04 | 00:00:00 | |
| DB0UT-7 | 2026-08-31 19:04:11 | 49.56857 | 9.37516 | 94° | 78km/h | 1218m | -5.5m/s | 12.4°C | 62.8% | 885.7hPa | 2.6V | 00:00:00 | 00:00:00 | 00:00:00 | |
| DB0NH | 2026-08-31 19:04:10 | 49.56859 | 9.37486 | 95° | 78km/h | 1223m | -5.5m/s | 12.4°C | 62.2% | 885.1hPa | 2.6V | 00:00:00 | 02:35:00 | 00:00:00 | |
| DK5PH-5 | 2026-08-31 19:04:04 | 49.56860 | 9.37303 | 88° | 82km/h | 1253m | -5.1m/s | 11.6°C | 74.6% | 881.9hPa | 2.6V | 00:00:00 | 02:34:54 | 00:00:00 | |
| DB0ND-19 | 2026-08-31 19:04:01 | 49.56858 | 9.37208 | 87° | 80km/h | 1268m | -5.1m/s | 11.4°C | 78.3% | 880.3hPa | 2.6V | 00:00:00 | 00:00:00 | 00:00:00 | |
| DF7PN | 2026-08-31 19:03:56 | 49.56857 | 9.37051 | 92° | 80km/h | 1288m | -3.1m/s | 11.2°C | 79.9% | 878.0hPa | 2.6V | 00:00:00 | 00:00:00 | 00:00:00 | |
| DL1ZP-14 | 2026-08-31 19:03:54 | 49.56863 | 9.36792 | 91° | 82km/h | 1317m | -3.7m/s | 11.2°C | 74.5% | 875.0hPa | 2.6V | 00:00:00 | 00:00:00 | 00:00:00 | |
| DK5PH-5 | 2026-08-31 19:03:54 | 49.56859 | 9.36986 | 93° | 84km/h | 1294m | -3.1m/s | 11.1°C | 79.6% | 877.3hPa | 2.7V | 02:43:00 | 02:34:44 | 00:00:00 | |
| DM7RM-13 | 2026-08-31 19:03:53 | 49.56859 | 9.36986 | 94° | 84km/h | 1294m | -3.2m/s | 11.2°C | 79.1% | 877.4hPa | 2.7V | 02:43:00 | 00:00:00 | 00:00:00 | |
| DB0UT-7 | 2026-08-31 19:03:51 | 49.56861 | 9.36889 | 92° | 84km/h | 1305m | -3.7m/s | 11.1°C | 76.6% | 876.2hPa | 2.7V | 02:43:00 | 00:00:00 | 00:00:00 | |
| DB0NH | 2026-08-31 19:03:50 | 49.56862 | 9.36857 | 92° | 84km/h | 1309m | -4.0m/s | 11.1°C | 76.2% | 875.8hPa | 2.7V | 02:43:00 | 02:34:40 | 00:00:00 | |
| NBG1-10 | 2026-08-31 19:03:49 | 49.56862 | 9.36825 | 92° | 84km/h | 1313m | -4.0m/s | 11.1°C | 73.7% | 875.4hPa | 2.7V | 00:00:00 | 02:34:39 | 00:00:00 | |
| DK5PH-5 | 2026-08-31 19:03:44 | 49.56866 | 9.36662 | 92° | 86km/h | 1333m | -3.9m/s | 11.5°C | 62.9% | 873.4hPa | 2.7V | 00:00:00 | 02:34:34 | 00:00:00 | |
| DL0LBS | 2026-08-31 19:03:41 | 49.56867 | 9.36596 | 94° | 86km/h | 1340m | -3.9m/s | 11.4°C | 71.5% | 872.7hPa | 2.7V | 02:44:00 | 00:00:00 | 00:00:00 | |
| NBG1-10 | 2026-08-31 19:03:41 | 49.56868 | 9.36562 | 94° | 86km/h | 1344m | -3.8m/s | 11.7°C | 61.8% | 872.2hPa | 2.7V | 00:00:00 | 02:34:31 | 00:00:00 | |
| DB0UT-7 | 2026-08-31 19:03:41 | 49.56868 | 9.36562 | 94° | 86km/h | 1344m | -3.8m/s | 11.7°C | 61.8% | 872.2hPa | 2.7V | 00:00:00 | 02:34:31 | 00:00:00 | |
| DB0NH | 2026-08-31 19:03:40 | 49.56869 | 9.36529 | 93° | 86km/h | 1348m | -3.8m/s | 11.7°C | 61.3% | 872.0hPa | 2.7V | 00:00:00 | 02:34:30 | 00:00:00 | |
| NBG1-10 | 2026-08-31 19:03:34 | 49.56873 | 9.36328 | 91° | 84km/h | 1370m | -3.9m/s | 11.7°C | 60.5% | 869.4hPa | 2.7V | 02:44:00 | 02:34:24 | 00:00:00 | |
| DK5PH-5 | 2026-08-31 19:03:34 | 49.56873 | 9.36328 | 91° | 86km/h | 1370m | -3.9m/s | 11.7°C | 60.5% | 869.4hPa | 2.7V | 00:00:00 | 02:34:24 | 00:00:00 | |
| DB0UT-9 | 2026-08-31 19:03:33 | 49.56873 | 9.36328 | 91° | 86km/h | 1370m | -4.0m/s | 11.7°C | 60.2% | 869.4hPa | 2.7V | 02:44:00 | 00:00:00 | 00:00:00 | |
| DM7RM-13 | 2026-08-31 19:03:33 | 49.56873 | 9.36328 | 91° | 86km/h | 1370m | -4.0m/s | 11.7°C | 60.2% | 869.4hPa | 2.7V | 02:44:00 | 00:00:00 | 00:00:00 | |
| DB0UT-7 | 2026-08-31 19:03:31 | 49.56873 | 9.36229 | 91° | 86km/h | 1382m | -3.8m/s | 11.6°C | 60.9% | 868.3hPa | 2.7V | 00:00:00 | 00:00:00 | 00:00:00 | |
| DB0ND-19 | 2026-08-31 19:03:30 | 49.56873 | 9.36196 | 90° | 84km/h | 1385m | -3.4m/s | 11.6°C | 60.6% | 868.0hPa | 2.7V | 00:00:00 | 00:00:00 | 00:00:00 | |
| DB0NH | 2026-08-31 19:03:30 | 49.56873 | 9.36196 | 91° | 86km/h | 1385m | -3.4m/s | 11.5°C | 60.9% | 868.0hPa | 2.7V | 00:00:00 | 02:34:20 | 00:00:00 | |
| DF7PN | 2026-08-31 19:03:25 | 49.56874 | 9.36029 | 91° | 86km/h | 1404m | -4.1m/s | 11.5°C | 60.8% | 866.0hPa | 2.7V | 00:00:00 | 00:00:00 | 00:00:00 | |
| DK5PH-5 | 2026-08-31 19:03:24 | 49.56874 | 9.35995 | 92° | 86km/h | 1408m | -4.5m/s | 11.4°C | 59.1% | 865.5hPa | 2.7V | 02:44:00 | 02:34:14 | 00:00:00 | |
| DL1ZP-14 | 2026-08-31 19:03:23 | 49.56876 | 9.35928 | 92° | 86km/h | 1416m | -4.0m/s | 11.3°C | 60.7% | 864.6hPa | 2.6V | 00:00:00 | 00:00:00 | 00:00:00 | |
| DB0UT-7 | 2026-08-31 19:03:21 | 49.56876 | 9.35894 | 93° | 86km/h | 1420m | -3.8m/s | 11.2°C | 59.1% | 864.2hPa | 2.6V | 02:44:00 | 02:34:11 | 00:00:00 | |
| DL0LBS | 2026-08-31 19:03:20 | 49.56876 | 9.35894 | 94° | 86km/h | 1420m | -3.8m/s | 11.3°C | 58.8% | 864.3hPa | 2.7V | 02:44:00 | 00:00:00 | 00:00:00 | |
| DB0NH | 2026-08-31 19:03:20 | 49.56877 | 9.35861 | 94° | 86km/h | 1423m | -4.2m/s | 11.2°C | 59.4% | 863.7hPa | 2.7V | 02:44:00 | 02:34:10 | 00:00:00 | |
| DK5PH-5 | 2026-08-31 19:03:14 | 49.56884 | 9.35662 | 93° | 86km/h | 1449m | -4.7m/s | 11.0°C | 60.4% | 860.9hPa | 2.7V | 00:00:00 | 02:34:04 | 00:00:00 | |
| DB0UT-9 | 2026-08-31 19:03:13 | 49.56884 | 9.35662 | 94° | 86km/h | 1449m | -4.7m/s | 11.1°C | 60.0% | 861.0hPa | 2.7V | 02:44:00 | 00:00:00 | 00:00:00 | |
| DM7RM-13 | 2026-08-31 19:03:12 | 49.56885 | 9.35629 | 93° | 84km/h | 1454m | -4.5m/s | 11.0°C | 60.0% | 860.6hPa | 2.7V | 02:44:00 | 00:00:00 | 00:00:00 | |
| DB0UT-7 | 2026-08-31 19:03:11 | 49.56886 | 9.35562 | 92° | 86km/h | 1464m | -5.6m/s | 10.9°C | 61.6% | 859.4hPa | 2.7V | 00:00:00 | 00:00:00 | 00:00:00 | |
| DB0NH | 2026-08-31 19:03:10 | 49.56887 | 9.35529 | 93° | 86km/h | 1469m | -5.4m/s | 10.9°C | 61.7% | 858.9hPa | 2.7V | 00:00:00 | 02:34:00 | 00:00:00 | |
| DK5PH-5 | 2026-08-31 19:03:04 | 49.56894 | 9.35327 | 95° | 84km/h | 1499m | -5.5m/s | 10.6°C | 63.4% | 856.1hPa | 2.7V | 00:00:00 | 02:33:54 | 00:00:00 | |
| DB0ND-19 | 2026-08-31 19:02:59 | 49.56902 | 9.35160 | 94° | 84km/h | 1524m | -5.1m/s | 10.3°C | 64.8% | 853.4hPa | 2.7V | 00:00:00 | 00:00:00 | 00:00:00 | |
| DF7PN | 2026-08-31 19:02:54 | 49.56909 | 9.34997 | 94° | 82km/h | 1548m | -4.8m/s | 10.1°C | 66.8% | 850.9hPa | 2.7V | 00:00:00 | 00:00:00 | 00:00:00 | |
| DL1ZP-14 | 2026-08-31 19:02:52 | 49.56912 | 9.34933 | 94° | 82km/h | 1558m | -5.0m/s | 10.1°C | 66.4% | 850.0hPa | 2.7V | 00:00:00 | 00:00:00 | 00:00:00 | |
| DM7RM-13 | 2026-08-31 19:02:51 | 49.56911 | 9.34933 | 95° | 82km/h | 1558m | -5.0m/s | 10.1°C | 66.4% | 850.0hPa | 2.6V | 02:45:00 | 00:00:00 | 00:00:00 | |
| DB0UT-7 | 2026-08-31 19:02:51 | 49.56913 | 9.34901 | 93° | 80km/h | 1562m | -4.8m/s | 10.0°C | 66.4% | 849.4hPa | 2.6V | 02:44:00 | 00:00:00 | 00:00:00 | |
| DB0NH | 2026-08-31 19:02:50 | 49.56914 | 9.34870 | 94° | 80km/h | 1567m | -4.9m/s | 10.0°C | 65.9% | 848.9hPa | 2.6V | 02:44:00 | 02:33:40 | 00:00:00 | |
| DK5PH-5 | 2026-08-31 19:02:44 | 49.56921 | 9.34682 | 94° | 82km/h | 1599m | -5.4m/s | 9.8°C | 65.3% | 845.8hPa | 2.7V | 00:00:00 | 02:33:34 | 00:00:00 | |
| DB0UT-7 | 2026-08-31 19:02:41 | 49.56924 | 9.34588 | 93° | 82km/h | 1615m | -5.6m/s | 9.6°C | 67.0% | 844.3hPa | 2.7V | 00:00:00 | 02:33:31 | 00:00:00 | |
| DB0NH | 2026-08-31 19:02:40 | 49.56925 | 9.34557 | 94° | 82km/h | 1620m | -5.5m/s | 9.5°C | 66.2% | 843.5hPa | 2.7V | 00:00:00 | 02:33:30 | 00:00:00 | |
| DL0LBS | 2026-08-31 19:02:39 | 49.56925 | 9.34557 | 94° | 82km/h | 1620m | -5.6m/s | 9.6°C | 65.8% | 843.6hPa | 2.7V | 02:45:00 | 00:00:00 | 00:00:00 | |
| DK5PH-5 | 2026-08-31 19:02:34 | 49.56932 | 9.34366 | 93° | 80km/h | 1656m | -6.5m/s | 9.2°C | 67.6% | 839.9hPa | 2.7V | 00:00:00 | 02:33:24 | 00:00:00 | |
| NBG1-10 | 2026-08-31 19:02:34 | 49.56932 | 9.34366 | 93° | 80km/h | 1656m | -6.5m/s | 9.2°C | 67.6% | 839.9hPa | 2.7V | 00:00:00 | 02:33:24 | 00:00:00 | |
| DM7RM-13 | 2026-08-31 19:02:32 | 49.56934 | 9.34303 | 93° | 80km/h | 1668m | -6.4m/s | 9.2°C | 67.6% | 838.6hPa | 2.7V | 02:45:00 | 00:00:00 | 00:00:00 | |
| DB0UT-9 | 2026-08-31 19:02:31 | 49.56934 | 9.34303 | 93° | 80km/h | 1668m | -6.4m/s | 9.2°C | 67.6% | 838.6hPa | 2.7V | 02:45:00 | 00:00:00 | 00:00:00 | |
| DB0UT-7 | 2026-08-31 19:02:31 | 49.56935 | 9.34272 | 92° | 80km/h | 1675m | -6.2m/s | 9.1°C | 68.4% | 838.0hPa | 2.7V | 00:00:00 | 00:00:00 | 00:00:00 | |
| DB0NH | 2026-08-31 19:02:30 | 49.56935 | 9.34241 | 91° | 80km/h | 1680m | -6.0m/s | 9.1°C | 68.0% | 837.3hPa | 2.7V | 00:00:00 | 02:33:20 | 00:00:00 | |
| DB0ND-19 | 2026-08-31 19:02:28 | 49.56935 | 9.34179 | 90° | 78km/h | 1692m | -5.9m/s | 9.0°C | 67.3% | 836.3hPa | 2.7V | 00:00:00 | 00:00:00 | 00:00:00 | |
| DK5PH-5 | 2026-08-31 19:02:24 | 49.56934 | 9.34054 | 89° | 80km/h | 1716m | -6.2m/s | 9.2°C | 63.8% | 833.6hPa | 2.7V | 02:45:00 | 02:33:14 | 00:00:00 | |
| DF7PN | 2026-08-31 19:02:23 | 49.56934 | 9.34023 | 90° | 80km/h | 1722m | -6.0m/s | 9.4°C | 61.0% | 833.1hPa | 2.6V | 00:00:00 | 00:00:00 | 00:00:00 | |
| DL1ZP-14 | 2026-08-31 19:02:21 | 49.56933 | 9.33959 | 88° | 80km/h | 1734m | -6.4m/s | 9.3°C | 61.4% | 831.9hPa | 2.6V | 00:00:00 | 00:00:00 | 00:00:00 | |
| DB0UT-7 | 2026-08-31 19:02:21 | 49.56933 | 9.33959 | 89° | 78km/h | 1734m | -6.3m/s | 9.3°C | 61.9% | 831.8hPa | 2.6V | 02:45:00 | 02:33:11 | 00:00:00 | |
| DB0NH | 2026-08-31 19:02:20 | 49.56932 | 9.33927 | 89° | 78km/h | 1740m | -6.7m/s | 9.1°C | 63.2% | 831.3hPa | 2.7V | 02:45:00 | 02:33:10 | 00:00:00 | |
| DL0LBS | 2026-08-31 19:02:19 | 49.56932 | 9.33927 | 90° | 80km/h | 1740m | -6.8m/s | 9.2°C | 62.7% | 831.4hPa | 2.6V | 02:45:00 | 00:00:00 | 00:00:00 | |
| DK5PH-5 | 2026-08-31 19:02:14 | 49.56927 | 9.33742 | 86° | 77km/h | 1781m | -7.0m/s | 8.9°C | 62.1% | 827.3hPa | 2.6V | 00:00:00 | 02:33:04 | 00:00:00 | |
| NBG1-10 | 2026-08-31 19:02:12 | 49.56924 | 9.33681 | 85° | 71km/h | 1795m | -6.4m/s | 8.8°C | 61.4% | 826.0hPa | 2.6V | 00:00:00 | 02:33:02 | 00:00:00 | |
| DB0UT-9 | 2026-08-31 19:02:11 | 49.56924 | 9.33681 | 86° | 78km/h | 1795m | -6.5m/s | 8.8°C | 60.9% | 826.0hPa | 2.6V | 02:45:00 | 00:00:00 | 00:00:00 | |
| DB0UT-7 | 2026-08-31 19:02:11 | 49.56922 | 9.33651 | 83° | 77km/h | 1801m | -5.9m/s | 8.7°C | 61.3% | 825.5hPa | 2.6V | 00:00:00 | 00:00:00 | 00:00:00 | |
| DM7RM-13 | 2026-08-31 19:02:10 | 49.56922 | 9.33651 | 84° | 78km/h | 1801m | -5.9m/s | 8.8°C | 60.8% | 825.6hPa | 2.6V | 02:45:00 | 00:00:00 | 00:00:00 | |
| DB0NH | 2026-08-31 19:02:10 | 49.56919 | 9.33620 | 85° | 75km/h | 1807m | -6.2m/s | 8.7°C | 61.1% | 824.9hPa | 2.6V | 00:00:00 | 02:33:00 | 00:00:00 | |
| DK5PH-5 | 2026-08-31 19:02:04 | 49.56907 | 9.33443 | 84° | 73km/h | 1845m | -6.6m/s | 8.4°C | 63.7% | 821.0hPa | 2.6V | 00:00:00 | 02:32:54 | 00:00:00 | |
| DB0ND-19 | 2026-08-31 19:01:57 | 49.56895 | 9.33216 | 84° | 69km/h | 1898m | -6.9m/s | 8.2°C | 71.9% | 816.0hPa | 2.6V | 00:00:00 | 00:00:00 | 00:00:00 | |
| DF7PN | 2026-08-31 19:01:52 | 49.56886 | 9.33110 | 83° | 66km/h | 1924m | -7.5m/s | 8.1°C | 72.7% | 813.4hPa | 2.6V | 00:00:00 | 00:00:00 | 00:00:00 | |
| DL1ZP-14 | 2026-08-31 19:01:50 | 49.56882 | 9.33057 | 85° | 68km/h | 1938m | -7.1m/s | 7.9°C | 73.0% | 811.9hPa | 2.6V | 00:00:00 | 00:00:00 | 00:00:00 | |
| DB0NH | 2026-08-31 19:01:50 | 49.56882 | 9.33057 | 86° | 68km/h | 1938m | -7.1m/s | 7.9°C | 73.6% | 811.8hPa | 2.6V | 02:45:00 | 02:32:40 | 00:00:00 | |
| NBG1-10 | 2026-08-31 19:01:50 | 49.56882 | 9.33057 | 86° | 69km/h | 1938m | -7.1m/s | 7.9°C | 73.6% | 811.8hPa | 2.6V | 02:45:00 | 02:32:40 | 00:00:00 | |
| DM7RM-13 | 2026-08-31 19:01:49 | 49.56882 | 9.33057 | 86° | 68km/h | 1938m | -7.1m/s | 7.9°C | 73.0% | 811.9hPa | 2.6V | 02:46:00 | 00:00:00 | 00:00:00 | |
| DK5PH-5 | 2026-08-31 19:01:44 | 49.56876 | 9.32898 | 88° | 69km/h | 1978m | -6.8m/s | 7.5°C | 75.0% | 807.7hPa | 2.6V | 00:00:00 | 02:32:34 | 00:00:00 | |
| DB0UT-7 | 2026-08-31 19:01:41 | 49.56873 | 9.32819 | 86° | 69km/h | 1998m | -6.5m/s | 7.2°C | 75.5% | 806.0hPa | 2.6V | 00:00:00 | 02:32:31 | 00:00:00 | |
| DB0NH | 2026-08-31 19:01:40 | 49.56871 | 9.32792 | 86° | 69km/h | 2004m | -6.7m/s | 7.2°C | 76.2% | 805.3hPa | 2.6V | 00:00:00 | 02:32:30 | 00:00:00 | |
| DL0LBS | 2026-08-31 19:01:38 | 49.56870 | 9.32766 | 87° | 68km/h | 2011m | -6.8m/s | 7.2°C | 75.7% | 804.7hPa | 2.6V | 02:46:00 | 00:00:00 | 00:00:00 | |
| DK5PH-5 | 2026-08-31 19:01:34 | 49.56863 | 9.32632 | 87° | 69km/h | 2043m | -6.4m/s | 6.7°C | 76.5% | 801.5hPa | 2.6V | 00:00:00 | 02:32:24 | 00:00:00 | |
| DB0UT-7 | 2026-08-31 19:01:30 | 49.56858 | 9.32522 | 86° | 69km/h | 2067m | -5.9m/s | 6.5°C | 78.4% | 799.1hPa | 2.6V | 00:00:00 | 00:00:00 | 00:00:00 | |
| DB0UT-9 | 2026-08-31 19:01:29 | 49.56858 | 9.32522 | 87° | 71km/h | 2067m | -6.0m/s | 6.6°C | 77.6% | 799.1hPa | 2.6V | 02:46:00 | 00:00:00 | 00:00:00 | |
| NBG1-10 | 2026-08-31 19:01:28 | 49.56855 | 9.32467 | 87° | 69km/h | 2078m | -6.2m/s | 6.4°C | 78.3% | 797.9hPa | 2.6V | 00:00:00 | 02:32:18 | 00:00:00 | |
| DF7PN | 2026-08-31 19:01:21 | 49.56844 | 9.32281 | 84° | 66km/h | 2123m | -7.1m/s | 6.0°C | 82.5% | 793.8hPa | 2.6V | 00:00:00 | 00:00:00 | 00:00:00 | |
| DL1ZP-14 | 2026-08-31 19:01:19 | 49.56841 | 9.32228 | 85° | 68km/h | 2137m | -6.9m/s | 5.9°C | 83.6% | 792.4hPa | 2.6V | 00:00:00 | 00:00:00 | 00:00:00 | |
| DL0LBS | 2026-08-31 19:01:18 | 49.56841 | 9.32228 | 87° | 68km/h | 2137m | -6.9m/s | 5.9°C | 83.6% | 792.4hPa | 2.7V | 02:46:00 | 00:00:00 | 00:00:00 | |
| DK5PH-5 | 2026-08-31 19:01:14 | 49.56835 | 9.32095 | 87° | 68km/h | 2170m | -7.0m/s | 5.5°C | 85.6% | 789.1hPa | 2.7V | 02:46:00 | 02:32:04 | 00:00:00 | |
| DB0UT-7 | 2026-08-31 19:01:10 | 49.56830 | 9.31988 | 84° | 66km/h | 2197m | -6.8m/s | 5.1°C | 88.2% | 786.7hPa | 2.7V | 02:46:00 | 02:32:00 | 00:00:00 | |
| DB0UT-9 | 2026-08-31 19:01:08 | 49.56827 | 9.31962 | 84° | 69km/h | 2203m | -6.4m/s | 5.1°C | 88.0% | 786.1hPa | 2.7V | 02:47:00 | 00:00:00 | 00:00:00 | |
| DM7RM-13 | 2026-08-31 19:01:07 | 49.56825 | 9.31935 | 86° | 68km/h | 2209m | -6.8m/s | 5.1°C | 88.3% | 785.5hPa | 2.7V | 02:47:00 | 00:00:00 | 00:00:00 | |
| NBG1-10 | 2026-08-31 19:01:06 | 49.56821 | 9.31883 | 84° | 64km/h | 2223m | -6.6m/s | 4.8°C | 90.1% | 784.1hPa | 2.7V | 00:00:00 | 02:31:56 | 00:00:00 | |
| DB0ND-19 | 2026-08-31 19:00:55 | 49.56799 | 9.31602 | 81° | 64km/h | 2293m | -6.0m/s | 4.2°C | 91.2% | 777.4hPa | 2.7V | 00:00:00 | 00:00:00 | 00:00:00 | |
| DF7PN | 2026-08-31 19:00:50 | 49.56788 | 9.31479 | 82° | 62km/h | 2328m | -8.3m/s | 3.9°C | 93.6% | 774.4hPa | 2.7V | 00:00:00 | 00:00:00 | 00:00:00 | |
| DL1ZP-14 | 2026-08-31 19:00:48 | 49.56782 | 9.31431 | 80° | 62km/h | 2343m | -7.8m/s | 3.7°C | 94.2% | 772.9hPa | 2.7V | 00:00:00 | 00:00:00 | 00:00:00 | |
| DM7RM-13 | 2026-08-31 19:00:46 | 49.56779 | 9.31407 | 81° | 64km/h | 2351m | -6.8m/s | 3.7°C | 94.0% | 772.1hPa | 2.7V | 02:47:00 | 00:00:00 | 00:00:00 | |
| NBG1-10 | 2026-08-31 19:00:44 | 49.56769 | 9.31334 | 78° | 62km/h | 2369m | -5.9m/s | 3.6°C | 97.1% | 770.3hPa | 2.7V | 02:46:00 | 02:31:34 | 00:00:00 | |
| DB0NH | 2026-08-31 19:00:40 | 49.56756 | 9.31234 | 79° | 62km/h | 2393m | -5.8m/s | 3.4°C | 96.9% | 768.0hPa | 2.6V | 00:00:00 | 02:31:30 | 00:00:00 | |
| DL0LBS | 2026-08-31 19:00:37 | 49.56749 | 9.31184 | 78° | 64km/h | 2406m | -8.0m/s | 3.3°C | 96.0% | 766.8hPa | 2.6V | 02:47:00 | 00:00:00 | 00:00:00 | |
| DB0UT-7 | 2026-08-31 19:00:30 | 49.56724 | 9.30995 | 79° | 58km/h | 2462m | -7.0m/s | 3.0°C | 99.4% | 761.6hPa | 2.6V | 00:00:00 | 02:31:20 | 00:00:00 | |
| DB0UT-9 | 2026-08-31 19:00:27 | 49.56719 | 9.30949 | 81° | 60km/h | 2476m | -6.7m/s | 2.9°C | 96.5% | 760.4hPa | 2.6V | 02:47:00 | 00:00:00 | 00:00:00 | |
| DM7RM-13 | 2026-08-31 19:00:25 | 49.56713 | 9.30903 | 80° | 58km/h | 2488m | -6.2m/s | 2.7°C | 97.4% | 759.0hPa | 2.6V | 02:48:00 | 00:00:00 | 00:00:00 | |
| DB0ND-19 | 2026-08-31 19:00:24 | 49.56707 | 9.30858 | 79° | 58km/h | 2501m | -6.5m/s | 2.7°C | 97.2% | 757.9hPa | 2.6V | 00:00:00 | 00:00:00 | 00:00:00 | |
| NBG1-10 | 2026-08-31 19:00:22 | 49.56702 | 9.30813 | 82° | 58km/h | 2513m | -5.5m/s | 2.5°C | 98.5% | 756.8hPa | 2.6V | 00:00:00 | 02:31:12 | 00:00:00 | |
| DB0NH | 2026-08-31 19:00:20 | 49.56698 | 9.30768 | 83° | 57km/h | 2524m | -5.5m/s | 2.5°C | 98.8% | 755.6hPa | 2.6V | 00:00:00 | 02:31:10 | 00:00:00 | |
| DF7PN | 2026-08-31 19:00:19 | 49.56696 | 9.30746 | 83° | 55km/h | 2530m | -6.4m/s | 2.5°C | 96.4% | 755.1hPa | 2.6V | 00:00:00 | 00:00:00 | 00:00:00 | |
| DL0LBS | 2026-08-31 19:00:16 | 49.56693 | 9.30702 | 86° | 57km/h | 2541m | -6.1m/s | 2.3°C | 94.6% | 753.9hPa | 2.6V | 02:48:00 | 00:00:00 | 00:00:00 | |
| DK5PH-5 | 2026-08-31 19:00:14 | 49.56688 | 9.30634 | 84° | 57km/h | 2559m | -6.4m/s | 2.1°C | 95.2% | 752.3hPa | 2.6V | 02:47:00 | 02:31:04 | 00:00:00 | |
| DB0UT-7 | 2026-08-31 19:00:10 | 49.56681 | 9.30547 | 82° | 57km/h | 2584m | -5.8m/s | 2.0°C | 94.2% | 750.0hPa | 2.7V | 02:47:00 | 00:00:00 | 00:00:00 | |
| SFWM-10 | 2026-08-31 19:00:09 | 49.56681 | 9.30547 | 83° | 57km/h | 2584m | -5.9m/s | 2.0°C | 92.8% | 750.1hPa | 2.7V | 00:00:00 | 00:00:00 | 00:00:00 | |
| DB0UT-9 | 2026-08-31 19:00:06 | 49.56676 | 9.30480 | 83° | 58km/h | 2602m | -6.2m/s | 1.9°C | 98.3% | 748.4hPa | 2.7V | 02:48:00 | 00:00:00 | 00:00:00 | |
| DM7RM-13 | 2026-08-31 19:00:04 | 49.56671 | 9.30434 | 84° | 58km/h | 2614m | -6.2m/s | 1.7°C | 97.5% | 747.4hPa | 2.7V | 02:48:00 | 00:00:00 | 00:00:00 | |
| DB0ND-19 | 2026-08-31 18:59:53 | 49.56648 | 9.30147 | 83° | 57km/h | 2700m | -6.7m/s | 1.3°C | 97.4% | 739.7hPa | 2.7V | 00:00:00 | 00:00:00 | 00:00:00 | |
| DF7PN | 2026-08-31 18:59:48 | 49.56643 | 9.30056 | 84° | 58km/h | 2726m | -6.1m/s | 1.2°C | 98.5% | 737.3hPa | 2.7V | 00:00:00 | 00:00:00 | 00:00:00 | |
| DB0UT-9 | 2026-08-31 18:59:46 | 49.56642 | 9.30034 | 85° | 58km/h | 2731m | -5.8m/s | 1.1°C | 98.9% | 736.6hPa | 2.7V | 02:48:00 | 00:00:00 | 00:00:00 | |
| DM7RM-13 | 2026-08-31 18:59:44 | 49.56638 | 9.29988 | 84° | 57km/h | 2744m | -5.9m/s | 1.0°C | 99.4% | 735.4hPa | 2.7V | 02:48:00 | 00:00:00 | 00:00:00 | |
| DB0NH | 2026-08-31 18:59:40 | 49.56629 | 9.29879 | 83° | 55km/h | 2776m | -5.9m/s | 0.9°C | 0% | 732.5hPa | 2.7V | 00:00:00 | 02:30:30 | 00:00:00 | |
| NBG1-10 | 2026-08-31 18:59:38 | 49.56625 | 9.29836 | 82° | 55km/h | 2788m | -6.7m/s | 0.8°C | 0% | 731.4hPa | 2.7V | 02:48:00 | 02:30:28 | 00:00:00 | |
| DL0LBS | 2026-08-31 18:59:35 | 49.56621 | 9.29793 | 83° | 55km/h | 2801m | -6.6m/s | 0.9°C | 101.0% | 730.3hPa | 2.6V | 02:48:00 | 00:00:00 | 00:00:00 | |
| DK5PH-5 | 2026-08-31 18:59:34 | 49.56618 | 9.29750 | 84° | 53km/h | 2814m | -7.1m/s | 0.8°C | 0% | 729.1hPa | 2.6V | 00:00:00 | 02:30:24 | 00:00:00 | |
| DB0UT-7 | 2026-08-31 18:59:30 | 49.56611 | 9.29667 | 84° | 53km/h | 2840m | -6.2m/s | 0.6°C | 0% | 726.7hPa | 2.6V | 00:00:00 | 00:00:00 | 00:00:00 | |
| DB0UT-9 | 2026-08-31 18:59:25 | 49.56603 | 9.29585 | 84° | 55km/h | 2865m | -6.6m/s | 0.6°C | 102.3% | 724.6hPa | 2.6V | 02:48:00 | 00:00:00 | 00:00:00 | |
| DM7RM-13 | 2026-08-31 18:59:23 | 49.56600 | 9.29543 | 86° | 55km/h | 2878m | -6.9m/s | 0.6°C | 102.7% | 723.5hPa | 2.6V | 02:48:00 | 00:00:00 | 00:00:00 | |
| DB0ND-19 | 2026-08-31 18:59:22 | 49.56597 | 9.29501 | 84° | 55km/h | 2892m | -7.2m/s | 0.5°C | 100.0% | 722.3hPa | 2.6V | 00:00:00 | 00:00:00 | 00:00:00 | |
| DB0NH | 2026-08-31 18:59:20 | 49.56594 | 9.29458 | 86° | 53km/h | 2905m | -7.1m/s | 0.4°C | 0% | 721.1hPa | 2.6V | 00:00:00 | 02:30:10 | 00:00:00 | |
| DF7PN | 2026-08-31 18:59:17 | 49.56590 | 9.29396 | 85° | 51km/h | 2925m | -6.0m/s | 0.3°C | 100.0% | 719.2hPa | 2.6V | 00:00:00 | 00:00:00 | 00:00:00 | |
| NBG1-10 | 2026-08-31 18:59:16 | 49.56589 | 9.29376 | 86° | 53km/h | 2932m | -5.9m/s | 0.3°C | 0% | 718.6hPa | 2.6V | 00:00:00 | 02:30:06 | 00:00:00 | |
| DL1ZP-14 | 2026-08-31 18:59:15 | 49.56587 | 9.29335 | 83° | 51km/h | 2943m | -6.2m/s | 0.3°C | 100.0% | 717.6hPa | 2.6V | 00:00:00 | 00:00:00 | 00:00:00 | |
| DK5PH-5 | 2026-08-31 18:59:14 | 49.56587 | 9.29335 | 84° | 53km/h | 2943m | -6.1m/s | 0.2°C | 0% | 717.5hPa | 2.6V | 02:48:00 | 02:30:04 | 00:00:00 | |
| SFWM-10 | 2026-08-31 18:59:13 | 49.56587 | 9.29335 | 85° | 53km/h | 2943m | -6.2m/s | 0.3°C | 0% | 717.6hPa | 2.7V | 00:00:00 | 00:00:00 | 00:00:00 | |
| DB0UT-7 | 2026-08-31 18:59:10 | 49.56583 | 9.29255 | 86° | 53km/h | 2968m | -5.9m/s | 0.1°C | 0% | 715.5hPa | 2.7V | 02:48:00 | 02:30:00 | 00:00:00 | |
| DB0UT-9 | 2026-08-31 18:59:04 | 49.56579 | 9.29153 | 88° | 53km/h | 2999m | -6.0m/s | -0.0°C | 116.2% | 712.8hPa | 2.7V | 02:48:00 | 00:00:00 | 00:00:00 | |
| DM7RM-13 | 2026-08-31 18:59:02 | 49.56577 | 9.29111 | 87° | 55km/h | 3011m | -6.3m/s | -0.1°C | 116.7% | 711.7hPa | 2.7V | 02:48:00 | 00:00:00 | 00:00:00 | |
| DF3TZ-5 | 2026-08-31 18:58:57 | 49.56573 | 9.28905 | 88° | 51km/h | 3072m | -6.1m/s | -0.5°C | 100.0% | 706.3hPa | 2.7V | 00:00:00 | 00:00:00 | 00:00:00 | |
| DB0ND-19 | 2026-08-31 18:58:51 | 49.56573 | 9.28865 | 90° | 51km/h | 3084m | -6.3m/s | -0.6°C | 100.0% | 705.2hPa | 2.7V | 00:00:00 | 00:00:00 | 00:00:00 | |
| DF7PN | 2026-08-31 18:58:46 | 49.56572 | 9.28744 | 90° | 51km/h | 3121m | -6.0m/s | -0.8°C | 100.0% | 702.1hPa | 2.7V | 00:00:00 | 00:00:00 | 00:00:00 | |
| DB0UT-9 | 2026-08-31 18:58:43 | 49.56572 | 9.28724 | 90° | 53km/h | 3127m | -6.1m/s | -0.8°C | 119.2% | 701.5hPa | 2.7V | 02:49:00 | 00:00:00 | 00:00:00 | |
| DM7RM-13 | 2026-08-31 18:58:41 | 49.56572 | 9.28683 | 90° | 51km/h | 3139m | -6.1m/s | -0.9°C | 106.5% | 700.5hPa | 2.7V | 02:49:00 | 00:00:00 | 00:00:00 | |
| DF1GD-15 | 2026-08-31 18:58:40 | 49.56571 | 9.28663 | 90° | 51km/h | 3144m | -6.1m/s | -1.0°C | 109.1% | 700.0hPa | 2.7V | 02:49:00 | 00:00:00 | 00:00:00 | |
| DL0LBS | 2026-08-31 18:58:34 | 49.56569 | 9.28542 | 90° | 53km/h | 3179m | -5.8m/s | -1.2°C | 101.6% | 696.9hPa | 2.7V | 02:49:00 | 00:00:00 | 00:00:00 | |
| NBG1-10 | 2026-08-31 18:58:32 | 49.56568 | 9.28480 | 88° | 55km/h | 3196m | -6.0m/s | -1.3°C | 0% | 695.3hPa | 2.7V | 02:49:00 | 02:29:22 | 00:00:00 | |
| DB0NH | 2026-08-31 18:58:30 | 49.56566 | 9.28438 | 88° | 55km/h | 3207m | -5.7m/s | -1.4°C | 0% | 694.3hPa | 2.6V | 00:00:00 | 02:29:20 | 00:00:00 | |
| DF3TZ-5 | 2026-08-31 18:58:26 | 49.56561 | 9.28333 | 83° | 55km/h | 3235m | -5.5m/s | -1.5°C | 100.0% | 692.0hPa | 2.6V | 00:00:00 | 00:00:00 | 00:00:00 | |
| DK5PH-5 | 2026-08-31 18:58:24 | 49.56559 | 9.28312 | 84° | 55km/h | 3240m | -5.0m/s | -1.4°C | 0% | 691.5hPa | 2.6V | 00:00:00 | 02:29:14 | 00:00:00 | |
| SFWM-10 | 2026-08-31 18:58:22 | 49.56558 | 9.28290 | 85° | 55km/h | 3245m | -5.6m/s | -1.5°C | 0% | 691.1hPa | 2.6V | 02:49:00 | 00:00:00 | 00:00:00 | |
| DM7RM-13 | 2026-08-31 18:58:21 | 49.56556 | 9.28269 | 85° | 55km/h | 3250m | -5.3m/s | -1.5°C | 107.0% | 690.6hPa | 2.6V | 02:49:00 | 00:00:00 | 00:00:00 | |
| DB0UT-7 | 2026-08-31 18:58:20 | 49.56554 | 9.28226 | 86° | 55km/h | 3261m | -5.2m/s | -1.5°C | 0% | 689.6hPa | 2.6V | 00:00:00 | 02:29:10 | 00:00:00 | |
| DF7PN | 2026-08-31 18:58:15 | 49.56546 | 9.28094 | 85° | 57km/h | 3294m | -5.4m/s | -1.8°C | 100.0% | 687.0hPa | 2.6V | 00:00:00 | 00:00:00 | 00:00:00 | |
| DL1ZP-14 | 2026-08-31 18:58:13 | 49.56544 | 9.28049 | 84° | 57km/h | 3304m | -5.2m/s | -1.6°C | 100.0% | 686.1hPa | 2.6V | 00:00:00 | 00:00:00 | 00:00:00 | |
| NBG1-10 | 2026-08-31 18:58:06 | 49.56536 | 9.27920 | 84° | 55km/h | 3335m | -5.0m/s | -1.7°C | 0% | 683.4hPa | 2.6V | 00:00:00 | 02:28:56 | 00:00:00 | |
| DB0ND-19 | 2026-08-31 18:57:49 | 49.56513 | 9.27542 | 84° | 55km/h | 3424m | -5.8m/s | -2.2°C | 100.0% | 675.7hPa | 2.6V | 00:00:00 | 00:00:00 | 00:00:00 | |
| DF7PN | 2026-08-31 18:57:44 | 49.56507 | 9.27436 | 85° | 53km/h | 3452m | -5.3m/s | -2.4°C | 100.0% | 673.3hPa | 2.6V | 00:00:00 | 00:00:00 | 00:00:00 | |
| SFWM-10 | 2026-08-31 18:57:41 | 49.56506 | 9.27415 | 85° | 55km/h | 3457m | -5.4m/s | -2.5°C | 0% | 672.9hPa | 2.6V | 02:50:00 | 00:00:00 | 00:00:00 | |
| DB0UT-9 | 2026-08-31 18:57:40 | 49.56505 | 9.27394 | 87° | 55km/h | 3463m | -6.1m/s | -2.5°C | 120.5% | 672.3hPa | 2.6V | 02:50:00 | 00:00:00 | 00:00:00 | |
| DM7RM-13 | 2026-08-31 18:57:39 | 49.56504 | 9.27373 | 87° | 53km/h | 3469m | -5.9m/s | -2.5°C | 118.7% | 671.9hPa | 2.6V | 02:50:00 | 00:00:00 | 00:00:00 | |
| NBG1-10 | 2026-08-31 18:57:33 | 49.56500 | 9.27231 | 88° | 51km/h | 3508m | -5.6m/s | -3.1°C | 0% | 668.6hPa | 2.6V | 00:00:00 | 02:28:23 | 00:00:00 | |
| DL0LBS | 2026-08-31 18:57:31 | 49.56499 | 9.27210 | 89° | 53km/h | 3513m | -5.6m/s | -3.2°C | 97.1% | 668.2hPa | 2.6V | 02:50:00 | 00:00:00 | 00:00:00 | |
| DB0NH | 2026-08-31 18:57:30 | 49.56497 | 9.27169 | 87° | 51km/h | 3524m | -5.9m/s | -3.2°C | 0% | 667.1hPa | 2.6V | 02:50:00 | 02:28:20 | 00:00:00 | |
| DK5PH-5 | 2026-08-31 18:57:24 | 49.56490 | 9.27046 | 84° | 49km/h | 3557m | -5.4m/s | -3.3°C | 0% | 664.4hPa | 2.7V | 00:00:00 | 02:28:14 | 00:00:00 | |
| DB0UT-7 | 2026-08-31 18:57:20 | 49.56485 | 9.26967 | 83° | 49km/h | 3579m | -6.0m/s | -3.4°C | 0% | 662.5hPa | 2.7V | 00:00:00 | 02:28:10 | 00:00:00 | |
| DB0ND-19 | 2026-08-31 18:57:18 | 49.56479 | 9.26908 | 83° | 51km/h | 3595m | -5.8m/s | -3.5°C | 98.4% | 661.1hPa | 2.7V | 00:00:00 | 00:00:00 | 00:00:00 | |
| DF7PN | 2026-08-31 18:57:13 | 49.56471 | 9.26808 | 81° | 51km/h | 3625m | -5.4m/s | -3.6°C | 97.7% | 658.7hPa | 2.7V | 00:00:00 | 00:00:00 | 00:00:00 | |
| DL0LBS | 2026-08-31 18:57:11 | 49.56471 | 9.26808 | 83° | 53km/h | 3625m | -5.4m/s | -3.6°C | 97.7% | 658.7hPa | 2.7V | 02:50:00 | 00:00:00 | 00:00:00 | |
| DL1ZP-14 | 2026-08-31 18:57:10 | 49.56467 | 9.26768 | 80° | 49km/h | 3634m | -5.0m/s | -3.7°C | 98.6% | 657.7hPa | 2.7V | 00:00:00 | 00:00:00 | 00:00:00 | |
| DB0ND-19 | 2026-08-31 18:56:47 | 49.56421 | 9.26317 | 82° | 47km/h | 3774m | -6.4m/s | -4.6°C | 93.0% | 646.3hPa | 2.6V | 00:00:00 | 00:00:00 | 00:00:00 | |
| DO3MHA-11 | 2026-08-31 18:56:41 | 49.56410 | 9.26220 | 81° | 49km/h | 3805m | -7.3m/s | -4.7°C | 94.9% | 643.6hPa | 2.6V | 02:50:00 | 02:27:31 | 00:00:00 | |
| DL1ZP-14 | 2026-08-31 18:56:39 | 49.56405 | 9.26182 | 78° | 49km/h | 3818m | -7.3m/s | -4.9°C | 94.9% | 642.6hPa | 2.7V | 00:00:00 | 00:00:00 | 00:00:00 | |
| DB0UT-9 | 2026-08-31 18:56:38 | 49.56405 | 9.26182 | 80° | 49km/h | 3818m | -7.3m/s | -4.9°C | 94.9% | 642.6hPa | 2.6V | 02:51:00 | 00:00:00 | 00:00:00 | |
| DM7RM-13 | 2026-08-31 18:56:36 | 49.56399 | 9.26144 | 79° | 49km/h | 3832m | -7.9m/s | -4.9°C | 95.0% | 641.6hPa | 2.6V | 02:51:00 | 00:00:00 | 00:00:00 | |
| DO3MHA-11 | 2026-08-31 18:56:35 | 49.56394 | 9.26107 | 77° | 49km/h | 3846m | -7.5m/s | -4.9°C | 96.4% | 640.4hPa | 2.6V | 00:00:00 | 02:27:25 | 00:00:00 | |
| DB0NH | 2026-08-31 18:56:30 | 49.56379 | 9.26012 | 77° | 51km/h | 3879m | -6.8m/s | -5.1°C | 95.8% | 637.6hPa | 2.6V | 00:00:00 | 02:27:20 | 00:00:00 | |
| NBG1-10 | 2026-08-31 18:56:27 | 49.56370 | 9.25954 | 79° | 51km/h | 3900m | -7.6m/s | -5.2°C | 93.9% | 636.1hPa | 2.6V | 00:00:00 | 02:27:17 | 00:00:00 | |
| DO3MHA-11 | 2026-08-31 18:56:25 | 49.56364 | 9.25915 | 78° | 49km/h | 3915m | -7.2m/s | -5.3°C | 92.5% | 635.0hPa | 2.6V | 02:51:00 | 02:27:15 | 00:00:00 | |
| DK5PH-5 | 2026-08-31 18:56:24 | 49.56361 | 9.25896 | 79° | 51km/h | 3921m | -6.0m/s | -5.4°C | 92.9% | 634.3hPa | 2.6V | 02:51:00 | 02:27:14 | 00:00:00 | |
| DF3TZ-5 | 2026-08-31 18:56:22 | 49.56356 | 9.25858 | 76° | 49km/h | 3934m | -6.9m/s | -5.6°C | 91.4% | 633.5hPa | 2.7V | 00:00:00 | 00:00:00 | 00:00:00 | |
| DO3MHA-11 | 2026-08-31 18:56:20 | 49.56350 | 9.25821 | 78° | 51km/h | 3946m | -5.3m/s | -5.6°C | 94.6% | 632.3hPa | 2.7V | 00:00:00 | 02:27:10 | 00:00:00 | |
| DB0UT-9 | 2026-08-31 18:56:18 | 49.56347 | 9.25801 | 80° | 49km/h | 3951m | -6.1m/s | -5.7°C | 92.1% | 631.8hPa | 2.7V | 02:51:00 | 00:00:00 | 00:00:00 | |
| DB0ND-19 | 2026-08-31 18:56:16 | 49.56336 | 9.25724 | 76° | 51km/h | 3975m | -5.4m/s | -6.0°C | 92.3% | 629.8hPa | 2.7V | 00:00:00 | 00:00:00 | 00:00:00 | |
| DO3MHA-11 | 2026-08-31 18:56:15 | 49.56336 | 9.25724 | 77° | 51km/h | 3975m | -5.4m/s | 0°C | 0% | 0hPa | 2.7V | 00:00:00 | 02:27:05 | 00:00:00 | |
| SFWM-10 | 2026-08-31 18:56:14 | 49.56336 | 9.25724 | 78° | 51km/h | 3975m | -5.4m/s | -6.0°C | 92.3% | 629.8hPa | 2.7V | 00:00:00 | 00:00:00 | 00:00:00 | |
| DO3MHA-11 | 2026-08-31 18:56:10 | 49.56321 | 9.25626 | 79° | 51km/h | 4006m | -7.4m/s | -6.3°C | 0% | 627.3hPa | 2.7V | 02:51:00 | 02:27:00 | 00:00:00 | |
| DL1ZP-14 | 2026-08-31 18:56:08 | 49.56316 | 9.25586 | 79° | 51km/h | 4018m | -5.5m/s | -6.5°C | 96.4% | 626.2hPa | 2.6V | 00:00:00 | 00:00:00 | 00:00:00 | |
| DO3MHA-11 | 2026-08-31 18:56:05 | 49.56308 | 9.25526 | 80° | 53km/h | 4036m | -6.1m/s | -6.4°C | 0% | 624.9hPa | 2.7V | 00:00:00 | 02:26:55 | 00:00:00 | |
| DO3MHA-11 | 2026-08-31 18:56:00 | 49.56293 | 9.25426 | 78° | 51km/h | 4062m | -6.5m/s | -6.5°C | 0% | 622.8hPa | 2.7V | 00:00:00 | 02:26:50 | 00:00:00 | |
| DB0UT-9 | 2026-08-31 18:55:58 | 49.56291 | 9.25406 | 78° | 51km/h | 4069m | -6.3m/s | -6.6°C | 105.2% | 622.3hPa | 2.7V | 02:52:00 | 00:00:00 | 00:00:00 | |
| DO3MHA-11 | 2026-08-31 18:55:55 | 49.56279 | 9.25330 | 78° | 55km/h | 4094m | -6.8m/s | -6.7°C | 0% | 620.2hPa | 2.7V | 02:51:00 | 02:26:45 | 00:00:00 | |
| NBG1-10 | 2026-08-31 18:55:54 | 49.56276 | 9.25310 | 77° | 53km/h | 4100m | -6.9m/s | -6.7°C | 0% | 619.6hPa | 2.7V | 00:00:00 | 02:26:44 | 00:00:00 | |
| SFWM-10 | 2026-08-31 18:55:51 | 49.56271 | 9.25271 | 78° | 53km/h | 4114m | -7.0m/s | -6.8°C | 96.6% | 618.7hPa | 2.7V | 00:00:00 | 00:00:00 | 00:00:00 | |
| DB0UT-7 | 2026-08-31 18:55:50 | 49.56263 | 9.25230 | 76° | 55km/h | 4126m | -6.6m/s | -6.6°C | 86.0% | 617.6hPa | 2.7V | 00:00:00 | 00:00:00 | 00:00:00 | |
| DO3MHA-11 | 2026-08-31 18:55:47 | 49.56253 | 9.25167 | 78° | 57km/h | 4145m | -6.5m/s | -6.7°C | 82.9% | 616.1hPa | 2.7V | 00:00:00 | 02:26:37 | 00:00:00 | |
| DB0ND-19 | 2026-08-31 18:55:45 | 49.56243 | 9.25104 | 77° | 55km/h | 4165m | -7.1m/s | -6.9°C | 82.3% | 614.8hPa | 2.7V | 00:00:00 | 00:00:00 | 00:00:00 | |
| DO3MHA-11 | 2026-08-31 18:55:42 | 49.56236 | 9.25063 | 77° | 53km/h | 4179m | -6.2m/s | -7.0°C | 85.5% | 613.8hPa | 2.7V | 00:00:00 | 02:26:32 | 00:00:00 | |
| DF7PN | 2026-08-31 18:55:39 | 49.56226 | 9.25004 | 73° | 49km/h | 4196m | -6.1m/s | -7.2°C | 84.3% | 612.2hPa | 2.7V | 00:00:00 | 00:00:00 | 00:00:00 | |
| DO3MHA-11 | 2026-08-31 18:55:37 | 49.56219 | 9.24965 | 74° | 51km/h | 4211m | -8.1m/s | -7.3°C | 86.7% | 611.1hPa | 2.7V | 02:52:00 | 02:26:27 | 00:00:00 | |
| DM7RM-13 | 2026-08-31 18:55:35 | 49.56215 | 9.24947 | 74° | 51km/h | 4218m | -7.8m/s | -7.4°C | 85.1% | 610.5hPa | 2.6V | 02:52:00 | 00:00:00 | 00:00:00 | |
| DF1GD-15 | 2026-08-31 18:55:33 | 49.56208 | 9.24908 | 75° | 53km/h | 4234m | -9.0m/s | -7.5°C | 85.6% | 609.4hPa | 2.6V | 02:52:00 | 00:00:00 | 00:00:00 | |
| DO3MHA-11 | 2026-08-31 18:55:31 | 49.56196 | 9.24849 | 73° | 53km/h | 4257m | -6.7m/s | -7.5°C | 89.4% | 607.7hPa | 2.6V | 00:00:00 | 02:26:21 | 00:00:00 | |
| DB0NH | 2026-08-31 18:55:30 | 49.56192 | 9.24830 | 76° | 57km/h | 4264m | -7.4m/s | -7.6°C | 89.0% | 607.2hPa | 2.6V | 00:00:00 | 02:26:20 | 00:00:00 | |
| DL0LBS | 2026-08-31 18:55:29 | 49.56192 | 9.24830 | 76° | 53km/h | 4264m | -7.5m/s | -7.6°C | 86.7% | 607.3hPa | 2.6V | 02:52:00 | 00:00:00 | 00:00:00 | |
| DO3MHA-11 | 2026-08-31 18:55:26 | 49.56178 | 9.24748 | 78° | 55km/h | 4293m | -5.8m/s | -7.8°C | 89.6% | 604.9hPa | 2.6V | 00:00:00 | 02:26:16 | 00:00:00 | |
| DK5PH-5 | 2026-08-31 18:55:24 | 49.56172 | 9.24707 | 76° | 58km/h | 4305m | -5.6m/s | -7.9°C | 91.0% | 603.9hPa | 2.6V | 00:00:00 | 02:26:14 | 00:00:00 | |
| DO3MHA-11 | 2026-08-31 18:55:21 | 49.56162 | 9.24645 | 77° | 57km/h | 4323m | -7.2m/s | -8.0°C | 88.1% | 602.5hPa | 2.6V | 02:52:00 | 02:26:11 | 00:00:00 | |
| DB0UT-7 | 2026-08-31 18:55:20 | 49.56158 | 9.24623 | 77° | 58km/h | 4331m | -7.1m/s | -8.1°C | 87.8% | 602.1hPa | 2.7V | 00:00:00 | 02:26:10 | 00:00:00 | |
| DL1NUX | 2026-08-31 18:55:18 | 49.56134 | 9.24473 | 78° | 58km/h | 4378m | -6.4m/s | -8.3°C | 92% | 598.4hPa | 2.7V | 02:52:27 | 02:26:03 | 00:00:00 | |
| DB0UT-9 | 2026-08-31 18:55:17 | 49.56151 | 9.24581 | 76° | 57km/h | 4345m | -7.2m/s | -8.3°C | 86.4% | 601.0hPa | 2.6V | 02:53:00 | 00:00:00 | 00:00:00 | |
| DO3MHA-11 | 2026-08-31 18:55:16 | 49.56144 | 9.24539 | 78° | 58km/h | 4358m | -7.0m/s | -8.3°C | 85.2% | 599.9hPa | 2.6V | 00:00:00 | 02:26:06 | 00:00:00 | |
| DM7RM-13 | 2026-08-31 18:55:15 | 49.56144 | 9.24539 | 78° | 57km/h | 4358m | -7.0m/s | -8.4°C | 82.9% | 600.0hPa | 2.6V | 02:53:00 | 00:00:00 | 00:00:00 | |
| DF1GD-15 | 2026-08-31 18:55:13 | 49.56137 | 9.24495 | 79° | 58km/h | 4372m | -7.1m/s | -8.3°C | 87.5% | 598.9hPa | 2.6V | 02:53:00 | 00:00:00 | 00:00:00 | |
| DO3MHA-11 | 2026-08-31 18:55:11 | 49.56128 | 9.24428 | 77° | 58km/h | 4392m | -6.6m/s | -8.4°C | 94.9% | 597.4hPa | 2.6V | 00:00:00 | 02:26:01 | 00:00:00 | |
| DF7PN | 2026-08-31 18:55:08 | 49.56118 | 9.24361 | 76° | 57km/h | 4411m | -7.1m/s | -8.5°C | 93.4% | 596.1hPa | 2.6V | 00:00:00 | 00:00:00 | 00:00:00 | |
| DO3MHA-11 | 2026-08-31 18:55:06 | 49.56112 | 9.24317 | 77° | 58km/h | 4427m | -7.9m/s | -8.6°C | 0% | 594.9hPa | 2.6V | 02:52:00 | 02:25:56 | 00:00:00 | |
| DF3TZ-5 | 2026-08-31 18:54:49 | 49.56051 | 9.23870 | 80° | 58km/h | 4530m | -6.1m/s | -9.4°C | 100.0% | 586.8hPa | 2.7V | 00:00:00 | 00:00:00 | 00:00:00 | |
| NBG1-10 | 2026-08-31 18:54:48 | 49.56056 | 9.23916 | 81° | 60km/h | 4520m | -4.4m/s | -9.3°C | 0% | 587.6hPa | 2.7V | 00:00:00 | 02:25:38 | 00:00:00 | |
| DO3MHA-11 | 2026-08-31 18:54:46 | 49.56051 | 9.23870 | 81° | 60km/h | 4530m | -6.1m/s | -9.4°C | 0% | 586.7hPa | 2.7V | 00:00:00 | 02:25:36 | 00:00:00 | |
| DB0ND-19 | 2026-08-31 18:54:43 | 49.56040 | 9.23779 | 77° | 58km/h | 4553m | -4.2m/s | -9.5°C | 100.0% | 585.1hPa | 2.7V | 00:00:00 | 00:00:00 | 00:00:00 | |
| DL1NUX | 2026-08-31 18:54:41 | 49.56020 | 9.23644 | 76° | 60km/h | 4576m | -4.2m/s | -9.6°C | 0% | 583.5hPa | 2.7V | 02:53:04 | 02:25:26 | 00:00:00 | |
| DO3MHA-11 | 2026-08-31 18:54:41 | 49.56037 | 9.23756 | 78° | 58km/h | 4557m | -3.1m/s | -9.5°C | 0% | 584.7hPa | 2.7V | 00:00:00 | 02:25:31 | 00:00:00 | |
| DF7PN | 2026-08-31 18:54:37 | 49.56023 | 9.23666 | 76° | 58km/h | 4572m | -3.6m/s | -9.7°C | 100.0% | 583.7hPa | 2.7V | 00:00:00 | 00:00:00 | 00:00:00 | |
| DO3MHA-11 | 2026-08-31 18:54:36 | 49.56019 | 9.23644 | 77° | 60km/h | 4576m | -4.1m/s | -9.6°C | 0% | 583.4hPa | 2.7V | 02:53:00 | 02:25:26 | 00:00:00 | |
| DL1ZP-14 | 2026-08-31 18:54:35 | 49.56016 | 9.23621 | 77° | 58km/h | 4580m | -4.0m/s | -9.6°C | 100.0% | 583.1hPa | 2.6V | 00:00:00 | 00:00:00 | 00:00:00 | |
| DL1NUX | 2026-08-31 18:54:31 | 49.56004 | 9.23531 | 78° | 60km/h | 4597m | -4.9m/s | -9.8°C | 0% | 581.9hPa | 2.6V | 02:53:09 | 02:25:21 | 00:00:00 | |
| DL1NUX | 2026-08-31 18:54:31 | 49.55987 | 9.23417 | 75° | 60km/h | 4619m | -4m/s | -9.9°C | 0% | 580.3hPa | 2.6V | 02:53:14 | 02:25:16 | 00:00:00 | |
| DO3MHA-11 | 2026-08-31 18:54:31 | 49.56004 | 9.23531 | 79° | 60km/h | 4597m | -4.9m/s | -9.7°C | 0% | 581.9hPa | 2.6V | 00:00:00 | 02:25:21 | 00:00:00 | |
| DB0NH | 2026-08-31 18:54:30 | 49.56001 | 9.23508 | 79° | 60km/h | 4602m | -4.9m/s | -9.7°C | 0% | 581.6hPa | 2.6V | 02:53:00 | 02:25:20 | 00:00:00 | |
| DL0LBS | 2026-08-31 18:54:27 | 49.55994 | 9.23462 | 78° | 60km/h | 4611m | -4.6m/s | -9.9°C | 101.9% | 581.0hPa | 2.6V | 02:54:00 | 00:00:00 | 00:00:00 | |
| DO3MHA-11 | 2026-08-31 18:54:26 | 49.55987 | 9.23417 | 76° | 58km/h | 4619m | -3.9m/s | -9.8°C | 0% | 580.3hPa | 2.6V | 00:00:00 | 02:25:16 | 00:00:00 | |
| DK5PH-5 | 2026-08-31 18:54:24 | 49.55980 | 9.23373 | 75° | 58km/h | 4628m | -4.2m/s | -9.9°C | 0% | 579.7hPa | 2.6V | 00:00:00 | 02:25:14 | 00:00:00 | |
| DL1NUX | 2026-08-31 18:54:21 | 49.55968 | 9.23306 | 74° | 60km/h | 4641m | -3.9m/s | -10°C | 98.5% | 578.9hPa | 2.6V | 02:53:19 | 02:25:11 | 00:00:00 | |
| DL1NUX | 2026-08-31 18:54:21 | 49.55949 | 9.23192 | 76° | 60km/h | 4656m | -2.9m/s | -10.1°C | 94.3% | 577.4hPa | 2.6V | 02:53:24 | 02:25:06 | 00:00:00 | |
| DO3MHA-11 | 2026-08-31 18:54:21 | 49.55968 | 9.23306 | 75° | 60km/h | 4641m | -3.9m/s | -9.9°C | 98.5% | 578.9hPa | 2.6V | 02:53:00 | 02:25:11 | 00:00:00 | |
| DB0UT-7 | 2026-08-31 18:54:20 | 49.55964 | 9.23284 | 75° | 60km/h | 4645m | -3.4m/s | -9.9°C | 92.5% | 578.6hPa | 2.6V | 00:00:00 | 02:25:10 | 00:00:00 | |
| DL1NUX | 2026-08-31 18:54:16 | 49.55934 | 9.23077 | 79° | 60km/h | 4674m | -3.9m/s | -10.1°C | 83.2% | 576.1hPa | 2.6V | 02:53:29 | 02:25:01 | 00:00:00 | |
| DO3MHA-11 | 2026-08-31 18:54:16 | 49.55949 | 9.23192 | 77° | 60km/h | 4656m | -2.9m/s | -10.1°C | 94.3% | 577.4hPa | 2.6V | 00:00:00 | 02:25:06 | 00:00:00 | |
| NBG1-10 | 2026-08-31 18:54:15 | 49.55946 | 9.23169 | 78° | 60km/h | 4659m | -3.2m/s | -10.1°C | 93.1% | 577.2hPa | 2.6V | 00:00:00 | 02:25:05 | 00:00:00 | |
| SFWM-10 | 2026-08-31 18:54:14 | 49.55942 | 9.23146 | 79° | 60km/h | 4663m | -3.3m/s | -10.2°C | 90.1% | 576.9hPa | 2.6V | 00:00:00 | 00:00:00 | 00:00:00 | |
| DM7RM-13 | 2026-08-31 18:54:13 | 49.55942 | 9.23146 | 79° | 60km/h | 4663m | -3.3m/s | -10.2°C | 90.1% | 576.9hPa | 2.6V | 02:54:00 | 00:00:00 | 00:00:00 | |
| DB0ND-19 | 2026-08-31 18:54:12 | 49.55934 | 9.23077 | 79° | 60km/h | 4674m | -3.9m/s | -10.1°C | 80.7% | 576.1hPa | 2.6V | 00:00:00 | 00:00:00 | 00:00:00 | |
| DL1NUX | 2026-08-31 18:54:11 | 49.55920 | 9.22962 | 80° | 58km/h | 4694m | -4.5m/s | -10.2°C | 81.7% | 574.4hPa | 2.6V | 02:53:34 | 02:24:56 | 00:00:00 | |
| DO3MHA-11 | 2026-08-31 18:54:11 | 49.55934 | 9.23077 | 80° | 60km/h | 4674m | -3.8m/s | -10.0°C | 83.2% | 576.0hPa | 2.6V | 00:00:00 | 02:25:01 | 00:00:00 | |
| DL1NUX | 2026-08-31 18:54:06 | 49.55905 | 9.22852 | 77° | 57km/h | 4714m | -3.4m/s | -10.3°C | 72.8% | 572.9hPa | 2.6V | 02:53:39 | 02:24:51 | 00:00:00 | |
| DO3MHA-11 | 2026-08-31 18:54:06 | 49.55920 | 9.22962 | 81° | 58km/h | 4695m | -4.4m/s | -10.1°C | 81.7% | 574.4hPa | 2.6V | 02:53:00 | 02:24:56 | 00:00:00 | |
| DL1ZP-14 | 2026-08-31 18:54:04 | 49.55915 | 9.22917 | 79° | 57km/h | 4702m | -3.2m/s | -10.2°C | 73.9% | 573.9hPa | 2.6V | 00:00:00 | 00:00:00 | 00:00:00 | |
| DL1NUX | 2026-08-31 18:54:01 | 49.55886 | 9.22744 | 74° | 60km/h | 4731m | -5.1m/s | -10.4°C | 72.9% | 571.5hPa | 2.6V | 02:53:44 | 02:24:46 | 00:00:00 | |
| DO3MHA-11 | 2026-08-31 18:54:01 | 49.55905 | 9.22852 | 78° | 57km/h | 4714m | -3.4m/s | -10.2°C | 72.8% | 572.9hPa | 2.6V | 00:00:00 | 02:24:51 | 00:00:00 | |
| DB0NH | 2026-08-31 18:54:00 | 49.55902 | 9.22830 | 77° | 58km/h | 4717m | -3.2m/s | -10.3°C | 71.5% | 572.6hPa | 2.6V | 00:00:00 | 02:24:50 | 00:00:00 | |
| SO1NDE-10 | 2026-08-31 18:53:59 | 49.55898 | 9.22809 | 75° | 58km/h | 4720m | -2.9m/s | -10.3°C | 74.3% | 572.4hPa | 2.6V | 00:00:00 | 02:24:49 | 00:00:00 | |
| DO3MHA-11 | 2026-08-31 18:53:56 | 49.55886 | 9.22744 | 75° | 62km/h | 4731m | -5.1m/s | -10.4°C | 72.9% | 571.5hPa | 2.6V | 00:00:00 | 02:24:46 | 00:00:00 | |
| DB0UT-9 | 2026-08-31 18:53:55 | 49.55886 | 9.22744 | 75° | 60km/h | 4731m | -5.1m/s | -10.4°C | 70.8% | 571.5hPa | 2.6V | 02:54:00 | 00:00:00 | 00:00:00 | |
| DK5PH-5 | 2026-08-31 18:53:54 | 49.55877 | 9.22698 | 75° | 58km/h | 4741m | -5.5m/s | -10.5°C | 73.1% | 570.8hPa | 2.6V | 00:00:00 | 02:24:44 | 00:00:00 | |
| DM7RM-13 | 2026-08-31 18:53:53 | 49.55877 | 9.22698 | 75° | 62km/h | 4741m | -5.5m/s | -10.5°C | 70.9% | 570.9hPa | 2.6V | 02:54:00 | 00:00:00 | 00:00:00 | |
| DL1NUX | 2026-08-31 18:53:51 | 49.55864 | 9.22627 | 73° | 64km/h | 4757m | -6.1m/s | -10.6°C | 78.1% | 569.7hPa | 2.6V | 02:53:49 | 02:24:41 | 00:00:00 | |
| DL1NUX | 2026-08-31 18:53:51 | 49.55840 | 9.22513 | 70° | 58km/h | 4786m | -5.2m/s | -10.6°C | 69.7% | 567.5hPa | 2.6V | 02:53:54 | 02:24:36 | 00:00:00 | |
| DF3TZ-5 | 2026-08-31 18:53:47 | 49.55845 | 9.22535 | 70° | 58km/h | 4780m | -6.4m/s | -10.6°C | 72.2% | 568.0hPa | 2.6V | 00:00:00 | 00:00:00 | 00:00:00 | |
| DO3MHA-11 | 2026-08-31 18:53:46 | 49.55840 | 9.22513 | 71° | 58km/h | 4786m | -5.2m/s | -10.6°C | 69.7% | 567.5hPa | 2.6V | 00:00:00 | 02:24:36 | 00:00:00 | |
| DL1NUX | 2026-08-31 18:53:45 | 49.55810 | 9.22385 | 70° | 58km/h | 4817m | -5.1m/s | -11°C | 65.5% | 565.1hPa | 2.6V | 02:54:00 | 02:24:30 | 00:00:00 | |
| NBG1-10 | 2026-08-31 18:53:42 | 49.55820 | 9.22428 | 71° | 57km/h | 4806m | -6.0m/s | -11.1°C | 68.0% | 565.9hPa | 2.6V | 02:53:00 | 02:24:32 | 00:00:00 | |
| DO3MHA-11 | 2026-08-31 18:53:41 | 49.55815 | 9.22406 | 71° | 58km/h | 4812m | -6.3m/s | -11.1°C | 67.7% | 565.6hPa | 2.6V | 00:00:00 | 02:24:31 | 00:00:00 | |
| DL1NUX | 2026-08-31 18:53:40 | 49.55784 | 9.22280 | 66° | 58km/h | 4848m | -6.5m/s | -11.2°C | 63.9% | 562.9hPa | 2.6V | 02:54:05 | 02:24:25 | 00:00:00 | |
| DO3MHA-11 | 2026-08-31 18:53:36 | 49.55790 | 9.22301 | 70° | 58km/h | 4842m | -6.5m/s | -11.1°C | 63.1% | 563.3hPa | 2.6V | 02:54:00 | 02:24:26 | 00:00:00 | |
| DF7PN | 2026-08-31 18:53:35 | 49.55784 | 9.22280 | 66° | 57km/h | 4848m | -6.5m/s | -11.2°C | 61.8% | 562.9hPa | 2.6V | 00:00:00 | 00:00:00 | 00:00:00 | |
| DL1ZP-14 | 2026-08-31 18:53:33 | 49.55772 | 9.22239 | 65° | 57km/h | 4860m | -6.5m/s | -11.1°C | 60.5% | 562.1hPa | 2.6V | 00:00:00 | 00:00:00 | 00:00:00 | |
| DM7RM-13 | 2026-08-31 18:53:32 | 49.55772 | 9.22239 | 67° | 58km/h | 4860m | -6.5m/s | -11.1°C | 60.5% | 562.1hPa | 2.6V | 02:54:00 | 00:00:00 | 00:00:00 | |
| DL1NUX | 2026-08-31 18:53:30 | 49.55755 | 9.22176 | 67° | 58km/h | 4878m | -6.4m/s | -11.2°C | 60.8% | 560.8hPa | 2.6V | 02:54:10 | 02:24:20 | 00:00:00 | |
| DL1NUX | 2026-08-31 18:53:30 | 49.55729 | 9.22071 | 71° | 57km/h | 4910m | -6.8m/s | -11.6°C | 73.1% | 558.5hPa | 2.5V | 02:54:15 | 02:24:15 | 00:00:00 | |
| DB0NH | 2026-08-31 18:53:30 | 49.55755 | 9.22176 | 68° | 55km/h | 4878m | -6.4m/s | -11.2°C | 60.8% | 560.7hPa | 2.6V | 00:00:00 | 02:24:20 | 00:00:00 | |
| SO1NDE-10 | 2026-08-31 18:53:29 | 49.55749 | 9.22155 | 68° | 55km/h | 4884m | -6.6m/s | -11.2°C | 61.0% | 560.3hPa | 2.6V | 00:00:00 | 02:24:19 | 00:00:00 | |
| DO3MHA-11 | 2026-08-31 18:53:26 | 49.55734 | 9.22092 | 73° | 58km/h | 4903m | -7.2m/s | -11.5°C | 68.9% | 558.9hPa | 2.6V | 00:00:00 | 02:24:16 | 00:00:00 | |
| DL0LBS | 2026-08-31 18:53:25 | 49.55734 | 9.22092 | 74° | 57km/h | 4903m | -7.3m/s | -11.5°C | 66.7% | 559.0hPa | 2.6V | 02:54:00 | 00:00:00 | 00:00:00 | |
| DL1NUX | 2026-08-31 18:53:24 | 49.55699 | 9.21941 | 69° | 60km/h | 4946m | -6m/s | -12°C | 69.9% | 555.9hPa | 2.6V | 02:54:21 | 02:24:09 | 00:00:00 | |
| DK5PH-5 | 2026-08-31 18:53:24 | 49.55724 | 9.22049 | 71° | 51km/h | 4916m | -6.6m/s | -11.8°C | 72.0% | 557.9hPa | 2.6V | 02:54:00 | 02:24:14 | 00:00:00 | |
| DH7VM-15 | 2026-08-31 18:53:22 | 49.55719 | 9.22028 | 73° | 58km/h | 4923m | -6.4m/s | -12.0°C | 66.7% | 557.6hPa | 2.6V | 00:00:00 | 00:00:00 | 00:00:00 | |
| DO3MHA-11 | 2026-08-31 18:53:21 | 49.55710 | 9.21984 | 71° | 58km/h | 4935m | -6.3m/s | -11.9°C | 69.2% | 556.6hPa | 2.6V | 02:54:00 | 02:24:11 | 00:00:00 | |
| DB0UT-7 | 2026-08-31 18:53:20 | 49.55704 | 9.21962 | 70° | 49km/h | 4941m | -6.2m/s | -11.9°C | 72.1% | 556.1hPa | 2.6V | 02:54:00 | 02:24:10 | 00:00:00 | |
| DL1NUX | 2026-08-31 18:53:14 | 49.55674 | 9.21837 | 72° | 55km/h | 4977m | -6.3m/s | -12.2°C | 63.6% | 553.5hPa | 2.5V | 02:54:26 | 02:24:04 | 00:00:00 | |
| DL1NUX | 2026-08-31 18:53:14 | 49.55655 | 9.21737 | 71° | 53km/h | 5011m | -8.1m/s | -12.8°C | 73.7% | 551.1hPa | 2.6V | 02:54:31 | 02:23:59 | 00:00:00 | |
| DO3MHA-11 | 2026-08-31 18:53:11 | 49.55663 | 9.21777 | 75° | 53km/h | 4997m | -6.3m/s | -12.5°C | 69.9% | 552.0hPa | 2.5V | 00:00:00 | 02:24:01 | 00:00:00 | |
| DB0ND-19 | 2026-08-31 18:53:10 | 49.55655 | 9.21737 | 71° | 53km/h | 5011m | -8.1m/s | -12.8°C | 71.2% | 551.1hPa | 2.5V | 00:00:00 | 00:00:00 | 00:00:00 | |
| NBG1-10 | 2026-08-31 18:53:09 | 49.55655 | 9.21737 | 72° | 44km/h | 5011m | -8.0m/s | -12.7°C | 73.7% | 551.0hPa | 2.5V | 00:00:00 | 02:23:59 | 00:00:00 | |
| SFWM-10 | 2026-08-31 18:53:08 | 49.55655 | 9.21737 | 72° | 53km/h | 5011m | -8.1m/s | -12.8°C | 71.2% | 551.1hPa | 2.5V | 00:00:00 | 00:00:00 | 00:00:00 | |
| DO3MHA-11 | 2026-08-31 18:53:06 | 49.55642 | 9.21680 | 73° | 46km/h | 5035m | -8.5m/s | -12.8°C | 69.1% | 549.4hPa | 2.5V | 02:54:00 | 02:23:56 | 00:00:00 | |
| DL0LBS | 2026-08-31 18:53:05 | 49.55642 | 9.21680 | 74° | 49km/h | 5035m | -8.5m/s | -12.9°C | 66.7% | 549.5hPa | 2.6V | 02:54:00 | 00:00:00 | 00:00:00 | |
| DL1NUX | 2026-08-31 18:53:04 | 49.55624 | 9.21554 | 80° | 44km/h | 5083m | -7.6m/s | -13.2°C | 81.5% | 545.9hPa | 2.6V | 02:54:41 | 02:23:49 | 00:00:00 | |
| DL1ZP-14 | 2026-08-31 18:53:02 | 49.55630 | 9.21607 | 78° | 47km/h | 5064m | -6.5m/s | -13.1°C | 71.1% | 547.1hPa | 2.6V | 00:00:00 | 00:00:00 | 00:00:00 | |
| DB0NH | 2026-08-31 18:53:00 | 49.55625 | 9.21572 | 83° | 44km/h | 5077m | -6.1m/s | -13.2°C | 76.5% | 546.2hPa | 2.6V | 02:54:00 | 02:23:50 | 00:00:00 | |
| SO1NDE-10 | 2026-08-31 18:52:59 | 49.55624 | 9.21554 | 81° | 44km/h | 5083m | -7.6m/s | -13.2°C | 81.5% | 545.8hPa | 2.6V | 02:54:00 | 02:23:49 | 00:00:00 | |
| DO3MHA-11 | 2026-08-31 18:52:56 | 49.55618 | 9.21504 | 80° | 40km/h | 5106m | -7.8m/s | -13.2°C | 81.8% | 544.3hPa | 2.6V | 00:00:00 | 02:23:46 | 00:00:00 | |
| BIOWL1-15 | 2026-08-31 18:52:56 | 49.55616 | 9.21488 | 83° | 44km/h | 5113m | -7.7m/s | -13.2°C | 86.1% | 543.8hPa | 2.6V | 02:54:51 | 02:23:45 | 00:00:00 | |
| DL1NUX | 2026-08-31 18:52:54 | 49.55613 | 9.21393 | 88° | 40km/h | 5156m | -7.3m/s | -13.7°C | 83.3% | 540.6hPa | 2.6V | 02:54:51 | 02:23:39 | 00:00:00 | |
| BIOWL1-15 | 2026-08-31 18:52:47 | 49.55617 | 9.21295 | 97° | 44km/h | 5202m | -9.3m/s | -13.7°C | 80.4% | 537.3hPa | 2.6V | 02:55:42 | 02:23:33 | 00:00:00 | |
| DO3MHA-11 | 2026-08-31 18:52:46 | 49.55614 | 9.21345 | 94° | 44km/h | 5178m | -7.8m/s | -13.5°C | 79.7% | 539.0hPa | 2.5V | 00:00:00 | 02:23:36 | 00:00:00 | |
| DL0LBS | 2026-08-31 18:52:45 | 49.55614 | 9.21345 | 94° | 42km/h | 5178m | -7.9m/s | -13.6°C | 77.0% | 539.0hPa | 2.5V | 02:55:00 | 00:00:00 | 00:00:00 | |
| DL1NUX | 2026-08-31 18:52:44 | 49.55620 | 9.21225 | 94° | 46km/h | 5235m | -8m/s | -13.9°C | 77.3% | 535hPa | 2.5V | 02:55:01 | 02:23:29 | 00:00:00 | |
| DM0DOS-11 | 2026-08-31 18:52:41 | 49.55623 | 9.21174 | 98° | 44km/h | 5256m | -8.4m/s | -14.2°C | 76.7% | 533.5hPa | 2.6V | 02:55:04 | 02:23:26 | 00:00:00 | |
| DB0ND-19 | 2026-08-31 18:52:38 | 49.55621 | 9.21208 | 94° | 44km/h | 5242m | -6.3m/s | -14.0°C | 75.4% | 534.4hPa | 2.6V | 00:00:00 | 00:00:00 | 00:00:00 | |
| DO3MHA-11 | 2026-08-31 18:52:36 | 49.55623 | 9.21174 | 99° | 46km/h | 5256m | -8.3m/s | -14.1°C | 76.7% | 533.4hPa | 2.6V | 02:55:00 | 02:23:26 | 00:00:00 | |
| DL1NUX | 2026-08-31 18:52:34 | 49.55640 | 9.21053 | 101° | 47km/h | 5312m | -9.4m/s | -14.4°C | 80.9% | 529.6hPa | 2.6V | 02:55:11 | 02:23:19 | 00:00:00 | |
| BIOWL1-15 | 2026-08-31 18:52:34 | 49.55632 | 9.21107 | 105° | 46km/h | 5289m | -8.3m/s | -14.4°C | 77.9% | 531.2hPa | 2.5V | 02:55:42 | 02:23:22 | 00:00:00 | |
| DF7PN | 2026-08-31 18:52:33 | 49.55629 | 9.21124 | 103° | 44km/h | 5280m | -9.3m/s | -14.4°C | 74.3% | 531.8hPa | 2.5V | 00:00:00 | 00:00:00 | 00:00:00 | |
| DB0UT-9 | 2026-08-31 18:52:32 | 49.55629 | 9.21124 | 104° | 46km/h | 5280m | -9.3m/s | -14.4°C | 74.3% | 531.8hPa | 2.5V | 02:55:00 | 00:00:00 | 00:00:00 | |
| DL1ZP-14 | 2026-08-31 18:52:31 | 49.55635 | 9.21089 | 104° | 47km/h | 5296m | -7.4m/s | -14.3°C | 77.4% | 530.7hPa | 2.5V | 00:00:00 | 00:00:00 | 00:00:00 | |
| DB0NH | 2026-08-31 18:52:29 | 49.55640 | 9.21053 | 102° | 47km/h | 5312m | -9.4m/s | -14.3°C | 80.9% | 529.5hPa | 2.5V | 00:00:00 | 02:23:19 | 00:00:00 | |
| DF1GD-15 | 2026-08-31 18:52:28 | 49.55640 | 9.21053 | 103° | 47km/h | 5312m | -9.4m/s | -14.4°C | 78.0% | 529.6hPa | 2.5V | 02:55:00 | 00:00:00 | 00:00:00 | |
| DO3MHA-11 | 2026-08-31 18:52:26 | 49.55646 | 9.20999 | 99° | 44km/h | 5338m | -8.7m/s | -14.4°C | 82.8% | 527.8hPa | 2.5V | 00:00:00 | 02:23:16 | 00:00:00 | |
| DM0DOS-11 | 2026-08-31 18:52:25 | 49.55656 | 9.20896 | 102° | 42km/h | 5386m | -7.9m/s | -15°C | 80.2% | 524.5hPa | 2.5V | 02:55:20 | 02:23:10 | 00:00:00 | |
| DL1NUX | 2026-08-31 18:52:24 | 49.55658 | 9.20880 | 103° | 44km/h | 5394m | -8.5m/s | -15.1°C | 80.2% | 523.8hPa | 2.6V | 02:55:21 | 02:23:09 | 00:00:00 | |
| BIOWL1-15 | 2026-08-31 18:52:22 | 49.55652 | 9.20929 | 99° | 44km/h | 5371m | -9m/s | -14.7°C | 84.8% | 525.5hPa | 2.6V | 02:55:42 | 02:23:12 | 00:00:00 | |
| DB0UT-7 | 2026-08-31 18:52:20 | 49.55656 | 9.20896 | 103° | 51km/h | 5386m | -7.8m/s | -14.9°C | 80.2% | 524.4hPa | 2.6V | 00:00:00 | 02:23:10 | 00:00:00 | |
| DH7VM-15 | 2026-08-31 18:52:18 | 49.55658 | 9.20880 | 104° | 44km/h | 5394m | -8.5m/s | -15.1°C | 77.2% | 523.8hPa | 2.6V | 00:00:00 | 00:00:00 | 00:00:00 | |
| DO3MHA-11 | 2026-08-31 18:52:16 | 49.55666 | 9.20828 | 104° | 49km/h | 5417m | -8.0m/s | -15.2°C | 81.3% | 522.1hPa | 2.6V | 00:00:00 | 02:23:06 | 00:00:00 | |
| DM0DOS-11 | 2026-08-31 18:52:15 | 49.55682 | 9.20716 | 104° | 51km/h | 5459m | -7.9m/s | -15.2°C | 85.5% | 519.2hPa | 2.6V | 02:55:30 | 02:23:00 | 00:00:00 | |
| DL1NUX | 2026-08-31 18:52:14 | 49.55685 | 9.20696 | 104° | 51km/h | 5466m | -7.4m/s | -15.3°C | 85.3% | 518.6hPa | 2.5V | 02:55:31 | 02:22:59 | 00:00:00 | |
| BIOWL1-15 | 2026-08-31 18:52:12 | 49.55676 | 9.20755 | 101° | 51km/h | 5445m | -8.1m/s | -15.1°C | 85% | 520.1hPa | 2.6V | 02:55:42 | 02:23:02 | 00:00:00 | |
| DM7RM-13 | 2026-08-31 18:52:08 | 49.55685 | 9.20696 | 106° | 51km/h | 5467m | -7.4m/s | -15.3°C | 82.2% | 518.7hPa | 2.6V | 02:55:00 | 00:00:00 | 00:00:00 | |
| DB0ND-19 | 2026-08-31 18:52:07 | 49.55691 | 9.20659 | 104° | 49km/h | 5480m | -7.7m/s | -15.5°C | 82.8% | 517.7hPa | 2.6V | 00:00:00 | 00:00:00 | 00:00:00 | |
| DO3MHA-11 | 2026-08-31 18:52:06 | 49.55694 | 9.20640 | 106° | 51km/h | 5488m | -8.0m/s | -15.5°C | 86.4% | 517.2hPa | 2.6V | 02:55:00 | 02:22:56 | 00:00:00 | |
| DL1NUX | 2026-08-31 18:52:04 | 49.55714 | 9.20508 | 100° | 53km/h | 5540m | -9m/s | -16.1°C | 86% | 513.8hPa | 2.5V | 02:55:41 | 02:22:49 | 00:00:00 | |
| BIOWL1-15 | 2026-08-31 18:52:03 | 49.55708 | 9.20547 | 101° | 51km/h | 5525m | -7.9m/s | -16.1°C | 84.3% | 514.8hPa | 2.6V | 02:55:42 | 02:22:51 | 00:00:00 | |
| NBG1-10 | 2026-08-31 18:52:03 | 49.55703 | 9.20585 | 103° | 58km/h | 5510m | -7.7m/s | -16.0°C | 82.7% | 515.8hPa | 2.5V | 02:55:00 | 02:22:53 | 00:00:00 | |
| DF7PN | 2026-08-31 18:52:02 | 49.55706 | 9.20566 | 102° | 47km/h | 5517m | -8.0m/s | -16.1°C | 80.4% | 515.4hPa | 2.6V | 00:00:00 | 00:00:00 | 00:00:00 | |
| BIOWL7-15 | 2026-08-31 18:52:01 | 49.55706 | 9.20566 | 103° | 49km/h | 5517m | -8.0m/s | -16.1°C | 80.4% | 515.4hPa | 2.6V | 00:00:00 | 00:00:00 | 00:00:00 | |
| DF2AP-13 | 2026-08-31 18:52:00 | 49.55711 | 9.20528 | 103° | 60km/h | 5532m | -8.0m/s | -16.0°C | 85.3% | 514.3hPa | 2.6V | 00:00:00 | 02:22:50 | 00:00:00 | |
| SO1NDE-10 | 2026-08-31 18:51:59 | 49.55714 | 9.20508 | 101° | 66km/h | 5540m | -8.9m/s | -16.0°C | 86.0% | 513.8hPa | 2.6V | 00:00:00 | 02:22:49 | 00:00:00 | |
| DO3MHA-11 | 2026-08-31 18:51:56 | 49.55722 | 9.20445 | 104° | 57km/h | 5564m | -7.3m/s | -16.0°C | 87.4% | 512.0hPa | 2.6V | 00:00:00 | 02:22:46 | 00:00:00 | |
| DL1NUX | 2026-08-31 18:51:54 | 49.55743 | 9.20294 | 102° | 57km/h | 5617m | -10.5m/s | -16.4°C | 87.1% | 508.5hPa | 2.6V | 02:55:51 | 02:22:39 | 00:00:00 | |
| BIOWL1-15 | 2026-08-31 18:51:52 | 49.55740 | 9.20315 | 103° | 55km/h | 5607m | -10.3m/s | -16.3°C | 85.7% | 509.2hPa | 2.6V | 02:57:24 | 02:22:40 | 00:00:00 | |
| DB0UT-9 | 2026-08-31 18:51:51 | 49.55734 | 9.20358 | 103° | 57km/h | 5592m | -7.9m/s | -16.3°C | 84.1% | 510.1hPa | 2.6V | 02:56:00 | 00:00:00 | 00:00:00 | |
| DB0UT-7 | 2026-08-31 18:51:50 | 49.55740 | 9.20315 | 103° | 66km/h | 5607m | -10.2m/s | -16.3°C | 86.2% | 509.2hPa | 2.6V | 02:55:00 | 00:00:00 | 00:00:00 | |
| DF1GD-15 | 2026-08-31 18:51:47 | 49.55745 | 9.20273 | 103° | 55km/h | 5626m | -9.0m/s | -16.5°C | 84.7% | 508.0hPa | 2.6V | 02:56:00 | 00:00:00 | 00:00:00 | |
| DO3MHA-11 | 2026-08-31 18:51:46 | 49.55751 | 9.20230 | 102° | 62km/h | 5645m | -10.4m/s | -16.7°C | 86.9% | 506.8hPa | 2.6V | 00:00:00 | 02:22:36 | 00:00:00 | |
| DM0DOS-11 | 2026-08-31 18:51:44 | 49.55772 | 9.20065 | 105° | 64km/h | 5706m | -9.7m/s | -17.2°C | 90.5% | 502.7hPa | 2.6V | 02:56:01 | 02:22:29 | 00:00:00 | |
| DL0LBS | 2026-08-31 18:51:42 | 49.55760 | 9.20160 | 102° | 64km/h | 5671m | -9.3m/s | -16.8°C | 83.5% | 505.0hPa | 2.6V | 02:56:00 | 00:00:00 | 00:00:00 | |
| DL1NUX | 2026-08-31 18:51:41 | 49.55783 | 9.19992 | 102° | 64km/h | 5731m | -8.9m/s | -17.4°C | 89% | 500.9hPa | 2.6V | 02:56:04 | 02:22:26 | 00:00:00 | |
| BIOWL1-15 | 2026-08-31 18:51:40 | 49.55769 | 9.20089 | 100° | 62km/h | 5697m | -9.8m/s | -17.1°C | 88.8% | 503.4hPa | 2.6V | 02:57:24 | 02:22:30 | 00:00:00 | |
| DO3MHA-11 | 2026-08-31 18:51:36 | 49.55783 | 9.19992 | 103° | 68km/h | 5731m | -8.9m/s | -17.3°C | 89.0% | 500.9hPa | 2.6V | 02:56:00 | 02:22:26 | 00:00:00 | |
| BIOWL7-15 | 2026-08-31 18:51:35 | 49.55783 | 9.19992 | 103° | 64km/h | 5731m | -8.9m/s | -17.4°C | 85.5% | 500.9hPa | 2.5V | 00:00:00 | 00:00:00 | 00:00:00 | |
| DM0DOS-11 | 2026-08-31 18:51:34 | 49.55805 | 9.19812 | 100° | 68km/h | 5793m | -9.5m/s | -17.6°C | 86.7% | 496.6hPa | 2.5V | 02:56:11 | 02:22:19 | 00:00:00 | |
| DL1NUX | 2026-08-31 18:51:31 | 49.55813 | 9.19731 | 99° | 69km/h | 5822m | -10.1m/s | -17.9°C | 89% | 494.8hPa | 2.6V | 02:56:14 | 02:22:16 | 00:00:00 | |
| BIOWL1-15 | 2026-08-31 18:51:31 | 49.55805 | 9.19812 | 100° | 68km/h | 5793m | -9.5m/s | -17.7°C | 87.6% | 496.6hPa | 2.5V | 02:57:24 | 02:22:19 | 00:00:00 | |
| DF7PN | 2026-08-31 18:51:31 | 49.55799 | 9.19864 | 100° | 68km/h | 5775m | -10.5m/s | -17.5°C | 78.1% | 497.9hPa | 2.5V | 00:00:00 | 00:00:00 | 00:00:00 | |
| NBG1-10 | 2026-08-31 18:51:30 | 49.55802 | 9.19838 | 101° | 69km/h | 5785m | -9.2m/s | -17.5°C | 84.6% | 497.2hPa | 2.5V | 00:00:00 | 02:22:20 | 00:00:00 | |
| DB0NH | 2026-08-31 18:51:29 | 49.55805 | 9.19812 | 101° | 69km/h | 5793m | -9.4m/s | -17.6°C | 86.7% | 496.6hPa | 2.5V | 02:56:00 | 02:22:19 | 00:00:00 | |
| DM7RM-13 | 2026-08-31 18:51:27 | 49.55808 | 9.19785 | 100° | 71km/h | 5803m | -10.2m/s | -17.7°C | 85.1% | 496.1hPa | 2.6V | 02:56:00 | 00:00:00 | 00:00:00 | |
| SO1NDE-10 | 2026-08-31 18:51:26 | 49.55813 | 9.19731 | 100° | 69km/h | 5822m | -10.0m/s | -17.8°C | 89.0% | 494.7hPa | 2.6V | 02:56:00 | 02:22:16 | 00:00:00 | |
| DK5PH-5 | 2026-08-31 18:51:24 | 49.55819 | 9.19676 | 101° | 69km/h | 5843m | -11.7m/s | -18.0°C | 88.6% | 493.4hPa | 2.5V | 00:00:00 | 02:22:14 | 00:00:00 | |
| DM0DOS-11 | 2026-08-31 18:51:23 | 49.55834 | 9.19513 | 96° | 71km/h | 5903m | -9.1m/s | -18.6°C | 86.9% | 489.4hPa | 2.5V | 02:56:22 | 02:22:08 | 00:00:00 | |
| DL0LBS | 2026-08-31 18:51:22 | 49.55823 | 9.19648 | 101° | 73km/h | 5854m | -11.0m/s | -18.1°C | 84.3% | 492.8hPa | 2.6V | 02:56:00 | 00:00:00 | 00:00:00 | |
| DL1NUX | 2026-08-31 18:51:21 | 49.55837 | 9.19458 | 93° | 69km/h | 5921m | -8.3m/s | -18.8°C | 82.5% | 488.3hPa | 2.6V | 02:56:24 | 02:22:06 | 00:00:00 | |
| BIOWL1-15 | 2026-08-31 18:51:18 | 49.55834 | 9.19513 | 96° | 71km/h | 5903m | -9.1m/s | -18.6°C | 86% | 489.4hPa | 2.5V | 02:57:24 | 02:22:08 | 00:00:00 | |
| DM0DOS-11 | 2026-08-31 18:51:13 | 49.55845 | 9.19242 | 93° | 68km/h | 5992m | -8.2m/s | -19.6°C | 82.1% | 483.6hPa | 2.6V | 02:56:32 | 02:21:58 | 00:00:00 | |
| DH7VM-15 | 2026-08-31 18:51:12 | 49.55840 | 9.19376 | 93° | 69km/h | 5947m | -9.2m/s | -19.1°C | 79.5% | 486.6hPa | 2.5V | 00:00:00 | 00:00:00 | 00:00:00 | |
| DL1NUX | 2026-08-31 18:51:11 | 49.55847 | 9.19189 | 92° | 68km/h | 6007m | -7.8m/s | -19.7°C | 83.5% | 482.4hPa | 2.5V | 02:56:34 | 02:21:56 | 00:00:00 | |
| BIOWL1-15 | 2026-08-31 18:51:08 | 49.55845 | 9.19242 | 94° | 68km/h | 5992m | -8.2m/s | -19.6°C | 80% | 483.6hPa | 2.6V | 02:57:24 | 02:21:58 | 00:00:00 | |
| DM7RM-13 | 2026-08-31 18:51:07 | 49.55845 | 9.19242 | 95° | 68km/h | 5992m | -8.2m/s | -19.6°C | 78.6% | 483.6hPa | 2.5V | 02:56:00 | 00:00:00 | 00:00:00 | |
| DO3MHA-11 | 2026-08-31 18:51:06 | 49.55847 | 9.19189 | 93° | 69km/h | 6007m | -7.8m/s | -19.7°C | 83.5% | 482.4hPa | 2.5V | 02:56:00 | 02:21:56 | 00:00:00 | |
| DB0ND-19 | 2026-08-31 18:51:05 | 49.55848 | 9.19163 | 96° | 68km/h | 6014m | -8.3m/s | -19.8°C | 81.2% | 482.0hPa | 2.6V | 00:00:00 | 00:00:00 | 00:00:00 | |
| DM0DOS-11 | 2026-08-31 18:51:03 | 49.55860 | 9.18973 | 98° | 71km/h | 6072m | -9m/s | -20.2°C | 89% | 478.4hPa | 2.6V | 02:56:42 | 02:21:48 | 00:00:00 | |
| DL1NUX | 2026-08-31 18:51:01 | 49.55864 | 9.18919 | 96° | 73km/h | 6088m | -8.4m/s | -20.4°C | 87.4% | 477.4hPa | 2.6V | 02:56:44 | 02:21:46 | 00:00:00 | |
| BIOWL1-15 | 2026-08-31 18:50:56 | 49.55863 | 9.18919 | 96° | 73km/h | 6088m | -8.4m/s | -20.4°C | 85.1% | 477.4hPa | 2.6V | 02:57:24 | 02:21:46 | 00:00:00 | |
| DO3MHA-11 | 2026-08-31 18:50:56 | 49.55863 | 9.18919 | 97° | 73km/h | 6088m | -8.3m/s | -20.4°C | 87.4% | 477.3hPa | 2.5V | 00:00:00 | 02:21:46 | 00:00:00 | |
| DK5PH-5 | 2026-08-31 18:50:54 | 49.55867 | 9.18864 | 96° | 78km/h | 6104m | -7.3m/s | -20.6°C | 87.6% | 476.3hPa | 2.5V | 00:00:00 | 02:21:44 | 00:00:00 | |
| DM0DOS-11 | 2026-08-31 18:50:53 | 49.55881 | 9.18691 | 95° | 75km/h | 6152m | -8.3m/s | -20.8°C | 91.5% | 473.4hPa | 2.5V | 02:56:52 | 02:21:38 | 00:00:00 | |
| DL1NUX | 2026-08-31 18:50:51 | 49.55885 | 9.18633 | 98° | 75km/h | 6167m | -7.8m/s | -20.9°C | 91.5% | 472.4hPa | 2.6V | 02:56:54 | 02:21:36 | 00:00:00 | |
| BIOWL1-15 | 2026-08-31 18:50:47 | 49.55888 | 9.18603 | 98° | 78km/h | 6174m | -8.1m/s | -20.8°C | 89% | 471.8hPa | 2.6V | 02:57:24 | 02:21:35 | 00:00:00 | |
| DO3MHA-11 | 2026-08-31 18:50:46 | 49.55885 | 9.18633 | 99° | 78km/h | 6167m | -7.7m/s | -20.8°C | 91.5% | 472.3hPa | 2.6V | 00:00:00 | 02:21:36 | 00:00:00 | |
| DM0DOS-11 | 2026-08-31 18:50:43 | 49.55907 | 9.18392 | 98° | 78km/h | 6233m | -9.4m/s | -21.4°C | 61.4% | 468.2hPa | 2.6V | 02:57:02 | 02:21:28 | 00:00:00 | |
| SFWM-10 | 2026-08-31 18:50:42 | 49.55894 | 9.18542 | 99° | 77km/h | 6190m | -8.7m/s | -20.9°C | 83.4% | 470.9hPa | 2.5V | 00:00:00 | 00:00:00 | 00:00:00 | |
| DL1NUX | 2026-08-31 18:50:41 | 49.55915 | 9.18329 | 100° | 84km/h | 6249m | -8.1m/s | -21.5°C | 63.6% | 467hPa | 2.5V | 02:57:04 | 02:21:26 | 00:00:00 | |
| BIOWL1-15 | 2026-08-31 18:50:35 | 49.55919 | 9.18297 | 101° | 84km/h | 6258m | -9.4m/s | -21.6°C | 63.8% | 466.6hPa | 2.5V | 02:57:24 | 02:21:25 | 00:00:00 | |
| DB0ND-19 | 2026-08-31 18:50:34 | 49.55923 | 9.18266 | 101° | 82km/h | 6267m | -10.5m/s | -21.7°C | 59.1% | 466.1hPa | 2.5V | 00:00:00 | 00:00:00 | 00:00:00 | |
| DM0DOS-11 | 2026-08-31 18:50:33 | 49.55949 | 9.18078 | 105° | 84km/h | 6325m | -10.6m/s | -22.1°C | 75.2% | 462.3hPa | 2.5V | 02:57:12 | 02:21:18 | 00:00:00 | |
| DL1NUX | 2026-08-31 18:50:31 | 49.55960 | 9.18015 | 104° | 86km/h | 6343m | -9.8m/s | -22.3°C | 64.6% | 461.2hPa | 2.6V | 02:57:14 | 02:21:16 | 00:00:00 | |
| BIOWL1-15 | 2026-08-31 18:50:24 | 49.55970 | 9.17951 | 104° | 84km/h | 6360m | -7.9m/s | -22.4°C | 64.8% | 460hPa | 2.5V | 02:57:24 | 02:21:14 | 00:00:00 | |
| NBG1-10 | 2026-08-31 18:50:24 | 49.55970 | 9.17951 | 104° | 88km/h | 6360m | -7.9m/s | -22.4°C | 63.1% | 460.0hPa | 2.5V | 02:57:00 | 02:21:14 | 00:00:00 | |
| DM0DOS-11 | 2026-08-31 18:50:23 | 49.55999 | 9.17763 | 104° | 80km/h | 6413m | -9.5m/s | -22.9°C | 66.6% | 456.7hPa | 2.6V | 02:57:22 | 02:21:08 | 00:00:00 | |
| SFWM-10 | 2026-08-31 18:50:22 | 49.55975 | 9.17919 | 104° | 82km/h | 6369m | -9.4m/s | -22.5°C | 63.0% | 459.5hPa | 2.5V | 00:00:00 | 00:00:00 | 00:00:00 | |
| DL1NUX | 2026-08-31 18:50:21 | 49.56010 | 9.17700 | 107° | 84km/h | 6430m | -8.9m/s | -23°C | 60.3% | 455.7hPa | 2.5V | 02:57:24 | 02:21:06 | 00:00:00 | |
| BIOWL1-15 | 2026-08-31 18:50:16 | 49.56022 | 9.17637 | 106° | 86km/h | 6448m | -9.2m/s | -23.2°C | 56.3% | 454.6hPa | 2.5V | 02:58:15 | 02:21:04 | 00:00:00 | |
| DO3MHA-11 | 2026-08-31 18:50:16 | 49.56010 | 9.17700 | 108° | 86km/h | 6430m | -8.8m/s | -23.0°C | 60.3% | 455.6hPa | 2.5V | 00:00:00 | 02:21:06 | 00:00:00 | |
| DM0DOS-11 | 2026-08-31 18:50:13 | 49.56063 | 9.17443 | 107° | 88km/h | 6502m | -9.3m/s | -23.5°C | 27% | 451.3hPa | 2.5V | 02:57:32 | 02:20:58 | 00:00:00 | |
| DL1NUX | 2026-08-31 18:50:11 | 49.56076 | 9.17376 | 106° | 91km/h | 6522m | -9.8m/s | -23.7°C | 29.9% | 450.2hPa | 2.6V | 02:57:34 | 02:20:56 | 00:00:00 | |
| BIOWL1-15 | 2026-08-31 18:50:06 | 49.56089 | 9.17309 | 107° | 89km/h | 6539m | -8.8m/s | -23.9°C | 38.8% | 449.1hPa | 2.5V | 02:58:15 | 02:20:54 | 00:00:00 | |
| DO3MHA-11 | 2026-08-31 18:50:06 | 49.56076 | 9.17376 | 107° | 91km/h | 6522m | -9.7m/s | -23.7°C | 29.9% | 450.1hPa | 2.6V | 02:57:00 | 02:20:56 | 00:00:00 | |
| DM7RM-13 | 2026-08-31 18:50:04 | 49.56082 | 9.17342 | 108° | 88km/h | 6531m | -8.4m/s | -23.8°C | 29.8% | 449.6hPa | 2.5V | 02:58:00 | 00:00:00 | 00:00:00 | |
| DB0ND-19 | 2026-08-31 18:50:03 | 49.56096 | 9.17276 | 108° | 88km/h | 6549m | -11.5m/s | -24.0°C | 40.3% | 448.6hPa | 2.5V | 00:00:00 | 00:00:00 | 00:00:00 | |
| SFWM-10 | 2026-08-31 18:50:02 | 49.56096 | 9.17276 | 109° | 88km/h | 6549m | -11.5m/s | -24.0°C | 40.3% | 448.6hPa | 2.5V | 02:58:00 | 00:00:00 | 00:00:00 | |
| DL1NUX | 2026-08-31 18:50:01 | 49.56147 | 9.17037 | 107° | 93km/h | 6634m | -13.1m/s | -24.1°C | 72.6% | 443.5hPa | 2.5V | 02:57:44 | 02:20:46 | 00:00:00 | |
| BIOWL1-15 | 2026-08-31 18:49:54 | 49.56162 | 9.16967 | 108° | 97km/h | 6659m | -12.3m/s | -24.3°C | 74.6% | 441.9hPa | 2.6V | 02:58:15 | 02:20:44 | 00:00:00 | |
| DK5PH-5 | 2026-08-31 18:49:52 | 49.56177 | 9.16895 | 107° | 95km/h | 6684m | -12.6m/s | -24.6°C | 69.0% | 440.6hPa | 2.5V | 00:00:00 | 02:20:42 | 00:00:00 | |
| DL1NUX | 2026-08-31 18:49:51 | 49.56223 | 9.16686 | 108° | 95km/h | 6757m | -12.2m/s | -25.2°C | 73.7% | 436.1hPa | 2.5V | 02:57:54 | 02:20:36 | 00:00:00 | |
| BIOWL1-15 | 2026-08-31 18:49:44 | 49.56238 | 9.16615 | 109° | 95km/h | 6780m | -12.4m/s | -25.3°C | 77% | 434.6hPa | 2.6V | 02:58:15 | 02:20:34 | 00:00:00 | |
| BIOWL1-15 | 2026-08-31 18:49:35 | 49.56324 | 9.16220 | 107° | 95km/h | 6912m | -10.5m/s | -26.7°C | 74.3% | 426.9hPa | 2.6V | 02:58:15 | 02:20:23 | 00:00:00 | |
| DB0ND-19 | 2026-08-31 18:49:32 | 49.56331 | 9.16185 | 106° | 95km/h | 6922m | -10.4m/s | -26.7°C | 74.2% | 426.3hPa | 2.6V | 00:00:00 | 00:00:00 | 00:00:00 | |
| DO3MHA-11 | 2026-08-31 18:49:30 | 49.56344 | 9.16114 | 106° | 89km/h | 6944m | -11.1m/s | -26.5°C | 80.2% | 425.1hPa | 2.6V | 00:00:00 | 02:20:20 | 00:00:00 | |
| DF2AP-13 | 2026-08-31 18:49:29 | 49.56350 | 9.16080 | 107° | 86km/h | 6955m | -11.4m/s | -26.5°C | 79.7% | 424.5hPa | 2.6V | 00:00:00 | 02:20:19 | 00:00:00 | |
| DF7PN | 2026-08-31 18:49:27 | 49.56362 | 9.16012 | 104° | 88km/h | 6976m | -10.9m/s | -26.6°C | 75.8% | 423.1hPa | 2.6V | 00:00:00 | 00:00:00 | 00:00:00 | |
| SO1NDE-10 | 2026-08-31 18:49:26 | 49.56367 | 9.15978 | 104° | 86km/h | 6985m | -6.5m/s | -26.4°C | 80.2% | 422.4hPa | 2.6V | 00:00:00 | 02:20:16 | 00:00:00 | |
| DL1ZP-14 | 2026-08-31 18:49:25 | 49.56378 | 9.15913 | 104° | 86km/h | 7001m | -10.1m/s | -26.5°C | 76.0% | 421.6hPa | 2.6V | 00:00:00 | 00:00:00 | 00:00:00 | |
| DM7RM-13 | 2026-08-31 18:49:23 | 49.56378 | 9.15912 | 106° | 88km/h | 7001m | -10.1m/s | -26.5°C | 76.1% | 421.5hPa | 2.5V | 02:59:00 | 00:00:00 | 00:00:00 | |
| DK5PH-5 | 2026-08-31 18:49:22 | 49.56389 | 9.15848 | 106° | 86km/h | 7015m | -7.5m/s | -26.5°C | 80.2% | 420.6hPa | 2.5V | 00:00:00 | 02:20:12 | 00:00:00 | |
| DL1NUX | 2026-08-31 18:49:21 | 49.56421 | 9.15647 | 102° | 88km/h | 7060m | -7m/s | -26.8°C | 80.2% | 418.1hPa | 2.5V | 02:58:24 | 02:20:06 | 00:00:00 | |
| BIOWL1-15 | 2026-08-31 18:49:21 | 49.56395 | 9.15815 | 106° | 89km/h | 7023m | -8.3m/s | -26.6°C | 78.8% | 420.3hPa | 2.5V | 02:59:06 | 02:20:11 | 00:00:00 | |
| BIOWL1-15 | 2026-08-31 18:49:15 | 49.56444 | 9.15480 | 103° | 86km/h | 7093m | -8.5m/s | -27.1°C | 80.4% | 416.1hPa | 2.6V | 02:59:06 | 02:20:01 | 00:00:00 | |
| DK7TD | 2026-08-31 18:49:12 | 49.56439 | 9.15513 | 103° | 86km/h | 7085m | -8m/s | -27.1°C | 80.8% | 416.5hPa | 2.6V | 02:59:57 | 02:20:02 | 00:00:00 | |
| DL1NUX | 2026-08-31 18:49:11 | 49.56467 | 9.15321 | 102° | 82km/h | 7123m | -6.1m/s | -27.3°C | 79.6% | 414.3hPa | 2.6V | 02:58:34 | 02:19:56 | 00:00:00 | |
| DO3MHA-11 | 2026-08-31 18:49:10 | 49.56449 | 9.15448 | 104° | 82km/h | 7100m | -5.8m/s | -27.1°C | 79.7% | 415.7hPa | 2.6V | 00:00:00 | 02:20:00 | 00:00:00 | |
| DF3TZ-5 | 2026-08-31 18:49:07 | 49.56463 | 9.15352 | 101° | 82km/h | 7117m | -6.7m/s | -27.3°C | 74.8% | 414.7hPa | 2.6V | 00:00:00 | 00:00:00 | 00:00:00 | |
| DF1GD-15 | 2026-08-31 18:49:04 | 49.56471 | 9.15290 | 101° | 82km/h | 7129m | -5.4m/s | -27.4°C | 75.8% | 414.0hPa | 2.6V | 02:59:00 | 00:00:00 | 00:00:00 | |
| DM7RM-13 | 2026-08-31 18:49:03 | 49.56475 | 9.15258 | 101° | 82km/h | 7134m | -4.8m/s | -27.4°C | 75.9% | 413.6hPa | 2.6V | 02:59:00 | 00:00:00 | 00:00:00 | |
| BIOWL7-15 | 2026-08-31 18:49:02 | 49.56478 | 9.15227 | 102° | 82km/h | 7139m | -5.4m/s | -27.5°C | 76.8% | 413.3hPa | 2.6V | 00:00:00 | 00:00:00 | 00:00:00 | |
| DL1NUX | 2026-08-31 18:49:01 | 49.56506 | 9.14999 | 102° | 88km/h | 7176m | -5.4m/s | -27.9°C | 82.2% | 411.2hPa | 2.6V | 02:58:44 | 02:19:46 | 00:00:00 | |
| BIOWL1-15 | 2026-08-31 18:49:00 | 49.56489 | 9.15131 | 100° | 84km/h | 7153m | -4.5m/s | -27.7°C | 80.5% | 412.5hPa | 2.6V | 02:59:06 | 02:19:50 | 00:00:00 | |
| DF7PN | 2026-08-31 18:48:56 | 49.56511 | 9.14966 | 103° | 88km/h | 7181m | -5.7m/s | -27.9°C | 77.8% | 410.9hPa | 2.5V | 00:00:00 | 00:00:00 | 00:00:00 | |
| BIOWL9-15 | 2026-08-31 18:48:54 | 49.56516 | 9.14933 | 102° | 88km/h | 7186m | -5.3m/s | -27.9°C | 77.7% | 410.6hPa | 2.5V | 00:00:00 | 00:00:00 | 00:00:00 | |
| DL1ZP-14 | 2026-08-31 18:48:53 | 49.56521 | 9.14900 | 103° | 86km/h | 7191m | -5.9m/s | -27.9°C | 77.2% | 410.2hPa | 2.5V | 00:00:00 | 00:00:00 | 00:00:00 | |
| DK5PH-5 | 2026-08-31 18:48:52 | 49.56526 | 9.14867 | 105° | 84km/h | 7196m | -4.3m/s | -27.9°C | 82.0% | 409.9hPa | 2.5V | 02:58:00 | 02:19:42 | 00:00:00 | |
| DL1NUX | 2026-08-31 18:48:51 | 49.56560 | 9.14675 | 105° | 86km/h | 7232m | -6.4m/s | -28.2°C | 82.5% | 408.1hPa | 2.5V | 02:58:54 | 02:19:36 | 00:00:00 | |
| BIOWL1-15 | 2026-08-31 18:48:49 | 49.56543 | 9.14770 | 105° | 86km/h | 7213m | -4.6m/s | -28.1°C | 80.4% | 408.9hPa | 2.6V | 02:59:06 | 02:19:39 | 00:00:00 | |
| DK7TD | 2026-08-31 18:48:43 | 49.56575 | 9.14580 | 103° | 82km/h | 7250m | -6.9m/s | -28.3°C | 82% | 0hPa | 2.6V | 02:59:57 | 02:19:33 | 00:00:00 | |
| DL1NUX | 2026-08-31 18:48:41 | 49.56604 | 9.14359 | 101° | 88km/h | 7295m | -7.3m/s | -28.8°C | 79.8% | 404.6hPa | 2.5V | 02:59:04 | 02:19:26 | 00:00:00 | |
| BIOWL1-15 | 2026-08-31 18:48:38 | 49.56595 | 9.14424 | 100° | 84km/h | 7282m | -6m/s | -28.7°C | 81.2% | 405.3hPa | 2.6V | 02:59:06 | 02:19:28 | 00:00:00 | |
| BIOWL7-15 | 2026-08-31 18:48:37 | 49.56599 | 9.14392 | 102° | 86km/h | 7289m | -6.8m/s | -28.7°C | 75.3% | 404.9hPa | 2.5V | 00:00:00 | 00:00:00 | 00:00:00 | |
| DL0LBS | 2026-08-31 18:48:36 | 49.56599 | 9.14392 | 102° | 86km/h | 7289m | -6.8m/s | -28.7°C | 75.3% | 404.9hPa | 2.5V | 02:59:00 | 00:00:00 | 00:00:00 | |
| DL1NUX | 2026-08-31 18:48:31 | 49.56650 | 9.14036 | 101° | 82km/h | 7356m | -4m/s | -29.3°C | 83.8% | 401.1hPa | 2.5V | 02:59:14 | 02:19:16 | 00:00:00 | |
| BIOWL1-15 | 2026-08-31 18:48:29 | 49.56645 | 9.14067 | 102° | 84km/h | 7350m | -8.1m/s | -29.2°C | 81.2% | 401.6hPa | 2.5V | 02:59:57 | 02:19:17 | 00:00:00 | |
| DB0NH | 2026-08-31 18:48:29 | 49.56637 | 9.14130 | 104° | 80km/h | 7338m | -5.9m/s | -29.1°C | 82.5% | 402.1hPa | 2.6V | 02:59:00 | 02:19:19 | 00:00:00 | |
| DO3MHA-11 | 2026-08-31 18:48:27 | 49.56645 | 9.14067 | 102° | 80km/h | 7350m | -8.1m/s | -29.2°C | 82.6% | 401.5hPa | 2.5V | 00:00:00 | 02:19:17 | 00:00:00 | |
| SO1NDE-10 | 2026-08-31 18:48:26 | 49.56650 | 9.14036 | 102° | 80km/h | 7356m | -3.9m/s | -29.2°C | 83.8% | 401.0hPa | 2.5V | 02:59:00 | 02:19:16 | 00:00:00 | |
| DB0UT-9 | 2026-08-31 18:48:24 | 49.56654 | 9.14004 | 103° | 82km/h | 7362m | -6.9m/s | -29.3°C | 78.2% | 400.9hPa | 2.5V | 02:59:00 | 00:00:00 | 00:00:00 | |
| BIOWL9-15 | 2026-08-31 18:48:23 | 49.56663 | 9.13943 | 103° | 80km/h | 7374m | -5.5m/s | -29.4°C | -1.0% | -1.0hPa | 2.5V | 00:00:00 | 00:00:00 | 00:00:00 | |
| DK5PH-5 | 2026-08-31 18:48:22 | 49.56668 | 9.13912 | 103° | 80km/h | 7380m | -5.6m/s | -29.4°C | 83.5% | 399.8hPa | 2.5V | 00:00:00 | 02:19:12 | 00:00:00 | |
| DL1NUX | 2026-08-31 18:48:21 | 49.56694 | 9.13731 | 102° | 82km/h | 7408m | -5.2m/s | -29.7°C | 83.9% | 398.3hPa | 2.5V | 02:59:24 | 02:19:06 | 00:00:00 | |
| BIOWL1-15 | 2026-08-31 18:48:16 | 49.56694 | 9.13731 | 102° | 82km/h | 7409m | -5.3m/s | -29.7°C | 83.2% | 398.3hPa | 2.5V | 02:59:57 | 02:19:06 | 00:00:00 | |
| DL0LBS | 2026-08-31 18:48:15 | 49.56694 | 9.13730 | 103° | 82km/h | 7409m | -5.3m/s | -29.7°C | 78.7% | 398.3hPa | 2.6V | 02:59:00 | 00:00:00 | 00:00:00 | |
| NBG1-10 | 2026-08-31 18:48:12 | 49.56710 | 9.13606 | 103° | 80km/h | 7431m | -5.8m/s | -29.8°C | 83.5% | 397.1hPa | 2.6V | 00:00:00 | 02:19:02 | 00:00:00 | |
| DL1NUX | 2026-08-31 18:48:11 | 49.56741 | 9.13424 | 103° | 80km/h | 7459m | -4.5m/s | -30°C | 83.4% | 395.5hPa | 2.6V | 02:59:34 | 02:18:56 | 00:00:00 | |
| BIOWL1-15 | 2026-08-31 18:48:07 | 49.56745 | 9.13393 | 104° | 80km/h | 7464m | -4.8m/s | -30.1°C | 81.1% | 395.2hPa | 2.5V | 02:59:57 | 02:18:55 | 00:00:00 | |
| DK7TD | 2026-08-31 18:48:04 | 49.56750 | 9.13363 | 101° | 80km/h | 7469m | -4.5m/s | -30.1°C | 81.3% | 0hPa | 2.5V | 02:59:57 | 02:18:54 | 00:00:00 | |
| DB0UT-9 | 2026-08-31 18:48:03 | 49.56750 | 9.13363 | 102° | 80km/h | 7469m | -4.5m/s | -30.1°C | 79.0% | 395.0hPa | 2.6V | 02:59:00 | 00:00:00 | 00:00:00 | |
| DF1GD-15 | 2026-08-31 18:48:02 | 49.56753 | 9.13333 | 102° | 78km/h | 7473m | -4.8m/s | -30.2°C | 79.1% | 394.7hPa | 2.6V | 02:59:00 | 00:00:00 | 00:00:00 | |
| DL1NUX | 2026-08-31 18:48:01 | 49.56782 | 9.13121 | 104° | 77km/h | 7506m | -5.7m/s | -30.3°C | 82.9% | 392.9hPa | 2.6V | 02:59:44 | 02:18:46 | 00:00:00 | |
| DB0NH | 2026-08-31 18:47:59 | 49.56768 | 9.13211 | 102° | 84km/h | 7490m | -4.7m/s | -30.3°C | 84.5% | 393.7hPa | 2.5V | 00:00:00 | 02:18:49 | 00:00:00 | |
| DF2AP-13 | 2026-08-31 18:47:58 | 49.56772 | 9.13181 | 103° | 84km/h | 7495m | -4.9m/s | -30.3°C | 83.9% | 393.4hPa | 2.5V | 00:00:00 | 02:18:48 | 00:00:00 | |
| DO3MHA-11 | 2026-08-31 18:47:57 | 49.56777 | 9.13151 | 105° | 80km/h | 7501m | -6.1m/s | -30.3°C | 83.2% | 393.2hPa | 2.5V | 00:00:00 | 02:18:47 | 00:00:00 | |
| DH7VM-15 | 2026-08-31 18:47:55 | 49.56786 | 9.13092 | 104° | 77km/h | 7512m | -5.4m/s | -30.4°C | 77.8% | 392.6hPa | 2.5V | 00:00:00 | 00:00:00 | 00:00:00 | |
| DM0DOS-11 | 2026-08-31 18:47:54 | 49.56818 | 9.12914 | 105° | 84km/h | 7542m | -4.8m/s | -30.7°C | 85.8% | 390.9hPa | 2.5V | 02:59:51 | 02:18:39 | 00:00:00 | |
| BIOWL1-15 | 2026-08-31 18:47:54 | 49.56791 | 9.13063 | 106° | 77km/h | 7517m | -5.5m/s | -30.4°C | 82% | 392.3hPa | 2.5V | 02:59:57 | 02:18:44 | 00:00:00 | |
| DF7PN | 2026-08-31 18:47:54 | 49.56796 | 9.13034 | 105° | 77km/h | 7523m | -5.2m/s | -30.4°C | 78.4% | 392.0hPa | 2.6V | 00:00:00 | 00:00:00 | 00:00:00 | |
| DK5PH-5 | 2026-08-31 18:47:52 | 49.56802 | 9.13004 | 106° | 86km/h | 7528m | -5.1m/s | -30.5°C | 84.0% | 391.7hPa | 2.6V | 00:00:00 | 02:18:42 | 00:00:00 | |
| DL1NUX | 2026-08-31 18:47:51 | 49.56835 | 9.12818 | 105° | 86km/h | 7555m | -4m/s | -30.8°C | 84.8% | 390.2hPa | 2.6V | 02:59:54 | 02:18:36 | 00:00:00 | |
| DB0UT-7 | 2026-08-31 18:47:50 | 49.56812 | 9.12945 | 106° | 86km/h | 7538m | -4.8m/s | -30.6°C | 85.6% | 391.1hPa | 2.5V | 00:00:00 | 00:00:00 | 00:00:00 | |
| BIOWL7-15 | 2026-08-31 18:47:49 | 49.56813 | 9.12945 | 106° | 82km/h | 7538m | -4.9m/s | -30.7°C | 80.2% | 391.2hPa | 2.5V | 02:59:00 | 00:00:00 | 00:00:00 | |
| DO3MHA-11 | 2026-08-31 18:47:47 | 49.56829 | 9.12850 | 106° | 86km/h | 7551m | -4.0m/s | -30.7°C | 85.5% | 390.3hPa | 2.5V | 02:59:00 | 02:18:37 | 00:00:00 | |
| DM0DOS-11 | 2026-08-31 18:47:44 | 49.56880 | 9.12598 | 109° | 84km/h | 7581m | -3.6m/s | -30.9°C | 81.2% | 388.7hPa | 2.6V | 03:00:01 | 02:18:29 | 00:00:00 | |
| DK7TD | 2026-08-31 18:47:44 | 49.56847 | 9.12754 | 108° | 86km/h | 7563m | -4.3m/s | 0°C | 0% | 0hPa | 2.6V | 02:59:57 | 02:18:34 | 00:00:00 | |
| DB0UT-9 | 2026-08-31 18:47:43 | 49.56847 | 9.12754 | 109° | 86km/h | 7563m | -4.3m/s | -30.9°C | 78.8% | 389.8hPa | 2.5V | 02:59:00 | 00:00:00 | 00:00:00 | |
| DL1NUX | 2026-08-31 18:47:41 | 49.56900 | 9.12504 | 108° | 86km/h | 7592m | -4.1m/s | 0°C | 0% | 0hPa | 2.5V | 03:00:04 | 02:18:26 | 00:00:00 | |
| NBG1-10 | 2026-08-31 18:47:39 | 49.56880 | 9.12598 | 110° | 88km/h | 7581m | -3.5m/s | -30.8°C | 81.2% | 388.7hPa | 2.5V | 00:00:00 | 02:18:29 | 00:00:00 | |
| DO3MHA-11 | 2026-08-31 18:47:37 | 49.56894 | 9.12535 | 108° | 89km/h | 7589m | -4.0m/s | -30.8°C | 78.1% | 388.3hPa | 2.5V | 03:00:00 | 02:18:27 | 00:00:00 | |
| SFWM-10 | 2026-08-31 18:47:36 | 49.56894 | 9.12535 | 109° | 86km/h | 7589m | -4.0m/s | -30.9°C | 73.0% | 388.3hPa | 2.5V | 03:00:00 | 00:00:00 | 00:00:00 | |
| DM0DOS-11 | 2026-08-31 18:47:34 | 49.56950 | 9.12271 | 107° | 88km/h | 7618m | -3.9m/s | -30.8°C | 41.6% | 386.6hPa | 2.5V | 03:00:11 | 02:18:19 | 00:00:00 | |
| DK7TD | 2026-08-31 18:47:33 | 49.56922 | 9.12405 | 109° | 91km/h | 7604m | -3.5m/s | 0°C | 0% | 0hPa | 2.6V | 18:12:15 | 02:18:23 | 00:00:00 | |
| DF2AP-13 | 2026-08-31 18:47:28 | 49.56956 | 9.12238 | 108° | 88km/h | 7622m | -3.9m/s | -30.8°C | 42.6% | 386.4hPa | 2.5V | 00:00:00 | 02:18:18 | 00:00:00 | |
| DO3MHA-11 | 2026-08-31 18:47:27 | 49.56962 | 9.12206 | 108° | 88km/h | 7625m | -3.6m/s | -30.8°C | 39.7% | 386.2hPa | 2.5V | 00:00:00 | 02:18:17 | 00:00:00 | |
| SO1NDE-10 | 2026-08-31 18:47:26 | 49.56969 | 9.12174 | 107° | 88km/h | 7629m | -3.5m/s | -30.8°C | 38.7% | 386.0hPa | 2.5V | 00:00:00 | 02:18:16 | 00:00:00 | |
| DM0DOS-11 | 2026-08-31 18:47:24 | 49.57010 | 9.11946 | 107° | 88km/h | 7654m | -4.1m/s | -31.2°C | 46.6% | 384.7hPa | 2.5V | 03:00:21 | 02:18:09 | 00:00:00 | |
| BIOWL1-15 | 2026-08-31 18:47:22 | 49.56992 | 9.12044 | 105° | 88km/h | 7641m | -3.6m/s | -31°C | 45.7% | 385.4hPa | 2.6V | 03:00:48 | 02:18:12 | 00:00:00 | |
| DK5PH-5 | 2026-08-31 18:47:22 | 49.56992 | 9.12044 | 105° | 89km/h | 7641m | -3.5m/s | -31.0°C | 44.1% | 385.3hPa | 2.6V | 00:00:00 | 02:18:12 | 00:00:00 | |
| DB0UT-7 | 2026-08-31 18:47:20 | 49.57004 | 9.11978 | 107° | 89km/h | 7650m | -5.2m/s | -31.1°C | 45.2% | 384.9hPa | 2.5V | 03:00:00 | 02:18:10 | 00:00:00 | |
| DO3MHA-11 | 2026-08-31 18:47:17 | 49.57024 | 9.11881 | 109° | 89km/h | 7662m | -3.9m/s | -31.2°C | 40.4% | 384.3hPa | 2.6V | 00:00:00 | 02:18:07 | 00:00:00 | |
| SFWM-10 | 2026-08-31 18:47:15 | 49.57031 | 9.11849 | 111° | 89km/h | 7666m | -4.5m/s | -31.2°C | 32.3% | 384.1hPa | 2.6V | 03:00:00 | 00:00:00 | 00:00:00 | |
| DM0DOS-11 | 2026-08-31 18:47:13 | 49.57087 | 9.11585 | 107° | 88km/h | 7705m | -5.1m/s | -31.7°C | 55.7% | 382hPa | 2.6V | 03:00:32 | 02:17:58 | 00:00:00 | |
| BIOWL1-15 | 2026-08-31 18:47:11 | 49.57066 | 9.11685 | 107° | 89km/h | 7689m | -5.2m/s | -31.4°C | 46.1% | 382.8hPa | 2.5V | 03:00:48 | 02:18:01 | 00:00:00 | |
| DO3MHA-11 | 2026-08-31 18:47:07 | 49.57094 | 9.11553 | 110° | 88km/h | 7710m | -5.4m/s | -31.7°C | 57.3% | 381.7hPa | 2.5V | 00:00:00 | 02:17:57 | 00:00:00 | |
| NBG1-10 | 2026-08-31 18:47:06 | 49.57101 | 9.11521 | 110° | 91km/h | 7716m | -5.4m/s | -31.8°C | 53.2% | 381.5hPa | 2.5V | 00:00:00 | 02:17:56 | 00:00:00 | |
| DM0DOS-11 | 2026-08-31 18:47:03 | 49.57160 | 9.11265 | 106° | 89km/h | 7755m | -4.8m/s | -32.1°C | 47.9% | 379.2hPa | 2.5V | 03:00:42 | 02:17:48 | 00:00:00 | |
| BIOWL1-15 | 2026-08-31 18:47:01 | 49.57140 | 9.11363 | 110° | 88km/h | 7741m | -5.5m/s | -31.9°C | 41.1% | 380.1hPa | 2.6V | 03:00:48 | 02:17:51 | 00:00:00 | |
| DL1NUX | 2026-08-31 18:47:01 | 49.57173 | 9.11196 | 105° | 93km/h | 7764m | -4.4m/s | -32.1°C | 44.1% | 378.8hPa | 2.6V | 03:00:44 | 02:17:46 | 00:00:00 | |
| DB0UT-9 | 2026-08-31 18:47:00 | 49.57140 | 9.11362 | 111° | 88km/h | 7741m | -5.5m/s | -31.9°C | 35.4% | 380.1hPa | 2.5V | 03:00:00 | 00:00:00 | 00:00:00 | |
| DM7RM-13 | 2026-08-31 18:46:59 | 49.57147 | 9.11330 | 110° | 88km/h | 7746m | -4.8m/s | -32.0°C | 36.6% | 379.8hPa | 2.5V | 03:00:00 | 00:00:00 | 00:00:00 | |
| DF2AP-13 | 2026-08-31 18:46:58 | 49.57160 | 9.11264 | 107° | 95km/h | 7755m | -4.8m/s | -32.0°C | 47.9% | 379.2hPa | 2.5V | 00:00:00 | 02:17:48 | 00:00:00 | |
| DO3MHA-11 | 2026-08-31 18:46:57 | 49.57167 | 9.11230 | 106° | 91km/h | 7760m | -4.3m/s | -32.1°C | 43.9% | 379.0hPa | 2.6V | 03:00:00 | 02:17:47 | 00:00:00 | |
| SO1NDE-10 | 2026-08-31 18:46:56 | 49.57173 | 9.11196 | 106° | 95km/h | 7764m | -4.4m/s | -32.1°C | 44.1% | 378.8hPa | 2.6V | 00:00:00 | 02:17:46 | 00:00:00 | |
| BIOWL7-15 | 2026-08-31 18:46:54 | 49.57179 | 9.11161 | 106° | 93km/h | 7769m | -5.8m/s | -32.2°C | 40.4% | 378.6hPa | 2.5V | 00:00:00 | 00:00:00 | 00:00:00 | |
| DM0DOS-11 | 2026-08-31 18:46:53 | 49.57222 | 9.10919 | 106° | 91km/h | 7816m | -6.6m/s | -32.6°C | 46.4% | 376.2hPa | 2.5V | 03:00:52 | 02:17:38 | 00:00:00 | |
| DF7PN | 2026-08-31 18:46:52 | 49.57203 | 9.11023 | 105° | 91km/h | 7796m | -5.8m/s | -32.4°C | 44.5% | 377.1hPa | 2.5V | 00:00:00 | 00:00:00 | 00:00:00 | |
| DL1NUX | 2026-08-31 18:46:51 | 49.57235 | 9.10850 | 105° | 93km/h | 7831m | -7.7m/s | -32.7°C | 46.6% | 375.5hPa | 2.5V | 03:00:54 | 02:17:36 | 00:00:00 | |
| BIOWL1-15 | 2026-08-31 18:46:51 | 49.57203 | 9.11023 | 106° | 93km/h | 7796m | -5.8m/s | -32.4°C | 49.5% | 377.1hPa | 2.6V | 03:01:39 | 02:17:41 | 00:00:00 | |
| DL1ZP-14 | 2026-08-31 18:46:49 | 49.57215 | 9.10954 | 105° | 89km/h | 7809m | -7.6m/s | -32.5°C | 43.9% | 376.6hPa | 2.5V | 00:00:00 | 00:00:00 | 00:00:00 | |
| DO3MHA-11 | 2026-08-31 18:46:47 | 49.57228 | 9.10885 | 106° | 93km/h | 7823m | -8.0m/s | -32.6°C | 45.7% | 375.8hPa | 2.5V | 00:00:00 | 02:17:37 | 00:00:00 | |
| DJTTGO | 2026-08-31 18:46:46 | 49.57228 | 9.10885 | 107° | 93km/h | 7823m | -8.0m/s | -32.7°C | 42.0% | 375.8hPa | 2.6V | 00:00:00 | 00:00:00 | 00:00:00 | |
| DM0DOS-11 | 2026-08-31 18:46:43 | 49.57283 | 9.10566 | 105° | 93km/h | 7884m | -7.4m/s | -33.3°C | 49.3% | 372.5hPa | 2.6V | 03:01:02 | 02:17:28 | 00:00:00 | |
| DL1NUX | 2026-08-31 18:46:41 | 49.57296 | 9.10496 | 107° | 95km/h | 7898m | -6.2m/s | -33.4°C | 50.5% | 371.7hPa | 2.5V | 03:01:04 | 02:17:26 | 00:00:00 | |
| BIOWL1-15 | 2026-08-31 18:46:40 | 49.57271 | 9.10638 | 104° | 95km/h | 7871m | -6.6m/s | -33.1°C | 49.6% | 373.3hPa | 2.5V | 03:01:39 | 02:17:30 | 00:00:00 | |
| DM7RM-13 | 2026-08-31 18:46:38 | 49.57277 | 9.10602 | 105° | 95km/h | 7877m | -7.0m/s | -33.2°C | 44.8% | 373.0hPa | 2.6V | 03:01:00 | 00:00:00 | 00:00:00 | |
| DO3MHA-11 | 2026-08-31 18:46:37 | 49.57289 | 9.10531 | 107° | 97km/h | 7892m | -7.2m/s | -33.3°C | 49.2% | 372.1hPa | 2.6V | 00:00:00 | 02:17:27 | 00:00:00 | |
| NBG1-10 | 2026-08-31 18:46:33 | 49.57319 | 9.10388 | 108° | 95km/h | 7920m | -7.3m/s | -33.6°C | 54.8% | 370.6hPa | 2.6V | 00:00:00 | 02:17:23 | 00:00:00 | |
| DM0DOS-11 | 2026-08-31 18:46:32 | 49.57360 | 9.10169 | 105° | 99km/h | 7958m | -6m/s | -34°C | 69.8% | 368.6hPa | 2.6V | 03:01:13 | 02:17:17 | 00:00:00 | |
| DL1NUX | 2026-08-31 18:46:31 | 49.57367 | 9.10132 | 106° | 99km/h | 7964m | -6.8m/s | -34.1°C | 79.2% | 368.3hPa | 2.5V | 03:01:14 | 02:17:16 | 00:00:00 | |
| DL0LBS | 2026-08-31 18:46:30 | 49.57333 | 9.10316 | 107° | 97km/h | 7933m | -6.0m/s | -33.8°C | 51.3% | 370.0hPa | 2.5V | 03:01:00 | 00:00:00 | 00:00:00 | |
| DF2AP-13 | 2026-08-31 18:46:28 | 49.57353 | 9.10206 | 106° | 95km/h | 7951m | -7.4m/s | -33.8°C | 62.6% | 368.9hPa | 2.5V | 00:00:00 | 02:17:18 | 00:00:00 | |
| DO3MHA-11 | 2026-08-31 18:46:27 | 49.57360 | 9.10169 | 106° | 97km/h | 7958m | -5.9m/s | -33.9°C | 69.8% | 368.5hPa | 2.5V | 00:00:00 | 02:17:17 | 00:00:00 | |
| SO1NDE-10 | 2026-08-31 18:46:26 | 49.57367 | 9.10132 | 107° | 95km/h | 7964m | -6.8m/s | -34.1°C | 79.2% | 368.2hPa | 2.5V | 00:00:00 | 02:17:16 | 00:00:00 | |
| DN1GJH-1 | 2026-08-31 18:46:25 | 49.57367 | 9.10132 | 107° | 99km/h | 7964m | -6.8m/s | -34.2°C | 73.5% | 368.3hPa | 2.5V | 00:00:00 | 00:00:00 | 00:00:00 | |
| DM0DOS-11 | 2026-08-31 18:46:22 | 49.57439 | 9.09811 | 110° | 97km/h | 8024m | -6.3m/s | -34.7°C | 58.7% | 365.1hPa | 2.5V | 03:01:23 | 02:17:07 | 00:00:00 | |
| DK5PH-5 | 2026-08-31 18:46:22 | 49.57396 | 9.09987 | 109° | 95km/h | 7989m | -6.7m/s | -34.3°C | 67.3% | 366.8hPa | 2.5V | 00:00:00 | 02:17:12 | 00:00:00 | |
| DL1NUX | 2026-08-31 18:46:21 | 49.57447 | 9.09777 | 110° | 95km/h | 8030m | -6m/s | -34.7°C | 57.9% | 364.8hPa | 2.5V | 03:01:24 | 02:17:06 | 00:00:00 | |
| BIOWL1-15 | 2026-08-31 18:46:18 | 49.57447 | 9.09777 | 110° | 95km/h | 8030m | -6m/s | -34.7°C | 58.2% | 364.8hPa | 2.5V | 03:01:39 | 02:17:06 | 00:00:00 | |
| DO3MHA-11 | 2026-08-31 18:46:17 | 49.57439 | 9.09811 | 111° | 95km/h | 8024m | -6.2m/s | -34.6°C | 58.7% | 365.1hPa | 2.5V | 03:01:00 | 02:17:07 | 00:00:00 | |
| SFWM-10 | 2026-08-31 18:46:13 | 49.57463 | 9.09708 | 111° | 93km/h | 8042m | -6.5m/s | -34.8°C | 47.7% | 364.1hPa | 2.6V | 00:00:00 | 00:00:00 | 00:00:00 | |
| DM0DOS-11 | 2026-08-31 18:46:12 | 49.57522 | 9.09469 | 112° | 95km/h | 8083m | -6.1m/s | -35°C | 69.2% | 362hPa | 2.6V | 03:01:33 | 02:16:57 | 00:00:00 | |
| DL1NUX | 2026-08-31 18:46:11 | 49.57531 | 9.09435 | 112° | 95km/h | 8089m | -6m/s | -35°C | 70.3% | 361.6hPa | 2.6V | 03:01:34 | 02:16:56 | 00:00:00 | |
| BIOWL1-15 | 2026-08-31 18:46:07 | 49.57541 | 9.09401 | 113° | 95km/h | 8095m | -6.4m/s | -35°C | 71.5% | 361.3hPa | 2.5V | 03:01:39 | 02:16:55 | 00:00:00 | |
| DO3MHA-11 | 2026-08-31 18:46:07 | 49.57522 | 9.09469 | 113° | 93km/h | 8083m | -6.1m/s | -34.9°C | 69.2% | 361.9hPa | 2.5V | 00:00:00 | 02:16:57 | 00:00:00 | |
| BIOWL7-15 | 2026-08-31 18:46:06 | 49.57522 | 9.09469 | 114° | 95km/h | 8083m | -6.1m/s | -35.0°C | 63.9% | 362.0hPa | 2.5V | 03:01:00 | 00:00:00 | 00:00:00 | |
| DN1GJH-1 | 2026-08-31 18:46:04 | 49.57541 | 9.09401 | 114° | 95km/h | 8095m | -6.4m/s | -35.0°C | 65.9% | 361.3hPa | 2.5V | 00:00:00 | 00:00:00 | 00:00:00 | |
| DM0DOS-11 | 2026-08-31 18:46:02 | 49.57613 | 9.09134 | 113° | 91km/h | 8146m | -6.5m/s | -35.6°C | 64.3% | 358.6hPa | 2.5V | 03:01:43 | 02:16:47 | 00:00:00 | |
| DL1NUX | 2026-08-31 18:46:01 | 49.57623 | 9.09101 | 113° | 93km/h | 8152m | -6m/s | -35.6°C | 62.5% | 358.3hPa | 2.5V | 03:01:44 | 02:16:46 | 00:00:00 | |
| BIOWL1-15 | 2026-08-31 18:46:01 | 49.57632 | 9.09068 | 114° | 93km/h | 8158m | -5.8m/s | -35.7°C | 60.4% | 357.9hPa | 2.5V | 03:02:30 | 02:16:45 | 00:00:00 | |
| DB0ND-19 | 2026-08-31 18:45:55 | 49.57632 | 9.09068 | 113° | 93km/h | 8158m | -5.8m/s | -35.7°C | 55.0% | 357.9hPa | 2.6V | 00:00:00 | 00:00:00 | 00:00:00 | |
| SFWM-10 | 2026-08-31 18:45:54 | 49.57641 | 9.09035 | 114° | 93km/h | 8164m | -6.0m/s | -35.7°C | 52.0% | 357.7hPa | 2.6V | 03:02:00 | 00:00:00 | 00:00:00 | |
| DM0DOS-11 | 2026-08-31 18:45:52 | 49.57704 | 9.08797 | 110° | 95km/h | 8203m | -5.6m/s | -35.8°C | 17.7% | 355.6hPa | 2.6V | 03:01:53 | 02:16:37 | 00:00:00 | |
| DK5PH-5 | 2026-08-31 18:45:52 | 49.57659 | 9.08968 | 113° | 97km/h | 8176m | -5.8m/s | -35.8°C | 48.6% | 357.0hPa | 2.6V | 03:01:00 | 02:16:42 | 00:00:00 | |
| DL1NUX | 2026-08-31 18:45:51 | 49.57713 | 9.08762 | 111° | 95km/h | 8209m | -5.5m/s | -35.9°C | 19.6% | 355.3hPa | 2.6V | 03:01:54 | 02:16:36 | 00:00:00 | |
| DF7PN | 2026-08-31 18:45:49 | 49.57686 | 9.08866 | 111° | 95km/h | 8192m | -5.5m/s | -35.8°C | 19.6% | 356.2hPa | 2.6V | 00:00:00 | 00:00:00 | 00:00:00 | |
| BIOWL9-15 | 2026-08-31 18:45:48 | 49.57704 | 9.08797 | 110° | 95km/h | 8203m | -5.6m/s | -35.8°C | 15.4% | 355.6hPa | 2.6V | 00:00:00 | 00:00:00 | 00:00:00 | |
| DL1ZP-14 | 2026-08-31 18:45:47 | 49.57704 | 9.08797 | 110° | 95km/h | 8203m | -5.6m/s | -35.8°C | 15.4% | 355.6hPa | 2.6V | 00:00:00 | 00:00:00 | 00:00:00 | |
| BIOWL1-15 | 2026-08-31 18:45:44 | 49.57730 | 9.08694 | 112° | 95km/h | 8220m | -6m/s | -36.1°C | 25.8% | 354.8hPa | 2.5V | 03:02:30 | 02:16:34 | 00:00:00 | |
| DM0DOS-11 | 2026-08-31 18:45:42 | 49.57798 | 9.08455 | 113° | 97km/h | 8264m | -6.7m/s | -36.3°C | 13.8% | 352.5hPa | 2.5V | 03:02:03 | 02:16:27 | 00:00:00 | |
| DL1NUX | 2026-08-31 18:45:41 | 49.57807 | 9.08420 | 112° | 97km/h | 8270m | -7m/s | -36.4°C | 14.3% | 352.2hPa | 2.5V | 03:02:04 | 02:16:26 | 00:00:00 | |
| BIOWL1-15 | 2026-08-31 18:45:37 | 49.57826 | 9.08350 | 113° | 97km/h | 8284m | -7m/s | -36.5°C | 17.9% | 351.5hPa | 2.5V | 03:02:30 | 02:16:24 | 00:00:00 | |
| DN1GJH-1 | 2026-08-31 18:45:35 | 49.57807 | 9.08420 | 113° | 97km/h | 8270m | -7.0m/s | -36.4°C | 12.3% | 352.2hPa | 2.6V | 00:00:00 | 00:00:00 | 00:00:00 | |
| KANTATE | 2026-08-31 18:45:33 | 49.57826 | 9.08350 | 114° | 97km/h | 8284m | -7.0m/s | -36.5°C | 13.8% | 351.5hPa | 2.6V | 00:00:00 | 00:00:00 | 00:00:00 | |
| SFWM-10 | 2026-08-31 18:45:32 | 49.57836 | 9.08315 | 114° | 97km/h | 8291m | -7.0m/s | -36.7°C | 14.3% | 351.1hPa | 2.6V | 03:02:00 | 00:00:00 | 00:00:00 | |
| DL1NUX | 2026-08-31 18:45:31 | 49.57903 | 9.08072 | 113° | 95km/h | 8338m | -6.2m/s | -37.1°C | 15.2% | 348.8hPa | 2.6V | 03:02:14 | 02:16:16 | 00:00:00 | |
| BIOWL1-15 | 2026-08-31 18:45:25 | 49.57933 | 9.07969 | 113° | 97km/h | 8357m | -6.7m/s | -37.3°C | 15.5% | 347.9hPa | 2.5V | 03:02:30 | 02:16:13 | 00:00:00 | |
| DB0ND-19 | 2026-08-31 18:45:24 | 49.57923 | 9.08004 | 113° | 95km/h | 8351m | -6.8m/s | -37.3°C | 12.9% | 348.1hPa | 2.5V | 00:00:00 | 00:00:00 | 00:00:00 | |
| DK5PH-5 | 2026-08-31 18:45:22 | 49.57942 | 9.07934 | 114° | 104km/h | 8364m | -6.8m/s | -37.2°C | 13.6% | 347.4hPa | 2.5V | 00:00:00 | 02:16:12 | 00:00:00 | |
| DL1NUX | 2026-08-31 18:45:21 | 49.58003 | 9.07722 | 114° | 100km/h | 8407m | -7.6m/s | -37.6°C | 13.4% | 345.4hPa | 2.5V | 03:02:24 | 02:16:06 | 00:00:00 | |
| DB0UT-7 | 2026-08-31 18:45:20 | 49.57962 | 9.07863 | 113° | 104km/h | 8378m | -7.8m/s | -37.3°C | 13.5% | 346.7hPa | 2.6V | 03:02:00 | 02:16:10 | 00:00:00 | |
| DB0UT-9 | 2026-08-31 18:45:18 | 49.57972 | 9.07828 | 114° | 99km/h | 8386m | -7.4m/s | -37.4°C | 11.5% | 346.4hPa | 2.6V | 03:02:00 | 00:00:00 | 00:00:00 | |
| DO3MHA-11 | 2026-08-31 18:45:17 | 49.57992 | 9.07757 | 115° | 102km/h | 8400m | -7.2m/s | -37.5°C | 13.5% | 345.6hPa | 2.6V | 00:00:00 | 02:16:07 | 00:00:00 | |
| DM7RM-13 | 2026-08-31 18:45:16 | 49.58003 | 9.07721 | 116° | 100km/h | 8408m | -7.6m/s | -37.6°C | 11.4% | 345.4hPa | 2.5V | 03:02:00 | 00:00:00 | 00:00:00 | |
| DN1GJH-1 | 2026-08-31 18:45:15 | 49.58003 | 9.07721 | 116° | 100km/h | 8408m | -7.6m/s | -37.6°C | 11.4% | 345.4hPa | 2.5V | 00:00:00 | 00:00:00 | 00:00:00 | |
| DM0DOS-11 | 2026-08-31 18:45:12 | 49.58102 | 9.07396 | 115° | 102km/h | 8478m | -6.9m/s | -38.1°C | 12% | 341.9hPa | 2.5V | 03:02:33 | 02:15:57 | 00:00:00 | |
| BIOWL1-15 | 2026-08-31 18:45:12 | 49.58046 | 9.07577 | 115° | 102km/h | 8439m | -7.5m/s | -37.8°C | 14% | 343.8hPa | 2.6V | 03:02:30 | 02:16:02 | 00:00:00 | |
| SFWM-10 | 2026-08-31 18:45:11 | 49.58046 | 9.07577 | 116° | 102km/h | 8439m | -7.5m/s | -37.8°C | 10.9% | 343.8hPa | 2.5V | 03:02:00 | 00:00:00 | 00:00:00 | |
| DL0LBS | 2026-08-31 18:45:09 | 49.58068 | 9.07504 | 116° | 104km/h | 8455m | -8.5m/s | -37.9°C | 10.6% | 343.1hPa | 2.5V | 03:02:00 | 00:00:00 | 00:00:00 | |
| DO3MHA-11 | 2026-08-31 18:45:07 | 49.58102 | 9.07396 | 116° | 106km/h | 8478m | -6.9m/s | -38.0°C | 12.0% | 341.9hPa | 2.5V | 00:00:00 | 02:15:57 | 00:00:00 | |
| DM0DOS-11 | 2026-08-31 18:45:02 | 49.58218 | 9.07022 | 114° | 110km/h | 8541m | -5.9m/s | -38.3°C | 10.2% | 338.8hPa | 2.5V | 03:02:43 | 02:15:47 | 00:00:00 | |
| BIOWL1-15 | 2026-08-31 18:45:02 | 49.58159 | 9.07214 | 116° | 106km/h | 8509m | -6m/s | -38.2°C | 11.2% | 340.4hPa | 2.5V | 03:03:21 | 02:15:52 | 00:00:00 | |
| DL1NUX | 2026-08-31 18:45:01 | 49.58229 | 9.06984 | 114° | 108km/h | 8547m | -6.3m/s | -38.3°C | 10.2% | 338.5hPa | 2.5V | 03:02:44 | 02:15:46 | 00:00:00 | |
| DK7TD | 2026-08-31 18:44:57 | 49.58218 | 9.07022 | 114° | 110km/h | 8541m | -5.9m/s | 0°C | 0% | 0hPa | 2.5V | 03:03:21 | 02:15:47 | 00:00:00 | |
| DB0ND-19 | 2026-08-31 18:44:53 | 49.58263 | 9.06870 | 115° | 106km/h | 8565m | -5.7m/s | -38.4°C | 8.4% | 337.7hPa | 2.6V | 00:00:00 | 00:00:00 | 00:00:00 | |
| DM0DOS-11 | 2026-08-31 18:44:52 | 49.58338 | 9.06640 | 116° | 115km/h | 8601m | -5.9m/s | -38.5°C | 10.3% | 335.9hPa | 2.6V | 03:02:53 | 02:15:37 | 00:00:00 | |
| DK5PH-5 | 2026-08-31 18:44:52 | 49.58274 | 9.06832 | 117° | 117km/h | 8571m | -6.2m/s | -38.4°C | 10.3% | 337.4hPa | 2.6V | 00:00:00 | 02:15:42 | 00:00:00 | |
| BIOWL1-15 | 2026-08-31 18:44:52 | 49.58287 | 9.06795 | 117° | 108km/h | 8577m | -5.9m/s | -38.5°C | 10.7% | 337.2hPa | 2.6V | 03:03:21 | 02:15:41 | 00:00:00 | |
| DL1NUX | 2026-08-31 18:44:51 | 49.58350 | 9.06600 | 115° | 115km/h | 8607m | -5.8m/s | -38.5°C | 10.3% | 335.6hPa | 2.6V | 03:02:54 | 02:15:36 | 00:00:00 | |
| DK7TD | 2026-08-31 18:44:46 | 49.58351 | 9.06600 | 116° | 115km/h | 8607m | -5.8m/s | 0°C | 0% | 0hPa | 2.6V | 03:03:21 | 02:15:36 | 00:00:00 | |
| BIOWL9-15 | 2026-08-31 18:44:46 | 49.58363 | 9.06560 | 115° | 113km/h | 8612m | -5.7m/s | -38.6°C | 8.4% | 335.4hPa | 2.5V | 00:00:00 | 00:00:00 | 00:00:00 | |
| DL1ZP-14 | 2026-08-31 18:44:45 | 49.58363 | 9.06560 | 115° | 113km/h | 8612m | -5.7m/s | -38.6°C | 8.4% | 335.4hPa | 2.5V | 00:00:00 | 00:00:00 | 00:00:00 | |
| DM0DOS-11 | 2026-08-31 18:44:42 | 49.58469 | 9.06233 | 117° | 119km/h | 8657m | -4.9m/s | -38.7°C | 9.3% | 333.3hPa | 2.5V | 03:03:03 | 02:15:27 | 00:00:00 | |
| DL1NUX | 2026-08-31 18:44:41 | 49.58483 | 9.06191 | 117° | 119km/h | 8662m | -5.7m/s | -38.7°C | 9.2% | 333hPa | 2.5V | 03:03:04 | 02:15:26 | 00:00:00 | |
| BIOWL1-15 | 2026-08-31 18:44:40 | 49.58427 | 9.06355 | 117° | 117km/h | 8641m | -6.1m/s | -38.7°C | 9.7% | 334hPa | 2.6V | 03:03:21 | 02:15:30 | 00:00:00 | |
| BIOWL7-15 | 2026-08-31 18:44:39 | 49.58427 | 9.06355 | 118° | 117km/h | 8641m | -6.1m/s | -38.7°C | 7.8% | 334.0hPa | 2.6V | 00:00:00 | 00:00:00 | 00:00:00 | |
| DO3MHA-11 | 2026-08-31 18:44:37 | 49.58469 | 9.06232 | 118° | 119km/h | 8657m | -4.8m/s | -38.7°C | 9.3% | 333.2hPa | 2.6V | 00:00:00 | 02:15:27 | 00:00:00 | |
| DF1GD-15 | 2026-08-31 18:44:35 | 49.58483 | 9.06191 | 119° | 119km/h | 8662m | -5.7m/s | -38.7°C | 7.4% | 333.0hPa | 2.6V | 03:03:00 | 00:00:00 | 00:00:00 | |
| DM7RM-13 | 2026-08-31 18:44:33 | 49.58510 | 9.06109 | 118° | 119km/h | 8673m | -6.3m/s | -38.8°C | 7.4% | 332.4hPa | 2.6V | 03:03:00 | 00:00:00 | 00:00:00 | |
| DM0DOS-11 | 2026-08-31 18:44:32 | 49.58606 | 9.05818 | 117° | 122km/h | 8713m | -5.3m/s | -38.9°C | 9.2% | 330.5hPa | 2.6V | 03:03:13 | 02:15:17 | 00:00:00 | |
| DL1NUX | 2026-08-31 18:44:31 | 49.58620 | 9.05776 | 116° | 122km/h | 8718m | -5.2m/s | -39°C | 9.1% | 330.4hPa | 2.5V | 03:03:14 | 02:15:16 | 00:00:00 | |
| BIOWL1-15 | 2026-08-31 18:44:29 | 49.58579 | 9.05903 | 117° | 120km/h | 8702m | -5.1m/s | -38.8°C | 9.2% | 331.1hPa | 2.6V | 03:03:21 | 02:15:19 | 00:00:00 | |
| DF2AP-13 | 2026-08-31 18:44:28 | 49.58592 | 9.05860 | 118° | 124km/h | 8708m | -5.3m/s | -38.8°C | 9.1% | 330.8hPa | 2.6V | 00:00:00 | 02:15:18 | 00:00:00 | |
| DO3MHA-11 | 2026-08-31 18:44:27 | 49.58606 | 9.05818 | 118° | 120km/h | 8713m | -5.3m/s | -38.9°C | 9.2% | 330.5hPa | 2.6V | 00:00:00 | 02:15:17 | 00:00:00 | |
| SO1NDE-10 | 2026-08-31 18:44:26 | 49.58621 | 9.05775 | 117° | 124km/h | 8718m | -5.2m/s | -38.9°C | 9.1% | 330.3hPa | 2.6V | 00:00:00 | 02:15:16 | 00:00:00 | |
| DM0DOS-11 | 2026-08-31 18:44:22 | 49.58755 | 9.05407 | 119° | 120km/h | 8768m | -5m/s | -39.3°C | 9.5% | 328hPa | 2.6V | 03:03:23 | 02:15:07 | 00:00:00 | |
| DK5PH-5 | 2026-08-31 18:44:22 | 49.58680 | 9.05608 | 120° | 126km/h | 8741m | -5.0m/s | -39.0°C | 9.4% | 329.2hPa | 2.6V | 00:00:00 | 02:15:12 | 00:00:00 | |
| DL1NUX | 2026-08-31 18:44:21 | 49.58771 | 9.05367 | 119° | 120km/h | 8773m | -4.5m/s | -39.3°C | 9.4% | 327.7hPa | 2.6V | 03:03:24 | 02:15:06 | 00:00:00 | |
| DK7TD | 2026-08-31 18:44:19 | 49.58725 | 9.05488 | 120° | 119km/h | 8757m | -5.5m/s | 0°C | 0% | 0hPa | 2.5V | 03:03:21 | 02:15:09 | 00:00:00 | |
| BIOWL1-15 | 2026-08-31 18:44:18 | 49.58740 | 9.05448 | 121° | 119km/h | 8763m | -5.2m/s | -39.2°C | 9.4% | 328.3hPa | 2.5V | 03:04:12 | 02:15:08 | 00:00:00 | |
| DO3MHA-11 | 2026-08-31 18:44:17 | 49.58755 | 9.05407 | 120° | 122km/h | 8768m | -4.9m/s | -39.2°C | 9.5% | 328.0hPa | 2.6V | 03:03:00 | 02:15:07 | 00:00:00 | |
| DF7PN | 2026-08-31 18:44:16 | 49.58771 | 9.05367 | 119° | 119km/h | 8773m | -4.5m/s | -39.3°C | 7.5% | 327.7hPa | 2.5V | 00:00:00 | 00:00:00 | 00:00:00 | |
| BIOWL9-15 | 2026-08-31 18:44:15 | 49.58801 | 9.05284 | 118° | 120km/h | 8784m | -5.5m/s | -39.4°C | 7.5% | 327.2hPa | 2.5V | 00:00:00 | 00:00:00 | 00:00:00 | |
| DL1ZP-14 | 2026-08-31 18:44:14 | 49.58801 | 9.05284 | 118° | 120km/h | 8784m | -5.5m/s | -39.4°C | 7.5% | 327.2hPa | 2.5V | 00:00:00 | 00:00:00 | 00:00:00 | |
| DM7RM-13 | 2026-08-31 18:44:13 | 49.58801 | 9.05284 | 120° | 120km/h | 8784m | -5.5m/s | -39.4°C | 7.5% | 327.2hPa | 2.5V | 03:04:00 | 00:00:00 | 00:00:00 | |
| DM0DOS-11 | 2026-08-31 18:44:12 | 49.58907 | 9.04990 | 118° | 126km/h | 8827m | -6m/s | -39.5°C | 9.4% | 325.1hPa | 2.5V | 03:03:33 | 02:14:57 | 00:00:00 | |
| DL1NUX | 2026-08-31 18:44:11 | 49.58922 | 9.04947 | 117° | 126km/h | 8833m | -6.5m/s | -39.5°C | 9.5% | 324.8hPa | 2.6V | 03:03:34 | 02:14:56 | 00:00:00 | |
| BIOWL1-15 | 2026-08-31 18:44:08 | 49.58892 | 9.05033 | 119° | 126km/h | 8821m | -5.6m/s | -39.5°C | 9.3% | 325.3hPa | 2.5V | 03:04:12 | 02:14:58 | 00:00:00 | |
| DO3MHA-11 | 2026-08-31 18:44:07 | 49.58907 | 9.04990 | 119° | 128km/h | 8827m | -5.9m/s | -39.4°C | 9.4% | 325.0hPa | 2.5V | 00:00:00 | 02:14:57 | 00:00:00 | |
| DL9PN | 2026-08-31 18:44:05 | 49.58998 | 9.04727 | 117° | 128km/h | 8859m | -4.3m/s | -39.7°C | 8.0% | 323.5hPa | 2.5V | 00:00:00 | 00:00:00 | 00:00:00 | |
| DM0DOS-11 | 2026-08-31 18:44:02 | 49.59059 | 9.04548 | 117° | 131km/h | 8879m | -6.5m/s | -39.8°C | 10.3% | 322.6hPa | 2.5V | 03:03:43 | 02:14:47 | 00:00:00 | |
| DL1NUX | 2026-08-31 18:44:01 | 49.59074 | 9.04503 | 117° | 130km/h | 8886m | -7.3m/s | -39.8°C | 10.4% | 322.4hPa | 2.5V | 03:03:44 | 02:14:46 | 00:00:00 | |
| DK7TD | 2026-08-31 18:43:57 | 49.59059 | 9.04548 | 118° | 131km/h | 8879m | -6.5m/s | 0°C | 0% | 0hPa | 2.5V | 03:04:12 | 02:14:47 | 00:00:00 | |
| DO3MHA-11 | 2026-08-31 18:43:57 | 49.59059 | 9.04548 | 118° | 133km/h | 8880m | -6.4m/s | -39.7°C | 10.3% | 322.6hPa | 2.5V | 00:00:00 | 02:14:47 | 00:00:00 | |
| SO1NDE-10 | 2026-08-31 18:43:56 | 49.59074 | 9.04503 | 118° | 139km/h | 8886m | -7.3m/s | -39.8°C | 10.4% | 322.3hPa | 2.5V | 03:03:00 | 02:14:46 | 00:00:00 | |
| DF1GD-15 | 2026-08-31 18:43:54 | 49.59090 | 9.04458 | 119° | 131km/h | 8893m | -4.9m/s | -39.8°C | 8.6% | 322.1hPa | 2.5V | 03:04:00 | 00:00:00 | 00:00:00 | |
| DM0DOS-11 | 2026-08-31 18:43:52 | 49.59225 | 9.04092 | 120° | 139km/h | 8939m | -5.3m/s | -39.6°C | 11.8% | 319.9hPa | 2.5V | 03:03:53 | 02:14:37 | 00:00:00 | |
| DB0ND-19 | 2026-08-31 18:43:51 | 49.59155 | 9.04277 | 120° | 133km/h | 8916m | -6.9m/s | -39.6°C | 9.2% | 320.9hPa | 2.6V | 00:00:00 | 00:00:00 | 00:00:00 | |
| DB0UT-7 | 2026-08-31 18:43:50 | 49.59172 | 9.04231 | 121° | 139km/h | 8923m | -6.1m/s | -39.6°C | 11.4% | 320.6hPa | 2.6V | 00:00:00 | 00:00:00 | 00:00:00 | |
| SFWM-10 | 2026-08-31 18:43:49 | 49.59172 | 9.04231 | 121° | 135km/h | 8923m | -6.2m/s | -39.6°C | 9.3% | 320.7hPa | 2.6V | 00:00:00 | 00:00:00 | 00:00:00 | |
| DL1NUX | 2026-08-31 18:43:48 | 49.59297 | 9.03905 | 120° | 141km/h | 8961m | -5.7m/s | -39.7°C | 12.2% | 318.9hPa | 2.6V | 03:03:57 | 02:14:33 | 00:00:00 | |
| BIOWL1-15 | 2026-08-31 18:43:48 | 49.59207 | 9.04139 | 120° | 139km/h | 8934m | -4.1m/s | -39.6°C | 12.2% | 320.1hPa | 2.6V | 03:04:12 | 02:14:38 | 00:00:00 | |
| DF7PN | 2026-08-31 18:43:45 | 49.59261 | 9.03999 | 120° | 141km/h | 8949m | -5.4m/s | -39.7°C | 9.8% | 319.4hPa | 2.6V | 00:00:00 | 00:00:00 | 00:00:00 | |
| DK7TD | 2026-08-31 18:43:44 | 49.59279 | 9.03952 | 120° | 139km/h | 8955m | -5.7m/s | 0°C | 0% | 0hPa | 2.6V | 03:04:12 | 02:14:34 | 00:00:00 | |
| BIOWL9-15 | 2026-08-31 18:43:44 | 49.59297 | 9.03905 | 120° | 139km/h | 8961m | -5.7m/s | -39.7°C | 10.0% | 318.9hPa | 2.6V | 00:00:00 | 00:00:00 | 00:00:00 | |
| DL1ZP-14 | 2026-08-31 18:43:43 | 49.59297 | 9.03905 | 120° | 139km/h | 8961m | -5.7m/s | -39.7°C | 10.0% | 318.9hPa | 2.6V | 00:00:00 | 00:00:00 | 00:00:00 | |
| DM0DOS-11 | 2026-08-31 18:43:42 | 49.59399 | 9.03625 | 119° | 135km/h | 8991m | -4.4m/s | -39.9°C | 13.1% | 317.5hPa | 2.5V | 03:04:03 | 02:14:27 | 00:00:00 | |
| DL1NUX | 2026-08-31 18:43:38 | 49.59469 | 9.03440 | 120° | 139km/h | 9009m | -4.7m/s | -40°C | 13.6% | 316.7hPa | 2.6V | 03:04:07 | 02:14:23 | 00:00:00 | |
| BIOWL1-15 | 2026-08-31 18:43:37 | 49.59399 | 9.03625 | 119° | 135km/h | 8991m | -4.4m/s | -39.9°C | 13.9% | 317.5hPa | 2.5V | 03:04:12 | 02:14:27 | 00:00:00 | |
| DK7TD | 2026-08-31 18:43:33 | 49.59469 | 9.03440 | 121° | 139km/h | 9009m | -4.7m/s | 0°C | 0% | 0hPa | 2.6V | 03:04:12 | 02:14:23 | 00:00:00 | |
| DM0DOS-11 | 2026-08-31 18:43:32 | 49.59578 | 9.03160 | 120° | 141km/h | 9038m | -5.4m/s | -40.1°C | 14% | 315.3hPa | 2.6V | 03:04:13 | 02:14:17 | 00:00:00 | |
| DM7RM-13 | 2026-08-31 18:43:31 | 49.59487 | 9.03393 | 122° | 141km/h | 9014m | -4.6m/s | -39.9°C | 11.5% | 316.4hPa | 2.5V | 03:04:00 | 00:00:00 | 00:00:00 | |
| DL1NUX | 2026-08-31 18:43:28 | 49.59651 | 9.02972 | 120° | 141km/h | 9057m | -5m/s | -40.3°C | 14.3% | 314.5hPa | 2.5V | 03:04:17 | 02:14:13 | 00:00:00 | |
| BIOWL1-15 | 2026-08-31 18:43:27 | 49.59578 | 9.03160 | 121° | 141km/h | 9038m | -5.4m/s | -40.1°C | 15% | 315.3hPa | 2.6V | 03:05:03 | 02:14:17 | 00:00:00 | |
| DO3MHA-11 | 2026-08-31 18:43:27 | 49.59578 | 9.03160 | 121° | 141km/h | 9038m | -5.4m/s | -40.1°C | 14.0% | 315.3hPa | 2.6V | 00:00:00 | 02:14:17 | 00:00:00 | |
| DF3TZ-5 | 2026-08-31 18:43:26 | 49.59615 | 9.03066 | 120° | 141km/h | 9048m | -4.1m/s | -40.3°C | 11.7% | 315.0hPa | 2.6V | 00:00:00 | 00:00:00 | 00:00:00 | |
| DM0DOS-11 | 2026-08-31 18:43:22 | 49.59760 | 9.02686 | 121° | 141km/h | 9084m | -5.1m/s | -40.6°C | 15.1% | 313.3hPa | 2.6V | 03:04:23 | 02:14:07 | 00:00:00 | |
| DK7TD | 2026-08-31 18:43:20 | 49.59705 | 9.02829 | 120° | 142km/h | 9071m | -4.3m/s | 0°C | 0% | 0hPa | 2.5V | 18:12:15 | 02:14:10 | 00:00:00 | |
| DB0ND-19 | 2026-08-31 18:43:20 | 49.59705 | 9.02829 | 120° | 141km/h | 9071m | -4.3m/s | -40.5°C | 12.2% | 313.8hPa | 2.5V | 00:00:00 | 00:00:00 | 00:00:00 | |
| DL1NUX | 2026-08-31 18:43:18 | 49.59833 | 9.02497 | 120° | 141km/h | 9103m | -4.9m/s | -40.7°C | 15.4% | 312.4hPa | 2.5V | 03:04:27 | 02:14:03 | 00:00:00 | |
| BIOWL1-15 | 2026-08-31 18:43:16 | 49.59778 | 9.02639 | 121° | 141km/h | 9089m | -4.6m/s | -40.6°C | 16.2% | 313.1hPa | 2.6V | 03:05:03 | 02:14:06 | 00:00:00 | |
| NBG1-10 | 2026-08-31 18:43:15 | 49.59796 | 9.02592 | 122° | 146km/h | 9094m | -4.5m/s | -40.6°C | 15.2% | 312.8hPa | 2.6V | 00:00:00 | 02:14:05 | 00:00:00 | |
| DF7PN | 2026-08-31 18:43:14 | 49.59815 | 9.02545 | 120° | 141km/h | 9098m | -4.7m/s | -40.7°C | 12.8% | 312.7hPa | 2.6V | 00:00:00 | 00:00:00 | 00:00:00 | |
| BIOWL9-15 | 2026-08-31 18:43:13 | 49.59851 | 9.02450 | 120° | 141km/h | 9108m | -4.4m/s | -40.7°C | 12.9% | 312.2hPa | 2.6V | 00:00:00 | 00:00:00 | 00:00:00 | |
| DM0DOS-11 | 2026-08-31 18:43:12 | 49.59943 | 9.02209 | 119° | 146km/h | 9128m | -3.7m/s | -40.9°C | 16.1% | 311.2hPa | 2.6V | 03:04:33 | 02:13:57 | 00:00:00 | |
| DK7TD | 2026-08-31 18:43:10 | 49.59888 | 9.02355 | 121° | 142km/h | 9117m | -4.3m/s | 0°C | 0% | 0hPa | 2.5V | 18:12:15 | 02:14:00 | 00:00:00 | |
| DL1NUX | 2026-08-31 18:43:08 | 49.60016 | 9.02012 | 119° | 146km/h | 9143m | -3.5m/s | -41.1°C | 16.7% | 310.6hPa | 2.5V | 03:04:37 | 02:13:53 | 00:00:00 | |
| BIOWL1-15 | 2026-08-31 18:43:06 | 49.59961 | 9.02160 | 120° | 146km/h | 9132m | -4.1m/s | -41°C | 17.3% | 311.1hPa | 2.6V | 03:05:03 | 02:13:56 | 00:00:00 | |
| SFWM-10 | 2026-08-31 18:43:05 | 49.59961 | 9.02160 | 121° | 146km/h | 9132m | -4.1m/s | -41.0°C | 13.5% | 311.1hPa | 2.6V | 03:05:00 | 00:00:00 | 00:00:00 | |
| DL9PN | 2026-08-31 18:43:03 | 49.60034 | 9.01962 | 119° | 144km/h | 9148m | -5.7m/s | -41.1°C | 14.0% | 310.5hPa | 2.6V | 00:00:00 | 00:00:00 | 00:00:00 | |
| DM0DOS-11 | 2026-08-31 18:43:02 | 49.60125 | 9.01715 | 119° | 146km/h | 9168m | -4m/s | -41.2°C | 17.7% | 309.5hPa | 2.6V | 03:04:43 | 02:13:47 | 00:00:00 | |
| DK7TD | 2026-08-31 18:42:59 | 49.60089 | 9.01814 | 120° | 146km/h | 9160m | -4.3m/s | 0°C | 0% | 0hPa | 2.5V | 18:12:15 | 02:13:49 | 00:00:00 | |
| DL1NUX | 2026-08-31 18:42:58 | 49.60198 | 9.01517 | 119° | 146km/h | 9182m | -3.6m/s | -41.3°C | 18.5% | 308.8hPa | 2.5V | 03:04:47 | 02:13:43 | 00:00:00 | |
| BIOWL1-15 | 2026-08-31 18:42:55 | 49.60162 | 9.01616 | 119° | 146km/h | 9175m | -3.3m/s | -41.3°C | 19.3% | 309.1hPa | 2.5V | 03:05:03 | 02:13:45 | 00:00:00 | |
| DB0ND-19 | 2026-08-31 18:42:49 | 49.60291 | 9.01268 | 120° | 146km/h | 9202m | -3.7m/s | -41.4°C | 16.1% | 307.9hPa | 2.5V | 00:00:00 | 00:00:00 | 00:00:00 | |
| DL1NUX | 2026-08-31 18:42:48 | 49.60384 | 9.01020 | 119° | 146km/h | 9222m | -3.6m/s | -41.6°C | 19.1% | 307hPa | 2.5V | 03:04:57 | 02:13:33 | 00:00:00 | |
| DK7TD | 2026-08-31 18:42:45 | 49.60347 | 9.01119 | 120° | 148km/h | 9214m | -4.4m/s | 0°C | 0% | 0hPa | 2.5V | 18:12:15 | 02:13:35 | 00:00:00 | |
| DM0DOS-11 | 2026-08-31 18:42:45 | 49.60439 | 9.00872 | 119° | 146km/h | 9235m | -4.3m/s | -41.7°C | 19% | 306.5hPa | 2.5V | 03:05:00 | 02:13:30 | 00:00:00 | |
| BIOWL1-15 | 2026-08-31 18:42:44 | 49.60365 | 9.01070 | 120° | 148km/h | 9218m | -4.1m/s | -41.5°C | 20.5% | 307.2hPa | 2.5V | 03:05:03 | 02:13:34 | 00:00:00 | |
| DF7PN | 2026-08-31 18:42:43 | 49.60384 | 9.01020 | 119° | 146km/h | 9222m | -3.6m/s | -41.6°C | 16.1% | 307.0hPa | 2.5V | 00:00:00 | 00:00:00 | 00:00:00 | |
| BIOWL9-15 | 2026-08-31 18:42:42 | 49.60420 | 9.00921 | 119° | 144km/h | 9230m | -4.3m/s | -41.6°C | 16.1% | 306.6hPa | 2.5V | 00:00:00 | 00:00:00 | 00:00:00 | |
| DL1ZP-14 | 2026-08-31 18:42:41 | 49.60439 | 9.00872 | 119° | 144km/h | 9235m | -4.3m/s | -41.7°C | 16.1% | 306.5hPa | 2.5V | 00:00:00 | 00:00:00 | 00:00:00 | |
| DL1NUX | 2026-08-31 18:42:38 | 49.60569 | 9.00526 | 120° | 148km/h | 9263m | -3.8m/s | -41.9°C | 19.3% | 305.1hPa | 2.5V | 03:05:07 | 02:13:23 | 00:00:00 | |
| BIOWL1-15 | 2026-08-31 18:42:33 | 49.60569 | 9.00526 | 121° | 148km/h | 9263m | -3.8m/s | -41.9°C | 20.6% | 305.1hPa | 2.5V | 03:05:54 | 02:13:23 | 00:00:00 | |
| DF1GD-15 | 2026-08-31 18:42:32 | 49.60569 | 9.00526 | 122° | 148km/h | 9263m | -3.8m/s | -41.9°C | 16.3% | 305.1hPa | 2.6V | 03:05:00 | 00:00:00 | 00:00:00 | |
| DM0DOS-11 | 2026-08-31 18:42:31 | 49.60701 | 9.00184 | 120° | 146km/h | 9295m | -6.7m/s | -42.2°C | 18.9% | 303.8hPa | 2.6V | 03:05:14 | 02:13:16 | 00:00:00 | |
| DJTTGO | 2026-08-31 18:42:30 | 49.60607 | 9.00428 | 122° | 146km/h | 9271m | -4.2m/s | -42.0°C | 16.2% | 304.8hPa | 2.5V | 03:05:00 | 00:00:00 | 00:00:00 | |
| DM7RM-13 | 2026-08-31 18:42:29 | 49.60626 | 9.00379 | 122° | 146km/h | 9275m | -4.0m/s | -42.0°C | 16.0% | 304.6hPa | 2.5V | 03:05:00 | 00:00:00 | 00:00:00 | |
| DF2AP-13 | 2026-08-31 18:42:28 | 49.60664 | 9.00282 | 121° | 146km/h | 9285m | -4.9m/s | -42.1°C | 19.0% | 304.1hPa | 2.5V | 00:00:00 | 02:13:18 | 00:00:00 | |
| DO3MHA-11 | 2026-08-31 18:42:27 | 49.60682 | 9.00233 | 121° | 146km/h | 9290m | -4.9m/s | -42.1°C | 18.9% | 304.0hPa | 2.6V | 00:00:00 | 02:13:17 | 00:00:00 | |
| DL1NUX | 2026-08-31 18:42:26 | 49.60793 | 8.99937 | 119° | 144km/h | 9318m | -4m/s | -42.4°C | 19.3% | 302.6hPa | 2.6V | 03:05:19 | 02:13:11 | 00:00:00 | |
| BIOWL1-15 | 2026-08-31 18:42:22 | 49.60775 | 8.99986 | 120° | 146km/h | 9314m | -4.6m/s | -42.4°C | 20.5% | 302.9hPa | 2.6V | 03:05:54 | 02:13:12 | 00:00:00 | |
| DK5PH-5 | 2026-08-31 18:42:22 | 49.60775 | 8.99986 | 120° | 144km/h | 9314m | -4.5m/s | -42.3°C | 19.2% | 302.8hPa | 2.5V | 00:00:00 | 02:13:12 | 00:00:00 | |
| SO1NDE-10 | 2026-08-31 18:42:19 | 49.60830 | 8.99839 | 121° | 144km/h | 9326m | -3.7m/s | -42.4°C | 19.3% | 302.3hPa | 2.5V | 00:00:00 | 02:13:09 | 00:00:00 | |
| SFWM-10 | 2026-08-31 18:42:18 | 49.60848 | 8.99790 | 121° | 146km/h | 9330m | -4.1m/s | -42.5°C | 16.3% | 302.1hPa | 2.6V | 03:05:00 | 00:00:00 | 00:00:00 | |
| DO3MHA-11 | 2026-08-31 18:42:17 | 49.60867 | 8.99741 | 120° | 146km/h | 9334m | -3.6m/s | -42.4°C | 19.3% | 301.9hPa | 2.6V | 03:05:00 | 02:13:07 | 00:00:00 | |
| DL1NUX | 2026-08-31 18:42:16 | 49.60978 | 8.99446 | 119° | 148km/h | 9360m | -4.6m/s | -42.7°C | 19.3% | 300.8hPa | 2.6V | 03:05:29 | 02:13:01 | 00:00:00 | |
| DB0UT-9 | 2026-08-31 18:42:14 | 49.60903 | 8.99643 | 121° | 146km/h | 9343m | -5.1m/s | -42.6°C | 16.1% | 301.6hPa | 2.6V | 00:00:00 | 00:00:00 | 00:00:00 | |
| DF7PN | 2026-08-31 18:42:12 | 49.60959 | 8.99496 | 119° | 146km/h | 9356m | -4.5m/s | -42.7°C | 16.2% | 301.0hPa | 2.6V | 00:00:00 | 00:00:00 | 00:00:00 | |
| DM0DOS-11 | 2026-08-31 18:42:11 | 49.61068 | 8.99199 | 119° | 144km/h | 9382m | -4.5m/s | -42.9°C | 19.3% | 299.8hPa | 2.6V | 03:05:34 | 02:12:56 | 00:00:00 | |
| BIOWL1-15 | 2026-08-31 18:42:09 | 49.61050 | 8.99248 | 119° | 146km/h | 9378m | -4.3m/s | -42.8°C | 20.7% | 300hPa | 2.6V | 03:05:54 | 02:12:57 | 00:00:00 | |
| NBG1-10 | 2026-08-31 18:42:09 | 49.61014 | 8.99347 | 120° | 142km/h | 9369m | -4.3m/s | -42.7°C | 19.2% | 300.4hPa | 2.5V | 00:00:00 | 02:12:59 | 00:00:00 | |
| DM7RM-13 | 2026-08-31 18:42:08 | 49.61014 | 8.99347 | 120° | 146km/h | 9369m | -4.4m/s | -42.7°C | 16.2% | 300.4hPa | 2.6V | 03:05:00 | 00:00:00 | 00:00:00 | |
| DO3MHA-11 | 2026-08-31 18:42:07 | 49.61050 | 8.99248 | 120° | 144km/h | 9378m | -4.2m/s | -42.8°C | 19.2% | 300.0hPa | 2.6V | 00:00:00 | 02:12:57 | 00:00:00 | |
| DJTTGO | 2026-08-31 18:42:05 | 49.61068 | 8.99199 | 121° | 144km/h | 9382m | -4.5m/s | -42.9°C | 16.2% | 299.8hPa | 2.6V | 03:05:00 | 00:00:00 | 00:00:00 | |
| DL0LBS | 2026-08-31 18:42:04 | 49.61086 | 8.99150 | 121° | 144km/h | 9387m | -4.6m/s | -42.9°C | 16.2% | 299.6hPa | 2.6V | 03:05:00 | 00:00:00 | 00:00:00 | |
| DM0DOS-11 | 2026-08-31 18:42:01 | 49.61255 | 8.98721 | 120° | 144km/h | 9427m | -4.4m/s | -43.2°C | 19.7% | 297.8hPa | 2.6V | 03:05:44 | 02:12:46 | 00:00:00 | |
| BIOWL1-15 | 2026-08-31 18:41:59 | 49.61236 | 8.98769 | 121° | 142km/h | 9423m | -4.5m/s | -43.2°C | 20.9% | 297.9hPa | 2.6V | 03:05:54 | 02:12:47 | 00:00:00 | |
| DB0NH | 2026-08-31 18:41:58 | 49.61217 | 8.98816 | 122° | 141km/h | 9419m | -4.1m/s | -43.1°C | 19.6% | 298.1hPa | 2.6V | 00:00:00 | 02:12:48 | 00:00:00 | |
| DO3MHA-11 | 2026-08-31 18:41:57 | 49.61236 | 8.98769 | 122° | 144km/h | 9423m | -4.4m/s | -43.2°C | 19.6% | 297.9hPa | 2.6V | 00:00:00 | 02:12:47 | 00:00:00 | |
| DL1NUX | 2026-08-31 18:41:56 | 49.61346 | 8.98478 | 119° | 144km/h | 9448m | -4.4m/s | -43.4°C | 19.8% | 296.9hPa | 2.6V | 03:05:49 | 02:12:41 | 00:00:00 | |
| DF3TZ-5 | 2026-08-31 18:41:53 | 49.61310 | 8.98576 | 119° | 142km/h | 9440m | -4.4m/s | -43.4°C | 16.6% | 297.2hPa | 2.6V | 00:00:00 | 00:00:00 | 00:00:00 | |
| DK5PH-5 | 2026-08-31 18:41:52 | 49.61327 | 8.98527 | 120° | 139km/h | 9445m | -3.8m/s | -43.3°C | 19.8% | 297.0hPa | 2.6V | 03:05:00 | 02:12:42 | 00:00:00 | |
| DM0DOS-11 | 2026-08-31 18:41:51 | 49.61438 | 8.98242 | 121° | 139km/h | 9471m | -3.9m/s | -43.6°C | 19.7% | 295.9hPa | 2.6V | 03:05:54 | 02:12:36 | 00:00:00 | |
| DB0ND-19 | 2026-08-31 18:41:47 | 49.61439 | 8.98242 | 121° | 139km/h | 9471m | -3.9m/s | -43.6°C | 16.4% | 295.9hPa | 2.6V | 00:00:00 | 00:00:00 | 00:00:00 | |
| DL1NUX | 2026-08-31 18:41:46 | 49.61533 | 8.98014 | 122° | 139km/h | 9495m | -4.8m/s | -43.8°C | 19.3% | 294.9hPa | 2.6V | 03:05:59 | 02:12:31 | 00:00:00 | |
| BIOWL1-15 | 2026-08-31 18:41:46 | 49.61439 | 8.98242 | 122° | 139km/h | 9471m | -3.9m/s | -43.6°C | 21% | 295.9hPa | 2.6V | 03:05:54 | 02:12:36 | 00:00:00 | |
| DL0LBS | 2026-08-31 18:41:44 | 49.61457 | 8.98196 | 123° | 139km/h | 9476m | -5.0m/s | -43.7°C | 16.4% | 295.7hPa | 2.6V | 03:06:00 | 00:00:00 | 00:00:00 | |
| DM0DOS-11 | 2026-08-31 18:41:41 | 49.61626 | 8.97785 | 121° | 139km/h | 9519m | -4.6m/s | -43.8°C | 18.8% | 293.9hPa | 2.6V | 03:06:04 | 02:12:26 | 00:00:00 | |
| BIOWL1-15 | 2026-08-31 18:41:35 | 49.61644 | 8.97739 | 121° | 139km/h | 9523m | -4.5m/s | -43.8°C | 19.8% | 293.7hPa | 2.5V | 03:06:45 | 02:12:25 | 00:00:00 | |
| DL1KLB | 2026-08-31 18:41:34 | 49.61643 | 8.97738 | 122° | 139km/h | 9523m | -4.5m/s | -43.8°C | 15.4% | 293.7hPa | 2.6V | 00:00:00 | 00:00:00 | 00:00:00 | |
| DF1GD-15 | 2026-08-31 18:41:31 | 49.61698 | 8.97599 | 122° | 139km/h | 9539m | -4.5m/s | -43.8°C | 15.3% | 293.0hPa | 2.6V | 03:06:00 | 00:00:00 | 00:00:00 | |
| DM0DOS-11 | 2026-08-31 18:41:30 | 49.61829 | 8.97278 | 122° | 139km/h | 9574m | -5.2m/s | -43.9°C | 18.5% | 291.5hPa | 2.6V | 03:06:15 | 02:12:15 | 00:00:00 | |
| BIOWL1-15 | 2026-08-31 18:41:26 | 49.61848 | 8.97232 | 122° | 139km/h | 9579m | -4.9m/s | -44°C | 19.8% | 291.3hPa | 2.6V | 03:06:45 | 02:12:14 | 00:00:00 | |
| DL0LBS | 2026-08-31 18:41:23 | 49.61848 | 8.97232 | 123° | 139km/h | 9579m | -4.9m/s | -44.0°C | 15.4% | 291.3hPa | 2.5V | 03:06:00 | 00:00:00 | 00:00:00 | |
| DK5PH-5 | 2026-08-31 18:41:22 | 49.61884 | 8.97140 | 122° | 137km/h | 9590m | -5.5m/s | -44.0°C | 18.1% | 290.8hPa | 2.5V | 00:00:00 | 02:12:12 | 00:00:00 | |
| DM0DOS-11 | 2026-08-31 18:41:20 | 49.62009 | 8.96816 | 120° | 137km/h | 9629m | -5.8m/s | -44.2°C | 17.9% | 289.1hPa | 2.5V | 03:06:25 | 02:12:05 | 00:00:00 | |
| BIOWL1-15 | 2026-08-31 18:41:16 | 49.62026 | 8.96770 | 120° | 137km/h | 9636m | -6.8m/s | -44.3°C | 19.5% | 288.9hPa | 2.6V | 03:06:45 | 02:12:04 | 00:00:00 | |
| KANTATE | 2026-08-31 18:41:15 | 49.61991 | 8.96862 | 121° | 137km/h | 9624m | -5.5m/s | -44.2°C | 14.8% | 289.3hPa | 2.6V | 00:00:00 | 00:00:00 | 00:00:00 | |
| SO1NDE-10 | 2026-08-31 18:41:14 | 49.62026 | 8.96770 | 121° | 135km/h | 9636m | -6.8m/s | -44.2°C | 17.9% | 288.8hPa | 2.6V | 00:00:00 | 02:12:04 | 00:00:00 | |
| DL1NUX | 2026-08-31 18:41:13 | 49.62130 | 8.96496 | 119° | 137km/h | 9668m | -4.4m/s | -44.5°C | 18.4% | 287.4hPa | 2.6V | 03:06:32 | 02:11:58 | 00:00:00 | |
| DF1GD-15 | 2026-08-31 18:41:11 | 49.62061 | 8.96679 | 121° | 135km/h | 9648m | -5.8m/s | -44.4°C | 15.0% | 288.2hPa | 2.5V | 03:06:00 | 00:00:00 | 00:00:00 | |
| DM0DOS-11 | 2026-08-31 18:41:10 | 49.62181 | 8.96358 | 120° | 135km/h | 9682m | -4.9m/s | -44.7°C | 18.2% | 286.8hPa | 2.5V | 03:06:35 | 02:11:55 | 00:00:00 | |
| BIOWL1-15 | 2026-08-31 18:41:03 | 49.62216 | 8.96267 | 120° | 135km/h | 9693m | -4.8m/s | -44.8°C | 19.9% | 286.3hPa | 2.6V | 03:06:45 | 02:11:53 | 00:00:00 | |
| DL1NUX | 2026-08-31 18:41:03 | 49.62300 | 8.96040 | 119° | 135km/h | 9716m | -4.4m/s | -44.9°C | 18.8% | 285.3hPa | 2.6V | 03:06:42 | 02:11:48 | 00:00:00 | |
| NBG1-10 | 2026-08-31 18:41:03 | 49.62216 | 8.96267 | 120° | 135km/h | 9693m | -4.7m/s | -44.7°C | 18.5% | 286.3hPa | 2.5V | 00:00:00 | 02:11:53 | 00:00:00 | |
| DO3DL | 2026-08-31 18:41:02 | 49.62215 | 8.96267 | 121° | 135km/h | 9693m | -4.8m/s | -44.8°C | 15.2% | 286.3hPa | 2.5V | 03:06:00 | 00:00:00 | 00:00:00 | |
| DM0DOS-11 | 2026-08-31 18:41:00 | 49.62351 | 8.95902 | 119° | 135km/h | 9730m | -4.6m/s | -45°C | 18.9% | 284.8hPa | 2.5V | 03:06:45 | 02:11:45 | 00:00:00 | |
| DF2AP-13 | 2026-08-31 18:40:58 | 49.62300 | 8.96040 | 120° | 135km/h | 9716m | -4.3m/s | -44.9°C | 18.8% | 285.3hPa | 2.6V | 00:00:00 | 02:11:48 | 00:00:00 | |
| DO3MHA-11 | 2026-08-31 18:40:57 | 49.62317 | 8.95994 | 120° | 135km/h | 9720m | -4.7m/s | -44.9°C | 18.8% | 285.1hPa | 2.6V | 03:06:00 | 02:11:47 | 00:00:00 | |
| HEMX73-11 | 2026-08-31 18:40:54 | 49.62351 | 8.95902 | 120° | 135km/h | 9730m | -4.6m/s | -45.0°C | 15.6% | 284.8hPa | 2.6V | 03:06:00 | 00:00:00 | 00:00:00 | |
| DL1NUX | 2026-08-31 18:40:53 | 49.62468 | 8.95582 | 119° | 133km/h | 9762m | -5m/s | -45.2°C | 19.3% | 283.3hPa | 2.6V | 03:06:52 | 02:11:38 | 00:00:00 | |
| BIOWL1-15 | 2026-08-31 18:40:52 | 49.62401 | 8.95764 | 119° | 135km/h | 9744m | -4.9m/s | -45.1°C | 20.6% | 284.2hPa | 2.5V | 03:07:36 | 02:11:42 | 00:00:00 | |
| DK5PH-5 | 2026-08-31 18:40:52 | 49.62401 | 8.95764 | 120° | 133km/h | 9744m | -4.8m/s | -45.0°C | 19.1% | 284.1hPa | 2.5V | 00:00:00 | 02:11:42 | 00:00:00 | |
| DM0DOS-11 | 2026-08-31 18:40:50 | 49.62517 | 8.95444 | 119° | 135km/h | 9776m | -4.7m/s | -45.4°C | 19.4% | 282.7hPa | 2.5V | 03:06:55 | 02:11:35 | 00:00:00 | |
| BIOWL1-15 | 2026-08-31 18:40:44 | 49.62567 | 8.95307 | 119° | 133km/h | 9790m | -4.6m/s | -45.5°C | 20.8% | 282.2hPa | 2.5V | 03:07:36 | 02:11:32 | 00:00:00 | |
| SO1NDE-10 | 2026-08-31 18:40:44 | 49.62534 | 8.95399 | 120° | 133km/h | 9781m | -4.4m/s | -45.4°C | 19.4% | 282.4hPa | 2.6V | 00:00:00 | 02:11:34 | 00:00:00 | |
| DL1NUX | 2026-08-31 18:40:43 | 49.62633 | 8.95124 | 119° | 135km/h | 9809m | -5m/s | -45.6°C | 19.6% | 281.4hPa | 2.6V | 03:07:02 | 02:11:28 | 00:00:00 | |
| DO3DL | 2026-08-31 18:40:41 | 49.62567 | 8.95307 | 120° | 133km/h | 9790m | -4.6m/s | -45.5°C | 16.0% | 282.2hPa | 2.5V | 00:00:00 | 00:00:00 | 00:00:00 | |
| DM0DOS-11 | 2026-08-31 18:40:40 | 49.62682 | 8.94987 | 118° | 135km/h | 9824m | -5m/s | -45.7°C | 19.8% | 280.8hPa | 2.5V | 03:07:05 | 02:11:25 | 00:00:00 | |
| DF7PN | 2026-08-31 18:40:39 | 49.62616 | 8.95170 | 118° | 133km/h | 9804m | -4.9m/s | -45.6°C | 16.1% | 281.6hPa | 2.5V | 00:00:00 | 00:00:00 | 00:00:00 | |
| DL1ZP-14 | 2026-08-31 18:40:37 | 49.62666 | 8.95033 | 118° | 133km/h | 9819m | -4.9m/s | -45.7°C | 16.3% | 280.9hPa | 2.5V | 00:00:00 | 00:00:00 | 00:00:00 | |
| HEMX73-11 | 2026-08-31 18:40:34 | 49.62682 | 8.94987 | 120° | 135km/h | 9824m | -5.0m/s | -45.7°C | 16.3% | 280.8hPa | 2.6V | 03:07:00 | 00:00:00 | 00:00:00 | |
| DL1NUX | 2026-08-31 18:40:33 | 49.62794 | 8.94665 | 117° | 133km/h | 9858m | -5.4m/s | -46°C | 20.2% | 279.3hPa | 2.6V | 03:07:12 | 02:11:18 | 00:00:00 | |
| BIOWL1-15 | 2026-08-31 18:40:33 | 49.62730 | 8.94849 | 118° | 133km/h | 9838m | -4.7m/s | -45.9°C | 21.4% | 280.1hPa | 2.5V | 03:07:36 | 02:11:22 | 00:00:00 | |
| BIOWL1-15 | 2026-08-31 18:40:23 | 49.62901 | 8.94343 | 117° | 133km/h | 9894m | -5m/s | -46.3°C | 21.9% | 277.8hPa | 2.6V | 03:07:36 | 02:11:11 | 00:00:00 | |
| DL1NUX | 2026-08-31 18:40:23 | 49.62947 | 8.94203 | 116° | 135km/h | 9910m | -5.2m/s | -46.4°C | 20.5% | 277.2hPa | 2.5V | 03:07:22 | 02:11:08 | 00:00:00 | |
| DK5PH-5 | 2026-08-31 18:40:22 | 49.62886 | 8.94389 | 117° | 133km/h | 9890m | -5.1m/s | -46.2°C | 20.4% | 278.0hPa | 2.5V | 00:00:00 | 02:11:12 | 00:00:00 | |
| DJTTGO | 2026-08-31 18:40:20 | 49.62901 | 8.94343 | 118° | 133km/h | 9894m | -5.0m/s | -46.3°C | 16.7% | 277.8hPa | 2.5V | 03:07:00 | 00:00:00 | 00:00:00 | |
| DO3DL | 2026-08-31 18:40:19 | 49.62916 | 8.94297 | 118° | 133km/h | 9900m | -5.1m/s | -46.4°C | 16.8% | 277.6hPa | 2.5V | 00:00:00 | 00:00:00 | 00:00:00 | |
| DO3MHA-11 | 2026-08-31 18:40:17 | 49.62962 | 8.94156 | 117° | 135km/h | 9915m | -5.1m/s | -46.4°C | 20.5% | 276.9hPa | 2.5V | 03:07:00 | 02:11:07 | 00:00:00 | |
| DB0UT-7 | 2026-08-31 18:40:15 | 49.62992 | 8.94062 | 117° | 135km/h | 9926m | -5.3m/s | -46.5°C | 20.6% | 276.5hPa | 2.5V | 00:00:00 | 02:11:05 | 00:00:00 | |
| DB0ND-19 | 2026-08-31 18:40:14 | 49.63023 | 8.93967 | 116° | 135km/h | 9936m | -5.6m/s | -46.6°C | 17.1% | 276.1hPa | 2.5V | 00:00:00 | 00:00:00 | 00:00:00 | |
| DL1NUX | 2026-08-31 18:40:13 | 49.63097 | 8.93731 | 115° | 133km/h | 9963m | -5.5m/s | -46.8°C | 21.2% | 275hPa | 2.5V | 03:07:32 | 02:10:58 | 00:00:00 | |
| BIOWL1-15 | 2026-08-31 18:40:12 | 49.63067 | 8.93825 | 116° | 135km/h | 9952m | -5.4m/s | -46.7°C | 22.6% | 275.4hPa | 2.6V | 03:07:36 | 02:11:00 | 00:00:00 | |
| SFWM-10 | 2026-08-31 18:40:11 | 49.63037 | 8.93920 | 117° | 135km/h | 9942m | -5.3m/s | -46.6°C | 17.1% | 275.9hPa | 2.6V | 03:07:00 | 00:00:00 | 00:00:00 | |
| DM0DOS-11 | 2026-08-31 18:40:10 | 49.63141 | 8.93591 | 115° | 133km/h | 9979m | -5.4m/s | -46.9°C | 21.5% | 274.3hPa | 2.6V | 03:07:35 | 02:10:55 | 00:00:00 | |
| BIOWL7-15 | 2026-08-31 18:40:09 | 49.63068 | 8.93825 | 117° | 135km/h | 9952m | -5.4m/s | -46.7°C | 17.3% | 275.4hPa | 2.6V | 03:07:00 | 00:00:00 | 00:00:00 | |
| DF7PN | 2026-08-31 18:40:08 | 49.63097 | 8.93731 | 115° | 133km/h | 9963m | -5.5m/s | -46.8°C | 17.4% | 275.0hPa | 2.6V | 00:00:00 | 00:00:00 | 00:00:00 | |
| DO3MHA-11 | 2026-08-31 18:40:07 | 49.63112 | 8.93684 | 116° | 133km/h | 9968m | -5.3m/s | -46.8°C | 21.3% | 274.7hPa | 2.6V | 00:00:00 | 02:10:57 | 00:00:00 | |
| DL1ZP-14 | 2026-08-31 18:40:06 | 49.63141 | 8.93591 | 115° | 131km/h | 9979m | -5.4m/s | -46.9°C | 17.7% | 274.3hPa | 2.6V | 00:00:00 | 00:00:00 | 00:00:00 | |
| DL1NUX | 2026-08-31 18:40:03 | 49.63242 | 8.93264 | 114° | 133km/h | 10017m | -5.4m/s | -47.2°C | 21.8% | 272.8hPa | 2.5V | 03:07:42 | 02:10:48 | 00:00:00 | |
| DL0LBS | 2026-08-31 18:40:01 | 49.63184 | 8.93451 | 117° | 133km/h | 9996m | -5.3m/s | -47.0°C | 17.9% | 273.7hPa | 2.6V | 03:08:00 | 00:00:00 | 00:00:00 | |
| DM0DOS-11 | 2026-08-31 18:40:00 | 49.63284 | 8.93123 | 114° | 135km/h | 10033m | -5.5m/s | -47.3°C | 21.8% | 272.1hPa | 2.6V | 03:07:45 | 02:10:45 | 00:00:00 | |
| BIOWL1-15 | 2026-08-31 18:40:00 | 49.63213 | 8.93358 | 115° | 133km/h | 10006m | -5.4m/s | -47.1°C | 23.4% | 273.2hPa | 2.6V | 03:08:27 | 02:10:50 | 00:00:00 | |
| DL9PN | 2026-08-31 18:39:56 | 49.63270 | 8.93170 | 114° | 133km/h | 10028m | -5.5m/s | -47.2°C | 17.8% | 272.3hPa | 2.5V | 00:00:00 | 00:00:00 | 00:00:00 | |
| DL1NUX | 2026-08-31 18:39:53 | 49.63385 | 8.92788 | 114° | 135km/h | 10072m | -5.4m/s | -47.5°C | 21.8% | 270.6hPa | 2.5V | 03:07:52 | 02:10:38 | 00:00:00 | |
| DK5PH-5 | 2026-08-31 18:39:52 | 49.63327 | 8.92980 | 115° | 137km/h | 10050m | -5.5m/s | -47.3°C | 21.7% | 271.4hPa | 2.5V | 03:07:00 | 02:10:42 | 00:00:00 | |
| SFWM-10 | 2026-08-31 18:39:51 | 49.63327 | 8.92980 | 116° | 135km/h | 10050m | -5.5m/s | -47.3°C | 17.8% | 271.4hPa | 2.6V | 03:08:00 | 00:00:00 | 00:00:00 | |
| DM0DOS-11 | 2026-08-31 18:39:50 | 49.63428 | 8.92644 | 114° | 135km/h | 10089m | -5.5m/s | -47.6°C | 22% | 269.9hPa | 2.6V | 03:07:55 | 02:10:35 | 00:00:00 | |
| BIOWL1-15 | 2026-08-31 18:39:49 | 49.63370 | 8.92836 | 115° | 135km/h | 10066m | -5.6m/s | -47.5°C | 23.3% | 270.7hPa | 2.5V | 03:08:27 | 02:10:39 | 00:00:00 | |
| DF1GD-15 | 2026-08-31 18:39:48 | 49.63371 | 8.92836 | 116° | 135km/h | 10066m | -5.6m/s | -47.5°C | 17.9% | 270.7hPa | 2.5V | 03:08:00 | 00:00:00 | 00:00:00 | |
| DO3MHA-11 | 2026-08-31 18:39:47 | 49.63399 | 8.92740 | 115° | 135km/h | 10078m | -5.5m/s | -47.5°C | 21.9% | 270.3hPa | 2.5V | 00:00:00 | 02:10:37 | 00:00:00 | |
| DB0UT-9 | 2026-08-31 18:39:45 | 49.63414 | 8.92692 | 116° | 135km/h | 10083m | -5.7m/s | -47.6°C | 18.0% | 270.1hPa | 2.6V | 03:08:00 | 00:00:00 | 00:00:00 | |
| SO1NDE-10 | 2026-08-31 18:39:44 | 49.63442 | 8.92596 | 115° | 137km/h | 10094m | -5.5m/s | -47.6°C | 22.2% | 269.6hPa | 2.6V | 03:07:00 | 02:10:34 | 00:00:00 | |
| DL1NUX | 2026-08-31 18:39:43 | 49.63527 | 8.92309 | 114° | 135km/h | 10127m | -5.7m/s | -47.9°C | 22.4% | 268.3hPa | 2.6V | 03:08:02 | 02:10:28 | 00:00:00 | |
| BIOWL1-15 | 2026-08-31 18:39:40 | 49.63527 | 8.92309 | 115° | 135km/h | 10127m | -5.7m/s | -47.9°C | 24% | 268.3hPa | 2.6V | 03:08:27 | 02:10:28 | 00:00:00 | |
| DM0DOS-11 | 2026-08-31 18:39:39 | 49.63585 | 8.92117 | 114° | 137km/h | 10149m | -5.5m/s | -48°C | 22.7% | 267.4hPa | 2.5V | 03:08:06 | 02:10:24 | 00:00:00 | |
| DB0UT-7 | 2026-08-31 18:39:38 | 49.63527 | 8.92309 | 115° | 137km/h | 10127m | -5.7m/s | -47.8°C | 22.4% | 268.3hPa | 2.6V | 00:00:00 | 00:00:00 | 00:00:00 | |
| DO3MHA-11 | 2026-08-31 18:39:37 | 49.63542 | 8.92262 | 115° | 137km/h | 10132m | -5.3m/s | -47.8°C | 22.5% | 268.0hPa | 2.5V | 03:08:00 | 02:10:27 | 00:00:00 | |
| HEMX73-6 | 2026-08-31 18:39:35 | 49.63570 | 8.92166 | 115° | 137km/h | 10143m | -5.6m/s | -47.9°C | 22.6% | 267.5hPa | 2.5V | 03:08:00 | 02:10:25 | 00:00:00 | |
| DL1ZP-14 | 2026-08-31 18:39:34 | 49.63584 | 8.92117 | 114° | 135km/h | 10149m | -5.5m/s | -48.0°C | 18.6% | 267.4hPa | 2.5V | 00:00:00 | 00:00:00 | 00:00:00 | |
| DL1NUX | 2026-08-31 18:39:33 | 49.63669 | 8.91825 | 113° | 137km/h | 10181m | -5.5m/s | -48.3°C | 23.1% | 266.1hPa | 2.6V | 03:08:12 | 02:10:18 | 00:00:00 | |
| BIOWL7-15 | 2026-08-31 18:39:30 | 49.63627 | 8.91972 | 115° | 137km/h | 10165m | -5.6m/s | -48.2°C | 18.8% | 266.7hPa | 2.5V | 03:08:00 | 00:00:00 | 00:00:00 | |
| DM0DOS-11 | 2026-08-31 18:39:29 | 49.63726 | 8.91630 | 114° | 137km/h | 10203m | -5.3m/s | -48.5°C | 23.4% | 265.2hPa | 2.5V | 03:08:16 | 02:10:14 | 00:00:00 | |
| BIOWL1-15 | 2026-08-31 18:39:27 | 49.63683 | 8.91776 | 114° | 137km/h | 10187m | -5.4m/s | -48.3°C | 24.6% | 265.9hPa | 2.6V | 03:08:27 | 02:10:17 | 00:00:00 | |
| DO3MHA-11 | 2026-08-31 18:39:27 | 49.63683 | 8.91776 | 114° | 137km/h | 10187m | -5.4m/s | -48.3°C | 23.1% | 265.8hPa | 2.6V | 00:00:00 | 02:10:17 | 00:00:00 | |
| DL9PN | 2026-08-31 18:39:25 | 49.63712 | 8.91679 | 114° | 137km/h | 10198m | -5.3m/s | -48.4°C | 19.1% | 265.4hPa | 2.6V | 00:00:00 | 00:00:00 | 00:00:00 | |
| NBG1-10 | 2026-08-31 18:39:24 | 49.63726 | 8.91630 | 115° | 137km/h | 10203m | -5.2m/s | -48.4°C | 23.4% | 265.1hPa | 2.6V | 03:08:00 | 02:10:14 | 00:00:00 | |
| DL1NUX | 2026-08-31 18:39:23 | 49.63810 | 8.91337 | 113° | 137km/h | 10235m | -5.3m/s | -48.7°C | 23.7% | 263.9hPa | 2.6V | 03:08:22 | 02:10:08 | 00:00:00 | |
| DK5PH-5 | 2026-08-31 18:39:22 | 49.63754 | 8.91532 | 114° | 137km/h | 10214m | -5.3m/s | -48.5°C | 23.3% | 264.7hPa | 2.5V | 00:00:00 | 02:10:12 | 00:00:00 | |
| DL0LBS | 2026-08-31 18:39:20 | 49.63768 | 8.91483 | 115° | 137km/h | 10219m | -5.3m/s | -48.6°C | 19.2% | 264.6hPa | 2.5V | 03:08:00 | 00:00:00 | 00:00:00 | |
| DM0DOS-11 | 2026-08-31 18:39:19 | 49.63865 | 8.91142 | 113° | 137km/h | 10257m | -5.4m/s | -48.9°C | 24% | 263hPa | 2.5V | 03:08:26 | 02:10:04 | 00:00:00 | |
| BIOWL1-15 | 2026-08-31 18:39:18 | 49.63838 | 8.91239 | 113° | 137km/h | 10246m | -5.3m/s | -48.8°C | 25.2% | 263.5hPa | 2.5V | 03:08:27 | 02:10:06 | 00:00:00 | |
| DO3DL | 2026-08-31 18:39:15 | 49.63837 | 8.91239 | 114° | 137km/h | 10246m | -5.3m/s | -48.8°C | 19.6% | 263.5hPa | 2.6V | 00:00:00 | 00:00:00 | 00:00:00 | |
| DJTTGO | 2026-08-31 18:39:14 | 49.63851 | 8.91190 | 115° | 137km/h | 10251m | -5.3m/s | -48.9°C | 19.6% | 263.3hPa | 2.6V | 03:08:00 | 00:00:00 | 00:00:00 | |
| DL1NUX | 2026-08-31 18:39:13 | 49.63947 | 8.90849 | 112° | 137km/h | 10288m | -5.2m/s | -49.2°C | 24.3% | 261.8hPa | 2.6V | 03:08:32 | 02:09:58 | 00:00:00 | |
| SO1NDE-10 | 2026-08-31 18:39:13 | 49.63879 | 8.91093 | 114° | 137km/h | 10262m | -5.3m/s | -48.9°C | 24.1% | 262.8hPa | 2.6V | 00:00:00 | 02:10:03 | 00:00:00 | |
| DB0ND-19 | 2026-08-31 18:39:12 | 49.63907 | 8.90996 | 113° | 135km/h | 10272m | -5.1m/s | -49.1°C | 19.7% | 262.4hPa | 2.5V | 00:00:00 | 00:00:00 | 00:00:00 | |
| SFWM-10 | 2026-08-31 18:39:10 | 49.63906 | 8.90996 | 114° | 137km/h | 10272m | -5.1m/s | -49.1°C | 19.8% | 262.4hPa | 2.5V | 03:09:00 | 00:00:00 | 00:00:00 | |
| DM0DOS-11 | 2026-08-31 18:39:09 | 49.64000 | 8.90653 | 112° | 137km/h | 10309m | -5.5m/s | -49.3°C | 24.3% | 260.9hPa | 2.5V | 03:08:36 | 02:09:54 | 00:00:00 | |
| BIOWL1-15 | 2026-08-31 18:39:06 | 49.63974 | 8.90751 | 112° | 137km/h | 10299m | -5.5m/s | -49.3°C | 25.5% | 261.3hPa | 2.5V | 03:09:18 | 02:09:56 | 00:00:00 | |
| DF7PN | 2026-08-31 18:39:06 | 49.63987 | 8.90702 | 112° | 135km/h | 10304m | -5.2m/s | -49.3°C | 19.8% | 261.2hPa | 2.5V | 00:00:00 | 00:00:00 | 00:00:00 | |
| BIOWL9-15 | 2026-08-31 18:39:04 | 49.64000 | 8.90653 | 112° | 135km/h | 10309m | -5.5m/s | -49.3°C | -1.0% | 260.9hPa | 2.5V | 00:00:00 | 00:00:00 | 00:00:00 | |
| DL1NUX | 2026-08-31 18:39:03 | 49.64077 | 8.90359 | 112° | 135km/h | 10342m | -5.5m/s | -49.5°C | 24.3% | 259.7hPa | 2.5V | 03:08:42 | 02:09:48 | 00:00:00 | |
| DO3DL | 2026-08-31 18:39:02 | 49.64013 | 8.90604 | 113° | 137km/h | 10315m | -5.4m/s | -49.4°C | 19.8% | 260.7hPa | 2.6V | 03:09:00 | 00:00:00 | 00:00:00 | |
| DM7RM-13 | 2026-08-31 18:39:01 | 49.64025 | 8.90555 | 113° | 135km/h | 10320m | -5.5m/s | -49.4°C | 19.8% | 260.5hPa | 2.6V | 03:09:00 | 00:00:00 | 00:00:00 | |
| DM0DOS-11 | 2026-08-31 18:38:59 | 49.64130 | 8.90162 | 112° | 137km/h | 10364m | -5.5m/s | -49.7°C | 24.3% | 258.8hPa | 2.6V | 03:08:46 | 02:09:44 | 00:00:00 | |
| BIOWL1-15 | 2026-08-31 18:38:57 | 49.64116 | 8.90212 | 113° | 137km/h | 10358m | -5.2m/s | -49.6°C | 25.4% | 259hPa | 2.6V | 03:09:18 | 02:09:45 | 00:00:00 | |
| DL9PN | 2026-08-31 18:38:54 | 49.64130 | 8.90163 | 112° | 137km/h | 10364m | -5.5m/s | -49.7°C | 19.7% | 258.8hPa | 2.5V | 00:00:00 | 00:00:00 | 00:00:00 | |
| DL1NUX | 2026-08-31 18:38:53 | 49.64210 | 8.89865 | 112° | 139km/h | 10396m | -5.3m/s | -49.8°C | 24.3% | 257.5hPa | 2.5V | 03:08:52 | 02:09:38 | 00:00:00 | |
| DK5PH-5 | 2026-08-31 18:38:52 | 49.64156 | 8.90064 | 113° | 141km/h | 10375m | -5.5m/s | -49.7°C | 24.3% | 258.3hPa | 2.5V | 00:00:00 | 02:09:42 | 00:00:00 | |
| NBG1-10 | 2026-08-31 18:38:51 | 49.64170 | 8.90014 | 113° | 141km/h | 10380m | -5.4m/s | -49.7°C | 24.3% | 258.1hPa | 2.5V | 00:00:00 | 02:09:41 | 00:00:00 | |
| DM0DOS-11 | 2026-08-31 18:38:49 | 49.64264 | 8.89665 | 112° | 141km/h | 10418m | -5.5m/s | -49.9°C | 24.2% | 256.7hPa | 2.6V | 03:08:56 | 02:09:34 | 00:00:00 | |
| BIOWL1-15 | 2026-08-31 18:38:47 | 49.64250 | 8.89715 | 113° | 139km/h | 10413m | -5.6m/s | -49.9°C | 25.2% | 256.9hPa | 2.6V | 03:09:18 | 02:09:35 | 00:00:00 | |
| DO3MHA-11 | 2026-08-31 18:38:47 | 49.64223 | 8.89815 | 113° | 141km/h | 10402m | -5.4m/s | -49.8°C | 24.3% | 257.3hPa | 2.5V | 00:00:00 | 02:09:37 | 00:00:00 | |
| DF1GD-15 | 2026-08-31 18:38:46 | 49.64223 | 8.89815 | 113° | 139km/h | 10402m | -5.4m/s | -49.8°C | 19.8% | 257.3hPa | 2.5V | 03:09:00 | 00:00:00 | 00:00:00 | |
| DL1NUX | 2026-08-31 18:38:43 | 49.64344 | 8.89360 | 111° | 141km/h | 10452m | -5.3m/s | -50.1°C | 24.3% | 255.3hPa | 2.5V | 03:09:02 | 02:09:28 | 00:00:00 | |
| SO1NDE-10 | 2026-08-31 18:38:43 | 49.64277 | 8.89614 | 113° | 141km/h | 10424m | -5.4m/s | -49.9°C | 24.3% | 256.4hPa | 2.6V | 00:00:00 | 02:09:33 | 00:00:00 | |
| DM7RM-13 | 2026-08-31 18:38:42 | 49.64290 | 8.89564 | 113° | 141km/h | 10430m | -5.7m/s | -50.0°C | 19.8% | 256.2hPa | 2.6V | 03:09:00 | 00:00:00 | 00:00:00 | |
| DB0ND-19 | 2026-08-31 18:38:41 | 49.64318 | 8.89462 | 111° | 141km/h | 10441m | -5.3m/s | -50.0°C | 19.8% | 255.8hPa | 2.6V | 00:00:00 | 00:00:00 | 00:00:00 | |
| DM0DOS-11 | 2026-08-31 18:38:39 | 49.64394 | 8.89156 | 110° | 141km/h | 10474m | -5.6m/s | -50.1°C | 24.2% | 254.5hPa | 2.6V | 03:09:06 | 02:09:24 | 00:00:00 | |
| BIOWL1-15 | 2026-08-31 18:38:35 | 49.64381 | 8.89207 | 110° | 141km/h | 10468m | -5.5m/s | -50.1°C | 25.3% | 254.7hPa | 2.6V | 03:09:18 | 02:09:25 | 00:00:00 | |
| DK7TD | 2026-08-31 18:38:34 | 49.64394 | 8.89156 | 111° | 141km/h | 10474m | -5.6m/s | 0°C | 0% | 0hPa | 2.6V | 18:12:15 | 02:09:24 | 00:00:00 | |
| BIOWL9-15 | 2026-08-31 18:38:33 | 49.64406 | 8.89104 | 110° | 139km/h | 10479m | -5.5m/s | -50.2°C | -1.0% | 254.3hPa | 2.5V | 00:00:00 | 00:00:00 | 00:00:00 | |
| DL1ZP-14 | 2026-08-31 18:38:32 | 49.64419 | 8.89053 | 110° | 139km/h | 10485m | -5.6m/s | -50.2°C | 19.7% | 254.1hPa | 2.5V | 00:00:00 | 00:00:00 | 00:00:00 | |
| DM0DOS-11 | 2026-08-31 18:38:29 | 49.64524 | 8.88645 | 111° | 141km/h | 10530m | -5.5m/s | -50.5°C | 24.5% | 252.3hPa | 2.6V | 03:09:16 | 02:09:14 | 00:00:00 | |
| BIOWL1-15 | 2026-08-31 18:38:27 | 49.64511 | 8.88696 | 112° | 142km/h | 10524m | -5.6m/s | -50.5°C | 25.1% | 252.5hPa | 2.6V | 03:09:18 | 02:09:15 | 00:00:00 | |
| DO3MHA-11 | 2026-08-31 18:38:27 | 49.64484 | 8.88798 | 112° | 141km/h | 10513m | -5.6m/s | -50.4°C | 24.6% | 252.9hPa | 2.5V | 00:00:00 | 02:09:17 | 00:00:00 | |
| DF1GD-15 | 2026-08-31 18:38:26 | 49.64498 | 8.88747 | 113° | 142km/h | 10519m | -5.6m/s | -50.4°C | 19.9% | 252.8hPa | 2.5V | 03:09:00 | 00:00:00 | 00:00:00 | |
| BIOWL7-15 | 2026-08-31 18:38:25 | 49.64498 | 8.88747 | 113° | 142km/h | 10519m | -5.6m/s | -50.4°C | 19.9% | 252.8hPa | 2.5V | 00:00:00 | 00:00:00 | 00:00:00 | |
| DL9PN | 2026-08-31 18:38:23 | 49.64550 | 8.88543 | 111° | 139km/h | 10541m | -5.6m/s | -50.5°C | 19.8% | 251.9hPa | 2.5V | 00:00:00 | 00:00:00 | 00:00:00 | |
| DK5PH-5 | 2026-08-31 18:38:22 | 49.64550 | 8.88543 | 112° | 141km/h | 10541m | -5.5m/s | -50.4°C | 24.6% | 251.8hPa | 2.5V | 00:00:00 | 02:09:12 | 00:00:00 | |
| DO3DL | 2026-08-31 18:38:21 | 49.64550 | 8.88543 | 112° | 141km/h | 10541m | -5.6m/s | -50.5°C | 19.8% | 251.9hPa | 2.6V | 03:09:00 | 00:00:00 | 00:00:00 | |
| DM7RM-13 | 2026-08-31 18:38:20 | 49.64563 | 8.88492 | 112° | 141km/h | 10547m | -5.6m/s | -50.5°C | 19.8% | 251.6hPa | 2.6V | 03:10:00 | 00:00:00 | 00:00:00 | |
| DM0DOS-11 | 2026-08-31 18:38:19 | 49.64656 | 8.88138 | 112° | 141km/h | 10586m | -5.7m/s | -50.3°C | 23.6% | 250.1hPa | 2.6V | 03:09:26 | 02:09:04 | 00:00:00 | |
| DK7TD | 2026-08-31 18:38:17 | 49.64616 | 8.88290 | 112° | 141km/h | 10569m | -5.7m/s | 0°C | 0% | 0hPa | 2.5V | 18:12:15 | 02:09:07 | 00:00:00 | |
| BIOWL1-15 | 2026-08-31 18:38:14 | 49.64657 | 8.88138 | 112° | 141km/h | 10586m | -5.7m/s | -50.3°C | 24.5% | 250.1hPa | 2.6V | 03:10:09 | 02:09:04 | 00:00:00 | |
| DJTTGO | 2026-08-31 18:38:12 | 49.64670 | 8.88088 | 113° | 141km/h | 10592m | -5.8m/s | -50.3°C | 19.1% | 249.9hPa | 2.5V | 03:10:00 | 00:00:00 | 00:00:00 | |
| KANTATE | 2026-08-31 18:38:10 | 49.64697 | 8.87986 | 112° | 141km/h | 10604m | -5.7m/s | -50.4°C | 19.2% | 249.5hPa | 2.5V | 00:00:00 | 00:00:00 | 00:00:00 | |
| DM0DOS-11 | 2026-08-31 18:38:09 | 49.64787 | 8.87626 | 110° | 142km/h | 10644m | -5.6m/s | -50.6°C | 23.6% | 247.9hPa | 2.5V | 03:09:36 | 02:08:54 | 00:00:00 | |
| BIOWL1-15 | 2026-08-31 18:38:04 | 49.64787 | 8.87626 | 111° | 142km/h | 10644m | -5.6m/s | -50.6°C | 24.3% | 247.9hPa | 2.5V | 03:10:09 | 02:08:54 | 00:00:00 | |
| DB0UT-7 | 2026-08-31 18:38:04 | 49.64787 | 8.87626 | 111° | 142km/h | 10644m | -5.6m/s | -50.5°C | 23.6% | 247.9hPa | 2.5V | 00:00:00 | 02:08:54 | 00:00:00 | |
| DL1KLB | 2026-08-31 18:38:03 | 49.64787 | 8.87626 | 112° | 142km/h | 10644m | -5.6m/s | -50.6°C | 19.0% | 247.9hPa | 2.6V | 03:10:00 | 00:00:00 | 00:00:00 | |
| BIOWL9-15 | 2026-08-31 18:38:02 | 49.64812 | 8.87523 | 110° | 141km/h | 10655m | -5.8m/s | 0°C | -1.0% | -1.0hPa | 2.6V | 00:00:00 | 00:00:00 | 00:00:00 | |
| DL1ZP-14 | 2026-08-31 18:38:01 | 49.64824 | 8.87471 | 110° | 141km/h | 10661m | -5.9m/s | -50.6°C | 18.8% | 247.3hPa | 2.6V | 00:00:00 | 00:00:00 | 00:00:00 | |
| DM0DOS-11 | 2026-08-31 18:37:59 | 49.64906 | 8.87105 | 108° | 142km/h | 10702m | -5.9m/s | -50.7°C | 23.1% | 245.7hPa | 2.5V | 03:09:46 | 02:08:44 | 00:00:00 | |
| BIOWL1-15 | 2026-08-31 18:37:54 | 49.64906 | 8.87105 | 108° | 142km/h | 10702m | -5.9m/s | -50.7°C | 23.9% | 245.7hPa | 2.5V | 03:10:09 | 02:08:44 | 00:00:00 | |
| DL9PN | 2026-08-31 18:37:52 | 49.64940 | 8.86946 | 108° | 144km/h | 10720m | -5.8m/s | -50.8°C | 18.3% | 245.0hPa | 2.5V | 00:00:00 | 00:00:00 | 00:00:00 | |
| BIOWL7-15 | 2026-08-31 18:37:51 | 49.64929 | 8.86999 | 109° | 144km/h | 10714m | -5.8m/s | -50.8°C | 18.4% | 245.2hPa | 2.5V | 03:10:00 | 00:00:00 | 00:00:00 | |
| DM0DOS-11 | 2026-08-31 18:37:49 | 49.65024 | 8.86576 | 109° | 141km/h | 10761m | -6.2m/s | -50.7°C | 22.4% | 243.5hPa | 2.5V | 03:09:56 | 02:08:34 | 00:00:00 | |
| BIOWL1-15 | 2026-08-31 18:37:43 | 49.65036 | 8.86524 | 109° | 141km/h | 10768m | -6m/s | -50.7°C | 23.3% | 243.2hPa | 2.5V | 03:10:09 | 02:08:33 | 00:00:00 | |
| BEGRI65-1 | 2026-08-31 18:37:41 | 49.65048 | 8.86473 | 110° | 141km/h | 10774m | -5.9m/s | -50.8°C | 17.8% | 243.0hPa | 2.5V | 03:10:00 | 00:00:00 | 00:00:00 | |
| DM0DOS-11 | 2026-08-31 18:37:39 | 49.65141 | 8.86059 | 109° | 141km/h | 10823m | -6.4m/s | -50.8°C | 21.7% | 241.1hPa | 2.5V | 03:10:06 | 02:08:24 | 00:00:00 | |
| BIOWL1-15 | 2026-08-31 18:37:37 | 49.65152 | 8.86008 | 109° | 141km/h | 10829m | -6.7m/s | -50.8°C | 22.8% | 240.9hPa | 2.5V | 03:10:09 | 02:08:23 | 00:00:00 | |
| DO3MHA-11 | 2026-08-31 18:37:37 | 49.65105 | 8.86215 | 110° | 141km/h | 10804m | -6.0m/s | -50.8°C | 22.2% | 241.7hPa | 2.5V | 03:10:00 | 02:08:27 | 00:00:00 | |
| DB0UT-9 | 2026-08-31 18:37:36 | 49.65105 | 8.86214 | 110° | 141km/h | 10804m | -6.1m/s | -50.8°C | 17.7% | 241.8hPa | 2.5V | 03:10:00 | 00:00:00 | 00:00:00 | |
| DB0UT-7 | 2026-08-31 18:37:34 | 49.65140 | 8.86059 | 110° | 141km/h | 10823m | -6.3m/s | -50.7°C | 21.7% | 241.1hPa | 2.5V | 00:00:00 | 00:00:00 | 00:00:00 | |
| DF7PN | 2026-08-31 18:37:33 | 49.65164 | 8.85956 | 109° | 139km/h | 10836m | -6.2m/s | -50.8°C | 17.2% | 240.7hPa | 2.5V | 00:00:00 | 00:00:00 | 00:00:00 | |
| DL1ZP-14 | 2026-08-31 18:37:30 | 49.65188 | 8.85853 | 109° | 139km/h | 10848m | -6.3m/s | -50.8°C | 17.1% | 240.2hPa | 2.5V | 00:00:00 | 00:00:00 | 00:00:00 | |
| DM0DOS-11 | 2026-08-31 18:37:29 | 49.65262 | 8.85548 | 110° | 139km/h | 10886m | -6.3m/s | -51°C | 21.3% | 238.8hPa | 2.5V | 03:10:16 | 02:08:14 | 00:00:00 | |
| BIOWL1-15 | 2026-08-31 18:37:22 | 49.65287 | 8.85446 | 111° | 141km/h | 10898m | -6.5m/s | -51.1°C | 22.8% | 238.3hPa | 2.6V | 03:11:00 | 02:08:12 | 00:00:00 | |
| DK5PH-5 | 2026-08-31 18:37:22 | 49.65286 | 8.85446 | 111° | 142km/h | 10899m | -6.5m/s | -51.0°C | 21.3% | 238.2hPa | 2.5V | 00:00:00 | 02:08:12 | 00:00:00 | |
| BEGRI65-1 | 2026-08-31 18:37:20 | 49.65299 | 8.85394 | 111° | 141km/h | 10905m | -6.6m/s | -51.1°C | 16.9% | 238.1hPa | 2.5V | 03:11:00 | 00:00:00 | 00:00:00 | |
| DM0DOS-11 | 2026-08-31 18:37:19 | 49.65387 | 8.85036 | 111° | 141km/h | 10951m | -6.4m/s | -51.5°C | 21.7% | 236.3hPa | 2.5V | 03:10:26 | 02:08:04 | 00:00:00 | |
| DO3MHA-11 | 2026-08-31 18:37:17 | 49.65349 | 8.85188 | 111° | 141km/h | 10932m | -6.4m/s | -51.3°C | 21.5% | 237.0hPa | 2.6V | 00:00:00 | 02:08:07 | 00:00:00 | |
| DL1NUX | 2026-08-31 18:37:16 | 49.65427 | 8.84883 | 112° | 141km/h | 10969m | -6.4m/s | -51.6°C | 21.8% | 235.7hPa | 2.6V | 03:10:29 | 02:08:01 | 00:00:00 | |
| BIOWL1-15 | 2026-08-31 18:37:12 | 49.65413 | 8.84934 | 112° | 141km/h | 10963m | -6.3m/s | -51.6°C | 22.8% | 235.9hPa | 2.6V | 03:11:00 | 02:08:02 | 00:00:00 | |
| HSKMA3-T | 2026-08-31 18:37:10 | 49.65440 | 8.84832 | 112° | 142km/h | 10976m | -6.5m/s | -51.7°C | 22.8% | 235.4hPa | 2.5V | 03:14:24 | 02:08:00 | 00:00:00 | |
| DM0DOS-11 | 2026-08-31 18:37:09 | 49.65517 | 8.84518 | 109° | 146km/h | 11016m | -6.9m/s | -52.1°C | 21.7% | 234hPa | 2.5V | 03:10:36 | 02:07:54 | 00:00:00 | |
| DJTTGO | 2026-08-31 18:37:08 | 49.65454 | 8.84780 | 113° | 142km/h | 10983m | -6.6m/s | -51.8°C | 17.4% | 235.2hPa | 2.6V | 03:11:00 | 00:00:00 | 00:00:00 | |
| DO3MHA-11 | 2026-08-31 18:37:07 | 49.65480 | 8.84677 | 111° | 146km/h | 10995m | -6.3m/s | -51.8°C | 22.0% | 234.7hPa | 2.6V | 00:00:00 | 02:07:57 | 00:00:00 | |
| DO3DL | 2026-08-31 18:37:06 | 49.65480 | 8.84677 | 112° | 144km/h | 10995m | -6.3m/s | -51.9°C | 17.3% | 234.7hPa | 2.6V | 03:11:00 | 00:00:00 | 00:00:00 | |
| DB0UT-7 | 2026-08-31 18:37:04 | 49.65517 | 8.84518 | 110° | 135km/h | 11016m | -6.9m/s | -52.0°C | 21.7% | 234.0hPa | 2.6V | 03:10:00 | 02:07:54 | 00:00:00 | |
| KANTATE | 2026-08-31 18:37:03 | 49.65517 | 8.84518 | 110° | 146km/h | 11016m | -6.9m/s | -52.1°C | 17.0% | 234.0hPa | 2.6V | 00:00:00 | 00:00:00 | 00:00:00 | |
| DL1NUX | 2026-08-31 18:37:02 | 49.65606 | 8.84143 | 111° | 142km/h | 11070m | -7.2m/s | -52.5°C | 22% | 232.1hPa | 2.6V | 03:10:43 | 02:07:47 | 00:00:00 | |
| BIOWL1-15 | 2026-08-31 18:37:01 | 49.65554 | 8.84355 | 109° | 148km/h | 11039m | -8m/s | -52.3°C | 22% | 233.2hPa | 2.6V | 03:11:00 | 02:07:51 | 00:00:00 | |
| DL1KLB | 2026-08-31 18:37:00 | 49.65553 | 8.84355 | 110° | 148km/h | 11039m | -8.0m/s | -52.3°C | 17.0% | 233.2hPa | 2.5V | 03:11:00 | 00:00:00 | 00:00:00 | |
| DM0DOS-11 | 2026-08-31 18:36:59 | 49.65646 | 8.83991 | 112° | 139km/h | 11092m | -7.5m/s | -52.5°C | 21.5% | 231.3hPa | 2.5V | 03:10:46 | 02:07:44 | 00:00:00 | |
| DF2AP-13 | 2026-08-31 18:36:58 | 49.65592 | 8.84195 | 111° | 131km/h | 11062m | -7.5m/s | -52.5°C | 22.1% | 232.3hPa | 2.6V | 00:00:00 | 02:07:48 | 00:00:00 | |
| SO1NDE-10 | 2026-08-31 18:36:57 | 49.65606 | 8.84143 | 112° | 130km/h | 11070m | -7.1m/s | -52.4°C | 22.0% | 232.0hPa | 2.6V | 00:00:00 | 02:07:47 | 00:00:00 | |
| DB0UT-9 | 2026-08-31 18:36:53 | 49.65646 | 8.83991 | 114° | 139km/h | 11092m | -7.5m/s | -52.5°C | 16.7% | 231.3hPa | 2.6V | 03:11:00 | 00:00:00 | 00:00:00 | |
| DK5PH-5 | 2026-08-31 18:36:52 | 49.65673 | 8.83892 | 113° | 128km/h | 11107m | -7.3m/s | -52.6°C | 21.1% | 230.7hPa | 2.6V | 00:00:00 | 02:07:42 | 00:00:00 | |
| DL1NUX | 2026-08-31 18:36:51 | 49.65751 | 8.83601 | 111° | 131km/h | 11153m | -8.7m/s | -52.5°C | 18.8% | 229.3hPa | 2.6V | 03:10:54 | 02:07:36 | 00:00:00 | |
| BIOWL1-15 | 2026-08-31 18:36:51 | 49.65686 | 8.83844 | 112° | 135km/h | 11114m | -7m/s | -52.7°C | 20.5% | 230.5hPa | 2.6V | 03:11:00 | 02:07:41 | 00:00:00 | |
| DL9PN | 2026-08-31 18:36:50 | 49.65712 | 8.83746 | 112° | 135km/h | 11128m | -7.4m/s | -52.7°C | 15.4% | 230.0hPa | 2.5V | 00:00:00 | 00:00:00 | 00:00:00 | |
| DM0DOS-11 | 2026-08-31 18:36:49 | 49.65775 | 8.83505 | 111° | 131km/h | 11169m | -7.9m/s | -52.3°C | 18.1% | 228.6hPa | 2.5V | 03:10:56 | 02:07:34 | 00:00:00 | |
| HSKMA3-T | 2026-08-31 18:36:47 | 49.65738 | 8.83649 | 112° | 133km/h | 11144m | -8.7m/s | -52.6°C | 0% | 229.4hPa | 2.6V | 03:14:24 | 02:07:37 | 00:00:00 | |
| BIOWL1-15 | 2026-08-31 18:36:46 | 49.65825 | 8.83313 | 114° | 133km/h | 11200m | -7.6m/s | -52°C | 17.1% | 227.5hPa | 2.5V | 03:11:00 | 02:07:30 | 00:00:00 | |
| DF1GD-15 | 2026-08-31 18:36:42 | 49.65788 | 8.83458 | 112° | 131km/h | 11177m | -7.4m/s | -52.1°C | 13.6% | 228.3hPa | 2.6V | 03:11:00 | 00:00:00 | 00:00:00 | |
| DL1NUX | 2026-08-31 18:36:41 | 49.65882 | 8.83130 | 115° | 124km/h | 11232m | -8m/s | -51.9°C | 16.2% | 226.4hPa | 2.6V | 03:11:04 | 02:07:26 | 00:00:00 | |
| DL1KLB | 2026-08-31 18:36:40 | 49.65812 | 8.83361 | 113° | 133km/h | 11193m | -7.8m/s | -52.1°C | 13.2% | 227.7hPa | 2.5V | 03:11:00 | 00:00:00 | 00:00:00 | |
| DM0DOS-11 | 2026-08-31 18:36:39 | 49.65908 | 8.83042 | 113° | 122km/h | 11247m | -7.7m/s | -52°C | 16% | 225.8hPa | 2.5V | 03:11:06 | 02:07:24 | 00:00:00 | |
| NBG1-10 | 2026-08-31 18:36:39 | 49.65839 | 8.83266 | 115° | 122km/h | 11208m | -7.6m/s | -51.8°C | 16.6% | 227.1hPa | 2.5V | 00:00:00 | 02:07:29 | 00:00:00 | |
| DO3MHA-11 | 2026-08-31 18:36:37 | 49.65868 | 8.83174 | 117° | 124km/h | 11224m | -8.0m/s | -51.8°C | 16.2% | 226.6hPa | 2.5V | 00:00:00 | 02:07:27 | 00:00:00 | |
| DB0ND-19 | 2026-08-31 18:36:36 | 49.65882 | 8.83130 | 115° | 124km/h | 11232m | -8.0m/s | -51.9°C | 12.2% | 226.4hPa | 2.5V | 00:00:00 | 00:00:00 | 00:00:00 | |
| DB0UT-7 | 2026-08-31 18:36:33 | 49.65919 | 8.82998 | 113° | 120km/h | 11255m | -7.8m/s | -51.9°C | 15.9% | 225.5hPa | 2.5V | 00:00:00 | 00:00:00 | 00:00:00 | |
| DL1NUX | 2026-08-31 18:36:31 | 49.65999 | 8.82686 | 110° | 122km/h | 11311m | -8.1m/s | -52.2°C | 15.1% | 223.7hPa | 2.6V | 03:11:14 | 02:07:16 | 00:00:00 | |
| BIOWL1-15 | 2026-08-31 18:36:30 | 49.65954 | 8.82865 | 112° | 122km/h | 11279m | -7.8m/s | -52°C | 15.7% | 224.8hPa | 2.5V | 03:11:51 | 02:07:20 | 00:00:00 | |
| DB0NH | 2026-08-31 18:36:28 | 49.65977 | 8.82775 | 111° | 122km/h | 11295m | -8.1m/s | -52.1°C | 15.3% | 224.1hPa | 2.5V | 03:11:00 | 02:07:18 | 00:00:00 | |
| DO3MHA-11 | 2026-08-31 18:36:27 | 49.65988 | 8.82730 | 112° | 120km/h | 11303m | -8.0m/s | -52.2°C | 15.2% | 223.9hPa | 2.6V | 00:00:00 | 02:07:17 | 00:00:00 | |
| DM0DOS-11 | 2026-08-31 18:36:26 | 49.66053 | 8.82463 | 109° | 120km/h | 11352m | -8.4m/s | -52.4°C | 14.3% | 222.2hPa | 2.6V | 03:11:19 | 02:07:11 | 00:00:00 | |
| DO3DL | 2026-08-31 18:36:25 | 49.65999 | 8.82686 | 112° | 122km/h | 11311m | -8.1m/s | -52.3°C | 11.2% | 223.7hPa | 2.6V | 00:00:00 | 00:00:00 | 00:00:00 | |
| DK5PH-5 | 2026-08-31 18:36:22 | 49.66042 | 8.82508 | 110° | 120km/h | 11344m | -8.5m/s | -52.4°C | 14.5% | 222.5hPa | 2.6V | 00:00:00 | 02:07:12 | 00:00:00 | |
| DL1NUX | 2026-08-31 18:36:21 | 49.66098 | 8.82243 | 106° | 119km/h | 11394m | -8.6m/s | -52.7°C | 13.8% | 220.8hPa | 2.6V | 03:11:24 | 02:07:06 | 00:00:00 | |
| BIOWL1-15 | 2026-08-31 18:36:20 | 49.66063 | 8.82419 | 108° | 120km/h | 11361m | -8.7m/s | -52.5°C | 14.1% | 222hPa | 2.5V | 03:11:51 | 02:07:10 | 00:00:00 | |
| DL8DAS-14 | 2026-08-31 18:36:20 | 49.66063 | 8.82419 | 108° | 119km/h | 11361m | -8.7m/s | -52.5°C | 10.4% | 222.0hPa | 2.6V | 00:00:00 | 00:00:00 | 00:00:00 | |
| DO3DL | 2026-08-31 18:36:19 | 49.66072 | 8.82375 | 109° | 119km/h | 11369m | -8.0m/s | -52.5°C | 10.3% | 221.7hPa | 2.6V | 00:00:00 | 00:00:00 | 00:00:00 | |
| DO3MHA-11 | 2026-08-31 18:36:17 | 49.66090 | 8.82287 | 107° | 120km/h | 11386m | -8.4m/s | -52.6°C | 13.9% | 221.0hPa | 2.6V | 03:11:00 | 02:07:07 | 00:00:00 | |
| DL0LBS | 2026-08-31 18:36:16 | 49.66090 | 8.82287 | 108° | 119km/h | 11386m | -8.4m/s | -52.7°C | 10.1% | 221.1hPa | 2.5V | 03:11:00 | 00:00:00 | 00:00:00 | |
| DM0DOS-11 | 2026-08-31 18:36:14 | 49.66157 | 8.81924 | 105° | 122km/h | 11452m | -7.5m/s | -52.9°C | 13.3% | 218.8hPa | 2.5V | 03:11:31 | 02:06:59 | 00:00:00 | |
| HSKMA3-T | 2026-08-31 18:36:14 | 49.66115 | 8.82154 | 106° | 120km/h | 11411m | -8m/s | -52.8°C | 0% | 220.2hPa | 2.5V | 03:14:24 | 02:07:04 | 00:00:00 | |
| DD1CC8 | 2026-08-31 18:36:12 | 49.66140 | 8.82017 | 105° | 122km/h | 11436m | -8.1m/s | -52.9°C | 9.6% | 219.5hPa | 2.6V | 00:00:00 | 00:00:00 | 00:00:00 | |
| DL1NUX | 2026-08-31 18:36:11 | 49.66179 | 8.81786 | 102° | 120km/h | 11475m | -7.6m/s | -52.9°C | 12.6% | 218.1hPa | 2.6V | 03:11:34 | 02:06:56 | 00:00:00 | |
| BIOWL1-15 | 2026-08-31 18:36:09 | 49.66157 | 8.81924 | 105° | 122km/h | 11452m | -7.5m/s | -52.9°C | 12% | 218.8hPa | 2.5V | 03:11:51 | 02:06:59 | 00:00:00 | |
| DO3MHA-11 | 2026-08-31 18:36:07 | 49.66172 | 8.81832 | 104° | 120km/h | 11467m | -7.9m/s | -52.9°C | 12.8% | 218.3hPa | 2.5V | 00:00:00 | 02:06:57 | 00:00:00 | |
| NBG1-10 | 2026-08-31 18:36:06 | 49.66179 | 8.81786 | 103° | 124km/h | 11475m | -7.5m/s | -52.9°C | 12.6% | 218.1hPa | 2.5V | 00:00:00 | 02:06:56 | 00:00:00 | |
| DB0ND-19 | 2026-08-31 18:36:05 | 49.66185 | 8.81740 | 101° | 119km/h | 11482m | -7.9m/s | -52.9°C | 8.6% | 217.8hPa | 2.5V | 00:00:00 | 00:00:00 | 00:00:00 | |
| DM0DOS-11 | 2026-08-31 18:36:04 | 49.66211 | 8.81462 | 97° | 120km/h | 11530m | -7.1m/s | -52.9°C | 11.1% | 216.2hPa | 2.5V | 03:11:41 | 02:06:49 | 00:00:00 | |
| HSKMA3-T | 2026-08-31 18:36:03 | 49.66195 | 8.81649 | 99° | 119km/h | 11498m | -8m/s | -52.9°C | 0% | 217.3hPa | 2.5V | 03:14:24 | 02:06:53 | 00:00:00 | |
| DB0UT-7 | 2026-08-31 18:36:03 | 49.66195 | 8.81649 | 99° | 124km/h | 11498m | -8.0m/s | -52.9°C | 11.9% | 217.3hPa | 2.6V | 00:00:00 | 02:06:53 | 00:00:00 | |
| DL1NUX | 2026-08-31 18:36:01 | 49.66224 | 8.81322 | 98° | 120km/h | 11551m | -6.7m/s | -52.9°C | 10.7% | 215.5hPa | 2.6V | 03:11:44 | 02:06:46 | 00:00:00 | |
| BIOWL1-15 | 2026-08-31 18:36:01 | 49.66211 | 8.81462 | 97° | 120km/h | 11530m | -7.1m/s | -52.9°C | 9.5% | 216.2hPa | 2.5V | 03:11:51 | 02:06:49 | 00:00:00 | |
| HEMX73-11 | 2026-08-31 18:36:00 | 49.66204 | 8.81556 | 98° | 120km/h | 11514m | -8.3m/s | -52.9°C | 7.8% | 216.7hPa | 2.5V | 03:11:00 | 00:00:00 | 00:00:00 | |
| KANTATE | 2026-08-31 18:35:59 | 49.66208 | 8.81509 | 98° | 122km/h | 11522m | -7.6m/s | -52.8°C | 7.6% | 216.5hPa | 2.5V | 03:11:00 | 00:00:00 | 00:00:00 | |
| DB0NH | 2026-08-31 18:35:58 | 49.66215 | 8.81415 | 98° | 124km/h | 11537m | -7.2m/s | -52.8°C | 11.0% | 216.0hPa | 2.5V | 00:00:00 | 02:06:48 | 00:00:00 | |
| SO1NDE-10 | 2026-08-31 18:35:57 | 49.66219 | 8.81368 | 99° | 124km/h | 11544m | -6.9m/s | -52.8°C | 10.9% | 215.7hPa | 2.5V | 00:00:00 | 02:06:47 | 00:00:00 | |
| DM7RM-13 | 2026-08-31 18:35:56 | 49.66219 | 8.81368 | 99° | 120km/h | 11544m | -7.0m/s | -52.9°C | 7.4% | 215.8hPa | 2.5V | 03:11:00 | 00:00:00 | 00:00:00 | |
| DL0LBS | 2026-08-31 18:35:55 | 49.66224 | 8.81322 | 100° | 120km/h | 11551m | -6.7m/s | -52.9°C | 7.2% | 215.5hPa | 2.5V | 03:11:00 | 00:00:00 | 00:00:00 | |
| DM0DOS-11 | 2026-08-31 18:35:54 | 49.66262 | 8.81000 | 99° | 122km/h | 11599m | -6.7m/s | -52.4°C | 9% | 213.9hPa | 2.5V | 03:11:51 | 02:06:39 | 00:00:00 | |
| HSKMA3-T | 2026-08-31 18:35:52 | 49.66246 | 8.81139 | 101° | 120km/h | 11579m | -7.3m/s | -52.5°C | 0% | 214.6hPa | 2.6V | 03:14:24 | 02:06:42 | 00:00:00 | |
| DK5PH-5 | 2026-08-31 18:35:52 | 49.66246 | 8.81139 | 101° | 122km/h | 11580m | -7.2m/s | -52.5°C | 9.6% | 214.5hPa | 2.6V | 03:11:00 | 02:06:42 | 00:00:00 | |
| DL1NUX | 2026-08-31 18:35:51 | 49.66278 | 8.80856 | 98° | 126km/h | 11620m | -6.6m/s | -52°C | 8.2% | 213.2hPa | 2.6V | 03:11:54 | 02:06:36 | 00:00:00 | |
| BIOWL1-15 | 2026-08-31 18:35:48 | 49.66267 | 8.80953 | 99° | 124km/h | 11606m | -6.8m/s | -52.4°C | 6.5% | 213.6hPa | 2.5V | 03:12:42 | 02:06:38 | 00:00:00 | |
| DL9PN | 2026-08-31 18:35:48 | 49.66273 | 8.80905 | 99° | 124km/h | 11613m | -6.5m/s | -52.3°C | 5.4% | 213.4hPa | 2.5V | 00:00:00 | 00:00:00 | 00:00:00 | |
| DM0DOS-11 | 2026-08-31 18:35:43 | 49.66322 | 8.80461 | 100° | 130km/h | 11674m | -7m/s | -51°C | 6.7% | 211.5hPa | 2.5V | 03:12:02 | 02:06:28 | 00:00:00 | |
| DL8DAS-15 | 2026-08-31 18:35:42 | 49.66293 | 8.80709 | 100° | 128km/h | 11640m | -6.5m/s | -51.3°C | 4.5% | 212.5hPa | 2.6V | 00:00:00 | 00:00:00 | 00:00:00 | |
| DL1NUX | 2026-08-31 18:35:41 | 49.66334 | 8.80363 | 101° | 126km/h | 11689m | -7.5m/s | -50.7°C | 6.4% | 211hPa | 2.6V | 03:12:04 | 02:06:26 | 00:00:00 | |
| BIOWL1-15 | 2026-08-31 18:35:38 | 49.66322 | 8.80461 | 101° | 130km/h | 11674m | -7m/s | -51°C | 4.3% | 211.5hPa | 2.5V | 03:12:42 | 02:06:28 | 00:00:00 | |
| DO3MHA-11 | 2026-08-31 18:35:37 | 49.66328 | 8.80411 | 101° | 122km/h | 11682m | -7.2m/s | -50.8°C | 6.6% | 211.2hPa | 2.5V | 03:12:00 | 02:06:27 | 00:00:00 | |
| DM7RM-13 | 2026-08-31 18:35:36 | 49.66328 | 8.80411 | 102° | 128km/h | 11682m | -7.2m/s | -50.9°C | 3.9% | 211.2hPa | 2.5V | 03:12:00 | 00:00:00 | 00:00:00 | |
| DB0ND-19 | 2026-08-31 18:35:34 | 49.66346 | 8.80267 | 101° | 122km/h | 11704m | -7.2m/s | -50.6°C | 3.5% | 210.5hPa | 2.5V | 00:00:00 | 00:00:00 | 00:00:00 | |
| DM0DOS-11 | 2026-08-31 18:35:33 | 49.66384 | 8.79992 | 102° | 117km/h | 11747m | -6.6m/s | -50.2°C | 5.6% | 209.1hPa | 2.5V | 03:12:12 | 02:06:18 | 00:00:00 | |
| NBG1-10 | 2026-08-31 18:35:33 | 49.66352 | 8.80220 | 101° | 110km/h | 11711m | -7.1m/s | -50.5°C | 6.0% | 210.2hPa | 2.5V | 00:00:00 | 02:06:23 | 00:00:00 | |
| DL1NUX | 2026-08-31 18:35:31 | 49.66397 | 8.79903 | 103° | 115km/h | 11760m | -6.5m/s | -49.9°C | 5.3% | 208.6hPa | 2.6V | 03:12:14 | 02:06:16 | 00:00:00 | |
| HSKMA3-T | 2026-08-31 18:35:29 | 49.66377 | 8.80036 | 103° | 119km/h | 11740m | -6.9m/s | -50.3°C | 0% | 209.3hPa | 2.5V | 03:14:24 | 02:06:19 | 00:00:00 | |
| BIOWL1-15 | 2026-08-31 18:35:29 | 49.66391 | 8.79947 | 103° | 117km/h | 11754m | -6.8m/s | -50°C | 2.9% | 208.9hPa | 2.6V | 03:12:42 | 02:06:17 | 00:00:00 | |
| DF2AP-13 | 2026-08-31 18:35:28 | 49.66384 | 8.79992 | 103° | 108km/h | 11747m | -6.5m/s | -50.2°C | 5.6% | 209.0hPa | 2.6V | 00:00:00 | 02:06:18 | 00:00:00 | |
| SO1NDE-10 | 2026-08-31 18:35:27 | 49.66390 | 8.79947 | 104° | 106km/h | 11754m | -6.8m/s | -49.9°C | 5.4% | 208.8hPa | 2.6V | 00:00:00 | 02:06:17 | 00:00:00 | |
| DL1ZP-14 | 2026-08-31 18:35:26 | 49.66397 | 8.79903 | 103° | 115km/h | 11760m | -6.5m/s | -49.9°C | 2.9% | 208.6hPa | 2.6V | 00:00:00 | 00:00:00 | 00:00:00 | |
| DM0DOS-11 | 2026-08-31 18:35:23 | 49.66446 | 8.79566 | 101° | 108km/h | 11813m | -6.4m/s | -49.1°C | 4.8% | 207hPa | 2.5V | 03:12:22 | 02:06:08 | 00:00:00 | |
| DK5PH-5 | 2026-08-31 18:35:22 | 49.66423 | 8.79732 | 103° | 102km/h | 11787m | -6.6m/s | -49.3°C | 5.0% | 207.8hPa | 2.6V | 00:00:00 | 02:06:12 | 00:00:00 | |
| DL1NUX | 2026-08-31 18:35:21 | 49.66457 | 8.79484 | 101° | 108km/h | 11826m | -6.4m/s | -49.2°C | 4.7% | 206.6hPa | 2.6V | 03:12:24 | 02:06:06 | 00:00:00 | |
| BIOWL1-15 | 2026-08-31 18:35:16 | 49.66457 | 8.79484 | 101° | 108km/h | 11826m | -6.4m/s | -49.2°C | 2.4% | 206.6hPa | 2.6V | 03:12:42 | 02:06:06 | 00:00:00 | |
| HSKMA3-T | 2026-08-31 18:35:15 | 49.66462 | 8.79444 | 102° | 106km/h | 11833m | -7.3m/s | -49.2°C | 0% | 206.3hPa | 2.5V | 03:14:24 | 02:06:05 | 00:00:00 | |
| DL0LBS | 2026-08-31 18:35:14 | 49.66462 | 8.79444 | 103° | 106km/h | 11833m | -7.3m/s | -49.2°C | 2.5% | 206.3hPa | 2.5V | 03:12:00 | 00:00:00 | 00:00:00 | |
| DM0DOS-11 | 2026-08-31 18:35:13 | 49.66501 | 8.79172 | 102° | 100km/h | 11881m | -6.7m/s | -49.3°C | 4.7% | 204.8hPa | 2.5V | 03:12:32 | 02:05:58 | 00:00:00 | |
| DO3DL | 2026-08-31 18:35:12 | 49.66473 | 8.79364 | 103° | 104km/h | 11848m | -7.3m/s | -49.3°C | 2.5% | 205.9hPa | 2.6V | 03:12:00 | 00:00:00 | 00:00:00 | |
| DL1NUX | 2026-08-31 18:35:11 | 49.66512 | 8.79095 | 102° | 102km/h | 11895m | -6.5m/s | -49.4°C | 4.7% | 204.4hPa | 2.6V | 03:12:34 | 02:05:56 | 00:00:00 | |
| BIOWL1-15 | 2026-08-31 18:35:10 | 49.66512 | 8.79095 | 102° | 102km/h | 11895m | -6.5m/s | -49.4°C | 2.3% | 204.5hPa | 2.6V | 03:12:42 | 02:05:56 | 00:00:00 | |
| DB0UT-9 | 2026-08-31 18:35:09 | 49.66490 | 8.79247 | 104° | 100km/h | 11868m | -6.7m/s | -49.3°C | 2.4% | 205.3hPa | 2.5V | 00:00:00 | 00:00:00 | 00:00:00 | |
| DO3MHA-11 | 2026-08-31 18:35:07 | 49.66506 | 8.79133 | 102° | 102km/h | 11888m | -6.4m/s | -49.3°C | 4.7% | 204.6hPa | 2.5V | 00:00:00 | 02:05:57 | 00:00:00 | |
| DO3DL | 2026-08-31 18:35:05 | 49.66512 | 8.79095 | 103° | 102km/h | 11895m | -6.5m/s | -49.4°C | 2.5% | 204.5hPa | 2.5V | 03:12:00 | 00:00:00 | 00:00:00 | |
| DM0DOS-11 | 2026-08-31 18:35:03 | 49.66550 | 8.78781 | 98° | 100km/h | 11947m | -6.5m/s | -49.7°C | 4.7% | 202.8hPa | 2.5V | 03:12:42 | 02:05:48 | 00:00:00 | |
| DB0UT-7 | 2026-08-31 18:35:03 | 49.66527 | 8.78977 | 102° | 100km/h | 11914m | -6.1m/s | -49.5°C | 4.7% | 203.7hPa | 2.5V | 03:12:00 | 02:05:53 | 00:00:00 | |
| DL1NUX | 2026-08-31 18:35:01 | 49.66557 | 8.78705 | 97° | 99km/h | 11960m | -6.5m/s | -49.8°C | 4.7% | 202.4hPa | 2.6V | 03:12:44 | 02:05:46 | 00:00:00 | |
| BIOWL1-15 | 2026-08-31 18:34:55 | 49.66560 | 8.78667 | 98° | 97km/h | 11967m | -6.6m/s | -49.8°C | 2.2% | 202.2hPa | 2.5V | 03:13:33 | 02:05:45 | 00:00:00 | |
| DL1ZP-14 | 2026-08-31 18:34:55 | 49.66564 | 8.78630 | 97° | 95km/h | 11973m | -6.6m/s | -49.9°C | 2.4% | 202.0hPa | 2.5V | 00:00:00 | 00:00:00 | 00:00:00 | |
| DF2AP-13 | 2026-08-31 18:34:54 | 49.66564 | 8.78630 | 98° | 100km/h | 11974m | -6.6m/s | -49.8°C | 4.7% | 201.9hPa | 2.5V | 00:00:00 | 02:05:44 | 00:00:00 | |
| DL0LBS | 2026-08-31 18:34:53 | 49.66564 | 8.78630 | 99° | 97km/h | 11974m | -6.6m/s | -49.9°C | 2.5% | 202.0hPa | 2.6V | 03:13:00 | 00:00:00 | 00:00:00 | |
| DK5PH-5 | 2026-08-31 18:34:52 | 49.66571 | 8.78555 | 98° | 100km/h | 11987m | -6.6m/s | -49.9°C | 4.7% | 201.5hPa | 2.6V | 00:00:00 | 02:05:42 | 00:00:00 | |
| DL1NUX | 2026-08-31 18:34:51 | 49.66587 | 8.78327 | 95° | 99km/h | 12026m | -6.5m/s | -50.1°C | 4.5% | 200.3hPa | 2.6V | 03:12:54 | 02:05:36 | 00:00:00 | |
| HSKMA3-T | 2026-08-31 18:34:49 | 49.66580 | 8.78442 | 96° | 99km/h | 12007m | -6.7m/s | -50.1°C | 0% | 200.9hPa | 2.5V | 03:14:24 | 02:05:39 | 00:00:00 | |
| BIOWL1-15 | 2026-08-31 18:34:45 | 49.66589 | 8.78289 | 95° | 99km/h | 12033m | -7m/s | -50°C | 1.8% | 200.1hPa | 2.5V | 03:13:33 | 02:05:35 | 00:00:00 | |
| DO3DL | 2026-08-31 18:34:44 | 49.66589 | 8.78289 | 96° | 99km/h | 12033m | -7.0m/s | -50.0°C | 2.2% | 200.1hPa | 2.5V | 03:13:00 | 00:00:00 | 00:00:00 | |
| DM0DOS-11 | 2026-08-31 18:34:43 | 49.66602 | 8.78019 | 94° | 100km/h | 12079m | -6.7m/s | -50°C | 4.4% | 198.7hPa | 2.5V | 03:13:02 | 02:05:28 | 00:00:00 | |
| DL1NUX | 2026-08-31 18:34:41 | 49.66607 | 8.77941 | 94° | 100km/h | 12092m | -6.5m/s | -50°C | 4.4% | 198.3hPa | 2.6V | 03:13:04 | 02:05:26 | 00:00:00 | |
| BIOWL1-15 | 2026-08-31 18:34:38 | 49.66608 | 8.77902 | 94° | 100km/h | 12098m | -6m/s | -50°C | 1.6% | 198.1hPa | 2.5V | 03:13:33 | 02:05:25 | 00:00:00 | |
| DK7TD | 2026-08-31 18:34:33 | 49.66611 | 8.77825 | 92° | 100km/h | 12111m | -6.6m/s | -50.1°C | 1.5% | 197.8hPa | 2.5V | 03:15:15 | 02:05:23 | 00:00:00 | |
| DB0ND-19 | 2026-08-31 18:34:32 | 49.66612 | 8.77786 | 91° | 99km/h | 12117m | -5.8m/s | -50.1°C | 2.0% | 197.6hPa | 2.6V | 00:00:00 | 00:00:00 | 00:00:00 | |
| DL1NUX | 2026-08-31 18:34:31 | 49.66612 | 8.77547 | 89° | 102km/h | 12153m | -5.9m/s | -50.2°C | 4.3% | 196.4hPa | 2.6V | 03:13:14 | 02:05:16 | 00:00:00 | |
| HSKMA3-T | 2026-08-31 18:34:29 | 49.66612 | 8.77667 | 90° | 102km/h | 12136m | -5.8m/s | -50.2°C | 0% | 197hPa | 2.5V | 03:14:24 | 02:05:19 | 00:00:00 | |
| BIOWL1-15 | 2026-08-31 18:34:24 | 49.66613 | 8.77468 | 91° | 100km/h | 12165m | -6.2m/s | -50.2°C | 1.3% | 196.1hPa | 2.5V | 03:13:33 | 02:05:14 | 00:00:00 | |
| DO9LL-15 | 2026-08-31 18:34:24 | 49.66612 | 8.77468 | 92° | 100km/h | 12165m | -6.2m/s | -50.2°C | 4.3% | 196.0hPa | 2.5V | 00:00:00 | 02:05:14 | 00:00:00 | |
| DM0DOS-11 | 2026-08-31 18:34:23 | 49.66621 | 8.77236 | 93° | 99km/h | 12203m | -6.9m/s | -49.7°C | 3.9% | 194.9hPa | 2.5V | 03:13:22 | 02:05:08 | 00:00:00 | |
| HSKMA3-T | 2026-08-31 18:34:18 | 49.66621 | 8.77236 | 93° | 99km/h | 12203m | -6.9m/s | -49.7°C | 0% | 194.9hPa | 2.5V | 03:14:24 | 02:05:08 | 00:00:00 | |
| DO3MHA-11 | 2026-08-31 18:34:17 | 49.66622 | 8.77197 | 93° | 100km/h | 12210m | -6.6m/s | -49.6°C | 3.9% | 194.7hPa | 2.6V | 03:13:00 | 02:05:07 | 00:00:00 | |
| DL1KLB | 2026-08-31 18:34:16 | 49.66622 | 8.77197 | 94° | 99km/h | 12210m | -6.7m/s | -49.7°C | 1.7% | 194.7hPa | 2.5V | 03:13:00 | 00:00:00 | 00:00:00 | |
| HEMX73-11 | 2026-08-31 18:34:15 | 49.66623 | 8.77158 | 93° | 100km/h | 12217m | -7.3m/s | -49.6°C | 1.7% | 194.5hPa | 2.5V | 03:13:00 | 00:00:00 | 00:00:00 | |
| DL9PN | 2026-08-31 18:34:14 | 49.66624 | 8.77080 | 90° | 100km/h | 12230m | -7.1m/s | -49.6°C | 1.7% | 194.2hPa | 2.5V | 00:00:00 | 00:00:00 | 00:00:00 | |
| DM0DOS-11 | 2026-08-31 18:34:13 | 49.66625 | 8.76844 | 90° | 99km/h | 12272m | -6.8m/s | -49.7°C | 3.9% | 192.9hPa | 2.5V | 03:13:32 | 02:04:58 | 00:00:00 | |
| BIOWL1-15 | 2026-08-31 18:34:13 | 49.66624 | 8.77041 | 90° | 102km/h | 12237m | -6.7m/s | -49.6°C | 1% | 193.9hPa | 2.5V | 03:13:33 | 02:05:03 | 00:00:00 | |
| DM7RM-13 | 2026-08-31 18:34:12 | 49.66624 | 8.77041 | 91° | 102km/h | 12237m | -6.7m/s | -49.6°C | 1.7% | 193.9hPa | 2.6V | 03:13:00 | 00:00:00 | 00:00:00 | |
| DL1NUX | 2026-08-31 18:34:11 | 49.66626 | 8.76767 | 90° | 99km/h | 12285m | -6.3m/s | -49.8°C | 3.9% | 192.5hPa | 2.6V | 03:13:34 | 02:04:56 | 00:00:00 | |
| DK7TD | 2026-08-31 18:34:09 | 49.66625 | 8.76883 | 91° | 100km/h | 12265m | -7m/s | -49.7°C | 0.9% | 193.1hPa | 2.5V | 03:15:15 | 02:04:59 | 00:00:00 | |
| DD1CC8 | 2026-08-31 18:34:08 | 49.66625 | 8.76806 | 90° | 99km/h | 12279m | -6.7m/s | -49.7°C | 1.7% | 192.7hPa | 2.5V | 00:00:00 | 00:00:00 | 00:00:00 | |
| DB0UT-9 | 2026-08-31 18:34:07 | 49.66625 | 8.76806 | 92° | 99km/h | 12279m | -6.7m/s | -49.7°C | 1.7% | 192.7hPa | 2.5V | 03:13:00 | 00:00:00 | 00:00:00 | |
| DN1GJH-1 | 2026-08-31 18:34:06 | 49.66625 | 8.76806 | 92° | 99km/h | 12279m | -6.7m/s | -49.7°C | 1.7% | 192.7hPa | 2.5V | 03:13:00 | 00:00:00 | 00:00:00 | |
| DM0DOS-11 | 2026-08-31 18:34:03 | 49.66628 | 8.76450 | 91° | 106km/h | 12340m | -6.7m/s | -49.8°C | 3.9% | 190.9hPa | 2.5V | 03:13:42 | 02:04:48 | 00:00:00 | |
| BIOWL1-15 | 2026-08-31 18:34:02 | 49.66626 | 8.76612 | 90° | 102km/h | 12312m | -6.3m/s | -49.6°C | 0.9% | 191.8hPa | 2.6V | 03:14:24 | 02:04:52 | 00:00:00 | |
| HSKMA3-T | 2026-08-31 18:34:01 | 49.66626 | 8.76572 | 91° | 104km/h | 12319m | -7.2m/s | -49.7°C | 0% | 191.5hPa | 2.6V | 03:14:24 | 02:04:51 | 00:00:00 | |
| DK7TD | 2026-08-31 18:33:55 | 49.66630 | 8.76328 | 92° | 102km/h | 12359m | -6.2m/s | -49.9°C | 0.9% | 190.3hPa | 2.5V | 03:15:15 | 02:04:45 | 00:00:00 | |
| NBG1-10 | 2026-08-31 18:33:54 | 49.66631 | 8.76289 | 93° | 100km/h | 12366m | -6.5m/s | -49.9°C | 3.9% | 190.1hPa | 2.5V | 00:00:00 | 02:04:44 | 00:00:00 | |
| DM0DOS-11 | 2026-08-31 18:33:53 | 49.66639 | 8.76063 | 93° | 97km/h | 12407m | -7.2m/s | -50°C | 3.9% | 188.9hPa | 2.5V | 03:13:52 | 02:04:38 | 00:00:00 | |
| BIOWL1-15 | 2026-08-31 18:33:52 | 49.66634 | 8.76213 | 93° | 97km/h | 12379m | -6.5m/s | -50°C | 0.9% | 189.8hPa | 2.6V | 03:14:24 | 02:04:42 | 00:00:00 | |
| DK7TD | 2026-08-31 18:33:44 | 49.66645 | 8.75908 | 93° | 100km/h | 12436m | -6.6m/s | -49.9°C | 0.9% | 188.2hPa | 2.5V | 03:15:15 | 02:04:34 | 00:00:00 | |
| BIOWL1-15 | 2026-08-31 18:33:41 | 49.66650 | 8.75790 | 94° | 100km/h | 12457m | -6.7m/s | -49.9°C | 0.9% | 187.6hPa | 2.6V | 03:14:24 | 02:04:31 | 00:00:00 | |
| DL1NUX | 2026-08-31 18:33:41 | 49.66656 | 8.75595 | 90° | 100km/h | 12491m | -8.1m/s | -49.8°C | 3.8% | 186.6hPa | 2.6V | 03:14:04 | 02:04:26 | 00:00:00 | |
| HSKMA3-T | 2026-08-31 18:33:32 | 49.66654 | 8.75434 | 88° | 106km/h | 12522m | -7.4m/s | -49.8°C | 0% | 185.7hPa | 2.6V | 03:14:24 | 02:04:22 | 00:00:00 | |
| BIOWL1-15 | 2026-08-31 18:33:31 | 49.66653 | 8.75393 | 88° | 106km/h | 12529m | -8.5m/s | -49.7°C | 0.8% | 185.5hPa | 2.6V | 03:14:24 | 02:04:21 | 00:00:00 | |
| DK7TD | 2026-08-31 18:33:23 | 49.66649 | 8.75068 | 91° | 99km/h | 12587m | -7.4m/s | -50.1°C | 0.8% | 183.8hPa | 2.5V | 03:15:15 | 02:04:13 | 00:00:00 | |
| DM0DOS-11 | 2026-08-31 18:33:23 | 49.66653 | 8.74874 | 91° | 102km/h | 12623m | -7.4m/s | -49.5°C | 3.8% | 182.8hPa | 2.5V | 03:14:22 | 02:04:08 | 00:00:00 | |
| DO3DL | 2026-08-31 18:33:23 | 49.66649 | 8.75068 | 92° | 99km/h | 12587m | -7.4m/s | -50.1°C | 1.6% | 183.8hPa | 2.6V | 03:14:00 | 00:00:00 | 00:00:00 | |
| DL1ZP-14 | 2026-08-31 18:33:22 | 49.66650 | 8.74991 | 92° | 99km/h | 12601m | -7.5m/s | -49.9°C | 1.6% | 183.4hPa | 2.6V | 00:00:00 | 00:00:00 | 00:00:00 | |
| DL1NUX | 2026-08-31 18:33:21 | 49.66654 | 8.74793 | 90° | 104km/h | 12638m | -7.8m/s | -49.3°C | 3.8% | 182.4hPa | 2.6V | 03:14:24 | 02:04:06 | 00:00:00 | |
| BIOWL1-15 | 2026-08-31 18:33:20 | 49.66651 | 8.74952 | 92° | 100km/h | 12609m | -7.1m/s | -49.8°C | 0.9% | 183.2hPa | 2.5V | 03:14:24 | 02:04:10 | 00:00:00 | |
| DO3MHA-11 | 2026-08-31 18:33:17 | 49.66654 | 8.74834 | 92° | 102km/h | 12631m | -6.8m/s | -49.3°C | 3.8% | 182.6hPa | 2.6V | 00:00:00 | 02:04:07 | 00:00:00 | |
| DO3DL | 2026-08-31 18:33:16 | 49.66654 | 8.74834 | 92° | 104km/h | 12631m | -6.9m/s | -49.4°C | 1.6% | 182.6hPa | 2.5V | 03:14:00 | 00:00:00 | 00:00:00 | |
| DL8DAS-14 | 2026-08-31 18:33:14 | 49.66654 | 8.74671 | 89° | 104km/h | 12659m | -6.8m/s | -49.4°C | 1.6% | 181.8hPa | 2.5V | 00:00:00 | 00:00:00 | 00:00:00 | |
| DM0DOS-11 | 2026-08-31 18:33:13 | 49.66655 | 8.74474 | 92° | 99km/h | 12694m | -6.5m/s | -49.4°C | 3.8% | 180.8hPa | 2.5V | 03:14:32 | 02:03:58 | 00:00:00 | |
| HSKMA3-T | 2026-08-31 18:33:13 | 49.66654 | 8.74671 | 89° | 104km/h | 12659m | -6.8m/s | -49.4°C | 0% | 181.8hPa | 2.5V | 03:15:15 | 02:04:03 | 00:00:00 | |
| DK7TD | 2026-08-31 18:33:11 | 49.66654 | 8.74590 | 90° | 102km/h | 12672m | -7.2m/s | -49.5°C | 0.8% | 181.5hPa | 2.6V | 03:15:15 | 02:04:01 | 00:00:00 | |
| DL1NUX | 2026-08-31 18:33:11 | 49.66659 | 8.74397 | 95° | 99km/h | 12708m | -7.1m/s | -49.3°C | 3.8% | 180.5hPa | 2.6V | 03:14:34 | 02:03:56 | 00:00:00 | |
| BIOWL1-15 | 2026-08-31 18:33:09 | 49.66654 | 8.74512 | 92° | 99km/h | 12687m | -7.6m/s | -49.5°C | 0.8% | 181.1hPa | 2.5V | 03:15:15 | 02:03:59 | 00:00:00 | |
| DO3MHA-11 | 2026-08-31 18:33:07 | 49.66657 | 8.74435 | 95° | 99km/h | 12701m | -6.8m/s | -49.3°C | 3.8% | 180.6hPa | 2.5V | 00:00:00 | 02:03:57 | 00:00:00 | |
| DF3TZ-5 | 2026-08-31 18:33:05 | 49.66662 | 8.74359 | 95° | 99km/h | 12714m | -6.7m/s | -49.3°C | 1.6% | 180.3hPa | 2.5V | 00:00:00 | 00:00:00 | 00:00:00 | |
| DL8DAS-15 | 2026-08-31 18:33:04 | 49.66661 | 8.74358 | 97° | 100km/h | 12715m | -6.7m/s | -49.3°C | 1.7% | 180.3hPa | 2.5V | 00:00:00 | 00:00:00 | 00:00:00 | |
| DM0DOS-11 | 2026-08-31 18:33:03 | 49.66677 | 8.74091 | 92° | 97km/h | 12767m | -7.7m/s | -49.1°C | 3.8% | 178.8hPa | 2.5V | 03:14:42 | 02:03:48 | 00:00:00 | |
| BIOWL1-15 | 2026-08-31 18:33:00 | 49.66677 | 8.74091 | 92° | 97km/h | 12767m | -7.7m/s | -49.1°C | 0.8% | 178.8hPa | 2.5V | 03:15:15 | 02:03:48 | 00:00:00 | |
| DK7TD | 2026-08-31 18:32:59 | 49.66676 | 8.74129 | 93° | 97km/h | 12760m | -7.3m/s | -49.2°C | 0.8% | 179hPa | 2.5V | 03:15:15 | 02:03:49 | 00:00:00 | |
| HSKMA3-T | 2026-08-31 18:32:56 | 49.66678 | 8.74015 | 91° | 99km/h | 12783m | -7.4m/s | -49°C | 0% | 178.4hPa | 2.6V | 03:15:15 | 02:03:46 | 00:00:00 | |
| DJTTGO | 2026-08-31 18:32:55 | 49.66678 | 8.74015 | 92° | 99km/h | 12783m | -7.4m/s | -49.0°C | 1.6% | 178.4hPa | 2.6V | 00:00:00 | 00:00:00 | 00:00:00 | |
| DM0DOS-11 | 2026-08-31 18:32:53 | 49.66685 | 8.73705 | 94° | 99km/h | 12840m | -7.8m/s | -48.9°C | 3.8% | 176.9hPa | 2.6V | 03:14:52 | 02:03:38 | 00:00:00 | |
| DK5PH-5 | 2026-08-31 18:32:52 | 49.66680 | 8.73860 | 92° | 95km/h | 12811m | -6.9m/s | -48.9°C | 3.8% | 177.6hPa | 2.6V | 00:00:00 | 02:03:42 | 00:00:00 | |
| DL1NUX | 2026-08-31 18:32:51 | 49.66689 | 8.73629 | 95° | 99km/h | 12854m | -7.1m/s | -49°C | 3.8% | 176.5hPa | 2.6V | 03:14:54 | 02:03:36 | 00:00:00 | |
| DK7TD | 2026-08-31 18:32:48 | 49.66685 | 8.73705 | 95° | 99km/h | 12840m | -7.8m/s | -48.9°C | 0.8% | 0hPa | 2.6V | 03:15:15 | 02:03:38 | 00:00:00 | |
| BIOWL1-15 | 2026-08-31 18:32:47 | 49.66687 | 8.73667 | 95° | 99km/h | 12847m | -6.2m/s | -49°C | 0.8% | 176.7hPa | 2.6V | 03:15:15 | 02:03:37 | 00:00:00 | |
| DO3MHA-11 | 2026-08-31 18:32:47 | 49.66687 | 8.73667 | 95° | 95km/h | 12847m | -6.1m/s | -48.9°C | 3.8% | 176.6hPa | 2.6V | 00:00:00 | 02:03:37 | 00:00:00 | |
| DH7VM-15 | 2026-08-31 18:32:46 | 49.66686 | 8.73667 | 96° | 99km/h | 12847m | -6.2m/s | -49.0°C | 1.6% | 176.7hPa | 2.5V | 00:00:00 | 00:00:00 | 00:00:00 | |
| DB0UT-7 | 2026-08-31 18:32:45 | 49.66691 | 8.73591 | 96° | 93km/h | 12861m | -7.3m/s | -48.9°C | 3.8% | 176.3hPa | 2.5V | 03:14:00 | 02:03:35 | 00:00:00 | |
| DN1GJH-1 | 2026-08-31 18:32:44 | 49.66691 | 8.73591 | 97° | 97km/h | 12861m | -7.3m/s | -49.0°C | 1.6% | 176.3hPa | 2.5V | 00:00:00 | 00:00:00 | 00:00:00 | |
| DM0DOS-11 | 2026-08-31 18:32:43 | 49.66707 | 8.73335 | 94° | 93km/h | 12912m | -6.8m/s | -48.7°C | 3.7% | 174.9hPa | 2.5V | 03:15:02 | 02:03:28 | 00:00:00 | |
| HSKMA3-T | 2026-08-31 18:32:41 | 49.66701 | 8.73443 | 95° | 93km/h | 12890m | -7.9m/s | -49°C | 0% | 175.5hPa | 2.6V | 03:15:15 | 02:03:31 | 00:00:00 | |
| DL1NUX | 2026-08-31 18:32:41 | 49.66710 | 8.73262 | 93° | 93km/h | 12925m | -7m/s | -48.5°C | 3.6% | 174.6hPa | 2.6V | 03:15:04 | 02:03:26 | 00:00:00 | |
| DK7TD | 2026-08-31 18:32:37 | 49.66708 | 8.73299 | 94° | 93km/h | 12919m | -6.6m/s | -48.6°C | 0.7% | 0hPa | 2.6V | 03:15:15 | 02:03:27 | 00:00:00 | |
| BIOWL1-15 | 2026-08-31 18:32:36 | 49.66710 | 8.73262 | 93° | 93km/h | 12925m | -7m/s | -48.5°C | 0.7% | 174.6hPa | 2.6V | 03:15:15 | 02:03:26 | 00:00:00 | |
| BIOWL1-15 | 2026-08-31 18:32:26 | 49.66719 | 8.72893 | 91° | 91km/h | 12997m | -6.9m/s | -48.1°C | 0.6% | 172.7hPa | 2.6V | 03:15:15 | 02:03:16 | 00:00:00 | |
| DK7TD | 2026-08-31 18:32:24 | 49.66720 | 8.72823 | 91° | 89km/h | 13011m | -7.1m/s | -48.1°C | 0.6% | 0hPa | 2.5V | 03:16:06 | 02:03:14 | 00:00:00 | |
| DO9LL-15 | 2026-08-31 18:32:24 | 49.66720 | 8.72823 | 91° | 66km/h | 13011m | -7.1m/s | 0°C | 0% | 0hPa | 2.5V | 00:00:00 | 02:03:14 | 00:00:00 | |
| DM0DOS-11 | 2026-08-31 18:32:23 | 49.66720 | 8.72610 | 89° | 93km/h | 13054m | -7.5m/s | -48.3°C | 3.5% | 171.2hPa | 2.5V | 03:15:22 | 02:03:08 | 00:00:00 | |
| HSKMA3-T | 2026-08-31 18:32:22 | 49.66720 | 8.72753 | 90° | 89km/h | 13024m | -7.3m/s | -48.2°C | 0% | 172hPa | 2.6V | 03:16:06 | 02:03:12 | 00:00:00 | |
| DK5PH-5 | 2026-08-31 18:32:22 | 49.66720 | 8.72753 | 91° | 91km/h | 13024m | -7.2m/s | -48.2°C | 3.5% | 172.0hPa | 2.6V | 00:00:00 | 02:03:12 | 00:00:00 | |
| DL1NUX | 2026-08-31 18:32:21 | 49.66720 | 8.72537 | 89° | 93km/h | 13068m | -7.3m/s | -48.3°C | 3.5% | 170.8hPa | 2.6V | 03:15:24 | 02:03:06 | 00:00:00 | |
| BIOWL1-15 | 2026-08-31 18:32:15 | 49.66720 | 8.72500 | 90° | 93km/h | 13076m | -7.8m/s | -48.4°C | 0.6% | 170.7hPa | 2.5V | 03:16:06 | 02:03:05 | 00:00:00 | |
| DK7TD | 2026-08-31 18:32:13 | 49.66720 | 8.72428 | 90° | 93km/h | 13090m | -7.8m/s | -48.4°C | 0.6% | 0hPa | 2.5V | 03:16:06 | 02:03:03 | 00:00:00 | |
| HSKMA3-T | 2026-08-31 18:32:11 | 49.66720 | 8.72355 | 90° | 95km/h | 13105m | -7.5m/s | -48.4°C | 0% | 0hPa | 2.6V | 03:16:06 | 02:03:01 | 00:00:00 | |
| DL0LBS | 2026-08-31 18:32:11 | 49.66720 | 8.72355 | 91° | 95km/h | 13105m | -7.5m/s | -48.4°C | 1.5% | 169.8hPa | 2.5V | 03:16:00 | 00:00:00 | 00:00:00 | |
| DL1NUX | 2026-08-31 18:32:10 | 49.66719 | 8.72137 | 89° | 89km/h | 13151m | -8.1m/s | -48.5°C | 3.6% | 168.7hPa | 2.5V | 03:15:35 | 02:02:55 | 00:00:00 | |
| BIOWL1-15 | 2026-08-31 18:32:08 | 49.66719 | 8.72102 | 90° | 89km/h | 13159m | -7.8m/s | -48.5°C | 0.6% | 168.5hPa | 2.5V | 03:16:06 | 02:02:54 | 00:00:00 | |
| DO3MHA-11 | 2026-08-31 18:32:07 | 49.66720 | 8.72208 | 90° | 88km/h | 13135m | -9.2m/s | -48.4°C | 3.5% | 169.1hPa | 2.5V | 00:00:00 | 02:02:57 | 00:00:00 | |
| DJ2DS-15 | 2026-08-31 18:32:05 | 49.66719 | 8.72137 | 90° | 88km/h | 13151m | -8.0m/s | -48.5°C | 3.6% | 168.7hPa | 2.5V | 00:00:00 | 02:02:55 | 00:00:00 | |
| SFWM-10 | 2026-08-31 18:32:04 | 49.66719 | 8.72137 | 90° | 89km/h | 13151m | -8.1m/s | -48.5°C | 1.5% | 168.7hPa | 2.6V | 00:00:00 | 00:00:00 | 00:00:00 | |
| DM0DOS-11 | 2026-08-31 18:32:03 | 49.66721 | 8.71899 | 91° | 86km/h | 13206m | -7.4m/s | -48.6°C | 3.5% | 167.3hPa | 2.6V | 03:15:42 | 02:02:48 | 00:00:00 | |
| HSKMA3-T | 2026-08-31 18:32:00 | 49.66720 | 8.71967 | 92° | 86km/h | 13191m | -7.6m/s | -48.5°C | 0% | 0hPa | 2.5V | 03:16:06 | 02:02:50 | 00:00:00 | |
| DL1NUX | 2026-08-31 18:32:00 | 49.66723 | 8.71797 | 91° | 88km/h | 13229m | -7.7m/s | -48.7°C | 3.6% | 166.7hPa | 2.5V | 03:15:45 | 02:02:45 | 00:00:00 | |
| BIOWL1-15 | 2026-08-31 18:31:55 | 49.66723 | 8.71727 | 91° | 89km/h | 13244m | -7.6m/s | -48.8°C | 0.6% | 166.3hPa | 2.5V | 03:16:06 | 02:02:43 | 00:00:00 | |
| DF2AP-13 | 2026-08-31 18:31:54 | 49.66723 | 8.71762 | 91° | 88km/h | 13236m | -7.6m/s | -48.7°C | 3.6% | 166.5hPa | 2.5V | 03:15:00 | 02:02:44 | 00:00:00 | |
| DM0DOS-11 | 2026-08-31 18:31:53 | 49.66722 | 8.71553 | 88° | 88km/h | 13281m | -6.9m/s | -49°C | 3.6% | 165.3hPa | 2.6V | 03:15:52 | 02:02:38 | 00:00:00 | |
| DF7PN | 2026-08-31 18:31:51 | 49.66724 | 8.71657 | 89° | 89km/h | 13259m | -7.6m/s | -48.8°C | 1.4% | 165.9hPa | 2.5V | 00:00:00 | 00:00:00 | 00:00:00 | |
| DL1NUX | 2026-08-31 18:31:50 | 49.66720 | 8.71452 | 87° | 86km/h | 13303m | -9m/s | -49°C | 3.7% | 164.8hPa | 2.5V | 03:15:55 | 02:02:35 | 00:00:00 | |
| HSKMA3-T | 2026-08-31 18:31:48 | 49.66722 | 8.71553 | 88° | 88km/h | 13281m | -6.9m/s | -49°C | 0% | 0hPa | 2.6V | 03:16:06 | 02:02:38 | 00:00:00 | |
| DO3MHA-11 | 2026-08-31 18:31:47 | 49.66721 | 8.71519 | 88° | 84km/h | 13288m | -7.2m/s | -48.9°C | 3.6% | 165.1hPa | 2.6V | 00:00:00 | 02:02:37 | 00:00:00 | |
| DK7TD | 2026-08-31 18:31:47 | 49.66721 | 8.71485 | 88° | 86km/h | 13295m | -7.1m/s | -49°C | 0.6% | 0hPa | 2.6V | 03:16:06 | 02:02:36 | 00:00:00 | |
| BIOWL7-15 | 2026-08-31 18:31:46 | 49.66722 | 8.71519 | 89° | 86km/h | 13288m | -7.2m/s | -49.0°C | 1.4% | 165.2hPa | 2.5V | 03:16:00 | 00:00:00 | 00:00:00 | |
| DJ2DS-15 | 2026-08-31 18:31:45 | 49.66720 | 8.71452 | 88° | 86km/h | 13303m | -8.9m/s | -48.9°C | 3.7% | 164.7hPa | 2.5V | 03:15:00 | 02:02:35 | 00:00:00 | |
| DM0DOS-11 | 2026-08-31 18:31:43 | 49.66713 | 8.71227 | 87° | 82km/h | 13357m | -7.6m/s | -49.1°C | 3.7% | 163.4hPa | 2.5V | 03:16:02 | 02:02:28 | 00:00:00 | |
| BIOWL1-15 | 2026-08-31 18:31:42 | 49.66717 | 8.71354 | 87° | 82km/h | 13326m | -7.7m/s | -49°C | 0.6% | 164.2hPa | 2.6V | 03:16:06 | 02:02:32 | 00:00:00 | |
| NBG1-10 | 2026-08-31 18:31:42 | 49.66717 | 8.71354 | 88° | 86km/h | 13326m | -7.6m/s | -49.0°C | 3.6% | 164.2hPa | 2.5V | 00:00:00 | 02:02:32 | 00:00:00 | |
| DL8DAS-14 | 2026-08-31 18:31:41 | 49.66715 | 8.71290 | 87° | 80km/h | 13343m | -7.2m/s | -49.0°C | 1.5% | 163.8hPa | 2.5V | 00:00:00 | 00:00:00 | 00:00:00 | |
| DB0NH | 2026-08-31 18:31:40 | 49.66715 | 8.71290 | 88° | 86km/h | 13343m | -7.2m/s | -48.9°C | 3.7% | 163.8hPa | 2.5V | 00:00:00 | 02:02:30 | 00:00:00 | |
| DL9PN | 2026-08-31 18:31:39 | 49.66714 | 8.71259 | 87° | 80km/h | 13350m | -7.3m/s | -49.0°C | 1.5% | 163.6hPa | 2.5V | 00:00:00 | 00:00:00 | 00:00:00 | |
| DO3MHA-11 | 2026-08-31 18:31:37 | 49.66712 | 8.71194 | 89° | 89km/h | 13365m | -7.6m/s | -49.1°C | 3.7% | 163.2hPa | 2.5V | 03:16:00 | 02:02:27 | 00:00:00 | |
| DB0UT-9 | 2026-08-31 18:31:36 | 49.66712 | 8.71194 | 89° | 84km/h | 13365m | -7.6m/s | -49.2°C | 1.5% | 163.3hPa | 2.5V | 00:00:00 | 00:00:00 | 00:00:00 | |
| DL1NUX | 2026-08-31 18:31:35 | 49.66706 | 8.70955 | 87° | 91km/h | 13418m | -9.5m/s | -48.8°C | 3.6% | 161.9hPa | 2.5V | 03:16:10 | 02:02:20 | 00:00:00 | |
| DK7TD | 2026-08-31 18:31:34 | 49.66710 | 8.71094 | 87° | 88km/h | 13387m | -7.5m/s | -49.3°C | 0.7% | 0hPa | 2.5V | 03:16:06 | 02:02:24 | 00:00:00 | |
| DM0DOS-11 | 2026-08-31 18:31:33 | 49.66705 | 8.70883 | 88° | 91km/h | 13434m | -7.4m/s | -48.7°C | 3.6% | 161.6hPa | 2.6V | 03:16:12 | 02:02:18 | 00:00:00 | |
| HSKMA3-T | 2026-08-31 18:31:31 | 49.66707 | 8.70990 | 88° | 91km/h | 13409m | -7.9m/s | 0°C | 0% | 0hPa | 2.6V | 18:12:15 | 02:02:21 | 00:00:00 | |
| DL8DAS-15 | 2026-08-31 18:31:30 | 49.66707 | 8.70990 | 89° | 91km/h | 13409m | -7.9m/s | -49.0°C | 1.5% | 162.2hPa | 2.5V | 00:00:00 | 00:00:00 | 00:00:00 | |
| DL1KLB | 2026-08-31 18:31:28 | 49.66705 | 8.70919 | 89° | 91km/h | 13426m | -7.7m/s | -48.7°C | 1.4% | 161.8hPa | 2.5V | 00:00:00 | 00:00:00 | 00:00:00 | |
| DO3MHA-11 | 2026-08-31 18:31:27 | 49.66704 | 8.70848 | 89° | 86km/h | 13443m | -10.2m/s | -48.6°C | 3.6% | 161.3hPa | 2.5V | 00:00:00 | 02:02:17 | 00:00:00 | |
| DB0ND-19 | 2026-08-31 18:31:26 | 49.66704 | 8.70813 | 89° | 88km/h | 13451m | -7.8m/s | -48.7°C | 1.4% | 161.2hPa | 2.5V | 00:00:00 | 00:00:00 | 00:00:00 | |
| DL1NUX | 2026-08-31 18:31:25 | 49.66707 | 8.70615 | 92° | 84km/h | 13498m | -9m/s | -48.9°C | 3.7% | 160hPa | 2.5V | 03:16:20 | 02:02:10 | 00:00:00 | |
| DJ2DS-15 | 2026-08-31 18:31:25 | 49.66704 | 8.70779 | 91° | 82km/h | 13459m | -7.1m/s | -48.7°C | 3.6% | 160.9hPa | 2.6V | 00:00:00 | 02:02:15 | 00:00:00 | |
| DF2AP-13 | 2026-08-31 18:31:24 | 49.66704 | 8.70745 | 92° | 75km/h | 13466m | -7.1m/s | -48.7°C | 3.6% | 160.7hPa | 2.6V | 00:00:00 | 02:02:14 | 00:00:00 | |
| DM0DOS-11 | 2026-08-31 18:31:23 | 49.66709 | 8.70550 | 93° | 84km/h | 13516m | -8.7m/s | -48.9°C | 3.6% | 159.5hPa | 2.6V | 03:16:22 | 02:02:08 | 00:00:00 | |
| DK7TD | 2026-08-31 18:31:22 | 49.66706 | 8.70679 | 92° | 82km/h | 13481m | -8.3m/s | -48.8°C | 0.6% | 0hPa | 2.6V | 03:17:48 | 02:02:12 | 00:00:00 | |
| BIOWL1-15 | 2026-08-31 18:31:20 | 49.66707 | 8.70615 | 92° | 84km/h | 13499m | -9m/s | -48.9°C | 0.7% | 160hPa | 2.5V | 03:16:57 | 02:02:10 | 00:00:00 | |
| HSKMA3-T | 2026-08-31 18:31:18 | 49.66709 | 8.70550 | 93° | 84km/h | 13516m | -8.7m/s | 0°C | 0% | 0hPa | 2.6V | 18:12:15 | 02:02:08 | 00:00:00 | |
| DO3MHA-11 | 2026-08-31 18:31:17 | 49.66710 | 8.70518 | 94° | 84km/h | 13524m | -8.2m/s | -48.9°C | 3.7% | 159.3hPa | 2.6V | 00:00:00 | 02:02:07 | 00:00:00 | |
| DB0UT-9 | 2026-08-31 18:31:15 | 49.66711 | 8.70485 | 94° | 84km/h | 13533m | -8.0m/s | -48.9°C | 1.5% | 159.2hPa | 2.6V | 03:16:00 | 00:00:00 | 00:00:00 | |
| DM0DOS-11 | 2026-08-31 18:31:13 | 49.66703 | 8.70222 | 84° | 77km/h | 13601m | -7.8m/s | -48.9°C | 3.7% | 157.6hPa | 2.6V | 03:16:32 | 02:01:58 | 00:00:00 | |
| BIOWL1-15 | 2026-08-31 18:31:10 | 49.66707 | 8.70285 | 84° | 82km/h | 13582m | -7.8m/s | -48.9°C | 0.7% | 157.9hPa | 2.5V | 03:16:57 | 02:02:00 | 00:00:00 | |
| DL8DAS-14 | 2026-08-31 18:31:10 | 49.66705 | 8.70253 | 84° | 80km/h | 13592m | -10.5m/s | -48.9°C | 1.5% | 157.8hPa | 2.6V | 00:00:00 | 00:00:00 | 00:00:00 | |
| NBG1-10 | 2026-08-31 18:31:09 | 49.66705 | 8.70253 | 85° | 62km/h | 13592m | -10.4m/s | -48.9°C | 3.8% | 157.7hPa | 2.6V | 00:00:00 | 02:01:59 | 00:00:00 | |
| DL9PN | 2026-08-31 18:31:08 | 49.66703 | 8.70222 | 84° | 77km/h | 13601m | -7.8m/s | -48.9°C | 1.5% | 157.6hPa | 2.6V | 00:00:00 | 00:00:00 | 00:00:00 | |
| DO3MHA-11 | 2026-08-31 18:31:07 | 49.66701 | 8.70193 | 86° | 66km/h | 13609m | -8.1m/s | -48.7°C | 3.7% | 157.3hPa | 2.6V | 00:00:00 | 02:01:57 | 00:00:00 | |
| DL1KLB | 2026-08-31 18:31:06 | 49.66701 | 8.70193 | 86° | 75km/h | 13609m | -8.1m/s | -48.8°C | 1.5% | 157.4hPa | 2.6V | 00:00:00 | 00:00:00 | 00:00:00 | |
| DO3DL | 2026-08-31 18:31:05 | 49.66699 | 8.70137 | 88° | 69km/h | 13626m | -9.4m/s | -48.7°C | 1.5% | 157.0hPa | 2.6V | 03:16:00 | 00:00:00 | 00:00:00 | |
| KANTATE | 2026-08-31 18:31:04 | 49.66699 | 8.70137 | 88° | 69km/h | 13626m | -9.4m/s | -48.7°C | 1.5% | 157.0hPa | 2.6V | 03:16:00 | 00:00:00 | 00:00:00 | |
| DM0DOS-11 | 2026-08-31 18:31:03 | 49.66697 | 8.69964 | 83° | 60km/h | 13688m | -8.8m/s | -48.3°C | 3.5% | 155.4hPa | 2.6V | 03:16:42 | 02:01:48 | 00:00:00 | |
| DL1NUX | 2026-08-31 18:31:02 | 49.66694 | 8.69941 | 80° | 60km/h | 13697m | -9.4m/s | -48.2°C | 3.5% | 155.3hPa | 2.6V | 03:16:43 | 02:01:47 | 00:00:00 | |
| BIOWL1-15 | 2026-08-31 18:30:59 | 49.66698 | 8.69987 | 87° | 60km/h | 13680m | -8.1m/s | -48.4°C | 0.7% | 155.6hPa | 2.5V | 03:16:57 | 02:01:49 | 00:00:00 | |
| DJ2DS-15 | 2026-08-31 18:30:58 | 49.66696 | 8.69964 | 83° | 58km/h | 13688m | -8.8m/s | -48.3°C | 1.4% | 155.4hPa | 2.6V | 00:00:00 | 00:00:00 | 00:00:00 | |
| DB0ND-19 | 2026-08-31 18:30:55 | 49.66689 | 8.69895 | 79° | 60km/h | 13716m | -9.4m/s | -48.0°C | 1.4% | 154.9hPa | 2.6V | 00:00:00 | 00:00:00 | 00:00:00 | |
| DF2AP-13 | 2026-08-31 18:30:54 | 49.66686 | 8.69871 | 79° | 58km/h | 13725m | -8.8m/s | -48.0°C | 3.4% | 154.6hPa | 2.6V | 00:00:00 | 02:01:44 | 00:00:00 | |
| DM0DOS-11 | 2026-08-31 18:30:53 | 49.66670 | 8.69725 | 81° | 62km/h | 13778m | -8.8m/s | -48.1°C | 3.4% | 153.4hPa | 2.6V | 03:16:52 | 02:01:38 | 00:00:00 | |
| BIOWL1-15 | 2026-08-31 18:30:48 | 49.66670 | 8.69725 | 82° | 62km/h | 13778m | -8.8m/s | -48.1°C | 0.5% | 153.4hPa | 2.6V | 03:16:57 | 02:01:38 | 00:00:00 | |
| DL1NUX | 2026-08-31 18:30:48 | 49.66661 | 8.69611 | 83° | 58km/h | 13821m | -8.9m/s | -48.4°C | 3.5% | 152.4hPa | 2.6V | 03:16:57 | 02:01:33 | 00:00:00 | |
| BIOWL9-15 | 2026-08-31 18:30:48 | 49.66668 | 8.69702 | 82° | 60km/h | 13787m | -9.6m/s | -48.1°C | 1.4% | 153.2hPa | 2.6V | 00:00:00 | 00:00:00 | 00:00:00 | |
| DL1ZP-14 | 2026-08-31 18:30:46 | 49.66666 | 8.69678 | 83° | 58km/h | 13796m | -7.2m/s | -48.2°C | 1.4% | 153.0hPa | 2.6V | 00:00:00 | 00:00:00 | 00:00:00 | |
| DJ2DS-15 | 2026-08-31 18:30:45 | 49.66664 | 8.69656 | 84° | 57km/h | 13803m | -8.6m/s | -48.2°C | 3.5% | 152.8hPa | 2.6V | 00:00:00 | 02:01:35 | 00:00:00 | |
| KANTATE | 2026-08-31 18:30:44 | 49.66664 | 8.69656 | 84° | 58km/h | 13803m | -8.7m/s | -48.2°C | 1.4% | 152.8hPa | 2.6V | 03:16:00 | 00:00:00 | 00:00:00 | |
| DM0DOS-11 | 2026-08-31 18:30:43 | 49.66651 | 8.69499 | 81° | 57km/h | 13863m | -8m/s | -48.7°C | 3.6% | 151.4hPa | 2.6V | 03:17:02 | 02:01:28 | 00:00:00 | |
| BIOWL1-15 | 2026-08-31 18:30:38 | 49.66649 | 8.69478 | 81° | 55km/h | 13871m | -8.1m/s | -48.7°C | 0.6% | 151.2hPa | 2.6V | 03:17:48 | 02:01:27 | 00:00:00 | |
| DL1NUX | 2026-08-31 18:30:37 | 49.66636 | 8.69376 | 78° | 53km/h | 13915m | -8.9m/s | -48.9°C | 3.6% | 150.2hPa | 2.6V | 03:17:08 | 02:01:22 | 00:00:00 | |
| DO3MHA-11 | 2026-08-31 18:30:37 | 49.66649 | 8.69478 | 81° | 55km/h | 13871m | -8.0m/s | -48.7°C | 3.6% | 151.1hPa | 2.6V | 00:00:00 | 02:01:27 | 00:00:00 | |
| NBG1-10 | 2026-08-31 18:30:36 | 49.66646 | 8.69456 | 80° | 57km/h | 13879m | -8.2m/s | -48.7°C | 3.6% | 151.0hPa | 2.6V | 03:17:00 | 02:01:26 | 00:00:00 | |
| DB0NH | 2026-08-31 18:30:34 | 49.66641 | 8.69416 | 80° | 58km/h | 13897m | -8.8m/s | -48.8°C | 3.6% | 150.6hPa | 2.6V | 00:00:00 | 02:01:24 | 00:00:00 | |
| DM0DOS-11 | 2026-08-31 18:30:33 | 49.66623 | 8.69290 | 75° | 58km/h | 13949m | -9.1m/s | -49°C | 3.6% | 149.5hPa | 2.6V | 03:17:12 | 02:01:18 | 00:00:00 | |
| DK7TD | 2026-08-31 18:30:32 | 49.66636 | 8.69376 | 79° | 53km/h | 13915m | -8.9m/s | -48.9°C | 0.6% | 0hPa | 2.6V | 03:17:48 | 02:01:22 | 00:00:00 | |
| BIOWL1-15 | 2026-08-31 18:30:29 | 49.66619 | 8.69268 | 74° | 58km/h | 13958m | -8.5m/s | -49.1°C | 0.6% | 149.2hPa | 2.6V | 03:17:48 | 02:01:17 | 00:00:00 | |
| HEMX73-11 | 2026-08-31 18:30:28 | 49.66627 | 8.69312 | 77° | 57km/h | 13940m | -8.8m/s | -49.0°C | 1.4% | 149.7hPa | 2.6V | 03:17:00 | 00:00:00 | 00:00:00 | |
| DL1NUX | 2026-08-31 18:30:27 | 49.66599 | 8.69161 | 72° | 57km/h | 14002m | -9m/s | -48.9°C | 3.6% | 148.2hPa | 2.6V | 03:17:18 | 02:01:12 | 00:00:00 | |
| DO3MHA-11 | 2026-08-31 18:30:27 | 49.66619 | 8.69268 | 75° | 57km/h | 13958m | -8.5m/s | -49.0°C | 3.6% | 149.2hPa | 2.6V | 00:00:00 | 02:01:17 | 00:00:00 | |
| DL0LBS | 2026-08-31 18:30:26 | 49.66619 | 8.69268 | 75° | 58km/h | 13958m | -8.5m/s | -49.1°C | 1.4% | 149.2hPa | 2.6V | 03:17:00 | 00:00:00 | 00:00:00 | |
| DF2AP-13 | 2026-08-31 18:30:24 | 49.66607 | 8.69203 | 74° | 60km/h | 13985m | -8.5m/s | -48.8°C | 3.6% | 148.6hPa | 2.6V | 00:00:00 | 02:01:14 | 00:00:00 | |
| DM7RM-13 | 2026-08-31 18:30:23 | 49.66607 | 8.69203 | 75° | 58km/h | 13985m | -8.6m/s | -48.8°C | 1.4% | 148.6hPa | 2.6V | 03:17:00 | 00:00:00 | 00:00:00 | |
| DK5PH-5 | 2026-08-31 18:30:22 | 49.66599 | 8.69161 | 73° | 60km/h | 14003m | -9.0m/s | -48.9°C | 3.6% | 148.2hPa | 2.6V | 00:00:00 | 02:01:12 | 00:00:00 | |
| DM0DOS-11 | 2026-08-31 18:30:18 | 49.66555 | 8.68966 | 69° | 62km/h | 14077m | -7.3m/s | -49°C | 3.6% | 146.5hPa | 2.6V | 03:17:27 | 02:01:03 | 00:00:00 | |
| DF7PN | 2026-08-31 18:30:18 | 49.66580 | 8.69078 | 69° | 57km/h | 14036m | -8.3m/s | -49.0°C | 1.4% | 147.5hPa | 2.6V | 00:00:00 | 00:00:00 | 00:00:00 | |
| DL1NUX | 2026-08-31 18:30:17 | 49.66549 | 8.68944 | 69° | 62km/h | 14085m | -8.5m/s | -48.9°C | 3.5% | 146.3hPa | 2.6V | 03:17:28 | 02:01:02 | 00:00:00 | |
| BIOWL1-15 | 2026-08-31 18:30:16 | 49.66570 | 8.69035 | 71° | 60km/h | 14052m | -8.8m/s | -49°C | 0.6% | 147.1hPa | 2.6V | 03:17:48 | 02:01:06 | 00:00:00 | |
| DK7TD | 2026-08-31 18:30:14 | 49.66560 | 8.68989 | 71° | 62km/h | 14070m | -8.9m/s | -49°C | 0.6% | 0hPa | 2.5V | 03:17:48 | 02:01:04 | 00:00:00 | |
| DB0UT-9 | 2026-08-31 18:30:13 | 49.66560 | 8.68989 | 72° | 62km/h | 14070m | -8.9m/s | -49.0°C | 1.4% | 146.7hPa | 2.6V | 03:17:00 | 00:00:00 | 00:00:00 | |
| DB0UT-7 | 2026-08-31 18:30:11 | 49.66543 | 8.68921 | 69° | 60km/h | 14094m | -8.3m/s | -48.7°C | 3.5% | 146.1hPa | 2.6V | 00:00:00 | 00:00:00 | 00:00:00 | |
| SFWM-10 | 2026-08-31 18:30:09 | 49.66537 | 8.68899 | 67° | 60km/h | 14102m | -8.1m/s | -48.7°C | 1.4% | 145.9hPa | 2.6V | 00:00:00 | 00:00:00 | 00:00:00 | |
| DM0DOS-11 | 2026-08-31 18:30:08 | 49.66488 | 8.68761 | 58° | 60km/h | 14159m | -8.2m/s | -48.8°C | 3.5% | 144.7hPa | 2.6V | 03:17:37 | 02:00:53 | 00:00:00 | |
| BIOWL1-15 | 2026-08-31 18:30:06 | 49.66510 | 8.68819 | 60° | 57km/h | 14135m | -8.6m/s | -48.7°C | 0.6% | 145.2hPa | 2.6V | 03:17:48 | 02:00:56 | 00:00:00 | |
| DK7TD | 2026-08-31 18:30:01 | 49.66472 | 8.68720 | 61° | 62km/h | 14177m | -9.2m/s | -49°C | 0.7% | 0hPa | 2.6V | 03:17:48 | 02:00:51 | 00:00:00 | |
| BIOWL1-15 | 2026-08-31 18:29:59 | 49.66428 | 8.68590 | 63° | 60km/h | 14228m | -8.2m/s | -49.4°C | 0.7% | 143.2hPa | 2.6V | 03:17:48 | 02:00:45 | 00:00:00 | |
| DM0DOS-11 | 2026-08-31 18:29:58 | 49.66415 | 8.68550 | 61° | 57km/h | 14245m | -8.7m/s | -49.6°C | 3.6% | 142.9hPa | 2.6V | 03:17:47 | 02:00:43 | 00:00:00 | |
| DL1NUX | 2026-08-31 18:29:57 | 49.66408 | 8.68531 | 61° | 57km/h | 14253m | -8.4m/s | -49.6°C | 3.6% | 142.7hPa | 2.6V | 03:17:48 | 02:00:42 | 00:00:00 | |
| DB0ND-19 | 2026-08-31 18:29:53 | 49.66415 | 8.68550 | 61° | 55km/h | 14245m | -8.7m/s | -49.6°C | 1.4% | 142.9hPa | 2.6V | 00:00:00 | 00:00:00 | 00:00:00 | |
| DK5PH-5 | 2026-08-31 18:29:52 | 49.66408 | 8.68531 | 62° | 64km/h | 14253m | -8.3m/s | -49.6°C | 3.6% | 142.6hPa | 2.6V | 03:17:00 | 02:00:42 | 00:00:00 | |
| DF1GD-15 | 2026-08-31 18:29:50 | 49.66401 | 8.68512 | 61° | 57km/h | 14262m | -8.3m/s | -49.7°C | 1.5% | 142.5hPa | 2.6V | 03:18:00 | 00:00:00 | 00:00:00 | |
| DM0DOS-11 | 2026-08-31 18:29:48 | 49.66338 | 8.68353 | 58° | 64km/h | 14328m | -8.5m/s | -50.3°C | 3.8% | 141hPa | 2.6V | 03:17:57 | 02:00:33 | 00:00:00 | |
| DK7TD | 2026-08-31 18:29:47 | 49.66371 | 8.68435 | 58° | 60km/h | 14295m | -8.8m/s | -50°C | 0.7% | 0hPa | 2.6V | 03:20:21 | 02:00:37 | 00:00:00 | |
| BIOWL1-15 | 2026-08-31 18:29:45 | 49.66354 | 8.68394 | 57° | 62km/h | 14311m | -8.7m/s | -50.2°C | 0.8% | 141.4hPa | 2.6V | 03:18:39 | 02:00:35 | 00:00:00 | |
| DK7TD | 2026-08-31 18:29:36 | 49.66279 | 8.68204 | 56° | 60km/h | 14388m | -8.5m/s | -50.9°C | 0.9% | 0hPa | 2.6V | 03:20:21 | 02:00:26 | 00:00:00 | |
| BIOWL1-15 | 2026-08-31 18:29:34 | 49.66262 | 8.68165 | 55° | 60km/h | 14406m | -9.5m/s | -51°C | 1% | 139.4hPa | 2.6V | 03:18:39 | 02:00:24 | 00:00:00 | |
| DB0NH | 2026-08-31 18:29:33 | 49.66253 | 8.68146 | 54° | 68km/h | 14415m | -8.6m/s | -51.1°C | 4.0% | 139.1hPa | 2.6V | 00:00:00 | 02:00:23 | 00:00:00 | |
| DB0UT-9 | 2026-08-31 18:29:32 | 49.66253 | 8.68146 | 55° | 62km/h | 14415m | -8.7m/s | -51.1°C | 1.6% | 139.2hPa | 2.6V | 03:18:00 | 00:00:00 | 00:00:00 | |
| NBG1-10 | 2026-08-31 18:29:30 | 49.66223 | 8.68084 | 54° | 68km/h | 14441m | -8.5m/s | -51.2°C | 4.1% | 138.6hPa | 2.6V | 00:00:00 | 02:00:20 | 00:00:00 | |
| DM0DOS-11 | 2026-08-31 18:29:29 | 49.66161 | 8.67949 | 57° | 68km/h | 14492m | -8.1m/s | -51°C | 4% | 137.5hPa | 2.6V | 03:18:16 | 02:00:14 | 00:00:00 | |
| DL1NUX | 2026-08-31 18:29:28 | 49.66152 | 8.67927 | 58° | 66km/h | 14500m | -9.1m/s | -51°C | 4% | 137.3hPa | 2.6V | 03:18:17 | 02:00:13 | 00:00:00 | |
| BIOWL1-15 | 2026-08-31 18:29:27 | 49.66152 | 8.67927 | 58° | 68km/h | 14500m | -9.1m/s | -51°C | 0.9% | 137.3hPa | 2.6V | 03:18:39 | 02:00:13 | 00:00:00 | |
| DK7TD | 2026-08-31 18:29:25 | 49.66170 | 8.67971 | 56° | 69km/h | 14483m | -8m/s | -51°C | 0.9% | 0hPa | 2.5V | 03:20:21 | 02:00:15 | 00:00:00 | |
| DF2AP-13 | 2026-08-31 18:29:24 | 49.66161 | 8.67949 | 58° | 68km/h | 14492m | -8.1m/s | -51.0°C | 4.0% | 137.5hPa | 2.6V | 00:00:00 | 02:00:14 | 00:00:00 | |
| DJ2DS-15 | 2026-08-31 18:29:22 | 49.66143 | 8.67905 | 59° | 66km/h | 14509m | -8.8m/s | -51.0°C | 4.0% | 137.1hPa | 2.6V | 00:00:00 | 02:00:12 | 00:00:00 | |
| KANTATE | 2026-08-31 18:29:20 | 49.66134 | 8.67884 | 60° | 64km/h | 14518m | -9.0m/s | -51.1°C | 1.6% | 137.0hPa | 2.6V | 03:18:00 | 00:00:00 | 00:00:00 | |
| BIOWL7-15 | 2026-08-31 18:29:19 | 49.66126 | 8.67862 | 59° | 64km/h | 14527m | -8.6m/s | -51.1°C | 1.5% | 136.8hPa | 2.6V | 03:18:00 | 00:00:00 | 00:00:00 | |
| DL1KLB | 2026-08-31 18:29:18 | 49.66117 | 8.67841 | 58° | 64km/h | 14536m | -8.6m/s | -51.1°C | 1.6% | 136.6hPa | 2.6V | 00:00:00 | 00:00:00 | 00:00:00 | |
| DO3MHA-11 | 2026-08-31 18:29:17 | 49.66099 | 8.67799 | 57° | 68km/h | 14554m | -9.1m/s | -50.9°C | 3.9% | 136.2hPa | 2.6V | 00:00:00 | 02:00:07 | 00:00:00 | |
| DL1NUX | 2026-08-31 18:29:16 | 49.66042 | 8.67671 | 54° | 68km/h | 14607m | -8.8m/s | -51°C | 3.9% | 135.1hPa | 2.6V | 03:18:29 | 02:00:01 | 00:00:00 | |
| DK7TD | 2026-08-31 18:29:15 | 49.66081 | 8.67758 | 56° | 66km/h | 14572m | -9m/s | -50.9°C | 0.9% | 0hPa | 2.5V | 03:20:21 | 02:00:05 | 00:00:00 | |
| BIOWL9-15 | 2026-08-31 18:29:15 | 49.66072 | 8.67736 | 55° | 66km/h | 14581m | -8.4m/s | -50.9°C | 1.5% | 135.7hPa | 2.6V | 00:00:00 | 00:00:00 | 00:00:00 | |
| DM0DOS-11 | 2026-08-31 18:29:14 | 49.66022 | 8.67629 | 53° | 68km/h | 14624m | -9m/s | -51.1°C | 3.9% | 134.7hPa | 2.6V | 03:18:31 | 01:59:59 | 00:00:00 | |
| BIOWL1-15 | 2026-08-31 18:29:13 | 49.66062 | 8.67715 | 55° | 68km/h | 14589m | -9.1m/s | -51°C | 0.9% | 135.5hPa | 2.6V | 03:18:39 | 02:00:03 | 00:00:00 | |
| SO1NDE-10 | 2026-08-31 18:29:12 | 49.66052 | 8.67693 | 56° | 69km/h | 14598m | -8.7m/s | -51.0°C | 3.9% | 135.2hPa | 2.6V | 00:00:00 | 02:00:02 | 00:00:00 | |
| DB0UT-7 | 2026-08-31 18:29:11 | 49.66042 | 8.67671 | 55° | 69km/h | 14607m | -8.8m/s | -51.0°C | 3.9% | 135.1hPa | 2.6V | 00:00:00 | 00:00:00 | 00:00:00 | |
| DJ2DS-15 | 2026-08-31 18:29:10 | 49.66032 | 8.67650 | 54° | 68km/h | 14616m | -8.6m/s | -51.1°C | 1.5% | 134.9hPa | 2.6V | 00:00:00 | 00:00:00 | 00:00:00 | |
| DF1GD-15 | 2026-08-31 18:29:08 | 49.66022 | 8.67629 | 55° | 68km/h | 14625m | -9.0m/s | -51.1°C | 1.5% | 134.7hPa | 2.6V | 03:18:00 | 00:00:00 | 00:00:00 | |
| DO3MHA-11 | 2026-08-31 18:29:07 | 49.66002 | 8.67586 | 54° | 68km/h | 14643m | -9.0m/s | -51.1°C | 3.9% | 134.3hPa | 2.6V | 00:00:00 | 01:59:57 | 00:00:00 | |
| DL1NUX | 2026-08-31 18:29:06 | 49.65947 | 8.67457 | 58° | 68km/h | 14696m | -9.3m/s | -51.4°C | 4% | 133.3hPa | 2.6V | 03:18:39 | 01:59:51 | 00:00:00 | |
| DK7TD | 2026-08-31 18:29:05 | 49.65983 | 8.67544 | 56° | 66km/h | 14660m | -9m/s | -51.3°C | 1% | 0hPa | 2.5V | 03:20:21 | 01:59:55 | 00:00:00 | |
| DM0DOS-11 | 2026-08-31 18:29:04 | 49.65928 | 8.67411 | 58° | 69km/h | 14714m | -9.2m/s | -51.4°C | 4% | 133hPa | 2.6V | 03:18:41 | 01:59:49 | 00:00:00 | |
| BIOWL1-15 | 2026-08-31 18:29:03 | 49.65955 | 8.67480 | 58° | 68km/h | 14687m | -8.7m/s | -51.4°C | 1% | 133.5hPa | 2.6V | 03:18:39 | 01:59:52 | 00:00:00 | |
| DB0NH | 2026-08-31 18:29:03 | 49.65964 | 8.67501 | 58° | 71km/h | 14678m | -8.5m/s | -51.3°C | 4.0% | 133.6hPa | 2.6V | 00:00:00 | 01:59:53 | 00:00:00 | |
| DJ2DS-15 | 2026-08-31 18:29:02 | 49.65955 | 8.67480 | 59° | 69km/h | 14687m | -8.6m/s | -51.4°C | 4.0% | 133.4hPa | 2.6V | 03:18:00 | 01:59:52 | 00:00:00 | |
| DM7RM-13 | 2026-08-31 18:29:01 | 49.65955 | 8.67480 | 59° | 66km/h | 14687m | -8.7m/s | -51.4°C | 1.6% | 133.5hPa | 2.6V | 03:18:00 | 00:00:00 | 00:00:00 | |
| KANTATE | 2026-08-31 18:29:00 | 49.65947 | 8.67457 | 59° | 68km/h | 14696m | -9.3m/s | -51.4°C | 1.5% | 133.3hPa | 2.6V | 03:18:00 | 00:00:00 | 00:00:00 | |
| BIOWL7-15 | 2026-08-31 18:28:58 | 49.65928 | 8.67411 | 59° | 71km/h | 14715m | -9.3m/s | -51.4°C | 1.5% | 133.0hPa | 2.6V | 03:19:00 | 00:00:00 | 00:00:00 | |
| DO3MHA-11 | 2026-08-31 18:28:57 | 49.65910 | 8.67364 | 60° | 69km/h | 14733m | -9.4m/s | -51.4°C | 4.0% | 132.6hPa | 2.6V | 03:18:00 | 01:59:47 | 00:00:00 | |
| DL1NUX | 2026-08-31 18:28:56 | 49.65857 | 8.67223 | 60° | 69km/h | 14787m | -8.7m/s | -51.8°C | 4.1% | 131.5hPa | 2.6V | 03:18:49 | 01:59:41 | 00:00:00 | |
| DM0DOS-11 | 2026-08-31 18:28:54 | 49.65840 | 8.67177 | 60° | 69km/h | 14805m | -8.6m/s | -51.8°C | 4.1% | 131.1hPa | 2.6V | 03:18:51 | 01:59:39 | 00:00:00 | |
| BIOWL1-15 | 2026-08-31 18:28:52 | 49.65865 | 8.67247 | 61° | 69km/h | 14778m | -8.5m/s | -51.7°C | 1% | 131.7hPa | 2.6V | 03:19:30 | 01:59:42 | 00:00:00 | |
| DK7TD | 2026-08-31 18:28:47 | 49.65823 | 8.67130 | 60° | 71km/h | 14822m | -9.1m/s | -52°C | 1.1% | 0hPa | 2.6V | 03:20:21 | 01:59:37 | 00:00:00 | |
| DO3MHA-11 | 2026-08-31 18:28:47 | 49.65823 | 8.67130 | 61° | 75km/h | 14822m | -9.1m/s | -52.0°C | 4.2% | 130.7hPa | 2.6V | 00:00:00 | 01:59:37 | 00:00:00 | |
| DL1NUX | 2026-08-31 18:28:46 | 49.65771 | 8.66978 | 65° | 77km/h | 14874m | -8.3m/s | -52.2°C | 4.2% | 129.7hPa | 2.6V | 03:18:59 | 01:59:31 | 00:00:00 | |
| DF7PN | 2026-08-31 18:28:45 | 49.65796 | 8.67057 | 61° | 73km/h | 14849m | -8.2m/s | -52.2°C | 1.6% | 130.2hPa | 2.6V | 00:00:00 | 00:00:00 | 00:00:00 | |
| BIOWL9-15 | 2026-08-31 18:28:44 | 49.65788 | 8.67031 | 62° | 73km/h | 14857m | -7.9m/s | -52.2°C | 1.6% | 130.1hPa | 2.6V | 00:00:00 | 00:00:00 | 00:00:00 | |
| DM0DOS-11 | 2026-08-31 18:28:43 | 49.65755 | 8.66923 | 67° | 78km/h | 14890m | -8.9m/s | -52.3°C | 4.2% | 129.4hPa | 2.6V | 03:19:01 | 01:59:29 | 00:00:00 | |
| SO1NDE-10 | 2026-08-31 18:28:42 | 49.65779 | 8.67005 | 65° | 78km/h | 14865m | -8.4m/s | -52.2°C | 4.2% | 129.8hPa | 2.6V | 00:00:00 | 01:59:32 | 00:00:00 | |
| KANTATE | 2026-08-31 18:28:41 | 49.65771 | 8.66978 | 66° | 77km/h | 14874m | -8.4m/s | -52.2°C | 1.6% | 129.7hPa | 2.6V | 00:00:00 | 00:00:00 | 00:00:00 | |
| BIOWL1-15 | 2026-08-31 18:28:41 | 49.65771 | 8.66978 | 65° | 77km/h | 14874m | -8.4m/s | -52.2°C | 1.1% | 129.7hPa | 2.6V | 03:19:30 | 01:59:31 | 00:00:00 | |
| DM7RM-13 | 2026-08-31 18:28:40 | 49.65771 | 8.66978 | 66° | 77km/h | 14874m | -8.4m/s | -52.2°C | 1.6% | 129.7hPa | 2.6V | 03:19:00 | 00:00:00 | 00:00:00 | |
| BIOWL7-15 | 2026-08-31 18:28:38 | 49.65755 | 8.66923 | 68° | 78km/h | 14890m | -9.0m/s | -52.3°C | 1.6% | 129.4hPa | 2.6V | 03:19:00 | 00:00:00 | 00:00:00 | |
| DO3MHA-11 | 2026-08-31 18:28:37 | 49.65740 | 8.66866 | 70° | 75km/h | 14908m | -9.0m/s | -52.3°C | 4.2% | 128.9hPa | 2.6V | 00:00:00 | 01:59:27 | 00:00:00 | |
| DL1NUX | 2026-08-31 18:28:36 | 49.65703 | 8.66703 | 70° | 73km/h | 14962m | -8.9m/s | -52.6°C | 4.3% | 128hPa | 2.6V | 03:19:09 | 01:59:21 | 00:00:00 | |
| DL8DAS-14 | 2026-08-31 18:28:35 | 49.65721 | 8.66782 | 70° | 71km/h | 14934m | -8.8m/s | -52.5°C | 1.6% | 128.5hPa | 2.6V | 00:00:00 | 00:00:00 | 00:00:00 | |
| DM0DOS-11 | 2026-08-31 18:28:34 | 49.65691 | 8.66648 | 71° | 75km/h | 14979m | -8.5m/s | -52.7°C | 4.3% | 127.6hPa | 2.6V | 03:19:11 | 01:59:19 | 00:00:00 | |
| DK7TD | 2026-08-31 18:28:32 | 49.65709 | 8.66730 | 70° | 71km/h | 14953m | -9.2m/s | -52.6°C | 1.1% | 0hPa | 2.6V | 03:20:21 | 01:59:22 | 00:00:00 | |
| BIOWL1-15 | 2026-08-31 18:28:30 | 49.65697 | 8.66676 | 71° | 73km/h | 14971m | -8.9m/s | -52.7°C | 1.1% | 127.8hPa | 2.6V | 03:19:30 | 01:59:20 | 00:00:00 | |
| DB0UT-9 | 2026-08-31 18:28:29 | 49.65697 | 8.66676 | 72° | 75km/h | 14971m | -8.9m/s | -52.7°C | 1.7% | 127.8hPa | 2.6V | 03:19:00 | 00:00:00 | 00:00:00 | |
| DH7VM-15 | 2026-08-31 18:28:28 | 49.65690 | 8.66648 | 73° | 75km/h | 14979m | -8.5m/s | -52.7°C | 1.6% | 127.6hPa | 2.6V | 00:00:00 | 00:00:00 | 00:00:00 | |
| DF1GD-15 | 2026-08-31 18:28:27 | 49.65685 | 8.66620 | 74° | 77km/h | 14988m | -9.0m/s | -52.6°C | 1.6% | 127.4hPa | 2.6V | 03:19:00 | 00:00:00 | 00:00:00 | |
| DL1NUX | 2026-08-31 18:28:26 | 49.65650 | 8.66415 | 75° | 80km/h | 15052m | -9.1m/s | -52.5°C | 4.2% | 126.2hPa | 2.6V | 03:19:19 | 01:59:11 | 00:00:00 | |
| DO3MHA-11 | 2026-08-31 18:28:26 | 49.65674 | 8.66563 | 75° | 80km/h | 15007m | -9.9m/s | -52.4°C | 4.2% | 127.0hPa | 2.6V | 00:00:00 | 01:59:16 | 00:00:00 | |
| DO3DL | 2026-08-31 18:28:25 | 49.65669 | 8.66534 | 76° | 77km/h | 15017m | -8.7m/s | -52.4°C | 1.6% | 126.9hPa | 2.6V | 00:00:00 | 00:00:00 | 00:00:00 | |
| NBG1-10 | 2026-08-31 18:28:24 | 49.65664 | 8.66505 | 77° | 77km/h | 15025m | -8.7m/s | -52.4°C | 4.2% | 126.7hPa | 2.6V | 03:19:00 | 01:59:14 | 00:00:00 | |
| DM0DOS-11 | 2026-08-31 18:28:23 | 49.65639 | 8.66354 | 74° | 82km/h | 15070m | -9.1m/s | -52.6°C | 4.3% | 125.8hPa | 2.6V | 03:19:21 | 01:59:09 | 00:00:00 | |
| DK7TD | 2026-08-31 18:28:21 | 49.65650 | 8.66415 | 76° | 80km/h | 15052m | -9.1m/s | -52.5°C | 1% | 0hPa | 2.6V | 03:20:21 | 01:59:11 | 00:00:00 | |
| BIOWL1-15 | 2026-08-31 18:28:19 | 49.65640 | 8.66354 | 75° | 82km/h | 15070m | -9.1m/s | -52.6°C | 1.1% | 125.8hPa | 2.6V | 03:19:30 | 01:59:09 | 00:00:00 | |
| KANTATE | 2026-08-31 18:28:17 | 49.65634 | 8.66323 | 75° | 82km/h | 15079m | -8.7m/s | -52.7°C | 1.6% | 125.7hPa | 2.6V | 00:00:00 | 00:00:00 | 00:00:00 | |
| DL1NUX | 2026-08-31 18:28:16 | 49.65593 | 8.66113 | 75° | 77km/h | 15141m | -9m/s | -53°C | 4.4% | 124.5hPa | 2.6V | 03:19:29 | 01:59:01 | 00:00:00 | |
| DO3MHA-11 | 2026-08-31 18:28:16 | 49.65622 | 8.66262 | 73° | 78km/h | 15097m | -8.9m/s | -52.6°C | 4.3% | 125.3hPa | 2.6V | 03:19:00 | 01:59:06 | 00:00:00 | |
| BIOWL7-15 | 2026-08-31 18:28:15 | 49.65622 | 8.66262 | 74° | 82km/h | 15097m | -8.9m/s | -52.7°C | 1.6% | 125.3hPa | 2.6V | 03:19:00 | 00:00:00 | 00:00:00 | |
| DM0DOS-11 | 2026-08-31 18:28:14 | 49.65584 | 8.66056 | 76° | 75km/h | 15160m | -9m/s | -52.9°C | 4.4% | 124.1hPa | 2.6V | 03:19:31 | 01:58:59 | 00:00:00 | |
| DK7TD | 2026-08-31 18:28:09 | 49.65584 | 8.66056 | 77° | 75km/h | 15160m | -9m/s | -52.9°C | 1.2% | 0hPa | 2.6V | 03:20:21 | 01:58:59 | 00:00:00 | |
| BIOWL1-15 | 2026-08-31 18:28:08 | 49.65580 | 8.66027 | 78° | 75km/h | 15169m | -9.3m/s | -52.9°C | 1.2% | 123.9hPa | 2.6V | 03:20:21 | 01:58:58 | 00:00:00 | |
| DB0UT-7 | 2026-08-31 18:28:07 | 49.65575 | 8.65998 | 78° | 73km/h | 15178m | -8.8m/s | -52.9°C | 4.4% | 123.7hPa | 2.6V | 00:00:00 | 00:00:00 | 00:00:00 | |
| DL1NUX | 2026-08-31 18:28:06 | 49.65550 | 8.65826 | 76° | 77km/h | 15235m | -12.6m/s | -53.1°C | 4.4% | 122.8hPa | 2.6V | 03:19:39 | 01:58:51 | 00:00:00 | |
| DO3MHA-11 | 2026-08-31 18:28:06 | 49.65571 | 8.65969 | 78° | 75km/h | 15187m | -9.0m/s | -52.9°C | 4.4% | 123.5hPa | 2.6V | 00:00:00 | 01:58:56 | 00:00:00 | |
| DJTTGO | 2026-08-31 18:28:05 | 49.65571 | 8.65969 | 79° | 77km/h | 15187m | -9.0m/s | -52.9°C | 1.6% | 123.6hPa | 2.6V | 03:20:00 | 00:00:00 | 00:00:00 | |
| DM0DOS-11 | 2026-08-31 18:28:03 | 49.65541 | 8.65769 | 76° | 75km/h | 15255m | -8.1m/s | -53.2°C | 4.5% | 122.3hPa | 2.6V | 03:19:41 | 01:58:49 | 00:00:00 | |
| DK7TD | 2026-08-31 18:27:59 | 49.65541 | 8.65769 | 76° | 77km/h | 15255m | -8.1m/s | -53.2°C | 1.2% | 0hPa | 2.6V | 03:20:21 | 01:58:49 | 00:00:00 | |
| BIOWL1-15 | 2026-08-31 18:27:58 | 49.65536 | 8.65740 | 76° | 75km/h | 15264m | -9.4m/s | -53.3°C | 1.2% | 122.1hPa | 2.6V | 03:20:21 | 01:58:48 | 00:00:00 | |
| DJ2DS-15 | 2026-08-31 18:27:58 | 49.65536 | 8.65740 | 75° | 75km/h | 15264m | -9.4m/s | -53.3°C | 1.7% | 122.1hPa | 2.6V | 00:00:00 | 00:00:00 | 00:00:00 | |
| DF3TZ-5 | 2026-08-31 18:27:55 | 49.65519 | 8.65628 | 77° | 73km/h | 15299m | -8.9m/s | -53.4°C | 1.7% | 121.5hPa | 2.6V | 00:00:00 | 00:00:00 | 00:00:00 | |
| DL1NUX | 2026-08-31 18:27:55 | 49.65503 | 8.65515 | 77° | 73km/h | 15336m | -9.9m/s | -53°C | 4.3% | 120.8hPa | 2.6V | 03:19:50 | 01:58:40 | 00:00:00 | |
| DF2AP-13 | 2026-08-31 18:27:54 | 49.65519 | 8.65627 | 78° | 69km/h | 15300m | -8.8m/s | -53.4°C | 4.5% | 121.4hPa | 2.6V | 03:19:00 | 01:58:44 | 00:00:00 | |
| DM0DOS-11 | 2026-08-31 18:27:53 | 49.65498 | 8.65487 | 76° | 73km/h | 15346m | -9.3m/s | -52.8°C | 4.3% | 120.6hPa | 2.6V | 03:19:51 | 01:58:39 | 00:00:00 | |
| BIOWL1-15 | 2026-08-31 18:27:47 | 49.65489 | 8.65431 | 74° | 75km/h | 15365m | -9.3m/s | -52.8°C | 1.1% | 120.2hPa | 2.6V | 03:20:21 | 01:58:37 | 00:00:00 | |
| DK7TD | 2026-08-31 18:27:43 | 49.65466 | 8.65323 | 71° | 71km/h | 15400m | -8.8m/s | -52.7°C | 1% | 0hPa | 2.6V | 03:20:21 | 01:58:33 | 00:00:00 | |
| DM0DOS-11 | 2026-08-31 18:27:43 | 49.65441 | 8.65221 | 68° | 68km/h | 15436m | -9.3m/s | -52.7°C | 4.2% | 118.9hPa | 2.6V | 03:20:01 | 01:58:29 | 00:00:00 | |
| BIOWL1-15 | 2026-08-31 18:27:37 | 49.65428 | 8.65173 | 68° | 68km/h | 15455m | -9.3m/s | -52.7°C | 1.1% | 118.6hPa | 2.6V | 03:20:21 | 01:58:27 | 00:00:00 | |
| DO3MHA-11 | 2026-08-31 18:27:36 | 49.65421 | 8.65149 | 68° | 68km/h | 15465m | -9.9m/s | -52.7°C | 4.2% | 118.4hPa | 2.6V | 03:20:00 | 01:58:26 | 00:00:00 | |
| DB0UT-7 | 2026-08-31 18:27:34 | 49.65409 | 8.65101 | 69° | 69km/h | 15483m | -8.8m/s | -52.8°C | 4.3% | 118.0hPa | 2.6V | 00:00:00 | 01:58:24 | 00:00:00 | |
| DM0DOS-11 | 2026-08-31 18:27:33 | 49.65379 | 8.64979 | 68° | 68km/h | 15529m | -9.3m/s | -53.1°C | 4.3% | 117.2hPa | 2.6V | 03:20:11 | 01:58:19 | 00:00:00 | |
| DB0NH | 2026-08-31 18:27:33 | 49.65403 | 8.65077 | 70° | 68km/h | 15492m | -9.4m/s | -52.9°C | 4.3% | 117.9hPa | 2.6V | 00:00:00 | 01:58:23 | 00:00:00 | |
| DO3DL | 2026-08-31 18:27:30 | 49.65391 | 8.65028 | 70° | 68km/h | 15511m | -9.1m/s | -53.0°C | 1.6% | 117.6hPa | 2.6V | 03:20:00 | 00:00:00 | 00:00:00 | |
| DL1NUX | 2026-08-31 18:27:29 | 49.65348 | 8.64857 | 70° | 68km/h | 15576m | -8.8m/s | -53.3°C | 4.5% | 116.4hPa | 2.6V | 03:20:16 | 01:58:14 | 00:00:00 | |
| DK7TD | 2026-08-31 18:27:29 | 49.65379 | 8.64979 | 68° | 68km/h | 15529m | -9.3m/s | -53.1°C | 1.1% | 0hPa | 2.6V | 03:20:21 | 01:58:19 | 00:00:00 | |
| BIOWL1-15 | 2026-08-31 18:27:26 | 49.65360 | 8.64906 | 69° | 68km/h | 15557m | -9m/s | -53.3°C | 1.2% | 116.7hPa | 2.6V | 03:20:21 | 01:58:16 | 00:00:00 | |
| DO3MHA-11 | 2026-08-31 18:27:26 | 49.65360 | 8.64906 | 70° | 69km/h | 15558m | -9.0m/s | -53.3°C | 4.5% | 116.7hPa | 2.6V | 00:00:00 | 01:58:16 | 00:00:00 | |
| DB0UT-9 | 2026-08-31 18:27:25 | 49.65360 | 8.64906 | 70° | 68km/h | 15558m | -9.0m/s | -53.3°C | 1.7% | 116.7hPa | 2.6V | 03:20:00 | 00:00:00 | 00:00:00 | |
| DF3TZ-5 | 2026-08-31 18:27:24 | 49.65343 | 8.64832 | 70° | 68km/h | 15585m | -8.2m/s | -53.3°C | 1.6% | 116.2hPa | 2.6V | 00:00:00 | 00:00:00 | 00:00:00 | |
| DM0DOS-11 | 2026-08-31 18:27:23 | 49.65322 | 8.64727 | 75° | 71km/h | 15622m | -9.3m/s | -53.1°C | 4.5% | 115.6hPa | 2.6V | 03:20:21 | 01:58:09 | 00:00:00 | |
| DF2AP-13 | 2026-08-31 18:27:23 | 49.65343 | 8.64832 | 71° | 68km/h | 15585m | -8.1m/s | -53.3°C | 4.5% | 116.2hPa | 2.6V | 00:00:00 | 01:58:13 | 00:00:00 | |
| DJ2DS-15 | 2026-08-31 18:27:22 | 49.65337 | 8.64806 | 73° | 69km/h | 15594m | -9.7m/s | -53.3°C | 4.5% | 116.0hPa | 2.7V | 00:00:00 | 01:58:12 | 00:00:00 | |
| DL0LBS | 2026-08-31 18:27:20 | 49.65332 | 8.64780 | 74° | 69km/h | 15603m | -9.3m/s | -53.3°C | 1.7% | 115.9hPa | 2.7V | 03:20:00 | 00:00:00 | 00:00:00 | |
| DL1NUX | 2026-08-31 18:27:19 | 49.65301 | 8.64587 | 76° | 75km/h | 15669m | -8.5m/s | -52.7°C | 4.3% | 114.8hPa | 2.7V | 03:20:26 | 01:58:04 | 00:00:00 | |
| DK7TD | 2026-08-31 18:27:18 | 49.65318 | 8.64700 | 77° | 73km/h | 15631m | -9.2m/s | 0°C | 0% | 0hPa | 2.6V | 18:12:15 | 01:58:08 | 00:00:00 | |
| BIOWL1-15 | 2026-08-31 18:27:18 | 49.65309 | 8.64644 | 77° | 75km/h | 15650m | -9.3m/s | -52.8°C | 1.1% | 115.1hPa | 2.6V | 03:21:12 | 01:58:06 | 00:00:00 | |
| NBG1-10 | 2026-08-31 18:27:18 | 49.65318 | 8.64700 | 77° | 64km/h | 15632m | -9.1m/s | -52.9°C | 4.4% | 115.3hPa | 2.6V | 00:00:00 | 01:58:08 | 00:00:00 | |
| DL4BBY-15 | 2026-08-31 18:27:17 | 49.65314 | 8.64672 | 78° | 64km/h | 15641m | -9.2m/s | -51.5°C | 0% | 0hPa | 2.6V | 00:00:00 | 00:00:00 | 00:00:00 | |
| DO3MHA-11 | 2026-08-31 18:27:16 | 49.65309 | 8.64643 | 78° | 71km/h | 15650m | -9.2m/s | -52.8°C | 4.4% | 115.0hPa | 2.6V | 00:00:00 | 01:58:06 | 00:00:00 | |
| DL1KLB | 2026-08-31 18:27:15 | 49.65310 | 8.64644 | 78° | 75km/h | 15650m | -9.3m/s | -52.8°C | 1.6% | 115.1hPa | 2.6V | 03:21:00 | 00:00:00 | 00:00:00 | |
| SFWM-10 | 2026-08-31 18:27:14 | 49.65305 | 8.64615 | 78° | 75km/h | 15659m | -9.5m/s | -52.8°C | 1.6% | 114.9hPa | 2.6V | 03:21:00 | 00:00:00 | 00:00:00 | |
| KANTATE | 2026-08-31 18:27:12 | 49.65297 | 8.64558 | 78° | 73km/h | 15677m | -8.1m/s | -52.8°C | 1.6% | 114.6hPa | 2.6V | 03:21:00 | 00:00:00 | 00:00:00 | |
| DL8DAS-15 | 2026-08-31 18:27:11 | 49.65292 | 8.64531 | 78° | 71km/h | 15686m | -9.8m/s | -52.8°C | 1.6% | 114.4hPa | 2.6V | 00:00:00 | 00:00:00 | 00:00:00 | |
| SO1NDE-10 | 2026-08-31 18:27:10 | 49.65285 | 8.64477 | 80° | 57km/h | 15705m | -9.3m/s | -52.8°C | 4.3% | 114.0hPa | 2.6V | 00:00:00 | 01:58:00 | 00:00:00 | |
| DL1NUX | 2026-08-31 18:27:09 | 49.65271 | 8.64325 | 84° | 60km/h | 15763m | -8.7m/s | -52.3°C | 4.2% | 113hPa | 2.6V | 03:20:36 | 01:57:54 | 00:00:00 | |
| DK7TD | 2026-08-31 18:27:08 | 49.65279 | 8.64425 | 81° | 68km/h | 15726m | -9.4m/s | 0°C | 0% | 0hPa | 2.7V | 18:12:15 | 01:57:58 | 00:00:00 | |
| BIOWL1-15 | 2026-08-31 18:27:05 | 49.65273 | 8.64349 | 84° | 64km/h | 15754m | -9.2m/s | -52.4°C | 1.1% | 113.2hPa | 2.6V | 03:21:12 | 01:57:55 | 00:00:00 | |
| DB0UT-7 | 2026-08-31 18:27:04 | 49.65271 | 8.64325 | 85° | 57km/h | 15763m | -8.6m/s | -52.2°C | 4.2% | 113.0hPa | 2.6V | 00:00:00 | 00:00:00 | 00:00:00 | |
| DM0DOS-11 | 2026-08-31 18:27:03 | 49.65265 | 8.64207 | 86° | 64km/h | 15808m | -9m/s | -52.3°C | 4.2% | 112.3hPa | 2.6V | 03:20:41 | 01:57:49 | 00:00:00 | |
| BIOWL1-15 | 2026-08-31 18:26:54 | 49.65263 | 8.64085 | 92° | 58km/h | 15854m | -9m/s | -52.3°C | 1% | 111.5hPa | 2.6V | 03:21:12 | 01:57:44 | 00:00:00 | |
| DM0DOS-11 | 2026-08-31 18:26:53 | 49.65266 | 8.63980 | 91° | 51km/h | 15903m | -9.5m/s | -52.5°C | 4.2% | 110.6hPa | 2.6V | 03:20:51 | 01:57:39 | 00:00:00 | |
| DK7TD | 2026-08-31 18:26:50 | 49.65266 | 8.64000 | 93° | 51km/h | 15893m | -10.3m/s | 0°C | 0% | 0hPa | 2.6V | 18:12:15 | 01:57:40 | 00:00:00 | |
| DB0ND-19 | 2026-08-31 18:26:47 | 49.65266 | 8.63921 | 87° | 49km/h | 15933m | -9.8m/s | -52.6°C | 1.5% | 110.2hPa | 2.6V | 00:00:00 | 00:00:00 | 00:00:00 | |
| DJ2DS-15 | 2026-08-31 18:26:46 | 49.65266 | 8.63921 | 87° | 49km/h | 15933m | -9.8m/s | -52.6°C | 1.5% | 110.2hPa | 2.6V | 00:00:00 | 00:00:00 | 00:00:00 | |
| BIOWL1-15 | 2026-08-31 18:26:45 | 49.65265 | 8.63864 | 89° | 49km/h | 15961m | -9.4m/s | -52.5°C | 1% | 109.7hPa | 2.6V | 03:21:12 | 01:57:33 | 00:00:00 | |
| NBG1-10 | 2026-08-31 18:26:45 | 49.65265 | 8.63902 | 89° | 55km/h | 15942m | -8.4m/s | -52.5°C | 4.2% | 109.9hPa | 2.7V | 00:00:00 | 01:57:35 | 00:00:00 | |
| DB0UT-9 | 2026-08-31 18:26:44 | 49.65265 | 8.63902 | 89° | 49km/h | 15942m | -8.5m/s | -52.6°C | 1.6% | 110.0hPa | 2.7V | 03:21:00 | 00:00:00 | 00:00:00 | |
| DM0DOS-11 | 2026-08-31 18:26:43 | 49.65262 | 8.63784 | 85° | 53km/h | 15996m | -8.4m/s | -52.4°C | 4.1% | 109hPa | 2.7V | 03:21:01 | 01:57:29 | 00:00:00 | |
| DJ2DS-15 | 2026-08-31 18:26:42 | 49.65264 | 8.63844 | 89° | 57km/h | 15971m | -9.3m/s | -52.3°C | 4.1% | 109.4hPa | 2.7V | 00:00:00 | 01:57:32 | 00:00:00 | |
| DO3DL | 2026-08-31 18:26:41 | 49.65264 | 8.63844 | 89° | 49km/h | 15971m | -9.3m/s | -52.4°C | 1.5% | 109.5hPa | 2.7V | 03:21:00 | 00:00:00 | 00:00:00 | |
| DL8DAS-15 | 2026-08-31 18:26:40 | 49.65264 | 8.63825 | 89° | 51km/h | 15980m | -9.4m/s | -52.4°C | 1.5% | 109.3hPa | 2.7V | 00:00:00 | 00:00:00 | 00:00:00 | |
| BIOWL9-15 | 2026-08-31 18:26:39 | 49.65262 | 8.63784 | 85° | 53km/h | 15996m | -8.4m/s | -52.4°C | 1.5% | 109.0hPa | 2.7V | 00:00:00 | 00:00:00 | 00:00:00 | |
| DL1ZP-14 | 2026-08-31 18:26:38 | 49.65261 | 8.63763 | 85° | 55km/h | 16005m | -9.2m/s | -52.4°C | 1.5% | 108.9hPa | 2.7V | 00:00:00 | 00:00:00 | 00:00:00 | |
| DL1NUX | 2026-08-31 18:26:37 | 49.65253 | 8.63629 | 83° | 58km/h | 16064m | -9.7m/s | -52.8°C | 4.2% | 107.9hPa | 2.6V | 03:21:08 | 01:57:22 | 00:00:00 | |
| BIOWL1-15 | 2026-08-31 18:26:33 | 49.65255 | 8.63652 | 84° | 58km/h | 16054m | -10.4m/s | -52.7°C | 1% | 108.1hPa | 2.7V | 03:21:12 | 01:57:23 | 00:00:00 | |
| DN1GJH-1 | 2026-08-31 18:26:32 | 49.65255 | 8.63652 | 85° | 58km/h | 16054m | -10.4m/s | -52.7°C | 1.5% | 108.1hPa | 2.6V | 03:21:00 | 00:00:00 | 00:00:00 | |
| DB0UT-7 | 2026-08-31 18:26:31 | 49.65251 | 8.63606 | 84° | 55km/h | 16074m | -9.4m/s | -52.8°C | 4.2% | 107.7hPa | 2.6V | 03:21:00 | 01:57:21 | 00:00:00 | |
| DL8DAS-14 | 2026-08-31 18:26:30 | 49.65250 | 8.63584 | 82° | 58km/h | 16083m | -9.7m/s | -52.9°C | 1.5% | 107.6hPa | 2.6V | 00:00:00 | 00:00:00 | 00:00:00 | |
| DB0NH | 2026-08-31 18:26:29 | 49.65247 | 8.63561 | 82° | 55km/h | 16093m | -9.7m/s | -52.9°C | 4.3% | 107.3hPa | 2.6V | 00:00:00 | 01:57:19 | 00:00:00 | |
| DL9PN | 2026-08-31 18:26:28 | 49.65245 | 8.63539 | 81° | 57km/h | 16103m | -9.3m/s | -52.9°C | 1.5% | 107.2hPa | 2.6V | 00:00:00 | 00:00:00 | 00:00:00 | |
| DO1YAY-16 | 2026-08-31 18:26:27 | 49.65243 | 8.63517 | 81° | 57km/h | 16112m | -9.2m/s | -52.9°C | 1.5% | 107.1hPa | 2.6V | 00:00:00 | 00:00:00 | 00:00:00 | |
| DL1NUX | 2026-08-31 18:26:26 | 49.65231 | 8.63391 | 80° | 53km/h | 16170m | -10.5m/s | -52.9°C | 4.2% | 106.1hPa | 2.6V | 03:21:19 | 01:57:11 | 00:00:00 | |
| BIOWL1-15 | 2026-08-31 18:26:22 | 49.65233 | 8.63411 | 81° | 53km/h | 16160m | -9.1m/s | -52.9°C | 1.1% | 106.3hPa | 2.7V | 03:22:03 | 01:57:12 | 00:00:00 | |
| DK7TD | 2026-08-31 18:26:21 | 49.65231 | 8.63391 | 80° | 53km/h | 16170m | -10.5m/s | 0°C | 0% | 0hPa | 2.6V | 18:12:15 | 01:57:11 | 00:00:00 | |
| HEMX73-11 | 2026-08-31 18:26:20 | 49.65230 | 8.63390 | 81° | 53km/h | 16170m | -10.5m/s | -52.9°C | 1.5% | 106.1hPa | 2.6V | 03:22:00 | 00:00:00 | 00:00:00 | |
| DH7VM-15 | 2026-08-31 18:26:19 | 49.65228 | 8.63370 | 81° | 55km/h | 16180m | -9.7m/s | -52.9°C | 1.5% | 106.0hPa | 2.6V | 00:00:00 | 00:00:00 | 00:00:00 | |
| DM7RM-13 | 2026-08-31 18:26:18 | 49.65223 | 8.63329 | 81° | 53km/h | 16200m | -9.9m/s | -53.0°C | 1.5% | 105.7hPa | 2.6V | 03:22:00 | 00:00:00 | 00:00:00 | |
| DL4BBY-15 | 2026-08-31 18:26:17 | 49.65221 | 8.63308 | 81° | 58km/h | 16209m | -10.0m/s | -51.6°C | 0% | 0hPa | 2.6V | 00:00:00 | 00:00:00 | 00:00:00 | |
| DL1NUX | 2026-08-31 18:26:16 | 49.65208 | 8.63183 | 78° | 57km/h | 16267m | -10.2m/s | -53°C | 4.3% | 104.6hPa | 2.6V | 03:21:29 | 01:57:01 | 00:00:00 | |
| DL1XH-west | 2026-08-31 18:26:14 | 49.65215 | 8.63247 | 82° | 53km/h | 16239m | -9m/s | -52.9°C | 1% | 105hPa | 2.6V | 03:22:03 | 01:57:04 | 00:00:00 | |
| BIOWL1-15 | 2026-08-31 18:26:11 | 49.65208 | 8.63183 | 78° | 57km/h | 16267m | -10.2m/s | -53°C | 1% | 104.6hPa | 2.6V | 03:22:03 | 01:57:01 | 00:00:00 | |
| SO1NDE-10 | 2026-08-31 18:26:11 | 49.65208 | 8.63183 | 79° | 60km/h | 16267m | -10.2m/s | -52.9°C | 4.3% | 104.5hPa | 2.6V | 00:00:00 | 01:57:01 | 00:00:00 | |
| DJ2DS-15 | 2026-08-31 18:26:10 | 49.65205 | 8.63162 | 77° | 55km/h | 16276m | -9.3m/s | -53.0°C | 1.5% | 104.4hPa | 2.6V | 00:00:00 | 00:00:00 | 00:00:00 | |
| DF7PN | 2026-08-31 18:26:09 | 49.65202 | 8.63141 | 75° | 55km/h | 16285m | -9.2m/s | -53.0°C | 1.5% | 104.3hPa | 2.6V | 00:00:00 | 00:00:00 | 00:00:00 | |
| BIOWL9-15 | 2026-08-31 18:26:08 | 49.65198 | 8.63120 | 74° | 55km/h | 16295m | -9.1m/s | -52.9°C | 1.5% | 104.1hPa | 2.6V | 00:00:00 | 00:00:00 | 00:00:00 | |
| DL1ZP-14 | 2026-08-31 18:26:07 | 49.65194 | 8.63099 | 72° | 55km/h | 16304m | -10.1m/s | -52.8°C | 1.5% | 104.0hPa | 2.6V | 00:00:00 | 00:00:00 | 00:00:00 | |
| DL1NUX | 2026-08-31 18:26:06 | 49.65166 | 8.62973 | 71° | 60km/h | 16364m | -10.1m/s | -52.6°C | 4.1% | 103hPa | 2.6V | 03:21:39 | 01:56:51 | 00:00:00 | |
| DL1XH-west | 2026-08-31 18:26:04 | 49.65181 | 8.63037 | 71° | 57km/h | 16334m | -9.8m/s | -52.7°C | 0.9% | 103.5hPa | 2.7V | 03:22:03 | 01:56:54 | 00:00:00 | |
| BIOWL1-15 | 2026-08-31 18:26:00 | 49.65161 | 8.62950 | 72° | 62km/h | 16374m | -9.7m/s | -52.7°C | 0.9% | 102.9hPa | 2.6V | 03:22:03 | 01:56:50 | 00:00:00 | |
| DL8DAS-14 | 2026-08-31 18:25:59 | 49.65157 | 8.62927 | 71° | 62km/h | 16384m | -8.9m/s | -52.7°C | 1.4% | 102.7hPa | 2.7V | 00:00:00 | 00:00:00 | 00:00:00 | |
| DL9PN | 2026-08-31 18:25:57 | 49.65147 | 8.62880 | 73° | 62km/h | 16404m | -10.6m/s | -52.8°C | 1.5% | 102.4hPa | 2.7V | 00:00:00 | 00:00:00 | 00:00:00 | |
| DL1NUX | 2026-08-31 18:25:56 | 49.65121 | 8.62745 | 73° | 58km/h | 16464m | -9.7m/s | -53.1°C | 4.4% | 101.5hPa | 2.7V | 03:21:49 | 01:56:41 | 00:00:00 | |
| DL1XH-west | 2026-08-31 18:25:54 | 49.65134 | 8.62811 | 73° | 60km/h | 16434m | -10.2m/s | -53°C | 1% | 101.9hPa | 2.6V | 03:22:03 | 01:56:44 | 00:00:00 | |
| BIOWL1-15 | 2026-08-31 18:25:49 | 49.65112 | 8.62701 | 75° | 60km/h | 16484m | -9.8m/s | -52.8°C | 1% | 101.1hPa | 2.6V | 03:22:03 | 01:56:39 | 00:00:00 | |
| DL1XH1-15 | 2026-08-31 18:25:48 | 49.65098 | 8.62559 | 86° | 62km/h | 16541m | -10.1m/s | -52.7°C | 4.2% | 100.2hPa | 2.6V | 03:21:57 | 01:56:33 | 00:00:00 | |
| DL4BBY-15 | 2026-08-31 18:25:47 | 49.65105 | 8.62654 | 80° | 57km/h | 16503m | -9.2m/s | -51.3°C | 0% | 0hPa | 2.6V | 00:00:00 | 00:00:00 | 00:00:00 | |
| DL1NUX | 2026-08-31 18:25:46 | 49.65097 | 8.62512 | 86° | 60km/h | 16561m | -9.4m/s | -52.9°C | 4.3% | 99.9hPa | 2.6V | 03:21:59 | 01:56:31 | 00:00:00 | |
| DL1XH-west | 2026-08-31 18:25:44 | 49.65099 | 8.62583 | 86° | 62km/h | 16531m | -10.1m/s | -52.7°C | 1% | 100.4hPa | 2.6V | 03:22:03 | 01:56:34 | 00:00:00 | |
| BIOWL1-15 | 2026-08-31 18:25:40 | 49.65093 | 8.62441 | 85° | 60km/h | 16590m | -10.4m/s | -53°C | 1% | 99.5hPa | 2.7V | 03:22:03 | 01:56:28 | 00:00:00 | |
| SO1NDE-10 | 2026-08-31 18:25:40 | 49.65095 | 8.62488 | 87° | 58km/h | 16571m | -9.2m/s | -52.9°C | 4.3% | 99.7hPa | 2.6V | 03:22:00 | 01:56:30 | 00:00:00 | |
| DL0LBS | 2026-08-31 18:25:39 | 49.65095 | 8.62465 | 87° | 60km/h | 16580m | -9.5m/s | -53.0°C | 1.5% | 99.6hPa | 2.6V | 03:22:00 | 00:00:00 | 00:00:00 | |
| DF7PN | 2026-08-31 18:25:38 | 49.65093 | 8.62441 | 84° | 58km/h | 16590m | -10.4m/s | -53.0°C | 1.5% | 99.5hPa | 2.6V | 00:00:00 | 00:00:00 | 00:00:00 | |
| DL1XH1-15 | 2026-08-31 18:25:38 | 49.65087 | 8.62327 | 85° | 57km/h | 16641m | -10.5m/s | -52.9°C | 4.3% | 98.7hPa | 2.7V | 03:22:07 | 01:56:23 | 00:00:00 | |
| BIOWL9-15 | 2026-08-31 18:25:37 | 49.65092 | 8.62418 | 84° | 60km/h | 16600m | -10.3m/s | -53.0°C | 1.5% | 99.3hPa | 2.6V | 00:00:00 | 00:00:00 | 00:00:00 | |
| DL1NUX | 2026-08-31 18:25:36 | 49.65085 | 8.62284 | 85° | 53km/h | 16662m | -11.2m/s | -52.6°C | 4.2% | 98.4hPa | 2.6V | 03:22:09 | 01:56:21 | 00:00:00 | |
| DK7TD | 2026-08-31 18:25:34 | 49.65088 | 8.62349 | 85° | 58km/h | 16630m | -10.6m/s | 0°C | 0% | 0hPa | 2.7V | 18:12:15 | 01:56:24 | 00:00:00 | |
| DL1XH-west | 2026-08-31 18:25:33 | 49.65087 | 8.62327 | 85° | 57km/h | 16641m | -10.5m/s | -52.9°C | 1% | 98.7hPa | 2.7V | 03:22:54 | 01:56:23 | 00:00:00 | |
| DM0DOS-11 | 2026-08-31 18:25:32 | 49.65080 | 8.62203 | 83° | 53km/h | 16705m | -10.2m/s | -52.6°C | 4.2% | 97.7hPa | 2.7V | 03:22:13 | 01:56:17 | 00:00:00 | |
| BIOWL1-15 | 2026-08-31 18:25:27 | 49.65080 | 8.62203 | 84° | 53km/h | 16705m | -10.2m/s | -52.6°C | 0.9% | 97.7hPa | 2.7V | 03:22:54 | 01:56:17 | 00:00:00 | |
| DL1NUX | 2026-08-31 18:25:26 | 49.65061 | 8.62078 | 70° | 53km/h | 16767m | -11.8m/s | -52.6°C | 4.3% | 96.8hPa | 2.6V | 03:22:19 | 01:56:11 | 00:00:00 | |
| DK7TD | 2026-08-31 18:25:24 | 49.65073 | 8.62139 | 77° | 57km/h | 16736m | -10.7m/s | 0°C | 0% | 0hPa | 2.6V | 18:12:15 | 01:56:14 | 00:00:00 | |
| DL1XH-west | 2026-08-31 18:25:23 | 49.65069 | 8.62118 | 74° | 57km/h | 16746m | -9.9m/s | -52.7°C | 1% | 97.1hPa | 2.6V | 03:22:54 | 01:56:13 | 00:00:00 | |
| DF2AP-13 | 2026-08-31 18:25:23 | 49.65069 | 8.62118 | 74° | 58km/h | 16746m | -9.9m/s | -52.6°C | 4.3% | 97.1hPa | 2.7V | 00:00:00 | 01:56:13 | 00:00:00 | |
| DJ2DS-15 | 2026-08-31 18:25:22 | 49.65065 | 8.62098 | 72° | 58km/h | 16756m | -9.9m/s | -52.6°C | 4.3% | 96.9hPa | 2.7V | 00:00:00 | 01:56:12 | 00:00:00 | |
| DB0UT-9 | 2026-08-31 18:25:21 | 49.65065 | 8.62098 | 72° | 55km/h | 16756m | -9.9m/s | -52.7°C | 1.5% | 97.0hPa | 2.7V | 03:22:00 | 00:00:00 | 00:00:00 | |
| DM0DOS-11 | 2026-08-31 18:25:20 | 49.65029 | 8.61963 | 66° | 57km/h | 16830m | -10.5m/s | -52.5°C | 4.4% | 95.9hPa | 2.7V | 03:22:25 | 01:56:05 | 00:00:00 | |
| BIOWL1-15 | 2026-08-31 18:25:17 | 49.65040 | 8.62002 | 66° | 53km/h | 16809m | -10.3m/s | -52.6°C | 1% | 96.2hPa | 2.6V | 03:22:54 | 01:56:07 | 00:00:00 | |
| DL4BBY-15 | 2026-08-31 18:25:17 | 49.65040 | 8.62002 | 66° | 37km/h | 16808m | -10.3m/s | -51.2°C | 0% | 0hPa | 2.7V | 00:00:00 | 00:00:00 | 00:00:00 | |
| DO3DL | 2026-08-31 18:25:16 | 49.65035 | 8.61983 | 67° | 55km/h | 16819m | -10.5m/s | -52.6°C | 1.4% | 96.0hPa | 2.7V | 03:22:00 | 00:00:00 | 00:00:00 | |
| DM7RM-13 | 2026-08-31 18:25:15 | 49.65035 | 8.61983 | 67° | 55km/h | 16819m | -10.5m/s | -52.6°C | 1.5% | 96.0hPa | 2.7V | 03:22:00 | 00:00:00 | 00:00:00 | |
| DL1NUX | 2026-08-31 18:25:14 | 49.64994 | 8.61822 | 71° | 68km/h | 16890m | -9.7m/s | -52.3°C | 4.4% | 95hPa | 2.7V | 03:22:31 | 01:55:59 | 00:00:00 | |
| DL1XH1-15 | 2026-08-31 18:25:14 | 49.64988 | 8.61798 | 71° | 66km/h | 16900m | -10.2m/s | -52.2°C | 4.3% | 94.8hPa | 2.7V | 03:22:32 | 01:55:58 | 00:00:00 | |
| BIOWL1-15 | 2026-08-31 18:25:13 | 49.64983 | 8.61773 | 72° | 66km/h | 16910m | -9.1m/s | -52.2°C | 1% | 94.7hPa | 2.6V | 03:22:54 | 01:55:57 | 00:00:00 | |
| DL1XH-west | 2026-08-31 18:25:13 | 49.65017 | 8.61919 | 68° | 62km/h | 16850m | -9.7m/s | -52.5°C | 1% | 95.5hPa | 2.6V | 03:22:54 | 01:56:03 | 00:00:00 | |
| SFWM-10 | 2026-08-31 18:25:12 | 49.65017 | 8.61919 | 69° | 62km/h | 16850m | -9.7m/s | -52.5°C | 1.5% | 95.5hPa | 2.7V | 03:22:00 | 00:00:00 | 00:00:00 | |
| DL8DAS-15 | 2026-08-31 18:25:10 | 49.65005 | 8.61872 | 70° | 68km/h | 16869m | -10.0m/s | -52.4°C | 1.5% | 95.3hPa | 2.7V | 03:22:00 | 00:00:00 | 00:00:00 | |
| SO1NDE-10 | 2026-08-31 18:25:09 | 49.64994 | 8.61822 | 72° | 53km/h | 16890m | -9.7m/s | -52.3°C | 4.4% | 95.0hPa | 2.7V | 00:00:00 | 01:55:59 | 00:00:00 | |
| DO3DL | 2026-08-31 18:25:08 | 49.64994 | 8.61822 | 72° | 68km/h | 16890m | -9.7m/s | -52.3°C | 1.5% | 95.0hPa | 2.7V | 03:22:00 | 00:00:00 | 00:00:00 | |
| DF7PN | 2026-08-31 18:25:07 | 49.64983 | 8.61773 | 72° | 64km/h | 16910m | -9.1m/s | -52.2°C | 1.4% | 94.7hPa | 2.7V | 00:00:00 | 00:00:00 | 00:00:00 | |
| DM0DOS-11 | 2026-08-31 18:25:06 | 49.64965 | 8.61687 | 73° | 53km/h | 16947m | -7.9m/s | -52°C | 4.3% | 94.1hPa | 2.7V | 03:22:37 | 01:55:53 | 00:00:00 | |
| NBG1-10 | 2026-08-31 18:25:05 | 49.64973 | 8.61728 | 73° | 44km/h | 16929m | -9.7m/s | -52.1°C | 4.3% | 94.3hPa | 2.6V | 00:00:00 | 01:55:55 | 00:00:00 | |
| DL8OAI-8 | 2026-08-31 18:25:04 | 49.64973 | 8.61728 | 74° | 58km/h | 16929m | -9.7m/s | -52.2°C | 1.5% | 94.4hPa | 2.6V | 00:00:00 | 00:00:00 | 00:00:00 | |
| DL1XH1-15 | 2026-08-31 18:25:03 | 49.64951 | 8.61585 | 80° | 57km/h | 16998m | -11.4m/s | -51.2°C | 4.1% | 93.5hPa | 2.6V | 03:22:42 | 01:55:48 | 00:00:00 | |
| DL1NUX | 2026-08-31 18:25:02 | 49.64949 | 8.61563 | 80° | 58km/h | 17009m | -10.6m/s | -51°C | 4% | 93.3hPa | 2.7V | 03:22:43 | 01:55:47 | 00:00:00 | |
| DL1XH-west | 2026-08-31 18:25:02 | 49.64962 | 8.61667 | 76° | 53km/h | 16956m | -10.2m/s | -52°C | 1% | 94hPa | 2.7V | 03:22:54 | 01:55:52 | 00:00:00 | |
| BIOWL1-15 | 2026-08-31 18:24:58 | 49.64946 | 8.61540 | 81° | 58km/h | 17020m | -10.2m/s | -50.8°C | 0.8% | 93.1hPa | 2.7V | 03:22:54 | 01:55:46 | 00:00:00 | |
| DL8DAS-14 | 2026-08-31 18:24:58 | 49.64949 | 8.61563 | 80° | 57km/h | 17009m | -10.6m/s | -51.0°C | 1.3% | 93.3hPa | 2.6V | 00:00:00 | 00:00:00 | 00:00:00 | |
| DL0LBS | 2026-08-31 18:24:57 | 49.64951 | 8.61584 | 82° | 57km/h | 16998m | -11.4m/s | -51.2°C | 1.4% | 93.4hPa | 2.6V | 03:22:00 | 00:00:00 | 00:00:00 | |
| DM0DOS-11 | 2026-08-31 18:24:56 | 49.64933 | 8.61436 | 76° | 49km/h | 17071m | -11.2m/s | -50.8°C | 3.9% | 92.3hPa | 2.6V | 03:22:49 | 01:55:41 | 00:00:00 | |
| DO1YAY-16 | 2026-08-31 18:24:54 | 49.64938 | 8.61475 | 78° | 53km/h | 17049m | -10.3m/s | -50.7°C | 1.3% | 92.7hPa | 2.6V | 00:00:00 | 00:00:00 | 00:00:00 | |
| DF2AP-13 | 2026-08-31 18:24:53 | 49.64938 | 8.61475 | 79° | 37km/h | 17049m | -10.2m/s | -50.6°C | 3.9% | 92.6hPa | 2.6V | 00:00:00 | 01:55:43 | 00:00:00 | |
| DL1XH1-15 | 2026-08-31 18:24:52 | 49.64923 | 8.61368 | 77° | 40km/h | 17115m | -10.5m/s | -50.4°C | 3.8% | 91.8hPa | 2.6V | 03:22:53 | 01:55:37 | 00:00:00 | |
| DL1XH-west | 2026-08-31 18:24:51 | 49.64933 | 8.61435 | 77° | 49km/h | 17071m | -11.2m/s | -50.8°C | 0.8% | 92.3hPa | 2.6V | 03:22:54 | 01:55:41 | 00:00:00 | |
| DF3TZ-5 | 2026-08-31 18:24:49 | 49.64925 | 8.61383 | 76° | 42km/h | 17104m | -10.3m/s | -50.4°C | 1.3% | 91.9hPa | 2.6V | 00:00:00 | 00:00:00 | 00:00:00 | |
| DO3DL | 2026-08-31 18:24:47 | 49.64925 | 8.61383 | 78° | 42km/h | 17104m | -10.3m/s | -50.4°C | 1.3% | 91.9hPa | 2.6V | 03:22:00 | 00:00:00 | 00:00:00 | |
| DM0DOS-11 | 2026-08-31 18:24:46 | 49.64907 | 8.61285 | 70° | 33km/h | 17176m | -9.3m/s | -50.3°C | 3.8% | 90.9hPa | 2.6V | 03:22:59 | 01:55:31 | 00:00:00 | |
| BIOWL1-15 | 2026-08-31 18:24:45 | 49.64918 | 8.61337 | 75° | 38km/h | 17133m | -10.2m/s | -50.4°C | 0.7% | 91.4hPa | 2.6V | 03:23:45 | 01:55:35 | 00:00:00 | |
| DO3MHA-11 | 2026-08-31 18:24:45 | 49.64918 | 8.61337 | 75° | 35km/h | 17134m | -10.1m/s | -50.4°C | 3.8% | 91.4hPa | 2.6V | 00:00:00 | 01:55:35 | 00:00:00 | |
| KANTATE | 2026-08-31 18:24:44 | 49.64918 | 8.61337 | 76° | 38km/h | 17134m | -10.2m/s | -50.4°C | 1.3% | 91.4hPa | 2.7V | 03:23:00 | 00:00:00 | 00:00:00 | |
| DB0ND-19 | 2026-08-31 18:24:43 | 49.64910 | 8.61298 | 70° | 33km/h | 17166m | -10.1m/s | -50.3°C | 1.3% | 91.0hPa | 2.7V | 00:00:00 | 00:00:00 | 00:00:00 | |
| DL1NUX | 2026-08-31 18:24:42 | 49.64896 | 8.61236 | 69° | 33km/h | 17218m | -10.9m/s | -50.2°C | 3.7% | 90.3hPa | 2.7V | 03:23:03 | 01:55:27 | 00:00:00 | |
| DL1XH-west | 2026-08-31 18:24:42 | 49.64907 | 8.61285 | 70° | 33km/h | 17176m | -9.3m/s | -50.3°C | 0.7% | 90.9hPa | 2.6V | 03:23:45 | 01:55:31 | 00:00:00 | |
| BIOWL1-15 | 2026-08-31 18:24:36 | 49.64887 | 8.61201 | 70° | 31km/h | 17250m | -9.4m/s | -50.2°C | 0.6% | 89.8hPa | 2.6V | 03:23:45 | 01:55:24 | 00:00:00 | |
| DO3MHA-11 | 2026-08-31 18:24:35 | 49.64890 | 8.61213 | 70° | 31km/h | 17240m | -10.5m/s | -50.1°C | 3.7% | 89.9hPa | 2.6V | 00:00:00 | 01:55:25 | 00:00:00 | |
| DL1ZP-14 | 2026-08-31 18:24:34 | 49.64884 | 8.61190 | 70° | 29km/h | 17260m | -10.3m/s | -50.3°C | 1.2% | 89.7hPa | 2.6V | 00:00:00 | 00:00:00 | 00:00:00 | |
| DM0DOS-11 | 2026-08-31 18:24:32 | 49.64866 | 8.61123 | 62° | 33km/h | 17322m | -10m/s | -50°C | 3.6% | 88.9hPa | 2.6V | 03:23:13 | 01:55:17 | 00:00:00 | |
| NBG1-10 | 2026-08-31 18:24:32 | 49.64882 | 8.61179 | 70° | 35km/h | 17270m | -10.4m/s | -50.1°C | 3.7% | 89.6hPa | 2.6V | 00:00:00 | 01:55:22 | 00:00:00 | |
| DL1NUX | 2026-08-31 18:24:31 | 49.64862 | 8.61111 | 63° | 35km/h | 17332m | -10.5m/s | -50°C | 3.6% | 88.7hPa | 2.6V | 03:23:14 | 01:55:16 | 00:00:00 | |
| DL1XH-west | 2026-08-31 18:24:30 | 49.64876 | 8.61156 | 69° | 31km/h | 17291m | -9.5m/s | -49.9°C | 0.6% | 89.3hPa | 2.7V | 03:23:45 | 01:55:20 | 00:00:00 | |
| BIOWL1-15 | 2026-08-31 18:24:24 | 49.64854 | 8.61086 | 67° | 37km/h | 17352m | -9.2m/s | -50°C | 0.5% | 88.4hPa | 2.7V | 03:23:45 | 01:55:14 | 00:00:00 | |
| DO1YAY-16 | 2026-08-31 18:24:23 | 49.64848 | 8.61061 | 69° | 35km/h | 17373m | -10.7m/s | -50.1°C | 1.2% | 88.2hPa | 2.6V | 00:00:00 | 00:00:00 | 00:00:00 | |
| DJ2DS-15 | 2026-08-31 18:24:22 | 49.64848 | 8.61060 | 70° | 35km/h | 17373m | -10.6m/s | -50.0°C | 3.5% | 88.1hPa | 2.6V | 00:00:00 | 01:55:12 | 00:00:00 | |
| DM0DOS-11 | 2026-08-31 18:24:22 | 49.64834 | 8.60998 | 74° | 33km/h | 17428m | -10.2m/s | -50.5°C | 3.7% | 87.5hPa | 2.7V | 03:23:23 | 01:55:07 | 00:00:00 | |
| DL1NUX | 2026-08-31 18:24:21 | 49.64832 | 8.60985 | 76° | 35km/h | 17439m | -10.8m/s | -50.6°C | 3.7% | 87.3hPa | 2.6V | 03:23:24 | 01:55:06 | 00:00:00 | |
| DL1XH-west | 2026-08-31 18:24:20 | 49.64842 | 8.61035 | 69° | 35km/h | 17396m | -9.8m/s | -50.2°C | 0.6% | 87.9hPa | 2.6V | 03:23:45 | 01:55:10 | 00:00:00 | |
| BIOWL1-15 | 2026-08-31 18:24:14 | 49.64828 | 8.60959 | 76° | 35km/h | 17459m | -9.9m/s | -50.8°C | 0.6% | 87hPa | 2.6V | 03:23:45 | 01:55:04 | 00:00:00 | |
| DB0ND-19 | 2026-08-31 18:24:12 | 49.64821 | 8.60920 | 73° | 35km/h | 17491m | -11.1m/s | -51.0°C | 1.3% | 86.6hPa | 2.6V | 00:00:00 | 00:00:00 | 00:00:00 | |
| DM0DOS-11 | 2026-08-31 18:24:11 | 49.64811 | 8.60866 | 78° | 37km/h | 17537m | -11.4m/s | -51.4°C | 3.8% | 86hPa | 2.6V | 03:23:33 | 01:54:57 | 00:00:00 | |
| DL1XH1-15 | 2026-08-31 18:24:11 | 49.64809 | 8.60852 | 78° | 37km/h | 17548m | -11.5m/s | -51.5°C | 3.8% | 85.8hPa | 2.6V | 03:23:34 | 01:54:56 | 00:00:00 | |
| DL1XH-west | 2026-08-31 18:24:09 | 49.64816 | 8.60894 | 75° | 37km/h | 17514m | -11.9m/s | -51.2°C | 0.7% | 86.3hPa | 2.6V | 03:23:45 | 01:54:59 | 00:00:00 | |
| BIOWL1-15 | 2026-08-31 18:24:04 | 49.64806 | 8.60823 | 80° | 38km/h | 17571m | -12m/s | -51.7°C | 0.8% | 85.5hPa | 2.7V | 03:23:45 | 01:54:54 | 00:00:00 | |
| DL1ZP-14 | 2026-08-31 18:24:03 | 49.64803 | 8.60794 | 81° | 38km/h | 17595m | -11.3m/s | -51.9°C | 1.3% | 85.2hPa | 2.6V | 00:00:00 | 00:00:00 | 00:00:00 | |
| DJ2DS-15 | 2026-08-31 18:24:02 | 49.64803 | 8.60793 | 82° | 38km/h | 17595m | -11.3m/s | -51.8°C | 4.0% | 85.2hPa | 2.6V | 00:00:00 | 01:54:52 | 00:00:00 | |
| DL1XH1-15 | 2026-08-31 18:24:01 | 49.64794 | 8.60701 | 78° | 38km/h | 17660m | -9.9m/s | -52.3°C | 4.1% | 84.3hPa | 2.7V | 03:23:44 | 01:54:46 | 00:00:00 | |
| DL1XH-west | 2026-08-31 18:23:58 | 49.64797 | 8.60731 | 80° | 40km/h | 17639m | -10.7m/s | -52.2°C | 0.8% | 84.6hPa | 2.7V | 03:23:45 | 01:54:48 | 00:00:00 | |
| DB0NH | 2026-08-31 18:23:57 | 49.64795 | 8.60716 | 81° | 44km/h | 17650m | -10.6m/s | -52.2°C | 4.1% | 84.4hPa | 2.7V | 03:23:00 | 01:54:47 | 00:00:00 | |
| DL1NUX | 2026-08-31 18:23:56 | 49.64783 | 8.60632 | 72° | 37km/h | 17712m | -10.7m/s | -52.1°C | 4.1% | 83.7hPa | 2.7V | 03:23:49 | 01:54:41 | 00:00:00 | |
| BIOWL1-15 | 2026-08-31 18:23:53 | 49.64788 | 8.60659 | 75° | 37km/h | 17690m | -10.9m/s | -52.4°C | 1% | 83.9hPa | 2.6V | 03:24:36 | 01:54:43 | 00:00:00 | |
| DO1YAY-16 | 2026-08-31 18:23:52 | 49.64783 | 8.60632 | 72° | 37km/h | 17712m | -10.7m/s | -52.1°C | 1.4% | 83.7hPa | 2.6V | 00:00:00 | 00:00:00 | 00:00:00 | |
| DL1XH1-15 | 2026-08-31 18:23:51 | 49.64769 | 8.60558 | 74° | 42km/h | 17765m | -10.9m/s | -51.9°C | 4% | 83hPa | 2.6V | 03:23:54 | 01:54:36 | 00:00:00 | |
| DL1XH-west | 2026-08-31 18:23:48 | 49.64774 | 8.60589 | 74° | 40km/h | 17743m | -10.9m/s | -52°C | 0.9% | 83.3hPa | 2.6V | 03:24:36 | 01:54:38 | 00:00:00 | |
| DF3TZ-5 | 2026-08-31 18:23:47 | 49.64766 | 8.60542 | 74° | 40km/h | 17776m | -11.4m/s | -51.9°C | 1.3% | 82.9hPa | 2.7V | 00:00:00 | 00:00:00 | 00:00:00 | |
| BIOWL1-15 | 2026-08-31 18:23:42 | 49.64758 | 8.60497 | 74° | 38km/h | 17813m | -11.2m/s | -51.9°C | 0.9% | 82.4hPa | 2.7V | 03:24:36 | 01:54:32 | 00:00:00 | |
| DL1XH-west | 2026-08-31 18:23:37 | 49.64742 | 8.60426 | 69° | 42km/h | 17867m | -10.6m/s | -52.1°C | 0.9% | 81.7hPa | 2.7V | 03:24:36 | 01:54:27 | 00:00:00 | |
| BIOWL1-15 | 2026-08-31 18:23:32 | 49.64723 | 8.60339 | 77° | 49km/h | 17923m | -11.1m/s | -52.4°C | 0.9% | 81hPa | 2.6V | 03:24:36 | 01:54:22 | 00:00:00 | |
| DL1XH-west | 2026-08-31 18:23:26 | 49.64709 | 8.60237 | 78° | 40km/h | 17988m | -10.6m/s | -52.9°C | 1% | 80.2hPa | 2.6V | 03:24:36 | 01:54:16 | 00:00:00 | |
| BIOWL1-15 | 2026-08-31 18:23:23 | 49.64698 | 8.60159 | 80° | 42km/h | 18042m | -12m/s | -52.5°C | 0.8% | 79.5hPa | 2.7V | 03:24:36 | 01:54:11 | 00:00:00 | |
| DF2AP-13 | 2026-08-31 18:23:23 | 49.64702 | 8.60191 | 77° | 35km/h | 18020m | -10.6m/s | -52.6°C | 4.2% | 79.7hPa | 2.7V | 00:00:00 | 01:54:13 | 00:00:00 | |
| DJ2DS-15 | 2026-08-31 18:23:22 | 49.64700 | 8.60175 | 79° | 38km/h | 18031m | -10.7m/s | -52.4°C | 4.1% | 79.6hPa | 2.7V | 00:00:00 | 01:54:12 | 00:00:00 | |
| DL1NUX | 2026-08-31 18:23:20 | 49.64693 | 8.60060 | 90° | 40km/h | 18112m | -11.8m/s | -52.7°C | 4.1% | 78.7hPa | 2.7V | 03:24:25 | 01:54:05 | 00:00:00 | |
| DL1XH-west | 2026-08-31 18:23:15 | 49.64693 | 8.60060 | 91° | 40km/h | 18112m | -11.8m/s | -52.7°C | 0.9% | 78.7hPa | 2.7V | 03:24:36 | 01:54:05 | 00:00:00 | |
| DJ2DS-15 | 2026-08-31 18:23:15 | 49.64693 | 8.60045 | 91° | 38km/h | 18123m | -11.4m/s | -52.7°C | 1.4% | 78.5hPa | 2.6V | 00:00:00 | 00:00:00 | 00:00:00 | |
| DB0NH | 2026-08-31 18:23:14 | 49.64693 | 8.60045 | 92° | 31km/h | 18123m | -11.4m/s | -52.7°C | 4.1% | 78.5hPa | 2.6V | 00:00:00 | 01:54:04 | 00:00:00 | |
| DM7RM-13 | 2026-08-31 18:23:13 | 49.64693 | 8.60045 | 93° | 40km/h | 18123m | -11.4m/s | -52.7°C | 1.4% | 78.5hPa | 2.6V | 03:24:00 | 00:00:00 | 00:00:00 | |
| DO3DL | 2026-08-31 18:23:12 | 49.64693 | 8.60029 | 94° | 40km/h | 18134m | -9.9m/s | -52.8°C | 1.4% | 78.4hPa | 2.6V | 03:24:00 | 00:00:00 | 00:00:00 | |
| DL1XH1-15 | 2026-08-31 18:23:11 | 49.64700 | 8.59935 | 102° | 31km/h | 18212m | -11.6m/s | -52.8°C | 4.1% | 77.4hPa | 2.6V | 03:24:34 | 01:53:56 | 00:00:00 | |
| BIOWL1-15 | 2026-08-31 18:23:11 | 49.64695 | 8.59999 | 94° | 37km/h | 18154m | -11.6m/s | -52.9°C | 0.9% | 78.1hPa | 2.6V | 03:24:36 | 01:54:01 | 00:00:00 | |
| DL1XH-west | 2026-08-31 18:23:05 | 49.64702 | 8.59923 | 104° | 31km/h | 18223m | -12m/s | -52.8°C | 0.9% | 77.3hPa | 2.6V | 03:24:36 | 01:53:55 | 00:00:00 | |
| DF7PN | 2026-08-31 18:23:03 | 49.64706 | 8.59900 | 103° | 29km/h | 18246m | -11.3m/s | -52.7°C | 1.3% | 77.0hPa | 2.7V | 00:00:00 | 00:00:00 | 00:00:00 | |
| DJ2DS-15 | 2026-08-31 18:23:02 | 49.64707 | 8.59888 | 103° | 29km/h | 18258m | -11.8m/s | -52.7°C | 4.1% | 76.8hPa | 2.7V | 00:00:00 | 01:53:52 | 00:00:00 | |
| DL1XH1-15 | 2026-08-31 18:23:01 | 49.64709 | 8.59821 | 83° | 31km/h | 18325m | -10.5m/s | -53°C | 4.1% | 76.1hPa | 2.6V | 03:24:44 | 01:53:46 | 00:00:00 | |
| BIOWL1-15 | 2026-08-31 18:23:01 | 49.64709 | 8.59877 | 101° | 29km/h | 18268m | -10.4m/s | -52.8°C | 0.9% | 76.8hPa | 2.7V | 03:25:27 | 01:53:51 | 00:00:00 | |
| DL1XH-west | 2026-08-31 18:22:54 | 49.64708 | 8.59797 | 82° | 31km/h | 18348m | -12m/s | -53.2°C | 0.9% | 75.8hPa | 2.7V | 03:25:27 | 01:53:44 | 00:00:00 | |
| NBG1-10 | 2026-08-31 18:22:53 | 49.64706 | 8.59785 | 83° | 20km/h | 18360m | -11.5m/s | -53.2°C | 4.2% | 75.6hPa | 2.7V | 00:00:00 | 01:53:43 | 00:00:00 | |
| DK5PH-5 | 2026-08-31 18:22:52 | 49.64706 | 8.59773 | 84° | 24km/h | 18372m | -11.9m/s | -53.3°C | 4.2% | 75.5hPa | 2.7V | 00:00:00 | 01:53:42 | 00:00:00 | |
| DL1XH1-15 | 2026-08-31 18:22:51 | 49.64700 | 8.59706 | 79° | 27km/h | 18439m | -11.2m/s | -53.7°C | 4.3% | 74.7hPa | 2.7V | 03:24:54 | 01:53:36 | 00:00:00 | |
| BIOWL1-15 | 2026-08-31 18:22:50 | 49.64704 | 8.59749 | 82° | 29km/h | 18394m | -11.8m/s | -53.5°C | 1% | 75.3hPa | 2.6V | 03:25:27 | 01:53:40 | 00:00:00 | |
| DO1YAY-16 | 2026-08-31 18:22:49 | 49.64703 | 8.59737 | 81° | 29km/h | 18406m | -11.8m/s | -53.6°C | 1.4% | 75.2hPa | 2.6V | 00:00:00 | 00:00:00 | 00:00:00 | |
| DL1XH-west | 2026-08-31 18:22:44 | 49.64697 | 8.59685 | 82° | 26km/h | 18462m | -12.2m/s | -53.8°C | 1% | 74.5hPa | 2.6V | 03:25:27 | 01:53:34 | 00:00:00 | |
| DB0NH | 2026-08-31 18:22:44 | 49.64697 | 8.59685 | 82° | 20km/h | 18462m | -12.1m/s | -53.8°C | 4.4% | 74.4hPa | 2.6V | 00:00:00 | 01:53:34 | 00:00:00 | |
| DJ2DS-15 | 2026-08-31 18:22:42 | 49.64696 | 8.59665 | 86° | 22km/h | 18488m | -12.0m/s | -53.9°C | 4.4% | 74.2hPa | 2.6V | 00:00:00 | 01:53:32 | 00:00:00 | |
| DL1NUX | 2026-08-31 18:22:41 | 49.64699 | 8.59606 | 99° | 22km/h | 18558m | -11.9m/s | -54.1°C | 4.5% | 73.4hPa | 2.6V | 03:25:04 | 01:53:26 | 00:00:00 | |
| BIOWL1-15 | 2026-08-31 18:22:39 | 49.64696 | 8.59634 | 95° | 26km/h | 18523m | -10.9m/s | -54°C | 1.1% | 73.8hPa | 2.7V | 03:25:27 | 01:53:29 | 00:00:00 | |
| DL1XH-west | 2026-08-31 18:22:34 | 49.64700 | 8.59591 | 95° | 18km/h | 18582m | -11.5m/s | -54.2°C | 1.1% | 73.1hPa | 2.7V | 03:25:27 | 01:53:24 | 00:00:00 | |
| BIOWL7-15 | 2026-08-31 18:22:33 | 49.64700 | 8.59590 | 96° | 18km/h | 18582m | -11.5m/s | -54.2°C | 1.4% | 73.1hPa | 2.7V | 03:25:00 | 00:00:00 | 00:00:00 | |
| DF7PN | 2026-08-31 18:22:32 | 49.64701 | 8.59577 | 93° | 16km/h | 18605m | -12.2m/s | -54.3°C | 1.5% | 72.9hPa | 2.7V | 00:00:00 | 00:00:00 | 00:00:00 | |
| DL1XH1-15 | 2026-08-31 18:22:31 | 49.64705 | 8.59528 | 99° | 24km/h | 18675m | -12m/s | -54°C | 4.6% | 72.1hPa | 2.7V | 03:25:14 | 01:53:16 | 00:00:00 | |
| BIOWL1-15 | 2026-08-31 18:22:31 | 49.64702 | 8.59555 | 97° | 20km/h | 18639m | -11.5m/s | -54°C | 1.1% | 72.5hPa | 2.6V | 03:25:27 | 01:53:19 | 00:00:00 | |
| DL1XH-west | 2026-08-31 18:22:23 | 49.64707 | 8.59503 | 94° | 18km/h | 18711m | -12.4m/s | -54°C | 1.2% | 71.7hPa | 2.6V | 03:25:27 | 01:53:13 | 00:00:00 | |
| BIOWL1-15 | 2026-08-31 18:22:18 | 49.64702 | 8.59476 | 52° | 15km/h | 18769m | -11.3m/s | -54°C | 1.2% | 71hPa | 2.7V | 03:25:27 | 01:53:08 | 00:00:00 | |
| DL1XH-west | 2026-08-31 18:22:12 | 49.64685 | 8.59444 | 55° | 20km/h | 18839m | -11.8m/s | -53.4°C | 1.1% | 70.2hPa | 2.7V | 03:26:18 | 01:53:02 | 00:00:00 | |
| BIOWL1-15 | 2026-08-31 18:22:07 | 49.64674 | 8.59411 | 79° | 16km/h | 18898m | -12.5m/s | -53.2°C | 1.1% | 69.6hPa | 2.6V | 03:26:18 | 01:52:57 | 00:00:00 | |
| DO3DL | 2026-08-31 18:22:06 | 49.64674 | 8.59411 | 80° | 16km/h | 18898m | -12.5m/s | -53.2°C | 1.4% | 69.6hPa | 2.6V | 03:26:00 | 00:00:00 | 00:00:00 | |
| DJTTGO | 2026-08-31 18:22:04 | 49.64673 | 8.59399 | 95° | 15km/h | 18922m | -12.1m/s | -52.9°C | 1.4% | 69.3hPa | 2.6V | 03:26:00 | 00:00:00 | 00:00:00 | |
| DJ2DS-15 | 2026-08-31 18:22:03 | 49.64675 | 8.59383 | 102° | 11km/h | 18957m | -12.2m/s | -53.0°C | 1.4% | 69.0hPa | 2.6V | 00:00:00 | 00:00:00 | 00:00:00 | |
| DJ2DS-15 | 2026-08-31 18:22:02 | 49.64675 | 8.59383 | 103° | 15km/h | 18957m | -12.2m/s | -53.0°C | 4.4% | 68.9hPa | 2.6V | 00:00:00 | 01:52:52 | 00:00:00 | |
| DL1XH1-15 | 2026-08-31 18:22:01 | 49.64677 | 8.59352 | 88° | 16km/h | 19028m | -11.5m/s | -52.2°C | 4.1% | 68.2hPa | 2.6V | 03:25:44 | 01:52:46 | 00:00:00 | |
| DL1XH-west | 2026-08-31 18:22:01 | 49.64676 | 8.59378 | 102° | 13km/h | 18969m | -12.6m/s | -53°C | 1.1% | 68.9hPa | 2.6V | 03:26:18 | 01:52:51 | 00:00:00 | |
| BIOWL1-15 | 2026-08-31 18:21:58 | 49.64677 | 8.59352 | 88° | 16km/h | 19028m | -11.5m/s | -52.2°C | 0.9% | 68.2hPa | 2.6V | 03:26:18 | 01:52:46 | 00:00:00 | |
| DO3MHA-11 | 2026-08-31 18:21:58 | 49.64677 | 8.59364 | 95° | 16km/h | 19005m | -11.5m/s | -52.3°C | 4.2% | 68.4hPa | 2.6V | 00:00:00 | 01:52:48 | 00:00:00 | |
| SFWM-10 | 2026-08-31 18:21:56 | 49.64677 | 8.59358 | 91° | 15km/h | 19016m | -11.6m/s | -52.2°C | 1.4% | 68.4hPa | 2.6V | 03:26:00 | 00:00:00 | 00:00:00 | |
| HEMX73-11 | 2026-08-31 18:21:54 | 49.64677 | 8.59345 | 88° | 16km/h | 19039m | -11.0m/s | -52.2°C | 1.3% | 68.1hPa | 2.6V | 03:26:00 | 00:00:00 | 00:00:00 | |
| DN1GJH-1 | 2026-08-31 18:21:53 | 49.64677 | 8.59338 | 80° | 16km/h | 19050m | -11.0m/s | -52.2°C | 1.4% | 68.0hPa | 2.6V | 03:26:00 | 00:00:00 | 00:00:00 | |
| DK5PH-5 | 2026-08-31 18:21:52 | 49.64674 | 8.59325 | 69° | 9km/h | 19074m | -11.5m/s | -52.2°C | 4.2% | 67.7hPa | 2.6V | 03:25:00 | 01:52:42 | 00:00:00 | |
| DL1XH1-15 | 2026-08-31 18:21:51 | 49.64661 | 8.59289 | 59° | 15km/h | 19142m | -11m/s | -51.8°C | 4% | 67hPa | 2.6V | 03:25:54 | 01:52:36 | 00:00:00 | |
| DL1XH-west | 2026-08-31 18:21:51 | 49.64672 | 8.59319 | 65° | 18km/h | 19085m | -11.6m/s | -52.3°C | 1% | 67.6hPa | 2.6V | 03:26:18 | 01:52:41 | 00:00:00 | |
| BIOWL1-15 | 2026-08-31 18:21:46 | 49.64661 | 8.59289 | 59° | 15km/h | 19143m | -11m/s | -51.8°C | 0.8% | 67.1hPa | 2.6V | 03:26:18 | 01:52:36 | 00:00:00 | |
| DJTTGO | 2026-08-31 18:21:43 | 49.64657 | 8.59279 | 64° | 13km/h | 19166m | -11.5m/s | -51.7°C | 1.3% | 66.8hPa | 2.7V | 03:26:00 | 00:00:00 | 00:00:00 | |
| DJ2DS-15 | 2026-08-31 18:21:42 | 49.64654 | 8.59270 | 73° | 5km/h | 19188m | -11.9m/s | -51.7°C | 3.9% | 66.5hPa | 2.7V | 00:00:00 | 01:52:32 | 00:00:00 | |
| DL1XH1-15 | 2026-08-31 18:21:41 | 49.64653 | 8.59248 | 102° | 7km/h | 19259m | -12.3m/s | -51.9°C | 3.8% | 65.8hPa | 2.7V | 03:26:04 | 01:52:26 | 00:00:00 | |
| DL1XH-west | 2026-08-31 18:21:40 | 49.64653 | 8.59261 | 79° | 11km/h | 19212m | -11.3m/s | -51.8°C | 0.8% | 66.3hPa | 2.6V | 03:26:18 | 01:52:30 | 00:00:00 | |
| BIOWL1-15 | 2026-08-31 18:21:37 | 49.64653 | 8.59245 | 98° | 7km/h | 19272m | -12.6m/s | -52°C | 0.8% | 65.7hPa | 2.7V | 03:26:18 | 01:52:25 | 00:00:00 | |
| DF1GD-15 | 2026-08-31 18:21:36 | 49.64653 | 8.59251 | 106° | 7km/h | 19248m | -11.5m/s | -51.8°C | 1.3% | 66.0hPa | 2.6V | 03:26:00 | 00:00:00 | 00:00:00 | |
| SFWM-10 | 2026-08-31 18:21:35 | 49.64653 | 8.59248 | 103° | 7km/h | 19259m | -12.3m/s | -51.9°C | 1.2% | 65.9hPa | 2.6V | 03:26:00 | 00:00:00 | 00:00:00 | |
| DN1GJH-1 | 2026-08-31 18:21:33 | 49.64653 | 8.59242 | 96° | 7km/h | 19284m | -12.0m/s | -52.0°C | 1.3% | 65.6hPa | 2.6V | 03:26:00 | 00:00:00 | 00:00:00 | |
| DO3DL | 2026-08-31 18:21:32 | 49.64654 | 8.59240 | 87° | 7km/h | 19296m | -11.8m/s | -52.1°C | 1.2% | 65.5hPa | 2.6V | 03:26:00 | 00:00:00 | 00:00:00 | |
| DL1XH1-15 | 2026-08-31 18:21:31 | 49.64653 | 8.59232 | 179° | 4km/h | 19383m | -11.9m/s | -52.8°C | 4% | 64.6hPa | 2.6V | 03:26:14 | 01:52:16 | 00:00:00 | |
| DL1XH-west | 2026-08-31 18:21:29 | 49.64652 | 8.59232 | 60° | 2km/h | 19347m | -12.5m/s | -52.5°C | 0.8% | 65hPa | 2.7V | 03:26:18 | 01:52:19 | 00:00:00 | |
| BIOWL1-15 | 2026-08-31 18:21:25 | 49.64654 | 8.59232 | 192° | 4km/h | 19395m | -12.3m/s | -52.9°C | 0.9% | 64.5hPa | 2.6V | 03:26:18 | 01:52:15 | 00:00:00 | |
| DJ2DS-15 | 2026-08-31 18:21:22 | 49.64657 | 8.59234 | 207° | 5km/h | 19429m | -11.5m/s | -53.2°C | 4.1% | 64.1hPa | 2.7V | 00:00:00 | 01:52:12 | 00:00:00 | |
| DL1XH1-15 | 2026-08-31 18:21:21 | 49.64659 | 8.59238 | 327° | 4km/h | 19506m | -11.7m/s | -54°C | 4.3% | 63.3hPa | 2.7V | 03:26:24 | 01:52:06 | 00:00:00 | |
| DM0DOS-11 | 2026-08-31 18:21:20 | 49.64658 | 8.59240 | 322° | 5km/h | 19518m | -12.9m/s | -54°C | 4.3% | 63.3hPa | 2.7V | 03:26:25 | 01:52:05 | 00:00:00 | |
| DO3DL | 2026-08-31 18:21:19 | 49.64660 | 8.59236 | 198° | 4km/h | 19454m | -13.4m/s | -53.5°C | 1.3% | 63.9hPa | 2.6V | 03:27:00 | 00:00:00 | 00:00:00 | |
| DL1NUX | 2026-08-31 18:21:18 | 49.64655 | 8.59243 | 322° | 7km/h | 19542m | -12.7m/s | -54.2°C | 4.4% | 63hPa | 2.6V | 03:26:27 | 01:52:03 | 00:00:00 | |
| DL1XH-west | 2026-08-31 18:21:18 | 49.64660 | 8.59237 | 274° | 2km/h | 19481m | -13.3m/s | -53.7°C | 1% | 63.6hPa | 2.6V | 03:27:09 | 01:52:08 | 00:00:00 | |
| BIOWL1-15 | 2026-08-31 18:21:16 | 49.64657 | 8.59241 | 321° | 7km/h | 19530m | -11.3m/s | -54.1°C | 1.1% | 63.1hPa | 2.6V | 03:27:09 | 01:52:04 | 00:00:00 | |
| DF2AP-13 | 2026-08-31 18:21:15 | 49.64658 | 8.59240 | 323° | 9km/h | 19518m | -12.9m/s | -54.0°C | 4.3% | 63.2hPa | 2.6V | 03:26:00 | 01:52:05 | 00:00:00 | |
| DO3DL | 2026-08-31 18:21:13 | 49.64657 | 8.59241 | 322° | 7km/h | 19531m | -11.3m/s | -54.1°C | 1.4% | 63.1hPa | 2.6V | 03:27:00 | 00:00:00 | 00:00:00 | |
| DL1XH1-15 | 2026-08-31 18:21:11 | 49.64647 | 8.59247 | 24° | 4km/h | 19633m | -12.7m/s | -54.5°C | 4.4% | 62.1hPa | 2.6V | 03:26:34 | 01:51:56 | 00:00:00 | |
| DM0DOS-11 | 2026-08-31 18:21:10 | 49.64646 | 8.59246 | 18° | 5km/h | 19645m | -11.7m/s | -54.5°C | 4.4% | 62hPa | 2.6V | 03:26:35 | 01:51:55 | 00:00:00 | |
| DL1XH-west | 2026-08-31 18:21:08 | 49.64649 | 8.59248 | 36° | 4km/h | 19607m | -13.4m/s | -54.4°C | 1.1% | 62.4hPa | 2.6V | 03:27:09 | 01:51:58 | 00:00:00 | |
| DO3MHA-11 | 2026-08-31 18:21:08 | 49.64649 | 8.59248 | 36° | 7km/h | 19607m | -13.3m/s | -54.4°C | 4.4% | 62.3hPa | 2.6V | 00:00:00 | 01:51:58 | 00:00:00 | |
| DL1NUX | 2026-08-31 18:21:07 | 49.64642 | 8.59245 | 7° | 9km/h | 19681m | -13.5m/s | -54.7°C | 4.5% | 61.7hPa | 2.7V | 03:26:38 | 01:51:52 | 00:00:00 | |
| BIOWL1-15 | 2026-08-31 18:21:04 | 49.64645 | 8.59245 | 19° | 5km/h | 19657m | -10.9m/s | -54.5°C | 1.1% | 61.9hPa | 2.7V | 03:27:09 | 01:51:54 | 00:00:00 | |
| HTAHTA | 2026-08-31 18:21:03 | 49.64627 | 8.59241 | 11° | 9km/h | 19745m | -12.8m/s | -55.0°C | 1.5% | 61.1hPa | 2.7V | 00:00:00 | 00:00:00 | 00:00:00 | |
| DJ2DS-15 | 2026-08-31 18:21:02 | 49.64641 | 8.59245 | 8° | 11km/h | 19681m | -13.5m/s | -54.7°C | 4.5% | 61.6hPa | 2.7V | 03:26:00 | 01:51:52 | 00:00:00 | |
| DL1XH1-15 | 2026-08-31 18:21:01 | 49.64625 | 8.59240 | 22° | 7km/h | 19757m | -13.3m/s | -55.1°C | 4.6% | 61hPa | 2.7V | 03:26:44 | 01:51:46 | 00:00:00 | |
| DB0UT-7 | 2026-08-31 18:21:01 | 49.64639 | 8.59244 | 7° | 13km/h | 19694m | -12.1m/s | -54.8°C | 4.5% | 61.5hPa | 2.6V | 00:00:00 | 00:00:00 | 00:00:00 | |
| DM0DOS-11 | 2026-08-31 18:21:00 | 49.64623 | 8.59239 | 50° | 7km/h | 19771m | -14m/s | -55.2°C | 4.7% | 60.8hPa | 2.7V | 03:26:45 | 01:51:45 | 00:00:00 | |
| DF7PN | 2026-08-31 18:20:59 | 49.64633 | 8.59243 | 7° | 13km/h | 19718m | -12.7m/s | -54.9°C | 1.5% | 61.3hPa | 2.6V | 00:00:00 | 00:00:00 | 00:00:00 | |
| DO3MHA-11 | 2026-08-31 18:20:58 | 49.64630 | 8.59242 | 7° | 9km/h | 19732m | -13.4m/s | -54.9°C | 4.5% | 61.1hPa | 2.6V | 00:00:00 | 01:51:48 | 00:00:00 | |
| DL1NUX | 2026-08-31 18:20:57 | 49.64622 | 8.59230 | 99° | 9km/h | 19813m | -12.4m/s | -55.5°C | 4.9% | 60.4hPa | 2.6V | 03:26:48 | 01:51:42 | 00:00:00 | |
| DL1XH-west | 2026-08-31 18:20:57 | 49.64627 | 8.59241 | 12° | 11km/h | 19744m | -12.8m/s | -55°C | 1.2% | 61.1hPa | 2.7V | 03:27:09 | 01:51:47 | 00:00:00 | |
| BIOWL1-15 | 2026-08-31 18:20:53 | 49.64622 | 8.59234 | 98° | 7km/h | 19800m | -13.6m/s | -55.4°C | 1.3% | 60.6hPa | 2.6V | 03:27:09 | 01:51:43 | 00:00:00 | |
| DK5PH-5 | 2026-08-31 18:20:52 | 49.64623 | 8.59230 | 100° | 16km/h | 19813m | -12.3m/s | -55.4°C | 4.9% | 60.4hPa | 2.7V | 00:00:00 | 01:51:42 | 00:00:00 | |
| DN1GJH-1 | 2026-08-31 18:20:51 | 49.64622 | 8.59230 | 101° | 9km/h | 19813m | -12.4m/s | -55.5°C | 1.6% | 60.4hPa | 2.7V | 03:27:00 | 00:00:00 | 00:00:00 | |
| DM0DOS-11 | 2026-08-31 18:20:50 | 49.64617 | 8.59199 | 43° | 13km/h | 19906m | -13.6m/s | -56°C | 5.3% | 59.5hPa | 2.7V | 03:26:55 | 01:51:35 | 00:00:00 | |
| DL1XH1-15 | 2026-08-31 18:20:49 | 49.64619 | 8.59203 | 53° | 15km/h | 19892m | -14.2m/s | -56°C | 5.3% | 59.7hPa | 2.7V | 03:26:54 | 01:51:36 | 00:00:00 | |
| DL1XH-west | 2026-08-31 18:20:46 | 49.64620 | 8.59203 | 54° | 15km/h | 19893m | -14.2m/s | -56°C | 1.5% | 59.7hPa | 2.7V | 03:27:09 | 01:51:36 | 00:00:00 | |
| DO1YAY-16 | 2026-08-31 18:20:45 | 49.64617 | 8.59199 | 43° | 13km/h | 19907m | -13.6m/s | -56.0°C | 1.7% | 59.6hPa | 2.6V | 00:00:00 | 00:00:00 | 00:00:00 | |
| BIOWL1-15 | 2026-08-31 18:20:43 | 49.64612 | 8.59193 | 30° | 15km/h | 19932m | -12.8m/s | -56°C | 1.6% | 59.3hPa | 2.6V | 03:27:09 | 01:51:33 | 00:00:00 | |
| DJ2DS-15 | 2026-08-31 18:20:42 | 49.64608 | 8.59190 | 31° | 18km/h | 19946m | -13.2m/s | -55.8°C | 5.3% | 59.1hPa | 2.6V | 00:00:00 | 01:51:32 | 00:00:00 | |
| DL1XH1-15 | 2026-08-31 18:20:41 | 49.64592 | 8.59166 | 64° | 15km/h | 20025m | -13.5m/s | -54.9°C | 5% | 58.4hPa | 2.6V | 03:27:04 | 01:51:26 | 00:00:00 | |
| DM0DOS-11 | 2026-08-31 18:20:40 | 49.64591 | 8.59161 | 70° | 15km/h | 20038m | -12.1m/s | -54.9°C | 5% | 58.3hPa | 2.6V | 03:27:05 | 01:51:25 | 00:00:00 | |
| DL1XH-west | 2026-08-31 18:20:35 | 49.64591 | 8.59161 | 70° | 15km/h | 20038m | -12.1m/s | -54.9°C | 1.4% | 58.3hPa | 2.6V | 03:27:09 | 01:51:25 | 00:00:00 | |
| BIOWL1-15 | 2026-08-31 18:20:33 | 49.64587 | 8.59149 | 64° | 18km/h | 20065m | -13.4m/s | -54.8°C | 1.4% | 58.1hPa | 2.6V | 03:27:09 | 01:51:23 | 00:00:00 | |
| HEMX73-11 | 2026-08-31 18:20:32 | 49.64585 | 8.59142 | 62° | 20km/h | 20078m | -12.8m/s | -54.7°C | 1.6% | 58.0hPa | 2.7V | 03:27:00 | 00:00:00 | 00:00:00 | |
| DL1XH1-15 | 2026-08-31 18:20:31 | 49.64562 | 8.59104 | 38° | 27km/h | 20158m | -13.1m/s | -53.5°C | 4.5% | 57.2hPa | 2.7V | 03:27:14 | 01:51:16 | 00:00:00 | |
| DB0UT-7 | 2026-08-31 18:20:31 | 49.64582 | 8.59136 | 56° | 20km/h | 20091m | -13.9m/s | -54.5°C | 4.9% | 57.8hPa | 2.7V | 03:27:00 | 01:51:21 | 00:00:00 | |
| DM0DOS-11 | 2026-08-31 18:20:30 | 49.64557 | 8.59098 | 36° | 26km/h | 20171m | -12.9m/s | -53.4°C | 4.5% | 57.1hPa | 2.7V | 03:27:15 | 01:51:15 | 00:00:00 | |
| BIOWL1-15 | 2026-08-31 18:20:25 | 49.64546 | 8.59086 | 43° | 26km/h | 20198m | -14m/s | -53.5°C | 1.1% | 56.9hPa | 2.6V | 03:28:00 | 01:51:13 | 00:00:00 | |
| DL1XH-west | 2026-08-31 18:20:25 | 49.64556 | 8.59098 | 37° | 26km/h | 20171m | -12.9m/s | -53.4°C | 1.2% | 57.1hPa | 2.7V | 03:28:00 | 01:51:15 | 00:00:00 | |
| DJ2DS-15 | 2026-08-31 18:20:22 | 49.64542 | 8.59079 | 47° | 18km/h | 20212m | -13.4m/s | -53.5°C | 4.6% | 56.7hPa | 2.6V | 00:00:00 | 01:51:12 | 00:00:00 | |
| DL1XH1-15 | 2026-08-31 18:20:21 | 49.64526 | 8.59033 | 74° | 20km/h | 20292m | -13.6m/s | -53.3°C | 4.6% | 56hPa | 2.6V | 03:27:24 | 01:51:06 | 00:00:00 | |
| DM0DOS-11 | 2026-08-31 18:20:20 | 49.64525 | 8.59026 | 71° | 18km/h | 20306m | -14.3m/s | -53.1°C | 4.5% | 55.9hPa | 2.6V | 03:27:25 | 01:51:05 | 00:00:00 | |
| BIOWL1-15 | 2026-08-31 18:20:16 | 49.64518 | 8.59009 | 39° | 16km/h | 20347m | -14.6m/s | -52.6°C | 1.1% | 55.6hPa | 2.7V | 03:28:00 | 01:51:02 | 00:00:00 | |
| DL1XH-west | 2026-08-31 18:20:15 | 49.64525 | 8.59026 | 71° | 18km/h | 20306m | -14.3m/s | -53.1°C | 1.1% | 55.9hPa | 2.6V | 03:28:00 | 01:51:05 | 00:00:00 | |
| DF2AP-13 | 2026-08-31 18:20:15 | 49.64525 | 8.59026 | 72° | 16km/h | 20306m | -14.2m/s | -53.1°C | 4.5% | 55.9hPa | 2.6V | 00:00:00 | 01:51:05 | 00:00:00 | |
| DO1YAY-16 | 2026-08-31 18:20:14 | 49.64523 | 8.59020 | 67° | 16km/h | 20319m | -13.2m/s | -53.0°C | 1.4% | 55.8hPa | 2.6V | 00:00:00 | 00:00:00 | 00:00:00 | |
| DO3DL | 2026-08-31 18:20:13 | 49.64523 | 8.59020 | 69° | 16km/h | 20319m | -13.2m/s | -52.9°C | 1.4% | 55.8hPa | 2.6V | 03:28:00 | 00:00:00 | 00:00:00 | |
| SFWM-10 | 2026-08-31 18:20:12 | 49.64521 | 8.59014 | 60° | 16km/h | 20333m | -13.4m/s | -52.8°C | 1.4% | 55.7hPa | 2.6V | 03:28:00 | 00:00:00 | 00:00:00 | |
| SONCRA | 2026-08-31 18:20:11 | 49.64511 | 8.59002 | 23° | 16km/h | 20375m | -13.1m/s | -52.6°C | 1.4% | 55.3hPa | 2.6V | 00:00:00 | 00:00:00 | 00:00:00 | |
| DM0DOS-11 | 2026-08-31 18:20:10 | 49.64495 | 8.58995 | 9° | 11km/h | 20445m | -14.3m/s | -52.5°C | 4.4% | 54.8hPa | 2.6V | 03:27:35 | 01:50:55 | 00:00:00 | |
| DL1XH-west | 2026-08-31 18:20:04 | 49.64492 | 8.58994 | 17° | 11km/h | 20459m | -14.2m/s | -52.4°C | 1.1% | 54.6hPa | 2.6V | 03:28:00 | 01:50:54 | 00:00:00 | |
| BIOWL1-15 | 2026-08-31 18:20:03 | 49.64486 | 8.58993 | 4° | 11km/h | 20488m | -14.7m/s | -51.9°C | 0.9% | 54.4hPa | 2.7V | 03:28:00 | 01:50:52 | 00:00:00 | |
| SONDE2-11 | 2026-08-31 18:20:03 | 49.64483 | 8.58993 | 359° | 13km/h | 20503m | -15.1m/s | -51.8°C | 1.3% | 54.2hPa | 2.6V | 00:00:00 | 00:00:00 | 00:00:00 | |
| DL1NUX | 2026-08-31 18:20:02 | 49.64465 | 8.58995 | 0° | 20km/h | 20561m | -15.2m/s | -51.8°C | 3.9% | 53.7hPa | 2.6V | 03:27:43 | 01:50:47 | 00:00:00 | |
| BIOWL7-15 | 2026-08-31 18:20:02 | 49.64486 | 8.58993 | 5° | 11km/h | 20489m | -14.7m/s | -51.9°C | 1.3% | 54.4hPa | 2.7V | 03:28:00 | 00:00:00 | 00:00:00 | |
| DB0UT-7 | 2026-08-31 18:20:01 | 49.64482 | 8.58992 | 360° | 18km/h | 20503m | -15.0m/s | -51.7°C | 4.0% | 54.2hPa | 2.7V | 00:00:00 | 00:00:00 | 00:00:00 | |
| DM0DOS-11 | 2026-08-31 18:20:00 | 49.64455 | 8.58995 | 1° | 22km/h | 20591m | -15m/s | -51.8°C | 4% | 53.5hPa | 2.7V | 03:27:45 | 01:50:45 | 00:00:00 | |
| DL1XH-west | 2026-08-31 18:19:53 | 49.64444 | 8.58994 | 2° | 22km/h | 20621m | -14.4m/s | -52°C | 1% | 53.3hPa | 2.6V | 03:28:00 | 01:50:43 | 00:00:00 | |
| DK5PH-5 | 2026-08-31 18:19:52 | 49.64438 | 8.58994 | 1° | 20km/h | 20636m | -14.8m/s | -51.9°C | 4.1% | 53.1hPa | 2.6V | 03:27:00 | 01:50:42 | 00:00:00 | |
| DL1XH1-15 | 2026-08-31 18:19:51 | 49.64413 | 8.58987 | 34° | 15km/h | 20725m | -14.8m/s | -52°C | 4.1% | 52.5hPa | 2.6V | 03:27:54 | 01:50:36 | 00:00:00 | |
| BIOWL1-15 | 2026-08-31 18:19:51 | 49.64433 | 8.58994 | 0° | 20km/h | 20650m | -14.7m/s | -52°C | 0.9% | 53hPa | 2.6V | 03:28:00 | 01:50:41 | 00:00:00 | |
| NBG1-10 | 2026-08-31 18:19:49 | 49.64424 | 8.58993 | 8° | 26km/h | 20680m | -13.9m/s | -52.1°C | 4.1% | 52.7hPa | 2.7V | 00:00:00 | 01:50:39 | 00:00:00 | |
| DO3MHA-11 | 2026-08-31 18:19:48 | 49.64420 | 8.58992 | 17° | 16km/h | 20694m | -14.9m/s | -52.0°C | 4.1% | 52.6hPa | 2.6V | 00:00:00 | 01:50:38 | 00:00:00 | |
| DL1NUX | 2026-08-31 18:19:47 | 49.64401 | 8.58971 | 36° | 16km/h | 20781m | -15m/s | -52.1°C | 4.1% | 52hPa | 2.6V | 03:27:58 | 01:50:32 | 00:00:00 | |
| DL1XH-west | 2026-08-31 18:19:43 | 49.64404 | 8.58975 | 45° | 15km/h | 20767m | -13.9m/s | -52.1°C | 1% | 52.1hPa | 2.7V | 03:28:00 | 01:50:33 | 00:00:00 | |
| BIOWL1-15 | 2026-08-31 18:19:41 | 49.64398 | 8.58967 | 37° | 16km/h | 20795m | -13.4m/s | -52.2°C | 1% | 51.9hPa | 2.6V | 03:28:00 | 01:50:31 | 00:00:00 | |
| DM0DOS-11 | 2026-08-31 18:19:40 | 49.64373 | 8.58946 | 24° | 20km/h | 20882m | -14.5m/s | -52.4°C | 4.2% | 51.2hPa | 2.6V | 03:28:05 | 01:50:25 | 00:00:00 | |
| DO3DL | 2026-08-31 18:19:40 | 49.64394 | 8.58963 | 34° | 16km/h | 20809m | -13.5m/s | -52.2°C | 1.3% | 51.8hPa | 2.7V | 03:28:00 | 00:00:00 | 00:00:00 | |
| BIOWL7-15 | 2026-08-31 18:19:39 | 49.64394 | 8.58963 | 34° | 16km/h | 20809m | -13.5m/s | -52.2°C | 1.3% | 51.8hPa | 2.7V | 03:28:00 | 00:00:00 | 00:00:00 | |
| DO3MHA-11 | 2026-08-31 18:19:38 | 49.64387 | 8.58956 | 32° | 22km/h | 20837m | -15.0m/s | -52.3°C | 4.2% | 51.5hPa | 2.7V | 00:00:00 | 01:50:28 | 00:00:00 | |
| DL1NUX | 2026-08-31 18:19:37 | 49.64359 | 8.58937 | 17° | 22km/h | 20928m | -14.7m/s | -52.4°C | 4.1% | 50.8hPa | 2.7V | 03:28:08 | 01:50:22 | 00:00:00 | |
| DL1XH-west | 2026-08-31 18:19:32 | 49.64359 | 8.58937 | 18° | 22km/h | 20928m | -14.7m/s | -52.4°C | 0.9% | 50.8hPa | 2.7V | 03:28:51 | 01:50:22 | 00:00:00 | |
| SFWM-10 | 2026-08-31 18:19:32 | 49.64358 | 8.58937 | 19° | 22km/h | 20928m | -14.7m/s | -52.4°C | 1.3% | 50.8hPa | 2.7V | 00:00:00 | 00:00:00 | 00:00:00 | |
| DL1XH1-15 | 2026-08-31 18:19:31 | 49.64325 | 8.58909 | 34° | 29km/h | 21017m | -13.6m/s | -52.6°C | 4.2% | 50.1hPa | 2.7V | 03:28:14 | 01:50:16 | 00:00:00 | |
| BIOWL1-15 | 2026-08-31 18:19:30 | 49.64348 | 8.58931 | 24° | 24km/h | 20957m | -15.2m/s | -52.4°C | 1% | 50.6hPa | 2.6V | 03:28:51 | 01:50:20 | 00:00:00 | |
| DM7RM-13 | 2026-08-31 18:19:29 | 49.64342 | 8.58926 | 29° | 24km/h | 20973m | -15.5m/s | -52.5°C | 1.4% | 50.5hPa | 2.7V | 03:28:00 | 00:00:00 | 00:00:00 | |
| DL0LBS | 2026-08-31 18:19:28 | 49.64342 | 8.58926 | 29° | 24km/h | 20973m | -15.5m/s | -52.5°C | 1.4% | 50.5hPa | 2.7V | 03:28:00 | 00:00:00 | 00:00:00 | |
| DF7PN | 2026-08-31 18:19:26 | 49.64319 | 8.58903 | 33° | 27km/h | 21031m | -14.2m/s | -52.5°C | 1.3% | 50.0hPa | 2.7V | 00:00:00 | 00:00:00 | 00:00:00 | |
| BIOWL9-15 | 2026-08-31 18:19:25 | 49.64319 | 8.58903 | 33° | 27km/h | 21031m | -14.2m/s | -52.5°C | 1.3% | 50.0hPa | 2.7V | 00:00:00 | 00:00:00 | 00:00:00 | |
| DL1NUX | 2026-08-31 18:19:23 | 49.64287 | 8.58861 | 39° | 22km/h | 21136m | -16.1m/s | -52.4°C | 4.1% | 49.2hPa | 2.7V | 03:28:22 | 01:50:08 | 00:00:00 | |
| DJ2DS-15 | 2026-08-31 18:19:22 | 49.64303 | 8.58885 | 40° | 27km/h | 21077m | -15.9m/s | -52.2°C | 4.1% | 49.6hPa | 2.6V | 00:00:00 | 01:50:12 | 00:00:00 | |
| DL1XH1-15 | 2026-08-31 18:19:21 | 49.64279 | 8.58849 | 40° | 24km/h | 21167m | -15.6m/s | -52.6°C | 4.1% | 49hPa | 2.6V | 03:28:24 | 01:50:06 | 00:00:00 | |
| DL1XH-west | 2026-08-31 18:19:21 | 49.64299 | 8.58879 | 46° | 24km/h | 21092m | -14.5m/s | -52.2°C | 1% | 49.5hPa | 2.6V | 03:28:51 | 01:50:11 | 00:00:00 | |
| BIOWL1-15 | 2026-08-31 18:19:19 | 49.64291 | 8.58867 | 45° | 22km/h | 21121m | -15.7m/s | -52.3°C | 1% | 49.3hPa | 2.7V | 03:28:51 | 01:50:09 | 00:00:00 | |
| BIOWL1-15 | 2026-08-31 18:19:16 | 49.64243 | 8.58775 | 64° | 31km/h | 21289m | -16.2m/s | -53.2°C | 1.1% | 48hPa | 2.7V | 03:28:51 | 01:49:58 | 00:00:00 | |
| DL1XH-west | 2026-08-31 18:19:10 | 49.64251 | 8.58796 | 59° | 33km/h | 21257m | -16.2m/s | -53.1°C | 1.1% | 48.3hPa | 2.6V | 03:28:51 | 01:50:00 | 00:00:00 | |
| DL1XH1-15 | 2026-08-31 18:19:09 | 49.64237 | 8.58753 | 69° | 29km/h | 21320m | -15.4m/s | -53.2°C | 4.3% | 47.8hPa | 2.6V | 03:28:34 | 01:49:56 | 00:00:00 | |
| SONCRA | 2026-08-31 18:19:09 | 49.64243 | 8.58775 | 63° | 29km/h | 21290m | -16.2m/s | -53.2°C | 1.4% | 48.0hPa | 2.7V | 00:00:00 | 00:00:00 | 00:00:00 | |
| DO3MHA-11 | 2026-08-31 18:19:08 | 49.64243 | 8.58775 | 64° | 27km/h | 21290m | -16.1m/s | -53.1°C | 4.3% | 48.0hPa | 2.7V | 00:00:00 | 01:49:58 | 00:00:00 | |
| DL1NUX | 2026-08-31 18:19:07 | 49.64228 | 8.58711 | 74° | 26km/h | 21388m | -17.2m/s | -53.2°C | 4.3% | 47.3hPa | 2.7V | 03:28:38 | 01:49:52 | 00:00:00 | |
| NBG1-10 | 2026-08-31 18:19:05 | 49.64234 | 8.58742 | 71° | 13km/h | 21336m | -16.9m/s | -53.1°C | 4.3% | 47.7hPa | 2.7V | 00:00:00 | 01:49:55 | 00:00:00 | |
| DJ2DS-15 | 2026-08-31 18:19:02 | 49.64227 | 8.58711 | 75° | 13km/h | 21388m | -17.2m/s | -53.1°C | 4.3% | 47.3hPa | 2.7V | 00:00:00 | 01:49:52 | 00:00:00 | |
| DL1XH1-15 | 2026-08-31 18:19:01 | 49.64222 | 8.58662 | 72° | 15km/h | 21497m | -18.5m/s | -53.1°C | 4.2% | 46.6hPa | 2.7V | 03:28:44 | 01:49:46 | 00:00:00 | |
| DB0UT-7 | 2026-08-31 18:19:01 | 49.64226 | 8.58702 | 82° | 11km/h | 21405m | -17.3m/s | -53.1°C | 4.3% | 47.2hPa | 2.7V | 00:00:00 | 00:00:00 | 00:00:00 | |
| DM0DOS-11 | 2026-08-31 18:19:00 | 49.64221 | 8.58657 | 65° | 9km/h | 21514m | -16.7m/s | -53.2°C | 4.2% | 46.5hPa | 2.7V | 03:28:45 | 01:49:45 | 00:00:00 | |
| DL1XH-west | 2026-08-31 18:19:00 | 49.64225 | 8.58693 | 78° | 24km/h | 21423m | -18.7m/s | -53.1°C | 1% | 47.1hPa | 2.7V | 03:28:51 | 01:49:50 | 00:00:00 | |
| BIOWL1-15 | 2026-08-31 18:18:57 | 49.64222 | 8.58669 | 85° | 18km/h | 21478m | -16.8m/s | -53.1°C | 1% | 46.7hPa | 2.6V | 03:28:51 | 01:49:47 | 00:00:00 | |
| DL1NUX | 2026-08-31 18:18:56 | 49.64217 | 8.58648 | 34° | 5km/h | 21583m | -16.9m/s | -53.5°C | 4.3% | 46hPa | 2.7V | 03:28:49 | 01:49:41 | 00:00:00 | |
| DF7PN | 2026-08-31 18:18:55 | 49.64220 | 8.58654 | 65° | 7km/h | 21532m | -18.3m/s | -53.3°C | 1.3% | 46.3hPa | 2.6V | 00:00:00 | 00:00:00 | 00:00:00 | |
| BIOWL9-15 | 2026-08-31 18:18:54 | 49.64219 | 8.58651 | 59° | 5km/h | 21550m | -17.2m/s | -53.4°C | 1.4% | 46.2hPa | 2.6V | 00:00:00 | 00:00:00 | 00:00:00 | |
| DK5PH-5 | 2026-08-31 18:18:52 | 49.64218 | 8.58649 | 48° | 11km/h | 21567m | -16.6m/s | -53.4°C | 4.4% | 46.0hPa | 2.6V | 00:00:00 | 01:49:42 | 00:00:00 | |
| DL1XH1-15 | 2026-08-31 18:18:51 | 49.64209 | 8.58638 | 40° | 11km/h | 21666m | -14.6m/s | -53.4°C | 4.4% | 45.3hPa | 2.6V | 03:28:54 | 01:49:36 | 00:00:00 | |
| DM0DOS-11 | 2026-08-31 18:18:51 | 49.64207 | 8.58635 | 51° | 9km/h | 21681m | -14.9m/s | -53.4°C | 4.4% | 45.2hPa | 2.7V | 03:28:55 | 01:49:35 | 00:00:00 | |
| DL1XH-west | 2026-08-31 18:18:50 | 49.64216 | 8.58646 | 33° | 5km/h | 21601m | -17m/s | -53.5°C | 1.1% | 45.8hPa | 2.7V | 03:28:51 | 01:49:40 | 00:00:00 | |
| BIOWL1-15 | 2026-08-31 18:18:46 | 49.64209 | 8.58638 | 41° | 11km/h | 21666m | -14.6m/s | -53.4°C | 1.1% | 45.3hPa | 2.6V | 03:29:42 | 01:49:36 | 00:00:00 | |
| DL1NUX | 2026-08-31 18:18:45 | 49.64201 | 8.58620 | 58° | 7km/h | 21762m | -17.3m/s | -53.5°C | 4.4% | 44.7hPa | 2.7V | 03:29:00 | 01:49:30 | 00:00:00 | |
| DF2AP-13 | 2026-08-31 18:18:45 | 49.64207 | 8.58635 | 52° | 9km/h | 21681m | -14.9m/s | -53.4°C | 4.4% | 45.2hPa | 2.6V | 00:00:00 | 01:49:35 | 00:00:00 | |
| DJ2DS-15 | 2026-08-31 18:18:42 | 49.64203 | 8.58625 | 54° | 11km/h | 21729m | -17.9m/s | -53.5°C | 4.5% | 44.9hPa | 2.6V | 00:00:00 | 01:49:32 | 00:00:00 | |
| DL1XH1-15 | 2026-08-31 18:18:41 | 49.64196 | 8.58609 | 35° | 7km/h | 21830m | -16.6m/s | -53.6°C | 4.5% | 44.2hPa | 2.6V | 03:29:04 | 01:49:26 | 00:00:00 | |
| DM0DOS-11 | 2026-08-31 18:18:40 | 49.64194 | 8.58608 | 44° | 7km/h | 21846m | -15.5m/s | -53.6°C | 4.5% | 44.1hPa | 2.6V | 03:29:05 | 01:49:25 | 00:00:00 | |
| DL1XH-west | 2026-08-31 18:18:39 | 49.64199 | 8.58617 | 65° | 7km/h | 21779m | -17.2m/s | -53.5°C | 1.2% | 44.6hPa | 2.7V | 03:29:42 | 01:49:29 | 00:00:00 | |
| DO3MHA-11 | 2026-08-31 18:18:38 | 49.64199 | 8.58614 | 66° | 9km/h | 21797m | -17.7m/s | -53.5°C | 4.5% | 44.4hPa | 2.7V | 00:00:00 | 01:49:28 | 00:00:00 | |
| BIOWL7-15 | 2026-08-31 18:18:37 | 49.64199 | 8.58614 | 66° | 9km/h | 21797m | -17.7m/s | -53.5°C | 1.4% | 44.5hPa | 2.6V | 00:00:00 | 00:00:00 | 00:00:00 | |
| DF3TZ-5 | 2026-08-31 18:18:36 | 49.64196 | 8.58609 | 35° | 5km/h | 21830m | -16.6m/s | -53.6°C | 1.4% | 44.2hPa | 2.6V | 00:00:00 | 00:00:00 | 00:00:00 | |
| DL1XH-15 | 2026-08-31 18:18:35 | 49.64185 | 8.58598 | 29° | 13km/h | 21933m | -14.8m/s | -53.7°C | 4.7% | 43.5hPa | 2.6V | 03:29:10 | 01:49:20 | 00:00:00 | |
| BIOWL1-15 | 2026-08-31 18:18:35 | 49.64194 | 8.58608 | 45° | 7km/h | 21846m | -15.5m/s | -53.6°C | 1.1% | 44.1hPa | 2.6V | 03:29:42 | 01:49:25 | 00:00:00 | |
| DB0NH | 2026-08-31 18:18:35 | 49.64194 | 8.58608 | 45° | 16km/h | 21846m | -15.5m/s | -53.6°C | 4.5% | 44.1hPa | 2.6V | 00:00:00 | 01:49:25 | 00:00:00 | |
| DL1NUX | 2026-08-31 18:18:34 | 49.64182 | 8.58596 | 20° | 15km/h | 21949m | -17.7m/s | -53.6°C | 4.7% | 43.4hPa | 2.6V | 03:29:11 | 01:49:19 | 00:00:00 | |
| NBG1-10 | 2026-08-31 18:18:32 | 49.64189 | 8.58602 | 38° | 16km/h | 21899m | -18.2m/s | -53.6°C | 4.6% | 43.7hPa | 2.6V | 03:29:00 | 01:49:22 | 00:00:00 | |
| DB0UT-7 | 2026-08-31 18:18:31 | 49.64187 | 8.58600 | 35° | 16km/h | 21917m | -17.4m/s | -53.6°C | 4.7% | 43.6hPa | 2.6V | 03:29:00 | 01:49:21 | 00:00:00 | |
| DM0DOS-11 | 2026-08-31 18:18:30 | 49.64163 | 8.58592 | 5° | 20km/h | 22014m | -14.2m/s | -53.2°C | 4.6% | 42.9hPa | 2.6V | 03:29:15 | 01:49:15 | 00:00:00 | |
| DL1XH1-15 | 2026-08-31 18:18:30 | 49.64168 | 8.58593 | 2° | 20km/h | 21999m | -16.1m/s | -53.2°C | 4.5% | 43hPa | 2.7V | 03:29:14 | 01:49:16 | 00:00:00 | |
| DL1XH-west | 2026-08-31 18:18:28 | 49.64178 | 8.58594 | 10° | 18km/h | 21967m | -17.8m/s | -53.5°C | 1.3% | 43.3hPa | 2.6V | 03:29:42 | 01:49:18 | 00:00:00 | |
| DO3MHA-11 | 2026-08-31 18:18:28 | 49.64177 | 8.58594 | 10° | 18km/h | 21967m | -17.7m/s | -53.5°C | 4.7% | 43.2hPa | 2.6V | 00:00:00 | 01:49:18 | 00:00:00 | |
| DM7RM-13 | 2026-08-31 18:18:27 | 49.64173 | 8.58593 | 5° | 20km/h | 21984m | -15.3m/s | -53.4°C | 1.5% | 43.2hPa | 2.6V | 03:29:00 | 00:00:00 | 00:00:00 | |
| DJ2DS-15 | 2026-08-31 18:18:26 | 49.64168 | 8.58593 | 2° | 18km/h | 21999m | -16.1m/s | -53.2°C | 1.4% | 43.0hPa | 2.6V | 00:00:00 | 00:00:00 | 00:00:00 | |
| DN1GJH-1 | 2026-08-31 18:18:25 | 49.64168 | 8.58592 | 4° | 20km/h | 22000m | -16.1m/s | -53.2°C | 1.4% | 43.0hPa | 2.6V | 03:29:00 | 00:00:00 | 00:00:00 | |
| DL1NUX | 2026-08-31 18:18:24 | 49.64142 | 8.58572 | 70° | 15km/h | 22111m | -17.1m/s | -52.7°C | 4.3% | 42.3hPa | 2.6V | 03:29:21 | 01:49:09 | 00:00:00 | |
| BIOWL1-15 | 2026-08-31 18:18:24 | 49.64158 | 8.58591 | 13° | 18km/h | 22029m | -15.9m/s | -53.2°C | 1.2% | 42.9hPa | 2.6V | 03:29:42 | 01:49:14 | 00:00:00 | |
| HSKMA3-T | 2026-08-31 18:18:22 | 49.64150 | 8.58586 | 30° | 16km/h | 22061m | -15.3m/s | -53.2°C | 1.2% | 42.6hPa | 2.7V | 03:32:15 | 01:49:12 | 00:00:00 | |
| DJ2DS-15 | 2026-08-31 18:18:22 | 49.64150 | 8.58586 | 31° | 18km/h | 22061m | -15.2m/s | -53.1°C | 4.6% | 42.6hPa | 2.7V | 03:29:00 | 01:49:12 | 00:00:00 | |
| DL1XH1-15 | 2026-08-31 18:18:21 | 49.64141 | 8.58552 | 94° | 18km/h | 22160m | -16.6m/s | -52.9°C | 4.4% | 42hPa | 2.7V | 03:29:24 | 01:49:06 | 00:00:00 | |
| DM0DOS-11 | 2026-08-31 18:18:19 | 49.64143 | 8.58536 | 110° | 24km/h | 22196m | -20.9m/s | -52.8°C | 4.3% | 41.8hPa | 2.6V | 03:29:26 | 01:49:04 | 00:00:00 | |
| DL1XH-west | 2026-08-31 18:18:18 | 49.64141 | 8.58566 | 77° | 18km/h | 22128m | -16.4m/s | -52.8°C | 1.1% | 42.2hPa | 2.6V | 03:29:42 | 01:49:08 | 00:00:00 | |
| BIOWL1-15 | 2026-08-31 18:18:15 | 49.64146 | 8.58528 | 116° | 22km/h | 22217m | -20.3m/s | -52.7°C | 1% | 41.6hPa | 2.6V | 03:29:42 | 01:49:03 | 00:00:00 | |
| DL8DAS-14 | 2026-08-31 18:18:14 | 49.64144 | 8.58536 | 110° | 22km/h | 22196m | -20.9m/s | -52.8°C | 1.3% | 41.8hPa | 2.6V | 00:00:00 | 00:00:00 | 00:00:00 | |
| BIOWL7-15 | 2026-08-31 18:18:12 | 49.64145 | 8.58528 | 117° | 22km/h | 22217m | -20.3m/s | -52.7°C | 1.3% | 41.6hPa | 2.6V | 00:00:00 | 00:00:00 | 00:00:00 | |
| DL1XH1-15 | 2026-08-31 18:18:11 | 49.64161 | 8.58480 | 122° | 15km/h | 22344m | -15.8m/s | -52.2°C | 4.1% | 40.8hPa | 2.6V | 03:29:34 | 01:48:56 | 00:00:00 | |
| DO1YAY-16 | 2026-08-31 18:18:10 | 49.64152 | 8.58505 | 117° | 20km/h | 22272m | -17.6m/s | -52.3°C | 1.3% | 41.2hPa | 2.7V | 00:00:00 | 00:00:00 | 00:00:00 | |
| DL1NUX | 2026-08-31 18:18:09 | 49.64166 | 8.58471 | 138° | 13km/h | 22380m | -18.1m/s | -52.2°C | 4.1% | 40.6hPa | 2.7V | 03:29:36 | 01:48:54 | 00:00:00 | |
| DL1XH-west | 2026-08-31 18:18:07 | 49.64159 | 8.58485 | 116° | 16km/h | 22327m | -17.5m/s | -52.2°C | 0.9% | 40.9hPa | 2.6V | 03:29:42 | 01:48:57 | 00:00:00 | |
| BIOWL1-15 | 2026-08-31 18:18:03 | 49.64169 | 8.58468 | 155° | 13km/h | 22397m | -16.1m/s | -52.3°C | 0.9% | 40.5hPa | 2.7V | 03:29:42 | 01:48:53 | 00:00:00 | |
| HSKMA3-T | 2026-08-31 18:18:02 | 49.64173 | 8.58466 | 159° | 16km/h | 22413m | -16.4m/s | -52.2°C | 1% | 40.4hPa | 2.7V | 03:32:15 | 01:48:52 | 00:00:00 | |
| DJ2DS-15 | 2026-08-31 18:18:02 | 49.64173 | 8.58466 | 160° | 11km/h | 22413m | -16.3m/s | -52.2°C | 4.2% | 40.3hPa | 2.7V | 00:00:00 | 01:48:52 | 00:00:00 | |
| DB0UT-7 | 2026-08-31 18:18:01 | 49.64177 | 8.58463 | 156° | 11km/h | 22430m | -17.4m/s | -52.1°C | 4.1% | 40.2hPa | 2.6V | 00:00:00 | 00:00:00 | 00:00:00 | |
| DL8DAS-15 | 2026-08-31 18:18:00 | 49.64177 | 8.58463 | 157° | 18km/h | 22430m | -17.5m/s | -52.2°C | 1.3% | 40.3hPa | 2.6V | 03:29:00 | 00:00:00 | 00:00:00 | |
| DM0DOS-11 | 2026-08-31 18:17:59 | 49.64200 | 8.58454 | 187° | 7km/h | 22548m | -16.2m/s | -52.4°C | 4.1% | 39.5hPa | 2.6V | 03:29:46 | 01:48:44 | 00:00:00 | |
| DL1XH-west | 2026-08-31 18:17:56 | 49.64196 | 8.58455 | 167° | 15km/h | 22515m | -15.4m/s | -52.1°C | 0.9% | 39.7hPa | 2.6V | 03:30:33 | 01:48:46 | 00:00:00 | |
| DL1NUX | 2026-08-31 18:17:55 | 49.64207 | 8.58455 | 187° | 7km/h | 22616m | -15.7m/s | -52.9°C | 4.3% | 39.1hPa | 2.6V | 03:29:50 | 01:48:40 | 00:00:00 | |
| BIOWL1-15 | 2026-08-31 18:17:52 | 49.64204 | 8.58454 | 192° | 7km/h | 22582m | -17.5m/s | -52.7°C | 1% | 39.4hPa | 2.7V | 03:30:33 | 01:48:42 | 00:00:00 | |
| DK5PH-5 | 2026-08-31 18:17:52 | 49.64204 | 8.58453 | 193° | 13km/h | 22582m | -17.5m/s | -52.6°C | 4.2% | 39.3hPa | 2.7V | 03:29:00 | 01:48:42 | 00:00:00 | |
| DL1XH1-15 | 2026-08-31 18:17:51 | 49.64216 | 8.58454 | 169° | 11km/h | 22684m | -16m/s | -52.9°C | 4.3% | 38.7hPa | 2.7V | 03:29:54 | 01:48:36 | 00:00:00 | |
| DL1ZP-14 | 2026-08-31 18:17:50 | 49.64207 | 8.58455 | 187° | 7km/h | 22616m | -15.7m/s | -52.9°C | 1.3% | 39.1hPa | 2.6V | 00:00:00 | 00:00:00 | 00:00:00 | |
| DM0DOS-11 | 2026-08-31 18:17:49 | 49.64221 | 8.58451 | 154° | 9km/h | 22715m | -16.5m/s | -52.8°C | 4.2% | 38.5hPa | 2.6V | 03:29:56 | 01:48:34 | 00:00:00 | |
| DL1XH-west | 2026-08-31 18:17:46 | 49.64216 | 8.58454 | 169° | 11km/h | 22684m | -16m/s | -52.9°C | 1.1% | 38.7hPa | 2.7V | 03:30:33 | 01:48:36 | 00:00:00 | |
| DB0UT-9 | 2026-08-31 18:17:45 | 49.64216 | 8.58454 | 170° | 11km/h | 22685m | -16.0m/s | -52.9°C | 1.4% | 38.7hPa | 2.7V | 03:30:00 | 00:00:00 | 00:00:00 | |
| DM7RM-13 | 2026-08-31 18:17:44 | 49.64219 | 8.58452 | 152° | 13km/h | 22700m | -14.2m/s | -52.9°C | 1.4% | 38.6hPa | 2.7V | 03:30:00 | 00:00:00 | 00:00:00 | |
| DL8DAS-14 | 2026-08-31 18:17:43 | 49.64223 | 8.58448 | 137° | 11km/h | 22732m | -17.7m/s | -52.9°C | 1.3% | 38.4hPa | 2.7V | 00:00:00 | 00:00:00 | 00:00:00 | |
| DJ2DS-15 | 2026-08-31 18:17:42 | 49.64225 | 8.58446 | 149° | 15km/h | 22750m | -18.7m/s | -52.8°C | 4.3% | 38.3hPa | 2.7V | 00:00:00 | 01:48:32 | 00:00:00 | |
| DL1XH1-15 | 2026-08-31 18:17:41 | 49.64227 | 8.58442 | 337° | 4km/h | 22855m | -14.9m/s | -53°C | 4.3% | 37.7hPa | 2.7V | 03:30:04 | 01:48:26 | 00:00:00 | |
| BIOWL1-15 | 2026-08-31 18:17:41 | 49.64227 | 8.58445 | 146° | 9km/h | 22768m | -18.1m/s | -52.9°C | 1% | 38.2hPa | 2.7V | 03:30:33 | 01:48:31 | 00:00:00 | |
| DL1XH-15 | 2026-08-31 18:17:40 | 49.64226 | 8.58442 | 2° | 9km/h | 22871m | -16.7m/s | -53°C | 4.3% | 37.6hPa | 2.7V | 03:30:05 | 01:48:25 | 00:00:00 | |
| DL1XH-west | 2026-08-31 18:17:36 | 49.64227 | 8.58442 | 337° | 4km/h | 22855m | -14.9m/s | -53°C | 1.1% | 37.7hPa | 2.7V | 03:30:33 | 01:48:26 | 00:00:00 | |
| DO3DL | 2026-08-31 18:17:35 | 49.64227 | 8.58442 | 338° | 4km/h | 22855m | -14.9m/s | -53.0°C | 1.3% | 37.7hPa | 2.6V | 03:30:00 | 00:00:00 | 00:00:00 | |
| DF3TZ-5 | 2026-08-31 18:17:34 | 49.64223 | 8.58441 | 21° | 13km/h | 22888m | -17.3m/s | -53.0°C | 1.3% | 37.5hPa | 2.6V | 00:00:00 | 00:00:00 | 00:00:00 | |
| DB0NH | 2026-08-31 18:17:32 | 49.64216 | 8.58437 | 19° | 15km/h | 22922m | -16.3m/s | -52.9°C | 4.3% | 37.2hPa | 2.6V | 03:30:00 | 01:48:22 | 00:00:00 | |
| DL1XH1-15 | 2026-08-31 18:17:31 | 49.64187 | 8.58416 | 28° | 22km/h | 23026m | -17m/s | -53°C | 4.3% | 36.7hPa | 2.6V | 03:30:14 | 01:48:16 | 00:00:00 | |
| DL1XH-15 | 2026-08-31 18:17:30 | 49.64182 | 8.58413 | 17° | 22km/h | 23043m | -17.8m/s | -52.9°C | 4.3% | 36.6hPa | 2.7V | 03:30:15 | 01:48:15 | 00:00:00 | |
| BIOWL1-15 | 2026-08-31 18:17:30 | 49.64208 | 8.58431 | 22° | 20km/h | 22957m | -18.9m/s | -53°C | 1% | 37.1hPa | 2.7V | 03:30:33 | 01:48:20 | 00:00:00 | |
| DL1KLB | 2026-08-31 18:17:29 | 49.64208 | 8.58430 | 23° | 20km/h | 22957m | -18.9m/s | -53.0°C | 1.3% | 37.1hPa | 2.7V | 00:00:00 | 00:00:00 | 00:00:00 | |
| DO3MHA-11 | 2026-08-31 18:17:28 | 49.64197 | 8.58423 | 23° | 20km/h | 22993m | -16.6m/s | -53.0°C | 4.3% | 36.8hPa | 2.7V | 03:30:00 | 01:48:18 | 00:00:00 | |
| KANTATE | 2026-08-31 18:17:27 | 49.64197 | 8.58423 | 23° | 22km/h | 22993m | -16.6m/s | -53.0°C | 1.3% | 36.9hPa | 2.7V | 03:30:00 | 00:00:00 | 00:00:00 | |
| DM0DOS-11 | 2026-08-31 18:17:26 | 49.64177 | 8.58410 | 28° | 20km/h | 23062m | -19.1m/s | -52.9°C | 4.3% | 36.5hPa | 2.7V | 03:30:16 | 01:48:14 | 00:00:00 | |
| DL1XH-west | 2026-08-31 18:17:25 | 49.64182 | 8.58413 | 18° | 22km/h | 23044m | -17.8m/s | -52.9°C | 1% | 36.6hPa | 2.7V | 03:30:33 | 01:48:15 | 00:00:00 | |
| DN1GJH-1 | 2026-08-31 18:17:24 | 49.64182 | 8.58413 | 19° | 22km/h | 23044m | -17.8m/s | -52.9°C | 1.3% | 36.6hPa | 2.6V | 03:30:00 | 00:00:00 | 00:00:00 | |
| DJ2DS-15 | 2026-08-31 18:17:22 | 49.64168 | 8.58403 | 36° | 11km/h | 23098m | -18.3m/s | -52.8°C | 4.2% | 36.2hPa | 2.6V | 00:00:00 | 01:48:12 | 00:00:00 | |
| DL1XH1-15 | 2026-08-31 18:17:21 | 49.64152 | 8.58374 | 81° | 18km/h | 23210m | -20.6m/s | -52.9°C | 4.3% | 35.7hPa | 2.6V | 03:30:24 | 01:48:06 | 00:00:00 | |
| BIOWL1-15 | 2026-08-31 18:17:21 | 49.64157 | 8.58391 | 49° | 18km/h | 23152m | -18.8m/s | -52.8°C | 1% | 36hPa | 2.7V | 03:30:33 | 01:48:09 | 00:00:00 | |
| BIOWL9-15 | 2026-08-31 18:17:21 | 49.64161 | 8.58395 | 46° | 16km/h | 23134m | -18.5m/s | -52.8°C | 1.3% | 36.1hPa | 2.6V | 00:00:00 | 00:00:00 | 00:00:00 | |
| DL1XH-15 | 2026-08-31 18:17:20 | 49.64151 | 8.58368 | 80° | 16km/h | 23230m | -19.2m/s | -52.9°C | 4.3% | 35.6hPa | 2.6V | 03:30:25 | 01:48:05 | 00:00:00 | |
| DM0DOS-11 | 2026-08-31 18:17:19 | 49.64150 | 8.58362 | 97° | 16km/h | 23248m | -18.1m/s | -52.8°C | 4.2% | 35.5hPa | 2.7V | 03:30:26 | 01:48:04 | 00:00:00 | |
| DL1XH-west | 2026-08-31 18:17:15 | 49.64151 | 8.58368 | 80° | 16km/h | 23230m | -19.3m/s | -52.9°C | 1% | 35.6hPa | 2.6V | 03:30:33 | 01:48:05 | 00:00:00 | |
| DJ2DS-15 | 2026-08-31 18:17:14 | 49.64150 | 8.58362 | 97° | 16km/h | 23249m | -18.1m/s | -52.8°C | 1.3% | 35.5hPa | 2.7V | 00:00:00 | 00:00:00 | 00:00:00 | |
| IW2NTF | 2026-08-31 18:17:12 | 49.64156 | 8.58337 | 123° | 2km/h | 23388m | -22.4m/s | 0°C | 0% | 0hPa | 2.7V | 03:30:33 | 01:47:57 | 00:00:00 | |
| DL8DAS-14 | 2026-08-31 18:17:12 | 49.64151 | 8.58352 | 104° | 13km/h | 23286m | -18.5m/s | -52.8°C | 1.2% | 35.3hPa | 2.6V | 00:00:00 | 00:00:00 | 00:00:00 | |
| DL1XH1-15 | 2026-08-31 18:17:11 | 49.64156 | 8.58336 | 157° | 4km/h | 23409m | -20.3m/s | -53.2°C | 4.3% | 34.6hPa | 2.6V | 03:30:34 | 01:47:56 | 00:00:00 | |
| DL1XH-15 | 2026-08-31 18:17:10 | 49.64157 | 8.58335 | 105° | 4km/h | 23429m | -20.5m/s | -53.3°C | 4.4% | 34.5hPa | 2.6V | 03:30:35 | 01:47:55 | 00:00:00 | |
| DM0DOS-11 | 2026-08-31 18:17:09 | 49.64157 | 8.58334 | 16° | 2km/h | 23449m | -19.9m/s | -53.5°C | 4.5% | 34.4hPa | 2.6V | 03:30:36 | 01:47:54 | 00:00:00 | |
| BIOWL1-15 | 2026-08-31 18:17:08 | 49.64155 | 8.58338 | 133° | 5km/h | 23366m | -22.4m/s | -53°C | 1% | 34.9hPa | 2.7V | 03:30:33 | 01:47:58 | 00:00:00 | |
| DL1XH-west | 2026-08-31 18:17:04 | 49.64157 | 8.58334 | 17° | 2km/h | 23449m | -19.9m/s | -53.5°C | 1.2% | 34.4hPa | 2.6V | 03:31:24 | 01:47:54 | 00:00:00 | |
| HSKMA3-T | 2026-08-31 18:17:03 | 49.64157 | 8.58334 | 76° | 2km/h | 23468m | -18.9m/s | -53.6°C | 1.2% | 34.3hPa | 2.7V | 03:32:15 | 01:47:53 | 00:00:00 | |
| IW2NTF | 2026-08-31 18:17:02 | 49.64145 | 8.58327 | 33° | 15km/h | 23582m | -19.9m/s | 0°C | 0% | 0hPa | 2.7V | 00:00:00 | 01:47:47 | 00:00:00 | |
| DB0NH | 2026-08-31 18:17:02 | 49.64156 | 8.58333 | 7° | 15km/h | 23486m | -17.2m/s | -53.6°C | 4.6% | 34.1hPa | 2.7V | 00:00:00 | 01:47:52 | 00:00:00 | |
| DL1XH1-15 | 2026-08-31 18:17:01 | 49.64141 | 8.58324 | 23° | 15km/h | 23601m | -19.7m/s | -53.6°C | 4.6% | 33.6hPa | 2.7V | 03:30:44 | 01:47:46 | 00:00:00 | |
| DL1XH-15 | 2026-08-31 18:17:00 | 49.64138 | 8.58321 | 41° | 16km/h | 23620m | -18.8m/s | -53.6°C | 4.5% | 33.4hPa | 2.6V | 03:30:45 | 01:47:45 | 00:00:00 | |
| BIOWL1-15 | 2026-08-31 18:17:00 | 49.64148 | 8.58329 | 14° | 13km/h | 23563m | -18.2m/s | -53.7°C | 1.2% | 33.7hPa | 2.7V | 03:31:24 | 01:47:48 | 00:00:00 | |
| DM0DOS-11 | 2026-08-31 18:16:59 | 49.64135 | 8.58316 | 43° | 15km/h | 23639m | -19.1m/s | -53.6°C | 4.5% | 33.4hPa | 2.6V | 03:30:46 | 01:47:44 | 00:00:00 | |
| DL1XH-west | 2026-08-31 18:16:54 | 49.64135 | 8.58316 | 44° | 15km/h | 23639m | -19.1m/s | -53.6°C | 1.2% | 33.4hPa | 2.6V | 03:31:24 | 01:47:44 | 00:00:00 | |
| HSKMA3-T | 2026-08-31 18:16:53 | 49.64133 | 8.58311 | 57° | 18km/h | 23659m | -19.7m/s | -53.6°C | 1.2% | 33.2hPa | 2.6V | 03:32:15 | 01:47:43 | 00:00:00 | |
| NBG1-10 | 2026-08-31 18:16:53 | 49.64133 | 8.58311 | 58° | 16km/h | 23659m | -19.7m/s | -53.5°C | 4.5% | 33.2hPa | 2.7V | 00:00:00 | 01:47:43 | 00:00:00 | |
| IW2NTF | 2026-08-31 18:16:52 | 49.64125 | 8.58272 | 90° | 18km/h | 23777m | -19.3m/s | 0°C | 0% | 0hPa | 2.7V | 00:00:00 | 01:47:37 | 00:00:00 | |
| DK5PH-5 | 2026-08-31 18:16:52 | 49.64131 | 8.58305 | 67° | 16km/h | 23679m | -21.4m/s | -53.4°C | 4.4% | 33.1hPa | 2.7V | 00:00:00 | 01:47:42 | 00:00:00 | |
| DL1XH1-15 | 2026-08-31 18:16:51 | 49.64125 | 8.58265 | 93° | 18km/h | 23795m | -17.5m/s | -53.1°C | 4.4% | 32.5hPa | 2.7V | 03:30:54 | 01:47:36 | 00:00:00 | |
| DL1XH-15 | 2026-08-31 18:16:50 | 49.64126 | 8.58258 | 95° | 16km/h | 23811m | -15m/s | -53.2°C | 4.4% | 32.4hPa | 2.7V | 03:30:55 | 01:47:35 | 00:00:00 | |
| BIOWL9-15 | 2026-08-31 18:16:50 | 49.64126 | 8.58285 | 78° | 16km/h | 23741m | -18.4m/s | -53.0°C | 1.3% | 32.8hPa | 2.6V | 00:00:00 | 00:00:00 | 00:00:00 | |
| DM0DOS-11 | 2026-08-31 18:16:49 | 49.64126 | 8.58251 | 99° | 16km/h | 23828m | -17.9m/s | -53.3°C | 4.4% | 32.4hPa | 2.6V | 03:30:56 | 01:47:34 | 00:00:00 | |
| BIOWL1-15 | 2026-08-31 18:16:47 | 49.64125 | 8.58272 | 90° | 18km/h | 23777m | -19.3m/s | -53°C | 1% | 32.6hPa | 2.7V | 03:31:24 | 01:47:37 | 00:00:00 | |
| DL1XH-west | 2026-08-31 18:16:43 | 49.64127 | 8.58246 | 105° | 15km/h | 23845m | -16.2m/s | -53.3°C | 1.2% | 32.3hPa | 2.6V | 03:31:24 | 01:47:33 | 00:00:00 | |
| IW2NTF | 2026-08-31 18:16:42 | 49.64143 | 8.58214 | 143° | 18km/h | 23951m | -18.2m/s | 0°C | 0% | 0hPa | 2.6V | 00:00:00 | 01:47:27 | 00:00:00 | |
| DJ2DS-15 | 2026-08-31 18:16:42 | 49.64128 | 8.58240 | 114° | 15km/h | 23861m | -16.6m/s | -53.2°C | 4.5% | 32.1hPa | 2.7V | 00:00:00 | 01:47:32 | 00:00:00 | |
| DL1NUX | 2026-08-31 18:16:41 | 49.64146 | 8.58211 | 156° | 16km/h | 23970m | -20.3m/s | -53°C | 4.3% | 31.7hPa | 2.7V | 03:31:04 | 01:47:26 | 00:00:00 | |
| DL1XH-15 | 2026-08-31 18:16:40 | 49.64149 | 8.58208 | 147° | 16km/h | 23989m | -17.7m/s | -53.1°C | 4.3% | 31.6hPa | 2.7V | 03:31:05 | 01:47:25 | 00:00:00 | |
| DM0DOS-11 | 2026-08-31 18:16:39 | 49.64153 | 8.58205 | 160° | 16km/h | 24007m | -18.5m/s | -53°C | 4.4% | 31.5hPa | 2.7V | 03:31:06 | 01:47:24 | 00:00:00 | |
| BIOWL1-15 | 2026-08-31 18:16:36 | 49.64146 | 8.58211 | 156° | 16km/h | 23970m | -20.3m/s | -53°C | 1% | 31.7hPa | 2.7V | 03:31:24 | 01:47:26 | 00:00:00 | |
| DL1XH-west | 2026-08-31 18:16:33 | 49.64157 | 8.58203 | 162° | 13km/h | 24025m | -18.8m/s | -53°C | 1.1% | 31.4hPa | 2.6V | 03:31:24 | 01:47:23 | 00:00:00 | |
| DB0NH | 2026-08-31 18:16:32 | 49.64160 | 8.58202 | 160° | 13km/h | 24044m | -19.2m/s | -52.9°C | 4.3% | 31.3hPa | 2.6V | 00:00:00 | 01:47:22 | 00:00:00 | |
| DL1XH1-15 | 2026-08-31 18:16:31 | 49.64182 | 8.58203 | 199° | 16km/h | 24168m | -19.6m/s | -53.1°C | 4.4% | 30.7hPa | 2.6V | 03:31:14 | 01:47:16 | 00:00:00 | |
| DL1XH-15 | 2026-08-31 18:16:30 | 49.64186 | 8.58205 | 210° | 15km/h | 24188m | -21.8m/s | -53.1°C | 4.4% | 30.6hPa | 2.7V | 03:31:15 | 01:47:15 | 00:00:00 | |
| BIOWL1-15 | 2026-08-31 18:16:30 | 49.64182 | 8.58203 | 199° | 16km/h | 24168m | -19.7m/s | -53.1°C | 1.1% | 30.7hPa | 2.6V | 03:31:24 | 01:47:16 | 00:00:00 | |
| DF1GD-15 | 2026-08-31 18:16:30 | 49.64167 | 8.58200 | 176° | 15km/h | 24084m | -22.5m/s | -53.0°C | 1.3% | 31.2hPa | 2.7V | 03:31:00 | 00:00:00 | 00:00:00 | |
| BIOWL7-15 | 2026-08-31 18:16:29 | 49.64167 | 8.58200 | 176° | 15km/h | 24084m | -22.5m/s | -53.0°C | 1.3% | 31.2hPa | 2.7V | 00:00:00 | 00:00:00 | 00:00:00 | |
| DL1NUX | 2026-08-31 18:16:28 | 49.64192 | 8.58209 | 210° | 11km/h | 24228m | -19m/s | -53.3°C | 4.5% | 30.4hPa | 2.7V | 03:31:17 | 01:47:13 | 00:00:00 | |
| DL1XH-west | 2026-08-31 18:16:23 | 49.64192 | 8.58209 | 211° | 11km/h | 24228m | -19m/s | -53.3°C | 1.2% | 30.4hPa | 2.7V | 03:31:24 | 01:47:13 | 00:00:00 | |
| SO1NDE-10 | 2026-08-31 18:16:23 | 49.64192 | 8.58209 | 211° | 7km/h | 24228m | -18.9m/s | -53.3°C | 4.5% | 30.4hPa | 2.7V | 00:00:00 | 01:47:13 | 00:00:00 | |
| DJ2DS-15 | 2026-08-31 18:16:22 | 49.64194 | 8.58211 | 191° | 9km/h | 24247m | -19.2m/s | -53.3°C | 4.6% | 30.3hPa | 2.6V | 00:00:00 | 01:47:12 | 00:00:00 | |
| DO3DL | 2026-08-31 18:16:21 | 49.64194 | 8.58211 | 192° | 11km/h | 24247m | -19.3m/s | -53.4°C | 1.4% | 30.4hPa | 2.6V | 03:31:00 | 00:00:00 | 00:00:00 | |
| DL1XH-15 | 2026-08-31 18:16:20 | 49.64202 | 8.58198 | 105° | 13km/h | 24373m | -17.4m/s | -53.4°C | 4.7% | 29.7hPa | 2.6V | 03:31:25 | 01:47:05 | 00:00:00 | |
| BIOWL1-15 | 2026-08-31 18:16:15 | 49.64202 | 8.58198 | 105° | 13km/h | 24373m | -17.4m/s | -53.4°C | 1.3% | 29.8hPa | 2.6V | 03:32:15 | 01:47:05 | 00:00:00 | |
| DL1XH-west | 2026-08-31 18:16:12 | 49.64204 | 8.58184 | 116° | 13km/h | 24430m | -17.9m/s | -53.1°C | 1.2% | 29.5hPa | 2.7V | 03:32:15 | 01:47:02 | 00:00:00 | |
| DL1XH1-15 | 2026-08-31 18:16:11 | 49.64217 | 8.58173 | 202° | 9km/h | 24550m | -19.6m/s | -52.7°C | 4.5% | 28.9hPa | 2.6V | 03:31:34 | 01:46:56 | 00:00:00 | |
| DL8DAS-14 | 2026-08-31 18:16:10 | 49.64207 | 8.58176 | 150° | 11km/h | 24471m | -22.1m/s | -52.8°C | 1.3% | 29.3hPa | 2.6V | 00:00:00 | 00:00:00 | 00:00:00 | |
| DM0DOS-11 | 2026-08-31 18:16:09 | 49.64222 | 8.58175 | 186° | 9km/h | 24586m | -19.3m/s | -52.4°C | 4.4% | 28.8hPa | 2.6V | 03:31:36 | 01:46:54 | 00:00:00 | |
| HSKMA3-T | 2026-08-31 18:16:09 | 49.64210 | 8.58173 | 152° | 13km/h | 24492m | -20.3m/s | -52.8°C | 1.2% | 29.2hPa | 2.6V | 03:32:15 | 01:46:59 | 00:00:00 | |
| AA1-15 | 2026-08-31 18:16:05 | 49.64220 | 8.58174 | 199° | 11km/h | 24568m | -16.5m/s | -52.6°C | 1.1% | 28.8hPa | 2.6V | 03:32:15 | 01:46:55 | 00:00:00 | |
| BIOWL1-15 | 2026-08-31 18:16:04 | 49.64222 | 8.58175 | 186° | 9km/h | 24586m | -19.3m/s | -52.4°C | 1.1% | 28.8hPa | 2.6V | 03:32:15 | 01:46:54 | 00:00:00 | |
| DN1GJH-1 | 2026-08-31 18:16:03 | 49.64222 | 8.58175 | 187° | 9km/h | 24586m | -19.3m/s | -52.4°C | 1.3% | 28.8hPa | 2.7V | 03:32:00 | 00:00:00 | 00:00:00 | |
| DJ2DS-15 | 2026-08-31 18:16:02 | 49.64225 | 8.58177 | 208° | 5km/h | 24622m | -16.7m/s | -52.2°C | 4.3% | 28.5hPa | 2.7V | 00:00:00 | 01:46:52 | 00:00:00 | |
| DL1XH1-15 | 2026-08-31 18:16:01 | 49.64225 | 8.58182 | 118° | 0km/h | 24725m | -17.1m/s | -52°C | 4.3% | 28.1hPa | 2.7V | 03:31:44 | 01:46:46 | 00:00:00 | |
| DL1XH-west | 2026-08-31 18:16:01 | 49.64226 | 8.58178 | 178° | 4km/h | 24639m | -18m/s | -52.1°C | 1.1% | 28.5hPa | 2.7V | 03:32:15 | 01:46:51 | 00:00:00 | |
| HSKMA3-T | 2026-08-31 18:15:59 | 49.64226 | 8.58180 | 282° | 4km/h | 24674m | -16.7m/s | -52.1°C | 1.1% | 28.4hPa | 2.6V | 03:32:15 | 01:46:49 | 00:00:00 | |
| SONDE2-11 | 2026-08-31 18:15:55 | 49.64225 | 8.58183 | 288° | 2km/h | 24742m | -18.1m/s | -51.9°C | 1.3% | 28.1hPa | 2.6V | 00:00:00 | 00:00:00 | 00:00:00 | |
| DM0DOS-11 | 2026-08-31 18:15:54 | 49.64225 | 8.58183 | 45° | 0km/h | 24761m | -20.2m/s | -51.8°C | 4.2% | 28hPa | 2.6V | 03:31:46 | 01:46:44 | 00:00:00 | |
| BIOWL1-15 | 2026-08-31 18:15:53 | 49.64225 | 8.58184 | 284° | 4km/h | 24780m | -18.3m/s | -51.8°C | 1% | 27.9hPa | 2.6V | 03:32:15 | 01:46:43 | 00:00:00 | |
| DK5PH-5 | 2026-08-31 18:15:52 | 49.64224 | 8.58184 | 356° | 9km/h | 24799m | -19.6m/s | -51.7°C | 4.3% | 27.8hPa | 2.7V | 03:31:00 | 01:46:42 | 00:00:00 | |
| DL1NUX | 2026-08-31 18:15:51 | 49.64214 | 8.58187 | 17° | 7km/h | 24907m | -18.8m/s | -51.3°C | 4.2% | 27.4hPa | 2.7V | 03:31:54 | 01:46:36 | 00:00:00 | |
| DL1XH-15 | 2026-08-31 18:15:50 | 49.64212 | 8.58185 | 18° | 13km/h | 24926m | -19.7m/s | -51.2°C | 4.2% | 27.3hPa | 2.7V | 03:31:55 | 01:46:35 | 00:00:00 | |
| DL1XH-west | 2026-08-31 18:15:50 | 49.64222 | 8.58186 | 352° | 4km/h | 24838m | -19.6m/s | -51.6°C | 1.1% | 27.7hPa | 2.7V | 03:32:15 | 01:46:40 | 00:00:00 | |
| HSKMA3-T | 2026-08-31 18:15:48 | 49.64219 | 8.58186 | 5° | 7km/h | 24872m | -16m/s | -51.4°C | 1% | 27.5hPa | 2.6V | 03:32:15 | 01:46:38 | 00:00:00 | |
| BIOWL9-15 | 2026-08-31 18:15:48 | 49.64217 | 8.58187 | 351° | 9km/h | 24889m | -18.2m/s | -51.3°C | 1.3% | 27.4hPa | 2.7V | 00:00:00 | 00:00:00 | 00:00:00 | |
| DL1ZP-14 | 2026-08-31 18:15:46 | 49.64212 | 8.58185 | 18° | 11km/h | 24926m | -19.7m/s | -51.3°C | 1.3% | 27.3hPa | 2.7V | 00:00:00 | 00:00:00 | 00:00:00 | |
| BIOWL1-15 | 2026-08-31 18:15:45 | 49.64206 | 8.58183 | 28° | 11km/h | 24964m | -17.4m/s | -51.3°C | 1% | 27.1hPa | 2.6V | 03:32:15 | 01:46:33 | 00:00:00 | |
| DN1GJH-1 | 2026-08-31 18:15:43 | 49.64209 | 8.58184 | 14° | 11km/h | 24946m | -19.4m/s | -51.2°C | 1.3% | 27.2hPa | 2.6V | 03:32:00 | 00:00:00 | 00:00:00 | |
| DJ2DS-15 | 2026-08-31 18:15:42 | 49.64203 | 8.58181 | 28° | 11km/h | 24980m | -15.3m/s | -51.3°C | 4.3% | 27.0hPa | 2.6V | 03:31:00 | 01:46:32 | 00:00:00 | |
| DL1XH1-15 | 2026-08-31 18:15:41 | 49.64191 | 8.58166 | 72° | 9km/h | 25086m | -20.7m/s | -51°C | 4.2% | 26.6hPa | 2.6V | 03:32:04 | 01:46:26 | 00:00:00 | |
| DL1XH-15 | 2026-08-31 18:15:40 | 49.64190 | 8.58163 | 96° | 11km/h | 25106m | -19.2m/s | -50.9°C | 4.1% | 26.5hPa | 2.7V | 03:32:05 | 01:46:25 | 00:00:00 | |
| DL1XH-west | 2026-08-31 18:15:40 | 49.64198 | 8.58177 | 31° | 11km/h | 25014m | -18.2m/s | -51.4°C | 1% | 26.9hPa | 2.7V | 03:32:15 | 01:46:30 | 00:00:00 | |
| HSKMA3-T | 2026-08-31 18:15:36 | 49.64191 | 8.58166 | 73° | 9km/h | 25086m | -20.7m/s | -51°C | 1% | 26.6hPa | 2.6V | 03:32:15 | 01:46:26 | 00:00:00 | |
| BIOWL1-15 | 2026-08-31 18:15:32 | 49.64194 | 8.58152 | 131° | 11km/h | 25165m | -17.6m/s | -50.5°C | 0.9% | 26.3hPa | 2.6V | 03:32:15 | 01:46:22 | 00:00:00 | |
| DL1NUX | 2026-08-31 18:15:32 | 49.64205 | 8.58145 | 191° | 9km/h | 25269m | -22.2m/s | -49.8°C | 3.8% | 25.9hPa | 2.6V | 03:32:13 | 01:46:17 | 00:00:00 | |
| DB0NH | 2026-08-31 18:15:32 | 49.64194 | 8.58151 | 132° | 13km/h | 25166m | -17.6m/s | -50.5°C | 4.1% | 26.2hPa | 2.6V | 03:32:00 | 01:46:22 | 00:00:00 | |
| SONCRA | 2026-08-31 18:15:31 | 49.64196 | 8.58149 | 135° | 11km/h | 25184m | -19.6m/s | -50.4°C | 1.2% | 26.2hPa | 2.6V | 00:00:00 | 00:00:00 | 00:00:00 | |
| DL1XH-15 | 2026-08-31 18:15:30 | 49.64209 | 8.58147 | 209° | 9km/h | 25315m | -22.8m/s | -49.8°C | 3.8% | 25.7hPa | 2.6V | 03:32:15 | 01:46:15 | 00:00:00 | |
| DL1XH-west | 2026-08-31 18:15:29 | 49.64201 | 8.58145 | 161° | 9km/h | 25225m | -22m/s | -50°C | 0.8% | 26.1hPa | 2.7V | 03:32:15 | 01:46:19 | 00:00:00 | |
| HSKMA3-T | 2026-08-31 18:15:25 | 49.64209 | 8.58147 | 210° | 9km/h | 25315m | -22.8m/s | -49.8°C | 0.8% | 25.7hPa | 2.6V | 03:32:15 | 01:46:15 | 00:00:00 | |
| DM0DOS-11 | 2026-08-31 18:15:24 | 49.64211 | 8.58149 | 228° | 9km/h | 25338m | -21.5m/s | -49.8°C | 3.8% | 25.6hPa | 2.7V | 03:32:16 | 01:46:14 | 00:00:00 | |
| BIOWL1-15 | 2026-08-31 18:15:22 | 49.64214 | 8.58155 | 247° | 11km/h | 25380m | -22.5m/s | -50°C | 0.8% | 25.4hPa | 2.6V | 03:33:06 | 01:46:12 | 00:00:00 | |
| DL1XH1-15 | 2026-08-31 18:15:21 | 49.64224 | 8.58180 | 228° | 15km/h | 25504m | -18.2m/s | -49.8°C | 3.7% | 25hPa | 2.6V | 03:32:24 | 01:46:06 | 00:00:00 | |
| DL1XH-west | 2026-08-31 18:15:19 | 49.64218 | 8.58168 | 240° | 13km/h | 25445m | -21.6m/s | -50.1°C | 0.8% | 25.2hPa | 2.7V | 03:33:06 | 01:46:09 | 00:00:00 | |
| AA1-15 | 2026-08-31 18:15:18 | 49.64220 | 8.58172 | 235° | 13km/h | 25466m | -20.7m/s | -50°C | 0.7% | 25.1hPa | 2.7V | 03:33:06 | 01:46:08 | 00:00:00 | |
| DF7PN | 2026-08-31 18:15:17 | 49.64222 | 8.58176 | 234° | 13km/h | 25486m | -18.8m/s | 0°C | -1.0% | -1.0hPa | 2.6V | 00:00:00 | 00:00:00 | 00:00:00 | |
| DM0DOS-11 | 2026-08-31 18:15:14 | 49.64230 | 8.58188 | 220° | 15km/h | 25538m | -14.2m/s | -49.6°C | 3.7% | 24.8hPa | 2.6V | 03:32:26 | 01:46:04 | 00:00:00 | |
| HSKMA3-T | 2026-08-31 18:15:14 | 49.64230 | 8.58188 | 221° | 15km/h | 25538m | -14.2m/s | -49.6°C | 0.7% | 24.8hPa | 2.6V | 03:33:06 | 01:46:04 | 00:00:00 | |
| NBG1-10 | 2026-08-31 18:15:14 | 49.64230 | 8.58188 | 221° | 15km/h | 25538m | -14.1m/s | -49.6°C | 3.7% | 24.7hPa | 2.7V | 00:00:00 | 01:46:04 | 00:00:00 | |
| DJTTGO | 2026-08-31 18:15:12 | 49.64232 | 8.58191 | 224° | 15km/h | 25551m | -11.6m/s | -49.6°C | 1.1% | 24.7hPa | 2.7V | 03:33:00 | 00:00:00 | 00:00:00 | |
| DL1XH1-15 | 2026-08-31 18:15:11 | 49.64243 | 8.58222 | 239° | 15km/h | 25574m | 5.2m/s | -49.6°C | 3.7% | 24.6hPa | 2.7V | 03:32:34 | 01:45:56 | 00:00:00 | |
| BIOWL1-15 | 2026-08-31 18:15:11 | 49.64237 | 8.58199 | 238° | 13km/h | 25572m | -11.8m/s | -49.6°C | 0.7% | 24.7hPa | 2.6V | 03:33:06 | 01:46:01 | 00:00:00 | |
| DL1XH-west | 2026-08-31 18:15:08 | 49.64240 | 8.58213 | 251° | 13km/h | 25584m | 5.4m/s | -49.5°C | 0.7% | 24.6hPa | 2.7V | 03:33:06 | 01:45:58 | 00:00:00 | |
| AA1-15 | 2026-08-31 18:15:05 | 49.64245 | 8.58227 | 229° | 16km/h | 25568m | 6.6m/s | -49.6°C | 0.7% | 24.6hPa | 2.6V | 03:33:06 | 01:45:55 | 00:00:00 | |
| HSKMA3-T | 2026-08-31 18:15:03 | 49.64251 | 8.58236 | 222° | 18km/h | 25557m | 4.8m/s | -49.6°C | 0.8% | 24.7hPa | 2.6V | 03:33:06 | 01:45:53 | 00:00:00 | |
| DB0NH | 2026-08-31 18:15:02 | 49.64254 | 8.58240 | 226° | 13km/h | 25552m | 6.3m/s | -49.6°C | 3.7% | 24.6hPa | 2.7V | 00:00:00 | 01:45:52 | 00:00:00 | |
| DL1XH1-15 | 2026-08-31 18:15:01 | 49.64262 | 8.58266 | 255° | 11km/h | 25518m | 5.8m/s | -49.9°C | 3.7% | 24.8hPa | 2.7V | 03:32:44 | 01:45:46 | 00:00:00 | |
| DL1XH-15 | 2026-08-31 18:15:00 | 49.64263 | 8.58270 | 268° | 11km/h | 25512m | 6m/s | -50°C | 3.7% | 24.8hPa | 2.7V | 03:32:45 | 01:45:45 | 00:00:00 | |
| BIOWL1-15 | 2026-08-31 18:15:00 | 49.64258 | 8.58249 | 247° | 11km/h | 25540m | 5.2m/s | -49.6°C | 0.7% | 24.8hPa | 2.6V | 03:33:06 | 01:45:50 | 00:00:00 | |
| DL1XH-west | 2026-08-31 18:14:58 | 49.64260 | 8.58257 | 242° | 13km/h | 25529m | 5.6m/s | -49.7°C | 0.7% | 24.8hPa | 2.6V | 03:33:06 | 01:45:48 | 00:00:00 | |
| AA1-15 | 2026-08-31 18:14:54 | 49.64263 | 8.58274 | 265° | 11km/h | 25507m | 4.4m/s | -50°C | 0.8% | 24.9hPa | 2.6V | 03:33:06 | 01:45:44 | 00:00:00 | |
| HSKMA3-T | 2026-08-31 18:14:53 | 49.64264 | 8.58278 | 249° | 13km/h | 25502m | 4.6m/s | -50°C | 0.8% | 24.9hPa | 2.6V | 03:33:06 | 01:45:43 | 00:00:00 | |
| SONDE2-11 | 2026-08-31 18:14:53 | 49.64265 | 8.58283 | 235° | 15km/h | 25497m | 6.7m/s | -50.0°C | 1.1% | 24.9hPa | 2.7V | 00:00:00 | 00:00:00 | 00:00:00 | |
| DK5PH-5 | 2026-08-31 18:14:52 | 49.64265 | 8.58283 | 236° | 13km/h | 25497m | 6.6m/s | -50.0°C | 3.8% | 24.9hPa | 2.7V | 00:00:00 | 01:45:42 | 00:00:00 | |
| DL1XH1-15 | 2026-08-31 18:14:51 | 49.64288 | 8.58317 | 233° | 16km/h | 25463m | 4.6m/s | -50.2°C | 3.9% | 25hPa | 2.7V | 03:32:54 | 01:45:36 | 00:00:00 | |
| DL1XH-15 | 2026-08-31 18:14:50 | 49.64290 | 8.58321 | 232° | 15km/h | 25458m | 6.4m/s | -50.2°C | 3.9% | 25.1hPa | 2.7V | 03:32:55 | 01:45:35 | 00:00:00 | |
| BIOWL1-15 | 2026-08-31 18:14:50 | 49.64273 | 8.58294 | 220° | 24km/h | 25485m | 5m/s | -50.1°C | 0.7% | 25hPa | 2.7V | 03:33:06 | 01:45:40 | 00:00:00 | |
| DL1XH-west | 2026-08-31 18:14:48 | 49.64281 | 8.58306 | 224° | 22km/h | 25474m | 6.3m/s | -50.1°C | 0.8% | 25hPa | 2.6V | 03:33:06 | 01:45:38 | 00:00:00 | |
| DF1GD-15 | 2026-08-31 18:14:47 | 49.64285 | 8.58311 | 231° | 18km/h | 25469m | 5.4m/s | -50.1°C | 1.2% | 25.0hPa | 2.6V | 03:33:00 | 00:00:00 | 00:00:00 | |
| DL1NUX | 2026-08-31 18:14:46 | 49.64294 | 8.58335 | 306° | 5km/h | 25435m | 5.6m/s | -50.2°C | 4% | 25.2hPa | 2.6V | 03:32:59 | 01:45:31 | 00:00:00 | |
| BIOWL9-15 | 2026-08-31 18:14:46 | 49.64290 | 8.58321 | 232° | 15km/h | 25458m | 6.4m/s | -50.2°C | 1.2% | 25.1hPa | 2.7V | 00:00:00 | 00:00:00 | 00:00:00 | |
| AA1-15 | 2026-08-31 18:14:44 | 49.64292 | 8.58326 | 234° | 13km/h | 25452m | 5.3m/s | -50.2°C | 0.9% | 25.1hPa | 2.7V | 03:33:06 | 01:45:34 | 00:00:00 | |
| HSKMA3-T | 2026-08-31 18:14:43 | 49.64293 | 8.58330 | 244° | 9km/h | 25447m | 4.7m/s | -50.2°C | 0.9% | 25.1hPa | 2.6V | 03:33:06 | 01:45:33 | 00:00:00 | |
| SO1NDE-10 | 2026-08-31 18:14:43 | 49.64293 | 8.58330 | 245° | 15km/h | 25447m | 4.6m/s | -50.2°C | 4.0% | 25.1hPa | 2.6V | 03:32:00 | 01:45:33 | 00:00:00 | |
| DJ2DS-15 | 2026-08-31 18:14:42 | 49.64294 | 8.58332 | 268° | 11km/h | 25442m | 6.5m/s | -50.2°C | 4.0% | 25.1hPa | 2.6V | 00:00:00 | 01:45:32 | 00:00:00 | |
| NBG1-10 | 2026-08-31 18:14:41 | 49.64293 | 8.58335 | 307° | 11km/h | 25436m | 5.5m/s | -50.2°C | 4.0% | 25.1hPa | 2.6V | 00:00:00 | 01:45:31 | 00:00:00 | |
| DL1XH-15 | 2026-08-31 18:14:40 | 49.64302 | 8.58344 | 213° | 15km/h | 25402m | 6.3m/s | -50°C | 3.8% | 25.3hPa | 2.7V | 03:33:05 | 01:45:25 | 00:00:00 | |
| BIOWL1-15 | 2026-08-31 18:14:39 | 49.64293 | 8.58337 | 241° | 2km/h | 25425m | 5.9m/s | -50.2°C | 0.8% | 25.2hPa | 2.7V | 03:33:06 | 01:45:29 | 00:00:00 | |
| DL1XH-west | 2026-08-31 18:14:38 | 49.64294 | 8.58338 | 203° | 7km/h | 25419m | 5.9m/s | -50.1°C | 0.8% | 25.2hPa | 2.6V | 03:33:06 | 01:45:28 | 00:00:00 | |
| HSKMA3-T | 2026-08-31 18:14:33 | 49.64308 | 8.58353 | 229° | 18km/h | 25391m | 4.6m/s | -49.9°C | 0.8% | 25.3hPa | 2.7V | 03:33:57 | 01:45:23 | 00:00:00 | |
| AA1-15 | 2026-08-31 18:14:32 | 49.64311 | 8.58359 | 230° | 20km/h | 25386m | 6.4m/s | 0°C | 0% | 25.3hPa | 2.6V | 03:33:57 | 01:45:22 | 00:00:00 | |
| DL1NUX | 2026-08-31 18:14:32 | 49.64320 | 8.58381 | 269° | 5km/h | 25358m | 4.8m/s | -49.8°C | 3.8% | 25.4hPa | 2.6V | 03:33:13 | 01:45:17 | 00:00:00 | |
| DB0NH | 2026-08-31 18:14:32 | 49.64311 | 8.58359 | 230° | 15km/h | 25386m | 6.4m/s | -49.9°C | 3.8% | 25.3hPa | 2.6V | 00:00:00 | 01:45:22 | 00:00:00 | |
| DL1XH1-15 | 2026-08-31 18:14:31 | 49.64320 | 8.58383 | 224° | 4km/h | 25352m | 6m/s | -49.8°C | 3.8% | 25.5hPa | 2.6V | 03:33:14 | 01:45:16 | 00:00:00 | |
| BIOWL1-15 | 2026-08-31 18:14:29 | 49.64319 | 8.58375 | 248° | 13km/h | 25369m | 6.5m/s | -49.8°C | 0.8% | 25.4hPa | 2.7V | 03:33:57 | 01:45:19 | 00:00:00 | |
| DL1XH-west | 2026-08-31 18:14:28 | 49.64320 | 8.58379 | 267° | 9km/h | 25363m | 5.2m/s | -49.8°C | 0.8% | 25.4hPa | 2.7V | 03:33:57 | 01:45:18 | 00:00:00 | |
| AA1-15 | 2026-08-31 18:14:22 | 49.64328 | 8.58384 | 192° | 11km/h | 25331m | 6m/s | 0°C | 0% | 25.6hPa | 2.7V | 03:33:57 | 01:45:12 | 00:00:00 | |
| SONDE2-11 | 2026-08-31 18:14:22 | 49.64331 | 8.58385 | 198° | 11km/h | 25325m | 5.4m/s | -49.8°C | 1.1% | 25.6hPa | 2.6V | 00:00:00 | 00:00:00 | 00:00:00 | |
| DL1XH1-15 | 2026-08-31 18:14:21 | 49.64351 | 8.58394 | 200° | 16km/h | 25298m | 5.7m/s | -49.8°C | 3.7% | 25.7hPa | 2.6V | 03:33:24 | 01:45:06 | 00:00:00 | |
| HSKMA3-T | 2026-08-31 18:14:21 | 49.64331 | 8.58385 | 199° | 11km/h | 25325m | 5.4m/s | -49.8°C | 0.8% | 25.6hPa | 2.6V | 03:33:57 | 01:45:11 | 00:00:00 | |
| BIOWL7-15 | 2026-08-31 18:14:19 | 49.64334 | 8.58386 | 199° | 13km/h | 25320m | 4.9m/s | -49.8°C | 1.1% | 25.6hPa | 2.7V | 03:33:00 | 00:00:00 | 00:00:00 | |
| DL1NUX | 2026-08-31 18:14:18 | 49.64359 | 8.58401 | 218° | 7km/h | 25281m | 5.6m/s | -49.8°C | 3.7% | 25.8hPa | 2.7V | 03:33:27 | 01:45:03 | 00:00:00 | |
| BIOWL1-15 | 2026-08-31 18:14:18 | 49.64342 | 8.58390 | 192° | 20km/h | 25308m | 5.6m/s | -49.8°C | 0.7% | 25.6hPa | 2.7V | 03:33:57 | 01:45:08 | 00:00:00 | |
| DL1XH-west | 2026-08-31 18:14:17 | 49.64347 | 8.58392 | 195° | 20km/h | 25303m | 4.4m/s | -49.8°C | 0.7% | 25.7hPa | 2.7V | 03:33:57 | 01:45:07 | 00:00:00 | |
| KANTATE | 2026-08-31 18:14:17 | 49.64347 | 8.58392 | 195° | 20km/h | 25303m | 4.4m/s | -49.8°C | 1.1% | 25.7hPa | 2.7V | 00:00:00 | 00:00:00 | 00:00:00 | |
| DO3MHA-11 | 2026-08-31 18:14:15 | 49.64355 | 8.58396 | 211° | 9km/h | 25292m | 5.9m/s | -49.8°C | 3.8% | 25.7hPa | 2.7V | 00:00:00 | 01:45:05 | 00:00:00 | |
| DJ2DS-15 | 2026-08-31 18:14:14 | 49.64357 | 8.58399 | 220° | 9km/h | 25287m | 5.1m/s | -49.8°C | 1.1% | 25.7hPa | 2.7V | 00:00:00 | 00:00:00 | 00:00:00 | |
| SO1NDE-10 | 2026-08-31 18:14:13 | 49.64358 | 8.58401 | 219° | 9km/h | 25281m | 5.5m/s | -49.7°C | 3.7% | 25.7hPa | 2.7V | 00:00:00 | 01:45:03 | 00:00:00 | |
| DL1ZP-14 | 2026-08-31 18:14:12 | 49.64360 | 8.58402 | 199° | 5km/h | 25275m | 6.3m/s | -49.7°C | 1.1% | 25.8hPa | 2.7V | 00:00:00 | 00:00:00 | 00:00:00 | |
| DL1XH1-15 | 2026-08-31 18:14:11 | 49.64369 | 8.58391 | 123° | 9km/h | 25243m | 4.5m/s | -49.8°C | 3.6% | 25.9hPa | 2.7V | 03:33:34 | 01:44:56 | 00:00:00 | |
| DB0UT-7 | 2026-08-31 18:14:11 | 49.64362 | 8.58402 | 171° | 9km/h | 25270m | 4.9m/s | -49.7°C | 3.6% | 25.8hPa | 2.6V | 03:33:00 | 01:45:01 | 00:00:00 | |
| DL1XH-15 | 2026-08-31 18:14:10 | 49.64371 | 8.58388 | 140° | 13km/h | 25238m | 5.7m/s | -49.9°C | 3.7% | 25.9hPa | 2.6V | 03:33:35 | 01:44:55 | 00:00:00 | |
| AA1-15 | 2026-08-31 18:14:10 | 49.64364 | 8.58401 | 151° | 9km/h | 25265m | 4.6m/s | 0°C | 0% | 0hPa | 2.6V | 03:33:57 | 01:45:00 | 00:00:00 | |
| HSKMA3-T | 2026-08-31 18:14:08 | 49.64367 | 8.58396 | 120° | 9km/h | 25254m | 6.4m/s | -49.7°C | 0.7% | 25.9hPa | 2.6V | 03:33:57 | 01:44:58 | 00:00:00 | |
| DL1XH-west | 2026-08-31 18:14:07 | 49.64368 | 8.58393 | 112° | 7km/h | 25248m | 5.7m/s | -49.8°C | 0.6% | 25.9hPa | 2.7V | 03:33:57 | 01:44:57 | 00:00:00 | |
| DL8DAS-14 | 2026-08-31 18:14:06 | 49.64369 | 8.58391 | 123° | 9km/h | 25243m | 4.5m/s | -49.8°C | 1.1% | 25.9hPa | 2.6V | 00:00:00 | 00:00:00 | 00:00:00 | |
| DO3MHA-11 | 2026-08-31 18:14:05 | 49.64371 | 8.58388 | 141° | 13km/h | 25238m | 5.6m/s | -49.9°C | 3.7% | 25.9hPa | 2.6V | 03:33:00 | 01:44:55 | 00:00:00 | |
| DM0DOS-11 | 2026-08-31 18:14:04 | 49.64382 | 8.58380 | 171° | 18km/h | 25220m | 5.8m/s | -50.1°C | 3.7% | 26hPa | 2.7V | 03:33:38 | 01:44:52 | 00:00:00 | |
| DO3DL | 2026-08-31 18:14:03 | 49.64374 | 8.58384 | 154° | 16km/h | 25232m | 6.4m/s | -50.0°C | 1.1% | 25.9hPa | 2.7V | 03:33:00 | 00:00:00 | 00:00:00 | |
| DO1YAY-16 | 2026-08-31 18:14:02 | 49.64386 | 8.58380 | 178° | 15km/h | 25214m | 6.0m/s | -50.2°C | 1.1% | 26.0hPa | 2.7V | 00:00:00 | 00:00:00 | 00:00:00 | |
| DL1XH1-15 | 2026-08-31 18:14:01 | 49.64399 | 8.58377 | 130° | 5km/h | 25188m | 4.6m/s | -50.4°C | 3.8% | 26.1hPa | 2.7V | 03:33:44 | 01:44:46 | 00:00:00 | |
| DL1XH-15 | 2026-08-31 18:14:00 | 49.64400 | 8.58375 | 95° | 5km/h | 25183m | 6.2m/s | -50.4°C | 3.8% | 26.2hPa | 2.7V | 03:33:45 | 01:44:45 | 00:00:00 | |
| AA1-15 | 2026-08-31 18:14:00 | 49.64390 | 8.58380 | 183° | 13km/h | 25209m | 4.6m/s | 0°C | 0% | 0hPa | 2.7V | 03:33:57 | 01:44:50 | 00:00:00 | |
| BIOWL1-15 | 2026-08-31 18:13:59 | 49.64398 | 8.58379 | 154° | 7km/h | 25193m | 5.1m/s | -50.4°C | 0.8% | 26.1hPa | 2.6V | 03:33:57 | 01:44:47 | 00:00:00 | |
| DL1XH-west | 2026-08-31 18:13:56 | 49.64399 | 8.58377 | 131° | 7km/h | 25188m | 4.6m/s | -50.4°C | 0.8% | 26.1hPa | 2.7V | 03:33:57 | 01:44:46 | 00:00:00 | |
| HSKMA3-T | 2026-08-31 18:13:55 | 49.64400 | 8.58375 | 96° | 5km/h | 25183m | 6.3m/s | -50.4°C | 0.8% | 26.2hPa | 2.7V | 03:33:57 | 01:44:45 | 00:00:00 | |
| DO3MHA-11 | 2026-08-31 18:13:55 | 49.64399 | 8.58375 | 96° | 9km/h | 25183m | 6.2m/s | -50.4°C | 3.8% | 26.1hPa | 2.6V | 00:00:00 | 01:44:45 | 00:00:00 | |
| DM0DOS-11 | 2026-08-31 18:13:54 | 49.64397 | 8.58369 | 70° | 7km/h | 25166m | 6.2m/s | -50.5°C | 3.8% | 26.2hPa | 2.6V | 03:33:48 | 01:44:42 | 00:00:00 | |
| SONDE2-11 | 2026-08-31 18:13:51 | 49.64397 | 8.58361 | 94° | 11km/h | 25154m | 5.6m/s | -50.6°C | 1.2% | 26.2hPa | 2.7V | 00:00:00 | 00:00:00 | 00:00:00 | |
| DL1XH-15 | 2026-08-31 18:13:50 | 49.64400 | 8.58344 | 133° | 9km/h | 25124m | 5.7m/s | -50.8°C | 3.9% | 26.4hPa | 2.7V | 03:33:55 | 01:44:35 | 00:00:00 | |
| DL1XH1-15 | 2026-08-31 18:13:49 | 49.64399 | 8.58347 | 120° | 9km/h | 25131m | 6.5m/s | -50.7°C | 3.9% | 26.4hPa | 2.6V | 03:33:54 | 01:44:36 | 00:00:00 | |
| AA1-15 | 2026-08-31 18:13:48 | 49.64397 | 8.58353 | 92° | 9km/h | 25141m | 5.4m/s | 0°C | 0% | 0hPa | 2.6V | 03:33:57 | 01:44:38 | 00:00:00 | |
| DL1XH-west | 2026-08-31 18:13:46 | 49.64399 | 8.58347 | 120° | 9km/h | 25131m | 6.5m/s | -50.7°C | 0.8% | 26.4hPa | 2.6V | 03:33:57 | 01:44:36 | 00:00:00 | |
| DO3MHA-11 | 2026-08-31 18:13:45 | 49.64400 | 8.58344 | 134° | 7km/h | 25125m | 5.7m/s | -50.7°C | 3.9% | 26.3hPa | 2.6V | 00:00:00 | 01:44:35 | 00:00:00 | |
| DM0DOS-11 | 2026-08-31 18:13:44 | 49.64403 | 8.58339 | 87° | 2km/h | 25107m | 5.3m/s | -50.8°C | 3.9% | 26.4hPa | 2.6V | 03:33:58 | 01:44:32 | 00:00:00 | |
| HSKMA3-T | 2026-08-31 18:13:43 | 49.64403 | 8.58340 | 140° | 5km/h | 25113m | 6.6m/s | -50.8°C | 0.8% | 26.4hPa | 2.6V | 03:33:57 | 01:44:33 | 00:00:00 | |
| DJ2DS-15 | 2026-08-31 18:13:42 | 49.64403 | 8.58339 | 88° | 9km/h | 25107m | 5.3m/s | -50.7°C | 3.9% | 26.4hPa | 2.6V | 00:00:00 | 01:44:32 | 00:00:00 | |
| DL1XH-15 | 2026-08-31 18:13:40 | 49.64398 | 8.58318 | 50° | 11km/h | 25068m | 5.5m/s | -51.1°C | 3.9% | 26.6hPa | 2.6V | 03:34:05 | 01:44:25 | 00:00:00 | |
| DL1XH1-15 | 2026-08-31 18:13:39 | 49.64400 | 8.58321 | 60° | 11km/h | 25074m | 6.4m/s | -51°C | 3.9% | 26.6hPa | 2.6V | 03:34:04 | 01:44:26 | 00:00:00 | |
| DJ2DS-15 | 2026-08-31 18:13:38 | 49.64402 | 8.58330 | 78° | 9km/h | 25086m | 5.1m/s | -51.0°C | 1.1% | 26.5hPa | 2.6V | 00:00:00 | 00:00:00 | 00:00:00 | |
| AA1-15 | 2026-08-31 18:13:38 | 49.64402 | 8.58330 | 78° | 11km/h | 25085m | 5.1m/s | 0°C | 0% | 0hPa | 2.7V | 18:12:15 | 01:44:28 | 00:00:00 | |
| DM7RM-13 | 2026-08-31 18:13:37 | 49.64401 | 8.58330 | 79° | 11km/h | 25086m | 5.1m/s | -51.0°C | 1.2% | 26.5hPa | 2.6V | 03:34:00 | 00:00:00 | 00:00:00 | |
| DL1NUX | 2026-08-31 18:13:36 | 49.64395 | 8.58307 | 75° | 5km/h | 25046m | 4.7m/s | -51.3°C | 4% | 26.7hPa | 2.6V | 03:34:09 | 01:44:21 | 00:00:00 | |
| DL1XH-west | 2026-08-31 18:13:36 | 49.64400 | 8.58321 | 60° | 11km/h | 25074m | 6.4m/s | -51.1°C | 0.8% | 26.6hPa | 2.6V | 03:34:48 | 01:44:26 | 00:00:00 | |
| DO3MHA-11 | 2026-08-31 18:13:35 | 49.64398 | 8.58318 | 51° | 7km/h | 25068m | 5.5m/s | -51.0°C | 3.9% | 26.6hPa | 2.6V | 00:00:00 | 01:44:25 | 00:00:00 | |
| DM0DOS-11 | 2026-08-31 18:13:34 | 49.64395 | 8.58309 | 84° | 7km/h | 25051m | 5.1m/s | -51.2°C | 4% | 26.7hPa | 2.6V | 03:34:08 | 01:44:22 | 00:00:00 | |
| DB0UT-9 | 2026-08-31 18:13:32 | 49.64395 | 8.58312 | 71° | 9km/h | 25057m | 6.4m/s | -51.1°C | 1.2% | 26.7hPa | 2.6V | 03:34:00 | 00:00:00 | 00:00:00 | |
| BIOWL7-15 | 2026-08-31 18:13:31 | 49.64395 | 8.58309 | 86° | 7km/h | 25051m | 5.1m/s | -51.2°C | 1.2% | 26.7hPa | 2.6V | 03:34:00 | 00:00:00 | 00:00:00 | |
| DL1XH-15 | 2026-08-31 18:13:30 | 49.64384 | 8.58291 | 44° | 16km/h | 25012m | 5m/s | -51.2°C | 4% | 26.9hPa | 2.6V | 03:34:15 | 01:44:15 | 00:00:00 | |
| DL1XH1-15 | 2026-08-31 18:13:29 | 49.64387 | 8.58295 | 47° | 15km/h | 25017m | 5.1m/s | -51.2°C | 4% | 26.8hPa | 2.6V | 03:34:14 | 01:44:16 | 00:00:00 | |
| HSKMA3-T | 2026-08-31 18:13:29 | 49.64393 | 8.58303 | 29° | 7km/h | 25034m | 5.6m/s | -51.3°C | 0.9% | 26.8hPa | 2.7V | 03:36:30 | 01:44:19 | 00:00:00 | |
| BIOWL1-15 | 2026-08-31 18:13:25 | 49.64384 | 8.58291 | 44° | 16km/h | 25012m | 5m/s | -51.2°C | 0.9% | 26.9hPa | 2.6V | 03:34:48 | 01:44:15 | 00:00:00 | |
| DM0DOS-11 | 2026-08-31 18:13:24 | 49.64373 | 8.58279 | 27° | 16km/h | 24995m | 4.6m/s | -51.2°C | 4.1% | 26.9hPa | 2.7V | 03:34:18 | 01:44:12 | 00:00:00 | |
| DJ2KF-10 | 2026-08-31 18:13:23 | 49.64377 | 8.58282 | 29° | 9km/h | 25000m | 5.5m/s | -51.1°C | 4.1% | 26.8hPa | 2.6V | 03:34:00 | 01:44:13 | 00:00:00 | |
| DJ2DS-15 | 2026-08-31 18:13:22 | 49.64373 | 8.58279 | 28° | 11km/h | 24995m | 4.6m/s | -51.2°C | 4.1% | 26.9hPa | 2.6V | 00:00:00 | 01:44:12 | 00:00:00 | |
| DL1XH-15 | 2026-08-31 18:13:20 | 49.64353 | 8.58271 | 358° | 15km/h | 24957m | 4.3m/s | -51.1°C | 3.9% | 27.1hPa | 2.6V | 03:34:25 | 01:44:05 | 00:00:00 | |
| SONDE2-11 | 2026-08-31 18:13:20 | 49.64365 | 8.58272 | 25° | 7km/h | 24978m | 4.9m/s | -51.2°C | 1.2% | 27.0hPa | 2.7V | 00:00:00 | 00:00:00 | 00:00:00 | |
| DL1XH1-15 | 2026-08-31 18:13:19 | 49.64356 | 8.58271 | 355° | 15km/h | 24962m | 4.3m/s | -51.1°C | 3.8% | 27.1hPa | 2.7V | 03:34:24 | 01:44:06 | 00:00:00 | |
| BIOWL1-15 | 2026-08-31 18:13:17 | 49.64353 | 8.58271 | 359° | 15km/h | 24957m | 4.4m/s | -51.1°C | 0.8% | 27.1hPa | 2.6V | 03:34:48 | 01:44:05 | 00:00:00 | |
| DM7RM-13 | 2026-08-31 18:13:16 | 49.64360 | 8.58271 | 359° | 13km/h | 24967m | 5.8m/s | -51.1°C | 1.2% | 27.0hPa | 2.7V | 03:34:00 | 00:00:00 | 00:00:00 | |
| DG1MJG | 2026-08-31 18:13:15 | 49.64356 | 8.58271 | 357° | 15km/h | 24962m | 4.3m/s | 0°C | 0% | 0hPa | 2.7V | 00:00:00 | 00:00:00 | 00:00:00 | |
| DM0DOS-11 | 2026-08-31 18:13:14 | 49.64344 | 8.58267 | 47° | 11km/h | 24940m | 5.5m/s | -51.1°C | 3.9% | 27.1hPa | 2.7V | 03:34:28 | 01:44:02 | 00:00:00 | |
| DL1XH-west | 2026-08-31 18:13:14 | 49.64349 | 8.58271 | 10° | 13km/h | 24952m | 5.9m/s | -51.1°C | 0.8% | 27.1hPa | 2.6V | 03:34:48 | 01:44:04 | 00:00:00 | |
| DF7PN | 2026-08-31 18:13:13 | 49.64346 | 8.58269 | 30° | 11km/h | 24946m | 6.0m/s | -51.1°C | 1.2% | -1.0hPa | 2.7V | 00:00:00 | 00:00:00 | 00:00:00 | |
| DL1NUX | 2026-08-31 18:13:13 | 49.64335 | 8.58251 | 48° | 13km/h | 24918m | 5.4m/s | -51.1°C | 4% | 27.2hPa | 2.6V | 03:34:32 | 01:43:58 | 00:00:00 | |
| DB0UT-9 | 2026-08-31 18:13:12 | 49.64344 | 8.58267 | 49° | 11km/h | 24941m | 5.5m/s | -51.1°C | 1.2% | 27.1hPa | 2.7V | 03:34:00 | 00:00:00 | 00:00:00 | |
| DO3DL | 2026-08-31 18:13:11 | 49.64342 | 8.58263 | 52° | 13km/h | 24935m | 5.7m/s | -51.1°C | 1.1% | 27.2hPa | 2.7V | 03:34:00 | 00:00:00 | 00:00:00 | |
| DL1XH-15 | 2026-08-31 18:13:10 | 49.64331 | 8.58244 | 17° | 5km/h | 24902m | 5.9m/s | -51.2°C | 4% | 27.3hPa | 2.7V | 03:34:35 | 01:43:55 | 00:00:00 | |
| DL1XH1-15 | 2026-08-31 18:13:09 | 49.64332 | 8.58245 | 54° | 5km/h | 24907m | 4.9m/s | -51.2°C | 4% | 27.3hPa | 2.7V | 03:34:34 | 01:43:56 | 00:00:00 | |
| BIOWL1-15 | 2026-08-31 18:13:06 | 49.64330 | 8.58244 | 342° | 7km/h | 24896m | 5.8m/s | -51.2°C | 0.9% | 27.4hPa | 2.6V | 03:34:48 | 01:43:54 | 00:00:00 | |
| DM0DOS-11 | 2026-08-31 18:13:04 | 49.64326 | 8.58248 | 319° | 9km/h | 24885m | 5m/s | -51.3°C | 4% | 27.4hPa | 2.6V | 03:34:38 | 01:43:52 | 00:00:00 | |
| DL1XH-west | 2026-08-31 18:13:03 | 49.64328 | 8.58246 | 328° | 9km/h | 24890m | 5.1m/s | -51.2°C | 0.9% | 27.4hPa | 2.6V | 03:34:48 | 01:43:53 | 00:00:00 | |
| DJ2DS-15 | 2026-08-31 18:13:02 | 49.64326 | 8.58247 | 320° | 4km/h | 24885m | 5.0m/s | -51.2°C | 4.0% | 27.3hPa | 2.6V | 03:34:00 | 01:43:52 | 00:00:00 | |
| DL1XH-15 | 2026-08-31 18:13:00 | 49.64321 | 8.58250 | 81° | 5km/h | 24847m | 6.2m/s | -51.4°C | 3.9% | 27.6hPa | 2.7V | 03:34:45 | 01:43:45 | 00:00:00 | |
| DO1YAY-16 | 2026-08-31 18:12:59 | 49.64324 | 8.58252 | 309° | 2km/h | 24869m | 4.7m/s | -51.4°C | 1.2% | 27.4hPa | 2.6V | 00:00:00 | 00:00:00 | 00:00:00 | |
| SONCRA | 2026-08-31 18:12:56 | 49.64321 | 8.58250 | 81° | 4km/h | 24847m | 6.2m/s | -51.4°C | 1.1% | 27.6hPa | 2.6V | 00:00:00 | 00:00:00 | 00:00:00 | |
| DF3TZ-5 | 2026-08-31 18:12:55 | 49.64321 | 8.58247 | 113° | 5km/h | 24841m | 5.7m/s | -51.5°C | 1.2% | 27.6hPa | 2.6V | 00:00:00 | 00:00:00 | 00:00:00 | |
| DM0DOS-11 | 2026-08-31 18:12:54 | 49.64323 | 8.58243 | 113° | 5km/h | 24831m | 5.8m/s | -51.7°C | 4% | 27.6hPa | 2.6V | 03:34:48 | 01:43:42 | 00:00:00 | |
| BIOWL1-15 | 2026-08-31 18:12:54 | 49.64321 | 8.58247 | 113° | 7km/h | 24841m | 5.7m/s | -51.5°C | 0.8% | 27.6hPa | 2.7V | 03:34:48 | 01:43:44 | 00:00:00 | |
| DL1XH-west | 2026-08-31 18:12:52 | 49.64323 | 8.58243 | 113° | 5km/h | 24831m | 5.9m/s | -51.7°C | 0.9% | 27.6hPa | 2.6V | 03:34:48 | 01:43:42 | 00:00:00 | |
| DK5PH-5 | 2026-08-31 18:12:52 | 49.64323 | 8.58243 | 114° | 4km/h | 24831m | 5.8m/s | -51.6°C | 4.0% | 27.5hPa | 2.6V | 00:00:00 | 01:43:42 | 00:00:00 | |
| DL1XH1-15 | 2026-08-31 18:12:51 | 49.64323 | 8.58240 | 14° | 0km/h | 24798m | 5.3m/s | -51.8°C | 4.1% | 27.8hPa | 2.6V | 03:34:54 | 01:43:36 | 00:00:00 | |
| SONDE2-11 | 2026-08-31 18:12:49 | 49.64323 | 8.58240 | 183° | 0km/h | 24809m | 5.8m/s | -51.7°C | 1.2% | 27.7hPa | 2.6V | 00:00:00 | 00:00:00 | 00:00:00 | |
| DJ2KF-10 | 2026-08-31 18:12:48 | 49.64323 | 8.58240 | 184° | 5km/h | 24809m | 5.7m/s | -51.7°C | 4.2% | 27.6hPa | 2.6V | 00:00:00 | 01:43:38 | 00:00:00 | |
| DM0DOS-11 | 2026-08-31 18:12:47 | 49.64318 | 8.58239 | 10° | 5km/h | 24776m | 5.6m/s | -51.8°C | 4.1% | 27.8hPa | 2.6V | 03:34:58 | 01:43:32 | 00:00:00 | |
| HTAHTA | 2026-08-31 18:12:47 | 49.64323 | 8.58240 | 6° | 4km/h | 24792m | 6.6m/s | -51.8°C | 1.2% | 27.8hPa | 2.7V | 00:00:00 | 00:00:00 | 00:00:00 | |
| KANTATE | 2026-08-31 18:12:46 | 49.64323 | 8.58240 | 0° | 0km/h | 24803m | 4.8m/s | -51.8°C | 1.3% | 27.7hPa | 2.7V | 00:00:00 | 00:00:00 | 00:00:00 | |
| DL1NUX | 2026-08-31 18:12:44 | 49.64315 | 8.58240 | 306° | 4km/h | 24759m | 6.4m/s | -51.9°C | 4% | 27.9hPa | 2.7V | 03:35:01 | 01:43:29 | 00:00:00 | |
| BIOWL1-15 | 2026-08-31 18:12:43 | 49.64319 | 8.58239 | 7° | 7km/h | 24781m | 4.6m/s | -51.8°C | 1% | 27.8hPa | 2.7V | 03:35:39 | 01:43:33 | 00:00:00 | |
| DL1XH-west | 2026-08-31 18:12:41 | 49.64316 | 8.58239 | 358° | 2km/h | 24771m | 5.7m/s | -51.8°C | 0.9% | 27.9hPa | 2.6V | 03:35:39 | 01:43:31 | 00:00:00 | |
| DL1XH-15 | 2026-08-31 18:12:40 | 49.64314 | 8.58247 | 237° | 5km/h | 24737m | 5.7m/s | -52°C | 4% | 28hPa | 2.6V | 03:35:05 | 01:43:25 | 00:00:00 | |
| HSKMA3-T | 2026-08-31 18:12:39 | 49.64316 | 8.58240 | 306° | 4km/h | 24759m | 6.4m/s | -51.9°C | 0.9% | 27.9hPa | 2.7V | 03:36:30 | 01:43:29 | 00:00:00 | |
| DO3DL | 2026-08-31 18:12:38 | 49.64315 | 8.58240 | 307° | 4km/h | 24760m | 6.4m/s | -51.9°C | 1.2% | 27.9hPa | 2.7V | 03:35:00 | 00:00:00 | 00:00:00 | |
| DM0DOS-11 | 2026-08-31 18:12:37 | 49.64315 | 8.58250 | 285° | 2km/h | 24719m | 5m/s | -52°C | 4.1% | 28.1hPa | 2.7V | 03:35:08 | 01:43:22 | 00:00:00 | |
| BIOWL1-15 | 2026-08-31 18:12:32 | 49.64315 | 8.58250 | 285° | 2km/h | 24719m | 5m/s | -52°C | 1% | 28.1hPa | 2.7V | 03:35:39 | 01:43:22 | 00:00:00 | |
| DL1XH1-15 | 2026-08-31 18:12:31 | 49.64320 | 8.58252 | 264° | 4km/h | 24686m | 6.1m/s | -52°C | 4% | 28.2hPa | 2.6V | 03:35:14 | 01:43:16 | 00:00:00 | |
| DL1XH-west | 2026-08-31 18:12:30 | 49.64316 | 8.58251 | 177° | 2km/h | 24709m | 6m/s | -52°C | 1% | 28.1hPa | 2.6V | 03:35:39 | 01:43:20 | 00:00:00 | |
| HSKMA3-T | 2026-08-31 18:12:28 | 49.64318 | 8.58251 | 188° | 5km/h | 24698m | 5m/s | -52°C | 1% | 28.2hPa | 2.7V | 03:36:30 | 01:43:18 | 00:00:00 | |
| DM0DOS-11 | 2026-08-31 18:12:27 | 49.64321 | 8.58260 | 233° | 7km/h | 24665m | 4.5m/s | -52.1°C | 4.1% | 28.3hPa | 2.7V | 03:35:18 | 01:43:12 | 00:00:00 | |
| BIOWL1-15 | 2026-08-31 18:12:23 | 49.64322 | 8.58262 | 242° | 7km/h | 24660m | 6.1m/s | -52.1°C | 1% | 28.3hPa | 2.7V | 03:35:39 | 01:43:11 | 00:00:00 | |
| DO3MHA-11 | 2026-08-31 18:12:23 | 49.64320 | 8.58257 | 236° | 9km/h | 24671m | 5.6m/s | -52.1°C | 4.1% | 28.2hPa | 2.7V | 00:00:00 | 01:43:13 | 00:00:00 | |
| DJ2DS-15 | 2026-08-31 18:12:22 | 49.64321 | 8.58260 | 234° | 7km/h | 24666m | 4.5m/s | -52.1°C | 4.1% | 28.3hPa | 2.7V | 00:00:00 | 01:43:12 | 00:00:00 | |
| DL1XH1-15 | 2026-08-31 18:12:21 | 49.64330 | 8.58274 | 190° | 13km/h | 24631m | 5m/s | -52.1°C | 4.1% | 28.5hPa | 2.7V | 03:35:24 | 01:43:06 | 00:00:00 | |
| DL1XH-15 | 2026-08-31 18:12:20 | 49.64334 | 8.58275 | 185° | 13km/h | 24627m | 5m/s | -52.2°C | 4.1% | 28.5hPa | 2.6V | 03:35:25 | 01:43:05 | 00:00:00 | |
| DL1XH-west | 2026-08-31 18:12:19 | 49.64324 | 8.58268 | 245° | 9km/h | 24649m | 5.1m/s | -52.1°C | 1% | 28.4hPa | 2.6V | 03:35:39 | 01:43:09 | 00:00:00 | |
| SO1NDE-10 | 2026-08-31 18:12:19 | 49.64324 | 8.58268 | 246° | 9km/h | 24649m | 5.1m/s | -52.1°C | 4.1% | 28.4hPa | 2.6V | 00:00:00 | 01:43:09 | 00:00:00 | |
| DB0ND-19 | 2026-08-31 18:12:18 | 49.64325 | 8.58271 | 224° | 9km/h | 24643m | 5.5m/s | -52.1°C | 1.2% | 28.4hPa | 2.7V | 00:00:00 | 00:00:00 | 00:00:00 | |
| DM0DOS-11 | 2026-08-31 18:12:17 | 49.64340 | 8.58276 | 180° | 5km/h | 24610m | 5.4m/s | -52.3°C | 4% | 28.6hPa | 2.7V | 03:35:28 | 01:43:02 | 00:00:00 | |
| HSKMA3-T | 2026-08-31 18:12:13 | 49.64338 | 8.58276 | 188° | 7km/h | 24615m | 4.9m/s | -52.3°C | 1% | 28.6hPa | 2.6V | 03:36:30 | 01:43:03 | 00:00:00 | |
| DO3MHA-11 | 2026-08-31 18:12:13 | 49.64338 | 8.58276 | 188° | 5km/h | 24616m | 4.9m/s | -52.3°C | 4.1% | 28.5hPa | 2.7V | 00:00:00 | 01:43:03 | 00:00:00 | |
| SFWM-10 | 2026-08-31 18:12:12 | 49.64338 | 8.58276 | 189° | 7km/h | 24616m | 4.9m/s | -52.3°C | 1.2% | 28.6hPa | 2.7V | 03:35:00 | 00:00:00 | 00:00:00 | |
| DL1XH1-15 | 2026-08-31 18:12:11 | 49.64348 | 8.58275 | 238° | 2km/h | 24576m | 5.4m/s | -52.6°C | 4.2% | 28.7hPa | 2.7V | 03:35:34 | 01:42:56 | 00:00:00 | |
| BIOWL1-15 | 2026-08-31 18:12:10 | 49.64343 | 8.58275 | 169° | 7km/h | 24598m | 5.6m/s | -52.4°C | 0.9% | 28.6hPa | 2.7V | 03:35:39 | 01:43:00 | 00:00:00 | |
| DL1XH-west | 2026-08-31 18:12:09 | 49.64345 | 8.58275 | 168° | 7km/h | 24593m | 4.7m/s | -52.4°C | 1% | 28.6hPa | 2.6V | 03:35:39 | 01:42:59 | 00:00:00 | |
| DL1ZP-14 | 2026-08-31 18:12:08 | 49.64346 | 8.58275 | 177° | 5km/h | 24588m | 5.4m/s | -52.5°C | 1.2% | 28.7hPa | 2.6V | 00:00:00 | 00:00:00 | 00:00:00 | |
| DB0UT-7 | 2026-08-31 18:12:07 | 49.64347 | 8.58275 | 204° | 9km/h | 24582m | 6.2m/s | -52.5°C | 4.1% | 28.7hPa | 2.6V | 03:35:00 | 01:42:57 | 00:00:00 | |
| DB0UT-9 | 2026-08-31 18:12:06 | 49.64347 | 8.58275 | 205° | 4km/h | 24582m | 6.2m/s | -52.6°C | 1.3% | 28.7hPa | 2.6V | 03:35:00 | 00:00:00 | 00:00:00 | |
| DO3DL | 2026-08-31 18:12:05 | 49.64348 | 8.58275 | 240° | 2km/h | 24577m | 5.4m/s | -52.6°C | 1.3% | 28.7hPa | 2.6V | 03:35:00 | 00:00:00 | 00:00:00 | |
| KANTATE | 2026-08-31 18:12:04 | 49.64348 | 8.58276 | 204° | 4km/h | 24571m | 5.4m/s | -52.6°C | 1.2% | 28.7hPa | 2.6V | 00:00:00 | 00:00:00 | 00:00:00 | |
| DO3MHA-11 | 2026-08-31 18:12:03 | 49.64351 | 8.58275 | 162° | 15km/h | 24560m | 4.9m/s | -52.7°C | 4.3% | 28.8hPa | 2.6V | 03:35:00 | 01:42:53 | 00:00:00 | |
| DL1NUX | 2026-08-31 18:12:02 | 49.64365 | 8.58253 | 130° | 20km/h | 24526m | 5m/s | -52.8°C | 4.3% | 28.9hPa | 2.6V | 03:35:43 | 01:42:47 | 00:00:00 | |
| DJ2DS-15 | 2026-08-31 18:12:02 | 49.64353 | 8.58274 | 149° | 11km/h | 24554m | 5.6m/s | -52.7°C | 4.2% | 28.8hPa | 2.6V | 00:00:00 | 01:42:52 | 00:00:00 | |
| DL1XH1-15 | 2026-08-31 18:12:01 | 49.64368 | 8.58247 | 127° | 18km/h | 24521m | 5.2m/s | -52.8°C | 4.2% | 29hPa | 2.6V | 03:35:44 | 01:42:46 | 00:00:00 | |
| BIOWL1-15 | 2026-08-31 18:11:59 | 49.64359 | 8.58264 | 128° | 15km/h | 24538m | 5.7m/s | -52.8°C | 1% | 28.9hPa | 2.7V | 03:36:30 | 01:42:49 | 00:00:00 | |
| DL1XH-west | 2026-08-31 18:11:58 | 49.64362 | 8.58259 | 131° | 18km/h | 24532m | 6.3m/s | -52.8°C | 1% | 28.9hPa | 2.6V | 03:36:30 | 01:42:48 | 00:00:00 | |
| HSKMA3-T | 2026-08-31 18:11:54 | 49.64372 | 8.58238 | 104° | 11km/h | 24509m | 5.4m/s | -52.8°C | 1% | 29hPa | 2.7V | 03:36:30 | 01:42:44 | 00:00:00 | |
| SONCRA | 2026-08-31 18:11:54 | 49.64372 | 8.58234 | 92° | 5km/h | 24504m | 4.5m/s | -52.8°C | 1.3% | 29.0hPa | 2.6V | 00:00:00 | 00:00:00 | 00:00:00 | |
| DF3TZ-5 | 2026-08-31 18:11:53 | 49.64372 | 8.58232 | 101° | 4km/h | 24499m | 5.9m/s | -52.8°C | 1.3% | 29.1hPa | 2.6V | 00:00:00 | 00:00:00 | 00:00:00 | |
| DK5PH-5 | 2026-08-31 18:11:52 | 49.64372 | 8.58232 | 102° | 9km/h | 24499m | 5.9m/s | -52.7°C | 4.3% | 29.0hPa | 2.6V | 03:35:00 | 01:42:42 | 00:00:00 | |
| DL1NUX | 2026-08-31 18:11:51 | 49.64376 | 8.58226 | 133° | 9km/h | 24465m | 6.8m/s | -52.9°C | 4.2% | 29.2hPa | 2.6V | 03:35:54 | 01:42:36 | 00:00:00 | |
| BIOWL1-15 | 2026-08-31 18:11:49 | 49.64374 | 8.58230 | 181° | 2km/h | 24482m | 6.6m/s | -52.8°C | 0.9% | 29.1hPa | 2.7V | 03:36:30 | 01:42:39 | 00:00:00 | |
| DL1XH-west | 2026-08-31 18:11:47 | 49.64375 | 8.58229 | 128° | 5km/h | 24471m | 4.6m/s | -52.9°C | 1% | 29.2hPa | 2.6V | 03:36:30 | 01:42:37 | 00:00:00 | |
| SONDE2-11 | 2026-08-31 18:11:47 | 49.64376 | 8.58226 | 133° | 9km/h | 24465m | 6.8m/s | -52.9°C | 1.2% | 29.2hPa | 2.7V | 00:00:00 | 00:00:00 | 00:00:00 | |
| HSKMA3-T | 2026-08-31 18:11:43 | 49.64383 | 8.58212 | 114° | 16km/h | 24447m | 6.5m/s | -53°C | 1.1% | 29.3hPa | 2.7V | 03:36:30 | 01:42:33 | 00:00:00 | |
| DO3MHA-11 | 2026-08-31 18:11:43 | 49.64383 | 8.58212 | 114° | 11km/h | 24447m | 6.5m/s | -53.0°C | 4.3% | 29.3hPa | 2.6V | 00:00:00 | 01:42:33 | 00:00:00 | |
| DJ2DS-15 | 2026-08-31 18:11:42 | 49.64384 | 8.58206 | 105° | 11km/h | 24441m | 4.7m/s | -53.0°C | 4.4% | 29.3hPa | 2.6V | 03:35:00 | 01:42:32 | 00:00:00 | |
| DL1NUX | 2026-08-31 18:11:41 | 49.64391 | 8.58180 | 91° | 4km/h | 24409m | 6.4m/s | -53.3°C | 4.3% | 29.5hPa | 2.6V | 03:36:04 | 01:42:26 | 00:00:00 | |
| BIOWL1-15 | 2026-08-31 18:11:40 | 49.64389 | 8.58185 | 122° | 11km/h | 24420m | 4.9m/s | -53.2°C | 1.1% | 29.4hPa | 2.7V | 03:36:30 | 01:42:28 | 00:00:00 | |
| DL1XH-west | 2026-08-31 18:11:37 | 49.64390 | 8.58182 | 118° | 7km/h | 24415m | 5.6m/s | -53.3°C | 1.1% | 29.4hPa | 2.7V | 03:36:30 | 01:42:27 | 00:00:00 | |
| HSKMA3-T | 2026-08-31 18:11:33 | 49.64390 | 8.58176 | 116° | 5km/h | 24392m | 6.2m/s | -53.3°C | 1.1% | 29.6hPa | 2.7V | 03:36:30 | 01:42:23 | 00:00:00 | |
| DO3MHA-11 | 2026-08-31 18:11:33 | 49.64390 | 8.58176 | 117° | 11km/h | 24392m | 6.2m/s | -53.3°C | 4.3% | 29.5hPa | 2.7V | 00:00:00 | 01:42:23 | 00:00:00 | |
| DM7RM-13 | 2026-08-31 18:11:32 | 49.64390 | 8.58176 | 117° | 5km/h | 24392m | 6.2m/s | -53.3°C | 1.3% | 29.6hPa | 2.7V | 03:36:00 | 00:00:00 | 00:00:00 | |
| DL8DAS-14 | 2026-08-31 18:11:31 | 49.64393 | 8.58168 | 106° | 9km/h | 24375m | 5.8m/s | -53.3°C | 1.3% | 29.7hPa | 2.7V | 00:00:00 | 00:00:00 | 00:00:00 | |
| DL1XH-15 | 2026-08-31 18:11:27 | 49.64408 | 8.58144 | 206° | 4km/h | 24331m | 4.8m/s | -53.4°C | 4.5% | 29.8hPa | 2.7V | 03:36:18 | 01:42:12 | 00:00:00 | |
| DL1XH1-15 | 2026-08-31 18:11:27 | 49.64401 | 8.58150 | 140° | 16km/h | 24353m | 4.6m/s | -53.4°C | 4.4% | 29.7hPa | 2.7V | 03:36:14 | 01:42:16 | 00:00:00 | |
| DL1XH-west | 2026-08-31 18:11:27 | 49.64398 | 8.58155 | 133° | 16km/h | 24358m | 5.7m/s | -53.4°C | 1.1% | 29.7hPa | 2.7V | 03:36:30 | 01:42:17 | 00:00:00 | |
| AA1-15 | 2026-08-31 18:11:26 | 49.64401 | 8.58150 | 141° | 16km/h | 24353m | 4.6m/s | 0°C | 0% | 0hPa | 2.7V | 18:12:15 | 01:42:16 | 00:00:00 | |
| HSKMA3-T | 2026-08-31 18:11:22 | 49.64408 | 8.58144 | 207° | 4km/h | 24331m | 4.8m/s | -53.4°C | 1.2% | 29.8hPa | 2.7V | 03:36:30 | 01:42:12 | 00:00:00 | |
| DJ2DS-15 | 2026-08-31 18:11:22 | 49.64408 | 8.58143 | 207° | 9km/h | 24332m | 4.7m/s | -53.4°C | 4.5% | 29.8hPa | 2.6V | 00:00:00 | 01:42:12 | 00:00:00 | |
| DL8DAS-15 | 2026-08-31 18:11:21 | 49.64408 | 8.58143 | 208° | 4km/h | 24332m | 4.8m/s | -53.4°C | 1.4% | 29.8hPa | 2.6V | 00:00:00 | 00:00:00 | 00:00:00 | |
| DF1GD-15 | 2026-08-31 18:11:20 | 49.64409 | 8.58144 | 218° | 4km/h | 24326m | 6.2m/s | -53.4°C | 1.4% | 29.9hPa | 2.6V | 03:36:00 | 00:00:00 | 00:00:00 | |
| DL1NUX | 2026-08-31 18:11:19 | 49.64417 | 8.58141 | 158° | 11km/h | 24289m | 6.3m/s | -53.3°C | 4.5% | 30.1hPa | 2.6V | 03:36:26 | 01:42:04 | 00:00:00 | |
| BIOWL1-15 | 2026-08-31 18:11:18 | 49.64414 | 8.58145 | 136° | 5km/h | 24299m | 4m/s | -53.3°C | 1.1% | 30hPa | 2.7V | 03:36:30 | 01:42:06 | 00:00:00 | |
| DL1XH1-15 | 2026-08-31 18:11:18 | 49.64414 | 8.58145 | 136° | 5km/h | 24299m | 4m/s | -53.3°C | 4.4% | 30hPa | 2.7V | 03:36:24 | 01:42:06 | 00:00:00 | |
| DM0DOS-11 | 2026-08-31 18:11:17 | 49.64423 | 8.58139 | 170° | 13km/h | 24278m | 5.2m/s | -53.3°C | 4.5% | 30.1hPa | 2.6V | 03:36:28 | 01:42:02 | 00:00:00 | |
| DL1XH-west | 2026-08-31 18:11:17 | 49.64413 | 8.58146 | 141° | 4km/h | 24304m | 5.4m/s | -53.4°C | 1.2% | 30hPa | 2.7V | 03:36:30 | 01:42:07 | 00:00:00 | |
| HSKMA3-T | 2026-08-31 18:11:12 | 49.64423 | 8.58139 | 171° | 13km/h | 24278m | 5.3m/s | -53.3°C | 1.1% | 30.1hPa | 2.6V | 03:36:30 | 01:42:02 | 00:00:00 | |
| DO3DL | 2026-08-31 18:11:11 | 49.64423 | 8.58139 | 172° | 13km/h | 24278m | 5.3m/s | -53.3°C | 1.3% | 30.1hPa | 2.7V | 03:36:00 | 00:00:00 | 00:00:00 | |
| SFWM-10 | 2026-08-31 18:11:09 | 49.64429 | 8.58138 | 194° | 9km/h | 24267m | 4.2m/s | -53.3°C | 1.4% | 30.2hPa | 2.7V | 03:36:00 | 00:00:00 | 00:00:00 | |
| DL1XH1-15 | 2026-08-31 18:11:07 | 49.64439 | 8.58147 | 212° | 15km/h | 24246m | 5m/s | -53.2°C | 4.4% | 30.2hPa | 2.7V | 03:36:34 | 01:41:56 | 00:00:00 | |
| DL1NUX | 2026-08-31 18:11:07 | 49.64447 | 8.58152 | 173° | 7km/h | 24224m | 5.7m/s | -53.1°C | 4.4% | 30.3hPa | 2.6V | 03:36:38 | 01:41:52 | 00:00:00 | |
| BIOWL1-15 | 2026-08-31 18:11:07 | 49.64442 | 8.58150 | 212° | 11km/h | 24240m | 6.2m/s | -53.2°C | 1.1% | 30.3hPa | 2.7V | 03:37:21 | 01:41:55 | 00:00:00 | |
| DL1XH-west | 2026-08-31 18:11:06 | 49.64439 | 8.58147 | 212° | 15km/h | 24246m | 5.1m/s | -53.2°C | 1.1% | 30.2hPa | 2.7V | 03:37:21 | 01:41:56 | 00:00:00 | |
| HSKMA3-T | 2026-08-31 18:11:02 | 49.64447 | 8.58152 | 173° | 7km/h | 24224m | 5.7m/s | -53.2°C | 1.1% | 30.3hPa | 2.6V | 03:38:12 | 01:41:52 | 00:00:00 | |
| DL8DAS-14 | 2026-08-31 18:11:00 | 49.64454 | 8.58151 | 171° | 9km/h | 24208m | 5.1m/s | -53.1°C | 1.3% | 30.4hPa | 2.6V | 00:00:00 | 00:00:00 | 00:00:00 | |
| KANTATE | 2026-08-31 18:10:59 | 49.64451 | 8.58151 | 173° | 11km/h | 24213m | 4.6m/s | -53.1°C | 1.3% | 30.4hPa | 2.6V | 03:37:00 | 00:00:00 | 00:00:00 | |
| DL1XH-15 | 2026-08-31 18:10:58 | 49.64474 | 8.58157 | 183° | 15km/h | 24171m | 6.1m/s | -52.9°C | 4.4% | 30.6hPa | 2.6V | 03:36:48 | 01:41:42 | 00:00:00 | |
| DL1XH1-15 | 2026-08-31 18:10:58 | 49.64460 | 8.58151 | 200° | 9km/h | 24193m | 4.7m/s | -53°C | 4.3% | 30.5hPa | 2.6V | 03:36:44 | 01:41:46 | 00:00:00 | |
| BIOWL1-15 | 2026-08-31 18:10:57 | 49.64463 | 8.58153 | 204° | 13km/h | 24187m | 6.3m/s | -53°C | 1.1% | 30.5hPa | 2.7V | 03:37:21 | 01:41:45 | 00:00:00 | |
| DL1XH-west | 2026-08-31 18:10:56 | 49.64460 | 8.58151 | 201° | 9km/h | 24193m | 4.7m/s | -53°C | 1% | 30.5hPa | 2.6V | 03:37:21 | 01:41:46 | 00:00:00 | |
| BIOWL1-15 | 2026-08-31 18:10:49 | 49.64499 | 8.58146 | 161° | 9km/h | 24133m | 5.6m/s | -52.9°C | 1.1% | 30.8hPa | 2.6V | 03:37:21 | 01:41:35 | 00:00:00 | |
| DL1XH-15 | 2026-08-31 18:10:47 | 49.64506 | 8.58146 | 189° | 13km/h | 24117m | 5.7m/s | -52.9°C | 4.3% | 30.9hPa | 2.7V | 03:36:58 | 01:41:32 | 00:00:00 | |
| DL1XH1-15 | 2026-08-31 18:10:47 | 49.64497 | 8.58147 | 162° | 13km/h | 24139m | 6.1m/s | -53°C | 4.5% | 30.8hPa | 2.6V | 03:36:54 | 01:41:36 | 00:00:00 | |
| DL1XH-west | 2026-08-31 18:10:46 | 49.64497 | 8.58147 | 162° | 13km/h | 24139m | 6.1m/s | -53°C | 1.2% | 30.8hPa | 2.6V | 03:37:21 | 01:41:36 | 00:00:00 | |
| HSKMA3-T | 2026-08-31 18:10:39 | 49.64518 | 8.58147 | 172° | 16km/h | 24101m | 6.1m/s | -52.8°C | 1.1% | 30.9hPa | 2.6V | 03:38:12 | 01:41:29 | 00:00:00 | |
| DJ2DS-15 | 2026-08-31 18:10:38 | 49.64526 | 8.58143 | 158° | 18km/h | 24090m | 5.4m/s | -52.8°C | 1.3% | 31.0hPa | 2.7V | 00:00:00 | 00:00:00 | 00:00:00 | |
| DL1XH-15 | 2026-08-31 18:10:37 | 49.64548 | 8.58123 | 131° | 16km/h | 24064m | 4.5m/s | -52.8°C | 4.3% | 31.1hPa | 2.7V | 03:37:08 | 01:41:22 | 00:00:00 | |
| DL1XH1-15 | 2026-08-31 18:10:37 | 49.64531 | 8.58140 | 158° | 22km/h | 24084m | 6.1m/s | -52.8°C | 4.2% | 31hPa | 2.6V | 03:37:04 | 01:41:26 | 00:00:00 | |
| DL1XH-west | 2026-08-31 18:10:35 | 49.64537 | 8.58136 | 155° | 22km/h | 24079m | 4.3m/s | -52.8°C | 1% | 31hPa | 2.6V | 03:37:21 | 01:41:25 | 00:00:00 | |
| BIOWL1-15 | 2026-08-31 18:10:34 | 49.64541 | 8.58132 | 148° | 22km/h | 24075m | 5.2m/s | -52.8°C | 1% | 31.1hPa | 2.6V | 03:37:21 | 01:41:24 | 00:00:00 | |
| DO3MHA-11 | 2026-08-31 18:10:33 | 49.64545 | 8.58128 | 139° | 15km/h | 24069m | 5.9m/s | -52.7°C | 4.3% | 31.1hPa | 2.7V | 03:37:00 | 01:41:23 | 00:00:00 | |
| DL8DAS-15 | 2026-08-31 18:10:32 | 49.64545 | 8.58128 | 140° | 18km/h | 24069m | 5.9m/s | -52.8°C | 1.3% | 31.1hPa | 2.7V | 00:00:00 | 00:00:00 | 00:00:00 | |
| DL1XH1-15 | 2026-08-31 18:10:31 | 49.64568 | 8.58115 | 177° | 15km/h | 24033m | 5.3m/s | -52.7°C | 4.4% | 31.3hPa | 2.7V | 03:37:14 | 01:41:16 | 00:00:00 | |
| DL1XH-west | 2026-08-31 18:10:24 | 49.64575 | 8.58113 | 167° | 16km/h | 24023m | 4.8m/s | -52.7°C | 1.1% | 31.3hPa | 2.6V | 03:37:21 | 01:41:14 | 00:00:00 | |
| DO3MHA-11 | 2026-08-31 18:10:23 | 49.64579 | 8.58111 | 169° | 20km/h | 24018m | 6.0m/s | -52.6°C | 4.3% | 31.3hPa | 2.7V | 00:00:00 | 01:41:13 | 00:00:00 | |
| DJ2DS-15 | 2026-08-31 18:10:22 | 49.64584 | 8.58110 | 170° | 20km/h | 24012m | 5.4m/s | -52.7°C | 4.3% | 31.4hPa | 2.7V | 03:37:00 | 01:41:12 | 00:00:00 | |
| DL1XH1-15 | 2026-08-31 18:10:21 | 49.64614 | 8.58081 | 142° | 20km/h | 23980m | 5.7m/s | -52.8°C | 4.2% | 31.5hPa | 2.7V | 03:37:24 | 01:41:06 | 00:00:00 | |
| SONCRA | 2026-08-31 18:10:20 | 49.64595 | 8.58104 | 153° | 24km/h | 24001m | 6.3m/s | -52.8°C | 1.3% | 31.4hPa | 2.6V | 00:00:00 | 00:00:00 | 00:00:00 | |
| DF1GD-15 | 2026-08-31 18:10:19 | 49.64600 | 8.58099 | 143° | 26km/h | 23995m | 5.1m/s | -52.7°C | 1.3% | 31.5hPa | 2.6V | 03:37:00 | 00:00:00 | 00:00:00 | |
| KANTATE | 2026-08-31 18:10:18 | 49.64600 | 8.58099 | 143° | 26km/h | 23995m | 5.1m/s | -52.7°C | 1.3% | 31.5hPa | 2.6V | 03:37:00 | 00:00:00 | 00:00:00 | |
| DL1XH-15 | 2026-08-31 18:10:17 | 49.64625 | 8.58067 | 127° | 15km/h | 23958m | 5m/s | -52.7°C | 4.3% | 31.6hPa | 2.6V | 03:37:28 | 01:41:02 | 00:00:00 | |
| BIOWL1-15 | 2026-08-31 18:10:13 | 49.64623 | 8.58071 | 137° | 13km/h | 23964m | 6.4m/s | -52.8°C | 1.1% | 31.6hPa | 2.6V | 03:38:12 | 01:41:03 | 00:00:00 | |
| DO3MHA-11 | 2026-08-31 18:10:13 | 49.64623 | 8.58071 | 137° | 20km/h | 23964m | 6.4m/s | -52.7°C | 4.2% | 31.5hPa | 2.6V | 00:00:00 | 01:41:03 | 00:00:00 | |
| DO3DL | 2026-08-31 18:10:12 | 49.64623 | 8.58071 | 138° | 13km/h | 23964m | 6.4m/s | -52.8°C | 1.3% | 31.6hPa | 2.6V | 03:38:00 | 00:00:00 | 00:00:00 | |
| DJ2KF-10 | 2026-08-31 18:10:11 | 49.64627 | 8.58062 | 130° | 20km/h | 23954m | 4.4m/s | -52.7°C | 4.3% | 31.6hPa | 2.6V | 00:00:00 | 01:41:01 | 00:00:00 | |
| DL0LBS | 2026-08-31 18:10:10 | 49.64627 | 8.58062 | 131° | 15km/h | 23954m | 4.5m/s | -52.7°C | 1.3% | 31.7hPa | 2.6V | 03:38:00 | 00:00:00 | 00:00:00 | |
| DL1XH-15 | 2026-08-31 18:10:08 | 49.64659 | 8.58001 | 130° | 22km/h | 23906m | 4.8m/s | -52.9°C | 4.2% | 31.9hPa | 2.6V | 03:37:38 | 01:40:52 | 00:00:00 | |
| HSKMA3-T | 2026-08-31 18:10:07 | 49.64640 | 8.58042 | 127° | 24km/h | 23932m | 6.4m/s | -52.7°C | 1.1% | 31.8hPa | 2.6V | 03:38:12 | 01:40:57 | 00:00:00 | |
| BIOWL1-15 | 2026-08-31 18:10:03 | 49.64655 | 8.58008 | 129° | 24km/h | 23912m | 5.3m/s | -52.8°C | 1% | 31.9hPa | 2.6V | 03:38:12 | 01:40:53 | 00:00:00 | |
| DL1XH-west | 2026-08-31 18:10:02 | 49.64659 | 8.58001 | 130° | 22km/h | 23907m | 4.8m/s | -52.9°C | 1% | 31.9hPa | 2.6V | 03:38:12 | 01:40:52 | 00:00:00 | |
| DJ2DS-15 | 2026-08-31 18:10:02 | 49.64662 | 8.57995 | 124° | 18km/h | 23902m | 5.3m/s | -52.9°C | 1.2% | 31.9hPa | 2.6V | 00:00:00 | 00:00:00 | 00:00:00 | |
| DL1NUX | 2026-08-31 18:10:01 | 49.64668 | 8.57967 | 110° | 13km/h | 23874m | 4.3m/s | -53°C | 4.2% | 32hPa | 2.6V | 03:37:44 | 01:40:46 | 00:00:00 | |
| DL8DAS-14 | 2026-08-31 18:09:58 | 49.64667 | 8.57972 | 107° | 11km/h | 23880m | 5.9m/s | -53.0°C | 1.3% | 32.0hPa | 2.6V | 00:00:00 | 00:00:00 | 00:00:00 | |
| DM0DOS-11 | 2026-08-31 18:09:57 | 49.64674 | 8.57941 | 112° | 22km/h | 23854m | 5.2m/s | -53.1°C | 4.4% | 32.1hPa | 2.6V | 03:37:48 | 01:40:42 | 00:00:00 | |
| DL1XH-15 | 2026-08-31 18:09:56 | 49.64676 | 8.57934 | 117° | 22km/h | 23848m | 5.8m/s | -53.1°C | 4.5% | 32.2hPa | 2.6V | 03:37:49 | 01:40:41 | 00:00:00 | |
| DB0NH | 2026-08-31 18:09:55 | 49.64669 | 8.57962 | 109° | 20km/h | 23870m | 5.0m/s | -52.9°C | 4.3% | 32.0hPa | 2.6V | 00:00:00 | 01:40:45 | 00:00:00 | |
| DL8DAS-15 | 2026-08-31 18:09:54 | 49.64671 | 8.57956 | 108° | 18km/h | 23864m | 5.8m/s | -53.0°C | 1.3% | 32.1hPa | 2.6V | 03:38:00 | 00:00:00 | 00:00:00 | |
| DO3MHA-11 | 2026-08-31 18:09:53 | 49.64672 | 8.57949 | 108° | 22km/h | 23859m | 4.7m/s | -53.0°C | 4.3% | 32.1hPa | 2.6V | 03:37:00 | 01:40:43 | 00:00:00 | |
| BIOWL1-15 | 2026-08-31 18:09:53 | 49.64672 | 8.57949 | 108° | 22km/h | 23859m | 4.7m/s | -53.1°C | 1.1% | 32.1hPa | 2.7V | 03:38:12 | 01:40:43 | 00:00:00 | |
| DK5PH-5 | 2026-08-31 18:09:52 | 49.64674 | 8.57941 | 113° | 18km/h | 23854m | 5.2m/s | -53.1°C | 4.4% | 32.1hPa | 2.6V | 03:37:00 | 01:40:42 | 00:00:00 | |
| DL1NUX | 2026-08-31 18:09:51 | 49.64687 | 8.57892 | 101° | 24km/h | 23822m | 5.4m/s | -53°C | 4.4% | 32.3hPa | 2.6V | 03:37:54 | 01:40:36 | 00:00:00 | |
| DL1XH-west | 2026-08-31 18:09:51 | 49.64676 | 8.57934 | 117° | 22km/h | 23848m | 5.8m/s | -53.1°C | 1.2% | 32.2hPa | 2.6V | 03:38:12 | 01:40:41 | 00:00:00 | |
| HSKMA3-T | 2026-08-31 18:09:50 | 49.64679 | 8.57926 | 119° | 22km/h | 23843m | 4.7m/s | -53.2°C | 1.2% | 32.2hPa | 2.6V | 03:38:12 | 01:40:40 | 00:00:00 | |
| SONCRA | 2026-08-31 18:09:49 | 49.64682 | 8.57919 | 115° | 22km/h | 23838m | 4.6m/s | -53.2°C | 1.4% | 32.2hPa | 2.6V | 00:00:00 | 00:00:00 | 00:00:00 | |
| DL6DJ-15 | 2026-08-31 18:09:48 | 49.64685 | 8.57901 | 102° | 24km/h | 23827m | 4.6m/s | -53.1°C | -1.0% | -1.0hPa | 2.6V | 00:00:00 | 00:00:00 | 00:00:00 | |
| DL1XH-15 | 2026-08-31 18:09:46 | 49.64688 | 8.57850 | 84° | 20km/h | 23796m | 4.4m/s | -52.9°C | 4.3% | 32.4hPa | 2.6V | 03:37:59 | 01:40:31 | 00:00:00 | |
| BIOWL1-15 | 2026-08-31 18:09:44 | 49.64689 | 8.57858 | 86° | 22km/h | 23801m | 5m/s | -53°C | 1.1% | 32.4hPa | 2.7V | 03:38:12 | 01:40:32 | 00:00:00 | |
| NBG1-10 | 2026-08-31 18:09:44 | 49.64688 | 8.57875 | 96° | 18km/h | 23812m | 4.7m/s | -53.0°C | 4.4% | 32.3hPa | 2.6V | 03:37:00 | 01:40:34 | 00:00:00 | |
| DB0ND-19 | 2026-08-31 18:09:43 | 49.64689 | 8.57858 | 86° | 22km/h | 23801m | 5.0m/s | -53.0°C | 1.3% | 32.4hPa | 2.7V | 00:00:00 | 00:00:00 | 00:00:00 | |
| DJ2DS-15 | 2026-08-31 18:09:42 | 49.64688 | 8.57858 | 87° | 18km/h | 23801m | 5.0m/s | -52.9°C | 4.3% | 32.4hPa | 2.7V | 00:00:00 | 01:40:32 | 00:00:00 | |
| DL1NUX | 2026-08-31 18:09:41 | 49.64690 | 8.57817 | 101° | 18km/h | 23770m | 5.6m/s | -52.9°C | 4.1% | 32.6hPa | 2.7V | 03:38:04 | 01:40:26 | 00:00:00 | |
| DL1XH-west | 2026-08-31 18:09:40 | 49.64688 | 8.57842 | 87° | 18km/h | 23791m | 5.6m/s | -52.9°C | 1.1% | 32.5hPa | 2.6V | 03:38:12 | 01:40:30 | 00:00:00 | |
| HSKMA3-T | 2026-08-31 18:09:38 | 49.64688 | 8.57830 | 101° | 15km/h | 23780m | 4m/s | -52.9°C | 0.9% | 32.5hPa | 2.7V | 03:38:12 | 01:40:28 | 00:00:00 | |
| KANTATE | 2026-08-31 18:09:37 | 49.64688 | 8.57830 | 102° | 15km/h | 23781m | 4.0m/s | -52.9°C | 1.2% | 32.5hPa | 2.7V | 03:38:00 | 00:00:00 | 00:00:00 | |
| DL1XH-15 | 2026-08-31 18:09:36 | 49.64693 | 8.57782 | 81° | 20km/h | 23744m | 5.7m/s | -53°C | 4.2% | 32.7hPa | 2.7V | 03:38:09 | 01:40:21 | 00:00:00 | |
| BIOWL1-15 | 2026-08-31 18:09:32 | 49.64693 | 8.57789 | 90° | 18km/h | 23749m | 4.8m/s | -53°C | 1% | 32.7hPa | 2.7V | 03:38:12 | 01:40:22 | 00:00:00 | |
| DL1XH-west | 2026-08-31 18:09:30 | 49.64692 | 8.57774 | 74° | 20km/h | 23739m | 3.8m/s | -53°C | 1% | 32.7hPa | 2.6V | 03:38:12 | 01:40:20 | 00:00:00 | |
| DM7RM-13 | 2026-08-31 18:09:29 | 49.64692 | 8.57774 | 75° | 20km/h | 23739m | 3.8m/s | -53.0°C | 1.3% | 32.7hPa | 2.6V | 03:38:00 | 00:00:00 | 00:00:00 | |
| DM0DOS-11 | 2026-08-31 18:09:27 | 49.64682 | 8.57728 | 65° | 13km/h | 23699m | 5.4m/s | -53.5°C | 4.3% | 33hPa | 2.6V | 03:38:18 | 01:40:12 | 00:00:00 | |
| HSKMA3-T | 2026-08-31 18:09:27 | 49.64687 | 8.57755 | 65° | 15km/h | 23724m | 4.9m/s | -53.2°C | 1.1% | 32.8hPa | 2.7V | 03:39:03 | 01:40:17 | 00:00:00 | |
| BIOWL1-15 | 2026-08-31 18:09:24 | 49.64682 | 8.57728 | 66° | 13km/h | 23699m | 5.4m/s | -53.5°C | 1.1% | 33hPa | 2.6V | 03:39:03 | 01:40:12 | 00:00:00 | |
| DO3MHA-11 | 2026-08-31 18:09:23 | 49.64683 | 8.57733 | 74° | 18km/h | 23705m | 5.1m/s | -53.4°C | 4.4% | 32.9hPa | 2.6V | 00:00:00 | 01:40:13 | 00:00:00 | |
| IW2NTF | 2026-08-31 18:09:22 | 49.64670 | 8.57700 | 52° | 22km/h | 23675m | 4.6m/s | 0°C | 0% | 0hPa | 2.6V | 00:00:00 | 01:40:07 | 00:00:00 | |
| DJ2DS-15 | 2026-08-31 18:09:22 | 49.64682 | 8.57728 | 66° | 16km/h | 23700m | 5.3m/s | -53.4°C | 4.3% | 32.9hPa | 2.7V | 00:00:00 | 01:40:12 | 00:00:00 | |
| DL1NUX | 2026-08-31 18:09:21 | 49.64666 | 8.57694 | 45° | 20km/h | 23670m | 5.7m/s | -53.7°C | 4.4% | 33.1hPa | 2.7V | 03:38:24 | 01:40:06 | 00:00:00 | |
| DL1XH-west | 2026-08-31 18:09:19 | 49.64676 | 8.57713 | 59° | 20km/h | 23684m | 5.2m/s | -53.6°C | 1.2% | 33hPa | 2.6V | 03:39:03 | 01:40:09 | 00:00:00 | |
| SONCRA | 2026-08-31 18:09:18 | 49.64673 | 8.57707 | 57° | 20km/h | 23679m | 3.9m/s | -53.6°C | 1.3% | 33.0hPa | 2.6V | 00:00:00 | 00:00:00 | 00:00:00 | |
| DM0DOS-11 | 2026-08-31 18:09:17 | 49.64653 | 8.57671 | 57° | 20km/h | 23650m | 5m/s | -53.7°C | 4.4% | 33.2hPa | 2.6V | 03:38:28 | 01:40:02 | 00:00:00 | |
| HSKMA3-T | 2026-08-31 18:09:17 | 49.64670 | 8.57700 | 52° | 22km/h | 23675m | 4.6m/s | -53.7°C | 1.1% | 33.1hPa | 2.6V | 03:39:03 | 01:40:07 | 00:00:00 | |
| DL1XH-15 | 2026-08-31 18:09:16 | 49.64650 | 8.57665 | 61° | 20km/h | 23645m | 4.4m/s | -53.7°C | 4.4% | 33.2hPa | 2.6V | 03:38:29 | 01:40:01 | 00:00:00 | |
| DF1GD-15 | 2026-08-31 18:09:15 | 49.64666 | 8.57694 | 47° | 20km/h | 23670m | 5.7m/s | -53.7°C | 1.4% | 33.1hPa | 2.6V | 03:39:00 | 00:00:00 | 00:00:00 | |
| BIOWL7-15 | 2026-08-31 18:09:14 | 49.64663 | 8.57688 | 42° | 20km/h | 23665m | 4.5m/s | -53.8°C | 1.3% | 33.1hPa | 2.6V | 03:39:00 | 00:00:00 | 00:00:00 | |
| DO3MHA-11 | 2026-08-31 18:09:13 | 49.64656 | 8.57678 | 52° | 15km/h | 23656m | 5.6m/s | -53.7°C | 4.5% | 33.1hPa | 2.6V | 03:38:00 | 01:40:03 | 00:00:00 | |
| IW2NTF | 2026-08-31 18:09:12 | 49.64643 | 8.57645 | 62° | 13km/h | 23626m | 5.7m/s | 0°C | 0% | 0hPa | 2.6V | 00:00:00 | 01:39:57 | 00:00:00 | |
| DB0ND-19 | 2026-08-31 18:09:12 | 49.64650 | 8.57665 | 61° | 18km/h | 23645m | 4.4m/s | -53.7°C | 1.3% | 33.2hPa | 2.6V | 00:00:00 | 00:00:00 | 00:00:00 | |
| DL1NUX | 2026-08-31 18:09:11 | 49.64642 | 8.57641 | 63° | 13km/h | 23620m | 4.8m/s | -53.8°C | 4.5% | 33.4hPa | 2.6V | 03:38:34 | 01:39:56 | 00:00:00 | |
| BIOWL1-15 | 2026-08-31 18:09:11 | 49.64650 | 8.57665 | 61° | 20km/h | 23645m | 4.4m/s | -53.7°C | 1.1% | 33.2hPa | 2.6V | 03:39:03 | 01:40:01 | 00:00:00 | |
| DL1XH-west | 2026-08-31 18:09:08 | 49.64645 | 8.57649 | 61° | 11km/h | 23631m | 3.9m/s | -53.8°C | 1.3% | 33.3hPa | 2.6V | 03:39:03 | 01:39:58 | 00:00:00 | |
| DL1XH-15 | 2026-08-31 18:09:06 | 49.64632 | 8.57628 | 30° | 11km/h | 23595m | 5.8m/s | -53.9°C | 4.6% | 33.5hPa | 2.6V | 03:38:39 | 01:39:51 | 00:00:00 | |
| SO1NDE-10 | 2026-08-31 18:09:06 | 49.64642 | 8.57641 | 64° | 9km/h | 23621m | 4.8m/s | -53.7°C | 4.5% | 33.3hPa | 2.6V | 03:38:00 | 01:39:56 | 00:00:00 | |
| HSKMA3-T | 2026-08-31 18:09:06 | 49.64642 | 8.57641 | 64° | 13km/h | 23620m | 4.8m/s | -53.8°C | 1.2% | 33.4hPa | 2.6V | 03:39:03 | 01:39:56 | 00:00:00 | |
| DL8DAS-15 | 2026-08-31 18:09:05 | 49.64642 | 8.57641 | 65° | 13km/h | 23621m | 4.8m/s | -53.8°C | 1.4% | 33.4hPa | 2.6V | 03:39:00 | 00:00:00 | 00:00:00 | |
| BIOWL9-15 | 2026-08-31 18:09:04 | 49.64638 | 8.57634 | 44° | 9km/h | 23611m | 5.9m/s | -53.8°C | 1.4% | 33.4hPa | 2.6V | 00:00:00 | 00:00:00 | 00:00:00 | |
| DB0UT-7 | 2026-08-31 18:09:03 | 49.64636 | 8.57631 | 26° | 7km/h | 23606m | 5.0m/s | -53.8°C | 4.5% | 33.4hPa | 2.6V | 00:00:00 | 01:39:53 | 00:00:00 | |
| IW2NTF | 2026-08-31 18:09:02 | 49.64626 | 8.57618 | 53° | 4km/h | 23576m | 5.2m/s | 0°C | 0% | 0hPa | 2.6V | 00:00:00 | 01:39:47 | 00:00:00 | |
| BIOWL1-15 | 2026-08-31 18:09:02 | 49.64629 | 8.57625 | 43° | 11km/h | 23590m | 4.5m/s | -53.9°C | 1.2% | 33.5hPa | 2.6V | 03:39:03 | 01:39:50 | 00:00:00 | |
| DJ2DS-15 | 2026-08-31 18:09:02 | 49.64634 | 8.57630 | 21° | 7km/h | 23601m | 4.7m/s | -53.8°C | 4.5% | 33.4hPa | 2.6V | 03:38:00 | 01:39:52 | 00:00:00 | |
| DL1XH1-15 | 2026-08-31 18:09:01 | 49.64625 | 8.57617 | 51° | 4km/h | 23571m | 4.7m/s | -53.9°C | 4.5% | 33.6hPa | 2.6V | 03:38:44 | 01:39:46 | 00:00:00 | |
| DL1XH-west | 2026-08-31 18:08:58 | 49.64626 | 8.57620 | 58° | 7km/h | 23581m | 5.6m/s | -53.9°C | 1.2% | 33.5hPa | 2.7V | 03:39:03 | 01:39:48 | 00:00:00 | |
| SFWM-10 | 2026-08-31 18:08:57 | 49.64626 | 8.57620 | 59° | 7km/h | 23582m | 5.6m/s | -53.9°C | 1.4% | 33.6hPa | 2.6V | 00:00:00 | 00:00:00 | 00:00:00 | |
| DL1XH-15 | 2026-08-31 18:08:56 | 49.64620 | 8.57608 | 38° | 4km/h | 23546m | 4.9m/s | -53.9°C | 4.6% | 33.8hPa | 2.6V | 03:38:49 | 01:39:41 | 00:00:00 | |
| HSKMA3-T | 2026-08-31 18:08:55 | 49.64624 | 8.57615 | 54° | 5km/h | 23566m | 5.7m/s | -53.9°C | 1.3% | 33.6hPa | 2.6V | 03:39:03 | 01:39:45 | 00:00:00 | |
| BIOWL1-15 | 2026-08-31 18:08:53 | 49.64619 | 8.57605 | 82° | 5km/h | 23536m | 5.9m/s | -53.9°C | 1.2% | 33.8hPa | 2.6V | 03:39:03 | 01:39:39 | 00:00:00 | |
| DO3MHA-11 | 2026-08-31 18:08:53 | 49.64622 | 8.57611 | 53° | 7km/h | 23556m | 4.0m/s | -53.8°C | 4.5% | 33.7hPa | 2.7V | 00:00:00 | 01:39:43 | 00:00:00 | |
| IW2NTF | 2026-08-31 18:08:52 | 49.64620 | 8.57599 | 107° | 9km/h | 23527m | 3.8m/s | 0°C | 0% | 0hPa | 2.7V | 00:00:00 | 01:39:37 | 00:00:00 | |
| DK5PH-5 | 2026-08-31 18:08:52 | 49.64621 | 8.57609 | 45° | 9km/h | 23551m | 5.6m/s | -53.8°C | 4.6% | 33.7hPa | 2.6V | 00:00:00 | 01:39:42 | 00:00:00 | |
| DL1XH1-15 | 2026-08-31 18:08:51 | 49.64621 | 8.57596 | 118° | 9km/h | 23522m | 5.2m/s | -54°C | 4.6% | 33.9hPa | 2.6V | 03:38:54 | 01:39:36 | 00:00:00 | |
| DL1XH-west | 2026-08-31 18:08:47 | 49.64620 | 8.57599 | 107° | 9km/h | 23527m | 3.8m/s | -53.9°C | 1.2% | 33.9hPa | 2.7V | 03:39:03 | 01:39:37 | 00:00:00 | |
| DL1XH-15 | 2026-08-31 18:08:46 | 49.64627 | 8.57589 | 109° | 5km/h | 23496m | 5m/s | -53.8°C | 4.6% | 34hPa | 2.7V | 03:38:59 | 01:39:31 | 00:00:00 | |
| DL6DJ-15 | 2026-08-31 18:08:46 | 49.64621 | 8.57596 | 118° | 7km/h | 23522m | 5.2m/s | 0°C | -1.0% | -1.0hPa | 2.6V | 00:00:00 | 00:00:00 | 00:00:00 | |
| HSKMA3-T | 2026-08-31 18:08:44 | 49.64623 | 8.57592 | 165° | 5km/h | 23512m | 4.5m/s | -53.9°C | 1.2% | 33.9hPa | 2.6V | 03:39:03 | 01:39:34 | 00:00:00 | |
| DO3MHA-11 | 2026-08-31 18:08:43 | 49.64625 | 8.57592 | 163° | 7km/h | 23507m | 4.4m/s | -53.8°C | 4.6% | 33.9hPa | 2.7V | 00:00:00 | 01:39:33 | 00:00:00 | |
| DJ2DS-15 | 2026-08-31 18:08:42 | 49.64626 | 8.57590 | 139° | 11km/h | 23502m | 5.9m/s | -53.7°C | 4.6% | 34.0hPa | 2.7V | 00:00:00 | 01:39:32 | 00:00:00 | |
| DL1XH1-15 | 2026-08-31 18:08:41 | 49.64624 | 8.57576 | 66° | 11km/h | 23473m | 6m/s | -53.7°C | 4.4% | 34.1hPa | 2.7V | 03:39:04 | 01:39:26 | 00:00:00 | |
| BIOWL1-15 | 2026-08-31 18:08:39 | 49.64627 | 8.57584 | 65° | 5km/h | 23487m | 6m/s | -53.7°C | 1.2% | 34.1hPa | 2.6V | 03:39:03 | 01:39:29 | 00:00:00 | |
| DL1XH-west | 2026-08-31 18:08:37 | 49.64625 | 8.57580 | 58° | 9km/h | 23478m | 3.9m/s | -53.7°C | 1.1% | 34.1hPa | 2.7V | 03:39:03 | 01:39:27 | 00:00:00 | |
| BIOWL1-15 | 2026-08-31 18:08:34 | 49.64631 | 8.57545 | 124° | 15km/h | 23432m | 4.7m/s | -53.6°C | 1.2% | 34.4hPa | 2.6V | 03:39:54 | 01:39:18 | 00:00:00 | |
| HSKMA3-T | 2026-08-31 18:08:34 | 49.64623 | 8.57567 | 91° | 13km/h | 23462m | 4.1m/s | 0°C | 0% | 34.2hPa | 2.6V | 03:44:09 | 01:39:24 | 00:00:00 | |
| DF7PN | 2026-08-31 18:08:34 | 49.64623 | 8.57563 | 101° | 9km/h | 23458m | 5.9m/s | -53.6°C | 1.4% | 34.2hPa | 2.7V | 00:00:00 | 00:00:00 | 00:00:00 | |
| DO3MHA-11 | 2026-08-31 18:08:33 | 49.64623 | 8.57563 | 102° | 13km/h | 23458m | 5.8m/s | -53.6°C | 4.5% | 34.2hPa | 2.7V | 03:39:00 | 01:39:23 | 00:00:00 | |
| DL1XH1-15 | 2026-08-31 18:08:31 | 49.64634 | 8.57536 | 103° | 11km/h | 23421m | 4.8m/s | -53.5°C | 4.5% | 34.4hPa | 2.7V | 03:39:14 | 01:39:16 | 00:00:00 | |
| DL1XH-west | 2026-08-31 18:08:27 | 49.64633 | 8.57540 | 119° | 13km/h | 23427m | 6.2m/s | -53.5°C | 1.2% | 34.4hPa | 2.6V | 03:39:54 | 01:39:17 | 00:00:00 | |
| HSKMA3-T | 2026-08-31 18:08:23 | 49.64634 | 8.57518 | 81° | 20km/h | 23405m | 4.9m/s | 0°C | 0% | 0hPa | 2.6V | 03:44:09 | 01:39:13 | 00:00:00 | |
| DO3MHA-11 | 2026-08-31 18:08:23 | 49.64634 | 8.57518 | 81° | 20km/h | 23406m | 4.8m/s | -53.4°C | 4.4% | 34.4hPa | 2.7V | 00:00:00 | 01:39:13 | 00:00:00 | |
| DJ2DS-15 | 2026-08-31 18:08:22 | 49.64632 | 8.57510 | 77° | 16km/h | 23401m | 4.8m/s | -53.4°C | 4.4% | 34.5hPa | 2.7V | 00:00:00 | 01:39:12 | 00:00:00 | |
| DM3KS-11 | 2026-08-31 18:08:21 | 49.64629 | 8.57494 | 71° | 20km/h | 23389m | 5.0m/s | -53.5°C | 1.4% | 34.6hPa | 2.7V | 00:00:00 | 00:00:00 | 00:00:00 | |
| DL1NUX | 2026-08-31 18:08:20 | 49.64628 | 8.57453 | 102° | 16km/h | 23364m | 5.9m/s | -53.4°C | 4.5% | 34.7hPa | 2.7V | 03:39:25 | 01:39:05 | 00:00:00 | |
| BIOWL1-15 | 2026-08-31 18:08:19 | 49.64627 | 8.57469 | 92° | 22km/h | 23374m | 4.8m/s | -53.4°C | 1.1% | 34.7hPa | 2.6V | 03:39:54 | 01:39:07 | 00:00:00 | |
| DL1XH-west | 2026-08-31 18:08:16 | 49.64627 | 8.57461 | 98° | 20km/h | 23369m | 4m/s | -53.4°C | 1.2% | 34.7hPa | 2.6V | 03:39:54 | 01:39:06 | 00:00:00 | |
| HSKMA3-T | 2026-08-31 18:08:13 | 49.64630 | 8.57444 | 117° | 9km/h | 23353m | 4.7m/s | 0°C | 0% | 0hPa | 2.6V | 03:44:09 | 01:39:03 | 00:00:00 | |
| DO3MHA-11 | 2026-08-31 18:08:13 | 49.64630 | 8.57444 | 118° | 15km/h | 23354m | 4.7m/s | -53.4°C | 4.5% | 34.7hPa | 2.6V | 00:00:00 | 01:39:03 | 00:00:00 | |
| DL1XH1-15 | 2026-08-31 18:08:11 | 49.64629 | 8.57414 | 53° | 18km/h | 23318m | 3.8m/s | -53.3°C | 4.4% | 35hPa | 2.6V | 03:39:34 | 01:38:56 | 00:00:00 | |
| DM0DOS-11 | 2026-08-31 18:08:10 | 49.64633 | 8.57433 | 101° | 11km/h | 23338m | 3.9m/s | -53.3°C | 4.3% | 34.9hPa | 2.7V | 03:39:30 | 01:39:00 | 00:00:00 | |
| BIOWL7-15 | 2026-08-31 18:08:10 | 49.64633 | 8.57432 | 102° | 11km/h | 23338m | 3.9m/s | -53.3°C | 1.3% | 34.9hPa | 2.7V | 00:00:00 | 00:00:00 | 00:00:00 | |
| SONDE2-11 | 2026-08-31 18:08:09 | 49.64633 | 8.57428 | 85° | 11km/h | 23334m | 4.5m/s | -53.2°C | 1.3% | 34.9hPa | 2.7V | 00:00:00 | 00:00:00 | 00:00:00 | |
| DL1NUX | 2026-08-31 18:08:08 | 49.64623 | 8.57393 | 89° | 22km/h | 23302m | 4.9m/s | -53.4°C | 4.5% | 35.1hPa | 2.7V | 03:39:37 | 01:38:53 | 00:00:00 | |
| HTAHTA | 2026-08-31 18:08:07 | 49.64629 | 8.57414 | 53° | 16km/h | 23318m | 3.8m/s | -53.3°C | 1.3% | 35.0hPa | 2.6V | 00:00:00 | 00:00:00 | 00:00:00 | |
| DL1XH-15 | 2026-08-31 18:08:06 | 49.64625 | 8.57377 | 103° | 18km/h | 23292m | 6m/s | -53.4°C | 0% | 35.1hPa | 2.6V | 03:39:39 | 01:38:51 | 00:00:00 | |
| BIOWL1-15 | 2026-08-31 18:08:06 | 49.64629 | 8.57414 | 53° | 18km/h | 23318m | 3.8m/s | -53.3°C | 1.1% | 35hPa | 2.6V | 03:39:54 | 01:38:56 | 00:00:00 | |
| DL1XH-west | 2026-08-31 18:08:05 | 49.64626 | 8.57408 | 61° | 20km/h | 23314m | 4.9m/s | -53.3°C | 1.1% | 35hPa | 2.6V | 03:39:54 | 01:38:55 | 00:00:00 | |
| NBG1-10 | 2026-08-31 18:08:05 | 49.64626 | 8.57408 | 62° | 20km/h | 23314m | 4.9m/s | -53.2°C | 4.4% | 34.9hPa | 2.6V | 00:00:00 | 01:38:55 | 00:00:00 | |
| DF7PN | 2026-08-31 18:08:03 | 49.64624 | 8.57385 | 98° | 20km/h | 23298m | 4.8m/s | -53.4°C | -1.0% | 35.1hPa | 2.6V | 00:00:00 | 00:00:00 | 00:00:00 | |
| DJ2DS-15 | 2026-08-31 18:08:02 | 49.64624 | 8.57385 | 99° | 20km/h | 23298m | 4.7m/s | -53.4°C | 4.5% | 35.0hPa | 2.6V | 00:00:00 | 01:38:52 | 00:00:00 | |
| DL1XH1-15 | 2026-08-31 18:08:01 | 49.64629 | 8.57341 | 82° | 20km/h | 23268m | 3.9m/s | -53.4°C | 4.5% | 35.2hPa | 2.6V | 03:39:44 | 01:38:46 | 00:00:00 | |
| HSKMA3-T | 2026-08-31 18:08:01 | 49.64625 | 8.57377 | 103° | 18km/h | 23292m | 6m/s | 0°C | 0% | 0hPa | 2.6V | 03:44:09 | 01:38:51 | 00:00:00 | |
| DL1ZP-14 | 2026-08-31 18:08:00 | 49.64627 | 8.57364 | 105° | 16km/h | 23283m | 4.1m/s | -53.4°C | 1.3% | 35.1hPa | 2.7V | 00:00:00 | 00:00:00 | 00:00:00 | |
| DL1NUX | 2026-08-31 18:07:58 | 49.64622 | 8.57321 | 41° | 22km/h | 23252m | 4.9m/s | -53.3°C | 4.4% | 35.3hPa | 2.7V | 03:39:47 | 01:38:43 | 00:00:00 | |
| BIOWL1-15 | 2026-08-31 18:07:58 | 49.64629 | 8.57341 | 82° | 20km/h | 23268m | 3.9m/s | -53.4°C | 1.2% | 35.2hPa | 2.6V | 03:39:54 | 01:38:46 | 00:00:00 | |
| DO3DL | 2026-08-31 18:07:57 | 49.64629 | 8.57349 | 96° | 20km/h | 23272m | 5.0m/s | -53.4°C | 1.4% | 35.2hPa | 2.6V | 03:39:00 | 00:00:00 | 00:00:00 | |
| DL1XH-15 | 2026-08-31 18:07:56 | 49.64613 | 8.57309 | 42° | 26km/h | 23242m | 5.3m/s | -53.2°C | 0% | 35.4hPa | 2.6V | 03:39:49 | 01:38:41 | 00:00:00 | |
| DL1XH-west | 2026-08-31 18:07:54 | 49.64625 | 8.57327 | 53° | 20km/h | 23257m | 5.7m/s | -53.3°C | 1.1% | 35.3hPa | 2.6V | 03:39:54 | 01:38:44 | 00:00:00 | |
| DL8DAS-14 | 2026-08-31 18:07:54 | 49.64622 | 8.57321 | 41° | 20km/h | 23252m | 4.9m/s | -53.3°C | 1.3% | 35.3hPa | 2.7V | 00:00:00 | 00:00:00 | 00:00:00 | |
| DK5PH-5 | 2026-08-31 18:07:52 | 49.64617 | 8.57316 | 39° | 22km/h | 23247m | 4.8m/s | -53.2°C | 4.4% | 35.3hPa | 2.7V | 03:39:00 | 01:38:42 | 00:00:00 | |
| DL1XH1-15 | 2026-08-31 18:07:51 | 49.64595 | 8.57279 | 53° | 15km/h | 23218m | 4.4m/s | -53.2°C | 4.4% | 35.5hPa | 2.7V | 03:39:54 | 01:38:36 | 00:00:00 | |
| HSKMA3-T | 2026-08-31 18:07:49 | 49.64604 | 8.57296 | 50° | 22km/h | 23233m | 4.5m/s | 0°C | 0% | 0hPa | 2.6V | 03:44:09 | 01:38:39 | 00:00:00 | |
| DL0LBS | 2026-08-31 18:07:48 | 49.64604 | 8.57295 | 51° | 22km/h | 23233m | 4.5m/s | -53.2°C | 1.4% | 35.4hPa | 2.7V | 03:39:00 | 00:00:00 | 00:00:00 | |
| DL1NUX | 2026-08-31 18:07:47 | 49.64587 | 8.57257 | 59° | 16km/h | 23198m | 5.8m/s | -53.4°C | 4.4% | 35.6hPa | 2.7V | 03:39:58 | 01:38:32 | 00:00:00 | |
| BIOWL1-15 | 2026-08-31 18:07:47 | 49.64593 | 8.57274 | 61° | 16km/h | 23213m | 6.1m/s | -53.3°C | 1.1% | 35.5hPa | 2.6V | 03:40:45 | 01:38:35 | 00:00:00 | |
| DL1XH-15 | 2026-08-31 18:07:46 | 49.64585 | 8.57252 | 44° | 15km/h | 23192m | 5.1m/s | -53.3°C | 0% | 35.7hPa | 2.7V | 03:39:59 | 01:38:31 | 00:00:00 | |
| SONCRA | 2026-08-31 18:07:45 | 49.64593 | 8.57274 | 60° | 15km/h | 23213m | 6.1m/s | -53.3°C | 1.3% | 35.5hPa | 2.6V | 00:00:00 | 00:00:00 | 00:00:00 | |
| DL1XH-west | 2026-08-31 18:07:44 | 49.64591 | 8.57268 | 67° | 18km/h | 23207m | 4.5m/s | -53.3°C | 1.1% | 35.5hPa | 2.6V | 03:40:45 | 01:38:34 | 00:00:00 | |
| DO3MHA-11 | 2026-08-31 18:07:43 | 49.64589 | 8.57262 | 66° | 18km/h | 23203m | 4.6m/s | -53.2°C | 4.4% | 35.5hPa | 2.6V | 00:00:00 | 01:38:33 | 00:00:00 | |
| DL1XH1-15 | 2026-08-31 18:07:42 | 49.64567 | 8.57229 | 36° | 20km/h | 23168m | 5.7m/s | -53.3°C | 4.4% | 35.8hPa | 2.6V | 03:40:04 | 01:38:26 | 00:00:00 | |
| BIOWL1-15 | 2026-08-31 18:07:37 | 49.64563 | 8.57225 | 35° | 18km/h | 23163m | 5m/s | -53.4°C | 1.1% | 35.8hPa | 2.6V | 03:40:45 | 01:38:25 | 00:00:00 | |
| DL1NUX | 2026-08-31 18:07:36 | 49.64548 | 8.57203 | 43° | 22km/h | 23143m | 4.8m/s | -53.3°C | 4.4% | 36hPa | 2.7V | 03:40:09 | 01:38:21 | 00:00:00 | |
| DL1XH-west | 2026-08-31 18:07:34 | 49.64559 | 8.57220 | 39° | 18km/h | 23158m | 5.2m/s | -53.3°C | 1.1% | 35.9hPa | 2.6V | 03:40:45 | 01:38:24 | 00:00:00 | |
| DO3MHA-11 | 2026-08-31 18:07:33 | 49.64556 | 8.57215 | 46° | 24km/h | 23153m | 5.7m/s | -53.3°C | 4.3% | 35.8hPa | 2.7V | 00:00:00 | 01:38:23 | 00:00:00 | |
| DF1GD-15 | 2026-08-31 18:07:32 | 49.64556 | 8.57215 | 47° | 20km/h | 23153m | 5.8m/s | -53.3°C | 1.4% | 35.9hPa | 2.7V | 03:40:00 | 00:00:00 | 00:00:00 | |
| DL1XH1-15 | 2026-08-31 18:07:31 | 49.64522 | 8.57183 | 24° | 27km/h | 23116m | 4.8m/s | -53.4°C | 4.4% | 36.1hPa | 2.7V | 03:40:14 | 01:38:16 | 00:00:00 | |
| DM0DOS-11 | 2026-08-31 18:07:30 | 49.64540 | 8.57194 | 24° | 22km/h | 23132m | 4.9m/s | -53.4°C | 4.4% | 36hPa | 2.6V | 03:40:11 | 01:38:19 | 00:00:00 | |
| HEMX73-11 | 2026-08-31 18:07:29 | 49.64544 | 8.57198 | 35° | 20km/h | 23138m | 5.9m/s | -53.4°C | 1.3% | 36.0hPa | 2.6V | 03:40:00 | 00:00:00 | 00:00:00 | |
| DL8OAI-8 | 2026-08-31 18:07:28 | 49.64540 | 8.57194 | 25° | 22km/h | 23132m | 4.9m/s | -53.4°C | 1.4% | 36.0hPa | 2.6V | 03:40:00 | 00:00:00 | 00:00:00 | |
| NBG1-10 | 2026-08-31 18:07:27 | 49.64528 | 8.57187 | 24° | 20km/h | 23122m | 5.6m/s | -53.4°C | 4.4% | 36.0hPa | 2.6V | 03:40:00 | 01:38:17 | 00:00:00 | |
| DL1NUX | 2026-08-31 18:07:26 | 49.64486 | 8.57163 | 26° | 29km/h | 23091m | 5.5m/s | -53.6°C | 4.5% | 36.2hPa | 2.6V | 03:40:19 | 01:38:11 | 00:00:00 | |
| DL1XH-west | 2026-08-31 18:07:24 | 49.64508 | 8.57175 | 16° | 31km/h | 23106m | 6.3m/s | -53.5°C | 1.2% | 36.1hPa | 2.7V | 03:40:45 | 01:38:14 | 00:00:00 | |
| DB0NH | 2026-08-31 18:07:24 | 49.64508 | 8.57175 | 17° | 18km/h | 23107m | 6.2m/s | -53.4°C | 4.4% | 36.1hPa | 2.6V | 00:00:00 | 01:38:14 | 00:00:00 | |
| DL8DAS-14 | 2026-08-31 18:07:23 | 49.64493 | 8.57168 | 19° | 31km/h | 23096m | 4.8m/s | -53.6°C | 1.4% | 36.2hPa | 2.6V | 00:00:00 | 00:00:00 | 00:00:00 | |
| DJ2DS-15 | 2026-08-31 18:07:22 | 49.64492 | 8.57168 | 20° | 20km/h | 23096m | 4.8m/s | -53.5°C | 4.5% | 36.2hPa | 2.6V | 00:00:00 | 01:38:12 | 00:00:00 | |
| DL1XH1-15 | 2026-08-31 18:07:21 | 49.64463 | 8.57139 | 32° | 18km/h | 23067m | 4.1m/s | -53.6°C | 4.6% | 36.4hPa | 2.6V | 03:40:24 | 01:38:06 | 00:00:00 | |
| DM0DOS-11 | 2026-08-31 18:07:20 | 49.64475 | 8.57152 | 37° | 22km/h | 23082m | 4.9m/s | -53.6°C | 4.5% | 36.3hPa | 2.7V | 03:40:21 | 01:38:09 | 00:00:00 | |
| DO3DL | 2026-08-31 18:07:19 | 49.64480 | 8.57158 | 36° | 26km/h | 23086m | 4.0m/s | -53.6°C | 1.4% | 36.3hPa | 2.7V | 03:40:00 | 00:00:00 | 00:00:00 | |
| DO1YAY-16 | 2026-08-31 18:07:18 | 49.64470 | 8.57147 | 35° | 18km/h | 23077m | 5.5m/s | -53.6°C | 1.3% | 36.3hPa | 2.7V | 00:00:00 | 00:00:00 | 00:00:00 | |
| DL1XH-15 | 2026-08-31 18:07:16 | 49.64441 | 8.57122 | 5° | 20km/h | 23041m | 5.2m/s | -53.5°C | 0% | 0hPa | 2.7V | 03:40:29 | 01:38:01 | 00:00:00 | |
| DL1NUX | 2026-08-31 18:07:15 | 49.64436 | 8.57122 | 359° | 20km/h | 23037m | 4m/s | -53.5°C | 4.5% | 36.5hPa | 2.6V | 03:40:30 | 01:38:00 | 00:00:00 | |
| DL1XH-west | 2026-08-31 18:07:13 | 49.64450 | 8.57127 | 28° | 20km/h | 23052m | 3.9m/s | -53.5°C | 1.2% | 36.5hPa | 2.7V | 03:40:45 | 01:38:03 | 00:00:00 | |
| DO3MHA-11 | 2026-08-31 18:07:13 | 49.64450 | 8.57127 | 28° | 18km/h | 23052m | 3.8m/s | -53.5°C | 4.5% | 36.4hPa | 2.7V | 03:40:00 | 01:38:03 | 00:00:00 | |
| DO3DL | 2026-08-31 18:07:12 | 49.64450 | 8.57127 | 29° | 20km/h | 23052m | 3.9m/s | -53.5°C | 1.4% | 36.5hPa | 2.7V | 03:40:00 | 00:00:00 | 00:00:00 | |
| DL1XH1-15 | 2026-08-31 18:07:11 | 49.64417 | 8.57118 | 16° | 15km/h | 23017m | 4.7m/s | -53.4°C | 4.5% | 36.7hPa | 2.7V | 03:40:34 | 01:37:56 | 00:00:00 | |
| DM0DOS-11 | 2026-08-31 18:07:10 | 49.64430 | 8.57122 | 2° | 20km/h | 23032m | 5.5m/s | -53.5°C | 4.5% | 36.6hPa | 2.6V | 03:40:31 | 01:37:59 | 00:00:00 | |
| HEMX73-11 | 2026-08-31 18:07:08 | 49.64430 | 8.57122 | 3° | 20km/h | 23033m | 5.5m/s | -53.5°C | 1.4% | 36.6hPa | 2.6V | 03:40:00 | 00:00:00 | 00:00:00 | |
| SONDE2-11 | 2026-08-31 18:07:07 | 49.64421 | 8.57119 | 15° | 18km/h | 23022m | 4.6m/s | -53.5°C | 1.4% | 36.6hPa | 2.6V | 00:00:00 | 00:00:00 | 00:00:00 | |
| DL1XH-15 | 2026-08-31 18:07:06 | 49.64405 | 8.57111 | 39° | 9km/h | 22990m | 4.2m/s | 0°C | 0% | 0hPa | 2.6V | 03:40:39 | 01:37:51 | 00:00:00 | |
| DL1NUX | 2026-08-31 18:07:05 | 49.64403 | 8.57108 | 25° | 9km/h | 22986m | 4.6m/s | -53.3°C | 4.4% | 36.8hPa | 2.6V | 03:40:40 | 01:37:50 | 00:00:00 | |
| DL1XH-west | 2026-08-31 18:07:02 | 49.64407 | 8.57113 | 37° | 9km/h | 22995m | 5.7m/s | -53.3°C | 1.2% | 36.8hPa | 2.7V | 03:40:45 | 01:37:52 | 00:00:00 | |
| DJ2DS-15 | 2026-08-31 18:07:01 | 49.64405 | 8.57110 | 39° | 9km/h | 22990m | 4.2m/s | -53.3°C | 1.4% | 36.8hPa | 2.6V | 00:00:00 | 00:00:00 | 00:00:00 | |
| DM0DOS-11 | 2026-08-31 18:07:00 | 49.64400 | 8.57108 | 6° | 9km/h | 22981m | 5.8m/s | -53.3°C | 4.4% | 36.9hPa | 2.6V | 03:40:41 | 01:37:49 | 00:00:00 | |
| BIOWL9-15 | 2026-08-31 18:07:00 | 49.64403 | 8.57109 | 25° | 7km/h | 22986m | 4.6m/s | -53.3°C | 1.3% | 36.9hPa | 2.7V | 00:00:00 | 00:00:00 | 00:00:00 | |
| DL1ZP-14 | 2026-08-31 18:06:58 | 49.64395 | 8.57108 | 357° | 13km/h | 22970m | 5.9m/s | -53.3°C | 1.3% | 36.9hPa | 2.7V | 00:00:00 | 00:00:00 | 00:00:00 | |
| DH7VM-15 | 2026-08-31 18:06:57 | 49.64398 | 8.57108 | 355° | 13km/h | 22976m | 4.8m/s | -53.4°C | 1.3% | 36.9hPa | 2.7V | 00:00:00 | 00:00:00 | 00:00:00 | |
| DL1XH-15 | 2026-08-31 18:06:56 | 49.64378 | 8.57106 | 64° | 5km/h | 22939m | 6.2m/s | 0°C | 0% | 0hPa | 2.7V | 00:00:00 | 01:37:41 | 00:00:00 | |
| BIOWL1-15 | 2026-08-31 18:06:52 | 49.64378 | 8.57107 | 17° | 5km/h | 22944m | 4.5m/s | -53.2°C | 1.1% | 37.1hPa | 2.7V | 03:41:36 | 01:37:42 | 00:00:00 | |
| DL8DAS-14 | 2026-08-31 18:06:52 | 49.64377 | 8.57106 | 64° | 4km/h | 22939m | 6.2m/s | -53.2°C | 1.3% | 37.1hPa | 2.6V | 00:00:00 | 00:00:00 | 00:00:00 | |
| DF1GD-15 | 2026-08-31 18:06:51 | 49.64378 | 8.57107 | 18° | 5km/h | 22944m | 4.5m/s | -53.2°C | 1.4% | 37.1hPa | 2.6V | 03:41:00 | 00:00:00 | 00:00:00 | |
| DM0DOS-11 | 2026-08-31 18:06:50 | 49.64378 | 8.57101 | 116° | 7km/h | 22928m | 4.7m/s | -53.2°C | 4.4% | 37.2hPa | 2.6V | 03:40:51 | 01:37:39 | 00:00:00 | |
| DL0LBS | 2026-08-31 18:06:47 | 49.64380 | 8.57098 | 172° | 4km/h | 22918m | 5.0m/s | -53.2°C | 1.4% | 37.2hPa | 2.6V | 03:41:00 | 00:00:00 | 00:00:00 | |
| KANTATE | 2026-08-31 18:06:46 | 49.64380 | 8.57098 | 172° | 4km/h | 22918m | 5.0m/s | -53.2°C | 1.4% | 37.2hPa | 2.6V | 03:41:00 | 00:00:00 | 00:00:00 | |
| DO3DL | 2026-08-31 18:06:45 | 49.64380 | 8.57098 | 0° | 0km/h | 22913m | 4.6m/s | -53.1°C | 1.4% | 37.3hPa | 2.6V | 03:41:00 | 00:00:00 | 00:00:00 | |
| DO3MHA-11 | 2026-08-31 18:06:43 | 49.64377 | 8.57098 | 5° | 5km/h | 22897m | 4.2m/s | -53.1°C | 4.4% | 37.3hPa | 2.6V | 00:00:00 | 01:37:33 | 00:00:00 | |
| DJ2DS-15 | 2026-08-31 18:06:42 | 49.64376 | 8.57098 | 343° | 9km/h | 22892m | 5.9m/s | -53.1°C | 4.4% | 37.3hPa | 2.7V | 00:00:00 | 01:37:32 | 00:00:00 | |
| DL1XH1-15 | 2026-08-31 18:06:41 | 49.64380 | 8.57092 | 115° | 5km/h | 22861m | 6.1m/s | -53°C | 4.3% | 37.6hPa | 2.7V | 03:41:04 | 01:37:26 | 00:00:00 | |
| BIOWL1-15 | 2026-08-31 18:06:41 | 49.64376 | 8.57099 | 270° | 2km/h | 22887m | 4.8m/s | -53.1°C | 1.2% | 37.4hPa | 2.7V | 03:41:36 | 01:37:31 | 00:00:00 | |
| DM0DOS-11 | 2026-08-31 18:06:40 | 49.64377 | 8.57098 | 142° | 5km/h | 22877m | 5.6m/s | -53°C | 4.4% | 37.5hPa | 2.6V | 03:41:01 | 01:37:29 | 00:00:00 | |
| DL1KLB | 2026-08-31 18:06:38 | 49.64377 | 8.57098 | 143° | 5km/h | 22877m | 5.6m/s | -53.0°C | 1.4% | 37.5hPa | 2.6V | 00:00:00 | 00:00:00 | 00:00:00 | |
| DL8DAS-15 | 2026-08-31 18:06:37 | 49.64378 | 8.57096 | 131° | 7km/h | 22872m | 5.4m/s | -53.0°C | 1.3% | 37.5hPa | 2.6V | 03:41:00 | 00:00:00 | 00:00:00 | |
| SONDE2-11 | 2026-08-31 18:06:36 | 49.64380 | 8.57092 | 115° | 4km/h | 22861m | 6.1m/s | -53.0°C | 1.3% | 37.6hPa | 2.6V | 00:00:00 | 00:00:00 | 00:00:00 | |
| DL1NUX | 2026-08-31 18:06:33 | 49.64386 | 8.57083 | 174° | 11km/h | 22819m | 5m/s | -52.9°C | 4.4% | 37.8hPa | 2.6V | 03:41:12 | 01:37:18 | 00:00:00 | |
| BIOWL1-15 | 2026-08-31 18:06:32 | 49.64382 | 8.57083 | 167° | 4km/h | 22829m | 6.3m/s | -52.9°C | 1.1% | 37.7hPa | 2.7V | 03:41:36 | 01:37:20 | 00:00:00 | |
| DL1XH1-15 | 2026-08-31 18:06:31 | 49.64393 | 8.57080 | 155° | 18km/h | 22807m | 5.2m/s | -52.8°C | 4.4% | 37.9hPa | 2.6V | 03:41:14 | 01:37:16 | 00:00:00 | |
| DL1XH-west | 2026-08-31 18:06:31 | 49.64381 | 8.57084 | 136° | 5km/h | 22834m | 4.6m/s | -53°C | 1.1% | 37.7hPa | 2.6V | 03:41:36 | 01:37:21 | 00:00:00 | |
| DM0DOS-11 | 2026-08-31 18:06:30 | 49.64384 | 8.57083 | 181° | 7km/h | 22823m | 4.7m/s | -52.9°C | 4.4% | 37.8hPa | 2.7V | 03:41:11 | 01:37:19 | 00:00:00 | |
| BIOWL9-15 | 2026-08-31 18:06:29 | 49.64384 | 8.57083 | 181° | 7km/h | 22824m | 4.7m/s | -52.9°C | 1.3% | 37.8hPa | 2.6V | 00:00:00 | 00:00:00 | 00:00:00 | |
| DL1ZP-14 | 2026-08-31 18:06:27 | 49.64393 | 8.57080 | 155° | 16km/h | 22807m | 5.2m/s | -52.8°C | 1.3% | 37.9hPa | 2.6V | 00:00:00 | 00:00:00 | 00:00:00 | |
| DL0LBS | 2026-08-31 18:06:26 | 49.64393 | 8.57080 | 156° | 18km/h | 22808m | 5.2m/s | -52.8°C | 1.4% | 37.9hPa | 2.6V | 03:41:00 | 00:00:00 | 00:00:00 | |
| DJ2DS-15 | 2026-08-31 18:06:25 | 49.64397 | 8.57077 | 151° | 18km/h | 22803m | 4.4m/s | -52.8°C | 1.4% | 37.9hPa | 2.6V | 00:00:00 | 00:00:00 | 00:00:00 | |
| DO3DL | 2026-08-31 18:06:24 | 49.64397 | 8.57077 | 152° | 18km/h | 22803m | 4.4m/s | -52.8°C | 1.4% | 37.9hPa | 2.6V | 03:41:00 | 00:00:00 | 00:00:00 | |
| DO3MHA-11 | 2026-08-31 18:06:23 | 49.64405 | 8.57071 | 157° | 15km/h | 22792m | 5.6m/s | -52.7°C | 4.4% | 37.9hPa | 2.6V | 00:00:00 | 01:37:13 | 00:00:00 | |
| DK5PH-5 | 2026-08-31 18:06:22 | 49.64408 | 8.57068 | 159° | 16km/h | 22787m | 4.9m/s | -52.7°C | 4.5% | 37.9hPa | 2.6V | 00:00:00 | 01:37:12 | 00:00:00 | |
| DL1XH1-15 | 2026-08-31 18:06:21 | 49.64428 | 8.57061 | 170° | 13km/h | 22754m | 6m/s | -52.5°C | 4.3% | 38.2hPa | 2.6V | 03:41:24 | 01:37:06 | 00:00:00 | |
| DJ2DS-15 | 2026-08-31 18:06:21 | 49.64412 | 8.57066 | 159° | 16km/h | 22781m | 6.6m/s | -52.6°C | 4.4% | 38.0hPa | 2.7V | 03:41:00 | 01:37:11 | 00:00:00 | |
| DM0DOS-11 | 2026-08-31 18:06:20 | 49.64422 | 8.57062 | 174° | 11km/h | 22765m | 5.8m/s | -52.6°C | 4.4% | 38.1hPa | 2.7V | 03:41:22 | 01:37:08 | 00:00:00 | |
| DL1XH-west | 2026-08-31 18:06:20 | 49.64415 | 8.57064 | 160° | 15km/h | 22775m | 4.6m/s | -52.6°C | 1.1% | 38.1hPa | 2.6V | 03:41:36 | 01:37:10 | 00:00:00 | |
| DJ2KF-10 | 2026-08-31 18:06:20 | 49.64415 | 8.57064 | 160° | 22km/h | 22775m | 4.6m/s | -52.6°C | 4.5% | 38.0hPa | 2.6V | 00:00:00 | 01:37:10 | 00:00:00 | |
| DO3DL | 2026-08-31 18:06:18 | 49.64422 | 8.57062 | 176° | 11km/h | 22765m | 5.9m/s | -52.6°C | 1.4% | 38.1hPa | 2.7V | 03:41:00 | 00:00:00 | 00:00:00 | |
| DO1YAY-16 | 2026-08-31 18:06:16 | 49.64428 | 8.57061 | 170° | 13km/h | 22755m | 6.0m/s | -52.5°C | 1.3% | 38.2hPa | 2.7V | 00:00:00 | 00:00:00 | 00:00:00 | |
| DJTTGO | 2026-08-31 18:06:15 | 49.64427 | 8.57061 | 171° | 13km/h | 22755m | 6.0m/s | -52.5°C | 1.3% | 38.2hPa | 2.7V | 03:41:00 | 00:00:00 | 00:00:00 | |
| DO3MHA-11 | 2026-08-31 18:06:13 | 49.64439 | 8.57054 | 157° | 20km/h | 22740m | 5.1m/s | -52.4°C | 4.2% | 38.2hPa | 2.7V | 00:00:00 | 01:37:03 | 00:00:00 | |
| SONCRA | 2026-08-31 18:06:12 | 49.64444 | 8.57052 | 161° | 16km/h | 22734m | 5.4m/s | -52.4°C | 1.3% | 38.3hPa | 2.7V | 00:00:00 | 00:00:00 | 00:00:00 | |
| DF3TZ-5 | 2026-08-31 18:06:11 | 49.64448 | 8.57050 | 167° | 16km/h | 22729m | 4.9m/s | -52.3°C | 1.3% | 38.3hPa | 2.7V | 00:00:00 | 00:00:00 | 00:00:00 | |
| DM0DOS-11 | 2026-08-31 18:06:10 | 49.64463 | 8.57047 | 173° | 24km/h | 22712m | 5.1m/s | -52.2°C | 4.4% | 38.4hPa | 2.7V | 03:41:32 | 01:36:58 | 00:00:00 | |
| DL1XH-west | 2026-08-31 18:06:09 | 49.64457 | 8.57048 | 173° | 22km/h | 22719m | 6.4m/s | -52.2°C | 1.1% | 38.4hPa | 2.6V | 03:41:36 | 01:36:59 | 00:00:00 | |
| DL8DAS-15 | 2026-08-31 18:06:08 | 49.64457 | 8.57048 | 174° | 22km/h | 22719m | 6.4m/s | -52.2°C | 1.4% | 38.4hPa | 2.7V | 03:41:00 | 00:00:00 | 00:00:00 | |
| DL1XH1-15 | 2026-08-31 18:06:08 | 49.64474 | 8.57045 | 176° | 20km/h | 22702m | 5.7m/s | -52.1°C | 4.4% | 38.5hPa | 2.6V | 03:41:34 | 01:36:56 | 00:00:00 | |
| HEMX73-11 | 2026-08-31 18:06:06 | 49.64468 | 8.57046 | 175° | 22km/h | 22708m | 5.2m/s | -52.2°C | 1.3% | 38.5hPa | 2.7V | 03:41:00 | 00:00:00 | 00:00:00 | |
| DO3DL | 2026-08-31 18:06:05 | 49.64479 | 8.57045 | 177° | 16km/h | 22697m | 4.3m/s | -52.1°C | 1.3% | 38.6hPa | 2.7V | 03:41:00 | 00:00:00 | 00:00:00 | |
| DO3MHA-11 | 2026-08-31 18:06:03 | 49.64487 | 8.57042 | 167° | 16km/h | 22687m | 6.1m/s | -52.0°C | 4.3% | 38.5hPa | 2.7V | 00:00:00 | 01:36:53 | 00:00:00 | |
| DL1XH1-15 | 2026-08-31 18:06:01 | 49.64516 | 8.57030 | 165° | 16km/h | 22648m | 5.7m/s | -51.7°C | 4.2% | 38.8hPa | 2.7V | 03:41:44 | 01:36:46 | 00:00:00 | |
| DJ2DS-15 | 2026-08-31 18:06:01 | 49.64496 | 8.57039 | 164° | 16km/h | 22676m | 6.1m/s | -51.9°C | 4.2% | 38.6hPa | 2.7V | 00:00:00 | 01:36:51 | 00:00:00 | |
| DM0DOS-11 | 2026-08-31 18:06:00 | 49.64508 | 8.57033 | 161° | 16km/h | 22659m | 6.2m/s | -51.8°C | 4.2% | 38.8hPa | 2.6V | 03:41:42 | 01:36:48 | 00:00:00 | |
| DL1XH-west | 2026-08-31 18:05:59 | 49.64504 | 8.57035 | 163° | 15km/h | 22665m | 4.8m/s | -51.8°C | 1% | 38.7hPa | 2.6V | 03:42:27 | 01:36:49 | 00:00:00 | |
| BIOWL1-15 | 2026-08-31 18:05:58 | 49.64508 | 8.57033 | 162° | 16km/h | 22659m | 6.2m/s | -51.8°C | 1% | 38.8hPa | 2.6V | 03:42:27 | 01:36:48 | 00:00:00 | |
| DO3DL | 2026-08-31 18:05:58 | 49.64508 | 8.57033 | 163° | 16km/h | 22660m | 6.2m/s | -51.8°C | 1.3% | 38.8hPa | 2.7V | 03:42:00 | 00:00:00 | 00:00:00 | |
| DL8DAS-15 | 2026-08-31 18:05:57 | 49.64508 | 8.57033 | 163° | 16km/h | 22660m | 6.2m/s | -51.8°C | 1.3% | 38.8hPa | 2.7V | 00:00:00 | 00:00:00 | 00:00:00 | |
| SFWM-10 | 2026-08-31 18:05:56 | 49.64516 | 8.57030 | 166° | 16km/h | 22649m | 5.7m/s | -51.7°C | 1.3% | 38.8hPa | 2.7V | 03:42:00 | 00:00:00 | 00:00:00 | |
| DH7VM-15 | 2026-08-31 18:05:53 | 49.64528 | 8.57027 | 177° | 18km/h | 22634m | 5.3m/s | -51.6°C | 1.3% | 38.9hPa | 2.7V | 00:00:00 | 00:00:00 | 00:00:00 | |
| DK5PH-5 | 2026-08-31 18:05:52 | 49.64533 | 8.57027 | 175° | 15km/h | 22628m | 5.5m/s | -51.5°C | 4.1% | 38.9hPa | 2.7V | 03:41:00 | 01:36:42 | 00:00:00 | |
| DL1XH1-15 | 2026-08-31 18:05:51 | 49.64562 | 8.57023 | 174° | 16km/h | 22596m | 5.3m/s | -51.3°C | 4.1% | 39.1hPa | 2.7V | 03:41:54 | 01:36:36 | 00:00:00 | |
| DL1XH-west | 2026-08-31 18:05:48 | 49.64554 | 8.57023 | 179° | 16km/h | 22607m | 5.1m/s | -51.4°C | 1% | 39.1hPa | 2.7V | 03:42:27 | 01:36:38 | 00:00:00 | |
| BIOWL1-15 | 2026-08-31 18:05:47 | 49.64558 | 8.57023 | 177° | 16km/h | 22601m | 5.8m/s | -51.4°C | 1% | 39.1hPa | 2.7V | 03:42:27 | 01:36:37 | 00:00:00 | |
| DM3KS-11 | 2026-08-31 18:05:45 | 49.64566 | 8.57022 | 175° | 15km/h | 22591m | 4.4m/s | -51.3°C | 1.3% | 39.2hPa | 2.6V | 00:00:00 | 00:00:00 | 00:00:00 | |
| DL0LBS | 2026-08-31 18:05:44 | 49.64566 | 8.57022 | 176° | 15km/h | 22591m | 4.4m/s | -51.3°C | 1.3% | 39.2hPa | 2.6V | 03:42:00 | 00:00:00 | 00:00:00 | |
| DO3MHA-11 | 2026-08-31 18:05:43 | 49.64572 | 8.57022 | 188° | 16km/h | 22580m | 5.0m/s | -51.2°C | 4.1% | 39.2hPa | 2.6V | 00:00:00 | 01:36:33 | 00:00:00 | |
| SONCRA | 2026-08-31 18:05:41 | 49.64578 | 8.57023 | 179° | 13km/h | 22570m | 5.7m/s | -51.2°C | 1.3% | 39.3hPa | 2.6V | 00:00:00 | 00:00:00 | 00:00:00 | |
| DM0DOS-11 | 2026-08-31 18:05:40 | 49.64591 | 8.57022 | 178° | 16km/h | 22555m | 5.7m/s | -51.1°C | 3.9% | 39.4hPa | 2.6V | 03:42:02 | 01:36:28 | 00:00:00 | |
| DL1XH-west | 2026-08-31 18:05:38 | 49.64591 | 8.57022 | 179° | 16km/h | 22556m | 5.7m/s | -51.1°C | 0.9% | 39.4hPa | 2.6V | 03:42:27 | 01:36:28 | 00:00:00 | |
| DL1XH1-15 | 2026-08-31 18:05:37 | 49.64599 | 8.57022 | 176° | 16km/h | 22545m | 4.6m/s | -51°C | 3.9% | 39.5hPa | 2.6V | 03:42:04 | 01:36:26 | 00:00:00 | |
| BIOWL1-15 | 2026-08-31 18:05:36 | 49.64599 | 8.57022 | 176° | 16km/h | 22545m | 4.6m/s | -51.1°C | 0.8% | 39.5hPa | 2.6V | 03:42:27 | 01:36:26 | 00:00:00 | |
| HSKMA3-T | 2026-08-31 18:05:33 | 49.64614 | 8.57019 | 170° | 20km/h | 22530m | 4m/s | 0°C | 0% | 0hPa | 2.7V | 03:44:09 | 01:36:23 | 00:00:00 | |
| DO3MHA-11 | 2026-08-31 18:05:33 | 49.64614 | 8.57019 | 170° | 11km/h | 22531m | 4.0m/s | -51.1°C | 3.9% | 39.5hPa | 2.6V | 00:00:00 | 01:36:23 | 00:00:00 | |
| DB0UT-7 | 2026-08-31 18:05:32 | 49.64618 | 8.57017 | 171° | 11km/h | 22526m | 5.7m/s | -51.1°C | 4.0% | 39.5hPa | 2.6V | 00:00:00 | 00:00:00 | 00:00:00 | |
| DL1XH1-15 | 2026-08-31 18:05:31 | 49.64635 | 8.57019 | 183° | 9km/h | 22495m | 5.9m/s | -51.1°C | 4% | 39.7hPa | 2.7V | 03:42:14 | 01:36:16 | 00:00:00 | |
| DM0DOS-11 | 2026-08-31 18:05:30 | 49.64630 | 8.57018 | 192° | 11km/h | 22505m | 5.5m/s | -51.1°C | 4% | 39.7hPa | 2.7V | 03:42:12 | 01:36:18 | 00:00:00 | |
| DL1XH-west | 2026-08-31 18:05:28 | 49.64630 | 8.57018 | 192° | 11km/h | 22505m | 5.5m/s | -51.1°C | 0.9% | 39.7hPa | 2.7V | 03:42:27 | 01:36:18 | 00:00:00 | |
| BIOWL1-15 | 2026-08-31 18:05:25 | 49.64637 | 8.57019 | 169° | 7km/h | 22490m | 5m/s | -51.1°C | 0.8% | 39.8hPa | 2.6V | 03:42:27 | 01:36:15 | 00:00:00 | |
| DL1ZP-14 | 2026-08-31 18:05:25 | 49.64639 | 8.57018 | 163° | 7km/h | 22485m | 4.2m/s | -51.1°C | 1.2% | 39.8hPa | 2.6V | 00:00:00 | 00:00:00 | 00:00:00 | |
| DO3MHA-11 | 2026-08-31 18:05:23 | 49.64642 | 8.57017 | 168° | 9km/h | 22481m | 5.6m/s | -51.1°C | 3.9% | 39.8hPa | 2.7V | 00:00:00 | 01:36:13 | 00:00:00 | |
| DK5PH-5 | 2026-08-31 18:05:22 | 49.64644 | 8.57016 | 171° | 13km/h | 22475m | 4.1m/s | -51.1°C | 4.0% | 39.8hPa | 2.7V | 00:00:00 | 01:36:12 | 00:00:00 | |
| DJ2DS-15 | 2026-08-31 18:05:20 | 49.64649 | 8.57015 | 165° | 11km/h | 22466m | 5.3m/s | -51.2°C | 4.0% | 39.9hPa | 2.6V | 00:00:00 | 01:36:10 | 00:00:00 | |
| DL1XH1-15 | 2026-08-31 18:05:19 | 49.64655 | 8.57017 | 195° | 11km/h | 22447m | 4.1m/s | -51.3°C | 4% | 40hPa | 2.6V | 03:42:24 | 01:36:06 | 00:00:00 | |
| DL1XH-west | 2026-08-31 18:05:18 | 49.64651 | 8.57015 | 195° | 5km/h | 22457m | 4.4m/s | -51.3°C | 0.9% | 40hPa | 2.7V | 03:42:27 | 01:36:08 | 00:00:00 | |
| BIOWL1-15 | 2026-08-31 18:05:14 | 49.64660 | 8.57017 | 175° | 11km/h | 22439m | 5m/s | -51.4°C | 0.9% | 40.1hPa | 2.6V | 03:42:27 | 01:36:04 | 00:00:00 | |
| NBG1-10 | 2026-08-31 18:05:14 | 49.64660 | 8.57017 | 175° | 15km/h | 22439m | 5.0m/s | -51.4°C | 4.0% | 40.0hPa | 2.7V | 03:42:00 | 01:36:04 | 00:00:00 | |
| DB0NH | 2026-08-31 18:05:13 | 49.64663 | 8.57017 | 161° | 18km/h | 22434m | 5.1m/s | -51.4°C | 4.0% | 40.1hPa | 2.7V | 00:00:00 | 01:36:03 | 00:00:00 | |
| DL4BBY-15 | 2026-08-31 18:05:12 | 49.64665 | 8.57015 | 155° | 15km/h | 22429m | 4.7m/s | -50.0°C | 0% | 0hPa | 2.7V | 00:00:00 | 00:00:00 | 00:00:00 | |
| DL1XH1-15 | 2026-08-31 18:05:11 | 49.64678 | 8.57001 | 127° | 9km/h | 22399m | 4.5m/s | -51.7°C | 3.9% | 40.3hPa | 2.7V | 03:42:34 | 01:35:56 | 00:00:00 | |
| SONCRA | 2026-08-31 18:05:10 | 49.64673 | 8.57009 | 147° | 9km/h | 22414m | 4.8m/s | -51.5°C | 1.2% | 40.3hPa | 2.6V | 00:00:00 | 00:00:00 | 00:00:00 | |
| DL1NUX | 2026-08-31 18:05:09 | 49.64682 | 8.56997 | 149° | 13km/h | 22389m | 4.2m/s | -51.8°C | 4% | 40.4hPa | 2.6V | 03:42:36 | 01:35:54 | 00:00:00 | |
| DL1XH-west | 2026-08-31 18:05:07 | 49.64677 | 8.57004 | 120° | 9km/h | 22404m | 4.1m/s | -51.6°C | 0.8% | 40.3hPa | 2.7V | 03:43:18 | 01:35:57 | 00:00:00 | |
| BIOWL1-15 | 2026-08-31 18:05:03 | 49.64685 | 8.56994 | 147° | 15km/h | 22385m | 4.1m/s | -51.8°C | 1% | 40.4hPa | 2.6V | 03:43:18 | 01:35:53 | 00:00:00 | |
| DO3MHA-11 | 2026-08-31 18:05:03 | 49.64684 | 8.56994 | 147° | 18km/h | 22386m | 4.0m/s | -51.8°C | 4.1% | 40.4hPa | 2.7V | 00:00:00 | 01:35:53 | 00:00:00 | |
| DB0UT-7 | 2026-08-31 18:05:02 | 49.64688 | 8.56990 | 139° | 18km/h | 22381m | 5.6m/s | -51.8°C | 4.1% | 40.4hPa | 2.7V | 00:00:00 | 01:35:52 | 00:00:00 | |
| DL1XH1-15 | 2026-08-31 18:05:01 | 49.64706 | 8.56955 | 115° | 18km/h | 22351m | 5.2m/s | -52°C | 4.1% | 40.6hPa | 2.7V | 03:42:44 | 01:35:46 | 00:00:00 | |
| HTAHTA | 2026-08-31 18:05:01 | 49.64690 | 8.56986 | 129° | 16km/h | 22376m | 4.7m/s | -51.9°C | -1.0% | 40.5hPa | 2.6V | 00:00:00 | 00:00:00 | 00:00:00 | |
| DM0DOS-11 | 2026-08-31 18:05:00 | 49.64700 | 8.56968 | 130° | 22km/h | 22361m | 4m/s | -51.9°C | 4.1% | 40.6hPa | 2.6V | 03:42:42 | 01:35:48 | 00:00:00 | |
| DL1XH-west | 2026-08-31 18:04:57 | 49.64704 | 8.56962 | 125° | 20km/h | 22356m | 4.7m/s | -52°C | 1% | 40.6hPa | 2.6V | 03:43:18 | 01:35:47 | 00:00:00 | |
| BIOWL1-15 | 2026-08-31 18:04:55 | 49.64711 | 8.56937 | 116° | 15km/h | 22338m | 5m/s | -52.2°C | 0.9% | 40.7hPa | 2.6V | 03:43:18 | 01:35:43 | 00:00:00 | |
| DJTTGO | 2026-08-31 18:04:55 | 49.64708 | 8.56949 | 109° | 16km/h | 22347m | 3.8m/s | -52.1°C | 1.3% | 40.7hPa | 2.6V | 03:43:00 | 00:00:00 | 00:00:00 | |
| BIOWL7-15 | 2026-08-31 18:04:54 | 49.64708 | 8.56949 | 109° | 16km/h | 22347m | 3.8m/s | -52.1°C | 1.3% | 40.7hPa | 2.6V | 03:43:00 | 00:00:00 | 00:00:00 | |
| DO3MHA-11 | 2026-08-31 18:04:53 | 49.64710 | 8.56937 | 116° | 15km/h | 22338m | 4.9m/s | -52.1°C | 4.1% | 40.7hPa | 2.6V | 00:00:00 | 01:35:43 | 00:00:00 | |
| DK5PH-5 | 2026-08-31 18:04:52 | 49.64712 | 8.56932 | 124° | 20km/h | 22334m | 4.1m/s | -52.1°C | 4.1% | 40.7hPa | 2.6V | 00:00:00 | 01:35:42 | 00:00:00 | |
| DL1XH1-15 | 2026-08-31 18:04:51 | 49.64721 | 8.56909 | 127° | 20km/h | 22306m | 3.9m/s | -52.4°C | 4.1% | 40.9hPa | 2.6V | 03:42:54 | 01:35:36 | 00:00:00 | |
| DM0DOS-11 | 2026-08-31 18:04:50 | 49.64717 | 8.56918 | 118° | 11km/h | 22315m | 4.7m/s | -52.4°C | 4.1% | 40.9hPa | 2.6V | 03:42:52 | 01:35:38 | 00:00:00 | |
| DL8DAS-14 | 2026-08-31 18:04:48 | 49.64719 | 8.56914 | 126° | 15km/h | 22310m | 5.1m/s | -52.4°C | 1.3% | 40.9hPa | 2.6V | 00:00:00 | 00:00:00 | 00:00:00 | |
| DO2KSM | 2026-08-31 18:04:47 | 49.64717 | 8.56918 | 120° | 11km/h | 22315m | 4.7m/s | 0°C | 0% | 0hPa | 2.6V | 00:00:00 | 00:00:00 | 00:00:00 | |
| DL1NUX | 2026-08-31 18:04:46 | 49.64734 | 8.56867 | 114° | 27km/h | 22281m | 5.4m/s | -52.6°C | 4.1% | 41.1hPa | 2.6V | 03:42:59 | 01:35:31 | 00:00:00 | |
| DL1XH-west | 2026-08-31 18:04:46 | 49.64721 | 8.56909 | 128° | 20km/h | 22306m | 3.9m/s | -52.4°C | 0.9% | 41hPa | 2.6V | 03:43:18 | 01:35:36 | 00:00:00 | |
| BIOWL1-15 | 2026-08-31 18:04:42 | 49.64732 | 8.56876 | 112° | 26km/h | 22286m | 5.2m/s | -52.5°C | 0.9% | 41.1hPa | 2.6V | 03:43:18 | 01:35:32 | 00:00:00 | |
| BIOWL1-15 | 2026-08-31 18:04:38 | 49.64742 | 8.56800 | 77° | 16km/h | 22239m | 4.3m/s | -53°C | 1.2% | 41.4hPa | 2.6V | 03:43:18 | 01:35:22 | 00:00:00 | |
| DL1XH-west | 2026-08-31 18:04:36 | 49.64743 | 8.56825 | 95° | 18km/h | 22258m | 5.4m/s | -52.9°C | 1.1% | 41.2hPa | 2.6V | 03:43:18 | 01:35:26 | 00:00:00 | |
| KANTATE | 2026-08-31 18:04:35 | 49.64743 | 8.56825 | 96° | 18km/h | 22258m | 5.4m/s | -52.9°C | 1.3% | 41.2hPa | 2.6V | 00:00:00 | 00:00:00 | 00:00:00 | |
| DO3MHA-11 | 2026-08-31 18:04:33 | 49.64743 | 8.56806 | 81° | 22km/h | 22244m | 5.5m/s | -53.0°C | 4.4% | 41.3hPa | 2.6V | 03:43:00 | 01:35:23 | 00:00:00 | |
| DB0UT-7 | 2026-08-31 18:04:32 | 49.64742 | 8.56800 | 77° | 15km/h | 22239m | 4.3m/s | -52.9°C | 4.5% | 41.3hPa | 2.6V | 00:00:00 | 00:00:00 | 00:00:00 | |
| DL1XH1-15 | 2026-08-31 18:04:31 | 49.64743 | 8.56748 | 88° | 29km/h | 22211m | 4.6m/s | -53°C | 4.3% | 41.5hPa | 2.6V | 03:43:14 | 01:35:16 | 00:00:00 | |
| DM0DOS-11 | 2026-08-31 18:04:30 | 49.64743 | 8.56770 | 98° | 26km/h | 22221m | 4.2m/s | -53°C | 4.3% | 41.5hPa | 2.6V | 03:43:12 | 01:35:18 | 00:00:00 | |
| DL1XH-west | 2026-08-31 18:04:25 | 49.64743 | 8.56737 | 85° | 29km/h | 22206m | 4.3m/s | -53.1°C | 1.1% | 41.6hPa | 2.7V | 03:43:18 | 01:35:15 | 00:00:00 | |
| HSKMA3-T | 2026-08-31 18:04:23 | 49.64742 | 8.56716 | 86° | 26km/h | 22197m | 4.8m/s | 0°C | 0% | 0hPa | 2.7V | 03:44:09 | 01:35:13 | 00:00:00 | |
| DO3MHA-11 | 2026-08-31 18:04:23 | 49.64742 | 8.56716 | 87° | 15km/h | 22198m | 4.7m/s | -53.0°C | 4.3% | 41.6hPa | 2.6V | 00:00:00 | 01:35:13 | 00:00:00 | |
| DK5PH-5 | 2026-08-31 18:04:22 | 49.64742 | 8.56707 | 87° | 15km/h | 22193m | 4.4m/s | -53.0°C | 4.4% | 41.6hPa | 2.6V | 00:00:00 | 01:35:12 | 00:00:00 | |
| DL1XH1-15 | 2026-08-31 18:04:21 | 49.64728 | 8.56684 | 27° | 11km/h | 22164m | 5.5m/s | -53°C | 4.3% | 41.9hPa | 2.6V | 03:43:24 | 01:35:06 | 00:00:00 | |
| BIOWL1-15 | 2026-08-31 18:04:21 | 49.64741 | 8.56700 | 78° | 16km/h | 22189m | 3.9m/s | -53°C | 1.1% | 41.7hPa | 2.6V | 03:44:09 | 01:35:11 | 00:00:00 | |
| DM0DOS-11 | 2026-08-31 18:04:20 | 49.64734 | 8.56688 | 21° | 15km/h | 22174m | 4.3m/s | -53°C | 4.3% | 41.8hPa | 2.7V | 03:43:22 | 01:35:08 | 00:00:00 | |
| BIOWL1-15 | 2026-08-31 18:04:16 | 49.64721 | 8.56659 | 84° | 11km/h | 22135m | 5.5m/s | -52.9°C | 0.9% | 42hPa | 2.6V | 03:44:09 | 01:35:00 | 00:00:00 | |
| DL1XH-west | 2026-08-31 18:04:14 | 49.64724 | 8.56678 | 67° | 11km/h | 22154m | 4.8m/s | -53°C | 1% | 41.9hPa | 2.7V | 03:44:09 | 01:35:04 | 00:00:00 | |
| DJTTGO | 2026-08-31 18:04:13 | 49.64723 | 8.56673 | 75° | 13km/h | 22149m | 5.0m/s | -52.9°C | 1.3% | 42.0hPa | 2.6V | 00:00:00 | 00:00:00 | 00:00:00 | |
| BIOWL7-15 | 2026-08-31 18:04:12 | 49.64722 | 8.56668 | 76° | 13km/h | 22145m | 4.2m/s | -52.9°C | 1.3% | 42.0hPa | 2.6V | 03:44:00 | 00:00:00 | 00:00:00 | |
| DL1XH1-15 | 2026-08-31 18:04:11 | 49.64718 | 8.56643 | 56° | 15km/h | 22115m | 5m/s | -53.3°C | 4.4% | 42.1hPa | 2.6V | 03:43:34 | 01:34:56 | 00:00:00 | |
| HSKMA3-T | 2026-08-31 18:04:07 | 49.64720 | 8.56648 | 67° | 13km/h | 22121m | 5.6m/s | 0°C | 0% | 0hPa | 2.7V | 03:44:09 | 01:34:57 | 00:00:00 | |
| DL1XH-west | 2026-08-31 18:04:04 | 49.64712 | 8.56634 | 38° | 15km/h | 22106m | 5.6m/s | -53.5°C | 1.2% | 42.2hPa | 2.6V | 03:44:09 | 01:34:54 | 00:00:00 | |
| DO3MHA-11 | 2026-08-31 18:04:03 | 49.64709 | 8.56631 | 26° | 15km/h | 22100m | 5.6m/s | -53.4°C | 4.6% | 42.2hPa | 2.6V | 00:00:00 | 01:34:53 | 00:00:00 | |
| HEMX73-11 | 2026-08-31 18:04:02 | 49.64709 | 8.56631 | 27° | 13km/h | 22100m | 5.6m/s | -53.5°C | 1.4% | 42.3hPa | 2.6V | 03:44:00 | 00:00:00 | 00:00:00 | |
| SONDE2-11 | 2026-08-31 18:04:01 | 49.64699 | 8.56626 | 14° | 15km/h | 22085m | 5.3m/s | -53.4°C | 1.4% | 42.4hPa | 2.6V | 00:00:00 | 00:00:00 | 00:00:00 | |
| DM0DOS-11 | 2026-08-31 18:04:00 | 49.64693 | 8.56624 | 6° | 11km/h | 22074m | 6.3m/s | -53.3°C | 4.4% | 42.4hPa | 2.6V | 03:43:42 | 01:34:48 | 00:00:00 | |
| BIOWL1-15 | 2026-08-31 18:03:59 | 49.64696 | 8.56625 | 12° | 13km/h | 22079m | 4.7m/s | -53.3°C | 1.2% | 42.4hPa | 2.6V | 03:44:09 | 01:34:49 | 00:00:00 | |
| HSKMA3-T | 2026-08-31 18:03:53 | 49.64675 | 8.56620 | 9° | 20km/h | 22047m | 4.9m/s | 0°C | 0% | 0hPa | 2.7V | 03:44:09 | 01:34:43 | 00:00:00 | |
| DL1ZP-14 | 2026-08-31 18:03:51 | 49.64665 | 8.56618 | 3° | 18km/h | 22036m | 5.2m/s | -53.3°C | 1.4% | 42.7hPa | 2.6V | 00:00:00 | 00:00:00 | 00:00:00 | |
| DM0DOS-11 | 2026-08-31 18:03:50 | 49.64649 | 8.56612 | 20° | 11km/h | 22014m | 5.9m/s | -53.2°C | 4.4% | 42.9hPa | 2.7V | 03:43:53 | 01:34:37 | 00:00:00 | |
| BIOWL1-15 | 2026-08-31 18:03:48 | 49.64652 | 8.56614 | 21° | 15km/h | 22020m | 4.6m/s | -53.2°C | 1.2% | 42.8hPa | 2.7V | 03:44:09 | 01:34:38 | 00:00:00 | |
| DL8DAS-14 | 2026-08-31 18:03:45 | 49.64646 | 8.56610 | 15° | 2km/h | 22004m | 4.4m/s | -53.1°C | 1.4% | 42.9hPa | 2.7V | 00:00:00 | 00:00:00 | 00:00:00 | |
| DL1XH-west | 2026-08-31 18:03:42 | 49.64644 | 8.56608 | 29° | 7km/h | 21988m | 4.6m/s | -53°C | 1.1% | 43hPa | 2.7V | 03:44:09 | 01:34:32 | 00:00:00 | |
| DL4BBY-15 | 2026-08-31 18:03:42 | 49.64644 | 8.56608 | 29° | 5km/h | 21987m | 4.6m/s | -51.6°C | 0% | 0hPa | 2.7V | 00:00:00 | 00:00:00 | 00:00:00 | |
| HSKMA3-T | 2026-08-31 18:03:41 | 49.64642 | 8.56607 | 12° | 9km/h | 21983m | 4.4m/s | 0°C | 0% | 0hPa | 2.7V | 03:44:09 | 01:34:31 | 00:00:00 | |
| DO3DL | 2026-08-31 18:03:41 | 49.64644 | 8.56608 | 30° | 7km/h | 21988m | 4.6m/s | -53.0°C | 1.3% | 43.0hPa | 2.7V | 03:44:00 | 00:00:00 | 00:00:00 | |
| DL1NUX | 2026-08-31 18:03:41 | 49.64628 | 8.56613 | 350° | 13km/h | 21955m | 5.2m/s | -53.2°C | 4.5% | 43.2hPa | 2.7V | 03:44:04 | 01:34:26 | 00:00:00 | |
| DM0DOS-11 | 2026-08-31 18:03:40 | 49.64632 | 8.56612 | 343° | 15km/h | 21960m | 6.2m/s | -53.3°C | 4.5% | 43.2hPa | 2.7V | 03:44:03 | 01:34:27 | 00:00:00 | |
| BIOWL1-15 | 2026-08-31 18:03:40 | 49.64635 | 8.56610 | 336° | 13km/h | 21966m | 5.2m/s | -53.2°C | 1.1% | 43.2hPa | 2.6V | 03:44:09 | 01:34:28 | 00:00:00 | |
| DJ2DS-15 | 2026-08-31 18:03:40 | 49.64640 | 8.56607 | 355° | 9km/h | 21978m | 6.2m/s | -53.0°C | 4.3% | 43.0hPa | 2.7V | 03:44:00 | 01:34:30 | 00:00:00 | |
| DL8DAS-15 | 2026-08-31 18:03:39 | 49.64640 | 8.56607 | 355° | 9km/h | 21978m | 6.3m/s | -53.0°C | 1.4% | 43.1hPa | 2.7V | 03:44:00 | 00:00:00 | 00:00:00 | |
| DL8OAI-8 | 2026-08-31 18:03:38 | 49.64637 | 8.56608 | 338° | 11km/h | 21972m | 5.9m/s | -53.1°C | 1.4% | 43.1hPa | 2.7V | 00:00:00 | 00:00:00 | 00:00:00 | |
| SONCRA | 2026-08-31 18:03:37 | 49.64628 | 8.56613 | 350° | 13km/h | 21955m | 5.2m/s | -53.3°C | 1.4% | 43.2hPa | 2.7V | 00:00:00 | 00:00:00 | 00:00:00 | |
| DF3TZ-5 | 2026-08-31 18:03:36 | 49.64628 | 8.56613 | 350° | 13km/h | 21955m | 5.2m/s | -53.3°C | 1.4% | 43.2hPa | 2.7V | 00:00:00 | 00:00:00 | 00:00:00 | |
| NBG1-10 | 2026-08-31 18:03:35 | 49.64625 | 8.56614 | 351° | 5km/h | 21950m | 4.9m/s | -53.2°C | 4.5% | 43.2hPa | 2.7V | 00:00:00 | 01:34:25 | 00:00:00 | |
| SFWM-10 | 2026-08-31 18:03:34 | 49.64625 | 8.56614 | 352° | 11km/h | 21950m | 4.9m/s | -53.2°C | 1.4% | 43.3hPa | 2.7V | 00:00:00 | 00:00:00 | 00:00:00 | |
| DO3MHA-11 | 2026-08-31 18:03:33 | 49.64621 | 8.56616 | 312° | 5km/h | 21938m | 5.6m/s | -53.2°C | 4.4% | 43.3hPa | 2.7V | 00:00:00 | 01:34:23 | 00:00:00 | |
| DB0UT-7 | 2026-08-31 18:03:32 | 49.64620 | 8.56618 | 297° | 5km/h | 21932m | 5.5m/s | -53.1°C | 4.3% | 43.4hPa | 2.7V | 00:00:00 | 00:00:00 | 00:00:00 | |
| DL1NUX | 2026-08-31 18:03:31 | 49.64618 | 8.56627 | 317° | 7km/h | 21899m | 5.6m/s | -53°C | 4.4% | 43.6hPa | 2.7V | 03:44:14 | 01:34:16 | 00:00:00 | |
| DL1XH-west | 2026-08-31 18:03:31 | 49.64620 | 8.56619 | 308° | 2km/h | 21926m | 6.5m/s | -53.1°C | 1.1% | 43.4hPa | 2.7V | 03:44:09 | 01:34:21 | 00:00:00 | |
| DM0DOS-11 | 2026-08-31 18:03:30 | 49.64619 | 8.56625 | 296° | 7km/h | 21904m | 4.5m/s | -53°C | 4.4% | 43.6hPa | 2.6V | 03:44:13 | 01:34:17 | 00:00:00 | |
| HSKMA3-T | 2026-08-31 18:03:29 | 49.64620 | 8.56621 | 272° | 4km/h | 21915m | 5.5m/s | 0°C | 0% | 0hPa | 2.6V | 18:12:15 | 01:34:19 | 00:00:00 | |
| BIOWL1-15 | 2026-08-31 18:03:28 | 49.64620 | 8.56622 | 282° | 5km/h | 21909m | 5.8m/s | -53°C | 1.2% | 43.5hPa | 2.6V | 03:45:00 | 01:34:18 | 00:00:00 | |
| HTAHTA | 2026-08-31 18:03:28 | 49.64620 | 8.56622 | 281° | 4km/h | 21910m | 5.8m/s | -53.0°C | -1.0% | 43.5hPa | 2.6V | 00:00:00 | 00:00:00 | 00:00:00 | |
| DO3DL | 2026-08-31 18:03:27 | 49.64619 | 8.56622 | 283° | 5km/h | 21910m | 5.8m/s | -53.0°C | 1.4% | 43.5hPa | 2.6V | 03:45:00 | 00:00:00 | 00:00:00 | |
| DB0NH | 2026-08-31 18:03:26 | 49.64618 | 8.56627 | 318° | 5km/h | 21900m | 5.5m/s | -53.0°C | 4.4% | 43.6hPa | 2.6V | 00:00:00 | 01:34:16 | 00:00:00 | |
| DJ2DS-15 | 2026-08-31 18:03:25 | 49.64616 | 8.56629 | 338° | 9km/h | 21893m | 6.3m/s | -53.0°C | 1.4% | 43.7hPa | 2.6V | 00:00:00 | 00:00:00 | 00:00:00 | |
| DB0UT-9 | 2026-08-31 18:03:24 | 49.64616 | 8.56629 | 339° | 9km/h | 21893m | 6.3m/s | -53.0°C | 1.4% | 43.7hPa | 2.6V | 03:45:00 | 00:00:00 | 00:00:00 | |
| DO3MHA-11 | 2026-08-31 18:03:23 | 49.64611 | 8.56630 | 346° | 5km/h | 21883m | 5.3m/s | -52.9°C | 4.5% | 43.7hPa | 2.6V | 00:00:00 | 01:34:13 | 00:00:00 | |
| DK5PH-5 | 2026-08-31 18:03:22 | 49.64608 | 8.56632 | 338° | 5km/h | 21877m | 6.3m/s | -52.8°C | 4.5% | 43.7hPa | 2.6V | 00:00:00 | 01:34:12 | 00:00:00 | |
| HEMX73-11 | 2026-08-31 18:03:21 | 49.64608 | 8.56632 | 338° | 11km/h | 21877m | 6.3m/s | -52.9°C | 1.4% | 43.8hPa | 2.6V | 03:45:00 | 00:00:00 | 00:00:00 | |
| DM0DOS-11 | 2026-08-31 18:03:20 | 49.64601 | 8.56637 | 293° | 0km/h | 21850m | 5.3m/s | -52.7°C | 4.2% | 44hPa | 2.6V | 03:44:23 | 01:34:07 | 00:00:00 | |
| DL1XH-west | 2026-08-31 18:03:20 | 49.64603 | 8.56636 | 333° | 9km/h | 21866m | 5.8m/s | -52.8°C | 1.1% | 43.9hPa | 2.7V | 03:45:00 | 01:34:10 | 00:00:00 | |
| BIOWL1-15 | 2026-08-31 18:03:17 | 49.64601 | 8.56637 | 294° | 0km/h | 21850m | 5.3m/s | -52.7°C | 1% | 44hPa | 2.6V | 03:45:00 | 01:34:07 | 00:00:00 | |
| DL8DAS-14 | 2026-08-31 18:03:14 | 49.64601 | 8.56640 | 245° | 4km/h | 21833m | 5.7m/s | -52.7°C | 1.3% | 44.1hPa | 2.6V | 00:00:00 | 00:00:00 | 00:00:00 | |
| DO3MHA-11 | 2026-08-31 18:03:13 | 49.64601 | 8.56641 | 224° | 4km/h | 21827m | 5.9m/s | -52.6°C | 4.3% | 44.1hPa | 2.6V | 03:44:00 | 01:34:03 | 00:00:00 | |
| KANTATE | 2026-08-31 18:03:12 | 49.64601 | 8.56641 | 224° | 2km/h | 21827m | 5.9m/s | -52.7°C | 1.3% | 44.1hPa | 2.6V | 03:45:00 | 00:00:00 | 00:00:00 | |
| DM0DOS-11 | 2026-08-31 18:03:10 | 49.64598 | 8.56643 | 34° | 5km/h | 21792m | 5.6m/s | -52.7°C | 4.3% | 44.3hPa | 2.6V | 03:44:33 | 01:33:57 | 00:00:00 | |
| DL1XH1-15 | 2026-08-31 18:03:10 | 49.64597 | 8.56642 | 39° | 5km/h | 21786m | 6m/s | -52.7°C | 4.3% | 44.4hPa | 2.6V | 03:44:34 | 01:33:56 | 00:00:00 | |
| DL1XH-west | 2026-08-31 18:03:10 | 49.64601 | 8.56642 | 325° | 4km/h | 21810m | 5.8m/s | -52.7°C | 1% | 44.2hPa | 2.7V | 03:45:00 | 01:34:00 | 00:00:00 | |
| BIOWL1-15 | 2026-08-31 18:03:06 | 49.64597 | 8.56642 | 40° | 5km/h | 21786m | 6m/s | -52.7°C | 1% | 44.4hPa | 2.6V | 03:45:00 | 01:33:56 | 00:00:00 | |
| HSKMA3-T | 2026-08-31 18:03:01 | 49.64593 | 8.56634 | 90° | 7km/h | 21758m | 5.5m/s | 0°C | 0% | 0hPa | 2.6V | 18:12:15 | 01:33:51 | 00:00:00 | |
| DL1XH1-15 | 2026-08-31 18:03:00 | 49.64591 | 8.56625 | 55° | 7km/h | 21729m | 5.5m/s | -52.6°C | 4.2% | 44.8hPa | 2.6V | 03:44:44 | 01:33:46 | 00:00:00 | |
| DM0DOS-11 | 2026-08-31 18:03:00 | 49.64592 | 8.56626 | 53° | 5km/h | 21735m | 6.3m/s | -52.6°C | 4.3% | 44.8hPa | 2.6V | 03:44:43 | 01:33:47 | 00:00:00 | |
| DL1XH-west | 2026-08-31 18:03:00 | 49.64593 | 8.56631 | 92° | 7km/h | 21752m | 5.1m/s | -52.6°C | 1.1% | 44.6hPa | 2.7V | 03:45:00 | 01:33:50 | 00:00:00 | |
| BIOWL1-15 | 2026-08-31 18:02:56 | 49.64591 | 8.56625 | 56° | 7km/h | 21729m | 5.5m/s | -52.6°C | 1% | 44.8hPa | 2.6V | 03:45:00 | 01:33:46 | 00:00:00 | |
| DO3DL | 2026-08-31 18:02:54 | 49.64590 | 8.56623 | 43° | 7km/h | 21724m | 5.0m/s | -52.6°C | 1.3% | 44.8hPa | 2.7V | 03:45:00 | 00:00:00 | 00:00:00 | |
| DO3MHA-11 | 2026-08-31 18:02:53 | 49.64587 | 8.56620 | 10° | 7km/h | 21712m | 5.3m/s | -52.6°C | 4.2% | 44.8hPa | 2.7V | 00:00:00 | 01:33:43 | 00:00:00 | |
| DM0DOS-11 | 2026-08-31 18:02:52 | 49.64582 | 8.56610 | 58° | 5km/h | 21678m | 4.8m/s | -52.8°C | 4.3% | 45.1hPa | 2.7V | 03:44:53 | 01:33:37 | 00:00:00 | |
| HSKMA3-T | 2026-08-31 18:02:50 | 49.64583 | 8.56616 | 72° | 7km/h | 21695m | 4.9m/s | 0°C | 0% | 0hPa | 2.6V | 18:12:15 | 01:33:40 | 00:00:00 | |
| DL1XH-west | 2026-08-31 18:02:49 | 49.64583 | 8.56614 | 78° | 5km/h | 21690m | 5.5m/s | -52.7°C | 1% | 45hPa | 2.7V | 03:45:00 | 01:33:39 | 00:00:00 | |
| DJ2DS-15 | 2026-08-31 18:02:49 | 49.64583 | 8.56614 | 77° | 5km/h | 21690m | 5.5m/s | -52.7°C | 1.3% | 45.0hPa | 2.6V | 00:00:00 | 00:00:00 | 00:00:00 | |
| DL1XH1-15 | 2026-08-31 18:02:48 | 49.64581 | 8.56608 | 62° | 7km/h | 21673m | 5.6m/s | -52.8°C | 4.3% | 45.2hPa | 2.6V | 03:44:54 | 01:33:36 | 00:00:00 | |
| BIOWL1-15 | 2026-08-31 18:02:45 | 49.64580 | 8.56604 | 63° | 11km/h | 21667m | 6.2m/s | -52.7°C | 1.1% | 45.2hPa | 2.6V | 03:45:00 | 01:33:35 | 00:00:00 | |
| DO3MHA-11 | 2026-08-31 18:02:43 | 49.64576 | 8.56596 | 43° | 11km/h | 21656m | 5.8m/s | -52.6°C | 4.2% | 45.3hPa | 2.7V | 00:00:00 | 01:33:33 | 00:00:00 | |
| DM0DOS-11 | 2026-08-31 18:02:42 | 49.64560 | 8.56582 | 31° | 11km/h | 21624m | 5.8m/s | -52.7°C | 4.2% | 45.5hPa | 2.6V | 03:45:03 | 01:33:27 | 00:00:00 | |
| DL1XH-west | 2026-08-31 18:02:39 | 49.64565 | 8.56588 | 33° | 13km/h | 21634m | 5.8m/s | -52.7°C | 1% | 45.5hPa | 2.7V | 03:45:51 | 01:33:29 | 00:00:00 | |
| DL1KLB | 2026-08-31 18:02:38 | 49.64565 | 8.56588 | 34° | 13km/h | 21635m | 5.8m/s | -52.7°C | 1.3% | 45.5hPa | 2.6V | 03:45:00 | 00:00:00 | 00:00:00 | |
| DL1XH1-15 | 2026-08-31 18:02:36 | 49.64558 | 8.56581 | 18° | 11km/h | 21618m | 6.4m/s | -52.7°C | 4.2% | 45.5hPa | 2.6V | 03:45:04 | 01:33:26 | 00:00:00 | |
| BIOWL1-15 | 2026-08-31 18:02:36 | 49.64553 | 8.56579 | 16° | 11km/h | 21607m | 4.8m/s | -52.7°C | 1.1% | 45.6hPa | 2.7V | 03:45:51 | 01:33:24 | 00:00:00 | |
| DL1XH-west | 2026-08-31 18:02:28 | 49.64539 | 8.56561 | 53° | 13km/h | 21575m | 5.4m/s | -52.8°C | 1.1% | 45.9hPa | 2.7V | 03:45:51 | 01:33:18 | 00:00:00 | |
| DL1XH1-15 | 2026-08-31 18:02:26 | 49.64536 | 8.56552 | 58° | 15km/h | 21564m | 4.5m/s | -52.9°C | 4.4% | 45.9hPa | 2.6V | 03:45:14 | 01:33:16 | 00:00:00 | |
| BIOWL1-15 | 2026-08-31 18:02:23 | 49.64529 | 8.56542 | 23° | 11km/h | 21548m | 5.1m/s | -53.1°C | 1.1% | 46.1hPa | 2.7V | 03:45:51 | 01:33:13 | 00:00:00 | |
| SO1NDE-10 | 2026-08-31 18:02:23 | 49.64529 | 8.56542 | 23° | 16km/h | 21548m | 5.1m/s | -53.0°C | 4.4% | 46.0hPa | 2.7V | 03:45:00 | 01:33:13 | 00:00:00 | |
| DK5PH-5 | 2026-08-31 18:02:22 | 49.64526 | 8.56541 | 21° | 18km/h | 21543m | 5.7m/s | -53.0°C | 4.4% | 46.1hPa | 2.7V | 00:00:00 | 01:33:12 | 00:00:00 | |
| DL1NUX | 2026-08-31 18:02:21 | 49.64512 | 8.56528 | 49° | 13km/h | 21510m | 6.5m/s | -53°C | 4.3% | 46.3hPa | 2.7V | 03:45:24 | 01:33:06 | 00:00:00 | |
| DL1XH-west | 2026-08-31 18:02:17 | 49.64514 | 8.56531 | 38° | 11km/h | 21515m | 4m/s | -53°C | 1.1% | 46.3hPa | 2.7V | 03:45:51 | 01:33:07 | 00:00:00 | |
| BIOWL1-15 | 2026-08-31 18:02:14 | 49.64504 | 8.56506 | 68° | 16km/h | 21488m | 4.5m/s | -52.9°C | 1.1% | 46.5hPa | 2.7V | 03:45:51 | 01:33:02 | 00:00:00 | |
| DO3MHA-11 | 2026-08-31 18:02:13 | 49.64506 | 8.56512 | 64° | 20km/h | 21493m | 5.7m/s | -52.9°C | 4.3% | 46.4hPa | 2.7V | 00:00:00 | 01:33:03 | 00:00:00 | |
| DL8DAS-14 | 2026-08-31 18:02:12 | 49.64504 | 8.56506 | 68° | 16km/h | 21488m | 4.5m/s | -52.9°C | 1.3% | 46.5hPa | 2.6V | 00:00:00 | 00:00:00 | 00:00:00 | |
| DN1GJH-1 | 2026-08-31 18:02:11 | 49.64505 | 8.56506 | 69° | 16km/h | 21488m | 4.5m/s | -52.9°C | 1.4% | 46.5hPa | 2.6V | 03:45:00 | 00:00:00 | 00:00:00 | |
| DL1NUX | 2026-08-31 18:02:10 | 49.64493 | 8.56456 | 66° | 20km/h | 21450m | 6.2m/s | -52.9°C | 4.2% | 46.8hPa | 2.6V | 03:45:35 | 01:32:55 | 00:00:00 | |
| DL4BBY-15 | 2026-08-31 18:02:10 | 49.64501 | 8.56492 | 72° | 26km/h | 21477m | 5.8m/s | -51.5°C | 0% | 0hPa | 2.7V | 00:00:00 | 00:00:00 | 00:00:00 | |
| DO3DL | 2026-08-31 18:02:09 | 49.64501 | 8.56492 | 72° | 22km/h | 21477m | 5.8m/s | -52.8°C | 1.3% | 46.6hPa | 2.7V | 03:45:00 | 00:00:00 | 00:00:00 | |
| DL1XH1-15 | 2026-08-31 18:02:07 | 49.64495 | 8.56462 | 68° | 18km/h | 21456m | 4.9m/s | -52.9°C | 4.3% | 46.7hPa | 2.7V | 03:45:34 | 01:32:56 | 00:00:00 | |
| DL1XH-west | 2026-08-31 18:02:07 | 49.64496 | 8.56469 | 71° | 18km/h | 21461m | 4.9m/s | -52.9°C | 1.1% | 46.7hPa | 2.7V | 03:45:51 | 01:32:57 | 00:00:00 | |
| BIOWL1-15 | 2026-08-31 18:02:02 | 49.64487 | 8.56433 | 72° | 20km/h | 21436m | 5.6m/s | -53.1°C | 1% | 46.9hPa | 2.7V | 03:45:51 | 01:32:52 | 00:00:00 | |
| DL1NUX | 2026-08-31 18:02:00 | 49.64479 | 8.56370 | 70° | 22km/h | 21400m | 4.4m/s | -53.1°C | 4.3% | 47.1hPa | 2.7V | 03:45:45 | 01:32:45 | 00:00:00 | |
| DL1XH-west | 2026-08-31 18:01:56 | 49.64481 | 8.56379 | 75° | 24km/h | 21405m | 5.6m/s | -53.1°C | 1.1% | 47.1hPa | 2.7V | 03:45:51 | 01:32:46 | 00:00:00 | |
| BIOWL1-15 | 2026-08-31 18:01:52 | 49.64471 | 8.56343 | 64° | 29km/h | 21386m | 4.9m/s | -53.1°C | 1.1% | 47.2hPa | 2.6V | 03:45:51 | 01:32:42 | 00:00:00 | |
| DK5PH-5 | 2026-08-31 18:01:52 | 49.64471 | 8.56343 | 65° | 27km/h | 21386m | 4.8m/s | -53.1°C | 4.4% | 47.2hPa | 2.7V | 03:45:00 | 01:32:42 | 00:00:00 | |
| DL1XH1-15 | 2026-08-31 18:01:51 | 49.64450 | 8.56281 | 62° | 31km/h | 21355m | 4.8m/s | -53.2°C | 4.4% | 47.5hPa | 2.7V | 03:45:54 | 01:32:36 | 00:00:00 | |
| DL1XH-west | 2026-08-31 18:01:46 | 49.64450 | 8.56281 | 62° | 31km/h | 21355m | 4.8m/s | -53.2°C | 1.1% | 47.5hPa | 2.7V | 03:46:42 | 01:32:36 | 00:00:00 | |
| BIOWL1-15 | 2026-08-31 18:01:45 | 49.64429 | 8.56235 | 54° | 31km/h | 21330m | 4.6m/s | -53.3°C | 1.1% | 47.6hPa | 2.7V | 03:46:42 | 01:32:31 | 00:00:00 | |
| DO3MHA-11 | 2026-08-31 18:01:43 | 49.64438 | 8.56253 | 52° | 29km/h | 21341m | 3.8m/s | -53.2°C | 4.4% | 47.5hPa | 2.6V | 00:00:00 | 01:32:33 | 00:00:00 | |
| DF1GD-15 | 2026-08-31 18:01:42 | 49.64438 | 8.56253 | 52° | 27km/h | 21341m | 3.9m/s | -53.2°C | 1.4% | 47.6hPa | 2.7V | 03:46:00 | 00:00:00 | 00:00:00 | |
| DL8DAS-15 | 2026-08-31 18:01:41 | 49.64434 | 8.56244 | 53° | 29km/h | 21336m | 5.8m/s | -53.3°C | 1.4% | 47.6hPa | 2.7V | 00:00:00 | 00:00:00 | 00:00:00 | |
| DL1XH1-15 | 2026-08-31 18:01:40 | 49.64406 | 8.56191 | 51° | 27km/h | 21306m | 4.7m/s | -53.3°C | 4.5% | 47.8hPa | 2.7V | 03:46:04 | 01:32:26 | 00:00:00 | |
| DL4BBY-15 | 2026-08-31 18:01:40 | 49.64424 | 8.56225 | 53° | 26km/h | 21327m | 3.5m/s | -51.9°C | 0% | 0hPa | 2.6V | 00:00:00 | 00:00:00 | 00:00:00 | |
| DJTTGO | 2026-08-31 18:01:39 | 49.64424 | 8.56225 | 54° | 31km/h | 21326m | 3.5m/s | -53.2°C | 1.4% | 47.7hPa | 2.6V | 00:00:00 | 00:00:00 | 00:00:00 | |
| DB0UT-9 | 2026-08-31 18:01:38 | 49.64419 | 8.56215 | 53° | 31km/h | 21322m | 5.3m/s | -53.3°C | 1.4% | 47.7hPa | 2.6V | 03:46:00 | 00:00:00 | 00:00:00 | |
| DL1NUX | 2026-08-31 18:01:37 | 49.64393 | 8.56157 | 64° | 22km/h | 21286m | 4.9m/s | -53.2°C | 4.5% | 48hPa | 2.6V | 03:46:08 | 01:32:22 | 00:00:00 | |
| DL1XH-west | 2026-08-31 18:01:35 | 49.64402 | 8.56182 | 57° | 27km/h | 21301m | 5.3m/s | -53.3°C | 1.2% | 47.9hPa | 2.7V | 03:46:42 | 01:32:25 | 00:00:00 | |
| BIOWL1-15 | 2026-08-31 18:01:34 | 49.64388 | 8.56141 | 62° | 24km/h | 21277m | 5.7m/s | -53.2°C | 1.3% | 48.1hPa | 2.7V | 03:46:42 | 01:32:20 | 00:00:00 | |
| DO3MHA-11 | 2026-08-31 18:01:33 | 49.64395 | 8.56164 | 64° | 26km/h | 21292m | 5.6m/s | -53.2°C | 4.5% | 47.9hPa | 2.6V | 00:00:00 | 01:32:23 | 00:00:00 | |
| DF3TZ-5 | 2026-08-31 18:01:32 | 49.64390 | 8.56149 | 63° | 20km/h | 21282m | 4.5m/s | -53.2°C | 1.4% | 48.0hPa | 2.6V | 00:00:00 | 00:00:00 | 00:00:00 | |
| DN1GJH-1 | 2026-08-31 18:01:30 | 49.64390 | 8.56149 | 65° | 22km/h | 21282m | 4.5m/s | -53.2°C | 1.4% | 48.0hPa | 2.6V | 03:46:00 | 00:00:00 | 00:00:00 | |
| DL1XH1-15 | 2026-08-31 18:01:29 | 49.64370 | 8.56112 | 30° | 26km/h | 21257m | 5.5m/s | -53°C | 4.3% | 48.2hPa | 2.6V | 03:46:14 | 01:32:16 | 00:00:00 | |
| DB0UT-7 | 2026-08-31 18:01:29 | 49.64384 | 8.56133 | 56° | 24km/h | 21272m | 4.8m/s | -53.1°C | 4.5% | 48.1hPa | 2.6V | 00:00:00 | 00:00:00 | 00:00:00 | |
| DL1NUX | 2026-08-31 18:01:27 | 49.64346 | 8.56094 | 25° | 26km/h | 21236m | 4.8m/s | -53°C | 4.3% | 48.4hPa | 2.6V | 03:46:18 | 01:32:12 | 00:00:00 | |
| DL1XH-west | 2026-08-31 18:01:25 | 49.64364 | 8.56107 | 25° | 26km/h | 21252m | 4.6m/s | -53°C | 1.1% | 48.2hPa | 2.7V | 03:46:42 | 01:32:15 | 00:00:00 | |
| BIOWL1-15 | 2026-08-31 18:01:20 | 49.64336 | 8.56086 | 30° | 20km/h | 21227m | 3.9m/s | -52.9°C | 1.1% | 48.4hPa | 2.7V | 03:46:42 | 01:32:10 | 00:00:00 | |
| DJ2DS-15 | 2026-08-31 18:01:20 | 49.64336 | 8.56086 | 31° | 24km/h | 21227m | 3.9m/s | -52.8°C | 4.3% | 48.4hPa | 2.6V | 00:00:00 | 01:32:10 | 00:00:00 | |
| DL1XH1-15 | 2026-08-31 18:01:20 | 49.64320 | 8.56062 | 48° | 26km/h | 21208m | 4.4m/s | -52.8°C | 4.4% | 48.6hPa | 2.7V | 03:46:24 | 01:32:06 | 00:00:00 | |
| DF7PN | 2026-08-31 18:01:19 | 49.64332 | 8.56081 | 38° | 18km/h | 21222m | 4.4m/s | -52.9°C | 1.4% | 48.5hPa | 2.6V | 00:00:00 | 00:00:00 | 00:00:00 | |
| DB0UT-9 | 2026-08-31 18:01:18 | 49.64332 | 8.56081 | 39° | 20km/h | 21223m | 4.4m/s | -52.9°C | 1.4% | 48.5hPa | 2.6V | 03:46:00 | 00:00:00 | 00:00:00 | |
| DL1NUX | 2026-08-31 18:01:17 | 49.64301 | 8.56040 | 22° | 24km/h | 21188m | 5.3m/s | -52.6°C | 4.3% | 48.7hPa | 2.6V | 03:46:28 | 01:32:02 | 00:00:00 | |
| DL1XH-west | 2026-08-31 18:01:15 | 49.64316 | 8.56055 | 44° | 24km/h | 21202m | 5.8m/s | -52.7°C | 1.1% | 48.6hPa | 2.7V | 03:46:42 | 01:32:05 | 00:00:00 | |
| DO3MHA-11 | 2026-08-31 18:01:13 | 49.64306 | 8.56044 | 27° | 24km/h | 21193m | 4.2m/s | -52.6°C | 4.3% | 48.6hPa | 2.6V | 03:46:00 | 01:32:03 | 00:00:00 | |
| DL1KLB | 2026-08-31 18:01:12 | 49.64306 | 8.56044 | 28° | 24km/h | 21193m | 4.3m/s | -52.7°C | 1.4% | 48.7hPa | 2.6V | 00:00:00 | 00:00:00 | 00:00:00 | |
| DL1XH1-15 | 2026-08-31 18:01:11 | 49.64268 | 8.56023 | 23° | 22km/h | 21157m | 5.5m/s | -52.6°C | 4.2% | 49hPa | 2.6V | 03:46:34 | 01:31:56 | 00:00:00 | |
| BIOWL1-15 | 2026-08-31 18:01:09 | 49.64283 | 8.56031 | 16° | 22km/h | 21173m | 6.2m/s | -52.6°C | 1% | 48.8hPa | 2.7V | 03:46:42 | 01:31:59 | 00:00:00 | |
| KANTATE | 2026-08-31 18:01:08 | 49.64283 | 8.56030 | 17° | 22km/h | 21173m | 6.2m/s | -52.6°C | 1.3% | 48.8hPa | 2.6V | 00:00:00 | 00:00:00 | 00:00:00 | |
| DM3KS-11 | 2026-08-31 18:01:06 | 49.64258 | 8.56015 | 26° | 22km/h | 21147m | 5.8m/s | -52.6°C | 1.3% | 49.0hPa | 2.6V | 00:00:00 | 00:00:00 | 00:00:00 | |
| DL1NUX | 2026-08-31 18:01:05 | 49.64235 | 8.55996 | 30° | 29km/h | 21128m | 4.7m/s | -52.9°C | 4.4% | 49.2hPa | 2.6V | 03:46:40 | 01:31:50 | 00:00:00 | |
| DL1XH-west | 2026-08-31 18:01:04 | 49.64258 | 8.56015 | 27° | 24km/h | 21147m | 5.8m/s | -52.6°C | 1% | 49hPa | 2.7V | 03:46:42 | 01:31:54 | 00:00:00 | |
| DO3MHA-11 | 2026-08-31 18:01:03 | 49.64252 | 8.56011 | 27° | 24km/h | 21142m | 4.3m/s | -52.5°C | 4.2% | 49.0hPa | 2.6V | 00:00:00 | 01:31:53 | 00:00:00 | |
| DL1XH1-15 | 2026-08-31 18:01:01 | 49.64213 | 8.55979 | 18° | 22km/h | 21109m | 4m/s | -52.9°C | 4.4% | 49.3hPa | 2.6V | 03:46:44 | 01:31:46 | 00:00:00 | |
| DF3TZ-5 | 2026-08-31 18:01:01 | 49.64235 | 8.55996 | 30° | 27km/h | 21128m | 4.7m/s | -52.9°C | 1.4% | 49.2hPa | 2.6V | 00:00:00 | 00:00:00 | 00:00:00 | |
| DJ2DS-15 | 2026-08-31 18:01:00 | 49.64235 | 8.55996 | 31° | 24km/h | 21128m | 4.6m/s | -52.8°C | 4.4% | 49.1hPa | 2.6V | 03:46:00 | 01:31:50 | 00:00:00 | |
| DM0DOS-11 | 2026-08-31 18:00:59 | 49.64202 | 8.55973 | 18° | 24km/h | 21099m | 4.7m/s | -53°C | 4.5% | 49.4hPa | 2.7V | 03:46:46 | 01:31:44 | 00:00:00 | |
| BIOWL1-15 | 2026-08-31 18:00:59 | 49.64229 | 8.55990 | 30° | 27km/h | 21123m | 4.3m/s | -52.9°C | 1.1% | 49.2hPa | 2.7V | 03:46:42 | 01:31:49 | 00:00:00 | |
| SONDE2-11 | 2026-08-31 18:00:55 | 49.64202 | 8.55973 | 18° | 22km/h | 21099m | 4.7m/s | -53.0°C | 1.4% | 49.4hPa | 2.7V | 00:00:00 | 00:00:00 | 00:00:00 | |
| DL1NUX | 2026-08-31 18:00:54 | 49.64175 | 8.55967 | 4° | 24km/h | 21074m | 6.1m/s | -53.1°C | 4.4% | 49.6hPa | 2.7V | 03:46:51 | 01:31:39 | 00:00:00 | |
| BIOWL1-15 | 2026-08-31 18:00:53 | 49.64175 | 8.55967 | 5° | 24km/h | 21074m | 6.1m/s | -53.1°C | 1.2% | 49.6hPa | 2.7V | 03:47:33 | 01:31:39 | 00:00:00 | |
| DL1XH-west | 2026-08-31 18:00:53 | 49.64196 | 8.55971 | 16° | 24km/h | 21095m | 4.3m/s | -53.1°C | 1.1% | 49.5hPa | 2.6V | 03:47:33 | 01:31:43 | 00:00:00 | |
| HTAHTA | 2026-08-31 18:00:53 | 49.64180 | 8.55968 | 0° | 22km/h | 21079m | 4.2m/s | 0°C | -1.0% | -1.0hPa | 2.6V | 00:00:00 | 00:00:00 | 00:00:00 | |
| DK5PH-5 | 2026-08-31 18:00:52 | 49.64191 | 8.55969 | 11° | 24km/h | 21090m | 5.5m/s | -53.1°C | 4.4% | 49.4hPa | 2.6V | 00:00:00 | 01:31:42 | 00:00:00 | |
| DL1KLB | 2026-08-31 18:00:51 | 49.64191 | 8.55969 | 11° | 22km/h | 21090m | 5.6m/s | -53.2°C | 1.4% | 49.5hPa | 2.6V | 03:47:00 | 00:00:00 | 00:00:00 | |
| DL1XH1-15 | 2026-08-31 18:00:50 | 49.64156 | 8.55963 | 7° | 24km/h | 21058m | 5m/s | -53°C | 4.3% | 49.7hPa | 2.6V | 03:46:54 | 01:31:36 | 00:00:00 | |
| DM0DOS-11 | 2026-08-31 18:00:49 | 49.64144 | 8.55960 | 12° | 27km/h | 21048m | 6.2m/s | -52.9°C | 4.3% | 49.8hPa | 2.7V | 03:46:56 | 01:31:34 | 00:00:00 | |
| BIOWL9-15 | 2026-08-31 18:00:48 | 49.64162 | 8.55964 | 8° | 24km/h | 21063m | 5.5m/s | -53.0°C | 1.3% | 49.7hPa | 2.6V | 00:00:00 | 00:00:00 | 00:00:00 | |
| DL8OAI-8 | 2026-08-31 18:00:47 | 49.64169 | 8.55966 | 10° | 24km/h | 21069m | 4.9m/s | -53.0°C | 1.4% | 49.6hPa | 2.6V | 00:00:00 | 00:00:00 | 00:00:00 | |
| DB0NH | 2026-08-31 18:00:46 | 49.64156 | 8.55963 | 8° | 22km/h | 21058m | 5.0m/s | -52.9°C | 4.3% | 49.7hPa | 2.6V | 00:00:00 | 01:31:36 | 00:00:00 | |
| NBG1-10 | 2026-08-31 18:00:45 | 49.64150 | 8.55962 | 10° | 20km/h | 21053m | 4.4m/s | -52.9°C | 4.3% | 49.7hPa | 2.6V | 00:00:00 | 01:31:35 | 00:00:00 | |
| DL1NUX | 2026-08-31 18:00:44 | 49.64112 | 8.55948 | 14° | 24km/h | 21022m | 4.6m/s | -52.8°C | 4.4% | 50hPa | 2.7V | 03:47:01 | 01:31:29 | 00:00:00 | |
| DL1XH-west | 2026-08-31 18:00:43 | 49.64137 | 8.55957 | 15° | 27km/h | 21042m | 5m/s | -52.9°C | 1% | 49.8hPa | 2.7V | 03:47:33 | 01:31:33 | 00:00:00 | |
| BIOWL1-15 | 2026-08-31 18:00:40 | 49.64106 | 8.55946 | 16° | 26km/h | 21017m | 5.3m/s | -52.8°C | 1.1% | 50hPa | 2.7V | 03:47:33 | 01:31:28 | 00:00:00 | |
| DJ2DS-15 | 2026-08-31 18:00:40 | 49.64118 | 8.55950 | 13° | 22km/h | 21027m | 4.4m/s | -52.7°C | 4.3% | 49.9hPa | 2.6V | 00:00:00 | 01:31:30 | 00:00:00 | |
| DM0DOS-11 | 2026-08-31 18:00:39 | 49.64081 | 8.55941 | 358° | 26km/h | 20997m | 4.4m/s | -52.8°C | 4.4% | 50.2hPa | 2.6V | 03:47:06 | 01:31:24 | 00:00:00 | |
| BIOWL7-15 | 2026-08-31 18:00:38 | 49.64112 | 8.55948 | 15° | 24km/h | 21023m | 4.6m/s | -52.8°C | 1.4% | 50.0hPa | 2.7V | 03:47:00 | 00:00:00 | 00:00:00 | |
| DJ2KF-10 | 2026-08-31 18:00:36 | 49.64093 | 8.55941 | 8° | 18km/h | 21008m | 5.5m/s | -52.8°C | 4.4% | 50.1hPa | 2.7V | 00:00:00 | 01:31:26 | 00:00:00 | |
| DM3KS-11 | 2026-08-31 18:00:35 | 49.64081 | 8.55941 | 358° | 24km/h | 20997m | 4.4m/s | -52.8°C | 1.4% | 50.2hPa | 2.7V | 00:00:00 | 00:00:00 | 00:00:00 | |
| DL1NUX | 2026-08-31 18:00:34 | 49.64050 | 8.55941 | 357° | 22km/h | 20972m | 4.6m/s | -52.7°C | 4.3% | 50.4hPa | 2.7V | 03:47:11 | 01:31:19 | 00:00:00 | |
| DL1XH-west | 2026-08-31 18:00:32 | 49.64068 | 8.55941 | 1° | 27km/h | 20987m | 4.4m/s | -52.7°C | 1.1% | 50.3hPa | 2.7V | 03:47:33 | 01:31:22 | 00:00:00 | |
| DL1KLB | 2026-08-31 18:00:31 | 49.64068 | 8.55940 | 2° | 27km/h | 20987m | 4.4m/s | -52.7°C | 1.3% | 50.3hPa | 2.7V | 03:47:00 | 00:00:00 | 00:00:00 | |
| DF3TZ-5 | 2026-08-31 18:00:30 | 49.64049 | 8.55941 | 357° | 20km/h | 20972m | 4.6m/s | -52.7°C | 1.4% | 50.4hPa | 2.7V | 00:00:00 | 00:00:00 | 00:00:00 | |
| DM0DOS-11 | 2026-08-31 18:00:29 | 49.64025 | 8.55939 | 6° | 15km/h | 20946m | 4.8m/s | -52.6°C | 4.3% | 50.6hPa | 2.7V | 03:47:16 | 01:31:14 | 00:00:00 | |
| BIOWL1-15 | 2026-08-31 18:00:27 | 49.64039 | 8.55941 | 5° | 22km/h | 20961m | 4.7m/s | -52.6°C | 1% | 50.5hPa | 2.6V | 03:47:33 | 01:31:17 | 00:00:00 | |
| DJ2DS-15 | 2026-08-31 18:00:25 | 49.64025 | 8.55939 | 6° | 13km/h | 20946m | 4.8m/s | -52.6°C | 1.3% | 50.6hPa | 2.6V | 00:00:00 | 00:00:00 | 00:00:00 | |
| DL1NUX | 2026-08-31 18:00:24 | 49.64005 | 8.55934 | 0° | 15km/h | 20922m | 5.5m/s | -52.8°C | 4.3% | 50.8hPa | 2.6V | 03:47:21 | 01:31:09 | 00:00:00 | |
| DL1XH-west | 2026-08-31 18:00:21 | 49.64013 | 8.55936 | 10° | 18km/h | 20932m | 4.4m/s | -52.7°C | 1.1% | 50.7hPa | 2.6V | 03:47:33 | 01:31:11 | 00:00:00 | |
| BIOWL1-15 | 2026-08-31 18:00:19 | 49.63997 | 8.55934 | 8° | 15km/h | 20912m | 5.6m/s | -52.8°C | 1.1% | 50.9hPa | 2.7V | 03:47:33 | 01:31:07 | 00:00:00 | |
| DM0DOS-11 | 2026-08-31 18:00:17 | 49.63982 | 8.55926 | 14° | 15km/h | 20892m | 5m/s | -52.7°C | 4.2% | 51hPa | 2.7V | 03:47:27 | 01:31:03 | 00:00:00 | |
| DF7PN | 2026-08-31 18:00:17 | 49.63993 | 8.55932 | 16° | 16km/h | 20907m | 5.3m/s | -52.7°C | 1.4% | 50.9hPa | 2.6V | 00:00:00 | 00:00:00 | 00:00:00 | |
| HEMX73-11 | 2026-08-31 18:00:16 | 49.63993 | 8.55932 | 17° | 16km/h | 20907m | 5.3m/s | -52.7°C | 1.4% | 50.9hPa | 2.6V | 03:47:00 | 00:00:00 | 00:00:00 | |
| DB0UT-9 | 2026-08-31 18:00:15 | 49.63993 | 8.55932 | 17° | 16km/h | 20907m | 5.3m/s | -52.7°C | 1.4% | 50.9hPa | 2.6V | 03:47:00 | 00:00:00 | 00:00:00 | |
| DL1NUX | 2026-08-31 18:00:14 | 49.63968 | 8.55918 | 30° | 13km/h | 20871m | 5.8m/s | -52.7°C | 4.3% | 51.2hPa | 2.6V | 03:47:31 | 01:30:59 | 00:00:00 | |
| DL1XH-west | 2026-08-31 18:00:11 | 49.63975 | 8.55923 | 21° | 16km/h | 20882m | 5.6m/s | -52.6°C | 1% | 51.1hPa | 2.7V | 03:47:33 | 01:31:01 | 00:00:00 | |
| NBG1-10 | 2026-08-31 18:00:10 | 49.63971 | 8.55921 | 27° | 15km/h | 20877m | 5.0m/s | -52.6°C | 4.2% | 51.1hPa | 2.7V | 03:47:00 | 01:31:00 | 00:00:00 | |
| DL1XH1-15 | 2026-08-31 18:00:09 | 49.63961 | 8.55911 | 34° | 11km/h | 20856m | 5.7m/s | -52.7°C | 4.3% | 51.3hPa | 2.7V | 03:47:34 | 01:30:56 | 00:00:00 | |
| DL8DAS-14 | 2026-08-31 18:00:08 | 49.63965 | 8.55915 | 33° | 9km/h | 20865m | 5.3m/s | -52.7°C | 1.3% | 51.2hPa | 2.7V | 00:00:00 | 00:00:00 | 00:00:00 | |
| DM0DOS-11 | 2026-08-31 18:00:07 | 49.63953 | 8.55905 | 11° | 9km/h | 20840m | 5.7m/s | -52.7°C | 4.2% | 51.4hPa | 2.7V | 03:47:37 | 01:30:53 | 00:00:00 | |
| BIOWL1-15 | 2026-08-31 18:00:06 | 49.63961 | 8.55911 | 35° | 11km/h | 20856m | 5.7m/s | -52.7°C | 1.1% | 51.3hPa | 2.7V | 03:48:24 | 01:30:56 | 00:00:00 | |
| DJ2KF-10 | 2026-08-31 18:00:06 | 49.63961 | 8.55911 | 35° | 16km/h | 20856m | 5.6m/s | -52.7°C | 4.3% | 51.2hPa | 2.7V | 00:00:00 | 01:30:56 | 00:00:00 | |
| DL8OAI-8 | 2026-08-31 18:00:05 | 49.63961 | 8.55911 | 36° | 11km/h | 20856m | 5.7m/s | -52.7°C | 1.4% | 51.3hPa | 2.7V | 00:00:00 | 00:00:00 | 00:00:00 | |
| DL9PN | 2026-08-31 18:00:04 | 49.63953 | 8.55905 | 11° | 9km/h | 20840m | 5.7m/s | -52.7°C | 1.3% | 51.4hPa | 2.7V | 00:00:00 | 00:00:00 | 00:00:00 | |
| DL1NUX | 2026-08-31 18:00:03 | 49.63935 | 8.55905 | 356° | 16km/h | 20814m | 5.9m/s | -52.6°C | 4.2% | 51.6hPa | 2.7V | 03:47:42 | 01:30:48 | 00:00:00 | |
| DO1YAY-16 | 2026-08-31 18:00:03 | 49.63953 | 8.55905 | 11° | 9km/h | 20840m | 5.7m/s | -52.7°C | 1.3% | 51.4hPa | 2.7V | 00:00:00 | 00:00:00 | 00:00:00 | |
| DL1XH1-15 | 2026-08-31 18:00:01 | 49.63926 | 8.55905 | 5° | 18km/h | 20804m | 5.8m/s | -52.7°C | 4.3% | 51.7hPa | 2.7V | 03:47:44 | 01:30:46 | 00:00:00 | |
| DL1XH-west | 2026-08-31 18:00:01 | 49.63947 | 8.55905 | 358° | 15km/h | 20830m | 5.9m/s | -52.7°C | 1.1% | 51.5hPa | 2.6V | 03:48:24 | 01:30:51 | 00:00:00 | |
| DF3TZ-5 | 2026-08-31 17:59:59 | 49.63935 | 8.55905 | 356° | 16km/h | 20814m | 5.9m/s | -52.6°C | 1.3% | 51.7hPa | 2.6V | 00:00:00 | 00:00:00 | 00:00:00 | |
| DM0DOS-11 | 2026-08-31 17:59:58 | 49.63914 | 8.55903 | 5° | 13km/h | 20788m | 5.4m/s | -52.9°C | 4.4% | 51.8hPa | 2.6V | 03:47:47 | 01:30:43 | 00:00:00 | |
| BIOWL1-15 | 2026-08-31 17:59:55 | 49.63922 | 8.55904 | 9° | 16km/h | 20798m | 4.6m/s | -52.7°C | 1.1% | 51.8hPa | 2.6V | 03:48:24 | 01:30:45 | 00:00:00 | |
| DL1XH-west | 2026-08-31 17:59:50 | 49.63906 | 8.55901 | 13° | 13km/h | 20773m | 5.2m/s | -52.9°C | 1.2% | 52hPa | 2.6V | 03:48:24 | 01:30:40 | 00:00:00 | |
| DJ2DS-15 | 2026-08-31 17:59:49 | 49.63896 | 8.55898 | 3° | 11km/h | 20758m | 5.0m/s | -52.8°C | 1.4% | 52.1hPa | 2.6V | 00:00:00 | 00:00:00 | 00:00:00 | |
| DM0DOS-11 | 2026-08-31 17:59:48 | 49.63879 | 8.55896 | 4° | 20km/h | 20738m | 4.4m/s | -52.7°C | 4.4% | 52.2hPa | 2.6V | 03:47:57 | 01:30:33 | 00:00:00 | |
| BIOWL1-15 | 2026-08-31 17:59:48 | 49.63884 | 8.55896 | 8° | 18km/h | 20743m | 5m/s | -52.7°C | 1.1% | 52.2hPa | 2.6V | 03:48:24 | 01:30:34 | 00:00:00 | |
| DL1XH1-15 | 2026-08-31 17:59:47 | 49.63892 | 8.55898 | 2° | 15km/h | 20753m | 4.3m/s | -52.8°C | 4.4% | 52.1hPa | 2.7V | 03:47:54 | 01:30:36 | 00:00:00 | |
| DF7PN | 2026-08-31 17:59:46 | 49.63889 | 8.55897 | 6° | 15km/h | 20748m | 6.1m/s | -52.8°C | 1.4% | 52.2hPa | 2.6V | 00:00:00 | 00:00:00 | 00:00:00 | |
| DL8OAI-8 | 2026-08-31 17:59:45 | 49.63892 | 8.55897 | 3° | 15km/h | 20754m | 4.3m/s | -52.8°C | 1.4% | 52.1hPa | 2.6V | 00:00:00 | 00:00:00 | 00:00:00 | |
| DO3MHA-11 | 2026-08-31 17:59:43 | 49.63879 | 8.55895 | 5° | 18km/h | 20738m | 4.3m/s | -52.7°C | 4.4% | 52.2hPa | 2.6V | 00:00:00 | 01:30:33 | 00:00:00 | |
| DL8DAS-15 | 2026-08-31 17:59:42 | 49.63879 | 8.55895 | 6° | 20km/h | 20738m | 4.4m/s | -52.7°C | 1.4% | 52.2hPa | 2.6V | 00:00:00 | 00:00:00 | 00:00:00 | |
| DL1XH1-15 | 2026-08-31 17:59:41 | 49.63844 | 8.55907 | 340° | 16km/h | 20702m | 5.7m/s | -52.5°C | 4.3% | 52.5hPa | 2.6V | 03:48:04 | 01:30:26 | 00:00:00 | |
| DL1XH-west | 2026-08-31 17:59:40 | 49.63864 | 8.55898 | 343° | 22km/h | 20723m | 4.6m/s | -52.6°C | 1.2% | 52.4hPa | 2.7V | 03:48:24 | 01:30:30 | 00:00:00 | |
| DJ2DS-15 | 2026-08-31 17:59:40 | 49.63864 | 8.55898 | 343° | 15km/h | 20723m | 4.6m/s | -52.6°C | 4.4% | 52.3hPa | 2.7V | 03:48:00 | 01:30:30 | 00:00:00 | |
| DM0DOS-11 | 2026-08-31 17:59:38 | 49.63834 | 8.55915 | 334° | 11km/h | 20687m | 4.6m/s | -52.4°C | 4.2% | 52.6hPa | 2.7V | 03:48:07 | 01:30:23 | 00:00:00 | |
| BIOWL1-15 | 2026-08-31 17:59:33 | 49.63835 | 8.55915 | 334° | 11km/h | 20687m | 4.6m/s | -52.4°C | 1% | 52.6hPa | 2.7V | 03:48:24 | 01:30:23 | 00:00:00 | |
| DL1NUX | 2026-08-31 17:59:33 | 49.63817 | 8.55916 | 358° | 15km/h | 20661m | 5.3m/s | -52.2°C | 4.1% | 52.9hPa | 2.7V | 03:48:12 | 01:30:18 | 00:00:00 | |
| DO3MHA-11 | 2026-08-31 17:59:33 | 49.63834 | 8.55914 | 335° | 15km/h | 20687m | 4.5m/s | -52.3°C | 4.2% | 52.6hPa | 2.7V | 00:00:00 | 01:30:23 | 00:00:00 | |
| DO1YAY-16 | 2026-08-31 17:59:32 | 49.63832 | 8.55916 | 351° | 11km/h | 20682m | 5.7m/s | -52.3°C | 1.4% | 52.7hPa | 2.7V | 00:00:00 | 00:00:00 | 00:00:00 | |
| DL1XH1-15 | 2026-08-31 17:59:31 | 49.63809 | 8.55916 | 1° | 16km/h | 20650m | 5.6m/s | -52.1°C | 4.1% | 53hPa | 2.7V | 03:48:14 | 01:30:16 | 00:00:00 | |
| DL1XH-west | 2026-08-31 17:59:29 | 49.63821 | 8.55916 | 360° | 15km/h | 20667m | 5.9m/s | -52.2°C | 1% | 52.8hPa | 2.6V | 03:48:24 | 01:30:19 | 00:00:00 | |
| DM0DOS-11 | 2026-08-31 17:59:28 | 49.63799 | 8.55918 | 331° | 11km/h | 20634m | 5m/s | -52.1°C | 4.1% | 53.1hPa | 2.6V | 03:48:17 | 01:30:13 | 00:00:00 | |
| DH7VM-15 | 2026-08-31 17:59:27 | 49.63817 | 8.55916 | 359° | 15km/h | 20661m | 5.3m/s | -52.2°C | 1.3% | 52.9hPa | 2.6V | 00:00:00 | 00:00:00 | 00:00:00 | |
| DN1GJH-1 | 2026-08-31 17:59:26 | 49.63813 | 8.55916 | 1° | 16km/h | 20656m | 5.8m/s | -52.2°C | 1.3% | 52.9hPa | 2.6V | 03:48:00 | 00:00:00 | 00:00:00 | |
| DL8OAI-8 | 2026-08-31 17:59:24 | 49.63805 | 8.55916 | 358° | 15km/h | 20645m | 3.8m/s | -52.1°C | 1.4% | 53.0hPa | 2.6V | 00:00:00 | 00:00:00 | 00:00:00 | |
| DL1NUX | 2026-08-31 17:59:23 | 49.63786 | 8.55931 | 325° | 15km/h | 20608m | 4.9m/s | -52°C | 4% | 53.3hPa | 2.6V | 03:48:22 | 01:30:08 | 00:00:00 | |
| BIOWL1-15 | 2026-08-31 17:59:23 | 49.63799 | 8.55918 | 332° | 11km/h | 20634m | 5m/s | -52.1°C | 1% | 53.1hPa | 2.6V | 03:48:24 | 01:30:13 | 00:00:00 | |
| DO3MHA-11 | 2026-08-31 17:59:23 | 49.63799 | 8.55918 | 332° | 15km/h | 20635m | 5.0m/s | -52.0°C | 4.1% | 53.0hPa | 2.6V | 00:00:00 | 01:30:13 | 00:00:00 | |
| DK5PH-5 | 2026-08-31 17:59:22 | 49.63796 | 8.55920 | 331° | 15km/h | 20629m | 5.6m/s | -52.0°C | 4.1% | 53.1hPa | 2.6V | 00:00:00 | 01:30:12 | 00:00:00 | |
| DL1XH1-15 | 2026-08-31 17:59:21 | 49.63778 | 8.55935 | 350° | 16km/h | 20597m | 5m/s | -52°C | 4.1% | 53.4hPa | 2.6V | 03:48:24 | 01:30:06 | 00:00:00 | |
| DL1XH-west | 2026-08-31 17:59:19 | 49.63789 | 8.55927 | 321° | 13km/h | 20613m | 6m/s | -52°C | 0.9% | 53.3hPa | 2.7V | 03:48:24 | 01:30:09 | 00:00:00 | |
| DM0DOS-11 | 2026-08-31 17:59:17 | 49.63762 | 8.55938 | 345° | 13km/h | 20576m | 4.7m/s | -52.3°C | 4.1% | 53.6hPa | 2.6V | 03:48:28 | 01:30:02 | 00:00:00 | |
| BIOWL1-15 | 2026-08-31 17:59:14 | 49.63762 | 8.55938 | 346° | 13km/h | 20576m | 4.7m/s | -52.3°C | 1% | 53.6hPa | 2.6V | 03:49:15 | 01:30:02 | 00:00:00 | |
| DL1NUX | 2026-08-31 17:59:13 | 49.63749 | 8.55946 | 327° | 16km/h | 20555m | 6.1m/s | -52.7°C | 4.2% | 53.8hPa | 2.7V | 03:48:32 | 01:29:58 | 00:00:00 | |
| DL1XH-west | 2026-08-31 17:59:09 | 49.63752 | 8.55943 | 334° | 15km/h | 20560m | 5.1m/s | -52.6°C | 1% | 53.7hPa | 2.7V | 03:49:15 | 01:29:59 | 00:00:00 | |
| DL1KLB | 2026-08-31 17:59:08 | 49.63752 | 8.55942 | 335° | 15km/h | 20561m | 5.1m/s | -52.6°C | 1.3% | 53.7hPa | 2.7V | 00:00:00 | 00:00:00 | 00:00:00 | |
| DM0DOS-11 | 2026-08-31 17:59:07 | 49.63723 | 8.55964 | 341° | 15km/h | 20523m | 4m/s | -52.7°C | 4.2% | 54hPa | 2.7V | 03:48:38 | 01:29:52 | 00:00:00 | |
| DL8DAS-14 | 2026-08-31 17:59:06 | 49.63740 | 8.55953 | 333° | 18km/h | 20544m | 6.2m/s | -52.7°C | 1.3% | 53.8hPa | 2.7V | 00:00:00 | 00:00:00 | 00:00:00 | |
| DN1GJH-1 | 2026-08-31 17:59:05 | 49.63740 | 8.55953 | 334° | 20km/h | 20544m | 6.2m/s | -52.7°C | 1.4% | 53.8hPa | 2.7V | 03:49:00 | 00:00:00 | 00:00:00 | |
| DJ2KF-10 | 2026-08-31 17:59:04 | 49.63731 | 8.55959 | 338° | 15km/h | 20534m | 5.2m/s | -52.6°C | 4.2% | 53.9hPa | 2.7V | 03:48:00 | 01:29:54 | 00:00:00 | |
| DL1NUX | 2026-08-31 17:59:03 | 49.63710 | 8.55965 | 2° | 13km/h | 20501m | 6.7m/s | -53°C | 4.3% | 54.2hPa | 2.7V | 03:48:42 | 01:29:48 | 00:00:00 | |
| BIOWL1-15 | 2026-08-31 17:59:02 | 49.63724 | 8.55964 | 341° | 15km/h | 20523m | 4m/s | -52.7°C | 1% | 54hPa | 2.7V | 03:49:15 | 01:29:52 | 00:00:00 | |
| DL1XH-west | 2026-08-31 17:58:58 | 49.63710 | 8.55965 | 3° | 13km/h | 20501m | 6.7m/s | -53°C | 1.1% | 54.2hPa | 2.7V | 03:49:15 | 01:29:48 | 00:00:00 | |
| BIOWL1-15 | 2026-08-31 17:58:51 | 49.63691 | 8.55963 | 2° | 7km/h | 20462m | 5.4m/s | -53.1°C | 1.1% | 54.5hPa | 2.6V | 03:49:15 | 01:29:41 | 00:00:00 | |
| DL1XH-west | 2026-08-31 17:58:48 | 49.63685 | 8.55959 | 36° | 9km/h | 20445m | 5.9m/s | -53.1°C | 1.1% | 54.7hPa | 2.7V | 03:49:15 | 01:29:38 | 00:00:00 | |
| BIOWL1-15 | 2026-08-31 17:58:41 | 49.63676 | 8.55925 | 72° | 16km/h | 20407m | 5.4m/s | -53.2°C | 1.1% | 55hPa | 2.6V | 03:49:15 | 01:29:31 | 00:00:00 | |
| DL1ZP-14 | 2026-08-31 17:58:41 | 49.63675 | 8.55920 | 71° | 15km/h | 20402m | 4.6m/s | -53.2°C | 1.4% | 55.1hPa | 2.6V | 00:00:00 | 00:00:00 | 00:00:00 | |
| DJ2DS-15 | 2026-08-31 17:58:40 | 49.63675 | 8.55919 | 72° | 16km/h | 20402m | 4.6m/s | -53.2°C | 4.3% | 55.0hPa | 2.7V | 00:00:00 | 01:29:30 | 00:00:00 | |
| DO2KSM | 2026-08-31 17:58:39 | 49.63675 | 8.55919 | 72° | 15km/h | 20402m | 4.6m/s | 0°C | 0% | 0hPa | 2.7V | 00:00:00 | 00:00:00 | 00:00:00 | |
| DM0DOS-11 | 2026-08-31 17:58:37 | 49.63665 | 8.55882 | 58° | 15km/h | 20359m | 5.5m/s | -53.5°C | 4.4% | 55.4hPa | 2.7V | 03:49:08 | 01:29:22 | 00:00:00 | |
| DL1XH-west | 2026-08-31 17:58:37 | 49.63671 | 8.55902 | 72° | 15km/h | 20386m | 5.4m/s | -53.3°C | 1.1% | 55.2hPa | 2.7V | 03:49:15 | 01:29:27 | 00:00:00 | |
| DL1XH1-15 | 2026-08-31 17:58:36 | 49.63670 | 8.55897 | 70° | 11km/h | 20380m | 6.3m/s | -53.3°C | 4.3% | 55.2hPa | 2.7V | 03:49:04 | 01:29:26 | 00:00:00 | |
| BIOWL1-15 | 2026-08-31 17:58:31 | 49.63663 | 8.55877 | 55° | 16km/h | 20353m | 6.2m/s | -53.6°C | 1.2% | 55.5hPa | 2.7V | 03:49:15 | 01:29:21 | 00:00:00 | |
| NBG1-10 | 2026-08-31 17:58:31 | 49.63663 | 8.55877 | 56° | 20km/h | 20353m | 6.1m/s | -53.5°C | 4.4% | 55.4hPa | 2.6V | 00:00:00 | 01:29:21 | 00:00:00 | |
| DO1YAY-16 | 2026-08-31 17:58:30 | 49.63660 | 8.55872 | 51° | 16km/h | 20347m | 5.2m/s | -53.6°C | 1.4% | 55.5hPa | 2.6V | 00:00:00 | 00:00:00 | 00:00:00 | |
| DM7RM-13 | 2026-08-31 17:58:29 | 49.63660 | 8.55872 | 53° | 18km/h | 20347m | 5.2m/s | -53.6°C | 1.4% | 55.5hPa | 2.6V | 03:49:00 | 00:00:00 | 00:00:00 | |
| KANTATE | 2026-08-31 17:58:28 | 49.63657 | 8.55866 | 54° | 20km/h | 20342m | 4.7m/s | -53.6°C | 1.4% | 55.5hPa | 2.6V | 03:49:00 | 00:00:00 | 00:00:00 | |
| DM0DOS-11 | 2026-08-31 17:58:27 | 49.63635 | 8.55822 | 40° | 18km/h | 20303m | 5.8m/s | -53.8°C | 4.6% | 55.9hPa | 2.6V | 03:49:18 | 01:29:12 | 00:00:00 | |
| DL1XH-west | 2026-08-31 17:58:27 | 49.63651 | 8.55852 | 61° | 24km/h | 20331m | 5.2m/s | -53.6°C | 1.2% | 55.7hPa | 2.6V | 03:49:15 | 01:29:17 | 00:00:00 | |
| DL1XH1-15 | 2026-08-31 17:58:26 | 49.63648 | 8.55844 | 59° | 22km/h | 20326m | 5m/s | -53.7°C | 4.5% | 55.7hPa | 2.6V | 03:49:14 | 01:29:16 | 00:00:00 | |
| SONCRA | 2026-08-31 17:58:26 | 49.63648 | 8.55844 | 59° | 22km/h | 20326m | 5.0m/s | 0°C | -1.0% | -1.0hPa | 2.6V | 00:00:00 | 00:00:00 | 00:00:00 | |
| DN1GJH-1 | 2026-08-31 17:58:25 | 49.63645 | 8.55837 | 54° | 20km/h | 20320m | 6.6m/s | -53.7°C | 1.5% | 55.7hPa | 2.6V | 03:49:00 | 00:00:00 | 00:00:00 | |
| DO3MHA-11 | 2026-08-31 17:58:23 | 49.63639 | 8.55827 | 39° | 22km/h | 20309m | 4.6m/s | -53.7°C | 4.5% | 55.8hPa | 2.6V | 00:00:00 | 01:29:13 | 00:00:00 | |
| DK5PH-5 | 2026-08-31 17:58:22 | 49.63635 | 8.55822 | 41° | 20km/h | 20304m | 5.8m/s | -53.7°C | 4.6% | 55.8hPa | 2.6V | 00:00:00 | 01:29:12 | 00:00:00 | |
| SO1NDE-10 | 2026-08-31 17:58:21 | 49.63632 | 8.55818 | 41° | 18km/h | 20298m | 4.9m/s | 0°C | 0% | 0hPa | 2.6V | 03:49:00 | 01:29:11 | 00:00:00 | |
| BIOWL1-15 | 2026-08-31 17:58:21 | 49.63628 | 8.55813 | 38° | 20km/h | 20294m | 4.5m/s | -53.8°C | 1.2% | 56hPa | 2.6V | 03:50:06 | 01:29:10 | 00:00:00 | |
| DJ2DS-15 | 2026-08-31 17:58:20 | 49.63628 | 8.55813 | 39° | 20km/h | 20294m | 4.4m/s | -53.8°C | 4.6% | 55.9hPa | 2.6V | 03:49:00 | 01:29:10 | 00:00:00 | |
| SONDE2-11 | 2026-08-31 17:58:19 | 49.63624 | 8.55808 | 33° | 20km/h | 20288m | 6.0m/s | -53.8°C | 1.4% | 56.0hPa | 2.6V | 00:00:00 | 00:00:00 | 00:00:00 | |
| DL1XH1-15 | 2026-08-31 17:58:16 | 49.63609 | 8.55793 | 37° | 27km/h | 20271m | 6.4m/s | -53.8°C | 4.6% | 56.2hPa | 2.6V | 03:49:24 | 01:29:06 | 00:00:00 | |
| DL1XH-west | 2026-08-31 17:58:16 | 49.63609 | 8.55793 | 37° | 27km/h | 20272m | 6.4m/s | -53.8°C | 1.3% | 56.2hPa | 2.6V | 03:50:06 | 01:29:06 | 00:00:00 | |
| DB0NH | 2026-08-31 17:58:16 | 49.63609 | 8.55793 | 38° | 18km/h | 20272m | 6.4m/s | -53.7°C | 4.6% | 56.1hPa | 2.6V | 03:49:00 | 01:29:06 | 00:00:00 | |
| DO2KSM | 2026-08-31 17:58:15 | 49.63608 | 8.55793 | 38° | 27km/h | 20272m | 6.4m/s | 0°C | 0% | 0hPa | 2.7V | 00:00:00 | 00:00:00 | 00:00:00 | |
| DM0DOS-11 | 2026-08-31 17:58:14 | 49.63588 | 8.55766 | 39° | 26km/h | 20249m | 5.2m/s | -53.6°C | 4.5% | 56.3hPa | 2.7V | 03:49:28 | 01:29:02 | 00:00:00 | |
| DO3MHA-11 | 2026-08-31 17:58:13 | 49.63592 | 8.55773 | 39° | 20km/h | 20255m | 5.7m/s | -53.6°C | 4.5% | 56.3hPa | 2.7V | 00:00:00 | 01:29:03 | 00:00:00 | |
| HEMX73-11 | 2026-08-31 17:58:12 | 49.63592 | 8.55773 | 40° | 27km/h | 20255m | 5.7m/s | -53.6°C | 1.4% | 56.3hPa | 2.7V | 03:50:00 | 00:00:00 | 00:00:00 | |
| DL1XH1-15 | 2026-08-31 17:58:11 | 49.63563 | 8.55739 | 36° | 13km/h | 20216m | 6m/s | -53.3°C | 4.4% | 56.7hPa | 2.7V | 03:49:34 | 01:28:56 | 00:00:00 | |
| BIOWL1-15 | 2026-08-31 17:58:09 | 49.63573 | 8.55748 | 35° | 20km/h | 20233m | 6.3m/s | -53.5°C | 1.2% | 56.5hPa | 2.6V | 03:50:06 | 01:28:59 | 00:00:00 | |
| DL1XH-west | 2026-08-31 17:58:05 | 49.63560 | 8.55736 | 43° | 13km/h | 20211m | 4.7m/s | -53.3°C | 1.1% | 56.7hPa | 2.6V | 03:50:06 | 01:28:55 | 00:00:00 | |
| DM0DOS-11 | 2026-08-31 17:58:04 | 49.63553 | 8.55725 | 45° | 15km/h | 20196m | 4.7m/s | -53.3°C | 4.3% | 56.9hPa | 2.7V | 03:49:38 | 01:28:52 | 00:00:00 | |
| BIOWL1-15 | 2026-08-31 17:57:58 | 49.63539 | 8.55702 | 41° | 24km/h | 20174m | 6.1m/s | -53.3°C | 1.1% | 57hPa | 2.6V | 03:50:06 | 01:28:48 | 00:00:00 | |
| DL1XH1-15 | 2026-08-31 17:57:56 | 49.63529 | 8.55690 | 35° | 26km/h | 20164m | 5.6m/s | -53.4°C | 4.3% | 57.1hPa | 2.6V | 03:49:44 | 01:28:46 | 00:00:00 | |
| DL1XH-west | 2026-08-31 17:57:54 | 49.63519 | 8.55679 | 31° | 22km/h | 20154m | 4.6m/s | -53.4°C | 1% | 57.2hPa | 2.7V | 03:50:06 | 01:28:44 | 00:00:00 | |
| BIOWL1-15 | 2026-08-31 17:57:48 | 49.63504 | 8.55666 | 58° | 13km/h | 20124m | 4.4m/s | -53.5°C | 1.1% | 57.5hPa | 2.7V | 03:50:06 | 01:28:38 | 00:00:00 | |
| DL1XH1-15 | 2026-08-31 17:57:46 | 49.63499 | 8.55656 | 45° | 18km/h | 20113m | 5m/s | -53.5°C | 4.3% | 57.6hPa | 2.6V | 03:49:54 | 01:28:36 | 00:00:00 | |
| DL1XH-west | 2026-08-31 17:57:44 | 49.63492 | 8.55645 | 51° | 22km/h | 20103m | 5.8m/s | -53.6°C | 1.1% | 57.7hPa | 2.6V | 03:50:06 | 01:28:34 | 00:00:00 | |
| SFWM-10 | 2026-08-31 17:57:43 | 49.63492 | 8.55645 | 52° | 22km/h | 20104m | 5.8m/s | -53.6°C | 1.4% | 57.7hPa | 2.7V | 03:50:00 | 00:00:00 | 00:00:00 | |
| DL1XH1-15 | 2026-08-31 17:57:41 | 49.63476 | 8.55604 | 53° | 7km/h | 20060m | 5.8m/s | -54.4°C | 4.6% | 58hPa | 2.7V | 03:50:04 | 01:28:26 | 00:00:00 | |
| BIOWL1-15 | 2026-08-31 17:57:37 | 49.63477 | 8.55607 | 68° | 9km/h | 20066m | 5.2m/s | -54.3°C | 1.1% | 58hPa | 2.7V | 03:50:06 | 01:28:27 | 00:00:00 | |
| DL1XH-west | 2026-08-31 17:57:34 | 49.63472 | 8.55600 | 35° | 11km/h | 20050m | 3.8m/s | -54.3°C | 1.2% | 58.1hPa | 2.6V | 03:50:06 | 01:28:24 | 00:00:00 | |
| DO3MHA-11 | 2026-08-31 17:57:33 | 49.63469 | 8.55597 | 42° | 16km/h | 20046m | 5.9m/s | -54.3°C | 4.5% | 58.1hPa | 2.6V | 00:00:00 | 01:28:23 | 00:00:00 | |
| DL1NUX | 2026-08-31 17:57:32 | 49.63447 | 8.55567 | 47° | 18km/h | 20014m | 4.5m/s | -54.5°C | 4.6% | 58.5hPa | 2.6V | 03:50:13 | 01:28:17 | 00:00:00 | |
| HEMX73-11 | 2026-08-31 17:57:31 | 49.63467 | 8.55593 | 44° | 16km/h | 20040m | 5.2m/s | -54.4°C | 1.5% | 58.2hPa | 2.6V | 03:50:00 | 00:00:00 | 00:00:00 | |
| DL1XH1-15 | 2026-08-31 17:57:29 | 49.63444 | 8.55562 | 43° | 16km/h | 20009m | 6m/s | -54.4°C | 4.5% | 58.5hPa | 2.6V | 03:50:14 | 01:28:16 | 00:00:00 | |
| BIOWL1-15 | 2026-08-31 17:57:27 | 49.63447 | 8.55567 | 47° | 18km/h | 20014m | 4.5m/s | -54.5°C | 1.2% | 58.5hPa | 2.6V | 03:50:57 | 01:28:17 | 00:00:00 | |
| DL1XH-west | 2026-08-31 17:57:24 | 49.63439 | 8.55556 | 46° | 7km/h | 19999m | 4.8m/s | -54.4°C | 1.2% | 58.6hPa | 2.7V | 03:50:57 | 01:28:14 | 00:00:00 | |
| DO3MHA-11 | 2026-08-31 17:57:23 | 49.63438 | 8.55554 | 69° | 9km/h | 19994m | 5.9m/s | -54.3°C | 4.6% | 58.6hPa | 2.6V | 00:00:00 | 01:28:13 | 00:00:00 | |
| DM0DOS-11 | 2026-08-31 17:57:22 | 49.63438 | 8.55550 | 37° | 4km/h | 19978m | 4.8m/s | -54.4°C | 4.5% | 58.8hPa | 2.6V | 03:50:20 | 01:28:10 | 00:00:00 | |
| DK5PH-5 | 2026-08-31 17:57:22 | 49.63438 | 8.55552 | 94° | 11km/h | 19988m | 4.7m/s | -54.3°C | 4.6% | 58.6hPa | 2.6V | 00:00:00 | 01:28:12 | 00:00:00 | |
| DJ2DS-15 | 2026-08-31 17:57:20 | 49.63438 | 8.55550 | 38° | 11km/h | 19978m | 4.8m/s | -54.3°C | 4.5% | 58.7hPa | 2.6V | 00:00:00 | 01:28:10 | 00:00:00 | |
| DL1XH1-15 | 2026-08-31 17:57:19 | 49.63430 | 8.55541 | 38° | 16km/h | 19958m | 5.7m/s | -54.3°C | 4.5% | 59hPa | 2.6V | 03:50:24 | 01:28:06 | 00:00:00 | |
| BIOWL1-15 | 2026-08-31 17:57:17 | 49.63433 | 8.55545 | 44° | 13km/h | 19963m | 4.7m/s | -54.3°C | 1.2% | 58.9hPa | 2.7V | 03:50:57 | 01:28:07 | 00:00:00 | |
| DL1XH-west | 2026-08-31 17:57:13 | 49.63419 | 8.55526 | 49° | 20km/h | 19942m | 5.8m/s | -54.2°C | 1.1% | 59.1hPa | 2.7V | 03:50:57 | 01:28:03 | 00:00:00 | |
| DO3MHA-11 | 2026-08-31 17:57:13 | 49.63419 | 8.55526 | 49° | 11km/h | 19942m | 5.7m/s | -54.2°C | 4.4% | 59.1hPa | 2.7V | 03:50:00 | 01:28:03 | 00:00:00 | |
| DM0DOS-11 | 2026-08-31 17:57:12 | 49.63412 | 8.55510 | 54° | 11km/h | 19927m | 5.3m/s | -54.4°C | 4.5% | 59.3hPa | 2.6V | 03:50:30 | 01:28:00 | 00:00:00 | |
| DL4BBY-15 | 2026-08-31 17:57:11 | 49.63414 | 8.55514 | 58° | 11km/h | 19932m | 5.2m/s | -52.9°C | 0% | 0hPa | 2.7V | 00:00:00 | 00:00:00 | 00:00:00 | |
| BIOWL9-15 | 2026-08-31 17:57:10 | 49.63412 | 8.55510 | 54° | 11km/h | 19927m | 5.4m/s | -54.4°C | 1.4% | 59.3hPa | 2.7V | 00:00:00 | 00:00:00 | 00:00:00 | |
| DL1XH1-15 | 2026-08-31 17:57:09 | 49.63409 | 8.55500 | 82° | 5km/h | 19906m | 4.3m/s | -54.5°C | 4.6% | 59.5hPa | 2.7V | 03:50:34 | 01:27:56 | 00:00:00 | |
| BIOWL1-15 | 2026-08-31 17:57:06 | 49.63410 | 8.55500 | 83° | 5km/h | 19906m | 4.3m/s | -54.5°C | 1.2% | 59.5hPa | 2.7V | 03:50:57 | 01:27:56 | 00:00:00 | |
| DL1XH-west | 2026-08-31 17:57:03 | 49.63406 | 8.55494 | 30° | 9km/h | 19891m | 5.4m/s | -54.7°C | 1.2% | 59.6hPa | 2.6V | 03:50:57 | 01:27:53 | 00:00:00 | |
| DO3MHA-11 | 2026-08-31 17:57:03 | 49.63406 | 8.55494 | 31° | 13km/h | 19891m | 5.4m/s | -54.6°C | 4.6% | 59.6hPa | 2.7V | 00:00:00 | 01:27:53 | 00:00:00 | |
| DL8DAS-14 | 2026-08-31 17:57:02 | 49.63403 | 8.55492 | 33° | 11km/h | 19885m | 5.2m/s | -54.7°C | 1.5% | 59.6hPa | 2.7V | 00:00:00 | 00:00:00 | 00:00:00 | |
| DJ2DS-15 | 2026-08-31 17:57:00 | 49.63397 | 8.55487 | 20° | 11km/h | 19876m | 5.8m/s | -54.9°C | 4.7% | 59.7hPa | 2.7V | 03:50:00 | 01:27:50 | 00:00:00 | |
| DL1XH1-15 | 2026-08-31 17:56:59 | 49.63383 | 8.55477 | 55° | 13km/h | 19856m | 5m/s | -55.1°C | 4.8% | 59.9hPa | 2.6V | 03:50:44 | 01:27:46 | 00:00:00 | |
| BIOWL1-15 | 2026-08-31 17:56:56 | 49.63384 | 8.55477 | 56° | 13km/h | 19856m | 5m/s | -55.1°C | 1.3% | 59.9hPa | 2.6V | 03:50:57 | 01:27:46 | 00:00:00 | |
| DL1XH-west | 2026-08-31 17:56:53 | 49.63383 | 8.55466 | 120° | 9km/h | 19839m | 5.2m/s | -55°C | 1.3% | 60.1hPa | 2.7V | 03:50:57 | 01:27:43 | 00:00:00 | |
| DO3MHA-11 | 2026-08-31 17:56:53 | 49.63383 | 8.55466 | 120° | 9km/h | 19839m | 5.1m/s | -55.0°C | 4.8% | 60.1hPa | 2.7V | 00:00:00 | 01:27:43 | 00:00:00 | |
| DM0DOS-11 | 2026-08-31 17:56:52 | 49.63391 | 8.55451 | 128° | 13km/h | 19817m | 5m/s | -54.9°C | 4.8% | 60.3hPa | 2.7V | 03:50:51 | 01:27:39 | 00:00:00 | |
| NBG1-10 | 2026-08-31 17:56:52 | 49.63384 | 8.55463 | 130° | 7km/h | 19834m | 5.1m/s | -55.0°C | 4.8% | 60.1hPa | 2.6V | 00:00:00 | 01:27:42 | 00:00:00 | |
| DB0UT-7 | 2026-08-31 17:56:50 | 49.63389 | 8.55456 | 131° | 7km/h | 19822m | 4.9m/s | -54.9°C | 4.8% | 60.2hPa | 2.6V | 00:00:00 | 01:27:40 | 00:00:00 | |
| DL1XH1-15 | 2026-08-31 17:56:49 | 49.63395 | 8.55442 | 106° | 7km/h | 19801m | 5.6m/s | -54.8°C | 4.8% | 60.4hPa | 2.6V | 03:50:54 | 01:27:36 | 00:00:00 | |
| BIOWL1-15 | 2026-08-31 17:56:45 | 49.63395 | 8.55439 | 100° | 7km/h | 19796m | 4.8m/s | -54.7°C | 1.2% | 60.5hPa | 2.6V | 03:50:57 | 01:27:35 | 00:00:00 | |
| DL1KLB | 2026-08-31 17:56:44 | 49.63395 | 8.55439 | 101° | 7km/h | 19796m | 4.8m/s | -54.7°C | 1.5% | 60.5hPa | 2.7V | 03:50:00 | 00:00:00 | 00:00:00 | |
| DO3MHA-11 | 2026-08-31 17:56:43 | 49.63395 | 8.55435 | 84° | 5km/h | 19786m | 5.8m/s | -54.6°C | 4.8% | 60.5hPa | 2.7V | 00:00:00 | 01:27:33 | 00:00:00 | |
| DM0DOS-11 | 2026-08-31 17:56:42 | 49.63399 | 8.55429 | 158° | 7km/h | 19760m | 5.7m/s | -54.4°C | 4.7% | 60.8hPa | 2.7V | 03:51:02 | 01:27:28 | 00:00:00 | |
| DL1XH-west | 2026-08-31 17:56:42 | 49.63395 | 8.55434 | 97° | 2km/h | 19781m | 4.5m/s | -54.6°C | 1.3% | 60.6hPa | 2.7V | 03:51:48 | 01:27:32 | 00:00:00 | |
| BIOWL1-15 | 2026-08-31 17:56:37 | 49.63403 | 8.55424 | 124° | 9km/h | 19744m | 4.5m/s | -54.3°C | 1.2% | 61hPa | 2.6V | 03:51:48 | 01:27:25 | 00:00:00 | |
| DL0LBS | 2026-08-31 17:56:36 | 49.63405 | 8.55418 | 106° | 7km/h | 19735m | 5.7m/s | -54.3°C | 1.6% | 61.1hPa | 2.6V | 03:51:00 | 00:00:00 | 00:00:00 | |
| DL1NUX | 2026-08-31 17:56:34 | 49.63404 | 8.55407 | 72° | 7km/h | 19713m | 4.5m/s | -54.1°C | 4.7% | 0hPa | 2.6V | 03:51:11 | 01:27:19 | 00:00:00 | |
| DL1XH-west | 2026-08-31 17:56:32 | 49.63405 | 8.55415 | 86° | 5km/h | 19729m | 5.1m/s | -54.2°C | 1.3% | 61.1hPa | 2.7V | 03:51:48 | 01:27:22 | 00:00:00 | |
| BIOWL1-15 | 2026-08-31 17:56:26 | 49.63403 | 8.55399 | 123° | 4km/h | 19686m | 4.4m/s | -53.9°C | 1.2% | 61.6hPa | 2.7V | 03:51:48 | 01:27:14 | 00:00:00 | |
| DM7RM-13 | 2026-08-31 17:56:25 | 49.63403 | 8.55402 | 94° | 4km/h | 19697m | 5.4m/s | -54.0°C | 1.5% | 61.5hPa | 2.7V | 03:51:00 | 00:00:00 | 00:00:00 | |
| DL1NUX | 2026-08-31 17:56:24 | 49.63408 | 8.55392 | 103° | 7km/h | 19660m | 4.8m/s | -53.6°C | 4.5% | 0hPa | 2.7V | 03:51:21 | 01:27:09 | 00:00:00 | |
| DL1XH-west | 2026-08-31 17:56:21 | 49.63406 | 8.55396 | 134° | 5km/h | 19671m | 5.5m/s | -53.7°C | 1.2% | 61.7hPa | 2.6V | 03:51:48 | 01:27:11 | 00:00:00 | |
| BIOWL1-15 | 2026-08-31 17:56:15 | 49.63407 | 8.55380 | 67° | 5km/h | 19630m | 4.9m/s | -53.4°C | 1.2% | 62.1hPa | 2.7V | 03:51:48 | 01:27:03 | 00:00:00 | |
| DL1NUX | 2026-08-31 17:56:14 | 49.63403 | 8.55375 | 58° | 5km/h | 19610m | 5.4m/s | -53.3°C | 4.4% | 0hPa | 2.7V | 03:51:31 | 01:26:59 | 00:00:00 | |
| DO3MHA-11 | 2026-08-31 17:56:13 | 49.63407 | 8.55380 | 67° | 5km/h | 19630m | 4.8m/s | -53.4°C | 4.5% | 62.0hPa | 2.7V | 00:00:00 | 01:27:03 | 00:00:00 | |
| DM0DOS-11 | 2026-08-31 17:56:12 | 49.63403 | 8.55371 | 95° | 5km/h | 19600m | 4.7m/s | -53.2°C | 4.5% | 62.4hPa | 2.6V | 03:51:33 | 01:26:57 | 00:00:00 | |
| DL1XH-west | 2026-08-31 17:56:11 | 49.63405 | 8.55378 | 23° | 5km/h | 19619m | 4.3m/s | -53.4°C | 1.1% | 62.2hPa | 2.6V | 03:51:48 | 01:27:01 | 00:00:00 | |
| DL4BBY-15 | 2026-08-31 17:56:11 | 49.63406 | 8.55378 | 24° | 4km/h | 19620m | 4.3m/s | -52.0°C | 0% | 0hPa | 2.6V | 00:00:00 | 00:00:00 | 00:00:00 | |
| DF7PN | 2026-08-31 17:56:08 | 49.63403 | 8.55373 | 79° | 5km/h | 19604m | 4.8m/s | -53.3°C | 1.4% | 62.3hPa | 2.6V | 00:00:00 | 00:00:00 | 00:00:00 | |
| DL8OAI-8 | 2026-08-31 17:56:07 | 49.63403 | 8.55373 | 81° | 7km/h | 19605m | 4.8m/s | -53.3°C | 0% | 0hPa | 2.6V | 00:00:00 | 00:00:00 | 00:00:00 | |
| DL1ZP-14 | 2026-08-31 17:56:05 | 49.63404 | 8.55368 | 144° | 2km/h | 19590m | 4.0m/s | -53.2°C | 1.4% | 62.5hPa | 2.6V | 00:00:00 | 00:00:00 | 00:00:00 | |
| DL1NUX | 2026-08-31 17:56:04 | 49.63406 | 8.55358 | 33° | 2km/h | 19561m | 4.4m/s | -52.9°C | 0% | 0hPa | 2.6V | 03:51:41 | 01:26:49 | 00:00:00 | |
| SO1NDE-10 | 2026-08-31 17:56:04 | 49.63404 | 8.55383 | 139° | 4km/h | 19586m | 4.7m/s | 0°C | 0% | 0hPa | 2.7V | 00:00:00 | 01:26:54 | 00:00:00 | |
| DO3MHA-11 | 2026-08-31 17:56:03 | 49.63405 | 8.55365 | 124° | 4km/h | 19580m | 5.4m/s | -53.0°C | 4.4% | 62.5hPa | 2.7V | 00:00:00 | 01:26:53 | 00:00:00 | |
| DM0DOS-11 | 2026-08-31 17:56:02 | 49.63405 | 8.55357 | 56° | 4km/h | 19551m | 5m/s | -52.8°C | 4.4% | 62.9hPa | 2.7V | 03:51:43 | 01:26:47 | 00:00:00 | |
| BIOWL1-15 | 2026-08-31 17:56:02 | 49.63406 | 8.55363 | 109° | 7km/h | 19575m | 4.1m/s | -53°C | 1.1% | 62.6hPa | 2.7V | 03:51:48 | 01:26:52 | 00:00:00 | |
| DL1XH-west | 2026-08-31 17:56:01 | 49.63406 | 8.55361 | 100° | 5km/h | 19571m | 5m/s | -52.9°C | 1.1% | 62.7hPa | 2.6V | 03:51:48 | 01:26:51 | 00:00:00 | |
| DL8DAS-14 | 2026-08-31 17:56:00 | 49.63406 | 8.55359 | 74° | 2km/h | 19566m | 5.4m/s | -52.9°C | 1.4% | 62.7hPa | 2.7V | 00:00:00 | 00:00:00 | 00:00:00 | |
| DL9PN | 2026-08-31 17:55:56 | 49.63404 | 8.55355 | 99° | 0km/h | 19541m | 5.4m/s | -52.7°C | 1.4% | 62.9hPa | 2.7V | 00:00:00 | 00:00:00 | 00:00:00 | |
| DM3KS-11 | 2026-08-31 17:55:55 | 49.63404 | 8.55355 | 99° | 0km/h | 19541m | 5.4m/s | -52.7°C | 1.4% | 62.9hPa | 2.7V | 00:00:00 | 00:00:00 | 00:00:00 | |
| DL1NUX | 2026-08-31 17:55:54 | 49.63408 | 8.55344 | 123° | 5km/h | 19510m | 4.9m/s | 0°C | 0% | 0hPa | 2.7V | 03:51:51 | 01:26:39 | 00:00:00 | |
| DO3MHA-11 | 2026-08-31 17:55:53 | 49.63405 | 8.55353 | 112° | 5km/h | 19531m | 6.2m/s | -52.6°C | 4.3% | 63.0hPa | 2.7V | 03:51:00 | 01:26:43 | 00:00:00 | |
| DM0DOS-11 | 2026-08-31 17:55:52 | 49.63409 | 8.55340 | 105° | 4km/h | 19500m | 3.6m/s | -52.3°C | 4.3% | 63.3hPa | 2.7V | 03:51:53 | 01:26:37 | 00:00:00 | |
| BIOWL1-15 | 2026-08-31 17:55:51 | 49.63406 | 8.55348 | 119° | 7km/h | 19521m | 5.7m/s | -52.5°C | 1.1% | 63.2hPa | 2.6V | 03:52:39 | 01:26:41 | 00:00:00 | |
| DL1XH-west | 2026-08-31 17:55:50 | 49.63407 | 8.55345 | 126° | 5km/h | 19515m | 5.6m/s | -52.5°C | 1% | 63.2hPa | 2.6V | 03:52:39 | 01:26:40 | 00:00:00 | |
| DB0UT-7 | 2026-08-31 17:55:50 | 49.63407 | 8.55345 | 126° | 4km/h | 19515m | 5.5m/s | -52.4°C | 4.3% | 63.2hPa | 2.6V | 03:51:00 | 01:26:40 | 00:00:00 | |
| DL1XH1-15 | 2026-08-31 17:55:48 | 49.63409 | 8.55339 | 128° | 0km/h | 19496m | 5.3m/s | -52.3°C | 4.3% | 63.4hPa | 2.6V | 03:51:54 | 01:26:36 | 00:00:00 | |
| DB0ND-19 | 2026-08-31 17:55:45 | 49.63409 | 8.55339 | 263° | 2km/h | 19491m | 5.3m/s | -52.2°C | 1.3% | 63.5hPa | 2.6V | 00:00:00 | 00:00:00 | 00:00:00 | |
| BIOWL1-15 | 2026-08-31 17:55:41 | 49.63409 | 8.55341 | 316° | 0km/h | 19471m | 5.9m/s | -52.1°C | 1% | 63.6hPa | 2.6V | 03:52:39 | 01:26:31 | 00:00:00 | |
| DL1XH-west | 2026-08-31 17:55:39 | 49.63409 | 8.55341 | 18° | 2km/h | 19461m | 4.4m/s | -52°C | 1% | 63.7hPa | 2.7V | 03:52:39 | 01:26:29 | 00:00:00 | |
| DL1XH1-15 | 2026-08-31 17:55:38 | 49.63406 | 8.55336 | 56° | 7km/h | 19447m | 4.2m/s | -51.9°C | 4.2% | 63.9hPa | 2.6V | 03:52:04 | 01:26:26 | 00:00:00 | |
| BIOWL1-15 | 2026-08-31 17:55:32 | 49.63401 | 8.55331 | 51° | 2km/h | 19418m | 5.4m/s | -51.7°C | 1% | 64.2hPa | 2.6V | 03:52:39 | 01:26:20 | 00:00:00 | |
| DL1XH1-15 | 2026-08-31 17:55:31 | 49.63403 | 8.55330 | 152° | 4km/h | 19397m | 4.3m/s | -51.6°C | 4.2% | 64.4hPa | 2.6V | 03:52:14 | 01:26:16 | 00:00:00 | |
| DL1XH-west | 2026-08-31 17:55:29 | 49.63401 | 8.55331 | 214° | 2km/h | 19412m | 5.4m/s | -51.6°C | 1% | 64.2hPa | 2.6V | 03:52:39 | 01:26:19 | 00:00:00 | |
| HEMX73-11 | 2026-08-31 17:55:27 | 49.63401 | 8.55331 | 197° | 2km/h | 19408m | 4.4m/s | -51.6°C | 1.3% | 64.3hPa | 2.6V | 03:52:00 | 00:00:00 | 00:00:00 | |
| DM3KS-11 | 2026-08-31 17:55:24 | 49.63404 | 8.55330 | 208° | 2km/h | 19387m | 5.0m/s | -51.5°C | 1.3% | 64.5hPa | 2.6V | 00:00:00 | 00:00:00 | 00:00:00 | |
| DO3MHA-11 | 2026-08-31 17:55:23 | 49.63404 | 8.55330 | 221° | 4km/h | 19383m | 4.6m/s | -51.4°C | 4.1% | 64.5hPa | 2.6V | 00:00:00 | 01:26:13 | 00:00:00 | |
| DK5PH-5 | 2026-08-31 17:55:22 | 49.63404 | 8.55330 | 58° | 4km/h | 19377m | 6.1m/s | -51.3°C | 4.0% | 64.5hPa | 2.6V | 00:00:00 | 01:26:12 | 00:00:00 | |
| DL1XH1-15 | 2026-08-31 17:55:21 | 49.63398 | 8.55326 | 65° | 4km/h | 19345m | 4.6m/s | -51.1°C | 3.9% | 64.9hPa | 2.6V | 03:52:24 | 01:26:06 | 00:00:00 | |
| BIOWL1-15 | 2026-08-31 17:55:21 | 49.63401 | 8.55328 | 7° | 5km/h | 19361m | 5.6m/s | -51.3°C | 0.9% | 64.7hPa | 2.7V | 03:52:39 | 01:26:09 | 00:00:00 | |
| DL1XH-west | 2026-08-31 17:55:18 | 49.63400 | 8.55327 | 7° | 5km/h | 19356m | 4.2m/s | -51.2°C | 0.9% | 64.8hPa | 2.7V | 03:52:39 | 01:26:08 | 00:00:00 | |
| DN1GJH-1 | 2026-08-31 17:55:17 | 49.63400 | 8.55327 | 8° | 5km/h | 19356m | 4.2m/s | -51.2°C | 1.3% | 64.8hPa | 2.6V | 03:52:00 | 00:00:00 | 00:00:00 | |
| DB0NH | 2026-08-31 17:55:16 | 49.63398 | 8.55326 | 66° | 5km/h | 19346m | 4.5m/s | -51.1°C | 3.9% | 64.8hPa | 2.6V | 00:00:00 | 01:26:06 | 00:00:00 | |
| KANTATE | 2026-08-31 17:55:15 | 49.63398 | 8.55326 | 66° | 4km/h | 19346m | 4.6m/s | -51.1°C | 1.2% | 64.9hPa | 2.7V | 03:52:00 | 00:00:00 | 00:00:00 | |
| DB0ND-19 | 2026-08-31 17:55:14 | 49.63399 | 8.55326 | 225° | 4km/h | 19331m | 3.6m/s | -51.2°C | 1.3% | 65.0hPa | 2.7V | 00:00:00 | 00:00:00 | 00:00:00 | |
| DO3MHA-11 | 2026-08-31 17:55:13 | 49.63399 | 8.55326 | 226° | 5km/h | 19332m | 3.6m/s | -51.1°C | 3.9% | 65.0hPa | 2.7V | 03:52:00 | 01:26:03 | 00:00:00 | |
| DH7VM-15 | 2026-08-31 17:55:12 | 49.63399 | 8.55326 | 227° | 4km/h | 19332m | 3.6m/s | -51.2°C | 1.3% | 65.0hPa | 2.6V | 00:00:00 | 00:00:00 | 00:00:00 | |
| DL1XH1-15 | 2026-08-31 17:55:11 | 49.63400 | 8.55333 | 352° | 5km/h | 19298m | 5.5m/s | -51.3°C | 4.1% | 65.4hPa | 2.6V | 03:52:34 | 01:25:56 | 00:00:00 | |
| DL1XH-west | 2026-08-31 17:55:08 | 49.63402 | 8.55330 | 288° | 4km/h | 19308m | 5.1m/s | -51.2°C | 0.9% | 65.3hPa | 2.7V | 03:52:39 | 01:25:58 | 00:00:00 | |
| DL1NUX | 2026-08-31 17:55:07 | 49.63394 | 8.55329 | 26° | 5km/h | 19278m | 4.2m/s | 0°C | 0% | 0hPa | 2.7V | 03:52:38 | 01:25:52 | 00:00:00 | |
| DF7PN | 2026-08-31 17:55:06 | 49.63400 | 8.55333 | 352° | 5km/h | 19298m | 5.5m/s | -51.3°C | 1.3% | 65.4hPa | 2.7V | 00:00:00 | 00:00:00 | 00:00:00 | |
| DO3MHA-11 | 2026-08-31 17:55:03 | 49.63395 | 8.55330 | 29° | 4km/h | 19283m | 5.7m/s | -51.2°C | 4.0% | 65.5hPa | 2.7V | 00:00:00 | 01:25:53 | 00:00:00 | |
| DL1XH1-15 | 2026-08-31 17:55:01 | 49.63392 | 8.55323 | 214° | 2km/h | 19250m | 3.6m/s | -51.2°C | 4% | 65.8hPa | 2.7V | 03:52:44 | 01:25:46 | 00:00:00 | |
| BIOWL1-15 | 2026-08-31 17:54:59 | 49.63392 | 8.55323 | 133° | 0km/h | 19254m | 4.5m/s | 0°C | 0% | 65.8hPa | 2.7V | 18:12:15 | 01:25:47 | 00:00:00 | |
| DL1XH-west | 2026-08-31 17:54:58 | 49.63392 | 8.55323 | 72° | 4km/h | 19259m | 5.2m/s | -51.2°C | 0.9% | 65.7hPa | 2.7V | 03:53:30 | 01:25:48 | 00:00:00 | |
| DL9PN | 2026-08-31 17:54:54 | 49.63393 | 8.55320 | 107° | 4km/h | 19235m | 4.8m/s | -51.1°C | 1.3% | 66.0hPa | 2.6V | 00:00:00 | 00:00:00 | 00:00:00 | |
| DO3MHA-11 | 2026-08-31 17:54:53 | 49.63393 | 8.55320 | 108° | 7km/h | 19236m | 4.7m/s | -51.0°C | 4.0% | 66.0hPa | 2.6V | 00:00:00 | 01:25:43 | 00:00:00 | |
| DK5PH-5 | 2026-08-31 17:54:52 | 49.63393 | 8.55319 | 103° | 11km/h | 19230m | 5.9m/s | -51.0°C | 4.0% | 66.0hPa | 2.6V | 00:00:00 | 01:25:42 | 00:00:00 | |
| DL1XH1-15 | 2026-08-31 17:54:51 | 49.63390 | 8.55301 | 44° | 9km/h | 19201m | 5m/s | -50.9°C | 3.9% | 66.3hPa | 2.6V | 03:52:54 | 01:25:36 | 00:00:00 | |
| DB0UT-7 | 2026-08-31 17:54:50 | 49.63393 | 8.55315 | 83° | 9km/h | 19221m | 4.4m/s | -51.0°C | 4.0% | 66.1hPa | 2.7V | 00:00:00 | 01:25:40 | 00:00:00 | |
| DM0DOS-11 | 2026-08-31 17:54:49 | 49.63383 | 8.55294 | 41° | 11km/h | 19187m | 4.5m/s | -50.9°C | 4% | 66.5hPa | 2.7V | 03:52:57 | 01:25:33 | 00:00:00 | |
| BIOWL1-15 | 2026-08-31 17:54:48 | 49.63390 | 8.55301 | 45° | 9km/h | 19201m | 5m/s | 0°C | 0% | 0hPa | 2.6V | 18:12:15 | 01:25:36 | 00:00:00 | |
| DL1XH-west | 2026-08-31 17:54:48 | 49.63392 | 8.55308 | 74° | 11km/h | 19211m | 4m/s | -51°C | 0.9% | 66.2hPa | 2.6V | 03:53:30 | 01:25:38 | 00:00:00 | |
| DL1NUX | 2026-08-31 17:54:45 | 49.63379 | 8.55287 | 56° | 7km/h | 19173m | 4.3m/s | 0°C | 0% | 0hPa | 2.6V | 03:53:00 | 01:25:30 | 00:00:00 | |
| DB0ND-19 | 2026-08-31 17:54:43 | 49.63381 | 8.55292 | 44° | 9km/h | 19183m | 4.3m/s | -50.9°C | 1.3% | 66.6hPa | 2.6V | 00:00:00 | 00:00:00 | 00:00:00 | |
| SONDE2-11 | 2026-08-31 17:54:42 | 49.63381 | 8.55292 | 44° | 9km/h | 19183m | 4.3m/s | -50.9°C | 1.3% | 66.6hPa | 2.6V | 00:00:00 | 00:00:00 | 00:00:00 | |
| DL1XH1-15 | 2026-08-31 17:54:41 | 49.63375 | 8.55275 | 60° | 9km/h | 19155m | 5.4m/s | -50.8°C | 3.8% | 66.8hPa | 2.6V | 03:53:04 | 01:25:26 | 00:00:00 | |
| DL1XH-west | 2026-08-31 17:54:37 | 49.63376 | 8.55278 | 66° | 11km/h | 19159m | 3.6m/s | -50.8°C | 0.7% | 66.8hPa | 2.6V | 03:53:30 | 01:25:27 | 00:00:00 | |
| BIOWL1-15 | 2026-08-31 17:54:36 | 49.63375 | 8.55275 | 61° | 9km/h | 19155m | 5.4m/s | 0°C | 0% | 0hPa | 2.6V | 18:12:15 | 01:25:26 | 00:00:00 | |
| BIOWL9-15 | 2026-08-31 17:54:35 | 49.63374 | 8.55272 | 45° | 7km/h | 19150m | 4.4m/s | -50.8°C | 1.2% | 66.9hPa | 2.7V | 00:00:00 | 00:00:00 | 00:00:00 | |
| KANTATE | 2026-08-31 17:54:34 | 49.63373 | 8.55272 | 47° | 7km/h | 19150m | 4.4m/s | -50.8°C | 1.2% | 66.9hPa | 2.7V | 03:53:00 | 00:00:00 | 00:00:00 | |
| DO3MHA-11 | 2026-08-31 17:54:33 | 49.63371 | 8.55267 | 47° | 13km/h | 19141m | 5.6m/s | -50.8°C | 3.7% | 66.9hPa | 2.7V | 03:53:00 | 01:25:23 | 00:00:00 | |
| DL1ZP-14 | 2026-08-31 17:54:32 | 49.63369 | 8.55264 | 50° | 11km/h | 19136m | 4.4m/s | -50.8°C | 1.2% | 67.0hPa | 2.7V | 00:00:00 | 00:00:00 | 00:00:00 | |
| DL1XH1-15 | 2026-08-31 17:54:31 | 49.63362 | 8.55235 | 79° | 15km/h | 19107m | 5.6m/s | -51.2°C | 3.9% | 67.3hPa | 2.7V | 03:53:14 | 01:25:16 | 00:00:00 | |
| DL1XH-west | 2026-08-31 17:54:26 | 49.63362 | 8.55235 | 79° | 15km/h | 19107m | 5.6m/s | -51.2°C | 0.8% | 67.3hPa | 2.7V | 03:53:30 | 01:25:16 | 00:00:00 | |
| DJ2DS-15 | 2026-08-31 17:54:24 | 49.63360 | 8.55225 | 66° | 13km/h | 19098m | 4.6m/s | -51.3°C | 1.3% | 67.4hPa | 2.7V | 00:00:00 | 00:00:00 | 00:00:00 | |
| DL9PN | 2026-08-31 17:54:23 | 49.63356 | 8.55214 | 56° | 16km/h | 19088m | 3.7m/s | -51.9°C | 1.3% | 67.5hPa | 2.7V | 00:00:00 | 00:00:00 | 00:00:00 | |
| DK5PH-5 | 2026-08-31 17:54:22 | 49.63356 | 8.55214 | 57° | 15km/h | 19088m | 3.6m/s | -51.9°C | 4.1% | 67.5hPa | 2.7V | 00:00:00 | 01:25:12 | 00:00:00 | |
| DL1XH1-15 | 2026-08-31 17:54:21 | 49.63337 | 8.55179 | 62° | 24km/h | 19062m | 3.9m/s | -52°C | 4.1% | 67.8hPa | 2.7V | 03:53:24 | 01:25:06 | 00:00:00 | |
| DL1XH-west | 2026-08-31 17:54:16 | 49.63337 | 8.55179 | 62° | 24km/h | 19063m | 3.9m/s | -52°C | 0.9% | 67.8hPa | 2.7V | 03:53:30 | 01:25:06 | 00:00:00 | |
| BIOWL1-15 | 2026-08-31 17:54:15 | 49.63334 | 8.55171 | 68° | 22km/h | 19059m | 4.4m/s | 0°C | 0% | 0hPa | 2.7V | 18:12:15 | 01:25:05 | 00:00:00 | |
| DO3MHA-11 | 2026-08-31 17:54:13 | 49.63331 | 8.55156 | 79° | 13km/h | 19049m | 3.7m/s | -51.8°C | 4.0% | 67.9hPa | 2.6V | 00:00:00 | 01:25:03 | 00:00:00 | |
| DM0DOS-11 | 2026-08-31 17:54:12 | 49.63328 | 8.55132 | 76° | 7km/h | 19027m | 2.8m/s | -51.7°C | 4% | 68.2hPa | 2.6V | 03:53:32 | 01:24:58 | 00:00:00 | |
| DB0ND-19 | 2026-08-31 17:54:12 | 49.63330 | 8.55144 | 76° | 15km/h | 19040m | 4.1m/s | -51.8°C | 1.3% | 68.0hPa | 2.6V | 00:00:00 | 00:00:00 | 00:00:00 | |
| DL1XH1-15 | 2026-08-31 17:54:11 | 49.63326 | 8.55126 | 71° | 11km/h | 19019m | 4.4m/s | -51.6°C | 4% | 68.2hPa | 2.6V | 03:53:34 | 01:24:56 | 00:00:00 | |
| DL1XH-west | 2026-08-31 17:54:05 | 49.63325 | 8.55121 | 73° | 15km/h | 19015m | 3.6m/s | -51.6°C | 0.9% | 68.3hPa | 2.7V | 03:54:21 | 01:24:55 | 00:00:00 | |
| DF7PN | 2026-08-31 17:54:04 | 49.63324 | 8.55116 | 76° | 13km/h | 19011m | 4.4m/s | -51.6°C | 1.3% | 68.3hPa | 2.6V | 00:00:00 | 00:00:00 | 00:00:00 | |
| DO3MHA-11 | 2026-08-31 17:54:03 | 49.63324 | 8.55110 | 83° | 13km/h | 19007m | 4.9m/s | -51.5°C | 4.0% | 68.3hPa | 2.6V | 00:00:00 | 01:24:53 | 00:00:00 | |
| DL1NUX | 2026-08-31 17:54:02 | 49.63323 | 8.55079 | 99° | 11km/h | 18982m | 4.8m/s | 0°C | 0% | 0hPa | 2.6V | 03:53:43 | 01:24:47 | 00:00:00 | |
| DL1XH1-15 | 2026-08-31 17:54:01 | 49.63324 | 8.55075 | 107° | 9km/h | 18977m | 3.9m/s | -52.2°C | 4.1% | 68.7hPa | 2.6V | 03:53:44 | 01:24:46 | 00:00:00 | |
| DL1XH-west | 2026-08-31 17:53:54 | 49.63325 | 8.55068 | 99° | 11km/h | 18968m | 4.5m/s | -52.6°C | 1% | 68.8hPa | 2.7V | 03:54:21 | 01:24:44 | 00:00:00 | |
| DM3KS-11 | 2026-08-31 17:53:51 | 49.63326 | 8.55051 | 91° | 15km/h | 18951m | 5.0m/s | -52.7°C | 1.4% | 69.0hPa | 2.6V | 00:00:00 | 00:00:00 | 00:00:00 | |
| DO1YAY-16 | 2026-08-31 17:53:50 | 49.63326 | 8.55051 | 91° | 15km/h | 18951m | 5.0m/s | -52.7°C | 1.4% | 69.0hPa | 2.6V | 00:00:00 | 00:00:00 | 00:00:00 | |
| DJ2DS-15 | 2026-08-31 17:53:48 | 49.63326 | 8.55037 | 88° | 20km/h | 18942m | 4.2m/s | -52.6°C | 1.4% | 69.1hPa | 2.6V | 00:00:00 | 00:00:00 | 00:00:00 | |
| DM0DOS-11 | 2026-08-31 17:53:46 | 49.63327 | 8.55021 | 98° | 18km/h | 18933m | 4.3m/s | -52.5°C | 4.3% | 69.2hPa | 2.6V | 03:53:54 | 01:24:36 | 00:00:00 | |
| DL1XH-west | 2026-08-31 17:53:43 | 49.63330 | 8.54999 | 104° | 20km/h | 18920m | 4.2m/s | -52.5°C | 1% | 69.3hPa | 2.7V | 03:54:21 | 01:24:33 | 00:00:00 | |
| DO3MHA-11 | 2026-08-31 17:53:43 | 49.63330 | 8.54999 | 104° | 16km/h | 18920m | 4.1m/s | -52.4°C | 4.2% | 69.2hPa | 2.7V | 00:00:00 | 01:24:33 | 00:00:00 | |
| DL1XH1-15 | 2026-08-31 17:53:41 | 49.63326 | 8.54959 | 48° | 16km/h | 18890m | 4m/s | -52.3°C | 4.1% | 69.6hPa | 2.7V | 03:54:04 | 01:24:26 | 00:00:00 | |
| DL1XH-west | 2026-08-31 17:53:33 | 49.63318 | 8.54948 | 43° | 11km/h | 18877m | 3.4m/s | -52.2°C | 1% | 69.8hPa | 2.6V | 03:54:21 | 01:24:23 | 00:00:00 | |
| DO3MHA-11 | 2026-08-31 17:53:33 | 49.63318 | 8.54948 | 44° | 13km/h | 18877m | 3.4m/s | -52.1°C | 4.1% | 69.7hPa | 2.7V | 00:00:00 | 01:24:23 | 00:00:00 | |
| DL8DAS-15 | 2026-08-31 17:53:32 | 49.63318 | 8.54948 | 44° | 11km/h | 18877m | 3.4m/s | -52.2°C | 1.4% | 69.8hPa | 2.7V | 00:00:00 | 00:00:00 | 00:00:00 | |
| DL1ZP-14 | 2026-08-31 17:53:30 | 49.63313 | 8.54935 | 73° | 15km/h | 18864m | 3.8m/s | -52.1°C | 1.4% | 69.9hPa | 2.7V | 00:00:00 | 00:00:00 | 00:00:00 | |
| DF1GD-15 | 2026-08-31 17:53:29 | 49.63313 | 8.54935 | 74° | 15km/h | 18864m | 3.8m/s | -52.1°C | 1.4% | 69.9hPa | 2.7V | 03:54:00 | 00:00:00 | 00:00:00 | |
| DL1XH1-15 | 2026-08-31 17:53:27 | 49.63312 | 8.54914 | 95° | 15km/h | 18845m | 5.4m/s | -52.2°C | 4.1% | 70.1hPa | 2.7V | 03:54:14 | 01:24:16 | 00:00:00 | |
| DL1XH-west | 2026-08-31 17:53:23 | 49.63312 | 8.54899 | 74° | 9km/h | 18832m | 4.3m/s | -52.5°C | 1% | 70.3hPa | 2.6V | 03:54:21 | 01:24:13 | 00:00:00 | |
| DO3MHA-11 | 2026-08-31 17:53:23 | 49.63312 | 8.54899 | 74° | 13km/h | 18832m | 4.2m/s | -52.4°C | 4.2% | 70.2hPa | 2.6V | 00:00:00 | 01:24:13 | 00:00:00 | |
| DK5PH-5 | 2026-08-31 17:53:22 | 49.63311 | 8.54895 | 56° | 13km/h | 18828m | 3.6m/s | -52.5°C | 4.2% | 70.3hPa | 2.6V | 00:00:00 | 01:24:12 | 00:00:00 | |
| DL8DAS-15 | 2026-08-31 17:53:21 | 49.63311 | 8.54895 | 57° | 11km/h | 18828m | 3.6m/s | -52.5°C | 1.4% | 70.3hPa | 2.6V | 00:00:00 | 00:00:00 | 00:00:00 | |
| DM3KS-11 | 2026-08-31 17:53:20 | 49.63304 | 8.54885 | 37° | 13km/h | 18814m | 5.1m/s | -52.6°C | 1.4% | 70.5hPa | 2.6V | 00:00:00 | 00:00:00 | 00:00:00 | |
| DM0DOS-11 | 2026-08-31 17:53:19 | 49.63293 | 8.54873 | 43° | 15km/h | 18794m | 4.5m/s | -52.4°C | 4% | 70.7hPa | 2.6V | 03:54:25 | 01:24:05 | 00:00:00 | |
| DL1XH1-15 | 2026-08-31 17:53:17 | 49.63296 | 8.54877 | 36° | 15km/h | 18799m | 5.4m/s | -52.5°C | 4.1% | 70.6hPa | 2.6V | 03:54:24 | 01:24:06 | 00:00:00 | |
| DL1XH-west | 2026-08-31 17:53:12 | 49.63287 | 8.54861 | 58° | 11km/h | 18780m | 4.2m/s | -52.4°C | 0.9% | 70.8hPa | 2.6V | 03:55:12 | 01:24:02 | 00:00:00 | |
| DL1XH-west | 2026-08-31 17:53:02 | 49.63269 | 8.54838 | 28° | 9km/h | 18733m | 4.2m/s | -53.3°C | 1.1% | 71.3hPa | 2.7V | 03:55:12 | 01:23:52 | 00:00:00 | |
| DL1ZP-14 | 2026-08-31 17:52:59 | 49.63266 | 8.54828 | 84° | 15km/h | 18719m | 4.4m/s | -53.3°C | 1.4% | 71.5hPa | 2.6V | 00:00:00 | 00:00:00 | 00:00:00 | |
| DL8DAS-14 | 2026-08-31 17:52:54 | 49.63266 | 8.54798 | 82° | 16km/h | 18695m | 4.5m/s | -53.2°C | 1.5% | 71.8hPa | 2.7V | 00:00:00 | 00:00:00 | 00:00:00 | |
| DL1NUX | 2026-08-31 17:52:53 | 49.63262 | 8.54763 | 96° | 18km/h | 18669m | 4.3m/s | 0°C | 0% | 0hPa | 2.7V | 00:00:00 | 01:23:38 | 00:00:00 | |
| DL1XH-west | 2026-08-31 17:52:51 | 49.63262 | 8.54779 | 69° | 15km/h | 18681m | 4.9m/s | -53.1°C | 1.1% | 71.9hPa | 2.6V | 03:55:12 | 01:23:41 | 00:00:00 | |
| DM3KS-11 | 2026-08-31 17:52:49 | 49.63262 | 8.54763 | 96° | 16km/h | 18669m | 4.3m/s | -53.1°C | 1.5% | 72.0hPa | 2.7V | 00:00:00 | 00:00:00 | 00:00:00 | |
| DO1YAY-16 | 2026-08-31 17:52:48 | 49.63262 | 8.54763 | 96° | 16km/h | 18669m | 4.3m/s | -53.1°C | 1.5% | 72.0hPa | 2.7V | 00:00:00 | 00:00:00 | 00:00:00 | |
| DL1XH-west | 2026-08-31 17:52:42 | 49.63266 | 8.54699 | 92° | 24km/h | 18636m | 5.7m/s | -53.1°C | 1.1% | 72.4hPa | 2.7V | 03:55:12 | 01:23:31 | 00:00:00 | |
| HEMX73-11 | 2026-08-31 17:52:42 | 49.63265 | 8.54708 | 99° | 24km/h | 18641m | 4.6m/s | -53.1°C | 1.4% | 72.4hPa | 2.7V | 03:55:00 | 00:00:00 | 00:00:00 | |
| DJ2DS-15 | 2026-08-31 17:52:40 | 49.63266 | 8.54691 | 90° | 26km/h | 18631m | 4.4m/s | -53.1°C | 4.3% | 72.4hPa | 2.7V | 00:00:00 | 01:23:30 | 00:00:00 | |
| DL1XH1-15 | 2026-08-31 17:52:38 | 49.63267 | 8.54662 | 89° | 18km/h | 18611m | 5.6m/s | -53.2°C | 4.3% | 72.7hPa | 2.7V | 03:55:04 | 01:23:26 | 00:00:00 | |
| BIOWL1-15 | 2026-08-31 17:52:33 | 49.63270 | 8.54616 | 98° | 29km/h | 18585m | 5.4m/s | -53.1°C | 1% | 73hPa | 2.7V | 03:55:12 | 01:23:21 | 00:00:00 | |
| DL1XH-west | 2026-08-31 17:52:30 | 49.63271 | 8.54604 | 98° | 29km/h | 18581m | 4.2m/s | -53.1°C | 1.1% | 73.1hPa | 2.7V | 03:55:12 | 01:23:20 | 00:00:00 | |
| DL1XH1-15 | 2026-08-31 17:52:28 | 49.63277 | 8.54561 | 100° | 27km/h | 18561m | 4.9m/s | -53.1°C | 4.3% | 73.3hPa | 2.6V | 03:55:14 | 01:23:16 | 00:00:00 | |
| DL8DAS-14 | 2026-08-31 17:52:23 | 49.63282 | 8.54529 | 105° | 26km/h | 18547m | 4.1m/s | -53.2°C | 1.5% | 73.4hPa | 2.6V | 00:00:00 | 00:00:00 | 00:00:00 | |
| DO3MHA-11 | 2026-08-31 17:52:22 | 49.63284 | 8.54519 | 103° | 29km/h | 18543m | 4.1m/s | -53.2°C | 4.3% | 73.4hPa | 2.6V | 00:00:00 | 01:23:12 | 00:00:00 | |
| DL1XH1-15 | 2026-08-31 17:52:21 | 49.63288 | 8.54454 | 96° | 29km/h | 18514m | 5m/s | -53.5°C | 4.3% | 73.8hPa | 2.6V | 03:55:24 | 01:23:06 | 00:00:00 | |
| DL1XH-west | 2026-08-31 17:52:20 | 49.63285 | 8.54498 | 91° | 27km/h | 18533m | 4.1m/s | -53.3°C | 1% | 73.6hPa | 2.6V | 03:56:03 | 01:23:10 | 00:00:00 | |
| DM0DOS-11 | 2026-08-31 17:52:19 | 49.63286 | 8.54477 | 97° | 27km/h | 18524m | 4.9m/s | -53.3°C | 4.2% | 73.7hPa | 2.7V | 03:55:22 | 01:23:08 | 00:00:00 | |
| BIOWL1-15 | 2026-08-31 17:52:14 | 49.63291 | 8.54381 | 87° | 35km/h | 18485m | 5.1m/s | -53.8°C | 1.2% | 74.1hPa | 2.7V | 03:56:03 | 01:23:00 | 00:00:00 | |
| DM0DOS-11 | 2026-08-31 17:52:13 | 49.63290 | 8.54354 | 86° | 35km/h | 18475m | 4.8m/s | -53.7°C | 4.5% | 74.2hPa | 2.7V | 03:55:32 | 01:22:58 | 00:00:00 | |
| DO3MHA-11 | 2026-08-31 17:52:12 | 49.63290 | 8.54406 | 96° | 35km/h | 18495m | 3.5m/s | -53.8°C | 4.6% | 74.0hPa | 2.6V | 00:00:00 | 01:23:02 | 00:00:00 | |
| DL1XH1-15 | 2026-08-31 17:52:11 | 49.63288 | 8.54327 | 81° | 37km/h | 18466m | 5.8m/s | -53.7°C | 4.5% | 74.4hPa | 2.6V | 03:55:34 | 01:22:56 | 00:00:00 | |
| DL1XH-west | 2026-08-31 17:52:09 | 49.63290 | 8.54367 | 85° | 35km/h | 18480m | 4.8m/s | -53.8°C | 1.2% | 74.2hPa | 2.7V | 03:56:03 | 01:22:59 | 00:00:00 | |
| BIOWL1-15 | 2026-08-31 17:52:01 | 49.63278 | 8.54238 | 84° | 29km/h | 18431m | 5.6m/s | -53.6°C | 1.2% | 74.7hPa | 2.6V | 03:56:03 | 01:22:49 | 00:00:00 | |
| DJ2DS-15 | 2026-08-31 17:52:00 | 49.63279 | 8.54249 | 80° | 35km/h | 18436m | 4.1m/s | -53.5°C | 4.5% | 74.6hPa | 2.6V | 00:00:00 | 01:22:50 | 00:00:00 | |
| DL1XH1-15 | 2026-08-31 17:51:59 | 49.63275 | 8.54179 | 85° | 33km/h | 18406m | 4.7m/s | -53.6°C | 4.5% | 75hPa | 2.7V | 03:55:46 | 01:22:44 | 00:00:00 | |
| DL1XH-west | 2026-08-31 17:51:58 | 49.63277 | 8.54227 | 88° | 29km/h | 18426m | 4.7m/s | -53.6°C | 1.1% | 74.8hPa | 2.7V | 03:56:03 | 01:22:48 | 00:00:00 | |
| DL1ZP-14 | 2026-08-31 17:51:57 | 49.63277 | 8.54215 | 88° | 29km/h | 18421m | 4.8m/s | -53.5°C | 1.5% | 74.9hPa | 2.7V | 00:00:00 | 00:00:00 | 00:00:00 | |
| DM7RM-13 | 2026-08-31 17:51:56 | 49.63277 | 8.54215 | 89° | 29km/h | 18421m | 4.8m/s | -53.5°C | 1.5% | 74.9hPa | 2.6V | 03:56:00 | 00:00:00 | 00:00:00 | |
| DL8OAI-8 | 2026-08-31 17:51:55 | 49.63277 | 8.54204 | 86° | 31km/h | 18416m | 5.6m/s | 0°C | 0% | 0hPa | 2.6V | 00:00:00 | 00:00:00 | 00:00:00 | |
| DL8DAS-15 | 2026-08-31 17:51:53 | 49.63275 | 8.54179 | 86° | 33km/h | 18407m | 4.7m/s | -53.6°C | 1.5% | 75.0hPa | 2.6V | 03:56:00 | 00:00:00 | 00:00:00 | |
| DO3MHA-11 | 2026-08-31 17:51:52 | 49.63274 | 8.54154 | 85° | 37km/h | 18398m | 3.6m/s | -53.5°C | 4.5% | 75.1hPa | 2.6V | 03:55:00 | 01:22:42 | 00:00:00 | |
| DN1GJH-1 | 2026-08-31 17:51:51 | 49.63273 | 8.54154 | 85° | 33km/h | 18398m | 3.7m/s | -53.6°C | 1.5% | 75.1hPa | 2.6V | 03:56:00 | 00:00:00 | 00:00:00 | |
| DB0UT-7 | 2026-08-31 17:51:50 | 49.63271 | 8.54128 | 77° | 38km/h | 18388m | 4.8m/s | -53.5°C | 4.5% | 75.2hPa | 2.6V | 03:55:00 | 01:22:40 | 00:00:00 | |
| DL1XH1-15 | 2026-08-31 17:51:49 | 49.63262 | 8.54041 | 86° | 38km/h | 18358m | 4.1m/s | -53.3°C | 4.4% | 75.6hPa | 2.6V | 03:55:56 | 01:22:34 | 00:00:00 | |
| BIOWL1-15 | 2026-08-31 17:51:49 | 49.63269 | 8.54114 | 77° | 37km/h | 18383m | 4.1m/s | -53.5°C | 1.2% | 75.3hPa | 2.7V | 03:56:03 | 01:22:39 | 00:00:00 | |
| DM0DOS-11 | 2026-08-31 17:51:47 | 49.63261 | 8.54013 | 91° | 37km/h | 18347m | 4.9m/s | -53.2°C | 4.4% | 75.7hPa | 2.7V | 03:55:58 | 01:22:32 | 00:00:00 | |
| DL1XH-west | 2026-08-31 17:51:47 | 49.63265 | 8.54086 | 82° | 37km/h | 18372m | 4.7m/s | -53.4°C | 1.1% | 75.5hPa | 2.7V | 03:56:03 | 01:22:37 | 00:00:00 | |
| DO1YAY-16 | 2026-08-31 17:51:46 | 49.63264 | 8.54071 | 81° | 37km/h | 18367m | 5.7m/s | -53.4°C | 1.5% | 75.5hPa | 2.7V | 00:00:00 | 00:00:00 | 00:00:00 | |
| DL0LBS | 2026-08-31 17:51:45 | 49.63264 | 8.54071 | 83° | 38km/h | 18368m | 5.7m/s | -53.4°C | 1.5% | 75.5hPa | 2.7V | 03:56:00 | 00:00:00 | 00:00:00 | |
| DO3MHA-11 | 2026-08-31 17:51:42 | 49.63261 | 8.54012 | 92° | 38km/h | 18348m | 4.8m/s | -53.2°C | 4.4% | 75.7hPa | 2.7V | 00:00:00 | 01:22:32 | 00:00:00 | |
| KANTATE | 2026-08-31 17:51:41 | 49.63261 | 8.54012 | 92° | 37km/h | 18348m | 4.9m/s | -53.2°C | 1.5% | 75.7hPa | 2.6V | 00:00:00 | 00:00:00 | 00:00:00 | |
| DJ2DS-15 | 2026-08-31 17:51:40 | 49.63261 | 8.53984 | 87° | 38km/h | 18338m | 5.3m/s | -53.2°C | 4.4% | 75.8hPa | 2.6V | 03:56:00 | 01:22:30 | 00:00:00 | |
| DL1XH1-15 | 2026-08-31 17:51:39 | 49.63259 | 8.53895 | 91° | 42km/h | 18305m | 5.3m/s | -53°C | 4.3% | 76.2hPa | 2.6V | 03:56:06 | 01:22:24 | 00:00:00 | |
| BIOWL1-15 | 2026-08-31 17:51:38 | 49.63259 | 8.53955 | 86° | 37km/h | 18327m | 6m/s | -53.2°C | 1.1% | 76hPa | 2.6V | 03:56:03 | 01:22:28 | 00:00:00 | |
| DM0DOS-11 | 2026-08-31 17:51:37 | 49.63261 | 8.53863 | 97° | 42km/h | 18294m | 4.8m/s | -52.9°C | 4.3% | 76.3hPa | 2.7V | 03:56:08 | 01:22:22 | 00:00:00 | |
| DL1XH-west | 2026-08-31 17:51:37 | 49.63259 | 8.53941 | 89° | 37km/h | 18322m | 5.3m/s | -53.1°C | 1.1% | 76hPa | 2.7V | 03:56:03 | 01:22:27 | 00:00:00 | |
| DM7RM-13 | 2026-08-31 17:51:36 | 49.63259 | 8.53941 | 90° | 37km/h | 18322m | 5.3m/s | -53.1°C | 1.5% | 76.0hPa | 2.6V | 03:56:00 | 00:00:00 | 00:00:00 | |
| NBG1-10 | 2026-08-31 17:51:34 | 49.63259 | 8.53895 | 92° | 42km/h | 18305m | 5.3m/s | -52.9°C | 4.3% | 76.2hPa | 2.6V | 00:00:00 | 01:22:24 | 00:00:00 | |
| DO3MHA-11 | 2026-08-31 17:51:32 | 49.63261 | 8.53863 | 98° | 38km/h | 18294m | 4.8m/s | -52.9°C | 4.3% | 76.3hPa | 2.6V | 00:00:00 | 01:22:22 | 00:00:00 | |
| DO3DL | 2026-08-31 17:51:31 | 49.63261 | 8.53863 | 99° | 42km/h | 18294m | 4.9m/s | -52.9°C | 1.4% | 76.4hPa | 2.6V | 03:56:00 | 00:00:00 | 00:00:00 | |
| DN1GJH-1 | 2026-08-31 17:51:30 | 49.63262 | 8.53847 | 98° | 40km/h | 18290m | 4.7m/s | -53.0°C | 1.5% | 76.4hPa | 2.6V | 00:00:00 | 00:00:00 | 00:00:00 | |
| DL1XH1-15 | 2026-08-31 17:51:29 | 49.63268 | 8.53746 | 94° | 38km/h | 18254m | 4.1m/s | -53.1°C | 4.4% | 76.8hPa | 2.6V | 03:56:16 | 01:22:14 | 00:00:00 | |
| BIOWL1-15 | 2026-08-31 17:51:28 | 49.63264 | 8.53802 | 93° | 37km/h | 18274m | 5.8m/s | -53°C | 1.1% | 76.6hPa | 2.7V | 03:56:54 | 01:22:18 | 00:00:00 | |
| DL1XH-west | 2026-08-31 17:51:26 | 49.63266 | 8.53774 | 96° | 35km/h | 18264m | 4.5m/s | -53.1°C | 1.1% | 76.7hPa | 2.7V | 03:56:54 | 01:22:16 | 00:00:00 | |
| DL0LBS | 2026-08-31 17:51:25 | 49.63266 | 8.53774 | 97° | 35km/h | 18264m | 4.5m/s | -53.1°C | 1.5% | 76.7hPa | 2.6V | 03:56:00 | 00:00:00 | 00:00:00 | |
| DJ2DS-15 | 2026-08-31 17:51:24 | 49.63267 | 8.53746 | 94° | 38km/h | 18254m | 4.1m/s | -53.1°C | 1.5% | 76.8hPa | 2.6V | 00:00:00 | 00:00:00 | 00:00:00 | |
| DO3MHA-11 | 2026-08-31 17:51:22 | 49.63269 | 8.53716 | 99° | 42km/h | 18245m | 5.1m/s | -53.1°C | 4.3% | 76.9hPa | 2.6V | 00:00:00 | 01:22:12 | 00:00:00 | |
| DL8DAS-14 | 2026-08-31 17:51:21 | 49.63271 | 8.53700 | 98° | 40km/h | 18240m | 4.6m/s | -53.1°C | 1.5% | 77.0hPa | 2.6V | 00:00:00 | 00:00:00 | 00:00:00 | |
| DJ2DS-15 | 2026-08-31 17:51:20 | 49.63272 | 8.53685 | 96° | 46km/h | 18235m | 5.7m/s | -53.1°C | 4.3% | 77.0hPa | 2.6V | 00:00:00 | 01:22:10 | 00:00:00 | |
| DL1XH1-15 | 2026-08-31 17:51:19 | 49.63278 | 8.53588 | 92° | 46km/h | 18206m | 5.3m/s | -53.2°C | 4.3% | 77.4hPa | 2.6V | 03:56:26 | 01:22:04 | 00:00:00 | |
| BIOWL1-15 | 2026-08-31 17:51:18 | 49.63274 | 8.53653 | 94° | 40km/h | 18225m | 5.1m/s | -53.2°C | 1.1% | 77.2hPa | 2.6V | 03:56:54 | 01:22:08 | 00:00:00 | |
| DL1XH-west | 2026-08-31 17:51:15 | 49.63277 | 8.53605 | 95° | 42km/h | 18211m | 4.7m/s | -53.2°C | 1.1% | 77.3hPa | 2.7V | 03:56:54 | 01:22:05 | 00:00:00 | |
| DM0DOS-11 | 2026-08-31 17:51:14 | 49.63279 | 8.53496 | 89° | 49km/h | 18182m | 5.6m/s | -53.3°C | 4.4% | 77.7hPa | 2.6V | 03:56:31 | 01:21:59 | 00:00:00 | |
| DO3MHA-11 | 2026-08-31 17:51:12 | 49.63278 | 8.53551 | 91° | 47km/h | 18196m | 5.1m/s | -53.1°C | 4.3% | 77.5hPa | 2.7V | 03:56:00 | 01:22:02 | 00:00:00 | |
| DF3TZ-5 | 2026-08-31 17:51:11 | 49.63279 | 8.53495 | 89° | 47km/h | 18182m | 5.6m/s | -53.3°C | 1.5% | 77.7hPa | 2.6V | 00:00:00 | 00:00:00 | 00:00:00 | |
| DL1XH1-15 | 2026-08-31 17:51:09 | 49.63278 | 8.53401 | 84° | 47km/h | 18157m | 5.3m/s | -53.2°C | 4.5% | 78hPa | 2.6V | 03:56:36 | 01:21:54 | 00:00:00 | |
| BIOWL1-15 | 2026-08-31 17:51:09 | 49.63279 | 8.53457 | 91° | 49km/h | 18172m | 5.8m/s | -53.3°C | 1.1% | 77.8hPa | 2.7V | 03:56:54 | 01:21:57 | 00:00:00 | |
| DB0UT-9 | 2026-08-31 17:51:08 | 49.63279 | 8.53495 | 91° | 49km/h | 18182m | 5.6m/s | -53.3°C | 1.5% | 77.7hPa | 2.7V | 03:56:00 | 00:00:00 | 00:00:00 | |
| DL8OAI-8 | 2026-08-31 17:51:07 | 49.63279 | 8.53477 | 90° | 49km/h | 18177m | 4.1m/s | 0°C | 0% | 0hPa | 2.7V | 00:00:00 | 00:00:00 | 00:00:00 | |
| DB0NH | 2026-08-31 17:51:06 | 49.63279 | 8.53438 | 91° | 47km/h | 18167m | 4.4m/s | -53.3°C | 4.5% | 77.8hPa | 2.7V | 00:00:00 | 01:21:56 | 00:00:00 | |
| DF2AP-13 | 2026-08-31 17:51:05 | 49.63279 | 8.53419 | 88° | 47km/h | 18162m | 5.2m/s | -53.2°C | 4.4% | 77.9hPa | 2.7V | 00:00:00 | 01:21:55 | 00:00:00 | |
| DL1XH-west | 2026-08-31 17:51:05 | 49.63279 | 8.53420 | 88° | 47km/h | 18162m | 5.3m/s | -53.3°C | 1.1% | 77.9hPa | 2.7V | 03:56:54 | 01:21:55 | 00:00:00 | |
| DL0LBS | 2026-08-31 17:51:04 | 49.63279 | 8.53419 | 89° | 47km/h | 18162m | 5.3m/s | -53.3°C | 1.5% | 77.9hPa | 2.7V | 03:56:00 | 00:00:00 | 00:00:00 | |
| DO3MHA-11 | 2026-08-31 17:51:02 | 49.63275 | 8.53366 | 82° | 47km/h | 18147m | 5.2m/s | -53.1°C | 4.4% | 78.1hPa | 2.7V | 00:00:00 | 01:21:52 | 00:00:00 | |
| NBG1-10 | 2026-08-31 17:51:01 | 49.63273 | 8.53349 | 79° | 49km/h | 18143m | 3.5m/s | -53.1°C | 4.3% | 78.1hPa | 2.7V | 00:00:00 | 01:21:51 | 00:00:00 | |
| DJ2DS-15 | 2026-08-31 17:51:00 | 49.63271 | 8.53332 | 76° | 49km/h | 18138m | 5.7m/s | -53.1°C | 4.4% | 78.2hPa | 2.7V | 00:00:00 | 01:21:50 | 00:00:00 | |
| DL1XH1-15 | 2026-08-31 17:50:59 | 49.63255 | 8.53223 | 80° | 49km/h | 18108m | 4.4m/s | -53.2°C | 4.4% | 78.6hPa | 2.7V | 03:56:46 | 01:21:44 | 00:00:00 | |
| BIOWL1-15 | 2026-08-31 17:50:58 | 49.63260 | 8.53261 | 80° | 49km/h | 18119m | 4.7m/s | -53.2°C | 1.1% | 78.5hPa | 2.6V | 03:56:54 | 01:21:46 | 00:00:00 | |
| DL1XH-west | 2026-08-31 17:50:55 | 49.63258 | 8.53242 | 79° | 49km/h | 18113m | 5.5m/s | -53.2°C | 1.1% | 78.5hPa | 2.7V | 03:56:54 | 01:21:45 | 00:00:00 | |
| DL1ZP-14 | 2026-08-31 17:50:55 | 49.63255 | 8.53223 | 80° | 49km/h | 18108m | 4.4m/s | -53.2°C | 1.5% | 78.6hPa | 2.7V | 00:00:00 | 00:00:00 | 00:00:00 | |
| DH7VM-15 | 2026-08-31 17:50:54 | 49.63255 | 8.53223 | 81° | 49km/h | 18108m | 4.4m/s | -53.2°C | 1.5% | 78.6hPa | 2.7V | 00:00:00 | 00:00:00 | 00:00:00 | |
| BIOWL7-15 | 2026-08-31 17:50:53 | 49.63255 | 8.53223 | 81° | 49km/h | 18108m | 4.4m/s | -53.2°C | 1.5% | 78.6hPa | 2.7V | 03:56:00 | 00:00:00 | 00:00:00 | |
| DO3MHA-11 | 2026-08-31 17:50:52 | 49.63252 | 8.53184 | 86° | 49km/h | 18099m | 3.8m/s | -53.1°C | 4.4% | 78.6hPa | 2.7V | 00:00:00 | 01:21:42 | 00:00:00 | |
| SFWM-10 | 2026-08-31 17:50:51 | 49.63252 | 8.53184 | 86° | 49km/h | 18099m | 3.9m/s | -53.2°C | 1.5% | 78.7hPa | 2.7V | 03:56:00 | 00:00:00 | 00:00:00 | |
| DB0UT-7 | 2026-08-31 17:50:50 | 49.63249 | 8.53146 | 81° | 49km/h | 18090m | 5.2m/s | -53.1°C | 4.4% | 78.8hPa | 2.7V | 00:00:00 | 01:21:40 | 00:00:00 | |
| DL1XH1-15 | 2026-08-31 17:50:49 | 49.63234 | 8.53035 | 75° | 47km/h | 18060m | 5.5m/s | -53.1°C | 4.4% | 79.2hPa | 2.7V | 03:56:56 | 01:21:34 | 00:00:00 | |
| BIOWL1-15 | 2026-08-31 17:50:45 | 49.63237 | 8.53053 | 77° | 47km/h | 18065m | 5.1m/s | -53.1°C | 1.1% | 79.1hPa | 2.7V | 03:57:45 | 01:21:35 | 00:00:00 | |
| DM0DOS-11 | 2026-08-31 17:50:44 | 49.63219 | 8.52944 | 73° | 49km/h | 18036m | 4.2m/s | -52.9°C | 4.4% | 79.5hPa | 2.7V | 03:57:01 | 01:21:29 | 00:00:00 | |
| DL1XH-west | 2026-08-31 17:50:44 | 49.63234 | 8.53035 | 75° | 47km/h | 18060m | 5.5m/s | -53.1°C | 1.1% | 79.2hPa | 2.7V | 03:57:45 | 01:21:34 | 00:00:00 | |
| DO3MHA-11 | 2026-08-31 17:50:41 | 49.63226 | 8.52981 | 78° | 51km/h | 18046m | 3.9m/s | -53.0°C | 4.4% | 79.3hPa | 2.6V | 00:00:00 | 01:21:31 | 00:00:00 | |
| DJ2DS-15 | 2026-08-31 17:50:40 | 49.63223 | 8.52962 | 75° | 51km/h | 18041m | 5.5m/s | -52.9°C | 4.4% | 79.4hPa | 2.7V | 00:00:00 | 01:21:30 | 00:00:00 | |
| DL1XH1-15 | 2026-08-31 17:50:39 | 49.63201 | 8.52851 | 69° | 51km/h | 18011m | 4.6m/s | -53°C | 4.4% | 79.8hPa | 2.7V | 03:57:06 | 01:21:24 | 00:00:00 | |
| DJTTGO | 2026-08-31 17:50:38 | 49.63219 | 8.52944 | 75° | 49km/h | 18037m | 4.2m/s | -52.9°C | 1.5% | 79.5hPa | 2.6V | 03:57:00 | 00:00:00 | 00:00:00 | |
| KANTATE | 2026-08-31 17:50:37 | 49.63216 | 8.52925 | 76° | 49km/h | 18032m | 5.4m/s | -52.9°C | 1.5% | 79.5hPa | 2.6V | 00:00:00 | 00:00:00 | 00:00:00 | |
| DB0NH | 2026-08-31 17:50:36 | 49.63209 | 8.52888 | 73° | 51km/h | 18022m | 4.7m/s | -52.9°C | 4.4% | 79.6hPa | 2.6V | 00:00:00 | 01:21:26 | 00:00:00 | |
| DF2AP-13 | 2026-08-31 17:50:35 | 49.63205 | 8.52869 | 71° | 49km/h | 18017m | 5.6m/s | -52.9°C | 4.4% | 79.7hPa | 2.6V | 00:00:00 | 01:21:25 | 00:00:00 | |
| DM0DOS-11 | 2026-08-31 17:50:34 | 49.63179 | 8.52754 | 70° | 53km/h | 17985m | 4.5m/s | -52.9°C | 4.5% | 80.1hPa | 2.7V | 03:57:11 | 01:21:19 | 00:00:00 | |
| BIOWL1-15 | 2026-08-31 17:50:34 | 49.63201 | 8.52851 | 70° | 51km/h | 18011m | 4.6m/s | -53°C | 1.1% | 79.8hPa | 2.7V | 03:57:45 | 01:21:24 | 00:00:00 | |
| DL1XH-west | 2026-08-31 17:50:33 | 49.63197 | 8.52832 | 71° | 51km/h | 18006m | 6m/s | -53°C | 1.1% | 79.9hPa | 2.7V | 03:57:45 | 01:21:23 | 00:00:00 | |
| DJ2KF-10 | 2026-08-31 17:50:32 | 49.63192 | 8.52812 | 73° | 53km/h | 18001m | 5.0m/s | -52.9°C | 4.4% | 79.9hPa | 2.6V | 00:00:00 | 01:21:22 | 00:00:00 | |
| DL4BBY-15 | 2026-08-31 17:50:31 | 49.63188 | 8.52793 | 72° | 51km/h | 17995m | 5.6m/s | -51.6°C | 0% | 0hPa | 2.7V | 00:00:00 | 00:00:00 | 00:00:00 | |
| DO3DL | 2026-08-31 17:50:30 | 49.63188 | 8.52793 | 72° | 53km/h | 17995m | 5.7m/s | -53.0°C | 1.5% | 80.0hPa | 2.7V | 03:57:00 | 00:00:00 | 00:00:00 | |
| DL1XH1-15 | 2026-08-31 17:50:29 | 49.63159 | 8.52663 | 67° | 51km/h | 17960m | 5m/s | -52.7°C | 4.4% | 80.4hPa | 2.7V | 03:57:16 | 01:21:14 | 00:00:00 | |
| NBG1-10 | 2026-08-31 17:50:28 | 49.63175 | 8.52735 | 72° | 49km/h | 17980m | 5.8m/s | -52.8°C | 4.4% | 80.1hPa | 2.7V | 00:00:00 | 01:21:18 | 00:00:00 | |
| DB0UT-9 | 2026-08-31 17:50:27 | 49.63175 | 8.52735 | 73° | 51km/h | 17980m | 5.9m/s | -52.9°C | 1.5% | 80.2hPa | 2.7V | 03:57:00 | 00:00:00 | 00:00:00 | |
| DL8DAS-15 | 2026-08-31 17:50:26 | 49.63171 | 8.52717 | 74° | 49km/h | 17975m | 4.3m/s | -52.8°C | 1.5% | 80.2hPa | 2.7V | 00:00:00 | 00:00:00 | 00:00:00 | |
| DM0DOS-11 | 2026-08-31 17:50:24 | 49.63135 | 8.52568 | 68° | 57km/h | 17934m | 4.8m/s | -52.5°C | 4.4% | 80.8hPa | 2.7V | 03:57:21 | 01:21:09 | 00:00:00 | |
| BIOWL1-15 | 2026-08-31 17:50:23 | 49.63154 | 8.52645 | 69° | 51km/h | 17955m | 6m/s | -52.7°C | 1.1% | 80.5hPa | 2.7V | 03:57:45 | 01:21:13 | 00:00:00 | |
| DL1XH-west | 2026-08-31 17:50:22 | 49.63149 | 8.52626 | 70° | 51km/h | 17949m | 4.9m/s | -52.6°C | 1.1% | 80.6hPa | 2.6V | 03:57:45 | 01:21:12 | 00:00:00 | |
| BIOWL1-15 | 2026-08-31 17:50:15 | 49.63105 | 8.52453 | 66° | 47km/h | 17903m | 6.2m/s | -52.2°C | 1.1% | 81.1hPa | 2.7V | 03:57:45 | 01:21:03 | 00:00:00 | |
| DM0DOS-11 | 2026-08-31 17:50:14 | 49.63085 | 8.52389 | 60° | 47km/h | 17882m | 4.9m/s | -52.1°C | 4.3% | 81.4hPa | 2.7V | 03:57:31 | 01:20:59 | 00:00:00 | |
| DL1XH-west | 2026-08-31 17:50:12 | 49.63100 | 8.52436 | 66° | 46km/h | 17898m | 4.8m/s | -52.2°C | 1.1% | 81.2hPa | 2.7V | 03:57:45 | 01:21:02 | 00:00:00 | |
| DO3DL | 2026-08-31 17:50:10 | 49.63095 | 8.52421 | 65° | 44km/h | 17893m | 5.0m/s | -52.1°C | 1.5% | 81.3hPa | 2.7V | 03:57:00 | 00:00:00 | 00:00:00 | |
| DL1XH1-15 | 2026-08-31 17:50:09 | 49.63055 | 8.52304 | 63° | 53km/h | 17855m | 5m/s | -51.9°C | 4.2% | 81.7hPa | 2.7V | 03:57:36 | 01:20:54 | 00:00:00 | |
| DF3TZ-5 | 2026-08-31 17:50:09 | 49.63079 | 8.52373 | 60° | 47km/h | 17877m | 5.2m/s | -52.0°C | 1.4% | 81.4hPa | 2.7V | 00:00:00 | 00:00:00 | 00:00:00 | |
| DO3MHA-11 | 2026-08-31 17:50:08 | 49.63079 | 8.52373 | 61° | 49km/h | 17877m | 5.2m/s | -52.0°C | 4.2% | 81.4hPa | 2.7V | 00:00:00 | 01:20:58 | 00:00:00 | |
| DN1GJH-1 | 2026-08-31 17:50:07 | 49.63079 | 8.52373 | 62° | 49km/h | 17877m | 5.2m/s | -52.0°C | 1.5% | 81.4hPa | 2.6V | 03:57:00 | 00:00:00 | 00:00:00 | |
| DB0UT-9 | 2026-08-31 17:50:06 | 49.63073 | 8.52356 | 64° | 49km/h | 17872m | 6.0m/s | -52.0°C | 1.5% | 81.5hPa | 2.6V | 03:57:00 | 00:00:00 | 00:00:00 | |
| DF2AP-13 | 2026-08-31 17:50:05 | 49.63062 | 8.52322 | 63° | 46km/h | 17861m | 6.1m/s | -51.8°C | 4.2% | 81.6hPa | 2.6V | 03:57:00 | 01:20:55 | 00:00:00 | |
| DM0DOS-11 | 2026-08-31 17:50:04 | 49.63032 | 8.52216 | 68° | 47km/h | 17829m | 5.3m/s | -51.7°C | 4.2% | 82.1hPa | 2.6V | 03:57:41 | 01:20:49 | 00:00:00 | |
| BIOWL1-15 | 2026-08-31 17:50:04 | 49.63050 | 8.52286 | 65° | 51km/h | 17850m | 5.6m/s | -51.8°C | 1% | 81.8hPa | 2.7V | 03:57:45 | 01:20:53 | 00:00:00 | |
| DL1XH-west | 2026-08-31 17:50:01 | 49.63040 | 8.52251 | 70° | 47km/h | 17839m | 3.9m/s | -51.8°C | 1% | 81.9hPa | 2.6V | 03:57:45 | 01:20:51 | 00:00:00 | |
| DL4BBY-15 | 2026-08-31 17:50:01 | 49.63040 | 8.52251 | 70° | 51km/h | 17839m | 3.9m/s | -50.4°C | 0% | 0hPa | 2.6V | 00:00:00 | 00:00:00 | 00:00:00 | |
| DJ2DS-15 | 2026-08-31 17:50:00 | 49.63036 | 8.52234 | 70° | 44km/h | 17835m | 5.9m/s | -51.7°C | 4.2% | 82.0hPa | 2.6V | 00:00:00 | 01:20:50 | 00:00:00 | |
| DL1XH1-15 | 2026-08-31 17:49:59 | 49.63012 | 8.52135 | 66° | 47km/h | 17803m | 5.6m/s | -51.6°C | 4.1% | 82.4hPa | 2.6V | 03:57:46 | 01:20:44 | 00:00:00 | |
| HSKMA3-T | 2026-08-31 17:49:59 | 49.63032 | 8.52216 | 68° | 47km/h | 17829m | 5.3m/s | 0°C | 0% | 0hPa | 2.6V | 18:12:15 | 01:20:49 | 00:00:00 | |
| BIOWL9-15 | 2026-08-31 17:49:56 | 49.63016 | 8.52151 | 68° | 44km/h | 17808m | 4.8m/s | -51.6°C | 1.4% | 82.3hPa | 2.6V | 00:00:00 | 00:00:00 | 00:00:00 | |
| NBG1-10 | 2026-08-31 17:49:55 | 49.63016 | 8.52151 | 69° | 44km/h | 17809m | 4.8m/s | -51.5°C | 4.1% | 82.3hPa | 2.6V | 03:57:00 | 01:20:45 | 00:00:00 | |
| DM0DOS-11 | 2026-08-31 17:49:54 | 49.62988 | 8.52047 | 66° | 49km/h | 17776m | 6.4m/s | -51.5°C | 4% | 82.7hPa | 2.6V | 03:57:51 | 01:20:39 | 00:00:00 | |
| BIOWL1-15 | 2026-08-31 17:49:54 | 49.63002 | 8.52100 | 67° | 49km/h | 17793m | 6.1m/s | -51.6°C | 0.9% | 82.5hPa | 2.7V | 03:58:36 | 01:20:42 | 00:00:00 | |
| DL1XH-west | 2026-08-31 17:49:50 | 49.62992 | 8.52065 | 69° | 49km/h | 17782m | 5.2m/s | -51.6°C | 0.9% | 82.7hPa | 2.6V | 03:58:36 | 01:20:40 | 00:00:00 | |
| DB0UT-7 | 2026-08-31 17:49:50 | 49.62992 | 8.52064 | 69° | 44km/h | 17782m | 5.2m/s | -51.5°C | 4.0% | 82.6hPa | 2.7V | 03:57:00 | 01:20:40 | 00:00:00 | |
| DO3MHA-11 | 2026-08-31 17:49:48 | 49.62982 | 8.52030 | 65° | 42km/h | 17771m | 4.9m/s | -51.4°C | 4.0% | 82.8hPa | 2.7V | 03:57:00 | 01:20:38 | 00:00:00 | |
| DL1XH1-15 | 2026-08-31 17:49:47 | 49.62962 | 8.51939 | 76° | 38km/h | 17738m | 5.8m/s | -51.5°C | 4% | 83.2hPa | 2.7V | 03:57:58 | 01:20:32 | 00:00:00 | |
| DB0UT-9 | 2026-08-31 17:49:46 | 49.62973 | 8.51997 | 70° | 42km/h | 17761m | 6.3m/s | -51.5°C | 1.4% | 83.0hPa | 2.6V | 03:58:00 | 00:00:00 | 00:00:00 | |
| DM0DOS-11 | 2026-08-31 17:49:44 | 49.62954 | 8.51891 | 74° | 46km/h | 17722m | 6.3m/s | -51.6°C | 4.1% | 83.5hPa | 2.6V | 03:58:01 | 01:20:29 | 00:00:00 | |
| BIOWL1-15 | 2026-08-31 17:49:41 | 49.62959 | 8.51924 | 79° | 40km/h | 17733m | 5.4m/s | -51.5°C | 0.9% | 83.3hPa | 2.7V | 03:58:36 | 01:20:31 | 00:00:00 | |
| DL1XH-west | 2026-08-31 17:49:40 | 49.62957 | 8.51908 | 78° | 44km/h | 17727m | 5.1m/s | -51.5°C | 1% | 83.4hPa | 2.6V | 03:58:36 | 01:20:30 | 00:00:00 | |
| DJ2DS-15 | 2026-08-31 17:49:40 | 49.62957 | 8.51908 | 78° | 44km/h | 17728m | 5.1m/s | -51.4°C | 4.1% | 83.3hPa | 2.6V | 00:00:00 | 01:20:30 | 00:00:00 | |
| DO3MHA-11 | 2026-08-31 17:49:38 | 49.62951 | 8.51873 | 72° | 44km/h | 17717m | 4.3m/s | -51.6°C | 4.1% | 83.4hPa | 2.6V | 00:00:00 | 01:20:28 | 00:00:00 | |
| DL1XH1-15 | 2026-08-31 17:49:37 | 49.62928 | 8.51769 | 67° | 42km/h | 17686m | 4.7m/s | -52.2°C | 4.1% | 83.9hPa | 2.6V | 03:58:08 | 01:20:22 | 00:00:00 | |
| DJ2DS-15 | 2026-08-31 17:49:36 | 49.62939 | 8.51819 | 72° | 47km/h | 17701m | 5.2m/s | -51.8°C | 1.3% | 83.7hPa | 2.6V | 00:00:00 | 00:00:00 | 00:00:00 | |
| DF2AP-13 | 2026-08-31 17:49:35 | 49.62938 | 8.51819 | 73° | 44km/h | 17702m | 5.2m/s | -51.8°C | 4.0% | 83.7hPa | 2.6V | 00:00:00 | 01:20:25 | 00:00:00 | |
| DM0DOS-11 | 2026-08-31 17:49:34 | 49.62917 | 8.51731 | 73° | 31km/h | 17672m | 4.5m/s | -52.2°C | 4.2% | 84.1hPa | 2.6V | 03:58:11 | 01:20:19 | 00:00:00 | |
| DL1XH-west | 2026-08-31 17:49:29 | 49.62917 | 8.51731 | 73° | 31km/h | 17672m | 4.5m/s | -52.2°C | 1.1% | 84.1hPa | 2.6V | 03:58:36 | 01:20:19 | 00:00:00 | |
| DO3MHA-11 | 2026-08-31 17:49:28 | 49.62915 | 8.51718 | 80° | 46km/h | 17667m | 4.8m/s | -52.1°C | 4.2% | 84.1hPa | 2.6V | 00:00:00 | 01:20:18 | 00:00:00 | |
| DL8DAS-15 | 2026-08-31 17:49:27 | 49.62915 | 8.51718 | 80° | 35km/h | 17667m | 4.9m/s | -52.2°C | 1.5% | 84.1hPa | 2.6V | 03:58:00 | 00:00:00 | 00:00:00 | |
| DN1GJH-1 | 2026-08-31 17:49:26 | 49.62914 | 8.51704 | 83° | 40km/h | 17662m | 5.5m/s | -52.2°C | 1.5% | 84.2hPa | 2.6V | 03:58:00 | 00:00:00 | 00:00:00 | |
| BIOWL9-15 | 2026-08-31 17:49:25 | 49.62909 | 8.51651 | 79° | 49km/h | 17646m | 5.3m/s | -52.2°C | 1.4% | 84.4hPa | 2.6V | 00:00:00 | 00:00:00 | 00:00:00 | |
| DM0DOS-11 | 2026-08-31 17:49:24 | 49.62896 | 8.51556 | 73° | 46km/h | 17618m | 4.9m/s | -51.9°C | 4.3% | 84.8hPa | 2.6V | 03:58:21 | 01:20:09 | 00:00:00 | |
| BIOWL1-15 | 2026-08-31 17:49:21 | 49.62896 | 8.51556 | 74° | 46km/h | 17618m | 4.9m/s | -51.9°C | 1.1% | 84.8hPa | 2.6V | 03:58:36 | 01:20:09 | 00:00:00 | |
| DL1XH-west | 2026-08-31 17:49:18 | 49.62893 | 8.51539 | 75° | 44km/h | 17612m | 6.4m/s | -51.9°C | 1.1% | 84.9hPa | 2.7V | 03:58:36 | 01:20:08 | 00:00:00 | |
| DO3MHA-11 | 2026-08-31 17:49:18 | 49.62893 | 8.51539 | 75° | 44km/h | 17613m | 6.3m/s | -51.9°C | 4.3% | 84.8hPa | 2.6V | 00:00:00 | 01:20:08 | 00:00:00 | |
| HEMX73-11 | 2026-08-31 17:49:16 | 49.62890 | 8.51523 | 77° | 42km/h | 17607m | 5.2m/s | -51.9°C | 1.5% | 85.0hPa | 2.6V | 03:58:00 | 00:00:00 | 00:00:00 | |
| DJTTGO | 2026-08-31 17:49:15 | 49.62888 | 8.51508 | 76° | 40km/h | 17601m | 5.4m/s | -51.8°C | 1.4% | 85.0hPa | 2.6V | 03:58:00 | 00:00:00 | 00:00:00 | |
| DM0DOS-11 | 2026-08-31 17:49:14 | 49.62871 | 8.51390 | 77° | 47km/h | 17563m | 5m/s | -51.6°C | 4.2% | 85.5hPa | 2.6V | 03:58:31 | 01:19:59 | 00:00:00 | |
| BIOWL1-15 | 2026-08-31 17:49:08 | 49.62869 | 8.51372 | 78° | 47km/h | 17558m | 6.1m/s | -51.5°C | 1% | 85.6hPa | 2.6V | 03:58:36 | 01:19:58 | 00:00:00 | |
| DO3MHA-11 | 2026-08-31 17:49:08 | 49.62869 | 8.51372 | 79° | 40km/h | 17558m | 6.1m/s | -51.5°C | 4.2% | 85.5hPa | 2.6V | 03:58:00 | 01:19:58 | 00:00:00 | |
| DL1XH1-15 | 2026-08-31 17:49:07 | 49.62849 | 8.51279 | 71° | 37km/h | 17525m | 5m/s | -51.3°C | 4.1% | 86hPa | 2.7V | 03:58:38 | 01:19:52 | 00:00:00 | |
| DL1XH-west | 2026-08-31 17:49:07 | 49.62866 | 8.51355 | 78° | 46km/h | 17552m | 5.2m/s | -51.5°C | 1% | 85.7hPa | 2.6V | 03:58:36 | 01:19:57 | 00:00:00 | |
| DB0UT-9 | 2026-08-31 17:49:05 | 49.62860 | 8.51321 | 71° | 42km/h | 17541m | 5.1m/s | -51.4°C | 1.4% | 85.8hPa | 2.6V | 03:58:00 | 00:00:00 | 00:00:00 | |
| DM0DOS-11 | 2026-08-31 17:49:04 | 49.62841 | 8.51237 | 74° | 40km/h | 17509m | 4.6m/s | -51.2°C | 4.1% | 86.2hPa | 2.6V | 03:58:41 | 01:19:49 | 00:00:00 | |
| DB0ND-19 | 2026-08-31 17:49:01 | 49.62847 | 8.51265 | 72° | 35km/h | 17520m | 5.2m/s | -51.3°C | 1.4% | 86.1hPa | 2.6V | 00:00:00 | 00:00:00 | 00:00:00 | |
| DJ2DS-15 | 2026-08-31 17:49:00 | 49.62844 | 8.51251 | 73° | 38km/h | 17515m | 5.6m/s | -51.2°C | 4.2% | 86.1hPa | 2.6V | 03:58:00 | 01:19:50 | 00:00:00 | |
| DO3MHA-11 | 2026-08-31 17:48:58 | 49.62839 | 8.51222 | 79° | 40km/h | 17504m | 5.8m/s | -51.1°C | 4.1% | 86.2hPa | 2.6V | 00:00:00 | 01:19:48 | 00:00:00 | |
| DL1XH1-15 | 2026-08-31 17:48:57 | 49.62823 | 8.51126 | 71° | 40km/h | 17472m | 5.1m/s | -51.1°C | 4% | 86.7hPa | 2.6V | 03:58:48 | 01:19:42 | 00:00:00 | |
| BIOWL1-15 | 2026-08-31 17:48:57 | 49.62837 | 8.51206 | 79° | 42km/h | 17499m | 4m/s | -51.2°C | 1% | 86.3hPa | 2.7V | 03:59:27 | 01:19:47 | 00:00:00 | |
| HEMX73-11 | 2026-08-31 17:48:55 | 49.62834 | 8.51190 | 78° | 44km/h | 17495m | 5.8m/s | -51.1°C | 1.4% | 86.4hPa | 2.7V | 03:59:00 | 00:00:00 | 00:00:00 | |
| DM0DOS-11 | 2026-08-31 17:48:54 | 49.62812 | 8.51086 | 65° | 33km/h | 17458m | 4.6m/s | -51.1°C | 4% | 86.9hPa | 2.7V | 03:58:51 | 01:19:39 | 00:00:00 | |
| HSKMA3-T | 2026-08-31 17:48:49 | 49.62812 | 8.51086 | 65° | 33km/h | 17458m | 4.6m/s | 0°C | 0% | 0hPa | 2.7V | 18:12:15 | 01:19:39 | 00:00:00 | |
| NBG1-10 | 2026-08-31 17:48:49 | 49.62812 | 8.51086 | 66° | 38km/h | 17458m | 4.6m/s | -51.0°C | 4.0% | 86.9hPa | 2.6V | 00:00:00 | 01:19:39 | 00:00:00 | |
| DO3MHA-11 | 2026-08-31 17:48:48 | 49.62809 | 8.51074 | 70° | 37km/h | 17453m | 5.6m/s | -51.1°C | 4.1% | 87.0hPa | 2.6V | 00:00:00 | 01:19:38 | 00:00:00 | |
| DL1XH1-15 | 2026-08-31 17:48:47 | 49.62795 | 8.50996 | 80° | 38km/h | 17419m | 5.3m/s | -50.8°C | 4% | 0hPa | 2.6V | 03:58:58 | 01:19:32 | 00:00:00 | |
| DL1XH-west | 2026-08-31 17:48:46 | 49.62804 | 8.51050 | 74° | 33km/h | 17442m | 6m/s | -51°C | 0.9% | 87.1hPa | 2.6V | 03:59:27 | 01:19:36 | 00:00:00 | |
| DB0UT-9 | 2026-08-31 17:48:44 | 49.62801 | 8.51038 | 74° | 35km/h | 17436m | 6.1m/s | -51.0°C | 1.4% | 87.2hPa | 2.6V | 03:59:00 | 00:00:00 | 00:00:00 | |
| DL9PN | 2026-08-31 17:48:41 | 49.62791 | 8.50966 | 77° | 42km/h | 17409m | 6.1m/s | -50.8°C | 1.4% | 87.6hPa | 2.6V | 00:00:00 | 00:00:00 | 00:00:00 | |
| DJ2DS-15 | 2026-08-31 17:48:40 | 49.62791 | 8.50966 | 78° | 38km/h | 17409m | 6.0m/s | -50.8°C | 4.0% | 87.5hPa | 2.6V | 00:00:00 | 01:19:30 | 00:00:00 | |
| DO3MHA-11 | 2026-08-31 17:48:38 | 49.62786 | 8.50933 | 77° | 37km/h | 17399m | 5.4m/s | -50.7°C | 3.9% | 87.7hPa | 2.6V | 00:00:00 | 01:19:28 | 00:00:00 | |
| DL1XH1-15 | 2026-08-31 17:48:37 | 49.62772 | 8.50850 | 74° | 33km/h | 17365m | 5.2m/s | -50.5°C | 3.9% | 0hPa | 2.7V | 03:59:08 | 01:19:22 | 00:00:00 | |
| HSKMA3-T | 2026-08-31 17:48:36 | 49.62782 | 8.50903 | 79° | 38km/h | 17387m | 5.2m/s | 0°C | 0% | 0hPa | 2.7V | 18:12:15 | 01:19:26 | 00:00:00 | |
| DL1XH-west | 2026-08-31 17:48:35 | 49.62780 | 8.50889 | 76° | 37km/h | 17382m | 6m/s | -50.7°C | 0.9% | 88hPa | 2.6V | 03:59:27 | 01:19:25 | 00:00:00 | |
| DF2AP-13 | 2026-08-31 17:48:35 | 49.62780 | 8.50889 | 76° | 37km/h | 17382m | 6.0m/s | -50.6°C | 3.9% | 87.9hPa | 2.6V | 00:00:00 | 01:19:25 | 00:00:00 | |
| DM0DOS-11 | 2026-08-31 17:48:34 | 49.62764 | 8.50810 | 68° | 40km/h | 17350m | 4.5m/s | -50.6°C | 3.9% | 88.3hPa | 2.6V | 03:59:11 | 01:19:19 | 00:00:00 | |
| DM7RM-13 | 2026-08-31 17:48:31 | 49.62770 | 8.50837 | 74° | 35km/h | 17360m | 4.8m/s | -50.5°C | 1.4% | 88.2hPa | 2.6V | 03:59:00 | 00:00:00 | 00:00:00 | |
| DB0ND-19 | 2026-08-31 17:48:30 | 49.62767 | 8.50824 | 69° | 35km/h | 17355m | 5.8m/s | -50.6°C | 1.3% | 88.3hPa | 2.6V | 00:00:00 | 00:00:00 | 00:00:00 | |
| DL8DAS-15 | 2026-08-31 17:48:29 | 49.62767 | 8.50824 | 71° | 37km/h | 17355m | 5.8m/s | -50.6°C | 1.4% | 88.3hPa | 2.6V | 03:59:00 | 00:00:00 | 00:00:00 | |
| DO3MHA-11 | 2026-08-31 17:48:28 | 49.62760 | 8.50795 | 71° | 37km/h | 17346m | 4.5m/s | -50.6°C | 4.0% | 88.3hPa | 2.6V | 03:59:00 | 01:19:18 | 00:00:00 | |
| DL1XH1-15 | 2026-08-31 17:48:27 | 49.62743 | 8.50701 | 81° | 37km/h | 17317m | 5.7m/s | -50.8°C | 4% | 0hPa | 2.6V | 03:59:18 | 01:19:12 | 00:00:00 | |
| HSKMA3-T | 2026-08-31 17:48:25 | 49.62751 | 8.50747 | 74° | 44km/h | 17331m | 5.5m/s | 0°C | 0% | 0hPa | 2.7V | 18:12:15 | 01:19:15 | 00:00:00 | |
| DM0DOS-11 | 2026-08-31 17:48:24 | 49.62742 | 8.50663 | 86° | 29km/h | 17302m | 5.3m/s | -50.7°C | 4% | 89hPa | 2.7V | 03:59:21 | 01:19:09 | 00:00:00 | |
| BIOWL1-15 | 2026-08-31 17:48:24 | 49.62747 | 8.50731 | 74° | 42km/h | 17326m | 3.9m/s | -50.8°C | 0.9% | 88.7hPa | 2.7V | 03:59:27 | 01:19:14 | 00:00:00 | |
| DJ2DS-15 | 2026-08-31 17:48:24 | 49.62745 | 8.50716 | 76° | 38km/h | 17322m | 3.8m/s | -50.8°C | 1.4% | 88.8hPa | 2.7V | 00:00:00 | 00:00:00 | 00:00:00 | |
| BIOWL9-15 | 2026-08-31 17:48:23 | 49.62743 | 8.50701 | 81° | 35km/h | 17317m | 5.7m/s | -50.8°C | 1.4% | 88.8hPa | 2.7V | 00:00:00 | 00:00:00 | 00:00:00 | |
| DJ2KF-10 | 2026-08-31 17:48:22 | 49.62743 | 8.50701 | 82° | 40km/h | 17317m | 5.7m/s | -50.7°C | 4.0% | 88.8hPa | 2.7V | 00:00:00 | 01:19:12 | 00:00:00 | |
| DJ2DS-15 | 2026-08-31 17:48:20 | 49.62742 | 8.50675 | 90° | 35km/h | 17307m | 4.1m/s | -50.6°C | 4.0% | 88.9hPa | 2.7V | 00:00:00 | 01:19:10 | 00:00:00 | |
| DL1ZP-14 | 2026-08-31 17:48:19 | 49.62742 | 8.50663 | 86° | 29km/h | 17302m | 5.3m/s | -50.7°C | 1.4% | 89.0hPa | 2.7V | 00:00:00 | 00:00:00 | 00:00:00 | |
| DL1XH1-15 | 2026-08-31 17:48:17 | 49.62729 | 8.50572 | 77° | 42km/h | 17267m | 4.5m/s | 0°C | 0% | 0hPa | 2.6V | 03:59:28 | 01:19:02 | 00:00:00 | |
| DO3MHA-11 | 2026-08-31 17:48:17 | 49.62739 | 8.50640 | 77° | 37km/h | 17293m | 3.9m/s | -50.6°C | 4.0% | 89.1hPa | 2.7V | 00:00:00 | 01:19:07 | 00:00:00 | |
| NBG1-10 | 2026-08-31 17:48:16 | 49.62737 | 8.50628 | 77° | 44km/h | 17289m | 5.4m/s | -50.6°C | 3.9% | 89.1hPa | 2.7V | 00:00:00 | 01:19:06 | 00:00:00 | |
| DL8DAS-14 | 2026-08-31 17:48:15 | 49.62734 | 8.50602 | 77° | 37km/h | 17278m | 4.8m/s | -50.5°C | 1.4% | 89.4hPa | 2.7V | 00:00:00 | 00:00:00 | 00:00:00 | |
| DM0DOS-11 | 2026-08-31 17:48:14 | 49.62725 | 8.50527 | 90° | 35km/h | 17252m | 4.5m/s | -50.3°C | 3.9% | 89.7hPa | 2.7V | 03:59:31 | 01:18:59 | 00:00:00 | |
| DL1XH-west | 2026-08-31 17:48:13 | 49.62732 | 8.50587 | 76° | 40km/h | 17272m | 6.1m/s | -50.4°C | 0.8% | 89.4hPa | 2.6V | 03:59:27 | 01:19:03 | 00:00:00 | |
| DL8DAS-15 | 2026-08-31 17:48:11 | 49.62729 | 8.50572 | 78° | 42km/h | 17267m | 4.5m/s | -50.4°C | 1.4% | 89.5hPa | 2.6V | 00:00:00 | 00:00:00 | 00:00:00 | |
| DM3KS-11 | 2026-08-31 17:48:09 | 49.62725 | 8.50527 | 90° | 33km/h | 17252m | 4.5m/s | -50.3°C | 1.3% | 89.7hPa | 2.6V | 00:00:00 | 00:00:00 | 00:00:00 | |
| DJTTGO | 2026-08-31 17:48:08 | 49.62725 | 8.50527 | 91° | 35km/h | 17253m | 4.5m/s | -50.3°C | 1.3% | 89.7hPa | 2.6V | 00:00:00 | 00:00:00 | 00:00:00 | |
| DL1XH1-15 | 2026-08-31 17:48:07 | 49.62729 | 8.50436 | 97° | 38km/h | 17219m | 3.5m/s | 0°C | 0% | 0hPa | 2.6V | 03:59:38 | 01:18:52 | 00:00:00 | |
| DO3MHA-11 | 2026-08-31 17:48:07 | 49.62726 | 8.50502 | 91° | 35km/h | 17243m | 5.2m/s | -50.2°C | 3.8% | 89.8hPa | 2.6V | 00:00:00 | 01:18:57 | 00:00:00 | |
| DF3TZ-5 | 2026-08-31 17:48:05 | 49.62727 | 8.50464 | 95° | 35km/h | 17229m | 5.3m/s | -50.5°C | 1.4% | 90.0hPa | 2.7V | 00:00:00 | 00:00:00 | 00:00:00 | |
| DM0DOS-11 | 2026-08-31 17:48:04 | 49.62730 | 8.50395 | 82° | 33km/h | 17204m | 5m/s | -50.5°C | 3.9% | 90.3hPa | 2.7V | 03:59:41 | 01:18:49 | 00:00:00 | |
| BIOWL1-15 | 2026-08-31 17:48:03 | 49.62728 | 8.50450 | 98° | 37km/h | 17224m | 4.7m/s | -50.4°C | 0.8% | 90.1hPa | 2.7V | 04:00:18 | 01:18:53 | 00:00:00 | |
| BIOWL1-15 | 2026-08-31 17:47:58 | 49.62718 | 8.50287 | 82° | 47km/h | 17166m | 6m/s | -50.3°C | 0.8% | 90.9hPa | 2.7V | 04:00:18 | 01:18:42 | 00:00:00 | |
| DO3MHA-11 | 2026-08-31 17:47:57 | 49.62726 | 8.50370 | 75° | 46km/h | 17195m | 4.1m/s | -50.4°C | 3.9% | 90.4hPa | 2.7V | 00:00:00 | 01:18:47 | 00:00:00 | |
| DM0DOS-11 | 2026-08-31 17:47:54 | 49.62711 | 8.50231 | 79° | 51km/h | 17152m | 4.9m/s | -50.3°C | 3.9% | 91.1hPa | 2.7V | 03:59:51 | 01:18:39 | 00:00:00 | |
| DL1XH-west | 2026-08-31 17:47:53 | 49.62719 | 8.50305 | 84° | 47km/h | 17171m | 5.1m/s | -50.3°C | 0.9% | 0hPa | 2.7V | 04:00:18 | 01:18:43 | 00:00:00 | |
| BIOWL9-15 | 2026-08-31 17:47:52 | 49.62715 | 8.50268 | 78° | 47km/h | 17161m | 4.4m/s | -50.3°C | 1.3% | 91.0hPa | 2.7V | 00:00:00 | 00:00:00 | 00:00:00 | |
| DF7PN | 2026-08-31 17:47:51 | 49.62715 | 8.50268 | 78° | 47km/h | 17161m | 4.4m/s | -50.3°C | 1.3% | 91.0hPa | 2.7V | 00:00:00 | 00:00:00 | 00:00:00 | |
| DJ2DS-15 | 2026-08-31 17:47:48 | 49.62702 | 8.50172 | 75° | 51km/h | 17138m | 4.7m/s | -50.3°C | 1.3% | 91.3hPa | 2.7V | 00:00:00 | 00:00:00 | 00:00:00 | |
| DL1XH1-15 | 2026-08-31 17:47:47 | 49.62691 | 8.50092 | 79° | 51km/h | 17120m | 5.1m/s | 0°C | 0% | 0hPa | 2.7V | 03:59:58 | 01:18:32 | 00:00:00 | |
| DL1XH-west | 2026-08-31 17:47:43 | 49.62694 | 8.50112 | 80° | 53km/h | 17125m | 3.5m/s | -50.3°C | 0.7% | 0hPa | 2.7V | 04:00:18 | 01:18:33 | 00:00:00 | |
| DM0DOS-11 | 2026-08-31 17:47:42 | 49.62681 | 8.49990 | 80° | 55km/h | 17097m | 5.4m/s | -50.4°C | 3.7% | 91.9hPa | 2.7V | 04:00:03 | 01:18:27 | 00:00:00 | |
| BIOWL1-15 | 2026-08-31 17:47:42 | 49.62691 | 8.50092 | 80° | 53km/h | 17121m | 5.1m/s | -50.3°C | 0.7% | 91.5hPa | 2.7V | 04:00:18 | 01:18:32 | 00:00:00 | |
| DJ2DS-15 | 2026-08-31 17:47:40 | 49.62686 | 8.50052 | 82° | 62km/h | 17111m | 4.9m/s | -50.3°C | 3.8% | 91.6hPa | 2.7V | 00:00:00 | 01:18:30 | 00:00:00 | |
| DL9PN | 2026-08-31 17:47:39 | 49.62683 | 8.50011 | 83° | 53km/h | 17102m | 4.3m/s | -50.3°C | 1.3% | 91.8hPa | 2.7V | 00:00:00 | 00:00:00 | 00:00:00 | |
| NBG1-10 | 2026-08-31 17:47:38 | 49.62683 | 8.50011 | 84° | 66km/h | 17102m | 4.3m/s | -50.3°C | 3.7% | 91.7hPa | 2.7V | 00:00:00 | 01:18:28 | 00:00:00 | |
| DL1XH1-15 | 2026-08-31 17:47:37 | 49.62667 | 8.49874 | 78° | 64km/h | 17074m | 4.4m/s | 0°C | 0% | 0hPa | 2.7V | 04:00:08 | 01:18:22 | 00:00:00 | |
| DL1XH-west | 2026-08-31 17:47:32 | 49.62667 | 8.49874 | 78° | 64km/h | 17074m | 4.4m/s | -50.5°C | 0.8% | 0hPa | 2.7V | 04:00:18 | 01:18:22 | 00:00:00 | |
| BIOWL1-15 | 2026-08-31 17:47:31 | 49.62664 | 8.49850 | 78° | 62km/h | 17070m | 4.1m/s | -50.6°C | 0.9% | 92.2hPa | 2.7V | 04:00:18 | 01:18:21 | 00:00:00 | |
| DB0NH | 2026-08-31 17:47:29 | 49.62659 | 8.49804 | 83° | 66km/h | 17061m | 3.6m/s | -50.7°C | 3.8% | 92.3hPa | 2.7V | 00:00:00 | 01:18:19 | 00:00:00 | |
| DB0ND-19 | 2026-08-31 17:47:28 | 49.62657 | 8.49781 | 82° | 57km/h | 17057m | 3.7m/s | -50.9°C | 1.3% | 92.4hPa | 2.7V | 00:00:00 | 00:00:00 | 00:00:00 | |
| DL1XH1-15 | 2026-08-31 17:47:27 | 49.62645 | 8.49643 | 83° | 66km/h | 17034m | 3.9m/s | 0°C | 0% | 0hPa | 2.7V | 04:00:18 | 01:18:12 | 00:00:00 | |
| DL1XH-west | 2026-08-31 17:47:21 | 49.62643 | 8.49618 | 81° | 66km/h | 17030m | 4.4m/s | 0°C | 0% | 0hPa | 2.7V | 18:12:15 | 01:18:11 | 00:00:00 | |
| BIOWL1-15 | 2026-08-31 17:47:20 | 49.62640 | 8.49593 | 79° | 68km/h | 17026m | 3.4m/s | -51.7°C | 0.9% | 92.9hPa | 2.6V | 04:01:09 | 01:18:10 | 00:00:00 | |
| DB0UT-7 | 2026-08-31 17:47:20 | 49.62640 | 8.49593 | 80° | 68km/h | 17026m | 3.3m/s | -51.6°C | 4.0% | 92.8hPa | 2.6V | 00:00:00 | 00:00:00 | 00:00:00 | |
| DM0DOS-11 | 2026-08-31 17:47:19 | 49.62627 | 8.49485 | 77° | 71km/h | 17009m | 4.7m/s | -51.8°C | 4.1% | 93.1hPa | 2.7V | 04:00:24 | 01:18:06 | 00:00:00 | |
| DL1XH-west | 2026-08-31 17:47:11 | 49.62605 | 8.49349 | 73° | 69km/h | 16989m | 3.8m/s | 0°C | 0% | 0hPa | 2.8V | 18:12:15 | 01:18:01 | 00:00:00 | |
| DM0DOS-11 | 2026-08-31 17:47:09 | 49.62583 | 8.49222 | 75° | 64km/h | 16969m | 3.4m/s | -51.9°C | 4.1% | 93.7hPa | 2.6V | 04:00:34 | 01:17:56 | 00:00:00 | |
| BIOWL1-15 | 2026-08-31 17:47:09 | 49.62595 | 8.49297 | 76° | 69km/h | 16981m | 3.9m/s | -51.9°C | 1% | 93.5hPa | 2.7V | 04:01:09 | 01:17:59 | 00:00:00 | |
| DM7RM-13 | 2026-08-31 17:47:08 | 49.62595 | 8.49297 | 77° | 69km/h | 16981m | 3.9m/s | -51.9°C | 1.5% | 93.5hPa | 2.6V | 04:01:00 | 00:00:00 | 00:00:00 | |
| DM3KS-11 | 2026-08-31 17:47:07 | 49.62587 | 8.49247 | 75° | 64km/h | 16973m | 4.7m/s | -51.9°C | 1.4% | 93.7hPa | 2.6V | 00:00:00 | 00:00:00 | 00:00:00 | |
| DO3MHA-11 | 2026-08-31 17:47:06 | 49.62583 | 8.49222 | 76° | 68km/h | 16969m | 3.3m/s | -51.9°C | 4.1% | 93.6hPa | 2.6V | 04:00:00 | 01:17:56 | 00:00:00 | |
| DF2AP-13 | 2026-08-31 17:47:05 | 49.62579 | 8.49198 | 76° | 64km/h | 16965m | 4.5m/s | -51.9°C | 4.1% | 93.7hPa | 2.6V | 04:00:00 | 01:17:55 | 00:00:00 | |
| NBG1-10 | 2026-08-31 17:47:04 | 49.62574 | 8.49173 | 76° | 64km/h | 16961m | 3.7m/s | -51.9°C | 4.1% | 93.8hPa | 2.6V | 00:00:00 | 01:17:54 | 00:00:00 | |
| KANTATE | 2026-08-31 17:47:03 | 49.62574 | 8.49173 | 76° | 68km/h | 16961m | 3.8m/s | -51.9°C | 1.4% | 93.8hPa | 2.6V | 04:01:00 | 00:00:00 | 00:00:00 | |
| DB0UT-9 | 2026-08-31 17:47:02 | 49.62570 | 8.49148 | 75° | 68km/h | 16958m | 3.4m/s | -52.0°C | 1.5% | 93.8hPa | 2.6V | 04:01:00 | 00:00:00 | 00:00:00 | |
| DM0DOS-11 | 2026-08-31 17:47:01 | 49.62533 | 8.48972 | 70° | 66km/h | 16929m | 3.3m/s | -52°C | 4.2% | 94.3hPa | 2.6V | 04:00:44 | 01:17:46 | 00:00:00 | |
| DL8DAS-15 | 2026-08-31 17:47:01 | 49.62565 | 8.49123 | 73° | 68km/h | 16954m | 4.3m/s | -52.0°C | 1.5% | 93.9hPa | 2.7V | 00:00:00 | 00:00:00 | 00:00:00 | |
| BIOWL1-15 | 2026-08-31 17:47:01 | 49.62549 | 8.49047 | 72° | 69km/h | 16941m | 3.6m/s | -52.1°C | 1% | 94.1hPa | 2.7V | 04:01:09 | 01:17:49 | 00:00:00 | |
| SFWM-10 | 2026-08-31 17:47:00 | 49.62560 | 8.49098 | 73° | 68km/h | 16950m | 3.6m/s | -52.0°C | 1.4% | 94.0hPa | 2.7V | 04:01:00 | 00:00:00 | 00:00:00 | |
| DB0NH | 2026-08-31 17:46:59 | 49.62549 | 8.49047 | 73° | 64km/h | 16941m | 3.6m/s | -52.0°C | 4.2% | 94.1hPa | 2.7V | 00:00:00 | 01:17:49 | 00:00:00 | |
| DF1GD-15 | 2026-08-31 17:46:58 | 49.62549 | 8.49047 | 73° | 69km/h | 16941m | 3.6m/s | -52.1°C | 1.5% | 94.1hPa | 2.6V | 04:01:00 | 00:00:00 | 00:00:00 | |
| DJ2DS-15 | 2026-08-31 17:46:57 | 49.62538 | 8.48997 | 71° | 64km/h | 16933m | 3.8m/s | -52.0°C | 4.2% | 94.2hPa | 2.6V | 00:00:00 | 01:17:47 | 00:00:00 | |
| DO3MHA-11 | 2026-08-31 17:46:56 | 49.62533 | 8.48972 | 71° | 64km/h | 16929m | 3.3m/s | -52.0°C | 4.2% | 94.2hPa | 2.8V | 00:00:00 | 01:17:46 | 00:00:00 | |
| DO3DL | 2026-08-31 17:46:53 | 49.62523 | 8.48925 | 72° | 64km/h | 16922m | 2.3m/s | -52.0°C | 1.4% | 94.4hPa | 2.8V | 04:01:00 | 00:00:00 | 00:00:00 | |
| DK5PH-5 | 2026-08-31 17:46:52 | 49.62511 | 8.48879 | 68° | 62km/h | 16915m | 3.3m/s | -51.9°C | 4.2% | 94.4hPa | 2.8V | 04:00:00 | 01:17:42 | 00:00:00 | |
| DM0DOS-11 | 2026-08-31 17:46:51 | 49.62473 | 8.48742 | 67° | 62km/h | 16890m | 5.1m/s | -52°C | 4.2% | 94.8hPa | 2.8V | 04:00:54 | 01:17:36 | 00:00:00 | |
| BIOWL1-15 | 2026-08-31 17:46:48 | 49.62486 | 8.48787 | 65° | 64km/h | 16899m | 4.2m/s | -51.9°C | 1% | 94.7hPa | 2.6V | 04:01:09 | 01:17:38 | 00:00:00 | |
| DJ2KF-10 | 2026-08-31 17:46:47 | 49.62479 | 8.48764 | 66° | 60km/h | 16895m | 4.0m/s | -51.9°C | 4.1% | 94.8hPa | 2.6V | 04:00:00 | 01:17:37 | 00:00:00 | |
| DO3MHA-11 | 2026-08-31 17:46:46 | 49.62473 | 8.48742 | 68° | 62km/h | 16891m | 5.1m/s | -51.9°C | 4.2% | 94.8hPa | 2.6V | 00:00:00 | 01:17:36 | 00:00:00 | |
| DO3DL | 2026-08-31 17:46:45 | 49.62467 | 8.48719 | 70° | 62km/h | 16887m | 3.3m/s | -52.0°C | 1.5% | 94.9hPa | 2.6V | 04:01:00 | 00:00:00 | 00:00:00 | |
| KANTATE | 2026-08-31 17:46:44 | 49.62461 | 8.48697 | 69° | 62km/h | 16883m | 4.5m/s | -52.0°C | 1.5% | 95.0hPa | 2.6V | 04:01:00 | 00:00:00 | 00:00:00 | |
| DD1CC2-15 | 2026-08-31 17:46:43 | 49.62461 | 8.48697 | 69° | 62km/h | 16883m | 4.5m/s | -52.0°C | 0% | 0hPa | 2.6V | 04:01:00 | 00:00:00 | 00:00:00 | |
| DL8DAS-14 | 2026-08-31 17:46:42 | 49.62443 | 8.48630 | 67° | 60km/h | 16870m | 4.4m/s | -52.0°C | 1.5% | 95.1hPa | 2.6V | 00:00:00 | 00:00:00 | 00:00:00 | |
| DM0DOS-11 | 2026-08-31 17:46:41 | 49.62410 | 8.48521 | 65° | 62km/h | 16849m | 3.6m/s | -52°C | 4.1% | 95.5hPa | 2.6V | 04:01:04 | 01:17:26 | 00:00:00 | |
| BIOWL1-15 | 2026-08-31 17:46:37 | 49.62417 | 8.48543 | 65° | 62km/h | 16853m | 4.9m/s | -52°C | 1% | 95.4hPa | 2.6V | 04:01:09 | 01:17:27 | 00:00:00 | |
| DL9PN | 2026-08-31 17:46:37 | 49.62410 | 8.48521 | 65° | 62km/h | 16849m | 3.6m/s | -52.0°C | 1.5% | 95.5hPa | 2.6V | 00:00:00 | 00:00:00 | 00:00:00 | |
| DJ2DS-15 | 2026-08-31 17:46:36 | 49.62404 | 8.48499 | 65° | 62km/h | 16845m | 5.0m/s | -52.0°C | 1.4% | 95.5hPa | 2.6V | 00:00:00 | 00:00:00 | 00:00:00 | |
| DF2AP-13 | 2026-08-31 17:46:35 | 49.62403 | 8.48499 | 66° | 57km/h | 16845m | 4.9m/s | -51.9°C | 4.1% | 95.5hPa | 2.6V | 00:00:00 | 01:17:25 | 00:00:00 | |
| DH7VM-15 | 2026-08-31 17:46:34 | 49.62403 | 8.48499 | 66° | 62km/h | 16845m | 5.0m/s | -52.0°C | 1.4% | 95.5hPa | 2.6V | 00:00:00 | 00:00:00 | 00:00:00 | |
| DO3DL | 2026-08-31 17:46:32 | 49.62385 | 8.48432 | 71° | 62km/h | 16832m | 4.1m/s | -52.0°C | 1.5% | 95.7hPa | 2.6V | 04:01:00 | 00:00:00 | 00:00:00 | |
| DM0DOS-11 | 2026-08-31 17:46:31 | 49.62352 | 8.48301 | 67° | 58km/h | 16808m | 4.1m/s | -52.2°C | 4.1% | 96hPa | 2.6V | 04:01:14 | 01:17:16 | 00:00:00 | |
| BIOWL1-15 | 2026-08-31 17:46:27 | 49.62358 | 8.48323 | 69° | 60km/h | 16812m | 4.4m/s | -52.1°C | 1% | 96hPa | 2.7V | 04:02:00 | 01:17:17 | 00:00:00 | |
| DO3MHA-11 | 2026-08-31 17:46:26 | 49.62352 | 8.48301 | 68° | 55km/h | 16808m | 4.0m/s | -52.1°C | 4.1% | 96.0hPa | 2.6V | 00:00:00 | 01:17:16 | 00:00:00 | |
| DD1CC2-15 | 2026-08-31 17:46:24 | 49.62340 | 8.48260 | 66° | 55km/h | 16800m | 2.9m/s | 0°C | 0% | 0hPa | 2.6V | 04:02:00 | 00:00:00 | 00:00:00 | |
| KANTATE | 2026-08-31 17:46:23 | 49.62340 | 8.48260 | 66° | 55km/h | 16800m | 2.9m/s | -52.2°C | 1.5% | 96.2hPa | 2.6V | 04:02:00 | 00:00:00 | 00:00:00 | |
| DK5PH-5 | 2026-08-31 17:46:22 | 49.62329 | 8.48222 | 69° | 57km/h | 16792m | 4.2m/s | -52.3°C | 4.3% | 96.3hPa | 2.6V | 00:00:00 | 01:17:12 | 00:00:00 | |
| DM0DOS-11 | 2026-08-31 17:46:21 | 49.62300 | 8.48106 | 71° | 53km/h | 16767m | 3.5m/s | -52.6°C | 4.3% | 96.7hPa | 2.6V | 04:01:24 | 01:17:06 | 00:00:00 | |
| BIOWL1-15 | 2026-08-31 17:46:17 | 49.62305 | 8.48126 | 70° | 53km/h | 16772m | 4.9m/s | -52.6°C | 1.1% | 96.6hPa | 2.6V | 04:02:00 | 01:17:07 | 00:00:00 | |
| DJ2KF-10 | 2026-08-31 17:46:17 | 49.62305 | 8.48126 | 70° | 60km/h | 16772m | 4.9m/s | -52.6°C | 4.3% | 96.6hPa | 2.6V | 00:00:00 | 01:17:07 | 00:00:00 | |
| DO3MHA-11 | 2026-08-31 17:46:16 | 49.62300 | 8.48106 | 72° | 51km/h | 16768m | 3.5m/s | -52.5°C | 4.3% | 96.6hPa | 2.8V | 04:01:00 | 01:17:06 | 00:00:00 | |
| DL1ZP-14 | 2026-08-31 17:46:15 | 49.62296 | 8.48087 | 71° | 53km/h | 16764m | 4.2m/s | -52.6°C | 1.5% | 96.7hPa | 2.8V | 00:00:00 | 00:00:00 | 00:00:00 | |
| DL8DAS-15 | 2026-08-31 17:46:14 | 49.62296 | 8.48087 | 72° | 53km/h | 16764m | 4.2m/s | -52.6°C | 1.6% | 96.7hPa | 2.6V | 04:02:00 | 00:00:00 | 00:00:00 | |
| HEMX73-11 | 2026-08-31 17:46:13 | 49.62286 | 8.48049 | 69° | 51km/h | 16755m | 3.7m/s | -52.6°C | 1.5% | 96.8hPa | 2.6V | 04:02:00 | 00:00:00 | 00:00:00 | |
| DM0DOS-11 | 2026-08-31 17:46:11 | 49.62264 | 8.47912 | 79° | 58km/h | 16724m | 3.6m/s | -52.6°C | 4.3% | 97.3hPa | 2.6V | 04:01:34 | 01:16:56 | 00:00:00 | |
| BIOWL1-15 | 2026-08-31 17:46:07 | 49.62267 | 8.47934 | 79° | 57km/h | 16728m | 4.9m/s | -52.6°C | 1.1% | 97.2hPa | 2.7V | 04:02:00 | 01:16:57 | 00:00:00 | |
| DO3MHA-11 | 2026-08-31 17:46:06 | 49.62264 | 8.47912 | 80° | 57km/h | 16724m | 3.6m/s | -52.5°C | 4.3% | 97.3hPa | 2.6V | 00:00:00 | 01:16:56 | 00:00:00 | |
| DL4BBY-15 | 2026-08-31 17:46:05 | 49.62262 | 8.47889 | 83° | 62km/h | 16720m | 4.8m/s | -51.2°C | 0% | 0hPa | 2.8V | 00:00:00 | 00:00:00 | 00:00:00 | |
| DD1CC2-15 | 2026-08-31 17:46:04 | 49.62260 | 8.47866 | 86° | 60km/h | 16715m | 5.0m/s | 0°C | 0% | 0hPa | 2.8V | 04:02:00 | 00:00:00 | 00:00:00 | |
| KANTATE | 2026-08-31 17:46:03 | 49.62260 | 8.47866 | 86° | 60km/h | 16715m | 5.0m/s | -52.6°C | 1.6% | 97.5hPa | 2.8V | 04:02:00 | 00:00:00 | 00:00:00 | |
| DM0DOS-11 | 2026-08-31 17:46:01 | 49.62255 | 8.47691 | 89° | 58km/h | 16679m | 5.3m/s | -52.6°C | 4.2% | 98hPa | 2.8V | 04:01:44 | 01:16:46 | 00:00:00 | |
| BIOWL1-15 | 2026-08-31 17:45:56 | 49.62255 | 8.47691 | 90° | 58km/h | 16680m | 5.3m/s | -52.6°C | 1.1% | 98hPa | 2.8V | 04:02:00 | 01:16:46 | 00:00:00 | |
| DB0ND-19 | 2026-08-31 17:45:55 | 49.62255 | 8.47668 | 89° | 58km/h | 16675m | 4.6m/s | -52.6°C | 1.5% | 98.1hPa | 2.7V | 00:00:00 | 00:00:00 | 00:00:00 | |
| DM0DOS-11 | 2026-08-31 17:45:51 | 49.62257 | 8.47465 | 92° | 58km/h | 16634m | 4.5m/s | -52.7°C | 4.4% | 98.7hPa | 2.7V | 04:01:54 | 01:16:36 | 00:00:00 | |
| BIOWL1-15 | 2026-08-31 17:45:45 | 49.62257 | 8.47442 | 91° | 58km/h | 16630m | 4.4m/s | -52.6°C | 1.1% | 98.7hPa | 2.6V | 04:02:00 | 01:16:35 | 00:00:00 | |
| DL1ZP-14 | 2026-08-31 17:45:44 | 49.62257 | 8.47419 | 91° | 58km/h | 16626m | 3.9m/s | -52.7°C | 1.6% | 98.8hPa | 2.6V | 00:00:00 | 00:00:00 | 00:00:00 | |
| DM0DOS-11 | 2026-08-31 17:45:41 | 49.62263 | 8.47226 | 95° | 64km/h | 16588m | 4.7m/s | -52.7°C | 4.2% | 99.4hPa | 2.7V | 04:02:04 | 01:16:26 | 00:00:00 | |
| BIOWL1-15 | 2026-08-31 17:45:34 | 49.62266 | 8.47175 | 92° | 66km/h | 16578m | 5m/s | -52.7°C | 1.1% | 99.5hPa | 2.6V | 04:02:51 | 01:16:24 | 00:00:00 | |
| DO3DL | 2026-08-31 17:45:33 | 49.62266 | 8.47150 | 92° | 66km/h | 16574m | 4.8m/s | -52.7°C | 1.5% | 99.6hPa | 2.8V | 00:00:00 | 00:00:00 | 00:00:00 | |
| DL4BBY-15 | 2026-08-31 17:45:32 | 49.62267 | 8.47124 | 91° | 57km/h | 16569m | 4.6m/s | -51.4°C | 0% | 0hPa | 2.8V | 00:00:00 | 00:00:00 | 00:00:00 | |
| DM0DOS-11 | 2026-08-31 17:45:31 | 49.62261 | 8.46977 | 83° | 57km/h | 16539m | 4.7m/s | -52.8°C | 4.3% | 100.2hPa | 2.8V | 04:02:14 | 01:16:16 | 00:00:00 | |
| BIOWL1-15 | 2026-08-31 17:45:25 | 49.62256 | 8.46912 | 82° | 57km/h | 16526m | 4.3m/s | -53°C | 1.2% | 100.4hPa | 2.6V | 04:02:51 | 01:16:13 | 00:00:00 | |
| BIOWL1-15 | 2026-08-31 17:45:12 | 49.62233 | 8.46639 | 73° | 66km/h | 16472m | 4.2m/s | -53.4°C | 1.2% | 101.2hPa | 2.6V | 04:02:51 | 01:16:02 | 00:00:00 | |
| BIOWL1-15 | 2026-08-31 17:45:07 | 49.62197 | 8.46394 | 81° | 60km/h | 16418m | 4.5m/s | -52.9°C | 1.2% | 102.1hPa | 2.7V | 04:02:51 | 01:15:51 | 00:00:00 | |
| DO3MHA-11 | 2026-08-31 17:45:06 | 49.62208 | 8.46504 | 80° | 58km/h | 16442m | 6.1m/s | -53.1°C | 4.5% | 101.6hPa | 2.7V | 00:00:00 | 01:15:56 | 00:00:00 | |
| DF2AP-13 | 2026-08-31 17:45:05 | 49.62205 | 8.46483 | 83° | 53km/h | 16437m | 4.9m/s | -53.0°C | 4.5% | 101.7hPa | 2.8V | 00:00:00 | 01:15:55 | 00:00:00 | |
| DM7RM-13 | 2026-08-31 17:45:03 | 49.62203 | 8.46461 | 84° | 57km/h | 16432m | 4.3m/s | -53.0°C | 1.6% | 101.8hPa | 2.8V | 04:02:00 | 00:00:00 | 00:00:00 | |
| DO1YAY-16 | 2026-08-31 17:45:02 | 49.62170 | 8.46125 | 85° | 51km/h | 16348m | 6.1m/s | -52.4°C | 1.6% | 103.2hPa | 2.8V | 00:00:00 | 00:00:00 | 00:00:00 | |
| DM0DOS-11 | 2026-08-31 17:45:01 | 49.62185 | 8.46280 | 77° | 57km/h | 16390m | 5m/s | -52.7°C | 4.4% | 102.5hPa | 2.8V | 04:02:44 | 01:15:46 | 00:00:00 | |
| BIOWL1-15 | 2026-08-31 17:44:53 | 49.62173 | 8.46183 | 83° | 49km/h | 16363m | 5.8m/s | -52.5°C | 1.2% | 102.9hPa | 2.8V | 04:02:51 | 01:15:41 | 00:00:00 | |
| NBG1-10 | 2026-08-31 17:44:52 | 49.62175 | 8.46202 | 81° | 51km/h | 16369m | 5.3m/s | -52.5°C | 4.4% | 102.8hPa | 2.6V | 00:00:00 | 01:15:42 | 00:00:00 | |
| DM0DOS-11 | 2026-08-31 17:44:51 | 49.62169 | 8.46083 | 88° | 55km/h | 16337m | 6.2m/s | -52.3°C | 4.3% | 103.3hPa | 2.6V | 04:02:54 | 01:15:36 | 00:00:00 | |
| DJ2DS-15 | 2026-08-31 17:44:47 | 49.62169 | 8.46104 | 86° | 53km/h | 16342m | 4.5m/s | -52.4°C | 1.6% | 103.3hPa | 2.6V | 00:00:00 | 00:00:00 | 00:00:00 | |
| DO3MHA-11 | 2026-08-31 17:44:46 | 49.62168 | 8.46083 | 89° | 51km/h | 16338m | 6.2m/s | -52.3°C | 4.3% | 103.3hPa | 2.6V | 00:00:00 | 01:15:36 | 00:00:00 | |
| DF7PN | 2026-08-31 17:44:45 | 49.62168 | 8.46041 | 86° | 53km/h | 16328m | 5.1m/s | -52.3°C | 1.5% | 103.5hPa | 2.6V | 00:00:00 | 00:00:00 | 00:00:00 | |
| DM7RM-13 | 2026-08-31 17:44:43 | 49.62167 | 8.46020 | 86° | 53km/h | 16322m | 5.0m/s | -52.3°C | 1.6% | 103.6hPa | 2.6V | 04:03:00 | 00:00:00 | 00:00:00 | |
| DL1ZP-14 | 2026-08-31 17:44:42 | 49.62165 | 8.45999 | 84° | 51km/h | 16317m | 5.3m/s | -52.3°C | 1.5% | 103.7hPa | 2.6V | 00:00:00 | 00:00:00 | 00:00:00 | |
| DM0DOS-11 | 2026-08-31 17:44:41 | 49.62156 | 8.45885 | 82° | 47km/h | 16288m | 4.4m/s | -52.4°C | 4.3% | 104.2hPa | 2.6V | 04:03:04 | 01:15:26 | 00:00:00 | |
| BIOWL1-15 | 2026-08-31 17:44:40 | 49.62163 | 8.45960 | 84° | 49km/h | 16308m | 4m/s | -52.3°C | 1.1% | 103.8hPa | 2.7V | 04:03:42 | 01:15:30 | 00:00:00 | |
| BIOWL1-15 | 2026-08-31 17:44:34 | 49.62152 | 8.45741 | 88° | 55km/h | 16252m | 4.2m/s | -52.2°C | 1.1% | 104.7hPa | 2.6V | 04:03:42 | 01:15:19 | 00:00:00 | |
| DN1GJH-1 | 2026-08-31 17:44:33 | 49.62152 | 8.45846 | 86° | 53km/h | 16278m | 4.2m/s | -52.3°C | 1.5% | 104.3hPa | 2.8V | 04:03:00 | 00:00:00 | 00:00:00 | |
| DM3KS-11 | 2026-08-31 17:44:32 | 49.62152 | 8.45805 | 91° | 53km/h | 16267m | 5.1m/s | -52.3°C | 1.5% | 104.5hPa | 2.8V | 00:00:00 | 00:00:00 | 00:00:00 | |
| DM0DOS-11 | 2026-08-31 17:44:31 | 49.62151 | 8.45681 | 86° | 49km/h | 16238m | 4.2m/s | -52.3°C | 4.3% | 104.9hPa | 2.8V | 04:03:14 | 01:15:16 | 00:00:00 | |
| BIOWL1-15 | 2026-08-31 17:44:26 | 49.62144 | 8.45520 | 87° | 55km/h | 16198m | 5.4m/s | -52.7°C | 1.2% | 105.6hPa | 2.7V | 04:03:42 | 01:15:08 | 00:00:00 | |
| DO3MHA-11 | 2026-08-31 17:44:26 | 49.62150 | 8.45681 | 87° | 53km/h | 16238m | 4.1m/s | -52.3°C | 4.3% | 104.9hPa | 2.7V | 00:00:00 | 01:15:16 | 00:00:00 | |
| DB0ND-19 | 2026-08-31 17:44:22 | 49.62147 | 8.45604 | 87° | 49km/h | 16218m | 4.3m/s | -52.6°C | 1.6% | 105.3hPa | 2.7V | 00:00:00 | 00:00:00 | 00:00:00 | |
| DM0DOS-11 | 2026-08-31 17:44:21 | 49.62143 | 8.45477 | 85° | 57km/h | 16189m | 5.1m/s | -52.6°C | 4.4% | 105.8hPa | 2.7V | 04:03:24 | 01:15:06 | 00:00:00 | |
| DK5PH-5 | 2026-08-31 17:44:20 | 49.62146 | 8.45563 | 86° | 51km/h | 16208m | 4.7m/s | -52.6°C | 4.4% | 105.4hPa | 2.7V | 04:03:00 | 01:15:10 | 00:00:00 | |
| NBG1-10 | 2026-08-31 17:44:19 | 49.62145 | 8.45542 | 87° | 51km/h | 16203m | 4.8m/s | -52.6°C | 4.5% | 105.5hPa | 2.6V | 00:00:00 | 01:15:09 | 00:00:00 | |
| DB0UT-7 | 2026-08-31 17:44:18 | 49.62144 | 8.45520 | 88° | 51km/h | 16198m | 5.4m/s | -52.6°C | 4.5% | 105.5hPa | 2.7V | 00:00:00 | 00:00:00 | 00:00:00 | |
| DJ2DS-15 | 2026-08-31 17:44:17 | 49.62143 | 8.45499 | 87° | 51km/h | 16193m | 3.5m/s | -52.6°C | 4.4% | 105.7hPa | 2.7V | 00:00:00 | 01:15:07 | 00:00:00 | |
| DO3MHA-11 | 2026-08-31 17:44:16 | 49.62142 | 8.45477 | 86° | 53km/h | 16189m | 5.1m/s | -52.5°C | 4.4% | 105.7hPa | 2.7V | 00:00:00 | 01:15:06 | 00:00:00 | |
| DL8DAS-15 | 2026-08-31 17:44:15 | 49.62141 | 8.45455 | 86° | 55km/h | 16185m | 3.9m/s | -52.5°C | 1.6% | 105.8hPa | 2.7V | 00:00:00 | 00:00:00 | 00:00:00 | |
| BIOWL9-15 | 2026-08-31 17:44:14 | 49.62140 | 8.45434 | 86° | 53km/h | 16180m | 4.9m/s | -52.5°C | 1.6% | 105.9hPa | 2.7V | 00:00:00 | 00:00:00 | 00:00:00 | |
| DN1GJH-1 | 2026-08-31 17:44:13 | 49.62140 | 8.45434 | 87° | 53km/h | 16180m | 4.9m/s | -52.5°C | 1.6% | 105.9hPa | 2.7V | 04:03:00 | 00:00:00 | 00:00:00 | |
| DL0LBS | 2026-08-31 17:44:12 | 49.62140 | 8.45414 | 89° | 51km/h | 16175m | 4.8m/s | -52.5°C | 1.6% | 106.0hPa | 2.7V | 04:03:00 | 00:00:00 | 00:00:00 | |
| DM0DOS-11 | 2026-08-31 17:44:11 | 49.62130 | 8.45277 | 78° | 49km/h | 16143m | 3.3m/s | -52.2°C | 4.2% | 106.5hPa | 2.7V | 04:03:34 | 01:14:56 | 00:00:00 | |
| BIOWL1-15 | 2026-08-31 17:44:07 | 49.62132 | 8.45295 | 81° | 49km/h | 16147m | 4.9m/s | -52.2°C | 1.1% | 106.4hPa | 2.6V | 04:03:42 | 01:14:57 | 00:00:00 | |
| DL8DAS-14 | 2026-08-31 17:44:07 | 49.62130 | 8.45277 | 78° | 49km/h | 16143m | 3.3m/s | -52.2°C | 1.6% | 106.5hPa | 2.7V | 00:00:00 | 00:00:00 | 00:00:00 | |
| DO3MHA-11 | 2026-08-31 17:44:06 | 49.62130 | 8.45277 | 79° | 51km/h | 16143m | 3.3m/s | -52.2°C | 4.2% | 106.5hPa | 2.7V | 00:00:00 | 01:14:56 | 00:00:00 | |
| DF2AP-13 | 2026-08-31 17:44:05 | 49.62127 | 8.45257 | 77° | 53km/h | 16138m | 5.7m/s | -52.2°C | 4.2% | 106.5hPa | 2.6V | 00:00:00 | 01:14:55 | 00:00:00 | |
| DL8DAS-15 | 2026-08-31 17:44:03 | 49.62124 | 8.45238 | 77° | 53km/h | 16133m | 4.1m/s | -52.2°C | 1.6% | 106.7hPa | 2.6V | 00:00:00 | 00:00:00 | 00:00:00 | |
| DM0DOS-11 | 2026-08-31 17:44:01 | 49.62109 | 8.45079 | 86° | 51km/h | 16094m | 5.1m/s | -52.6°C | 4.4% | 107.3hPa | 2.6V | 04:03:44 | 01:14:46 | 00:00:00 | |
| BIOWL1-15 | 2026-08-31 17:43:59 | 49.62110 | 8.45099 | 87° | 51km/h | 16099m | 4.3m/s | -52.4°C | 1.2% | 107.2hPa | 2.6V | 04:04:33 | 01:14:47 | 00:00:00 | |
| DJ2DS-15 | 2026-08-31 17:43:57 | 49.62110 | 8.45099 | 88° | 51km/h | 16099m | 4.3m/s | -52.4°C | 4.4% | 107.2hPa | 2.6V | 04:03:00 | 01:14:47 | 00:00:00 | |
| DO3MHA-11 | 2026-08-31 17:43:56 | 49.62109 | 8.45079 | 87° | 49km/h | 16095m | 5.0m/s | -52.5°C | 4.4% | 107.3hPa | 2.7V | 00:00:00 | 01:14:46 | 00:00:00 | |
| KANTATE | 2026-08-31 17:43:55 | 49.62109 | 8.45079 | 88° | 51km/h | 16095m | 5.1m/s | -52.6°C | 1.6% | 107.3hPa | 2.7V | 04:04:00 | 00:00:00 | 00:00:00 | |
| DN1GJH-1 | 2026-08-31 17:43:53 | 49.62107 | 8.45040 | 87° | 49km/h | 16086m | 3.9m/s | -52.6°C | 1.6% | 107.4hPa | 2.7V | 04:04:00 | 00:00:00 | 00:00:00 | |
| DM0DOS-11 | 2026-08-31 17:43:51 | 49.62089 | 8.44892 | 81° | 55km/h | 16050m | 4.6m/s | -52.6°C | 4.4% | 108.1hPa | 2.7V | 04:03:54 | 01:14:36 | 00:00:00 | |
| BIOWL1-15 | 2026-08-31 17:43:47 | 49.62091 | 8.44913 | 79° | 55km/h | 16054m | 4.9m/s | -52.6°C | 1.2% | 108hPa | 2.8V | 04:04:33 | 01:14:37 | 00:00:00 | |
| DO3MHA-11 | 2026-08-31 17:43:46 | 49.62089 | 8.44892 | 82° | 55km/h | 16050m | 4.6m/s | -52.6°C | 4.4% | 108.0hPa | 2.8V | 04:03:00 | 01:14:36 | 00:00:00 | |
| DL8DAS-15 | 2026-08-31 17:43:44 | 49.62087 | 8.44871 | 85° | 55km/h | 16045m | 4.5m/s | -52.6°C | 1.6% | 108.1hPa | 2.8V | 04:04:00 | 00:00:00 | 00:00:00 | |
| DF7PN | 2026-08-31 17:43:43 | 49.62082 | 8.44807 | 81° | 57km/h | 16031m | 3.7m/s | -52.5°C | 1.6% | 108.4hPa | 2.8V | 00:00:00 | 00:00:00 | 00:00:00 | |
| DM0DOS-11 | 2026-08-31 17:43:41 | 49.62074 | 8.44676 | 87° | 57km/h | 16004m | 5m/s | -52.3°C | 4.4% | 108.8hPa | 2.8V | 04:04:04 | 01:14:26 | 00:00:00 | |
| BIOWL1-15 | 2026-08-31 17:43:38 | 49.62074 | 8.44676 | 88° | 57km/h | 16004m | 5.1m/s | -52.3°C | 1.2% | 108.8hPa | 2.8V | 04:04:33 | 01:14:26 | 00:00:00 | |
| DJ2KF-10 | 2026-08-31 17:43:38 | 49.62075 | 8.44721 | 86° | 55km/h | 16013m | 5.3m/s | -52.3°C | 4.3% | 108.6hPa | 2.6V | 04:04:00 | 01:14:28 | 00:00:00 | |
| DJ2DS-15 | 2026-08-31 17:43:37 | 49.62074 | 8.44699 | 87° | 55km/h | 16008m | 3.8m/s | -52.2°C | 4.4% | 108.7hPa | 2.6V | 00:00:00 | 01:14:27 | 00:00:00 | |
| DL8DAS-14 | 2026-08-31 17:43:36 | 49.62073 | 8.44654 | 89° | 55km/h | 15999m | 4.5m/s | -52.3°C | 1.6% | 108.9hPa | 2.6V | 00:00:00 | 00:00:00 | 00:00:00 | |
| DF2AP-13 | 2026-08-31 17:43:35 | 49.62073 | 8.44654 | 90° | 55km/h | 15999m | 4.5m/s | -52.2°C | 4.3% | 108.8hPa | 2.6V | 00:00:00 | 01:14:25 | 00:00:00 | |
| DB0UT-9 | 2026-08-31 17:43:34 | 49.62073 | 8.44654 | 90° | 55km/h | 15999m | 4.5m/s | -52.3°C | 1.6% | 108.9hPa | 2.6V | 04:04:00 | 00:00:00 | 00:00:00 | |
| DL8DAS-15 | 2026-08-31 17:43:33 | 49.62073 | 8.44633 | 91° | 55km/h | 15995m | 4.1m/s | -52.3°C | 1.6% | 109.0hPa | 2.6V | 04:04:00 | 00:00:00 | 00:00:00 | |
| DN1GJH-1 | 2026-08-31 17:43:32 | 49.62073 | 8.44611 | 90° | 57km/h | 15990m | 5.1m/s | -52.3°C | 1.6% | 109.0hPa | 2.6V | 04:04:00 | 00:00:00 | 00:00:00 | |
| DL0LBS | 2026-08-31 17:43:31 | 49.62072 | 8.44590 | 89° | 55km/h | 15985m | 4.4m/s | -52.3°C | 1.6% | 109.1hPa | 2.6V | 04:04:00 | 00:00:00 | 00:00:00 | |
| DM0DOS-11 | 2026-08-31 17:43:30 | 49.62068 | 8.44466 | 89° | 53km/h | 15957m | 5.1m/s | -52.4°C | 4.3% | 109.6hPa | 2.6V | 04:04:14 | 01:14:16 | 00:00:00 | |
| BIOWL1-15 | 2026-08-31 17:43:30 | 49.62068 | 8.44466 | 89° | 53km/h | 15957m | 5.1m/s | -52.4°C | 1.2% | 109.6hPa | 2.6V | 04:04:33 | 01:14:16 | 00:00:00 | |
| DM3KS-11 | 2026-08-31 17:43:30 | 49.62071 | 8.44529 | 85° | 51km/h | 15971m | 5.1m/s | -52.4°C | 1.6% | 109.4hPa | 2.8V | 00:00:00 | 00:00:00 | 00:00:00 | |
| DO1YAY-16 | 2026-08-31 17:43:29 | 49.62071 | 8.44529 | 85° | 51km/h | 15971m | 5.1m/s | -52.4°C | 1.6% | 109.4hPa | 2.8V | 00:00:00 | 00:00:00 | 00:00:00 | |
| HEMX73-11 | 2026-08-31 17:43:28 | 49.62070 | 8.44529 | 87° | 53km/h | 15971m | 5.1m/s | -52.4°C | 1.6% | 109.4hPa | 2.8V | 04:04:00 | 00:00:00 | 00:00:00 | |
| DO3MHA-11 | 2026-08-31 17:43:26 | 49.62068 | 8.44466 | 90° | 55km/h | 15957m | 5.0m/s | -52.3°C | 4.3% | 109.6hPa | 2.8V | 00:00:00 | 01:14:16 | 00:00:00 | |
| DF3TZ-5 | 2026-08-31 17:43:25 | 49.62068 | 8.44445 | 90° | 53km/h | 15953m | 4.9m/s | -52.3°C | 1.6% | 109.7hPa | 2.8V | 00:00:00 | 00:00:00 | 00:00:00 | |
| BIOWL7-15 | 2026-08-31 17:43:21 | 49.62069 | 8.44379 | 93° | 57km/h | 15938m | 5.5m/s | -52.4°C | 1.6% | 110.0hPa | 2.8V | 00:00:00 | 00:00:00 | 00:00:00 | |
| DM0DOS-11 | 2026-08-31 17:43:20 | 49.62069 | 8.44251 | 89° | 55km/h | 15910m | 3.7m/s | -52.2°C | 4.4% | 110.4hPa | 2.8V | 04:04:24 | 01:14:06 | 00:00:00 | |
| BIOWL1-15 | 2026-08-31 17:43:15 | 49.62069 | 8.44229 | 88° | 57km/h | 15906m | 5.2m/s | -52.2°C | 1.3% | 110.5hPa | 2.6V | 04:04:33 | 01:14:05 | 00:00:00 | |
| DB0UT-9 | 2026-08-31 17:43:14 | 49.62069 | 8.44229 | 89° | 57km/h | 15906m | 5.2m/s | -52.2°C | 1.7% | 110.5hPa | 2.8V | 04:04:00 | 00:00:00 | 00:00:00 | |
| NBG1-10 | 2026-08-31 17:43:13 | 49.62067 | 8.44184 | 88° | 60km/h | 15897m | 5.3m/s | -52.2°C | 4.5% | 110.6hPa | 2.8V | 00:00:00 | 01:14:03 | 00:00:00 | |
| DF1GD-15 | 2026-08-31 17:43:12 | 49.62067 | 8.44162 | 90° | 55km/h | 15892m | 4.4m/s | -52.2°C | 1.7% | 110.7hPa | 2.8V | 04:04:00 | 00:00:00 | 00:00:00 | |
| DL0LBS | 2026-08-31 17:43:11 | 49.62067 | 8.44162 | 90° | 55km/h | 15892m | 4.4m/s | -52.2°C | 1.7% | 110.7hPa | 2.8V | 04:04:00 | 00:00:00 | 00:00:00 | |
| DM0DOS-11 | 2026-08-31 17:43:10 | 49.62064 | 8.44030 | 87° | 58km/h | 15865m | 5.4m/s | -52°C | 4.2% | 111.2hPa | 2.8V | 04:04:34 | 01:13:56 | 00:00:00 | |
| BIOWL1-15 | 2026-08-31 17:43:05 | 49.62063 | 8.44007 | 86° | 58km/h | 15861m | 4.1m/s | -52°C | 1.1% | 111.3hPa | 2.8V | 04:05:24 | 01:13:55 | 00:00:00 | |
| DF2AP-13 | 2026-08-31 17:43:05 | 49.62063 | 8.44007 | 86° | 62km/h | 15861m | 4.0m/s | -51.9°C | 4.2% | 111.2hPa | 2.7V | 00:00:00 | 01:13:55 | 00:00:00 | |
| DL8DAS-15 | 2026-08-31 17:43:04 | 49.62063 | 8.44007 | 87° | 58km/h | 15861m | 4.1m/s | -52.0°C | 1.6% | 111.3hPa | 2.7V | 04:05:00 | 00:00:00 | 00:00:00 | |
| DM0DOS-11 | 2026-08-31 17:43:02 | 49.62051 | 8.43804 | 82° | 58km/h | 15820m | 4m/s | -52°C | 4.4% | 111.9hPa | 2.7V | 04:04:44 | 01:13:46 | 00:00:00 | |
| BIOWL1-15 | 2026-08-31 17:43:00 | 49.62048 | 8.43757 | 86° | 62km/h | 15811m | 4.4m/s | -51.9°C | 1.2% | 112.1hPa | 2.8V | 04:05:24 | 01:13:44 | 00:00:00 | |
| DM3KS-11 | 2026-08-31 17:42:59 | 49.62055 | 8.43848 | 84° | 57km/h | 15829m | 4.0m/s | -51.9°C | 1.6% | 111.8hPa | 2.6V | 00:00:00 | 00:00:00 | 00:00:00 | |
| DO1YAY-16 | 2026-08-31 17:42:58 | 49.62055 | 8.43848 | 84° | 57km/h | 15829m | 4.0m/s | -51.9°C | 1.6% | 111.8hPa | 2.6V | 00:00:00 | 00:00:00 | 00:00:00 | |
| DJ2DS-15 | 2026-08-31 17:42:57 | 49.62053 | 8.43826 | 83° | 62km/h | 15825m | 5.1m/s | -51.9°C | 4.3% | 111.8hPa | 2.6V | 00:00:00 | 01:13:47 | 00:00:00 | |
| DO3MHA-11 | 2026-08-31 17:42:56 | 49.62051 | 8.43804 | 83° | 62km/h | 15820m | 4.0m/s | -51.9°C | 4.4% | 111.9hPa | 2.8V | 04:04:00 | 01:13:46 | 00:00:00 | |
| DB0UT-9 | 2026-08-31 17:42:54 | 49.62049 | 8.43781 | 85° | 60km/h | 15816m | 5.1m/s | -51.9°C | 1.7% | 112.0hPa | 2.8V | 00:00:00 | 00:00:00 | 00:00:00 | |
| DB0NH | 2026-08-31 17:42:53 | 49.62047 | 8.43733 | 87° | 66km/h | 15807m | 3.5m/s | -51.8°C | 4.3% | 112.1hPa | 2.8V | 04:04:00 | 01:13:43 | 00:00:00 | |
| SFWM-10 | 2026-08-31 17:42:52 | 49.62047 | 8.43733 | 88° | 64km/h | 15807m | 3.5m/s | -51.9°C | 1.6% | 112.2hPa | 2.8V | 04:05:00 | 00:00:00 | 00:00:00 | |
| DF1GD-15 | 2026-08-31 17:42:51 | 49.62046 | 8.43708 | 87° | 66km/h | 15803m | 4.8m/s | -51.9°C | 1.6% | 112.2hPa | 2.8V | 04:05:00 | 00:00:00 | 00:00:00 | |
| DM0DOS-11 | 2026-08-31 17:42:50 | 49.62038 | 8.43561 | 84° | 60km/h | 15777m | 4m/s | -51.9°C | 4.1% | 112.7hPa | 2.8V | 04:04:54 | 01:13:36 | 00:00:00 | |
| DB0ND-19 | 2026-08-31 17:42:49 | 49.62042 | 8.43633 | 85° | 62km/h | 15791m | 4.5m/s | -51.9°C | 1.6% | 112.4hPa | 2.6V | 00:00:00 | 00:00:00 | 00:00:00 | |
| BIOWL1-15 | 2026-08-31 17:42:44 | 49.62036 | 8.43516 | 86° | 57km/h | 15769m | 5.4m/s | -51.9°C | 1% | 112.8hPa | 2.6V | 04:05:24 | 01:13:34 | 00:00:00 | |
| DF7PN | 2026-08-31 17:42:41 | 49.62029 | 8.43421 | 80° | 66km/h | 15750m | 4.7m/s | -52.0°C | 1.5% | 113.2hPa | 2.8V | 00:00:00 | 00:00:00 | 00:00:00 | |
| DM0DOS-11 | 2026-08-31 17:42:40 | 49.62018 | 8.43310 | 78° | 75km/h | 15728m | 5.1m/s | -52.2°C | 4.2% | 113.5hPa | 2.8V | 04:05:04 | 01:13:26 | 00:00:00 | |
| BIOWL1-15 | 2026-08-31 17:42:36 | 49.62010 | 8.43255 | 78° | 71km/h | 15719m | 5.3m/s | -52.4°C | 1.2% | 113.7hPa | 2.8V | 04:05:24 | 01:13:24 | 00:00:00 | |
| DO3MHA-11 | 2026-08-31 17:42:36 | 49.62018 | 8.43310 | 79° | 68km/h | 15729m | 5.1m/s | -52.1°C | 4.2% | 113.5hPa | 2.7V | 00:00:00 | 01:13:26 | 00:00:00 | |
| DL8DAS-15 | 2026-08-31 17:42:35 | 49.62018 | 8.43310 | 79° | 75km/h | 15729m | 5.1m/s | -52.2°C | 1.6% | 113.5hPa | 2.7V | 04:05:00 | 00:00:00 | 00:00:00 | |
| DB0UT-9 | 2026-08-31 17:42:33 | 49.62009 | 8.43255 | 79° | 71km/h | 15719m | 5.3m/s | -52.4°C | 1.6% | 113.7hPa | 2.7V | 00:00:00 | 00:00:00 | 00:00:00 | |
| SFWM-10 | 2026-08-31 17:42:32 | 49.62006 | 8.43229 | 79° | 68km/h | 15715m | 3.8m/s | -52.4°C | 1.7% | 113.8hPa | 2.7V | 04:05:00 | 00:00:00 | 00:00:00 | |
| DM0DOS-11 | 2026-08-31 17:42:31 | 49.61981 | 8.43050 | 77° | 73km/h | 15685m | 4.3m/s | -52.5°C | 4.4% | 114.3hPa | 2.7V | 04:05:14 | 01:13:16 | 00:00:00 | |
| BIOWL1-15 | 2026-08-31 17:42:25 | 49.61968 | 8.42967 | 76° | 73km/h | 15673m | 4.7m/s | -52.4°C | 1.2% | 114.5hPa | 2.8V | 04:05:24 | 01:13:13 | 00:00:00 | |
| BIOWL1-15 | 2026-08-31 17:42:12 | 49.61913 | 8.42675 | 76° | 66km/h | 15625m | 5.2m/s | -52.3°C | 1.2% | 115.4hPa | 2.8V | 04:06:15 | 01:13:02 | 00:00:00 | |
| DM0DOS-11 | 2026-08-31 17:42:11 | 49.61886 | 8.42531 | 72° | 64km/h | 15599m | 3.8m/s | -52.3°C | 4.4% | 115.9hPa | 2.8V | 04:05:34 | 01:12:56 | 00:00:00 | |
| BIOWL9-15 | 2026-08-31 17:42:10 | 49.61905 | 8.42626 | 74° | 64km/h | 15616m | 4.9m/s | -52.2°C | 1.6% | 115.5hPa | 2.8V | 00:00:00 | 00:00:00 | 00:00:00 | |
| DL0LBS | 2026-08-31 17:42:09 | 49.61905 | 8.42626 | 76° | 64km/h | 15616m | 4.9m/s | -52.2°C | 1.7% | 115.5hPa | 2.8V | 04:06:00 | 00:00:00 | 00:00:00 | |
| DJTTGO | 2026-08-31 17:42:08 | 49.61900 | 8.42602 | 74° | 64km/h | 15612m | 3.6m/s | -52.2°C | 1.7% | 115.6hPa | 2.8V | 04:06:00 | 00:00:00 | 00:00:00 | |
| DL1ZP-14 | 2026-08-31 17:42:07 | 49.61886 | 8.42531 | 72° | 64km/h | 15599m | 3.8m/s | -52.3°C | 1.7% | 115.9hPa | 2.8V | 00:00:00 | 00:00:00 | 00:00:00 | |
| DO3MHA-11 | 2026-08-31 17:42:06 | 49.61886 | 8.42531 | 73° | 62km/h | 15599m | 3.8m/s | -52.2°C | 4.4% | 115.8hPa | 2.7V | 04:05:00 | 01:12:56 | 00:00:00 | |
| KANTATE | 2026-08-31 17:42:05 | 49.61886 | 8.42531 | 73° | 64km/h | 15599m | 3.8m/s | -52.3°C | 1.7% | 115.9hPa | 2.7V | 04:06:00 | 00:00:00 | 00:00:00 | |
| DM0DOS-11 | 2026-08-31 17:42:01 | 49.61834 | 8.42308 | 72° | 58km/h | 15552m | 4.4m/s | -52.2°C | 4.2% | 116.7hPa | 2.7V | 04:05:44 | 01:12:46 | 00:00:00 | |
| BIOWL1-15 | 2026-08-31 17:42:01 | 49.61859 | 8.42414 | 69° | 62km/h | 15575m | 5.5m/s | -52.3°C | 1.2% | 116.3hPa | 2.7V | 04:06:15 | 01:12:51 | 00:00:00 | |
| BIOWL1-15 | 2026-08-31 17:41:52 | 49.61807 | 8.42175 | 72° | 62km/h | 15526m | 4.9m/s | -52.3°C | 1.2% | 117.2hPa | 2.6V | 04:06:15 | 01:12:40 | 00:00:00 | |
| DB0NH | 2026-08-31 17:41:52 | 49.61816 | 8.42221 | 74° | 58km/h | 15535m | 5.2m/s | -52.3°C | 4.4% | 117.0hPa | 2.7V | 00:00:00 | 01:12:42 | 00:00:00 | |
| DM0DOS-11 | 2026-08-31 17:41:51 | 49.61784 | 8.42084 | 67° | 64km/h | 15509m | 4.2m/s | -52.3°C | 4.4% | 117.5hPa | 2.8V | 04:05:54 | 01:12:36 | 00:00:00 | |
| DB0ND-19 | 2026-08-31 17:41:47 | 49.61790 | 8.42107 | 67° | 62km/h | 15513m | 4.7m/s | -52.3°C | 1.7% | 117.4hPa | 2.8V | 00:00:00 | 00:00:00 | 00:00:00 | |
| BIOWL1-15 | 2026-08-31 17:41:42 | 49.61749 | 8.41950 | 69° | 60km/h | 15483m | 4.1m/s | -52.4°C | 1.2% | 118hPa | 2.8V | 04:06:15 | 01:12:30 | 00:00:00 | |
| DM0DOS-11 | 2026-08-31 17:41:41 | 49.61729 | 8.41874 | 67° | 49km/h | 15464m | 5.7m/s | -52.3°C | 4.4% | 118.3hPa | 2.8V | 04:06:04 | 01:12:26 | 00:00:00 | |
| BIOWL1-15 | 2026-08-31 17:41:32 | 49.61691 | 8.41761 | 61° | 60km/h | 15436m | 5.3m/s | -52.1°C | 1.2% | 118.8hPa | 2.8V | 04:06:15 | 01:12:20 | 00:00:00 | |
| DM0DOS-11 | 2026-08-31 17:41:31 | 49.61663 | 8.41679 | 64° | 58km/h | 15417m | 5.3m/s | -51.9°C | 4.3% | 119.2hPa | 2.7V | 04:06:14 | 01:12:16 | 00:00:00 | |
| DL4BBY-15 | 2026-08-31 17:41:31 | 49.61698 | 8.41781 | 61° | 58km/h | 15440m | 4.4m/s | -50.7°C | 0% | 0hPa | 2.8V | 00:00:00 | 00:00:00 | 00:00:00 | |
| DN1GJH-1 | 2026-08-31 17:41:30 | 49.61698 | 8.41781 | 61° | 58km/h | 15441m | 4.4m/s | -52.1°C | 1.7% | 118.7hPa | 2.8V | 04:06:00 | 00:00:00 | 00:00:00 | |
| DO3DL | 2026-08-31 17:41:28 | 49.61684 | 8.41741 | 63° | 60km/h | 15431m | 4.0m/s | -52.0°C | 1.7% | 118.9hPa | 2.8V | 04:06:00 | 00:00:00 | 00:00:00 | |
| DJTTGO | 2026-08-31 17:41:27 | 49.61677 | 8.41720 | 63° | 60km/h | 15427m | 5.4m/s | -52.0°C | 1.7% | 119.0hPa | 2.8V | 04:06:00 | 00:00:00 | 00:00:00 | |
| DM3KS-11 | 2026-08-31 17:41:26 | 49.61657 | 8.41659 | 65° | 58km/h | 15412m | 4.5m/s | -51.9°C | 1.7% | 119.3hPa | 2.8V | 00:00:00 | 00:00:00 | 00:00:00 | |
| DO1YAY-16 | 2026-08-31 17:41:25 | 49.61657 | 8.41659 | 65° | 58km/h | 15412m | 4.5m/s | -51.9°C | 1.7% | 119.3hPa | 2.8V | 00:00:00 | 00:00:00 | 00:00:00 | |
| KANTATE | 2026-08-31 17:41:24 | 49.61657 | 8.41659 | 67° | 58km/h | 15413m | 4.5m/s | -51.9°C | 1.7% | 119.3hPa | 2.8V | 04:06:00 | 00:00:00 | 00:00:00 | |
| DB0NH | 2026-08-31 17:41:22 | 49.61638 | 8.41599 | 63° | 64km/h | 15399m | 3.7m/s | -51.8°C | 4.3% | 119.4hPa | 2.8V | 00:00:00 | 01:12:12 | 00:00:00 | |
| DM0DOS-11 | 2026-08-31 17:41:21 | 49.61601 | 8.41479 | 67° | 60km/h | 15370m | 4.8m/s | -51.7°C | 4.3% | 120hPa | 2.8V | 04:06:24 | 01:12:06 | 00:00:00 | |
| BIOWL1-15 | 2026-08-31 17:41:21 | 49.61619 | 8.41540 | 64° | 57km/h | 15384m | 5.3m/s | -51.7°C | 1.1% | 119.7hPa | 2.7V | 04:07:06 | 01:12:09 | 00:00:00 | |
| BIOWL1-15 | 2026-08-31 17:41:14 | 49.61552 | 8.41301 | 63° | 64km/h | 15332m | 3.9m/s | -51.5°C | 1.1% | 120.8hPa | 2.7V | 04:07:06 | 01:11:58 | 00:00:00 | |
| DM0DOS-11 | 2026-08-31 17:41:11 | 49.61537 | 8.41255 | 62° | 66km/h | 15321m | 4.3m/s | -51.5°C | 4.2% | 120.9hPa | 2.8V | 04:06:34 | 01:11:56 | 00:00:00 | |
| DB0UT-9 | 2026-08-31 17:41:10 | 49.61572 | 8.41369 | 69° | 64km/h | 15346m | 4.9m/s | -51.5°C | 1.6% | 120.5hPa | 2.7V | 04:07:00 | 00:00:00 | 00:00:00 | |
| DN1GJH-1 | 2026-08-31 17:41:09 | 49.61566 | 8.41346 | 68° | 64km/h | 15341m | 4.6m/s | -51.5°C | 1.6% | 120.5hPa | 2.7V | 04:07:00 | 00:00:00 | 00:00:00 | |
| BIOWL9-15 | 2026-08-31 17:41:08 | 49.61552 | 8.41301 | 63° | 64km/h | 15332m | 3.9m/s | -51.5°C | 1.6% | 120.8hPa | 2.7V | 00:00:00 | 00:00:00 | 00:00:00 | |
| DF7PN | 2026-08-31 17:41:07 | 49.61545 | 8.41278 | 62° | 66km/h | 15327m | 6.1m/s | -51.5°C | 1.6% | 120.8hPa | 2.7V | 00:00:00 | 00:00:00 | 00:00:00 | |
| DO3MHA-11 | 2026-08-31 17:41:06 | 49.61537 | 8.41255 | 63° | 66km/h | 15322m | 4.2m/s | -51.4°C | 4.2% | 120.9hPa | 2.7V | 00:00:00 | 01:11:56 | 00:00:00 | |
| DL1ZP-14 | 2026-08-31 17:41:05 | 49.61522 | 8.41211 | 62° | 64km/h | 15312m | 4.1m/s | -51.4°C | 1.6% | 121.1hPa | 2.8V | 00:00:00 | 00:00:00 | 00:00:00 | |
| DF2AP-13 | 2026-08-31 17:41:03 | 49.61514 | 8.41188 | 65° | 66km/h | 15307m | 5.6m/s | -51.3°C | 4.2% | 121.1hPa | 2.7V | 00:00:00 | 01:11:53 | 00:00:00 | |
| DO3DL | 2026-08-31 17:41:02 | 49.61514 | 8.41188 | 65° | 66km/h | 15307m | 5.6m/s | -51.4°C | 1.6% | 121.2hPa | 2.7V | 04:07:00 | 00:00:00 | 00:00:00 | |
| DM0DOS-11 | 2026-08-31 17:41:01 | 49.61470 | 8.41024 | 67° | 66km/h | 15274m | 4.8m/s | -51.4°C | 4.2% | 121.8hPa | 2.7V | 04:06:44 | 01:11:46 | 00:00:00 | |
| BIOWL1-15 | 2026-08-31 17:40:57 | 49.61477 | 8.41047 | 68° | 66km/h | 15278m | 4.7m/s | -51.4°C | 1.1% | 121.7hPa | 2.7V | 04:07:06 | 01:11:47 | 00:00:00 | |
| DL9PN | 2026-08-31 17:40:55 | 49.61457 | 8.40977 | 64° | 64km/h | 15265m | 4.1m/s | -51.3°C | 1.6% | 122.0hPa | 2.8V | 00:00:00 | 00:00:00 | 00:00:00 | |
| DO1YAY-16 | 2026-08-31 17:40:54 | 49.61443 | 8.40931 | 64° | 66km/h | 15255m | 4.1m/s | -51.3°C | 1.6% | 122.2hPa | 2.8V | 00:00:00 | 00:00:00 | 00:00:00 | |
| DB0NH | 2026-08-31 17:40:52 | 49.61442 | 8.40931 | 65° | 68km/h | 15256m | 4.1m/s | -51.2°C | 4.1% | 122.1hPa | 2.8V | 00:00:00 | 01:11:42 | 00:00:00 | |
| DM0DOS-11 | 2026-08-31 17:40:51 | 49.61399 | 8.40794 | 65° | 64km/h | 15226m | 4.6m/s | -51.3°C | 4.1% | 122.7hPa | 2.8V | 04:06:54 | 01:11:36 | 00:00:00 | |
| BIOWL1-15 | 2026-08-31 17:40:47 | 49.61406 | 8.40816 | 65° | 64km/h | 15231m | 5.5m/s | -51.3°C | 1% | 122.6hPa | 2.8V | 04:07:06 | 01:11:37 | 00:00:00 | |
| DB0ND-19 | 2026-08-31 17:40:45 | 49.61393 | 8.40771 | 67° | 62km/h | 15221m | 5.2m/s | -51.4°C | 1.6% | 122.8hPa | 2.8V | 00:00:00 | 00:00:00 | 00:00:00 | |
| HEMX73-11 | 2026-08-31 17:40:43 | 49.61381 | 8.40724 | 71° | 66km/h | 15213m | 3.3m/s | -51.4°C | 1.6% | 122.9hPa | 2.8V | 04:07:00 | 00:00:00 | 00:00:00 | |
| DO3DL | 2026-08-31 17:40:42 | 49.61381 | 8.40724 | 71° | 66km/h | 15213m | 3.3m/s | -51.4°C | 1.6% | 122.9hPa | 2.8V | 04:07:00 | 00:00:00 | 00:00:00 | |
| DM0DOS-11 | 2026-08-31 17:40:41 | 49.61339 | 8.40553 | 68° | 69km/h | 15181m | 4.8m/s | -51.4°C | 4.2% | 123.5hPa | 2.8V | 04:07:04 | 01:11:26 | 00:00:00 | |
| BIOWL1-15 | 2026-08-31 17:40:39 | 49.61345 | 8.40578 | 69° | 69km/h | 15186m | 4.7m/s | -51.5°C | 1.1% | 123.4hPa | 2.7V | 04:07:06 | 01:11:27 | 00:00:00 | |
| BIOWL9-15 | 2026-08-31 17:40:37 | 49.61345 | 8.40578 | 69° | 69km/h | 15186m | 4.7m/s | -51.5°C | 1.6% | 123.4hPa | 2.7V | 00:00:00 | 00:00:00 | 00:00:00 | |
| DO3MHA-11 | 2026-08-31 17:40:36 | 49.61339 | 8.40553 | 69° | 69km/h | 15181m | 4.8m/s | -51.4°C | 4.2% | 123.5hPa | 2.7V | 00:00:00 | 01:11:26 | 00:00:00 | |
| DJ2DS-15 | 2026-08-31 17:40:35 | 49.61333 | 8.40528 | 69° | 69km/h | 15177m | 4.6m/s | -51.4°C | 4.2% | 123.6hPa | 2.7V | 04:07:00 | 01:11:25 | 00:00:00 | |
| DL1ZP-14 | 2026-08-31 17:40:34 | 49.61320 | 8.40477 | 67° | 69km/h | 15168m | 4.2m/s | -51.4°C | 1.6% | 123.8hPa | 2.7V | 00:00:00 | 00:00:00 | 00:00:00 | |
| DF2AP-13 | 2026-08-31 17:40:32 | 49.61313 | 8.40452 | 67° | 69km/h | 15163m | 5.1m/s | -51.3°C | 4.3% | 123.9hPa | 2.7V | 00:00:00 | 01:11:22 | 00:00:00 | |
| DM0DOS-11 | 2026-08-31 17:40:31 | 49.61272 | 8.40304 | 68° | 66km/h | 15135m | 4.2m/s | -51.2°C | 4.2% | 124.4hPa | 2.7V | 04:07:14 | 01:11:16 | 00:00:00 | |
| BIOWL1-15 | 2026-08-31 17:40:27 | 49.61278 | 8.40328 | 68° | 68km/h | 15140m | 5.5m/s | -51.3°C | 1.1% | 124.3hPa | 2.7V | 04:07:57 | 01:11:17 | 00:00:00 | |
| DO3MHA-11 | 2026-08-31 17:40:26 | 49.61272 | 8.40304 | 69° | 68km/h | 15136m | 4.1m/s | -51.2°C | 4.2% | 124.4hPa | 2.8V | 04:07:00 | 01:11:16 | 00:00:00 | |
| DL0LBS | 2026-08-31 17:40:25 | 49.61272 | 8.40304 | 70° | 66km/h | 15136m | 4.2m/s | -51.2°C | 1.6% | 124.4hPa | 2.8V | 04:07:00 | 00:00:00 | 00:00:00 | |
| DJTTGO | 2026-08-31 17:40:23 | 49.61254 | 8.40231 | 69° | 69km/h | 15122m | 3.9m/s | -51.2°C | 1.6% | 124.7hPa | 2.8V | 04:07:00 | 00:00:00 | 00:00:00 | |
| DM0DOS-11 | 2026-08-31 17:40:21 | 49.61204 | 8.40061 | 62° | 71km/h | 15089m | 4.6m/s | -51.1°C | 4.2% | 125.3hPa | 2.8V | 04:07:24 | 01:11:06 | 00:00:00 | |
| BIOWL1-15 | 2026-08-31 17:40:18 | 49.61204 | 8.40061 | 63° | 71km/h | 15089m | 4.6m/s | -51.1°C | 1.1% | 125.3hPa | 2.8V | 04:07:57 | 01:11:06 | 00:00:00 | |
| DB0UT-7 | 2026-08-31 17:40:18 | 49.61220 | 8.40110 | 65° | 71km/h | 15099m | 4.0m/s | -51.1°C | 4.2% | 125.1hPa | 2.8V | 00:00:00 | 00:00:00 | 00:00:00 | |
| DO3MHA-11 | 2026-08-31 17:40:16 | 49.61204 | 8.40061 | 63° | 73km/h | 15089m | 4.6m/s | -51.0°C | 4.2% | 125.3hPa | 2.8V | 00:00:00 | 01:11:06 | 00:00:00 | |
| DM7RM-13 | 2026-08-31 17:40:15 | 49.61204 | 8.40061 | 64° | 71km/h | 15089m | 4.6m/s | -51.1°C | 1.7% | 125.3hPa | 2.8V | 04:07:00 | 00:00:00 | 00:00:00 | |
| DJ2DS-15 | 2026-08-31 17:40:14 | 49.61187 | 8.40011 | 62° | 71km/h | 15080m | 3.8m/s | -50.9°C | 4.2% | 125.5hPa | 2.8V | 00:00:00 | 01:11:04 | 00:00:00 | |
| DM0DOS-11 | 2026-08-31 17:40:10 | 49.61115 | 8.39780 | 65° | 69km/h | 15041m | 3.8m/s | -50.9°C | 4.1% | 126.2hPa | 2.8V | 04:07:35 | 01:10:55 | 00:00:00 | |
| BIOWL1-15 | 2026-08-31 17:40:05 | 49.61115 | 8.39780 | 65° | 69km/h | 15041m | 3.8m/s | -50.9°C | 1% | 126.2hPa | 2.8V | 04:07:57 | 01:10:55 | 00:00:00 | |
| DL0LBS | 2026-08-31 17:40:04 | 49.61115 | 8.39780 | 66° | 69km/h | 15041m | 3.8m/s | -50.9°C | 1.6% | 126.2hPa | 2.8V | 04:07:00 | 00:00:00 | 00:00:00 | |
| DO3DL | 2026-08-31 17:40:02 | 49.61100 | 8.39730 | 66° | 71km/h | 15032m | 4.0m/s | -50.8°C | 1.6% | 126.4hPa | 2.8V | 00:00:00 | 00:00:00 | 00:00:00 | |
| DJ2DS-15 | 2026-08-31 17:39:59 | 49.61072 | 8.39633 | 67° | 68km/h | 15014m | 4.6m/s | -50.8°C | 1.6% | 126.8hPa | 2.8V | 00:00:00 | 00:00:00 | 00:00:00 | |
| DL8DAS-14 | 2026-08-31 17:39:58 | 49.61066 | 8.39608 | 67° | 69km/h | 15009m | 4.6m/s | -50.7°C | 1.6% | 126.9hPa | 2.8V | 00:00:00 | 00:00:00 | 00:00:00 | |
| DM0DOS-11 | 2026-08-31 17:39:56 | 49.61038 | 8.39507 | 67° | 73km/h | 14991m | 5m/s | -50.6°C | 4.1% | 127.2hPa | 2.8V | 04:07:46 | 01:10:44 | 00:00:00 | |
| BIOWL1-15 | 2026-08-31 17:39:54 | 49.61038 | 8.39507 | 68° | 73km/h | 14991m | 5m/s | -50.6°C | 1.1% | 127.2hPa | 2.8V | 04:07:57 | 01:10:44 | 00:00:00 | |
| DM3KS-11 | 2026-08-31 17:39:52 | 49.61024 | 8.39453 | 68° | 73km/h | 14982m | 5.2m/s | -50.6°C | 1.6% | 127.4hPa | 2.7V | 00:00:00 | 00:00:00 | 00:00:00 | |
| DB0NH | 2026-08-31 17:39:51 | 49.61018 | 8.39427 | 70° | 75km/h | 14977m | 3.8m/s | -50.5°C | 4.1% | 127.4hPa | 2.7V | 00:00:00 | 01:10:41 | 00:00:00 | |
| DK5PH-5 | 2026-08-31 17:39:50 | 49.61011 | 8.39401 | 70° | 75km/h | 14973m | 3.7m/s | -50.5°C | 4.0% | 127.5hPa | 2.7V | 00:00:00 | 01:10:40 | 00:00:00 | |
| DM0DOS-11 | 2026-08-31 17:39:49 | 49.60975 | 8.39244 | 68° | 73km/h | 14946m | 3.2m/s | -50.9°C | 4% | 128.1hPa | 2.7V | 04:07:56 | 01:10:34 | 00:00:00 | |
| DF3TZ-5 | 2026-08-31 17:39:48 | 49.60998 | 8.39348 | 70° | 71km/h | 14965m | 3.8m/s | -50.7°C | 1.6% | 127.7hPa | 2.7V | 00:00:00 | 00:00:00 | 00:00:00 | |
| BIOWL1-15 | 2026-08-31 17:39:45 | 49.60968 | 8.39218 | 68° | 71km/h | 14942m | 4.9m/s | -51°C | 1.1% | 128.2hPa | 2.7V | 04:07:57 | 01:10:33 | 00:00:00 | |
| DL0LBS | 2026-08-31 17:39:44 | 49.60981 | 8.39270 | 72° | 71km/h | 14951m | 5.2m/s | -50.9°C | 1.6% | 128.0hPa | 2.7V | 04:07:00 | 00:00:00 | 00:00:00 | |
| DB0ND-19 | 2026-08-31 17:39:43 | 49.60968 | 8.39218 | 67° | 71km/h | 14943m | 4.9m/s | -51.0°C | 1.6% | 128.2hPa | 2.7V | 00:00:00 | 00:00:00 | 00:00:00 | |
| HEMX73-11 | 2026-08-31 17:39:41 | 49.60961 | 8.39192 | 67° | 73km/h | 14938m | 4.2m/s | -51.1°C | 1.6% | 128.3hPa | 2.7V | 04:08:00 | 00:00:00 | 00:00:00 | |
| DM0DOS-11 | 2026-08-31 17:39:39 | 49.60895 | 8.38981 | 66° | 75km/h | 14904m | 3.8m/s | -50.8°C | 4.2% | 128.9hPa | 2.7V | 04:08:06 | 01:10:24 | 00:00:00 | |
| BIOWL1-15 | 2026-08-31 17:39:36 | 49.60880 | 8.38929 | 66° | 73km/h | 14896m | 4.1m/s | -50.7°C | 1.1% | 129.1hPa | 2.8V | 04:08:48 | 01:10:22 | 00:00:00 | |
| DO3MHA-11 | 2026-08-31 17:39:36 | 49.60910 | 8.39033 | 65° | 75km/h | 14913m | 4.0m/s | -50.8°C | 4.2% | 128.7hPa | 2.7V | 04:08:00 | 01:10:26 | 00:00:00 | |
| NBG1-10 | 2026-08-31 17:39:35 | 49.60902 | 8.39007 | 66° | 78km/h | 14908m | 4.7m/s | -50.7°C | 4.1% | 128.8hPa | 2.7V | 00:00:00 | 01:10:25 | 00:00:00 | |
| DJ2DS-15 | 2026-08-31 17:39:34 | 49.60895 | 8.38981 | 67° | 77km/h | 14904m | 3.8m/s | -50.7°C | 4.2% | 128.9hPa | 2.7V | 00:00:00 | 01:10:24 | 00:00:00 | |
| DM7RM-13 | 2026-08-31 17:39:33 | 49.60895 | 8.38981 | 68° | 75km/h | 14904m | 3.8m/s | -50.8°C | 1.7% | 128.9hPa | 2.7V | 04:08:00 | 00:00:00 | 00:00:00 | |
| DL1ZP-14 | 2026-08-31 17:39:31 | 49.60872 | 8.38903 | 65° | 71km/h | 14893m | 3.5m/s | -50.7°C | 1.6% | 129.2hPa | 2.7V | 00:00:00 | 00:00:00 | 00:00:00 | |
| DO3DL | 2026-08-31 17:39:30 | 49.60873 | 8.38903 | 66° | 73km/h | 14893m | 3.5m/s | -50.7°C | 1.6% | 129.2hPa | 2.8V | 04:08:00 | 00:00:00 | 00:00:00 | |
| DM0DOS-11 | 2026-08-31 17:39:29 | 49.60806 | 8.38719 | 59° | 78km/h | 14861m | 4.3m/s | -50.9°C | 4.1% | 129.7hPa | 2.8V | 04:08:16 | 01:10:14 | 00:00:00 | |
| BIOWL1-15 | 2026-08-31 17:39:21 | 49.60778 | 8.38641 | 64° | 75km/h | 14847m | 3.9m/s | -51°C | 1.1% | 130hPa | 2.8V | 04:08:48 | 01:10:11 | 00:00:00 | |
| DO1YAY-16 | 2026-08-31 17:39:21 | 49.60770 | 8.38614 | 66° | 75km/h | 14843m | 4.4m/s | -51.0°C | 1.6% | 130.1hPa | 2.7V | 00:00:00 | 00:00:00 | 00:00:00 | |
| DK5PH-5 | 2026-08-31 17:39:20 | 49.60770 | 8.38614 | 67° | 80km/h | 14843m | 4.3m/s | -50.9°C | 4.1% | 130.1hPa | 2.7V | 04:08:00 | 01:10:10 | 00:00:00 | |
| DB0UT-7 | 2026-08-31 17:39:18 | 49.60756 | 8.38556 | 70° | 80km/h | 14835m | 3.4m/s | -50.9°C | 4.1% | 130.2hPa | 2.7V | 00:00:00 | 00:00:00 | 00:00:00 | |
| DF3TZ-5 | 2026-08-31 17:39:17 | 49.60748 | 8.38527 | 69° | 80km/h | 14831m | 4.6m/s | -50.9°C | 1.6% | 130.3hPa | 2.7V | 00:00:00 | 00:00:00 | 00:00:00 | |
| DM0DOS-11 | 2026-08-31 17:39:16 | 49.60699 | 8.38352 | 64° | 80km/h | 14806m | 3.4m/s | -50.8°C | 4.1% | 130.9hPa | 2.7V | 04:08:29 | 01:10:01 | 00:00:00 | |
| BIOWL1-15 | 2026-08-31 17:39:12 | 49.60690 | 8.38324 | 64° | 82km/h | 14801m | 5m/s | -50.8°C | 1.1% | 130.9hPa | 2.7V | 04:08:48 | 01:10:00 | 00:00:00 | |
| DO3DL | 2026-08-31 17:39:11 | 49.60708 | 8.38380 | 66° | 82km/h | 14810m | 5.1m/s | -50.8°C | 1.6% | 130.8hPa | 2.8V | 04:08:00 | 00:00:00 | 00:00:00 | |
| SFWM-10 | 2026-08-31 17:39:09 | 49.60690 | 8.38323 | 65° | 82km/h | 14802m | 5.0m/s | -50.8°C | 1.6% | 131.0hPa | 2.8V | 04:08:00 | 00:00:00 | 00:00:00 | |
| DL8DAS-15 | 2026-08-31 17:39:07 | 49.60672 | 8.38267 | 65° | 80km/h | 14793m | 4.4m/s | -50.8°C | 1.6% | 131.1hPa | 2.8V | 00:00:00 | 00:00:00 | 00:00:00 | |
| DM0DOS-11 | 2026-08-31 17:39:06 | 49.60615 | 8.38074 | 67° | 77km/h | 14766m | 3.8m/s | -50.9°C | 4.1% | 131.7hPa | 2.8V | 04:08:39 | 01:09:51 | 00:00:00 | |
| BIOWL1-15 | 2026-08-31 17:38:59 | 49.60600 | 8.38017 | 68° | 80km/h | 14758m | 2.7m/s | -50.9°C | 1.1% | 131.9hPa | 2.7V | 04:08:48 | 01:09:49 | 00:00:00 | |
| BIOWL1-15 | 2026-08-31 17:38:48 | 49.60500 | 8.37705 | 63° | 78km/h | 14714m | 4.3m/s | -51.1°C | 1.2% | 132.7hPa | 2.7V | 04:09:39 | 01:09:38 | 00:00:00 | |
| DJ2DS-15 | 2026-08-31 17:38:47 | 49.60492 | 8.37677 | 64° | 77km/h | 14711m | 3.6m/s | -51.1°C | 1.7% | 132.9hPa | 2.7V | 00:00:00 | 00:00:00 | 00:00:00 | |
| DO3MHA-11 | 2026-08-31 17:38:46 | 49.60483 | 8.37650 | 66° | 80km/h | 14707m | 4.4m/s | -51.0°C | 4.2% | 132.8hPa | 2.7V | 04:08:00 | 01:09:36 | 00:00:00 | |
| DO3DL | 2026-08-31 17:38:45 | 49.60483 | 8.37650 | 66° | 78km/h | 14707m | 4.5m/s | -51.1°C | 1.7% | 132.9hPa | 2.7V | 04:09:00 | 00:00:00 | 00:00:00 | |
| DF1GD-15 | 2026-08-31 17:38:42 | 49.60457 | 8.37568 | 63° | 78km/h | 14694m | 3.4m/s | -51.0°C | 1.7% | 133.2hPa | 2.7V | 04:09:00 | 00:00:00 | 00:00:00 | |
| DM0DOS-11 | 2026-08-31 17:38:41 | 49.60388 | 8.37376 | 60° | 80km/h | 14666m | 3.9m/s | -50.8°C | 4.2% | 133.7hPa | 2.7V | 04:09:04 | 01:09:26 | 00:00:00 | |
| BIOWL1-15 | 2026-08-31 17:38:37 | 49.60398 | 8.37403 | 60° | 80km/h | 14671m | 4.6m/s | -50.9°C | 1.2% | 133.6hPa | 2.8V | 04:09:39 | 01:09:27 | 00:00:00 | |
| DO3MHA-11 | 2026-08-31 17:38:36 | 49.60388 | 8.37376 | 61° | 77km/h | 14666m | 3.9m/s | -50.8°C | 4.2% | 133.7hPa | 2.7V | 00:00:00 | 01:09:26 | 00:00:00 | |
| DJ2DS-15 | 2026-08-31 17:38:34 | 49.60369 | 8.37323 | 60° | 75km/h | 14658m | 4.0m/s | -50.7°C | 4.2% | 133.9hPa | 2.7V | 00:00:00 | 01:09:24 | 00:00:00 | |
| KANTATE | 2026-08-31 17:38:33 | 49.60359 | 8.37298 | 62° | 75km/h | 14654m | 3.5m/s | -50.8°C | 1.7% | 134.0hPa | 2.7V | 04:09:00 | 00:00:00 | 00:00:00 | |
| DF7PN | 2026-08-31 17:38:32 | 49.60350 | 8.37273 | 61° | 73km/h | 14650m | 4.8m/s | -50.7°C | 1.6% | 134.1hPa | 2.7V | 00:00:00 | 00:00:00 | 00:00:00 | |
| DM0DOS-11 | 2026-08-31 17:38:31 | 49.60293 | 8.37118 | 58° | 78km/h | 14625m | 4.4m/s | -50.6°C | 4.2% | 134.5hPa | 2.7V | 04:09:14 | 01:09:16 | 00:00:00 | |
| BIOWL1-15 | 2026-08-31 17:38:30 | 49.60293 | 8.37118 | 59° | 78km/h | 14625m | 4.4m/s | -50.6°C | 1.2% | 134.5hPa | 2.7V | 04:09:39 | 01:09:16 | 00:00:00 | |
| NBG1-10 | 2026-08-31 17:38:29 | 49.60323 | 8.37196 | 60° | 73km/h | 14637m | 3.2m/s | -50.6°C | 4.2% | 134.3hPa | 2.8V | 00:00:00 | 01:09:19 | 00:00:00 | |
| SFWM-10 | 2026-08-31 17:38:27 | 49.60313 | 8.37171 | 61° | 77km/h | 14633m | 4.6m/s | -50.7°C | 1.6% | 134.4hPa | 2.8V | 04:09:00 | 00:00:00 | 00:00:00 | |
| DO3MHA-11 | 2026-08-31 17:38:26 | 49.60293 | 8.37118 | 59° | 75km/h | 14625m | 4.4m/s | -50.6°C | 4.2% | 134.5hPa | 2.8V | 00:00:00 | 01:09:16 | 00:00:00 | |
| DL8DAS-14 | 2026-08-31 17:38:25 | 49.60282 | 8.37092 | 58° | 75km/h | 14621m | 4.2m/s | -50.6°C | 1.7% | 134.6hPa | 2.8V | 00:00:00 | 00:00:00 | 00:00:00 | |
| DM0DOS-11 | 2026-08-31 17:38:21 | 49.60190 | 8.36872 | 55° | 75km/h | 14584m | 4.2m/s | -50.3°C | 4.1% | 135.4hPa | 2.8V | 04:09:24 | 01:09:06 | 00:00:00 | |
| BIOWL1-15 | 2026-08-31 17:38:15 | 49.60179 | 8.36848 | 57° | 75km/h | 14579m | 4.5m/s | -50.3°C | 1% | 135.5hPa | 2.8V | 04:09:39 | 01:09:05 | 00:00:00 | |
| DJ2DS-15 | 2026-08-31 17:38:14 | 49.60169 | 8.36823 | 59° | 71km/h | 14575m | 4.2m/s | -50.2°C | 4.1% | 135.6hPa | 2.7V | 00:00:00 | 01:09:04 | 00:00:00 | |
| DO3DL | 2026-08-31 17:38:12 | 49.60160 | 8.36799 | 59° | 73km/h | 14571m | 3.7m/s | -50.2°C | 1.6% | 135.7hPa | 2.7V | 04:09:00 | 00:00:00 | 00:00:00 | |
| DM0DOS-11 | 2026-08-31 17:38:11 | 49.60093 | 8.36635 | 57° | 69km/h | 14541m | 5.2m/s | -50°C | 4% | 136.3hPa | 2.7V | 04:09:34 | 01:08:56 | 00:00:00 | |
| BIOWL1-15 | 2026-08-31 17:38:05 | 49.60073 | 8.36589 | 55° | 71km/h | 14532m | 4.1m/s | -50°C | 1% | 136.5hPa | 2.8V | 04:09:39 | 01:08:54 | 00:00:00 | |
| DB0NH | 2026-08-31 17:38:04 | 49.60073 | 8.36589 | 56° | 69km/h | 14532m | 4.0m/s | -50.0°C | 4.0% | 136.4hPa | 2.8V | 00:00:00 | 01:08:54 | 00:00:00 | |
| DM0DOS-11 | 2026-08-31 17:38:01 | 49.59991 | 8.36403 | 58° | 73km/h | 14500m | 4.5m/s | -49.8°C | 3.9% | 137.1hPa | 2.8V | 04:09:44 | 01:08:46 | 00:00:00 | |
| BIOWL1-15 | 2026-08-31 17:37:53 | 49.59962 | 8.36330 | 58° | 71km/h | 14487m | 4.6m/s | -49.7°C | 1% | 137.4hPa | 2.7V | 04:10:30 | 01:08:43 | 00:00:00 | |
| DO3DL | 2026-08-31 17:37:52 | 49.59962 | 8.36330 | 59° | 71km/h | 14487m | 4.6m/s | -49.7°C | 1.6% | 137.4hPa | 2.8V | 00:00:00 | 00:00:00 | 00:00:00 | |
| DM0DOS-11 | 2026-08-31 17:37:51 | 49.59897 | 8.36177 | 57° | 66km/h | 14457m | 3.6m/s | -49.5°C | 3.9% | 138hPa | 2.8V | 04:09:54 | 01:08:36 | 00:00:00 | |
| DL9PN | 2026-08-31 17:37:48 | 49.59915 | 8.36219 | 54° | 64km/h | 14466m | 3.2m/s | -49.5°C | 1.5% | 137.9hPa | 2.7V | 00:00:00 | 00:00:00 | 00:00:00 | |
| BIOWL1-15 | 2026-08-31 17:37:44 | 49.59861 | 8.36088 | 59° | 69km/h | 14441m | 4.5m/s | -49.5°C | 0.9% | 138.4hPa | 2.7V | 04:10:30 | 01:08:32 | 00:00:00 | |
| BIOWL1-15 | 2026-08-31 17:37:32 | 49.59769 | 8.35860 | 57° | 62km/h | 14402m | 3.3m/s | -49.6°C | 0.9% | 139.2hPa | 2.8V | 04:10:30 | 01:08:22 | 00:00:00 | |
| BIOWL1-15 | 2026-08-31 17:37:21 | 49.59676 | 8.35625 | 59° | 64km/h | 14355m | 4.7m/s | -49.7°C | 1% | 140.2hPa | 2.8V | 04:10:30 | 01:08:11 | 00:00:00 | |
| BIOWL1-15 | 2026-08-31 17:37:13 | 49.59596 | 8.35420 | 57° | 64km/h | 14310m | 4.6m/s | -49.4°C | 1% | 141.2hPa | 2.7V | 04:10:30 | 01:08:01 | 00:00:00 | |
| DM0DOS-11 | 2026-08-31 17:37:11 | 49.59552 | 8.35326 | 56° | 55km/h | 14289m | 3.9m/s | -49.3°C | 3.9% | 141.6hPa | 2.7V | 04:10:34 | 01:07:56 | 00:00:00 | |
| KANTATE | 2026-08-31 17:37:09 | 49.59587 | 8.35400 | 55° | 64km/h | 14306m | 4.7m/s | -49.4°C | 0% | 141.3hPa | 2.7V | 04:10:00 | 00:00:00 | 00:00:00 | |
| DB0ND-19 | 2026-08-31 17:37:08 | 49.59560 | 8.35344 | 56° | 55km/h | 14293m | 3.9m/s | -49.3°C | 1.6% | 141.5hPa | 2.7V | 00:00:00 | 00:00:00 | 00:00:00 | |
| DO3MHA-11 | 2026-08-31 17:37:06 | 49.59552 | 8.35325 | 57° | 55km/h | 14289m | 3.8m/s | -49.2°C | 3.9% | 141.5hPa | 2.7V | 04:10:00 | 01:07:56 | 00:00:00 | |
| SFWM-10 | 2026-08-31 17:37:04 | 49.59545 | 8.35308 | 57° | 51km/h | 14285m | 4.8m/s | -49.3°C | 1.6% | 141.7hPa | 2.8V | 04:11:00 | 00:00:00 | 00:00:00 | |
| DB0UT-9 | 2026-08-31 17:37:03 | 49.59538 | 8.35292 | 57° | 49km/h | 14281m | 3.8m/s | -49.2°C | 1.6% | 141.8hPa | 2.8V | 04:11:00 | 00:00:00 | 00:00:00 | |
| DM0DOS-11 | 2026-08-31 17:37:01 | 49.59479 | 8.35145 | 58° | 62km/h | 14245m | 4m/s | -49.1°C | 3.8% | 142.6hPa | 2.8V | 04:10:44 | 01:07:46 | 00:00:00 | |
| BIOWL1-15 | 2026-08-31 17:37:01 | 49.59518 | 8.35242 | 60° | 53km/h | 14268m | 4.5m/s | -49.1°C | 1% | 142.1hPa | 2.7V | 04:11:21 | 01:07:51 | 00:00:00 | |
| BIOWL1-15 | 2026-08-31 17:36:52 | 49.59429 | 8.35038 | 57° | 44km/h | 14217m | 4.2m/s | -48.9°C | 0.9% | 143.2hPa | 2.8V | 04:11:21 | 01:07:40 | 00:00:00 | |
| DM0DOS-11 | 2026-08-31 17:36:51 | 49.59409 | 8.34985 | 61° | 42km/h | 14200m | 4.9m/s | -49.4°C | 3.9% | 143.5hPa | 2.7V | 04:10:54 | 01:07:36 | 00:00:00 | |
| DB0NH | 2026-08-31 17:36:51 | 49.59436 | 8.35053 | 54° | 58km/h | 14222m | 5.2m/s | -48.8°C | 3.8% | 143.0hPa | 2.7V | 00:00:00 | 01:07:41 | 00:00:00 | |
| NBG1-10 | 2026-08-31 17:36:50 | 49.59429 | 8.35038 | 58° | 58km/h | 14217m | 4.2m/s | -48.8°C | 3.8% | 143.1hPa | 2.7V | 00:00:00 | 01:07:40 | 00:00:00 | |
| KANTATE | 2026-08-31 17:36:49 | 49.59429 | 8.35038 | 58° | 44km/h | 14217m | 4.2m/s | -48.9°C | 0% | 0hPa | 2.7V | 00:00:00 | 00:00:00 | 00:00:00 | |
| DB0UT-7 | 2026-08-31 17:36:48 | 49.59418 | 8.35011 | 58° | 62km/h | 14207m | 4.5m/s | -49.0°C | 3.8% | 143.3hPa | 2.7V | 00:00:00 | 01:07:38 | 00:00:00 | |
| DO3MHA-11 | 2026-08-31 17:36:46 | 49.59408 | 8.34985 | 62° | 62km/h | 14200m | 4.9m/s | -49.4°C | 3.9% | 143.5hPa | 2.8V | 00:00:00 | 01:07:36 | 00:00:00 | |
| SFWM-10 | 2026-08-31 17:36:44 | 49.59403 | 8.34969 | 64° | 53km/h | 14195m | 4.9m/s | -49.5°C | 1.6% | 143.7hPa | 2.8V | 04:11:00 | 00:00:00 | 00:00:00 | |
| DL8DAS-15 | 2026-08-31 17:36:43 | 49.59396 | 8.34949 | 63° | 62km/h | 14190m | 5.5m/s | -49.5°C | 1.6% | 143.8hPa | 2.8V | 00:00:00 | 00:00:00 | 00:00:00 | |
| DF3TZ-5 | 2026-08-31 17:36:42 | 49.59380 | 8.34903 | 61° | 71km/h | 14175m | 6.3m/s | -49.7°C | 1.6% | 144.1hPa | 2.8V | 00:00:00 | 00:00:00 | 00:00:00 | |
| DM0DOS-11 | 2026-08-31 17:36:41 | 49.59353 | 8.34762 | 78° | 58km/h | 14135m | 9.7m/s | -50°C | 4% | 145hPa | 2.8V | 04:11:04 | 01:07:26 | 00:00:00 | |
| BIOWL1-15 | 2026-08-31 17:36:40 | 49.59365 | 8.34853 | 71° | 68km/h | 14163m | 6.4m/s | -49.6°C | 1% | 144.4hPa | 2.7V | 04:11:21 | 01:07:30 | 00:00:00 | |
| DL4BBY-15 | 2026-08-31 17:36:38 | 49.59358 | 8.34806 | 82° | 60km/h | 14152m | 6.2m/s | -48.5°C | 0% | 0hPa | 2.7V | 00:00:00 | 00:00:00 | 00:00:00 | |
| DB0ND-19 | 2026-08-31 17:36:37 | 49.59353 | 8.34762 | 78° | 57km/h | 14135m | 9.7m/s | -50.0°C | 1.6% | 145.0hPa | 2.7V | 00:00:00 | 00:00:00 | 00:00:00 | |
| DO3MHA-11 | 2026-08-31 17:36:36 | 49.59353 | 8.34762 | 79° | 60km/h | 14135m | 9.6m/s | -49.9°C | 4.0% | 144.9hPa | 2.7V | 00:00:00 | 01:07:26 | 00:00:00 | |
| DJ3KS | 2026-08-31 17:36:35 | 49.59353 | 8.34762 | 79° | 58km/h | 14135m | 9.7m/s | -50.0°C | 0% | 145.0hPa | 2.7V | 00:00:00 | 00:00:00 | 00:00:00 | |
| DJ2DS-15 | 2026-08-31 17:36:33 | 49.59341 | 8.34693 | 74° | 62km/h | 14113m | 5.1m/s | -49.8°C | 4.0% | 145.5hPa | 2.7V | 00:00:00 | 01:07:23 | 00:00:00 | |
| DM0DOS-11 | 2026-08-31 17:36:31 | 49.59319 | 8.34532 | 84° | 64km/h | 14078m | 3.7m/s | -49.7°C | 3.8% | 146.2hPa | 2.7V | 04:11:14 | 01:07:16 | 00:00:00 | |
| BIOWL1-15 | 2026-08-31 17:36:29 | 49.59325 | 8.34603 | 77° | 60km/h | 14092m | 3.8m/s | -49.7°C | 1.1% | 146hPa | 2.8V | 04:11:21 | 01:07:19 | 00:00:00 | |
| KANTATE | 2026-08-31 17:36:28 | 49.59325 | 8.34603 | 78° | 60km/h | 14092m | 3.8m/s | -49.7°C | 0% | 0hPa | 2.7V | 00:00:00 | 00:00:00 | 00:00:00 | |
| BIOWL7-15 | 2026-08-31 17:36:27 | 49.59322 | 8.34580 | 81° | 60km/h | 14088m | 4.4m/s | -49.7°C | 1.6% | 146.1hPa | 2.7V | 04:11:00 | 00:00:00 | 00:00:00 | |
| DO3MHA-11 | 2026-08-31 17:36:26 | 49.59319 | 8.34532 | 85° | 64km/h | 14079m | 3.7m/s | -49.7°C | 3.8% | 146.2hPa | 2.7V | 00:00:00 | 01:07:16 | 00:00:00 | |
| DF2AP-13 | 2026-08-31 17:36:25 | 49.59317 | 8.34506 | 85° | 64km/h | 14074m | 5.1m/s | -49.7°C | 3.9% | 146.3hPa | 2.7V | 00:00:00 | 01:07:15 | 00:00:00 | |
| SFWM-10 | 2026-08-31 17:36:24 | 49.59317 | 8.34506 | 85° | 68km/h | 14074m | 5.2m/s | -49.8°C | 1.6% | 146.4hPa | 2.7V | 04:11:00 | 00:00:00 | 00:00:00 | |
| DB0UT-9 | 2026-08-31 17:36:22 | 49.59313 | 8.34454 | 85° | 69km/h | 14066m | 4.3m/s | -49.8°C | 1.7% | 146.5hPa | 2.7V | 04:11:00 | 00:00:00 | 00:00:00 | |
| DM0DOS-11 | 2026-08-31 17:36:21 | 49.59298 | 8.34286 | 83° | 53km/h | 14035m | 4m/s | -50.1°C | 4.1% | 147.2hPa | 2.7V | 04:11:24 | 01:07:06 | 00:00:00 | |
| BIOWL1-15 | 2026-08-31 17:36:18 | 49.59303 | 8.34329 | 79° | 60km/h | 14044m | 4.1m/s | -49.9°C | 1.2% | 147.1hPa | 2.8V | 04:12:12 | 01:07:08 | 00:00:00 | |
| NBG1-10 | 2026-08-31 17:36:17 | 49.59300 | 8.34307 | 82° | 66km/h | 14040m | 5.3m/s | -49.9°C | 4.1% | 147.1hPa | 2.7V | 00:00:00 | 01:07:07 | 00:00:00 | |
| DO3MHA-11 | 2026-08-31 17:36:16 | 49.59298 | 8.34286 | 84° | 58km/h | 14035m | 4.0m/s | -50.1°C | 4.1% | 147.2hPa | 2.7V | 04:11:00 | 01:07:06 | 00:00:00 | |
| DB0UT-7 | 2026-08-31 17:36:15 | 49.59297 | 8.34265 | 83° | 66km/h | 14031m | 4.7m/s | -50.2°C | 4.2% | 147.3hPa | 2.7V | 00:00:00 | 00:00:00 | 00:00:00 | |
| DJ2DS-15 | 2026-08-31 17:36:13 | 49.59294 | 8.34224 | 86° | 66km/h | 14022m | 4.8m/s | -50.2°C | 4.2% | 147.5hPa | 2.7V | 00:00:00 | 01:07:03 | 00:00:00 | |
| DM0DOS-11 | 2026-08-31 17:36:11 | 49.59280 | 8.34055 | 78° | 66km/h | 13988m | 3.5m/s | -50.6°C | 4.3% | 148.3hPa | 2.7V | 04:11:34 | 01:06:56 | 00:00:00 | |
| BIOWL1-15 | 2026-08-31 17:36:08 | 49.59287 | 8.34107 | 80° | 68km/h | 13998m | 4.4m/s | -50.6°C | 1.3% | 148hPa | 2.8V | 04:12:12 | 01:06:58 | 00:00:00 | |
| DL4BBY-15 | 2026-08-31 17:36:08 | 49.59287 | 8.34106 | 81° | 86km/h | 13999m | 4.3m/s | 0°C | 0% | 0hPa | 2.7V | 00:00:00 | 00:00:00 | 00:00:00 | |
| BIOWL7-15 | 2026-08-31 17:36:07 | 49.59287 | 8.34106 | 81° | 68km/h | 13998m | 4.4m/s | -50.6°C | 1.8% | 148.0hPa | 2.7V | 00:00:00 | 00:00:00 | 00:00:00 | |
| DB0ND-19 | 2026-08-31 17:36:06 | 49.59277 | 8.34030 | 79° | 66km/h | 13985m | 3.2m/s | -50.6°C | 1.8% | 148.4hPa | 2.7V | 00:00:00 | 00:00:00 | 00:00:00 | |
| DN1GJH-1 | 2026-08-31 17:36:05 | 49.59277 | 8.34030 | 81° | 66km/h | 13985m | 3.2m/s | -50.6°C | 1.8% | 148.4hPa | 2.7V | 04:12:00 | 00:00:00 | 00:00:00 | |
| SFWM-10 | 2026-08-31 17:36:03 | 49.59275 | 8.34004 | 83° | 68km/h | 13981m | 4.8m/s | -50.6°C | 1.8% | 148.5hPa | 2.7V | 04:12:00 | 00:00:00 | 00:00:00 | |
| DB0UT-9 | 2026-08-31 17:36:02 | 49.59273 | 8.33978 | 87° | 69km/h | 13977m | 4.2m/s | -50.6°C | 1.9% | 148.6hPa | 2.7V | 04:12:00 | 00:00:00 | 00:00:00 | |
| DM0DOS-11 | 2026-08-31 17:36:01 | 49.59270 | 8.33790 | 87° | 69km/h | 13946m | 5.2m/s | -50.4°C | 4.2% | 149.2hPa | 2.7V | 04:11:44 | 01:06:46 | 00:00:00 | |
| BIOWL1-15 | 2026-08-31 17:35:58 | 49.59271 | 8.33845 | 89° | 69km/h | 13956m | 4.5m/s | -50.5°C | 1.3% | 149hPa | 2.8V | 04:12:12 | 01:06:48 | 00:00:00 | |
| BIOWL9-15 | 2026-08-31 17:35:58 | 49.59271 | 8.33817 | 88° | 69km/h | 13951m | 4.0m/s | -50.5°C | 1.8% | 149.1hPa | 2.8V | 00:00:00 | 00:00:00 | 00:00:00 | |
| DF7PN | 2026-08-31 17:35:57 | 49.59270 | 8.33790 | 87° | 68km/h | 13947m | 5.2m/s | -50.4°C | 1.8% | 149.2hPa | 2.8V | 00:00:00 | 00:00:00 | 00:00:00 | |
| DL1ZP-14 | 2026-08-31 17:35:54 | 49.59267 | 8.33737 | 83° | 69km/h | 13938m | 5.0m/s | -50.6°C | 1.9% | 149.4hPa | 2.8V | 00:00:00 | 00:00:00 | 00:00:00 | |
| DJ2DS-15 | 2026-08-31 17:35:53 | 49.59265 | 8.33709 | 83° | 69km/h | 13933m | 4.1m/s | -50.6°C | 4.3% | 149.5hPa | 2.7V | 00:00:00 | 01:06:43 | 00:00:00 | |
| DM0DOS-11 | 2026-08-31 17:35:51 | 49.59252 | 8.33517 | 85° | 68km/h | 13903m | 5m/s | -50.5°C | 4.2% | 150.2hPa | 2.8V | 04:11:54 | 01:06:36 | 00:00:00 | |
| BIOWL1-15 | 2026-08-31 17:35:47 | 49.59253 | 8.33544 | 86° | 69km/h | 13907m | 4.5m/s | -50.5°C | 1.3% | 150.2hPa | 2.8V | 04:12:12 | 01:06:37 | 00:00:00 | |
| DJ2DS-15 | 2026-08-31 17:35:47 | 49.59252 | 8.33517 | 85° | 66km/h | 13903m | 5.0m/s | -50.5°C | 1.8% | 150.2hPa | 2.7V | 00:00:00 | 00:00:00 | 00:00:00 | |
| DO3MHA-11 | 2026-08-31 17:35:46 | 49.59252 | 8.33517 | 86° | 68km/h | 13903m | 5.0m/s | -50.4°C | 4.2% | 150.2hPa | 2.7V | 00:00:00 | 01:06:36 | 00:00:00 | |
| DB0UT-7 | 2026-08-31 17:35:45 | 49.59251 | 8.33491 | 85° | 69km/h | 13898m | 3.8m/s | -50.3°C | 4.2% | 150.3hPa | 2.7V | 04:11:00 | 01:06:35 | 00:00:00 | |
| NBG1-10 | 2026-08-31 17:35:44 | 49.59249 | 8.33465 | 85° | 73km/h | 13894m | 5.0m/s | -50.3°C | 4.3% | 150.4hPa | 2.7V | 00:00:00 | 01:06:34 | 00:00:00 | |
| DN1GJH-1 | 2026-08-31 17:35:43 | 49.59249 | 8.33465 | 85° | 68km/h | 13894m | 5.1m/s | -50.4°C | 1.8% | 150.5hPa | 2.7V | 04:12:00 | 00:00:00 | 00:00:00 | |
| KANTATE | 2026-08-31 17:35:42 | 49.59247 | 8.33439 | 84° | 68km/h | 13889m | 4.1m/s | 0°C | 0% | 0hPa | 2.7V | 00:00:00 | 00:00:00 | 00:00:00 | |
| DM0DOS-11 | 2026-08-31 17:35:41 | 49.59228 | 8.33254 | 82° | 68km/h | 13857m | 4.1m/s | -50.3°C | 4.2% | 151.3hPa | 2.7V | 04:12:04 | 01:06:26 | 00:00:00 | |
| BIOWL1-15 | 2026-08-31 17:35:38 | 49.59230 | 8.33280 | 81° | 69km/h | 13862m | 4.9m/s | -50.3°C | 1.4% | 151.2hPa | 2.8V | 04:12:12 | 01:06:27 | 00:00:00 | |
| HEMX73-11 | 2026-08-31 17:35:36 | 49.59228 | 8.33253 | 83° | 68km/h | 13857m | 4.1m/s | -50.3°C | 1.8% | 151.3hPa | 2.8V | 04:12:00 | 00:00:00 | 00:00:00 | |
| DB0ND-19 | 2026-08-31 17:35:35 | 49.59224 | 8.33201 | 84° | 68km/h | 13848m | 4.5m/s | -50.3°C | 1.8% | 151.5hPa | 2.8V | 00:00:00 | 00:00:00 | 00:00:00 | |
| DJ2DS-15 | 2026-08-31 17:35:33 | 49.59222 | 8.33175 | 86° | 71km/h | 13843m | 5.3m/s | -50.2°C | 4.1% | 151.7hPa | 2.8V | 04:12:00 | 01:06:23 | 00:00:00 | |
| DM0DOS-11 | 2026-08-31 17:35:31 | 49.59214 | 8.32990 | 85° | 71km/h | 13810m | 4.7m/s | -50.6°C | 4.2% | 152.4hPa | 2.8V | 04:12:14 | 01:06:16 | 00:00:00 | |
| BIOWL1-15 | 2026-08-31 17:35:26 | 49.59214 | 8.32990 | 85° | 71km/h | 13810m | 4.7m/s | -50.6°C | 1.3% | 152.4hPa | 2.8V | 04:13:03 | 01:06:16 | 00:00:00 | |
| DF7PN | 2026-08-31 17:35:26 | 49.59212 | 8.32962 | 86° | 71km/h | 13804m | 6.0m/s | -50.7°C | 1.8% | 152.5hPa | 2.7V | 00:00:00 | 00:00:00 | 00:00:00 | |
| DF2AP-13 | 2026-08-31 17:35:25 | 49.59212 | 8.32962 | 87° | 78km/h | 13804m | 6.0m/s | -50.6°C | 4.2% | 152.5hPa | 2.7V | 04:12:00 | 01:06:15 | 00:00:00 | |
| DL1ZP-14 | 2026-08-31 17:35:23 | 49.59211 | 8.32907 | 86° | 71km/h | 13793m | 6.1m/s | -50.7°C | 1.8% | 152.8hPa | 2.7V | 00:00:00 | 00:00:00 | 00:00:00 | |
| SFWM-10 | 2026-08-31 17:35:22 | 49.59210 | 8.32907 | 87° | 71km/h | 13794m | 6.1m/s | -50.7°C | 1.8% | 152.8hPa | 2.8V | 04:13:00 | 00:00:00 | 00:00:00 | |
| DM0DOS-11 | 2026-08-31 17:35:21 | 49.59207 | 8.32709 | 89° | 77km/h | 13760m | 5.2m/s | -50.8°C | 4.3% | 153.6hPa | 2.8V | 04:12:24 | 01:06:06 | 00:00:00 | |
| BIOWL1-15 | 2026-08-31 17:35:16 | 49.59207 | 8.32709 | 90° | 77km/h | 13760m | 5.2m/s | -50.8°C | 1.3% | 153.6hPa | 2.8V | 04:13:03 | 01:06:06 | 00:00:00 | |
| DO3MHA-11 | 2026-08-31 17:35:16 | 49.59207 | 8.32709 | 90° | 78km/h | 13760m | 5.2m/s | -50.7°C | 4.3% | 153.5hPa | 2.7V | 00:00:00 | 01:06:06 | 00:00:00 | |
| DB0UT-7 | 2026-08-31 17:35:15 | 49.59207 | 8.32679 | 91° | 80km/h | 13755m | 4.2m/s | -50.7°C | 4.3% | 153.7hPa | 2.7V | 00:00:00 | 00:00:00 | 00:00:00 | |
| DJ2DS-15 | 2026-08-31 17:35:13 | 49.59206 | 8.32617 | 88° | 82km/h | 13746m | 5.5m/s | -50.6°C | 4.2% | 153.9hPa | 2.8V | 00:00:00 | 01:06:03 | 00:00:00 | |
| DM0DOS-11 | 2026-08-31 17:35:11 | 49.59195 | 8.32403 | 85° | 78km/h | 13712m | 3.7m/s | -50.5°C | 4.2% | 154.7hPa | 2.8V | 04:12:34 | 01:05:56 | 00:00:00 | |
| BIOWL1-15 | 2026-08-31 17:35:05 | 49.59193 | 8.32372 | 86° | 80km/h | 13708m | 5.4m/s | -50.6°C | 1.3% | 154.8hPa | 2.8V | 04:13:03 | 01:05:55 | 00:00:00 | |
| SFWM-10 | 2026-08-31 17:35:03 | 49.59191 | 8.32309 | 89° | 80km/h | 13698m | 5.3m/s | -50.6°C | 1.8% | 155.0hPa | 2.8V | 04:13:00 | 00:00:00 | 00:00:00 | |
| DN1GJH-1 | 2026-08-31 17:35:02 | 49.59191 | 8.32309 | 89° | 80km/h | 13698m | 5.3m/s | -50.6°C | 1.8% | 155.0hPa | 2.8V | 04:13:00 | 00:00:00 | 00:00:00 | |
| DM0DOS-11 | 2026-08-31 17:35:01 | 49.59181 | 8.32083 | 84° | 84km/h | 13668m | 4.2m/s | -50.4°C | 4.2% | 155.8hPa | 2.8V | 04:12:44 | 01:05:46 | 00:00:00 | |
| BIOWL1-15 | 2026-08-31 17:34:55 | 49.59179 | 8.32050 | 84° | 84km/h | 13663m | 4.9m/s | -50.4°C | 1.2% | 155.9hPa | 2.8V | 04:13:03 | 01:05:45 | 00:00:00 | |
| DF7PN | 2026-08-31 17:34:55 | 49.59176 | 8.32018 | 83° | 82km/h | 13659m | 4.2m/s | -50.4°C | 1.8% | 156.0hPa | 2.7V | 00:00:00 | 00:00:00 | 00:00:00 | |
| DL1ZP-14 | 2026-08-31 17:34:52 | 49.59172 | 8.31954 | 84° | 80km/h | 13650m | 3.6m/s | -50.3°C | 1.8% | 156.2hPa | 2.7V | 00:00:00 | 00:00:00 | 00:00:00 | |
| DM0DOS-11 | 2026-08-31 17:34:51 | 49.59160 | 8.31769 | 82° | 80km/h | 13621m | 4.3m/s | -50.1°C | 4.1% | 156.9hPa | 2.7V | 04:12:54 | 01:05:36 | 00:00:00 | |
| BIOWL1-15 | 2026-08-31 17:34:45 | 49.59157 | 8.31738 | 84° | 80km/h | 13616m | 4.3m/s | -50.1°C | 1.1% | 157hPa | 2.8V | 04:13:03 | 01:05:35 | 00:00:00 | |
| DM3KS-11 | 2026-08-31 17:34:42 | 49.59152 | 8.31646 | 84° | 80km/h | 13603m | 5.4m/s | -50.0°C | 1.7% | 157.3hPa | 2.8V | 00:00:00 | 00:00:00 | 00:00:00 | |
| DM0DOS-11 | 2026-08-31 17:34:41 | 49.59139 | 8.31459 | 82° | 80km/h | 13574m | 4.4m/s | -49.9°C | 4% | 158.1hPa | 2.8V | 04:13:04 | 01:05:26 | 00:00:00 | |
| BIOWL1-15 | 2026-08-31 17:34:37 | 49.59136 | 8.31428 | 84° | 80km/h | 13569m | 4.9m/s | -49.9°C | 1.1% | 158.2hPa | 2.8V | 04:13:54 | 01:05:25 | 00:00:00 | |
| DO3MHA-11 | 2026-08-31 17:34:36 | 49.59139 | 8.31459 | 83° | 80km/h | 13574m | 4.3m/s | -49.8°C | 4.0% | 158.0hPa | 2.7V | 04:13:00 | 01:05:26 | 00:00:00 | |
| DJ2DS-15 | 2026-08-31 17:34:35 | 49.59134 | 8.31397 | 85° | 78km/h | 13565m | 4.4m/s | -49.8°C | 1.7% | 158.3hPa | 2.7V | 00:00:00 | 00:00:00 | 00:00:00 | |
| DJ2DS-15 | 2026-08-31 17:34:33 | 49.59133 | 8.31366 | 87° | 80km/h | 13560m | 4.1m/s | -49.8°C | 4.1% | 158.3hPa | 2.7V | 00:00:00 | 01:05:23 | 00:00:00 | |
| DB0ND-19 | 2026-08-31 17:34:32 | 49.59132 | 8.31335 | 85° | 80km/h | 13556m | 5.1m/s | -49.8°C | 1.7% | 158.5hPa | 2.7V | 00:00:00 | 00:00:00 | 00:00:00 | |
| DM0DOS-11 | 2026-08-31 17:34:31 | 49.59126 | 8.31144 | 87° | 84km/h | 13528m | 3.7m/s | -49.6°C | 4% | 159.2hPa | 2.7V | 04:13:14 | 01:05:16 | 00:00:00 | |
| BIOWL1-15 | 2026-08-31 17:34:24 | 49.59125 | 8.31079 | 90° | 80km/h | 13518m | 5m/s | -49.6°C | 1.1% | 159.4hPa | 2.8V | 04:13:54 | 01:05:14 | 00:00:00 | |
| DF7PN | 2026-08-31 17:34:23 | 49.59125 | 8.31048 | 90° | 78km/h | 13514m | 4.3m/s | -49.6°C | 1.7% | 159.5hPa | 2.7V | 00:00:00 | 00:00:00 | 00:00:00 | |
| BIOWL7-15 | 2026-08-31 17:34:22 | 49.59125 | 8.31048 | 91° | 78km/h | 13514m | 4.3m/s | -49.6°C | 1.7% | 159.5hPa | 2.7V | 04:13:00 | 00:00:00 | 00:00:00 | |
| DM0DOS-11 | 2026-08-31 17:34:21 | 49.59120 | 8.30832 | 86° | 84km/h | 13479m | 4.9m/s | -49.4°C | 4% | 160.3hPa | 2.7V | 04:13:24 | 01:05:06 | 00:00:00 | |
| BIOWL1-15 | 2026-08-31 17:34:13 | 49.59105 | 8.30458 | 88° | 78km/h | 13423m | 5.6m/s | -49.1°C | 1% | 161.8hPa | 2.7V | 04:13:54 | 01:04:54 | 00:00:00 | |
| DJ2DS-15 | 2026-08-31 17:34:13 | 49.59116 | 8.30735 | 86° | 80km/h | 13465m | 5.3m/s | -49.2°C | 4.0% | 160.7hPa | 2.8V | 00:00:00 | 01:05:03 | 00:00:00 | |
| DM0DOS-11 | 2026-08-31 17:34:11 | 49.59106 | 8.30518 | 88° | 78km/h | 13433m | 5.1m/s | -49.1°C | 3.9% | 161.5hPa | 2.8V | 04:13:34 | 01:04:56 | 00:00:00 | |
| DO3MHA-11 | 2026-08-31 17:34:06 | 49.59106 | 8.30518 | 89° | 80km/h | 13433m | 5.0m/s | -49.1°C | 3.9% | 161.5hPa | 2.7V | 00:00:00 | 01:04:56 | 00:00:00 | |
| NBG1-10 | 2026-08-31 17:34:02 | 49.59103 | 8.30397 | 89° | 84km/h | 13413m | 5.5m/s | -49.0°C | 4.0% | 161.9hPa | 2.7V | 00:00:00 | 01:04:52 | 00:00:00 | |
| DM0DOS-11 | 2026-08-31 17:34:01 | 49.59098 | 8.30203 | 87° | 84km/h | 13384m | 4.5m/s | -48.9°C | 3.9% | 162.7hPa | 2.8V | 04:13:44 | 01:04:46 | 00:00:00 | |
| BIOWL1-15 | 2026-08-31 17:33:55 | 49.59096 | 8.30105 | 89° | 82km/h | 13369m | 5.6m/s | -48.8°C | 1% | 163hPa | 2.7V | 04:13:54 | 01:04:43 | 00:00:00 | |
| BIOWL9-15 | 2026-08-31 17:33:54 | 49.59096 | 8.30105 | 89° | 80km/h | 13369m | 5.6m/s | -48.8°C | 1.7% | 163.0hPa | 2.8V | 00:00:00 | 00:00:00 | 00:00:00 | |
| DF7PN | 2026-08-31 17:33:52 | 49.59096 | 8.30074 | 90° | 80km/h | 13364m | 4.6m/s | -48.8°C | 1.7% | 163.2hPa | 2.8V | 00:00:00 | 00:00:00 | 00:00:00 | |
| DL1ZP-14 | 2026-08-31 17:33:50 | 49.59095 | 8.30010 | 89° | 82km/h | 13354m | 5.1m/s | -48.8°C | 1.7% | 163.5hPa | 2.8V | 00:00:00 | 00:00:00 | 00:00:00 | |
| DL8DAS-14 | 2026-08-31 17:33:46 | 49.59095 | 8.29881 | 88° | 82km/h | 13335m | 5.6m/s | -48.7°C | 1.6% | 163.9hPa | 2.7V | 00:00:00 | 00:00:00 | 00:00:00 | |
| BIOWL1-15 | 2026-08-31 17:33:44 | 49.59092 | 8.29756 | 89° | 78km/h | 13316m | 4.2m/s | -48.6°C | 1% | 164.3hPa | 2.7V | 04:14:45 | 01:04:32 | 00:00:00 | |
| DM7RM-13 | 2026-08-31 17:33:43 | 49.59093 | 8.29818 | 89° | 80km/h | 13326m | 5.3m/s | -48.6°C | 1.7% | 164.1hPa | 2.7V | 04:14:00 | 00:00:00 | 00:00:00 | |
| DL8DAS-15 | 2026-08-31 17:33:42 | 49.59093 | 8.29787 | 90° | 78km/h | 13321m | 4.6m/s | -48.6°C | 1.6% | 164.2hPa | 2.7V | 04:14:00 | 00:00:00 | 00:00:00 | |
| DM0DOS-11 | 2026-08-31 17:33:41 | 49.59092 | 8.29563 | 89° | 86km/h | 13287m | 4.3m/s | -48.4°C | 3.8% | 165.1hPa | 2.7V | 04:14:04 | 01:04:26 | 00:00:00 | |
| BIOWL1-15 | 2026-08-31 17:33:33 | 49.59093 | 8.29394 | 90° | 86km/h | 13262m | 5.4m/s | -48.6°C | 0.9% | 165.7hPa | 2.8V | 04:14:45 | 01:04:21 | 00:00:00 | |
| DJ2DS-15 | 2026-08-31 17:33:33 | 49.59093 | 8.29462 | 91° | 89km/h | 13273m | 5.4m/s | -48.4°C | 3.7% | 165.4hPa | 2.7V | 00:00:00 | 01:04:23 | 00:00:00 | |
| DM0DOS-11 | 2026-08-31 17:33:31 | 49.59092 | 8.29227 | 90° | 88km/h | 13238m | 4.9m/s | -48.6°C | 3.9% | 166.3hPa | 2.7V | 04:14:14 | 01:04:16 | 00:00:00 | |
| BIOWL1-15 | 2026-08-31 17:33:22 | 49.59091 | 8.29015 | 90° | 93km/h | 13209m | 4.9m/s | -48.6°C | 1% | 167.1hPa | 2.7V | 04:14:45 | 01:04:10 | 00:00:00 | |
| DM0DOS-11 | 2026-08-31 17:33:21 | 49.59092 | 8.28869 | 91° | 93km/h | 13188m | 4.1m/s | -48.6°C | 3.9% | 167.6hPa | 2.8V | 04:14:24 | 01:04:06 | 00:00:00 | |
| DK5PH-5 | 2026-08-31 17:33:20 | 49.59091 | 8.29014 | 90° | 93km/h | 13209m | 4.8m/s | -48.5°C | 3.8% | 167.1hPa | 2.8V | 00:00:00 | 01:04:10 | 00:00:00 | |
| DL1ZP-14 | 2026-08-31 17:33:19 | 49.59091 | 8.28942 | 89° | 93km/h | 13199m | 4.4m/s | -48.6°C | 1.7% | 167.3hPa | 2.8V | 00:00:00 | 00:00:00 | 00:00:00 | |
| DB0UT-9 | 2026-08-31 17:33:17 | 49.59091 | 8.28942 | 91° | 93km/h | 13199m | 4.4m/s | -48.6°C | 1.7% | 167.3hPa | 2.7V | 04:14:00 | 00:00:00 | 00:00:00 | |
| DO3MHA-11 | 2026-08-31 17:33:16 | 49.59092 | 8.28869 | 92° | 93km/h | 13189m | 4.1m/s | -48.6°C | 3.9% | 167.5hPa | 2.7V | 00:00:00 | 01:04:06 | 00:00:00 | |
| DB0UT-7 | 2026-08-31 17:33:15 | 49.59092 | 8.28833 | 92° | 95km/h | 13184m | 5.2m/s | -48.6°C | 3.9% | 167.6hPa | 2.7V | 04:14:00 | 00:00:00 | 00:00:00 | |
| DF1GD-15 | 2026-08-31 17:33:14 | 49.59092 | 8.28833 | 93° | 93km/h | 13184m | 5.2m/s | -48.6°C | 1.7% | 167.7hPa | 2.7V | 04:14:00 | 00:00:00 | 00:00:00 | |
| DJ2DS-15 | 2026-08-31 17:33:13 | 49.59093 | 8.28760 | 92° | 93km/h | 13173m | 5.6m/s | -48.6°C | 3.9% | 167.9hPa | 2.7V | 00:00:00 | 01:04:03 | 00:00:00 | |
| DL8DAS-15 | 2026-08-31 17:33:12 | 49.59093 | 8.28760 | 92° | 93km/h | 13173m | 5.7m/s | -48.7°C | 1.7% | 168.0hPa | 2.7V | 04:14:00 | 00:00:00 | 00:00:00 | |
| DM0DOS-11 | 2026-08-31 17:33:10 | 49.59093 | 8.28508 | 88° | 95km/h | 13137m | 5.2m/s | -48.7°C | 3.9% | 168.9hPa | 2.7V | 04:14:34 | 01:03:56 | 00:00:00 | |
| BIOWL1-15 | 2026-08-31 17:33:09 | 49.59094 | 8.28616 | 89° | 93km/h | 13153m | 5.2m/s | -48.8°C | 1.1% | 168.5hPa | 2.8V | 04:14:45 | 01:03:59 | 00:00:00 | |
| DO1YAY-16 | 2026-08-31 17:33:08 | 49.59093 | 8.28580 | 89° | 91km/h | 13148m | 4.6m/s | -48.7°C | 1.7% | 168.6hPa | 2.7V | 00:00:00 | 00:00:00 | 00:00:00 | |
| DO3MHA-11 | 2026-08-31 17:33:06 | 49.59093 | 8.28508 | 89° | 93km/h | 13137m | 5.2m/s | -48.6°C | 3.9% | 168.8hPa | 2.7V | 00:00:00 | 01:03:56 | 00:00:00 | |
| DF3TZ-5 | 2026-08-31 17:33:04 | 49.59091 | 8.28435 | 88° | 91km/h | 13128m | 5.1m/s | -48.6°C | 1.7% | 169.1hPa | 2.7V | 00:00:00 | 00:00:00 | 00:00:00 | |
| DB0NH | 2026-08-31 17:33:03 | 49.59090 | 8.28399 | 88° | 95km/h | 13123m | 4.3m/s | 0°C | 0% | 0hPa | 2.7V | 00:00:00 | 01:03:53 | 00:00:00 | |
| DM7RM-13 | 2026-08-31 17:33:02 | 49.59090 | 8.28399 | 89° | 93km/h | 13123m | 4.3m/s | -48.6°C | 1.7% | 169.2hPa | 2.7V | 04:14:00 | 00:00:00 | 00:00:00 | |
| DM0DOS-11 | 2026-08-31 17:32:59 | 49.59081 | 8.28144 | 87° | 95km/h | 13087m | 5.2m/s | -48.4°C | 3.8% | 170.2hPa | 2.7V | 04:14:44 | 01:03:46 | 00:00:00 | |
| BIOWL1-15 | 2026-08-31 17:32:58 | 49.59084 | 8.28218 | 86° | 95km/h | 13097m | 5.8m/s | -48.5°C | 1% | 169.9hPa | 2.8V | 04:14:45 | 01:03:48 | 00:00:00 | |
| BIOWL9-15 | 2026-08-31 17:32:52 | 49.59076 | 8.27958 | 87° | 95km/h | 13062m | 5.6m/s | -48.4°C | 1.7% | 170.8hPa | 2.8V | 00:00:00 | 00:00:00 | 00:00:00 | |
| DM0DOS-11 | 2026-08-31 17:32:51 | 49.59072 | 8.27773 | 90° | 93km/h | 13036m | 4.6m/s | -48.4°C | 3.9% | 171.5hPa | 2.8V | 04:14:54 | 01:03:36 | 00:00:00 | |
| BIOWL1-15 | 2026-08-31 17:32:50 | 49.59073 | 8.27846 | 88° | 95km/h | 13047m | 4.2m/s | -48.4°C | 1.1% | 171.2hPa | 2.8V | 04:15:36 | 01:03:38 | 00:00:00 | |
| DL1ZP-14 | 2026-08-31 17:32:48 | 49.59072 | 8.27809 | 89° | 93km/h | 13042m | 5.8m/s | -48.4°C | 1.7% | 171.3hPa | 2.8V | 00:00:00 | 00:00:00 | 00:00:00 | |
| DO3MHA-11 | 2026-08-31 17:32:46 | 49.59072 | 8.27773 | 91° | 91km/h | 13037m | 4.5m/s | -48.3°C | 3.9% | 171.4hPa | 2.7V | 00:00:00 | 01:03:36 | 00:00:00 | |
| DB0UT-7 | 2026-08-31 17:32:45 | 49.59073 | 8.27736 | 91° | 93km/h | 13031m | 5.8m/s | -48.3°C | 3.8% | 171.5hPa | 2.7V | 00:00:00 | 01:03:35 | 00:00:00 | |
| DL8DAS-14 | 2026-08-31 17:32:44 | 49.59073 | 8.27700 | 90° | 93km/h | 13026m | 4.4m/s | -48.4°C | 1.7% | 171.7hPa | 2.7V | 00:00:00 | 00:00:00 | 00:00:00 | |
| DL8DAS-15 | 2026-08-31 17:32:43 | 49.59073 | 8.27699 | 91° | 93km/h | 13026m | 4.4m/s | -48.4°C | 1.7% | 171.7hPa | 2.7V | 00:00:00 | 00:00:00 | 00:00:00 | |
| DM7RM-13 | 2026-08-31 17:32:42 | 49.59073 | 8.27664 | 91° | 91km/h | 13021m | 5.8m/s | -48.4°C | 1.7% | 171.8hPa | 2.7V | 04:15:00 | 00:00:00 | 00:00:00 | |
| DM0DOS-11 | 2026-08-31 17:32:41 | 49.59069 | 8.27415 | 87° | 93km/h | 12988m | 5.3m/s | -48.5°C | 3.9% | 172.7hPa | 2.7V | 04:15:04 | 01:03:26 | 00:00:00 | |
| BIOWL1-15 | 2026-08-31 17:32:39 | 49.59069 | 8.27451 | 88° | 93km/h | 12993m | 4.7m/s | -48.5°C | 1.1% | 172.6hPa | 2.8V | 04:15:36 | 01:03:27 | 00:00:00 | |
| DM3KS-11 | 2026-08-31 17:32:38 | 49.59070 | 8.27487 | 88° | 91km/h | 12998m | 5.0m/s | -48.4°C | 1.7% | 172.5hPa | 2.7V | 00:00:00 | 00:00:00 | 00:00:00 | |
| DO3MHA-11 | 2026-08-31 17:32:36 | 49.59069 | 8.27415 | 88° | 91km/h | 12988m | 5.2m/s | -48.4°C | 3.9% | 172.6hPa | 2.7V | 00:00:00 | 01:03:26 | 00:00:00 | |
| DB0UT-9 | 2026-08-31 17:32:35 | 49.59069 | 8.27415 | 89° | 93km/h | 12988m | 5.3m/s | -48.5°C | 1.7% | 172.7hPa | 2.8V | 04:15:00 | 00:00:00 | 00:00:00 | |
| DO3DL | 2026-08-31 17:32:34 | 49.59068 | 8.27379 | 88° | 93km/h | 12983m | 4.2m/s | 0°C | 0% | 172.8hPa | 2.8V | 00:00:00 | 00:00:00 | 00:00:00 | |
| DJ2DS-15 | 2026-08-31 17:32:33 | 49.59067 | 8.27307 | 90° | 93km/h | 12973m | 5.0m/s | -48.5°C | 3.9% | 173.1hPa | 2.8V | 00:00:00 | 01:03:23 | 00:00:00 | |
| DF1GD-15 | 2026-08-31 17:32:32 | 49.59066 | 8.27307 | 91° | 91km/h | 12973m | 5.0m/s | -48.6°C | 1.7% | 173.1hPa | 2.8V | 04:15:00 | 00:00:00 | 00:00:00 | |
| DM0DOS-11 | 2026-08-31 17:32:31 | 49.59067 | 8.27059 | 90° | 91km/h | 12938m | 5.1m/s | -48.5°C | 3.9% | 174hPa | 2.8V | 04:15:14 | 01:03:16 | 00:00:00 | |
| BIOWL1-15 | 2026-08-31 17:32:26 | 49.59067 | 8.27059 | 91° | 91km/h | 12938m | 5.1m/s | -48.5°C | 1.1% | 174hPa | 2.8V | 04:15:36 | 01:03:16 | 00:00:00 | |
| DO3MHA-11 | 2026-08-31 17:32:26 | 49.59067 | 8.27059 | 91° | 95km/h | 12938m | 5.0m/s | -48.5°C | 3.9% | 174.0hPa | 2.7V | 00:00:00 | 01:03:16 | 00:00:00 | |
| DF2AP-13 | 2026-08-31 17:32:25 | 49.59067 | 8.27023 | 92° | 97km/h | 12933m | 4.7m/s | -48.5°C | 3.9% | 174.1hPa | 2.7V | 00:00:00 | 01:03:15 | 00:00:00 | |
| DL8DAS-15 | 2026-08-31 17:32:24 | 49.59067 | 8.27023 | 92° | 91km/h | 12933m | 4.8m/s | -48.5°C | 1.8% | 174.2hPa | 2.7V | 00:00:00 | 00:00:00 | 00:00:00 | |
| NBG1-10 | 2026-08-31 17:32:23 | 49.59068 | 8.26951 | 90° | 97km/h | 12923m | 4.9m/s | -48.6°C | 3.9% | 174.4hPa | 2.7V | 04:15:00 | 01:03:13 | 00:00:00 | |
| DM0DOS-11 | 2026-08-31 17:32:21 | 49.59073 | 8.26689 | 94° | 95km/h | 12888m | 4.1m/s | -48.6°C | 3.9% | 175.3hPa | 2.8V | 04:15:24 | 01:03:06 | 00:00:00 | |
| BIOWL1-15 | 2026-08-31 17:32:16 | 49.59073 | 8.26689 | 94° | 95km/h | 12888m | 4.1m/s | -48.6°C | 1.1% | 175.3hPa | 2.8V | 04:15:36 | 01:03:06 | 00:00:00 | |
| DO3MHA-11 | 2026-08-31 17:32:16 | 49.59073 | 8.26689 | 95° | 95km/h | 12888m | 4.0m/s | -48.6°C | 3.9% | 175.3hPa | 2.7V | 00:00:00 | 01:03:06 | 00:00:00 | |
| DO3DL | 2026-08-31 17:32:15 | 49.59075 | 8.26653 | 95° | 93km/h | 12884m | 5.5m/s | 0°C | 0% | 175.5hPa | 2.7V | 00:00:00 | 00:00:00 | 00:00:00 | |
| DB0UT-9 | 2026-08-31 17:32:14 | 49.59075 | 8.26653 | 95° | 93km/h | 12884m | 5.5m/s | -48.6°C | 1.8% | 175.5hPa | 2.7V | 04:15:00 | 00:00:00 | 00:00:00 | |
| DF1GD-15 | 2026-08-31 17:32:13 | 49.59077 | 8.26580 | 94° | 93km/h | 12874m | 4.1m/s | -48.6°C | 1.8% | 175.7hPa | 2.7V | 04:15:00 | 00:00:00 | 00:00:00 | |
| BIOWL7-15 | 2026-08-31 17:32:12 | 49.59077 | 8.26580 | 94° | 93km/h | 12874m | 4.1m/s | -48.6°C | 1.8% | 175.7hPa | 2.7V | 00:00:00 | 00:00:00 | 00:00:00 | |
| DM0DOS-11 | 2026-08-31 17:32:11 | 49.59088 | 8.26322 | 93° | 99km/h | 12842m | 4.3m/s | -48.5°C | 3.9% | 176.6hPa | 2.7V | 04:15:34 | 01:02:56 | 00:00:00 | |
| BIOWL1-15 | 2026-08-31 17:32:11 | 49.59089 | 8.26284 | 93° | 99km/h | 12838m | 4.4m/s | -48.5°C | 1.1% | 176.7hPa | 2.7V | 04:15:36 | 01:02:55 | 00:00:00 | |
| DJ2DS-15 | 2026-08-31 17:32:10 | 49.59082 | 8.26471 | 93° | 93km/h | 12860m | 5.0m/s | -48.6°C | 1.8% | 176.1hPa | 2.7V | 00:00:00 | 00:00:00 | 00:00:00 | |
| DM3KS-11 | 2026-08-31 17:32:07 | 49.59088 | 8.26322 | 93° | 97km/h | 12842m | 4.3m/s | -48.5°C | 1.8% | 176.6hPa | 2.7V | 00:00:00 | 00:00:00 | 00:00:00 | |
| DO3MHA-11 | 2026-08-31 17:32:06 | 49.59088 | 8.26322 | 94° | 99km/h | 12842m | 4.3m/s | -48.4°C | 3.9% | 176.5hPa | 2.7V | 04:15:00 | 01:02:56 | 00:00:00 | |
| DF3TZ-5 | 2026-08-31 17:32:02 | 49.59092 | 8.26171 | 92° | 95km/h | 12823m | 4.8m/s | -48.5°C | 1.8% | 177.1hPa | 2.8V | 00:00:00 | 00:00:00 | 00:00:00 | |
| DM0DOS-11 | 2026-08-31 17:32:01 | 49.59097 | 8.25942 | 92° | 100km/h | 12796m | 5.1m/s | -48.5°C | 3.9% | 177.8hPa | 2.8V | 04:15:44 | 01:02:46 | 00:00:00 | |
| BIOWL1-15 | 2026-08-31 17:31:54 | 49.59099 | 8.25864 | 93° | 102km/h | 12787m | 5m/s | -48.4°C | 1.2% | 178hPa | 2.7V | 04:16:27 | 01:02:44 | 00:00:00 | |
| DJ2DS-15 | 2026-08-31 17:31:53 | 49.59101 | 8.25824 | 94° | 100km/h | 12782m | 4.7m/s | -48.4°C | 4.0% | 178.1hPa | 2.7V | 00:00:00 | 01:02:43 | 00:00:00 | |
| DM0DOS-11 | 2026-08-31 17:31:51 | 49.59108 | 8.25550 | 92° | 99km/h | 12749m | 4.1m/s | -48.5°C | 4% | 179.1hPa | 2.8V | 04:15:54 | 01:02:36 | 00:00:00 | |
| BIOWL9-15 | 2026-08-31 17:31:49 | 49.59105 | 8.25665 | 92° | 100km/h | 12764m | 4.9m/s | -48.5°C | 1.8% | 178.7hPa | 2.7V | 00:00:00 | 00:00:00 | 00:00:00 | |
| DF7PN | 2026-08-31 17:31:48 | 49.59106 | 8.25626 | 92° | 99km/h | 12759m | 4.0m/s | -48.5°C | 1.8% | 178.8hPa | 2.7V | 00:00:00 | 00:00:00 | 00:00:00 | |
| DL1ZP-14 | 2026-08-31 17:31:45 | 49.59110 | 8.25511 | 93° | 99km/h | 12745m | 5.1m/s | -48.5°C | 1.8% | 179.2hPa | 2.7V | 00:00:00 | 00:00:00 | 00:00:00 | |
| BIOWL1-15 | 2026-08-31 17:31:44 | 49.59111 | 8.25473 | 93° | 100km/h | 12740m | 3.8m/s | -48.5°C | 1.2% | 179.3hPa | 2.7V | 04:16:27 | 01:02:34 | 00:00:00 | |
| DL8DAS-15 | 2026-08-31 17:31:43 | 49.59111 | 8.25473 | 94° | 100km/h | 12740m | 3.8m/s | -48.5°C | 1.9% | 179.3hPa | 2.8V | 00:00:00 | 00:00:00 | 00:00:00 | |
| DL8DAS-14 | 2026-08-31 17:31:42 | 49.59113 | 8.25395 | 92° | 100km/h | 12731m | 4.4m/s | -48.4°C | 1.8% | 179.6hPa | 2.8V | 00:00:00 | 00:00:00 | 00:00:00 | |
| DM0DOS-11 | 2026-08-31 17:31:41 | 49.59122 | 8.25157 | 92° | 99km/h | 12704m | 3.4m/s | -48.4°C | 3.9% | 180.3hPa | 2.8V | 04:16:04 | 01:02:26 | 00:00:00 | |
| BIOWL1-15 | 2026-08-31 17:31:33 | 49.59123 | 8.25044 | 91° | 95km/h | 12689m | 5.5m/s | -48.3°C | 1.1% | 180.8hPa | 2.7V | 04:16:27 | 01:02:23 | 00:00:00 | |
| BIOWL1-15 | 2026-08-31 17:31:22 | 49.59130 | 8.24621 | 91° | 99km/h | 12640m | 4.6m/s | -48.2°C | 1.2% | 182.1hPa | 2.7V | 04:16:27 | 01:02:12 | 00:00:00 | |
| BIOWL1-15 | 2026-08-31 17:31:13 | 49.59132 | 8.24210 | 91° | 97km/h | 12593m | 4.8m/s | -48.5°C | 1.1% | 183.4hPa | 2.8V | 04:17:18 | 01:02:01 | 00:00:00 | |
| DJ2DS-15 | 2026-08-31 17:31:13 | 49.59132 | 8.24285 | 90° | 104km/h | 12601m | 4.2m/s | -48.3°C | 3.8% | 183.1hPa | 2.8V | 00:00:00 | 01:02:03 | 00:00:00 | |
| DB0UT-9 | 2026-08-31 17:31:12 | 49.59132 | 8.24285 | 91° | 97km/h | 12601m | 4.3m/s | -48.4°C | 1.8% | 183.2hPa | 2.8V | 04:16:00 | 00:00:00 | 00:00:00 | |
| DL8DAS-14 | 2026-08-31 17:31:11 | 49.59132 | 8.24210 | 90° | 95km/h | 12593m | 4.8m/s | -48.5°C | 1.8% | 183.4hPa | 2.8V | 00:00:00 | 00:00:00 | 00:00:00 | |
| DF1GD-15 | 2026-08-31 17:31:10 | 49.59132 | 8.24210 | 92° | 97km/h | 12593m | 4.8m/s | -48.5°C | 1.8% | 183.4hPa | 2.8V | 04:17:00 | 00:00:00 | 00:00:00 | |
| HEMX73-11 | 2026-08-31 17:31:09 | 49.59132 | 8.24172 | 92° | 97km/h | 12589m | 3.3m/s | -48.5°C | 1.7% | 183.5hPa | 2.8V | 04:17:00 | 00:00:00 | 00:00:00 | |
| DM0DOS-11 | 2026-08-31 17:31:08 | 49.59135 | 8.24015 | 93° | 104km/h | 12571m | 4.8m/s | -48.5°C | 3.9% | 184hPa | 2.8V | 04:16:34 | 01:01:56 | 00:00:00 | |
| BIOWL1-15 | 2026-08-31 17:31:05 | 49.59141 | 8.23807 | 92° | 108km/h | 12550m | 3.8m/s | -48.3°C | 1.1% | 184.6hPa | 2.7V | 04:17:18 | 01:01:51 | 00:00:00 | |
| DM3KS-11 | 2026-08-31 17:31:05 | 49.59138 | 8.23932 | 92° | 108km/h | 12563m | 5.3m/s | -48.4°C | 1.8% | 184.2hPa | 2.7V | 00:00:00 | 00:00:00 | 00:00:00 | |
| DL9PN | 2026-08-31 17:31:04 | 49.59138 | 8.23932 | 92° | 108km/h | 12563m | 5.3m/s | -48.4°C | 1.8% | 184.2hPa | 2.7V | 00:00:00 | 00:00:00 | 00:00:00 | |
| DL0LBS | 2026-08-31 17:31:03 | 49.59138 | 8.23932 | 94° | 108km/h | 12563m | 5.3m/s | -48.4°C | 1.8% | 184.2hPa | 2.7V | 04:17:00 | 00:00:00 | 00:00:00 | |
| DM0DOS-11 | 2026-08-31 17:31:01 | 49.59144 | 8.23595 | 92° | 110km/h | 12529m | 3.6m/s | -48.3°C | 3.9% | 185.2hPa | 2.7V | 04:16:44 | 01:01:46 | 00:00:00 | |
| DF3TZ-5 | 2026-08-31 17:31:00 | 49.59141 | 8.23765 | 91° | 108km/h | 12545m | 5.0m/s | -48.3°C | 1.7% | 184.8hPa | 2.7V | 00:00:00 | 00:00:00 | 00:00:00 | |
| DJ2DS-15 | 2026-08-31 17:30:58 | 49.59142 | 8.23680 | 91° | 108km/h | 12537m | 3.3m/s | -48.3°C | 1.7% | 185.0hPa | 2.7V | 00:00:00 | 00:00:00 | 00:00:00 | |
| DO3MHA-11 | 2026-08-31 17:30:56 | 49.59144 | 8.23595 | 93° | 108km/h | 12529m | 3.6m/s | -48.3°C | 3.9% | 185.1hPa | 2.7V | 00:00:00 | 01:01:46 | 00:00:00 | |
| DF2AP-13 | 2026-08-31 17:30:55 | 49.59145 | 8.23553 | 92° | 108km/h | 12525m | 4.6m/s | -48.3°C | 3.9% | 185.3hPa | 2.7V | 00:00:00 | 01:01:45 | 00:00:00 | |
| DJ2DS-15 | 2026-08-31 17:30:53 | 49.59146 | 8.23468 | 92° | 106km/h | 12517m | 3.6m/s | -48.3°C | 3.9% | 185.5hPa | 2.7V | 00:00:00 | 01:01:43 | 00:00:00 | |
| DB0UT-9 | 2026-08-31 17:30:52 | 49.59146 | 8.23468 | 92° | 110km/h | 12517m | 3.6m/s | -48.4°C | 1.8% | 185.5hPa | 2.7V | 04:17:00 | 00:00:00 | 00:00:00 | |
| DM0DOS-11 | 2026-08-31 17:30:51 | 49.59153 | 8.23178 | 91° | 104km/h | 12488m | 3.8m/s | -48.3°C | 3.9% | 186.3hPa | 2.7V | 04:16:54 | 01:01:36 | 00:00:00 | |
| BIOWL1-15 | 2026-08-31 17:30:50 | 49.59150 | 8.23342 | 93° | 106km/h | 12504m | 4.6m/s | -48.3°C | 1.1% | 185.9hPa | 2.7V | 04:17:18 | 01:01:40 | 00:00:00 | |
| BIOWL9-15 | 2026-08-31 17:30:47 | 49.59152 | 8.23218 | 91° | 104km/h | 12492m | 4.9m/s | -48.3°C | 1.7% | 186.2hPa | 2.7V | 00:00:00 | 00:00:00 | 00:00:00 | |
| DO3MHA-11 | 2026-08-31 17:30:46 | 49.59153 | 8.23178 | 92° | 104km/h | 12488m | 3.7m/s | -48.2°C | 3.9% | 186.3hPa | 2.7V | 00:00:00 | 01:01:36 | 00:00:00 | |
| DB0UT-7 | 2026-08-31 17:30:45 | 49.59153 | 8.23137 | 91° | 108km/h | 12484m | 5.0m/s | -48.2°C | 3.9% | 186.4hPa | 2.7V | 04:16:00 | 01:01:35 | 00:00:00 | |
| NBG1-10 | 2026-08-31 17:30:44 | 49.59153 | 8.23097 | 89° | 110km/h | 12479m | 3.6m/s | -48.2°C | 3.9% | 186.5hPa | 2.7V | 00:00:00 | 01:01:34 | 00:00:00 | |
| DL1ZP-14 | 2026-08-31 17:30:43 | 49.59152 | 8.23057 | 89° | 100km/h | 12475m | 4.7m/s | -48.3°C | 1.7% | 186.7hPa | 2.8V | 00:00:00 | 00:00:00 | 00:00:00 | |
| DL0LBS | 2026-08-31 17:30:42 | 49.59152 | 8.23057 | 90° | 102km/h | 12475m | 4.7m/s | -48.3°C | 1.8% | 186.7hPa | 2.7V | 04:17:00 | 00:00:00 | 00:00:00 | |
| DM0DOS-11 | 2026-08-31 17:30:41 | 49.59151 | 8.22773 | 89° | 111km/h | 12447m | 4.7m/s | -48.3°C | 3.8% | 187.5hPa | 2.7V | 04:17:04 | 01:01:26 | 00:00:00 | |
| BIOWL1-15 | 2026-08-31 17:30:40 | 49.59152 | 8.22938 | 89° | 104km/h | 12463m | 4m/s | -48.3°C | 1% | 187hPa | 2.8V | 04:17:18 | 01:01:30 | 00:00:00 | |
| DO3MHA-11 | 2026-08-31 17:30:36 | 49.59151 | 8.22773 | 90° | 113km/h | 12447m | 4.6m/s | -48.3°C | 3.8% | 187.4hPa | 2.7V | 00:00:00 | 01:01:26 | 00:00:00 | |
| DO1YAY-16 | 2026-08-31 17:30:33 | 49.59150 | 8.22593 | 89° | 115km/h | 12431m | 2.9m/s | -48.3°C | 1.7% | 188.0hPa | 2.7V | 00:00:00 | 00:00:00 | 00:00:00 | |
| DM0DOS-11 | 2026-08-31 17:30:31 | 49.59143 | 8.22336 | 88° | 106km/h | 12409m | 3.4m/s | -48.1°C | 3.9% | 188.6hPa | 2.7V | 04:17:14 | 01:01:16 | 00:00:00 | |
| BIOWL1-15 | 2026-08-31 17:30:30 | 49.59148 | 8.22504 | 87° | 111km/h | 12423m | 4m/s | -48.2°C | 1.1% | 188.2hPa | 2.7V | 04:17:18 | 01:01:20 | 00:00:00 | |
| DB0NH | 2026-08-31 17:30:30 | 49.59148 | 8.22504 | 88° | 110km/h | 12423m | 3.9m/s | 0°C | 0% | 0hPa | 2.8V | 00:00:00 | 01:01:20 | 00:00:00 | |
| DF3TZ-5 | 2026-08-31 17:30:29 | 49.59146 | 8.22461 | 86° | 110km/h | 12420m | 3.0m/s | -48.2°C | 1.8% | 188.3hPa | 2.8V | 00:00:00 | 00:00:00 | 00:00:00 | |
| DF1GD-15 | 2026-08-31 17:30:28 | 49.59146 | 8.22461 | 87° | 110km/h | 12420m | 3.0m/s | -48.2°C | 1.8% | 188.3hPa | 2.8V | 04:17:00 | 00:00:00 | 00:00:00 | |
| DO3MHA-11 | 2026-08-31 17:30:26 | 49.59143 | 8.22336 | 89° | 110km/h | 12409m | 3.4m/s | -48.1°C | 3.9% | 188.6hPa | 2.8V | 04:17:00 | 01:01:16 | 00:00:00 | |
| DF2AP-13 | 2026-08-31 17:30:25 | 49.59142 | 8.22294 | 89° | 108km/h | 12405m | 4.5m/s | -48.1°C | 3.9% | 188.7hPa | 2.8V | 04:17:00 | 01:01:15 | 00:00:00 | |
| DB0ND-19 | 2026-08-31 17:30:24 | 49.59141 | 8.22252 | 88° | 108km/h | 12401m | 3.8m/s | -48.1°C | 1.8% | 188.8hPa | 2.8V | 00:00:00 | 00:00:00 | 00:00:00 | |
| DJ2DS-15 | 2026-08-31 17:30:22 | 49.59141 | 8.22167 | 89° | 110km/h | 12393m | 5.3m/s | -48.0°C | -1.0% | 189.0hPa | 2.8V | 00:00:00 | 00:00:00 | 00:00:00 | |
| DM0DOS-11 | 2026-08-31 17:30:21 | 49.59140 | 8.21911 | 90° | 108km/h | 12368m | 3.5m/s | -47.9°C | 3.8% | 189.8hPa | 2.8V | 04:17:24 | 01:01:06 | 00:00:00 | |
| BIOWL1-15 | 2026-08-31 17:30:19 | 49.59140 | 8.22039 | 89° | 110km/h | 12381m | 4m/s | -47.9°C | 1% | 189.4hPa | 2.7V | 04:18:09 | 01:01:09 | 00:00:00 | |
| DM7RM-13 | 2026-08-31 17:30:18 | 49.59140 | 8.22038 | 90° | 110km/h | 12381m | 4.0m/s | -47.9°C | 1.8% | 189.4hPa | 2.8V | 04:18:00 | 00:00:00 | 00:00:00 | |
| DO3MHA-11 | 2026-08-31 17:30:16 | 49.59140 | 8.21911 | 91° | 110km/h | 12368m | 3.4m/s | -47.8°C | 3.8% | 189.7hPa | 2.8V | 00:00:00 | 01:01:06 | 00:00:00 | |
| Es werden nur die letzten 3500 von 4491 Frames angezeigt. GPX/KML und Diagramme bleiben verfügbar. | |||||||||||||||